<?xml version="1.0" encoding="UTF-8" standalone="no" ?>
<gpx xmlns="http://www.topografix.com/GPX/1/1" xmlns:xsi="http://www.w3.org/2001/XMLSchema-instance" xsi:schemaLocation="http://www.topografix.com/GPX/1/1 http://www.topografix.com/GPX/1/1/gpx.xsd" version="1.1" creator="VisuGPX - https://www.visugpx.com">
  <metadata>
    <name>2018-06-01 Bike ride-Amberieux en Dombes O via Monthieux 46k</name>
    <desc><![CDATA[2018-06-01 Bike ride-Amberieux en Dombes O via Monthieux 46k]]></desc>
  </metadata>
  <wpt lat="45.92462" lon="4.73713">
    <ele>174</ele>
    <name><![CDATA[2018-06-01 10:29 (Start)]]></name>
  </wpt>
  <wpt lat="45.92457" lon="4.73708">
    <ele>174</ele>
    <name><![CDATA[2018-06-01 10:29 (End)]]></name>
  </wpt>
  <trk>
    <name><![CDATA[2018-06-01 10:29]]></name>
    <trkseg>
      <trkpt lat="45.92462" lon="4.73713">
        <ele>174</ele>
        <time>2018-06-01T08:29:53.48Z</time>
      </trkpt>
      <trkpt lat="45.92461" lon="4.73717">
        <ele>174</ele>
        <time>2018-06-01T08:29:55.387Z</time>
      </trkpt>
      <trkpt lat="45.92461" lon="4.73715">
        <ele>174</ele>
        <time>2018-06-01T08:29:56.396Z</time>
      </trkpt>
      <trkpt lat="45.9246" lon="4.73717">
        <ele>174</ele>
        <time>2018-06-01T08:29:57Z</time>
      </trkpt>
      <trkpt lat="45.92455" lon="4.73727">
        <ele>174</ele>
        <time>2018-06-01T08:29:59Z</time>
      </trkpt>
      <trkpt lat="45.92454" lon="4.7373">
        <ele>174</ele>
        <time>2018-06-01T08:30:00Z</time>
      </trkpt>
      <trkpt lat="45.92454" lon="4.73722">
        <ele>174</ele>
        <time>2018-06-01T08:30:11Z</time>
      </trkpt>
      <trkpt lat="45.92454" lon="4.73721">
        <ele>174</ele>
        <time>2018-06-01T08:30:12Z</time>
      </trkpt>
      <trkpt lat="45.92455" lon="4.73716">
        <ele>174</ele>
        <time>2018-06-01T08:30:17Z</time>
      </trkpt>
      <trkpt lat="45.92456" lon="4.73716">
        <ele>174</ele>
        <time>2018-06-01T08:30:18Z</time>
      </trkpt>
      <trkpt lat="45.92456" lon="4.73716">
        <ele>174</ele>
        <time>2018-06-01T08:30:24Z</time>
      </trkpt>
      <trkpt lat="45.92456" lon="4.73716">
        <ele>174</ele>
        <time>2018-06-01T08:30:25Z</time>
      </trkpt>
      <trkpt lat="45.92458" lon="4.73712">
        <ele>174</ele>
        <time>2018-06-01T08:31:28Z</time>
      </trkpt>
      <trkpt lat="45.92458" lon="4.73712">
        <ele>174</ele>
        <time>2018-06-01T08:31:29Z</time>
      </trkpt>
      <trkpt lat="45.92465" lon="4.73703">
        <ele>174</ele>
        <time>2018-06-01T08:31:44Z</time>
      </trkpt>
      <trkpt lat="45.92466" lon="4.737">
        <ele>174</ele>
        <time>2018-06-01T08:31:45Z</time>
      </trkpt>
      <trkpt lat="45.92467" lon="4.73689">
        <ele>174</ele>
        <time>2018-06-01T08:31:48Z</time>
      </trkpt>
      <trkpt lat="45.92468" lon="4.73685">
        <ele>174</ele>
        <time>2018-06-01T08:31:49Z</time>
      </trkpt>
      <trkpt lat="45.92469" lon="4.73673">
        <ele>174</ele>
        <time>2018-06-01T08:31:53Z</time>
      </trkpt>
      <trkpt lat="45.92469" lon="4.73671">
        <ele>174</ele>
        <time>2018-06-01T08:31:54Z</time>
      </trkpt>
      <trkpt lat="45.92464" lon="4.73661">
        <ele>174</ele>
        <time>2018-06-01T08:32:06Z</time>
      </trkpt>
      <trkpt lat="45.92464" lon="4.73658">
        <ele>174</ele>
        <time>2018-06-01T08:32:07Z</time>
      </trkpt>
      <trkpt lat="45.92466" lon="4.73649">
        <ele>174</ele>
        <time>2018-06-01T08:32:10Z</time>
      </trkpt>
      <trkpt lat="45.92467" lon="4.73645">
        <ele>174</ele>
        <time>2018-06-01T08:32:11Z</time>
      </trkpt>
      <trkpt lat="45.92468" lon="4.73633">
        <ele>174</ele>
        <time>2018-06-01T08:32:14Z</time>
      </trkpt>
      <trkpt lat="45.92469" lon="4.73619">
        <ele>174</ele>
        <time>2018-06-01T08:32:15Z</time>
      </trkpt>
      <trkpt lat="45.9247" lon="4.7361">
        <ele>174</ele>
        <time>2018-06-01T08:32:17Z</time>
      </trkpt>
      <trkpt lat="45.9247" lon="4.73602">
        <ele>174</ele>
        <time>2018-06-01T08:32:18Z</time>
      </trkpt>
      <trkpt lat="45.92469" lon="4.73592">
        <ele>174</ele>
        <time>2018-06-01T08:32:20Z</time>
      </trkpt>
      <trkpt lat="45.92468" lon="4.73586">
        <ele>174</ele>
        <time>2018-06-01T08:32:21Z</time>
      </trkpt>
      <trkpt lat="45.92467" lon="4.73578">
        <ele>173</ele>
        <time>2018-06-01T08:32:23Z</time>
      </trkpt>
      <trkpt lat="45.92466" lon="4.73571">
        <ele>173</ele>
        <time>2018-06-01T08:32:24Z</time>
      </trkpt>
      <trkpt lat="45.92465" lon="4.73559">
        <ele>173</ele>
        <time>2018-06-01T08:32:26Z</time>
      </trkpt>
      <trkpt lat="45.92465" lon="4.73557">
        <ele>173</ele>
        <time>2018-06-01T08:32:27Z</time>
      </trkpt>
      <trkpt lat="45.92465" lon="4.73546">
        <ele>173</ele>
        <time>2018-06-01T08:32:30Z</time>
      </trkpt>
      <trkpt lat="45.92465" lon="4.73542">
        <ele>173</ele>
        <time>2018-06-01T08:32:31Z</time>
      </trkpt>
      <trkpt lat="45.92466" lon="4.73529">
        <ele>174</ele>
        <time>2018-06-01T08:32:32Z</time>
      </trkpt>
      <trkpt lat="45.92466" lon="4.73517">
        <ele>174</ele>
        <time>2018-06-01T08:32:34Z</time>
      </trkpt>
      <trkpt lat="45.92466" lon="4.73511">
        <ele>174</ele>
        <time>2018-06-01T08:32:35Z</time>
      </trkpt>
      <trkpt lat="45.92467" lon="4.73498">
        <ele>173</ele>
        <time>2018-06-01T08:32:37Z</time>
      </trkpt>
      <trkpt lat="45.92469" lon="4.73492">
        <ele>173</ele>
        <time>2018-06-01T08:32:38Z</time>
      </trkpt>
      <trkpt lat="45.92469" lon="4.73485">
        <ele>173</ele>
        <time>2018-06-01T08:32:39Z</time>
      </trkpt>
      <trkpt lat="45.92468" lon="4.73478">
        <ele>173</ele>
        <time>2018-06-01T08:32:40Z</time>
      </trkpt>
      <trkpt lat="45.92467" lon="4.7347">
        <ele>173</ele>
        <time>2018-06-01T08:32:41Z</time>
      </trkpt>
      <trkpt lat="45.92466" lon="4.73463">
        <ele>173</ele>
        <time>2018-06-01T08:32:42Z</time>
      </trkpt>
      <trkpt lat="45.92466" lon="4.73456">
        <ele>173</ele>
        <time>2018-06-01T08:32:43Z</time>
      </trkpt>
      <trkpt lat="45.92465" lon="4.7345">
        <ele>173</ele>
        <time>2018-06-01T08:32:44Z</time>
      </trkpt>
      <trkpt lat="45.92461" lon="4.73443">
        <ele>173</ele>
        <time>2018-06-01T08:32:45Z</time>
      </trkpt>
      <trkpt lat="45.9246" lon="4.73437">
        <ele>173</ele>
        <time>2018-06-01T08:32:46Z</time>
      </trkpt>
      <trkpt lat="45.92456" lon="4.73429">
        <ele>173</ele>
        <time>2018-06-01T08:32:48Z</time>
      </trkpt>
      <trkpt lat="45.92452" lon="4.73425">
        <ele>173</ele>
        <time>2018-06-01T08:32:49Z</time>
      </trkpt>
      <trkpt lat="45.92448" lon="4.73422">
        <ele>173</ele>
        <time>2018-06-01T08:32:50Z</time>
      </trkpt>
      <trkpt lat="45.92443" lon="4.73419">
        <ele>173</ele>
        <time>2018-06-01T08:32:51Z</time>
      </trkpt>
      <trkpt lat="45.92438" lon="4.73415">
        <ele>172</ele>
        <time>2018-06-01T08:32:52Z</time>
      </trkpt>
      <trkpt lat="45.92433" lon="4.7341">
        <ele>172</ele>
        <time>2018-06-01T08:32:53Z</time>
      </trkpt>
      <trkpt lat="45.92429" lon="4.73405">
        <ele>172</ele>
        <time>2018-06-01T08:32:54Z</time>
      </trkpt>
      <trkpt lat="45.92425" lon="4.73399">
        <ele>172</ele>
        <time>2018-06-01T08:32:55Z</time>
      </trkpt>
      <trkpt lat="45.92425" lon="4.7339">
        <ele>172</ele>
        <time>2018-06-01T08:32:56Z</time>
      </trkpt>
      <trkpt lat="45.92422" lon="4.73383">
        <ele>172</ele>
        <time>2018-06-01T08:32:57Z</time>
      </trkpt>
      <trkpt lat="45.92421" lon="4.73376">
        <ele>172</ele>
        <time>2018-06-01T08:32:58Z</time>
      </trkpt>
      <trkpt lat="45.92421" lon="4.73367">
        <ele>172</ele>
        <time>2018-06-01T08:32:59Z</time>
      </trkpt>
      <trkpt lat="45.92419" lon="4.73359">
        <ele>171</ele>
        <time>2018-06-01T08:33:00Z</time>
      </trkpt>
      <trkpt lat="45.92418" lon="4.73352">
        <ele>171</ele>
        <time>2018-06-01T08:33:01Z</time>
      </trkpt>
      <trkpt lat="45.92416" lon="4.73345">
        <ele>171</ele>
        <time>2018-06-01T08:33:02Z</time>
      </trkpt>
      <trkpt lat="45.92415" lon="4.73338">
        <ele>171</ele>
        <time>2018-06-01T08:33:03Z</time>
      </trkpt>
      <trkpt lat="45.92415" lon="4.73326">
        <ele>171</ele>
        <time>2018-06-01T08:33:05Z</time>
      </trkpt>
      <trkpt lat="45.92415" lon="4.73318">
        <ele>171</ele>
        <time>2018-06-01T08:33:06Z</time>
      </trkpt>
      <trkpt lat="45.92414" lon="4.73312">
        <ele>171</ele>
        <time>2018-06-01T08:33:07Z</time>
      </trkpt>
      <trkpt lat="45.92414" lon="4.73305">
        <ele>171</ele>
        <time>2018-06-01T08:33:08Z</time>
      </trkpt>
      <trkpt lat="45.92411" lon="4.73299">
        <ele>171</ele>
        <time>2018-06-01T08:33:09Z</time>
      </trkpt>
      <trkpt lat="45.92411" lon="4.73292">
        <ele>171</ele>
        <time>2018-06-01T08:33:10Z</time>
      </trkpt>
      <trkpt lat="45.92411" lon="4.73284">
        <ele>171</ele>
        <time>2018-06-01T08:33:11Z</time>
      </trkpt>
      <trkpt lat="45.9241" lon="4.73277">
        <ele>171</ele>
        <time>2018-06-01T08:33:12Z</time>
      </trkpt>
      <trkpt lat="45.92409" lon="4.7327">
        <ele>171</ele>
        <time>2018-06-01T08:33:13Z</time>
      </trkpt>
      <trkpt lat="45.9241" lon="4.73263">
        <ele>171</ele>
        <time>2018-06-01T08:33:14Z</time>
      </trkpt>
      <trkpt lat="45.92409" lon="4.73256">
        <ele>171</ele>
        <time>2018-06-01T08:33:15Z</time>
      </trkpt>
      <trkpt lat="45.92407" lon="4.73249">
        <ele>171</ele>
        <time>2018-06-01T08:33:16Z</time>
      </trkpt>
      <trkpt lat="45.92406" lon="4.7324">
        <ele>171</ele>
        <time>2018-06-01T08:33:17Z</time>
      </trkpt>
      <trkpt lat="45.92407" lon="4.73234">
        <ele>171</ele>
        <time>2018-06-01T08:33:18Z</time>
      </trkpt>
      <trkpt lat="45.92406" lon="4.73226">
        <ele>171</ele>
        <time>2018-06-01T08:33:19Z</time>
      </trkpt>
      <trkpt lat="45.92406" lon="4.73216">
        <ele>171</ele>
        <time>2018-06-01T08:33:20Z</time>
      </trkpt>
      <trkpt lat="45.92405" lon="4.73208">
        <ele>171</ele>
        <time>2018-06-01T08:33:21Z</time>
      </trkpt>
      <trkpt lat="45.92404" lon="4.73199">
        <ele>171</ele>
        <time>2018-06-01T08:33:22Z</time>
      </trkpt>
      <trkpt lat="45.92405" lon="4.73192">
        <ele>171</ele>
        <time>2018-06-01T08:33:23Z</time>
      </trkpt>
      <trkpt lat="45.92404" lon="4.73185">
        <ele>171</ele>
        <time>2018-06-01T08:33:24Z</time>
      </trkpt>
      <trkpt lat="45.92404" lon="4.73177">
        <ele>171</ele>
        <time>2018-06-01T08:33:25Z</time>
      </trkpt>
      <trkpt lat="45.92403" lon="4.73171">
        <ele>171</ele>
        <time>2018-06-01T08:33:26Z</time>
      </trkpt>
      <trkpt lat="45.92403" lon="4.73164">
        <ele>170</ele>
        <time>2018-06-01T08:33:27Z</time>
      </trkpt>
      <trkpt lat="45.92404" lon="4.73157">
        <ele>171</ele>
        <time>2018-06-01T08:33:28Z</time>
      </trkpt>
      <trkpt lat="45.92404" lon="4.7315">
        <ele>171</ele>
        <time>2018-06-01T08:33:29Z</time>
      </trkpt>
      <trkpt lat="45.92404" lon="4.73143">
        <ele>171</ele>
        <time>2018-06-01T08:33:30Z</time>
      </trkpt>
      <trkpt lat="45.92405" lon="4.73136">
        <ele>171</ele>
        <time>2018-06-01T08:33:31Z</time>
      </trkpt>
      <trkpt lat="45.92406" lon="4.73129">
        <ele>171</ele>
        <time>2018-06-01T08:33:32Z</time>
      </trkpt>
      <trkpt lat="45.92407" lon="4.73121">
        <ele>171</ele>
        <time>2018-06-01T08:33:33Z</time>
      </trkpt>
      <trkpt lat="45.92408" lon="4.73115">
        <ele>171</ele>
        <time>2018-06-01T08:33:34Z</time>
      </trkpt>
      <trkpt lat="45.92412" lon="4.7311">
        <ele>171</ele>
        <time>2018-06-01T08:33:35Z</time>
      </trkpt>
      <trkpt lat="45.92416" lon="4.73106">
        <ele>171</ele>
        <time>2018-06-01T08:33:36Z</time>
      </trkpt>
      <trkpt lat="45.92421" lon="4.73103">
        <ele>171</ele>
        <time>2018-06-01T08:33:37Z</time>
      </trkpt>
      <trkpt lat="45.92426" lon="4.73099">
        <ele>171</ele>
        <time>2018-06-01T08:33:38Z</time>
      </trkpt>
      <trkpt lat="45.92431" lon="4.73097">
        <ele>171</ele>
        <time>2018-06-01T08:33:39Z</time>
      </trkpt>
      <trkpt lat="45.92436" lon="4.73093">
        <ele>171</ele>
        <time>2018-06-01T08:33:40Z</time>
      </trkpt>
      <trkpt lat="45.9244" lon="4.73089">
        <ele>171</ele>
        <time>2018-06-01T08:33:41Z</time>
      </trkpt>
      <trkpt lat="45.92446" lon="4.73081">
        <ele>170</ele>
        <time>2018-06-01T08:33:42Z</time>
      </trkpt>
      <trkpt lat="45.92452" lon="4.73076">
        <ele>170</ele>
        <time>2018-06-01T08:33:43Z</time>
      </trkpt>
      <trkpt lat="45.92457" lon="4.73073">
        <ele>170</ele>
        <time>2018-06-01T08:33:44Z</time>
      </trkpt>
      <trkpt lat="45.92462" lon="4.73069">
        <ele>170</ele>
        <time>2018-06-01T08:33:45Z</time>
      </trkpt>
      <trkpt lat="45.92467" lon="4.73064">
        <ele>170</ele>
        <time>2018-06-01T08:33:46Z</time>
      </trkpt>
      <trkpt lat="45.92472" lon="4.7306">
        <ele>170</ele>
        <time>2018-06-01T08:33:47Z</time>
      </trkpt>
      <trkpt lat="45.92477" lon="4.73057">
        <ele>170</ele>
        <time>2018-06-01T08:33:48Z</time>
      </trkpt>
      <trkpt lat="45.92482" lon="4.73054">
        <ele>170</ele>
        <time>2018-06-01T08:33:49Z</time>
      </trkpt>
      <trkpt lat="45.92487" lon="4.73049">
        <ele>170</ele>
        <time>2018-06-01T08:33:50Z</time>
      </trkpt>
      <trkpt lat="45.92492" lon="4.73045">
        <ele>170</ele>
        <time>2018-06-01T08:33:51Z</time>
      </trkpt>
      <trkpt lat="45.92498" lon="4.73039">
        <ele>170</ele>
        <time>2018-06-01T08:33:52Z</time>
      </trkpt>
      <trkpt lat="45.92503" lon="4.73035">
        <ele>169</ele>
        <time>2018-06-01T08:33:53Z</time>
      </trkpt>
      <trkpt lat="45.92509" lon="4.73029">
        <ele>169</ele>
        <time>2018-06-01T08:33:54Z</time>
      </trkpt>
      <trkpt lat="45.92514" lon="4.73025">
        <ele>169</ele>
        <time>2018-06-01T08:33:55Z</time>
      </trkpt>
      <trkpt lat="45.92519" lon="4.73019">
        <ele>169</ele>
        <time>2018-06-01T08:33:56Z</time>
      </trkpt>
      <trkpt lat="45.92523" lon="4.73016">
        <ele>169</ele>
        <time>2018-06-01T08:33:57Z</time>
      </trkpt>
      <trkpt lat="45.92527" lon="4.73012">
        <ele>169</ele>
        <time>2018-06-01T08:33:58Z</time>
      </trkpt>
      <trkpt lat="45.92532" lon="4.73009">
        <ele>169</ele>
        <time>2018-06-01T08:33:59Z</time>
      </trkpt>
      <trkpt lat="45.92536" lon="4.73005">
        <ele>169</ele>
        <time>2018-06-01T08:34:00Z</time>
      </trkpt>
      <trkpt lat="45.92541" lon="4.72999">
        <ele>169</ele>
        <time>2018-06-01T08:34:01Z</time>
      </trkpt>
      <trkpt lat="45.92546" lon="4.72995">
        <ele>169</ele>
        <time>2018-06-01T08:34:02Z</time>
      </trkpt>
      <trkpt lat="45.92552" lon="4.72985">
        <ele>169</ele>
        <time>2018-06-01T08:34:03Z</time>
      </trkpt>
      <trkpt lat="45.92557" lon="4.72982">
        <ele>169</ele>
        <time>2018-06-01T08:34:04Z</time>
      </trkpt>
      <trkpt lat="45.92561" lon="4.72976">
        <ele>169</ele>
        <time>2018-06-01T08:34:05Z</time>
      </trkpt>
      <trkpt lat="45.92567" lon="4.72972">
        <ele>169</ele>
        <time>2018-06-01T08:34:06Z</time>
      </trkpt>
      <trkpt lat="45.92572" lon="4.72966">
        <ele>169</ele>
        <time>2018-06-01T08:34:07Z</time>
      </trkpt>
      <trkpt lat="45.92577" lon="4.72961">
        <ele>169</ele>
        <time>2018-06-01T08:34:08Z</time>
      </trkpt>
      <trkpt lat="45.92582" lon="4.72957">
        <ele>169</ele>
        <time>2018-06-01T08:34:09Z</time>
      </trkpt>
      <trkpt lat="45.92587" lon="4.7295">
        <ele>169</ele>
        <time>2018-06-01T08:34:10Z</time>
      </trkpt>
      <trkpt lat="45.92592" lon="4.72945">
        <ele>169</ele>
        <time>2018-06-01T08:34:11Z</time>
      </trkpt>
      <trkpt lat="45.92597" lon="4.7294">
        <ele>169</ele>
        <time>2018-06-01T08:34:12Z</time>
      </trkpt>
      <trkpt lat="45.92601" lon="4.72933">
        <ele>169</ele>
        <time>2018-06-01T08:34:13Z</time>
      </trkpt>
      <trkpt lat="45.92607" lon="4.72928">
        <ele>169</ele>
        <time>2018-06-01T08:34:14Z</time>
      </trkpt>
      <trkpt lat="45.92612" lon="4.72923">
        <ele>169</ele>
        <time>2018-06-01T08:34:15Z</time>
      </trkpt>
      <trkpt lat="45.92617" lon="4.72919">
        <ele>169</ele>
        <time>2018-06-01T08:34:16Z</time>
      </trkpt>
      <trkpt lat="45.92622" lon="4.72915">
        <ele>169</ele>
        <time>2018-06-01T08:34:17Z</time>
      </trkpt>
      <trkpt lat="45.92628" lon="4.7291">
        <ele>169</ele>
        <time>2018-06-01T08:34:18Z</time>
      </trkpt>
      <trkpt lat="45.92632" lon="4.72905">
        <ele>169</ele>
        <time>2018-06-01T08:34:19Z</time>
      </trkpt>
      <trkpt lat="45.92637" lon="4.72901">
        <ele>169</ele>
        <time>2018-06-01T08:34:20Z</time>
      </trkpt>
      <trkpt lat="45.92642" lon="4.72898">
        <ele>169</ele>
        <time>2018-06-01T08:34:21Z</time>
      </trkpt>
      <trkpt lat="45.92648" lon="4.72894">
        <ele>169</ele>
        <time>2018-06-01T08:34:22Z</time>
      </trkpt>
      <trkpt lat="45.92653" lon="4.72891">
        <ele>169</ele>
        <time>2018-06-01T08:34:23Z</time>
      </trkpt>
      <trkpt lat="45.9266" lon="4.72886">
        <ele>169</ele>
        <time>2018-06-01T08:34:24Z</time>
      </trkpt>
      <trkpt lat="45.92665" lon="4.72881">
        <ele>169</ele>
        <time>2018-06-01T08:34:25Z</time>
      </trkpt>
      <trkpt lat="45.92671" lon="4.72878">
        <ele>170</ele>
        <time>2018-06-01T08:34:26Z</time>
      </trkpt>
      <trkpt lat="45.92676" lon="4.72874">
        <ele>169</ele>
        <time>2018-06-01T08:34:27Z</time>
      </trkpt>
      <trkpt lat="45.92681" lon="4.7287">
        <ele>169</ele>
        <time>2018-06-01T08:34:28Z</time>
      </trkpt>
      <trkpt lat="45.92686" lon="4.72865">
        <ele>169</ele>
        <time>2018-06-01T08:34:29Z</time>
      </trkpt>
      <trkpt lat="45.92691" lon="4.72862">
        <ele>169</ele>
        <time>2018-06-01T08:34:30Z</time>
      </trkpt>
      <trkpt lat="45.92696" lon="4.72857">
        <ele>169</ele>
        <time>2018-06-01T08:34:31Z</time>
      </trkpt>
      <trkpt lat="45.92702" lon="4.72853">
        <ele>169</ele>
        <time>2018-06-01T08:34:32Z</time>
      </trkpt>
      <trkpt lat="45.92708" lon="4.72849">
        <ele>169</ele>
        <time>2018-06-01T08:34:33Z</time>
      </trkpt>
      <trkpt lat="45.92712" lon="4.72846">
        <ele>169</ele>
        <time>2018-06-01T08:34:34Z</time>
      </trkpt>
      <trkpt lat="45.92718" lon="4.72841">
        <ele>169</ele>
        <time>2018-06-01T08:34:35Z</time>
      </trkpt>
      <trkpt lat="45.92724" lon="4.72836">
        <ele>169</ele>
        <time>2018-06-01T08:34:36Z</time>
      </trkpt>
      <trkpt lat="45.92728" lon="4.72833">
        <ele>170</ele>
        <time>2018-06-01T08:34:37Z</time>
      </trkpt>
      <trkpt lat="45.92734" lon="4.72827">
        <ele>169</ele>
        <time>2018-06-01T08:34:38Z</time>
      </trkpt>
      <trkpt lat="45.9274" lon="4.72824">
        <ele>169</ele>
        <time>2018-06-01T08:34:39Z</time>
      </trkpt>
      <trkpt lat="45.92745" lon="4.7282">
        <ele>169</ele>
        <time>2018-06-01T08:34:40Z</time>
      </trkpt>
      <trkpt lat="45.92751" lon="4.72816">
        <ele>170</ele>
        <time>2018-06-01T08:34:41Z</time>
      </trkpt>
      <trkpt lat="45.92756" lon="4.72811">
        <ele>170</ele>
        <time>2018-06-01T08:34:42Z</time>
      </trkpt>
      <trkpt lat="45.92761" lon="4.72808">
        <ele>170</ele>
        <time>2018-06-01T08:34:43Z</time>
      </trkpt>
      <trkpt lat="45.92766" lon="4.72804">
        <ele>170</ele>
        <time>2018-06-01T08:34:44Z</time>
      </trkpt>
      <trkpt lat="45.92771" lon="4.728">
        <ele>170</ele>
        <time>2018-06-01T08:34:45Z</time>
      </trkpt>
      <trkpt lat="45.92775" lon="4.72798">
        <ele>170</ele>
        <time>2018-06-01T08:34:46Z</time>
      </trkpt>
      <trkpt lat="45.92781" lon="4.72794">
        <ele>170</ele>
        <time>2018-06-01T08:34:47Z</time>
      </trkpt>
      <trkpt lat="45.92785" lon="4.72792">
        <ele>170</ele>
        <time>2018-06-01T08:34:48Z</time>
      </trkpt>
      <trkpt lat="45.9279" lon="4.72788">
        <ele>171</ele>
        <time>2018-06-01T08:34:49Z</time>
      </trkpt>
      <trkpt lat="45.92795" lon="4.72786">
        <ele>171</ele>
        <time>2018-06-01T08:34:50Z</time>
      </trkpt>
      <trkpt lat="45.92799" lon="4.72785">
        <ele>171</ele>
        <time>2018-06-01T08:34:51Z</time>
      </trkpt>
      <trkpt lat="45.928" lon="4.72792">
        <ele>171</ele>
        <time>2018-06-01T08:34:52Z</time>
      </trkpt>
      <trkpt lat="45.92805" lon="4.72796">
        <ele>171</ele>
        <time>2018-06-01T08:34:53Z</time>
      </trkpt>
      <trkpt lat="45.92806" lon="4.72803">
        <ele>171</ele>
        <time>2018-06-01T08:34:54Z</time>
      </trkpt>
      <trkpt lat="45.92808" lon="4.7281">
        <ele>171</ele>
        <time>2018-06-01T08:34:55Z</time>
      </trkpt>
      <trkpt lat="45.92809" lon="4.72817">
        <ele>171</ele>
        <time>2018-06-01T08:34:56Z</time>
      </trkpt>
      <trkpt lat="45.9281" lon="4.72824">
        <ele>171</ele>
        <time>2018-06-01T08:34:57Z</time>
      </trkpt>
      <trkpt lat="45.92812" lon="4.72832">
        <ele>171</ele>
        <time>2018-06-01T08:34:58Z</time>
      </trkpt>
      <trkpt lat="45.92813" lon="4.7284">
        <ele>170</ele>
        <time>2018-06-01T08:34:59Z</time>
      </trkpt>
      <trkpt lat="45.92816" lon="4.7285">
        <ele>170</ele>
        <time>2018-06-01T08:35:00Z</time>
      </trkpt>
      <trkpt lat="45.92817" lon="4.72858">
        <ele>170</ele>
        <time>2018-06-01T08:35:01Z</time>
      </trkpt>
      <trkpt lat="45.92819" lon="4.72863">
        <ele>170</ele>
        <time>2018-06-01T08:35:02Z</time>
      </trkpt>
      <trkpt lat="45.9282" lon="4.72872">
        <ele>170</ele>
        <time>2018-06-01T08:35:03Z</time>
      </trkpt>
      <trkpt lat="45.92822" lon="4.7288">
        <ele>170</ele>
        <time>2018-06-01T08:35:04Z</time>
      </trkpt>
      <trkpt lat="45.92824" lon="4.72888">
        <ele>170</ele>
        <time>2018-06-01T08:35:05Z</time>
      </trkpt>
      <trkpt lat="45.92824" lon="4.72896">
        <ele>170</ele>
        <time>2018-06-01T08:35:06Z</time>
      </trkpt>
      <trkpt lat="45.92826" lon="4.72905">
        <ele>170</ele>
        <time>2018-06-01T08:35:07Z</time>
      </trkpt>
      <trkpt lat="45.92828" lon="4.72914">
        <ele>170</ele>
        <time>2018-06-01T08:35:08Z</time>
      </trkpt>
      <trkpt lat="45.92828" lon="4.72924">
        <ele>170</ele>
        <time>2018-06-01T08:35:09Z</time>
      </trkpt>
      <trkpt lat="45.92829" lon="4.72932">
        <ele>170</ele>
        <time>2018-06-01T08:35:10Z</time>
      </trkpt>
      <trkpt lat="45.9283" lon="4.72941">
        <ele>170</ele>
        <time>2018-06-01T08:35:11Z</time>
      </trkpt>
      <trkpt lat="45.92831" lon="4.7295">
        <ele>170</ele>
        <time>2018-06-01T08:35:12Z</time>
      </trkpt>
      <trkpt lat="45.92828" lon="4.72959">
        <ele>170</ele>
        <time>2018-06-01T08:35:13Z</time>
      </trkpt>
      <trkpt lat="45.92829" lon="4.72969">
        <ele>170</ele>
        <time>2018-06-01T08:35:14Z</time>
      </trkpt>
      <trkpt lat="45.92829" lon="4.72979">
        <ele>170</ele>
        <time>2018-06-01T08:35:15Z</time>
      </trkpt>
      <trkpt lat="45.9283" lon="4.7299">
        <ele>170</ele>
        <time>2018-06-01T08:35:16Z</time>
      </trkpt>
      <trkpt lat="45.92831" lon="4.73">
        <ele>170</ele>
        <time>2018-06-01T08:35:17Z</time>
      </trkpt>
      <trkpt lat="45.92834" lon="4.7301">
        <ele>170</ele>
        <time>2018-06-01T08:35:18Z</time>
      </trkpt>
      <trkpt lat="45.92834" lon="4.7302">
        <ele>171</ele>
        <time>2018-06-01T08:35:19Z</time>
      </trkpt>
      <trkpt lat="45.92835" lon="4.73029">
        <ele>171</ele>
        <time>2018-06-01T08:35:20Z</time>
      </trkpt>
      <trkpt lat="45.92836" lon="4.73038">
        <ele>171</ele>
        <time>2018-06-01T08:35:21Z</time>
      </trkpt>
      <trkpt lat="45.92837" lon="4.73046">
        <ele>171</ele>
        <time>2018-06-01T08:35:22Z</time>
      </trkpt>
      <trkpt lat="45.92838" lon="4.73055">
        <ele>171</ele>
        <time>2018-06-01T08:35:23Z</time>
      </trkpt>
      <trkpt lat="45.9284" lon="4.73065">
        <ele>171</ele>
        <time>2018-06-01T08:35:24Z</time>
      </trkpt>
      <trkpt lat="45.92842" lon="4.73074">
        <ele>171</ele>
        <time>2018-06-01T08:35:25Z</time>
      </trkpt>
      <trkpt lat="45.92844" lon="4.73083">
        <ele>171</ele>
        <time>2018-06-01T08:35:26Z</time>
      </trkpt>
      <trkpt lat="45.92845" lon="4.73091">
        <ele>171</ele>
        <time>2018-06-01T08:35:27Z</time>
      </trkpt>
      <trkpt lat="45.92848" lon="4.731">
        <ele>171</ele>
        <time>2018-06-01T08:35:28Z</time>
      </trkpt>
      <trkpt lat="45.9285" lon="4.73107">
        <ele>171</ele>
        <time>2018-06-01T08:35:29Z</time>
      </trkpt>
      <trkpt lat="45.92857" lon="4.73103">
        <ele>171</ele>
        <time>2018-06-01T08:35:32Z</time>
      </trkpt>
      <trkpt lat="45.92861" lon="4.731">
        <ele>171</ele>
        <time>2018-06-01T08:35:33Z</time>
      </trkpt>
      <trkpt lat="45.92866" lon="4.73093">
        <ele>172</ele>
        <time>2018-06-01T08:35:35Z</time>
      </trkpt>
      <trkpt lat="45.92869" lon="4.7309">
        <ele>172</ele>
        <time>2018-06-01T08:35:36Z</time>
      </trkpt>
      <trkpt lat="45.92872" lon="4.73086">
        <ele>172</ele>
        <time>2018-06-01T08:35:38Z</time>
      </trkpt>
      <trkpt lat="45.92877" lon="4.73081">
        <ele>172</ele>
        <time>2018-06-01T08:35:39Z</time>
      </trkpt>
      <trkpt lat="45.9288" lon="4.73076">
        <ele>172</ele>
        <time>2018-06-01T08:35:41Z</time>
      </trkpt>
      <trkpt lat="45.92886" lon="4.73066">
        <ele>172</ele>
        <time>2018-06-01T08:35:42Z</time>
      </trkpt>
      <trkpt lat="45.92889" lon="4.73063">
        <ele>172</ele>
        <time>2018-06-01T08:35:43Z</time>
      </trkpt>
      <trkpt lat="45.92894" lon="4.73059">
        <ele>172</ele>
        <time>2018-06-01T08:35:44Z</time>
      </trkpt>
      <trkpt lat="45.92898" lon="4.73055">
        <ele>172</ele>
        <time>2018-06-01T08:35:45Z</time>
      </trkpt>
      <trkpt lat="45.92903" lon="4.73052">
        <ele>172</ele>
        <time>2018-06-01T08:35:46Z</time>
      </trkpt>
      <trkpt lat="45.92908" lon="4.73047">
        <ele>172</ele>
        <time>2018-06-01T08:35:47Z</time>
      </trkpt>
      <trkpt lat="45.92912" lon="4.73041">
        <ele>172</ele>
        <time>2018-06-01T08:35:48Z</time>
      </trkpt>
      <trkpt lat="45.92918" lon="4.7303">
        <ele>172</ele>
        <time>2018-06-01T08:35:49Z</time>
      </trkpt>
      <trkpt lat="45.92923" lon="4.73023">
        <ele>171</ele>
        <time>2018-06-01T08:35:50Z</time>
      </trkpt>
      <trkpt lat="45.92928" lon="4.73017">
        <ele>171</ele>
        <time>2018-06-01T08:35:51Z</time>
      </trkpt>
      <trkpt lat="45.92931" lon="4.73014">
        <ele>171</ele>
        <time>2018-06-01T08:35:52Z</time>
      </trkpt>
      <trkpt lat="45.92936" lon="4.73009">
        <ele>171</ele>
        <time>2018-06-01T08:35:53Z</time>
      </trkpt>
      <trkpt lat="45.92943" lon="4.72999">
        <ele>171</ele>
        <time>2018-06-01T08:35:54Z</time>
      </trkpt>
      <trkpt lat="45.92948" lon="4.72997">
        <ele>171</ele>
        <time>2018-06-01T08:35:55Z</time>
      </trkpt>
      <trkpt lat="45.92952" lon="4.72992">
        <ele>171</ele>
        <time>2018-06-01T08:35:56Z</time>
      </trkpt>
      <trkpt lat="45.92957" lon="4.72986">
        <ele>171</ele>
        <time>2018-06-01T08:35:57Z</time>
      </trkpt>
      <trkpt lat="45.92961" lon="4.72983">
        <ele>171</ele>
        <time>2018-06-01T08:35:58Z</time>
      </trkpt>
      <trkpt lat="45.92965" lon="4.72981">
        <ele>171</ele>
        <time>2018-06-01T08:35:59Z</time>
      </trkpt>
      <trkpt lat="45.92969" lon="4.72976">
        <ele>171</ele>
        <time>2018-06-01T08:36:00Z</time>
      </trkpt>
      <trkpt lat="45.92975" lon="4.72968">
        <ele>171</ele>
        <time>2018-06-01T08:36:01Z</time>
      </trkpt>
      <trkpt lat="45.9298" lon="4.72962">
        <ele>171</ele>
        <time>2018-06-01T08:36:02Z</time>
      </trkpt>
      <trkpt lat="45.92986" lon="4.72955">
        <ele>171</ele>
        <time>2018-06-01T08:36:03Z</time>
      </trkpt>
      <trkpt lat="45.92992" lon="4.72948">
        <ele>171</ele>
        <time>2018-06-01T08:36:04Z</time>
      </trkpt>
      <trkpt lat="45.92997" lon="4.72941">
        <ele>171</ele>
        <time>2018-06-01T08:36:05Z</time>
      </trkpt>
      <trkpt lat="45.93003" lon="4.72934">
        <ele>170</ele>
        <time>2018-06-01T08:36:06Z</time>
      </trkpt>
      <trkpt lat="45.93009" lon="4.72929">
        <ele>170</ele>
        <time>2018-06-01T08:36:07Z</time>
      </trkpt>
      <trkpt lat="45.93014" lon="4.72923">
        <ele>170</ele>
        <time>2018-06-01T08:36:08Z</time>
      </trkpt>
      <trkpt lat="45.93018" lon="4.72919">
        <ele>170</ele>
        <time>2018-06-01T08:36:09Z</time>
      </trkpt>
      <trkpt lat="45.93023" lon="4.72912">
        <ele>172</ele>
        <time>2018-06-01T08:36:10Z</time>
      </trkpt>
      <trkpt lat="45.93028" lon="4.72906">
        <ele>172</ele>
        <time>2018-06-01T08:36:11Z</time>
      </trkpt>
      <trkpt lat="45.93033" lon="4.729">
        <ele>172</ele>
        <time>2018-06-01T08:36:12Z</time>
      </trkpt>
      <trkpt lat="45.93039" lon="4.7289">
        <ele>172</ele>
        <time>2018-06-01T08:36:13Z</time>
      </trkpt>
      <trkpt lat="45.93043" lon="4.72887">
        <ele>172</ele>
        <time>2018-06-01T08:36:14Z</time>
      </trkpt>
      <trkpt lat="45.93049" lon="4.72879">
        <ele>172</ele>
        <time>2018-06-01T08:36:15Z</time>
      </trkpt>
      <trkpt lat="45.93054" lon="4.72873">
        <ele>172</ele>
        <time>2018-06-01T08:36:16Z</time>
      </trkpt>
      <trkpt lat="45.93059" lon="4.72867">
        <ele>172</ele>
        <time>2018-06-01T08:36:17Z</time>
      </trkpt>
      <trkpt lat="45.93064" lon="4.72861">
        <ele>172</ele>
        <time>2018-06-01T08:36:18Z</time>
      </trkpt>
      <trkpt lat="45.93068" lon="4.72855">
        <ele>172</ele>
        <time>2018-06-01T08:36:19Z</time>
      </trkpt>
      <trkpt lat="45.93073" lon="4.7285">
        <ele>172</ele>
        <time>2018-06-01T08:36:20Z</time>
      </trkpt>
      <trkpt lat="45.93092" lon="4.72823">
        <ele>172</ele>
        <time>2018-06-01T08:36:26Z</time>
      </trkpt>
      <trkpt lat="45.931" lon="4.72814">
        <ele>172</ele>
        <time>2018-06-01T08:36:27Z</time>
      </trkpt>
      <trkpt lat="45.93106" lon="4.72809">
        <ele>171</ele>
        <time>2018-06-01T08:36:28Z</time>
      </trkpt>
      <trkpt lat="45.93113" lon="4.72801">
        <ele>171</ele>
        <time>2018-06-01T08:36:29Z</time>
      </trkpt>
      <trkpt lat="45.93119" lon="4.72794">
        <ele>171</ele>
        <time>2018-06-01T08:36:30Z</time>
      </trkpt>
      <trkpt lat="45.93124" lon="4.72788">
        <ele>171</ele>
        <time>2018-06-01T08:36:31Z</time>
      </trkpt>
      <trkpt lat="45.93129" lon="4.72778">
        <ele>171</ele>
        <time>2018-06-01T08:36:32Z</time>
      </trkpt>
      <trkpt lat="45.93135" lon="4.72771">
        <ele>171</ele>
        <time>2018-06-01T08:36:33Z</time>
      </trkpt>
      <trkpt lat="45.93141" lon="4.72765">
        <ele>171</ele>
        <time>2018-06-01T08:36:34Z</time>
      </trkpt>
      <trkpt lat="45.93148" lon="4.72756">
        <ele>170</ele>
        <time>2018-06-01T08:36:35Z</time>
      </trkpt>
      <trkpt lat="45.93154" lon="4.72751">
        <ele>170</ele>
        <time>2018-06-01T08:36:36Z</time>
      </trkpt>
      <trkpt lat="45.93158" lon="4.72745">
        <ele>170</ele>
        <time>2018-06-01T08:36:37Z</time>
      </trkpt>
      <trkpt lat="45.93162" lon="4.7274">
        <ele>170</ele>
        <time>2018-06-01T08:36:38Z</time>
      </trkpt>
      <trkpt lat="45.93167" lon="4.72734">
        <ele>170</ele>
        <time>2018-06-01T08:36:39Z</time>
      </trkpt>
      <trkpt lat="45.93173" lon="4.72729">
        <ele>170</ele>
        <time>2018-06-01T08:36:40Z</time>
      </trkpt>
      <trkpt lat="45.93176" lon="4.72725">
        <ele>170</ele>
        <time>2018-06-01T08:36:41Z</time>
      </trkpt>
      <trkpt lat="45.93181" lon="4.72719">
        <ele>169</ele>
        <time>2018-06-01T08:36:42Z</time>
      </trkpt>
      <trkpt lat="45.93185" lon="4.72714">
        <ele>169</ele>
        <time>2018-06-01T08:36:43Z</time>
      </trkpt>
      <trkpt lat="45.93191" lon="4.72708">
        <ele>169</ele>
        <time>2018-06-01T08:36:44Z</time>
      </trkpt>
      <trkpt lat="45.93196" lon="4.72702">
        <ele>169</ele>
        <time>2018-06-01T08:36:45Z</time>
      </trkpt>
      <trkpt lat="45.93201" lon="4.72697">
        <ele>169</ele>
        <time>2018-06-01T08:36:46Z</time>
      </trkpt>
      <trkpt lat="45.93206" lon="4.72691">
        <ele>169</ele>
        <time>2018-06-01T08:36:47Z</time>
      </trkpt>
      <trkpt lat="45.93212" lon="4.72685">
        <ele>169</ele>
        <time>2018-06-01T08:36:48Z</time>
      </trkpt>
      <trkpt lat="45.93217" lon="4.72678">
        <ele>169</ele>
        <time>2018-06-01T08:36:49Z</time>
      </trkpt>
      <trkpt lat="45.93222" lon="4.72675">
        <ele>169</ele>
        <time>2018-06-01T08:36:50Z</time>
      </trkpt>
      <trkpt lat="45.93227" lon="4.7267">
        <ele>169</ele>
        <time>2018-06-01T08:36:51Z</time>
      </trkpt>
      <trkpt lat="45.93235" lon="4.7266">
        <ele>169</ele>
        <time>2018-06-01T08:36:52Z</time>
      </trkpt>
      <trkpt lat="45.93239" lon="4.72654">
        <ele>169</ele>
        <time>2018-06-01T08:36:53Z</time>
      </trkpt>
      <trkpt lat="45.93244" lon="4.72648">
        <ele>169</ele>
        <time>2018-06-01T08:36:54Z</time>
      </trkpt>
      <trkpt lat="45.9325" lon="4.7264">
        <ele>170</ele>
        <time>2018-06-01T08:36:55Z</time>
      </trkpt>
      <trkpt lat="45.93258" lon="4.72625">
        <ele>170</ele>
        <time>2018-06-01T08:36:56Z</time>
      </trkpt>
      <trkpt lat="45.93264" lon="4.72616">
        <ele>170</ele>
        <time>2018-06-01T08:36:57Z</time>
      </trkpt>
      <trkpt lat="45.93267" lon="4.72614">
        <ele>170</ele>
        <time>2018-06-01T08:36:58Z</time>
      </trkpt>
      <trkpt lat="45.93273" lon="4.72606">
        <ele>170</ele>
        <time>2018-06-01T08:36:59Z</time>
      </trkpt>
      <trkpt lat="45.93278" lon="4.72602">
        <ele>170</ele>
        <time>2018-06-01T08:37:00Z</time>
      </trkpt>
      <trkpt lat="45.93284" lon="4.72596">
        <ele>170</ele>
        <time>2018-06-01T08:37:01Z</time>
      </trkpt>
      <trkpt lat="45.93289" lon="4.72589">
        <ele>170</ele>
        <time>2018-06-01T08:37:02Z</time>
      </trkpt>
      <trkpt lat="45.93294" lon="4.72583">
        <ele>171</ele>
        <time>2018-06-01T08:37:03Z</time>
      </trkpt>
      <trkpt lat="45.933" lon="4.72576">
        <ele>171</ele>
        <time>2018-06-01T08:37:04Z</time>
      </trkpt>
      <trkpt lat="45.93304" lon="4.72569">
        <ele>171</ele>
        <time>2018-06-01T08:37:05Z</time>
      </trkpt>
      <trkpt lat="45.9331" lon="4.72563">
        <ele>171</ele>
        <time>2018-06-01T08:37:06Z</time>
      </trkpt>
      <trkpt lat="45.93314" lon="4.72559">
        <ele>171</ele>
        <time>2018-06-01T08:37:07Z</time>
      </trkpt>
      <trkpt lat="45.9332" lon="4.72553">
        <ele>172</ele>
        <time>2018-06-01T08:37:08Z</time>
      </trkpt>
      <trkpt lat="45.93327" lon="4.72546">
        <ele>172</ele>
        <time>2018-06-01T08:37:09Z</time>
      </trkpt>
      <trkpt lat="45.93332" lon="4.7254">
        <ele>172</ele>
        <time>2018-06-01T08:37:10Z</time>
      </trkpt>
      <trkpt lat="45.93338" lon="4.72533">
        <ele>172</ele>
        <time>2018-06-01T08:37:11Z</time>
      </trkpt>
      <trkpt lat="45.93343" lon="4.72528">
        <ele>172</ele>
        <time>2018-06-01T08:37:12Z</time>
      </trkpt>
      <trkpt lat="45.93349" lon="4.72522">
        <ele>172</ele>
        <time>2018-06-01T08:37:13Z</time>
      </trkpt>
      <trkpt lat="45.93355" lon="4.72516">
        <ele>172</ele>
        <time>2018-06-01T08:37:14Z</time>
      </trkpt>
      <trkpt lat="45.9336" lon="4.7251">
        <ele>172</ele>
        <time>2018-06-01T08:37:15Z</time>
      </trkpt>
      <trkpt lat="45.93365" lon="4.72503">
        <ele>172</ele>
        <time>2018-06-01T08:37:16Z</time>
      </trkpt>
      <trkpt lat="45.9337" lon="4.72498">
        <ele>173</ele>
        <time>2018-06-01T08:37:17Z</time>
      </trkpt>
      <trkpt lat="45.93375" lon="4.72491">
        <ele>173</ele>
        <time>2018-06-01T08:37:18Z</time>
      </trkpt>
      <trkpt lat="45.93381" lon="4.72486">
        <ele>173</ele>
        <time>2018-06-01T08:37:19Z</time>
      </trkpt>
      <trkpt lat="45.93386" lon="4.72479">
        <ele>173</ele>
        <time>2018-06-01T08:37:20Z</time>
      </trkpt>
      <trkpt lat="45.9339" lon="4.72473">
        <ele>173</ele>
        <time>2018-06-01T08:37:21Z</time>
      </trkpt>
      <trkpt lat="45.93394" lon="4.72464">
        <ele>173</ele>
        <time>2018-06-01T08:37:22Z</time>
      </trkpt>
      <trkpt lat="45.93396" lon="4.72457">
        <ele>173</ele>
        <time>2018-06-01T08:37:23Z</time>
      </trkpt>
      <trkpt lat="45.93398" lon="4.72449">
        <ele>173</ele>
        <time>2018-06-01T08:37:24Z</time>
      </trkpt>
      <trkpt lat="45.93401" lon="4.72441">
        <ele>173</ele>
        <time>2018-06-01T08:37:25Z</time>
      </trkpt>
      <trkpt lat="45.93404" lon="4.72434">
        <ele>173</ele>
        <time>2018-06-01T08:37:26Z</time>
      </trkpt>
      <trkpt lat="45.93407" lon="4.72427">
        <ele>174</ele>
        <time>2018-06-01T08:37:27Z</time>
      </trkpt>
      <trkpt lat="45.93411" lon="4.72421">
        <ele>174</ele>
        <time>2018-06-01T08:37:28Z</time>
      </trkpt>
      <trkpt lat="45.93416" lon="4.72415">
        <ele>174</ele>
        <time>2018-06-01T08:37:29Z</time>
      </trkpt>
      <trkpt lat="45.93421" lon="4.72412">
        <ele>174</ele>
        <time>2018-06-01T08:37:30Z</time>
      </trkpt>
      <trkpt lat="45.93427" lon="4.72409">
        <ele>174</ele>
        <time>2018-06-01T08:37:31Z</time>
      </trkpt>
      <trkpt lat="45.93433" lon="4.72404">
        <ele>174</ele>
        <time>2018-06-01T08:37:32Z</time>
      </trkpt>
      <trkpt lat="45.93439" lon="4.72401">
        <ele>173</ele>
        <time>2018-06-01T08:37:33Z</time>
      </trkpt>
      <trkpt lat="45.93445" lon="4.72398">
        <ele>173</ele>
        <time>2018-06-01T08:37:34Z</time>
      </trkpt>
      <trkpt lat="45.93451" lon="4.72394">
        <ele>173</ele>
        <time>2018-06-01T08:37:35Z</time>
      </trkpt>
      <trkpt lat="45.93456" lon="4.72391">
        <ele>173</ele>
        <time>2018-06-01T08:37:36Z</time>
      </trkpt>
      <trkpt lat="45.9346" lon="4.72387">
        <ele>173</ele>
        <time>2018-06-01T08:37:37Z</time>
      </trkpt>
      <trkpt lat="45.93466" lon="4.72381">
        <ele>173</ele>
        <time>2018-06-01T08:37:38Z</time>
      </trkpt>
      <trkpt lat="45.93471" lon="4.72374">
        <ele>173</ele>
        <time>2018-06-01T08:37:39Z</time>
      </trkpt>
      <trkpt lat="45.93475" lon="4.72366">
        <ele>173</ele>
        <time>2018-06-01T08:37:40Z</time>
      </trkpt>
      <trkpt lat="45.93479" lon="4.72362">
        <ele>173</ele>
        <time>2018-06-01T08:37:41Z</time>
      </trkpt>
      <trkpt lat="45.93484" lon="4.72356">
        <ele>173</ele>
        <time>2018-06-01T08:37:42Z</time>
      </trkpt>
      <trkpt lat="45.93489" lon="4.72348">
        <ele>173</ele>
        <time>2018-06-01T08:37:43Z</time>
      </trkpt>
      <trkpt lat="45.93493" lon="4.7234">
        <ele>173</ele>
        <time>2018-06-01T08:37:44Z</time>
      </trkpt>
      <trkpt lat="45.93498" lon="4.72334">
        <ele>173</ele>
        <time>2018-06-01T08:37:45Z</time>
      </trkpt>
      <trkpt lat="45.93503" lon="4.7233">
        <ele>173</ele>
        <time>2018-06-01T08:37:46Z</time>
      </trkpt>
      <trkpt lat="45.93507" lon="4.72324">
        <ele>173</ele>
        <time>2018-06-01T08:37:47Z</time>
      </trkpt>
      <trkpt lat="45.93511" lon="4.72316">
        <ele>173</ele>
        <time>2018-06-01T08:37:48Z</time>
      </trkpt>
      <trkpt lat="45.93515" lon="4.7231">
        <ele>173</ele>
        <time>2018-06-01T08:37:49Z</time>
      </trkpt>
      <trkpt lat="45.9352" lon="4.72303">
        <ele>173</ele>
        <time>2018-06-01T08:37:50Z</time>
      </trkpt>
      <trkpt lat="45.93524" lon="4.72293">
        <ele>172</ele>
        <time>2018-06-01T08:37:51Z</time>
      </trkpt>
      <trkpt lat="45.93526" lon="4.72284">
        <ele>172</ele>
        <time>2018-06-01T08:37:52Z</time>
      </trkpt>
      <trkpt lat="45.93527" lon="4.72277">
        <ele>172</ele>
        <time>2018-06-01T08:37:53Z</time>
      </trkpt>
      <trkpt lat="45.9353" lon="4.72271">
        <ele>172</ele>
        <time>2018-06-01T08:37:54Z</time>
      </trkpt>
      <trkpt lat="45.93533" lon="4.72264">
        <ele>172</ele>
        <time>2018-06-01T08:37:55Z</time>
      </trkpt>
      <trkpt lat="45.93535" lon="4.72256">
        <ele>172</ele>
        <time>2018-06-01T08:37:56Z</time>
      </trkpt>
      <trkpt lat="45.93538" lon="4.72244">
        <ele>172</ele>
        <time>2018-06-01T08:37:58Z</time>
      </trkpt>
      <trkpt lat="45.9354" lon="4.72239">
        <ele>172</ele>
        <time>2018-06-01T08:37:59Z</time>
      </trkpt>
      <trkpt lat="45.93542" lon="4.72232">
        <ele>172</ele>
        <time>2018-06-01T08:38:00Z</time>
      </trkpt>
      <trkpt lat="45.93548" lon="4.72229">
        <ele>172</ele>
        <time>2018-06-01T08:38:01Z</time>
      </trkpt>
      <trkpt lat="45.93553" lon="4.72229">
        <ele>173</ele>
        <time>2018-06-01T08:38:02Z</time>
      </trkpt>
      <trkpt lat="45.93559" lon="4.7223">
        <ele>173</ele>
        <time>2018-06-01T08:38:03Z</time>
      </trkpt>
      <trkpt lat="45.93565" lon="4.72232">
        <ele>173</ele>
        <time>2018-06-01T08:38:04Z</time>
      </trkpt>
      <trkpt lat="45.9357" lon="4.72236">
        <ele>173</ele>
        <time>2018-06-01T08:38:05Z</time>
      </trkpt>
      <trkpt lat="45.93575" lon="4.72241">
        <ele>173</ele>
        <time>2018-06-01T08:38:06Z</time>
      </trkpt>
      <trkpt lat="45.93579" lon="4.72247">
        <ele>173</ele>
        <time>2018-06-01T08:38:07Z</time>
      </trkpt>
      <trkpt lat="45.93585" lon="4.72251">
        <ele>173</ele>
        <time>2018-06-01T08:38:08Z</time>
      </trkpt>
      <trkpt lat="45.93592" lon="4.72256">
        <ele>173</ele>
        <time>2018-06-01T08:38:09Z</time>
      </trkpt>
      <trkpt lat="45.93595" lon="4.7226">
        <ele>173</ele>
        <time>2018-06-01T08:38:10Z</time>
      </trkpt>
      <trkpt lat="45.93598" lon="4.72266">
        <ele>173</ele>
        <time>2018-06-01T08:38:11Z</time>
      </trkpt>
      <trkpt lat="45.93602" lon="4.72271">
        <ele>173</ele>
        <time>2018-06-01T08:38:12Z</time>
      </trkpt>
      <trkpt lat="45.93607" lon="4.72274">
        <ele>172</ele>
        <time>2018-06-01T08:38:13Z</time>
      </trkpt>
      <trkpt lat="45.93612" lon="4.7228">
        <ele>172</ele>
        <time>2018-06-01T08:38:14Z</time>
      </trkpt>
      <trkpt lat="45.93615" lon="4.72285">
        <ele>172</ele>
        <time>2018-06-01T08:38:15Z</time>
      </trkpt>
      <trkpt lat="45.93626" lon="4.72289">
        <ele>172</ele>
        <time>2018-06-01T08:38:16Z</time>
      </trkpt>
      <trkpt lat="45.93632" lon="4.72294">
        <ele>172</ele>
        <time>2018-06-01T08:38:17Z</time>
      </trkpt>
      <trkpt lat="45.93639" lon="4.723">
        <ele>172</ele>
        <time>2018-06-01T08:38:18Z</time>
      </trkpt>
      <trkpt lat="45.93644" lon="4.72305">
        <ele>172</ele>
        <time>2018-06-01T08:38:19Z</time>
      </trkpt>
      <trkpt lat="45.93649" lon="4.72311">
        <ele>172</ele>
        <time>2018-06-01T08:38:20Z</time>
      </trkpt>
      <trkpt lat="45.93658" lon="4.72315">
        <ele>172</ele>
        <time>2018-06-01T08:38:21Z</time>
      </trkpt>
      <trkpt lat="45.9366" lon="4.7232">
        <ele>172</ele>
        <time>2018-06-01T08:38:22Z</time>
      </trkpt>
      <trkpt lat="45.93664" lon="4.72325">
        <ele>171</ele>
        <time>2018-06-01T08:38:23Z</time>
      </trkpt>
      <trkpt lat="45.93668" lon="4.7233">
        <ele>171</ele>
        <time>2018-06-01T08:38:24Z</time>
      </trkpt>
      <trkpt lat="45.93671" lon="4.72336">
        <ele>171</ele>
        <time>2018-06-01T08:38:25Z</time>
      </trkpt>
      <trkpt lat="45.93676" lon="4.7234">
        <ele>171</ele>
        <time>2018-06-01T08:38:26Z</time>
      </trkpt>
      <trkpt lat="45.93681" lon="4.72344">
        <ele>171</ele>
        <time>2018-06-01T08:38:27Z</time>
      </trkpt>
      <trkpt lat="45.93685" lon="4.7235">
        <ele>171</ele>
        <time>2018-06-01T08:38:28Z</time>
      </trkpt>
      <trkpt lat="45.93689" lon="4.72355">
        <ele>171</ele>
        <time>2018-06-01T08:38:29Z</time>
      </trkpt>
      <trkpt lat="45.93693" lon="4.72359">
        <ele>171</ele>
        <time>2018-06-01T08:38:30Z</time>
      </trkpt>
      <trkpt lat="45.93699" lon="4.72362">
        <ele>171</ele>
        <time>2018-06-01T08:38:31Z</time>
      </trkpt>
      <trkpt lat="45.93705" lon="4.72368">
        <ele>171</ele>
        <time>2018-06-01T08:38:32Z</time>
      </trkpt>
      <trkpt lat="45.93708" lon="4.72373">
        <ele>171</ele>
        <time>2018-06-01T08:38:33Z</time>
      </trkpt>
      <trkpt lat="45.93714" lon="4.72377">
        <ele>171</ele>
        <time>2018-06-01T08:38:34Z</time>
      </trkpt>
      <trkpt lat="45.93721" lon="4.72381">
        <ele>171</ele>
        <time>2018-06-01T08:38:35Z</time>
      </trkpt>
      <trkpt lat="45.93727" lon="4.72385">
        <ele>171</ele>
        <time>2018-06-01T08:38:36Z</time>
      </trkpt>
      <trkpt lat="45.9373" lon="4.72391">
        <ele>171</ele>
        <time>2018-06-01T08:38:37Z</time>
      </trkpt>
      <trkpt lat="45.93738" lon="4.72395">
        <ele>171</ele>
        <time>2018-06-01T08:38:38Z</time>
      </trkpt>
      <trkpt lat="45.93747" lon="4.72399">
        <ele>171</ele>
        <time>2018-06-01T08:38:39Z</time>
      </trkpt>
      <trkpt lat="45.9375" lon="4.72406">
        <ele>171</ele>
        <time>2018-06-01T08:38:40Z</time>
      </trkpt>
      <trkpt lat="45.93755" lon="4.7241">
        <ele>171</ele>
        <time>2018-06-01T08:38:41Z</time>
      </trkpt>
      <trkpt lat="45.93759" lon="4.72415">
        <ele>171</ele>
        <time>2018-06-01T08:38:42Z</time>
      </trkpt>
      <trkpt lat="45.93763" lon="4.72421">
        <ele>171</ele>
        <time>2018-06-01T08:38:43Z</time>
      </trkpt>
      <trkpt lat="45.93769" lon="4.72426">
        <ele>171</ele>
        <time>2018-06-01T08:38:44Z</time>
      </trkpt>
      <trkpt lat="45.93775" lon="4.72431">
        <ele>171</ele>
        <time>2018-06-01T08:38:45Z</time>
      </trkpt>
      <trkpt lat="45.93779" lon="4.72436">
        <ele>172</ele>
        <time>2018-06-01T08:38:46Z</time>
      </trkpt>
      <trkpt lat="45.93782" lon="4.72441">
        <ele>172</ele>
        <time>2018-06-01T08:38:47Z</time>
      </trkpt>
      <trkpt lat="45.93787" lon="4.72444">
        <ele>172</ele>
        <time>2018-06-01T08:38:48Z</time>
      </trkpt>
      <trkpt lat="45.93793" lon="4.7245">
        <ele>172</ele>
        <time>2018-06-01T08:38:49Z</time>
      </trkpt>
      <trkpt lat="45.93797" lon="4.72456">
        <ele>172</ele>
        <time>2018-06-01T08:38:50Z</time>
      </trkpt>
      <trkpt lat="45.93803" lon="4.7246">
        <ele>172</ele>
        <time>2018-06-01T08:38:51Z</time>
      </trkpt>
      <trkpt lat="45.93812" lon="4.72464">
        <ele>172</ele>
        <time>2018-06-01T08:38:52Z</time>
      </trkpt>
      <trkpt lat="45.93815" lon="4.72472">
        <ele>172</ele>
        <time>2018-06-01T08:38:53Z</time>
      </trkpt>
      <trkpt lat="45.9382" lon="4.72478">
        <ele>173</ele>
        <time>2018-06-01T08:38:54Z</time>
      </trkpt>
      <trkpt lat="45.93826" lon="4.72483">
        <ele>173</ele>
        <time>2018-06-01T08:38:55Z</time>
      </trkpt>
      <trkpt lat="45.9383" lon="4.72488">
        <ele>173</ele>
        <time>2018-06-01T08:38:56Z</time>
      </trkpt>
      <trkpt lat="45.93835" lon="4.72493">
        <ele>174</ele>
        <time>2018-06-01T08:38:57Z</time>
      </trkpt>
      <trkpt lat="45.93856" lon="4.72508">
        <ele>173</ele>
        <time>2018-06-01T08:39:02Z</time>
      </trkpt>
      <trkpt lat="45.93864" lon="4.72512">
        <ele>173</ele>
        <time>2018-06-01T08:39:03Z</time>
      </trkpt>
      <trkpt lat="45.93873" lon="4.72517">
        <ele>173</ele>
        <time>2018-06-01T08:39:04Z</time>
      </trkpt>
      <trkpt lat="45.93876" lon="4.72517">
        <ele>173</ele>
        <time>2018-06-01T08:39:05Z</time>
      </trkpt>
      <trkpt lat="45.93882" lon="4.72512">
        <ele>173</ele>
        <time>2018-06-01T08:39:06Z</time>
      </trkpt>
      <trkpt lat="45.93886" lon="4.72507">
        <ele>173</ele>
        <time>2018-06-01T08:39:07Z</time>
      </trkpt>
      <trkpt lat="45.93891" lon="4.72503">
        <ele>172</ele>
        <time>2018-06-01T08:39:08Z</time>
      </trkpt>
      <trkpt lat="45.93895" lon="4.72498">
        <ele>172</ele>
        <time>2018-06-01T08:39:09Z</time>
      </trkpt>
      <trkpt lat="45.939" lon="4.72493">
        <ele>172</ele>
        <time>2018-06-01T08:39:10Z</time>
      </trkpt>
      <trkpt lat="45.93904" lon="4.72485">
        <ele>172</ele>
        <time>2018-06-01T08:39:11Z</time>
      </trkpt>
      <trkpt lat="45.93908" lon="4.72479">
        <ele>172</ele>
        <time>2018-06-01T08:39:12Z</time>
      </trkpt>
      <trkpt lat="45.93911" lon="4.72475">
        <ele>172</ele>
        <time>2018-06-01T08:39:13Z</time>
      </trkpt>
      <trkpt lat="45.93916" lon="4.72468">
        <ele>172</ele>
        <time>2018-06-01T08:39:14Z</time>
      </trkpt>
      <trkpt lat="45.93921" lon="4.72462">
        <ele>171</ele>
        <time>2018-06-01T08:39:15Z</time>
      </trkpt>
      <trkpt lat="45.93927" lon="4.72455">
        <ele>171</ele>
        <time>2018-06-01T08:39:16Z</time>
      </trkpt>
      <trkpt lat="45.93932" lon="4.7245">
        <ele>171</ele>
        <time>2018-06-01T08:39:17Z</time>
      </trkpt>
      <trkpt lat="45.93939" lon="4.72445">
        <ele>171</ele>
        <time>2018-06-01T08:39:18Z</time>
      </trkpt>
      <trkpt lat="45.93945" lon="4.7244">
        <ele>171</ele>
        <time>2018-06-01T08:39:19Z</time>
      </trkpt>
      <trkpt lat="45.9395" lon="4.72433">
        <ele>171</ele>
        <time>2018-06-01T08:39:20Z</time>
      </trkpt>
      <trkpt lat="45.93956" lon="4.72426">
        <ele>171</ele>
        <time>2018-06-01T08:39:21Z</time>
      </trkpt>
      <trkpt lat="45.93962" lon="4.7242">
        <ele>171</ele>
        <time>2018-06-01T08:39:22Z</time>
      </trkpt>
      <trkpt lat="45.93966" lon="4.72416">
        <ele>171</ele>
        <time>2018-06-01T08:39:23Z</time>
      </trkpt>
      <trkpt lat="45.93971" lon="4.7241">
        <ele>171</ele>
        <time>2018-06-01T08:39:24Z</time>
      </trkpt>
      <trkpt lat="45.93976" lon="4.72403">
        <ele>171</ele>
        <time>2018-06-01T08:39:25Z</time>
      </trkpt>
      <trkpt lat="45.93982" lon="4.72397">
        <ele>171</ele>
        <time>2018-06-01T08:39:26Z</time>
      </trkpt>
      <trkpt lat="45.93986" lon="4.72393">
        <ele>171</ele>
        <time>2018-06-01T08:39:27Z</time>
      </trkpt>
      <trkpt lat="45.93992" lon="4.72386">
        <ele>171</ele>
        <time>2018-06-01T08:39:28Z</time>
      </trkpt>
      <trkpt lat="45.93998" lon="4.72377">
        <ele>171</ele>
        <time>2018-06-01T08:39:29Z</time>
      </trkpt>
      <trkpt lat="45.94002" lon="4.72371">
        <ele>171</ele>
        <time>2018-06-01T08:39:30Z</time>
      </trkpt>
      <trkpt lat="45.94005" lon="4.72368">
        <ele>171</ele>
        <time>2018-06-01T08:39:31Z</time>
      </trkpt>
      <trkpt lat="45.9401" lon="4.7236">
        <ele>171</ele>
        <time>2018-06-01T08:39:32Z</time>
      </trkpt>
      <trkpt lat="45.94015" lon="4.72354">
        <ele>171</ele>
        <time>2018-06-01T08:39:33Z</time>
      </trkpt>
      <trkpt lat="45.9402" lon="4.72347">
        <ele>171</ele>
        <time>2018-06-01T08:39:34Z</time>
      </trkpt>
      <trkpt lat="45.94025" lon="4.72341">
        <ele>171</ele>
        <time>2018-06-01T08:39:35Z</time>
      </trkpt>
      <trkpt lat="45.9403" lon="4.72337">
        <ele>171</ele>
        <time>2018-06-01T08:39:36Z</time>
      </trkpt>
      <trkpt lat="45.94034" lon="4.72329">
        <ele>171</ele>
        <time>2018-06-01T08:39:37Z</time>
      </trkpt>
      <trkpt lat="45.94038" lon="4.72324">
        <ele>171</ele>
        <time>2018-06-01T08:39:38Z</time>
      </trkpt>
      <trkpt lat="45.94043" lon="4.72318">
        <ele>171</ele>
        <time>2018-06-01T08:39:39Z</time>
      </trkpt>
      <trkpt lat="45.94048" lon="4.72312">
        <ele>171</ele>
        <time>2018-06-01T08:39:40Z</time>
      </trkpt>
      <trkpt lat="45.94052" lon="4.72306">
        <ele>171</ele>
        <time>2018-06-01T08:39:41Z</time>
      </trkpt>
      <trkpt lat="45.94057" lon="4.72298">
        <ele>171</ele>
        <time>2018-06-01T08:39:42Z</time>
      </trkpt>
      <trkpt lat="45.94061" lon="4.72294">
        <ele>171</ele>
        <time>2018-06-01T08:39:43Z</time>
      </trkpt>
      <trkpt lat="45.94066" lon="4.72289">
        <ele>171</ele>
        <time>2018-06-01T08:39:44Z</time>
      </trkpt>
      <trkpt lat="45.94071" lon="4.72283">
        <ele>171</ele>
        <time>2018-06-01T08:39:45Z</time>
      </trkpt>
      <trkpt lat="45.94076" lon="4.7228">
        <ele>171</ele>
        <time>2018-06-01T08:39:46Z</time>
      </trkpt>
      <trkpt lat="45.94083" lon="4.72274">
        <ele>171</ele>
        <time>2018-06-01T08:39:47Z</time>
      </trkpt>
      <trkpt lat="45.94089" lon="4.72272">
        <ele>171</ele>
        <time>2018-06-01T08:39:48Z</time>
      </trkpt>
      <trkpt lat="45.94094" lon="4.7227">
        <ele>171</ele>
        <time>2018-06-01T08:39:49Z</time>
      </trkpt>
      <trkpt lat="45.94102" lon="4.72269">
        <ele>171</ele>
        <time>2018-06-01T08:39:50Z</time>
      </trkpt>
      <trkpt lat="45.94107" lon="4.72269">
        <ele>171</ele>
        <time>2018-06-01T08:39:51Z</time>
      </trkpt>
      <trkpt lat="45.94113" lon="4.72269">
        <ele>171</ele>
        <time>2018-06-01T08:39:52Z</time>
      </trkpt>
      <trkpt lat="45.94118" lon="4.72273">
        <ele>171</ele>
        <time>2018-06-01T08:39:53Z</time>
      </trkpt>
      <trkpt lat="45.94123" lon="4.72277">
        <ele>171</ele>
        <time>2018-06-01T08:39:54Z</time>
      </trkpt>
      <trkpt lat="45.94129" lon="4.7228">
        <ele>171</ele>
        <time>2018-06-01T08:39:55Z</time>
      </trkpt>
      <trkpt lat="45.94134" lon="4.72283">
        <ele>171</ele>
        <time>2018-06-01T08:39:56Z</time>
      </trkpt>
      <trkpt lat="45.9414" lon="4.72286">
        <ele>171</ele>
        <time>2018-06-01T08:39:57Z</time>
      </trkpt>
      <trkpt lat="45.94146" lon="4.72288">
        <ele>171</ele>
        <time>2018-06-01T08:39:58Z</time>
      </trkpt>
      <trkpt lat="45.94152" lon="4.7229">
        <ele>171</ele>
        <time>2018-06-01T08:39:59Z</time>
      </trkpt>
      <trkpt lat="45.94158" lon="4.72291">
        <ele>171</ele>
        <time>2018-06-01T08:40:00Z</time>
      </trkpt>
      <trkpt lat="45.94164" lon="4.72293">
        <ele>171</ele>
        <time>2018-06-01T08:40:01Z</time>
      </trkpt>
      <trkpt lat="45.94171" lon="4.72294">
        <ele>171</ele>
        <time>2018-06-01T08:40:02Z</time>
      </trkpt>
      <trkpt lat="45.94177" lon="4.72293">
        <ele>171</ele>
        <time>2018-06-01T08:40:03Z</time>
      </trkpt>
      <trkpt lat="45.94184" lon="4.72294">
        <ele>171</ele>
        <time>2018-06-01T08:40:04Z</time>
      </trkpt>
      <trkpt lat="45.94191" lon="4.72293">
        <ele>171</ele>
        <time>2018-06-01T08:40:05Z</time>
      </trkpt>
      <trkpt lat="45.94195" lon="4.72294">
        <ele>171</ele>
        <time>2018-06-01T08:40:06Z</time>
      </trkpt>
      <trkpt lat="45.94201" lon="4.72294">
        <ele>171</ele>
        <time>2018-06-01T08:40:07Z</time>
      </trkpt>
      <trkpt lat="45.94208" lon="4.72294">
        <ele>171</ele>
        <time>2018-06-01T08:40:08Z</time>
      </trkpt>
      <trkpt lat="45.94214" lon="4.72295">
        <ele>171</ele>
        <time>2018-06-01T08:40:09Z</time>
      </trkpt>
      <trkpt lat="45.9422" lon="4.72295">
        <ele>171</ele>
        <time>2018-06-01T08:40:10Z</time>
      </trkpt>
      <trkpt lat="45.94226" lon="4.72295">
        <ele>171</ele>
        <time>2018-06-01T08:40:11Z</time>
      </trkpt>
      <trkpt lat="45.94231" lon="4.72294">
        <ele>171</ele>
        <time>2018-06-01T08:40:12Z</time>
      </trkpt>
      <trkpt lat="45.94237" lon="4.72293">
        <ele>171</ele>
        <time>2018-06-01T08:40:13Z</time>
      </trkpt>
      <trkpt lat="45.94242" lon="4.72291">
        <ele>171</ele>
        <time>2018-06-01T08:40:14Z</time>
      </trkpt>
      <trkpt lat="45.94247" lon="4.72289">
        <ele>171</ele>
        <time>2018-06-01T08:40:15Z</time>
      </trkpt>
      <trkpt lat="45.94251" lon="4.72287">
        <ele>171</ele>
        <time>2018-06-01T08:40:16Z</time>
      </trkpt>
      <trkpt lat="45.94256" lon="4.72284">
        <ele>171</ele>
        <time>2018-06-01T08:40:17Z</time>
      </trkpt>
      <trkpt lat="45.9426" lon="4.72282">
        <ele>171</ele>
        <time>2018-06-01T08:40:18Z</time>
      </trkpt>
      <trkpt lat="45.94268" lon="4.7228">
        <ele>171</ele>
        <time>2018-06-01T08:40:20Z</time>
      </trkpt>
      <trkpt lat="45.94271" lon="4.7228">
        <ele>171</ele>
        <time>2018-06-01T08:40:21Z</time>
      </trkpt>
      <trkpt lat="45.94278" lon="4.72284">
        <ele>171</ele>
        <time>2018-06-01T08:40:23Z</time>
      </trkpt>
      <trkpt lat="45.94281" lon="4.72288">
        <ele>171</ele>
        <time>2018-06-01T08:40:24Z</time>
      </trkpt>
      <trkpt lat="45.94286" lon="4.72292">
        <ele>171</ele>
        <time>2018-06-01T08:40:25Z</time>
      </trkpt>
      <trkpt lat="45.94287" lon="4.72299">
        <ele>171</ele>
        <time>2018-06-01T08:40:26Z</time>
      </trkpt>
      <trkpt lat="45.9429" lon="4.72306">
        <ele>171</ele>
        <time>2018-06-01T08:40:27Z</time>
      </trkpt>
      <trkpt lat="45.94291" lon="4.72313">
        <ele>171</ele>
        <time>2018-06-01T08:40:28Z</time>
      </trkpt>
      <trkpt lat="45.94294" lon="4.7232">
        <ele>171</ele>
        <time>2018-06-01T08:40:29Z</time>
      </trkpt>
      <trkpt lat="45.94296" lon="4.72327">
        <ele>171</ele>
        <time>2018-06-01T08:40:30Z</time>
      </trkpt>
      <trkpt lat="45.943" lon="4.72333">
        <ele>171</ele>
        <time>2018-06-01T08:40:31Z</time>
      </trkpt>
      <trkpt lat="45.94303" lon="4.72339">
        <ele>172</ele>
        <time>2018-06-01T08:40:32Z</time>
      </trkpt>
      <trkpt lat="45.94306" lon="4.72345">
        <ele>172</ele>
        <time>2018-06-01T08:40:33Z</time>
      </trkpt>
      <trkpt lat="45.9431" lon="4.72351">
        <ele>172</ele>
        <time>2018-06-01T08:40:34Z</time>
      </trkpt>
      <trkpt lat="45.94312" lon="4.72358">
        <ele>172</ele>
        <time>2018-06-01T08:40:35Z</time>
      </trkpt>
      <trkpt lat="45.94314" lon="4.72365">
        <ele>172</ele>
        <time>2018-06-01T08:40:36Z</time>
      </trkpt>
      <trkpt lat="45.94317" lon="4.7237">
        <ele>172</ele>
        <time>2018-06-01T08:40:37Z</time>
      </trkpt>
      <trkpt lat="45.9432" lon="4.72378">
        <ele>172</ele>
        <time>2018-06-01T08:40:38Z</time>
      </trkpt>
      <trkpt lat="45.94323" lon="4.72384">
        <ele>172</ele>
        <time>2018-06-01T08:40:39Z</time>
      </trkpt>
      <trkpt lat="45.94327" lon="4.72392">
        <ele>172</ele>
        <time>2018-06-01T08:40:40Z</time>
      </trkpt>
      <trkpt lat="45.9433" lon="4.72399">
        <ele>172</ele>
        <time>2018-06-01T08:40:41Z</time>
      </trkpt>
      <trkpt lat="45.94333" lon="4.72406">
        <ele>173</ele>
        <time>2018-06-01T08:40:42Z</time>
      </trkpt>
      <trkpt lat="45.94336" lon="4.72415">
        <ele>173</ele>
        <time>2018-06-01T08:40:43Z</time>
      </trkpt>
      <trkpt lat="45.9434" lon="4.72421">
        <ele>173</ele>
        <time>2018-06-01T08:40:44Z</time>
      </trkpt>
      <trkpt lat="45.94342" lon="4.7243">
        <ele>173</ele>
        <time>2018-06-01T08:40:45Z</time>
      </trkpt>
      <trkpt lat="45.94345" lon="4.72436">
        <ele>173</ele>
        <time>2018-06-01T08:40:46Z</time>
      </trkpt>
      <trkpt lat="45.94348" lon="4.72442">
        <ele>173</ele>
        <time>2018-06-01T08:40:47Z</time>
      </trkpt>
      <trkpt lat="45.94351" lon="4.7245">
        <ele>173</ele>
        <time>2018-06-01T08:40:48Z</time>
      </trkpt>
      <trkpt lat="45.94354" lon="4.72456">
        <ele>173</ele>
        <time>2018-06-01T08:40:49Z</time>
      </trkpt>
      <trkpt lat="45.94357" lon="4.72463">
        <ele>173</ele>
        <time>2018-06-01T08:40:50Z</time>
      </trkpt>
      <trkpt lat="45.9436" lon="4.7247">
        <ele>173</ele>
        <time>2018-06-01T08:40:51Z</time>
      </trkpt>
      <trkpt lat="45.94363" lon="4.72477">
        <ele>173</ele>
        <time>2018-06-01T08:40:52Z</time>
      </trkpt>
      <trkpt lat="45.94366" lon="4.72486">
        <ele>173</ele>
        <time>2018-06-01T08:40:53Z</time>
      </trkpt>
      <trkpt lat="45.94369" lon="4.72493">
        <ele>173</ele>
        <time>2018-06-01T08:40:54Z</time>
      </trkpt>
      <trkpt lat="45.94371" lon="4.72501">
        <ele>173</ele>
        <time>2018-06-01T08:40:55Z</time>
      </trkpt>
      <trkpt lat="45.94373" lon="4.72507">
        <ele>173</ele>
        <time>2018-06-01T08:40:56Z</time>
      </trkpt>
      <trkpt lat="45.94376" lon="4.72514">
        <ele>174</ele>
        <time>2018-06-01T08:40:57Z</time>
      </trkpt>
      <trkpt lat="45.94378" lon="4.72523">
        <ele>174</ele>
        <time>2018-06-01T08:40:58Z</time>
      </trkpt>
      <trkpt lat="45.9438" lon="4.7253">
        <ele>174</ele>
        <time>2018-06-01T08:40:59Z</time>
      </trkpt>
      <trkpt lat="45.94384" lon="4.7254">
        <ele>174</ele>
        <time>2018-06-01T08:41:00Z</time>
      </trkpt>
      <trkpt lat="45.94386" lon="4.72546">
        <ele>173</ele>
        <time>2018-06-01T08:41:01Z</time>
      </trkpt>
      <trkpt lat="45.94389" lon="4.72554">
        <ele>173</ele>
        <time>2018-06-01T08:41:02Z</time>
      </trkpt>
      <trkpt lat="45.9439" lon="4.72561">
        <ele>173</ele>
        <time>2018-06-01T08:41:03Z</time>
      </trkpt>
      <trkpt lat="45.94393" lon="4.72567">
        <ele>173</ele>
        <time>2018-06-01T08:41:04Z</time>
      </trkpt>
      <trkpt lat="45.94394" lon="4.72576">
        <ele>173</ele>
        <time>2018-06-01T08:41:05Z</time>
      </trkpt>
      <trkpt lat="45.94395" lon="4.72583">
        <ele>173</ele>
        <time>2018-06-01T08:41:06Z</time>
      </trkpt>
      <trkpt lat="45.94396" lon="4.72591">
        <ele>173</ele>
        <time>2018-06-01T08:41:07Z</time>
      </trkpt>
      <trkpt lat="45.94397" lon="4.72599">
        <ele>173</ele>
        <time>2018-06-01T08:41:08Z</time>
      </trkpt>
      <trkpt lat="45.94398" lon="4.72608">
        <ele>173</ele>
        <time>2018-06-01T08:41:09Z</time>
      </trkpt>
      <trkpt lat="45.94401" lon="4.72619">
        <ele>173</ele>
        <time>2018-06-01T08:41:10Z</time>
      </trkpt>
      <trkpt lat="45.94402" lon="4.72628">
        <ele>174</ele>
        <time>2018-06-01T08:41:11Z</time>
      </trkpt>
      <trkpt lat="45.94402" lon="4.72637">
        <ele>174</ele>
        <time>2018-06-01T08:41:12Z</time>
      </trkpt>
      <trkpt lat="45.94403" lon="4.72645">
        <ele>174</ele>
        <time>2018-06-01T08:41:13Z</time>
      </trkpt>
      <trkpt lat="45.94404" lon="4.72653">
        <ele>174</ele>
        <time>2018-06-01T08:41:14Z</time>
      </trkpt>
      <trkpt lat="45.94404" lon="4.7266">
        <ele>174</ele>
        <time>2018-06-01T08:41:15Z</time>
      </trkpt>
      <trkpt lat="45.94405" lon="4.72668">
        <ele>173</ele>
        <time>2018-06-01T08:41:16Z</time>
      </trkpt>
      <trkpt lat="45.94406" lon="4.72678">
        <ele>173</ele>
        <time>2018-06-01T08:41:17Z</time>
      </trkpt>
      <trkpt lat="45.94408" lon="4.72688">
        <ele>173</ele>
        <time>2018-06-01T08:41:18Z</time>
      </trkpt>
      <trkpt lat="45.94408" lon="4.72696">
        <ele>173</ele>
        <time>2018-06-01T08:41:19Z</time>
      </trkpt>
      <trkpt lat="45.94409" lon="4.72703">
        <ele>172</ele>
        <time>2018-06-01T08:41:20Z</time>
      </trkpt>
      <trkpt lat="45.9441" lon="4.72711">
        <ele>172</ele>
        <time>2018-06-01T08:41:21Z</time>
      </trkpt>
      <trkpt lat="45.94411" lon="4.72717">
        <ele>172</ele>
        <time>2018-06-01T08:41:22Z</time>
      </trkpt>
      <trkpt lat="45.94412" lon="4.72725">
        <ele>172</ele>
        <time>2018-06-01T08:41:23Z</time>
      </trkpt>
      <trkpt lat="45.94413" lon="4.72732">
        <ele>172</ele>
        <time>2018-06-01T08:41:24Z</time>
      </trkpt>
      <trkpt lat="45.94415" lon="4.72741">
        <ele>171</ele>
        <time>2018-06-01T08:41:25Z</time>
      </trkpt>
      <trkpt lat="45.94415" lon="4.72748">
        <ele>171</ele>
        <time>2018-06-01T08:41:26Z</time>
      </trkpt>
      <trkpt lat="45.94416" lon="4.72755">
        <ele>170</ele>
        <time>2018-06-01T08:41:27Z</time>
      </trkpt>
      <trkpt lat="45.94417" lon="4.72762">
        <ele>170</ele>
        <time>2018-06-01T08:41:28Z</time>
      </trkpt>
      <trkpt lat="45.94419" lon="4.7277">
        <ele>169</ele>
        <time>2018-06-01T08:41:29Z</time>
      </trkpt>
      <trkpt lat="45.94419" lon="4.72777">
        <ele>168</ele>
        <time>2018-06-01T08:41:30Z</time>
      </trkpt>
      <trkpt lat="45.9442" lon="4.72783">
        <ele>168</ele>
        <time>2018-06-01T08:41:31Z</time>
      </trkpt>
      <trkpt lat="45.94421" lon="4.72792">
        <ele>168</ele>
        <time>2018-06-01T08:41:32Z</time>
      </trkpt>
      <trkpt lat="45.94422" lon="4.72798">
        <ele>167</ele>
        <time>2018-06-01T08:41:33Z</time>
      </trkpt>
      <trkpt lat="45.94423" lon="4.72807">
        <ele>167</ele>
        <time>2018-06-01T08:41:34Z</time>
      </trkpt>
      <trkpt lat="45.94424" lon="4.72814">
        <ele>167</ele>
        <time>2018-06-01T08:41:35Z</time>
      </trkpt>
      <trkpt lat="45.94425" lon="4.72823">
        <ele>167</ele>
        <time>2018-06-01T08:41:36Z</time>
      </trkpt>
      <trkpt lat="45.94426" lon="4.7283">
        <ele>166</ele>
        <time>2018-06-01T08:41:37Z</time>
      </trkpt>
      <trkpt lat="45.94427" lon="4.72837">
        <ele>166</ele>
        <time>2018-06-01T08:41:38Z</time>
      </trkpt>
      <trkpt lat="45.94428" lon="4.72848">
        <ele>166</ele>
        <time>2018-06-01T08:41:40Z</time>
      </trkpt>
      <trkpt lat="45.94429" lon="4.72855">
        <ele>166</ele>
        <time>2018-06-01T08:41:41Z</time>
      </trkpt>
      <trkpt lat="45.9443" lon="4.72863">
        <ele>166</ele>
        <time>2018-06-01T08:41:42Z</time>
      </trkpt>
      <trkpt lat="45.94432" lon="4.7287">
        <ele>166</ele>
        <time>2018-06-01T08:41:43Z</time>
      </trkpt>
      <trkpt lat="45.94433" lon="4.72877">
        <ele>166</ele>
        <time>2018-06-01T08:41:44Z</time>
      </trkpt>
      <trkpt lat="45.94434" lon="4.72884">
        <ele>166</ele>
        <time>2018-06-01T08:41:45Z</time>
      </trkpt>
      <trkpt lat="45.94435" lon="4.72891">
        <ele>166</ele>
        <time>2018-06-01T08:41:46Z</time>
      </trkpt>
      <trkpt lat="45.94436" lon="4.72896">
        <ele>166</ele>
        <time>2018-06-01T08:41:47Z</time>
      </trkpt>
      <trkpt lat="45.94436" lon="4.72904">
        <ele>166</ele>
        <time>2018-06-01T08:41:48Z</time>
      </trkpt>
      <trkpt lat="45.94437" lon="4.72911">
        <ele>166</ele>
        <time>2018-06-01T08:41:49Z</time>
      </trkpt>
      <trkpt lat="45.94438" lon="4.72919">
        <ele>167</ele>
        <time>2018-06-01T08:41:50Z</time>
      </trkpt>
      <trkpt lat="45.94439" lon="4.72927">
        <ele>167</ele>
        <time>2018-06-01T08:41:51Z</time>
      </trkpt>
      <trkpt lat="45.94441" lon="4.72938">
        <ele>167</ele>
        <time>2018-06-01T08:41:52Z</time>
      </trkpt>
      <trkpt lat="45.94443" lon="4.72946">
        <ele>167</ele>
        <time>2018-06-01T08:41:53Z</time>
      </trkpt>
      <trkpt lat="45.94444" lon="4.72955">
        <ele>167</ele>
        <time>2018-06-01T08:41:54Z</time>
      </trkpt>
      <trkpt lat="45.94446" lon="4.72965">
        <ele>167</ele>
        <time>2018-06-01T08:41:55Z</time>
      </trkpt>
      <trkpt lat="45.94448" lon="4.72975">
        <ele>167</ele>
        <time>2018-06-01T08:41:56Z</time>
      </trkpt>
      <trkpt lat="45.94449" lon="4.72987">
        <ele>167</ele>
        <time>2018-06-01T08:41:57Z</time>
      </trkpt>
      <trkpt lat="45.94452" lon="4.72998">
        <ele>167</ele>
        <time>2018-06-01T08:41:58Z</time>
      </trkpt>
      <trkpt lat="45.94453" lon="4.73009">
        <ele>169</ele>
        <time>2018-06-01T08:41:59Z</time>
      </trkpt>
      <trkpt lat="45.94455" lon="4.73023">
        <ele>169</ele>
        <time>2018-06-01T08:42:00Z</time>
      </trkpt>
      <trkpt lat="45.94457" lon="4.73034">
        <ele>169</ele>
        <time>2018-06-01T08:42:01Z</time>
      </trkpt>
      <trkpt lat="45.94458" lon="4.73046">
        <ele>170</ele>
        <time>2018-06-01T08:42:02Z</time>
      </trkpt>
      <trkpt lat="45.94459" lon="4.7306">
        <ele>170</ele>
        <time>2018-06-01T08:42:03Z</time>
      </trkpt>
      <trkpt lat="45.9446" lon="4.73072">
        <ele>170</ele>
        <time>2018-06-01T08:42:04Z</time>
      </trkpt>
      <trkpt lat="45.94461" lon="4.73082">
        <ele>170</ele>
        <time>2018-06-01T08:42:05Z</time>
      </trkpt>
      <trkpt lat="45.94462" lon="4.73091">
        <ele>171</ele>
        <time>2018-06-01T08:42:06Z</time>
      </trkpt>
      <trkpt lat="45.94464" lon="4.73107">
        <ele>172</ele>
        <time>2018-06-01T08:42:07Z</time>
      </trkpt>
      <trkpt lat="45.94465" lon="4.73118">
        <ele>172</ele>
        <time>2018-06-01T08:42:08Z</time>
      </trkpt>
      <trkpt lat="45.94465" lon="4.73128">
        <ele>172</ele>
        <time>2018-06-01T08:42:09Z</time>
      </trkpt>
      <trkpt lat="45.94467" lon="4.73137">
        <ele>172</ele>
        <time>2018-06-01T08:42:10Z</time>
      </trkpt>
      <trkpt lat="45.94468" lon="4.73147">
        <ele>172</ele>
        <time>2018-06-01T08:42:11Z</time>
      </trkpt>
      <trkpt lat="45.9447" lon="4.73159">
        <ele>172</ele>
        <time>2018-06-01T08:42:12Z</time>
      </trkpt>
      <trkpt lat="45.94472" lon="4.73168">
        <ele>174</ele>
        <time>2018-06-01T08:42:13Z</time>
      </trkpt>
      <trkpt lat="45.94474" lon="4.7318">
        <ele>174</ele>
        <time>2018-06-01T08:42:14Z</time>
      </trkpt>
      <trkpt lat="45.94474" lon="4.73188">
        <ele>174</ele>
        <time>2018-06-01T08:42:15Z</time>
      </trkpt>
      <trkpt lat="45.94475" lon="4.73197">
        <ele>174</ele>
        <time>2018-06-01T08:42:16Z</time>
      </trkpt>
      <trkpt lat="45.94478" lon="4.73206">
        <ele>175</ele>
        <time>2018-06-01T08:42:17Z</time>
      </trkpt>
      <trkpt lat="45.94479" lon="4.73215">
        <ele>175</ele>
        <time>2018-06-01T08:42:18Z</time>
      </trkpt>
      <trkpt lat="45.94481" lon="4.73225">
        <ele>175</ele>
        <time>2018-06-01T08:42:19Z</time>
      </trkpt>
      <trkpt lat="45.94482" lon="4.73233">
        <ele>175</ele>
        <time>2018-06-01T08:42:20Z</time>
      </trkpt>
      <trkpt lat="45.94483" lon="4.73241">
        <ele>175</ele>
        <time>2018-06-01T08:42:21Z</time>
      </trkpt>
      <trkpt lat="45.94483" lon="4.73248">
        <ele>175</ele>
        <time>2018-06-01T08:42:22Z</time>
      </trkpt>
      <trkpt lat="45.94484" lon="4.73258">
        <ele>176</ele>
        <time>2018-06-01T08:42:23Z</time>
      </trkpt>
      <trkpt lat="45.94484" lon="4.73265">
        <ele>177</ele>
        <time>2018-06-01T08:42:24Z</time>
      </trkpt>
      <trkpt lat="45.94485" lon="4.73271">
        <ele>177</ele>
        <time>2018-06-01T08:42:25Z</time>
      </trkpt>
      <trkpt lat="45.94486" lon="4.73278">
        <ele>177</ele>
        <time>2018-06-01T08:42:26Z</time>
      </trkpt>
      <trkpt lat="45.94486" lon="4.73286">
        <ele>177</ele>
        <time>2018-06-01T08:42:27Z</time>
      </trkpt>
      <trkpt lat="45.94487" lon="4.73291">
        <ele>177</ele>
        <time>2018-06-01T08:42:28Z</time>
      </trkpt>
      <trkpt lat="45.94488" lon="4.73299">
        <ele>177</ele>
        <time>2018-06-01T08:42:29Z</time>
      </trkpt>
      <trkpt lat="45.94489" lon="4.73307">
        <ele>177</ele>
        <time>2018-06-01T08:42:30Z</time>
      </trkpt>
      <trkpt lat="45.94491" lon="4.73316">
        <ele>177</ele>
        <time>2018-06-01T08:42:31Z</time>
      </trkpt>
      <trkpt lat="45.94491" lon="4.73326">
        <ele>177</ele>
        <time>2018-06-01T08:42:32Z</time>
      </trkpt>
      <trkpt lat="45.94492" lon="4.73334">
        <ele>178</ele>
        <time>2018-06-01T08:42:33Z</time>
      </trkpt>
      <trkpt lat="45.94492" lon="4.7334">
        <ele>178</ele>
        <time>2018-06-01T08:42:34Z</time>
      </trkpt>
      <trkpt lat="45.94493" lon="4.73347">
        <ele>178</ele>
        <time>2018-06-01T08:42:35Z</time>
      </trkpt>
      <trkpt lat="45.94494" lon="4.73355">
        <ele>178</ele>
        <time>2018-06-01T08:42:36Z</time>
      </trkpt>
      <trkpt lat="45.94494" lon="4.73362">
        <ele>179</ele>
        <time>2018-06-01T08:42:37Z</time>
      </trkpt>
      <trkpt lat="45.94495" lon="4.7337">
        <ele>179</ele>
        <time>2018-06-01T08:42:38Z</time>
      </trkpt>
      <trkpt lat="45.94495" lon="4.73377">
        <ele>179</ele>
        <time>2018-06-01T08:42:39Z</time>
      </trkpt>
      <trkpt lat="45.94495" lon="4.73389">
        <ele>179</ele>
        <time>2018-06-01T08:42:41Z</time>
      </trkpt>
      <trkpt lat="45.94496" lon="4.73397">
        <ele>179</ele>
        <time>2018-06-01T08:42:42Z</time>
      </trkpt>
      <trkpt lat="45.94497" lon="4.73404">
        <ele>180</ele>
        <time>2018-06-01T08:42:43Z</time>
      </trkpt>
      <trkpt lat="45.94497" lon="4.73411">
        <ele>180</ele>
        <time>2018-06-01T08:42:44Z</time>
      </trkpt>
      <trkpt lat="45.94498" lon="4.73418">
        <ele>180</ele>
        <time>2018-06-01T08:42:45Z</time>
      </trkpt>
      <trkpt lat="45.94498" lon="4.73425">
        <ele>181</ele>
        <time>2018-06-01T08:42:46Z</time>
      </trkpt>
      <trkpt lat="45.94499" lon="4.73433">
        <ele>181</ele>
        <time>2018-06-01T08:42:47Z</time>
      </trkpt>
      <trkpt lat="45.945" lon="4.73441">
        <ele>181</ele>
        <time>2018-06-01T08:42:48Z</time>
      </trkpt>
      <trkpt lat="45.945" lon="4.73452">
        <ele>181</ele>
        <time>2018-06-01T08:42:50Z</time>
      </trkpt>
      <trkpt lat="45.94501" lon="4.73463">
        <ele>181</ele>
        <time>2018-06-01T08:42:51Z</time>
      </trkpt>
      <trkpt lat="45.94501" lon="4.73473">
        <ele>182</ele>
        <time>2018-06-01T08:42:52Z</time>
      </trkpt>
      <trkpt lat="45.94502" lon="4.7348">
        <ele>182</ele>
        <time>2018-06-01T08:42:53Z</time>
      </trkpt>
      <trkpt lat="45.94502" lon="4.73487">
        <ele>182</ele>
        <time>2018-06-01T08:42:54Z</time>
      </trkpt>
      <trkpt lat="45.94503" lon="4.73495">
        <ele>183</ele>
        <time>2018-06-01T08:42:55Z</time>
      </trkpt>
      <trkpt lat="45.94502" lon="4.73504">
        <ele>183</ele>
        <time>2018-06-01T08:42:56Z</time>
      </trkpt>
      <trkpt lat="45.94502" lon="4.73511">
        <ele>183</ele>
        <time>2018-06-01T08:42:57Z</time>
      </trkpt>
      <trkpt lat="45.94502" lon="4.73518">
        <ele>183</ele>
        <time>2018-06-01T08:42:58Z</time>
      </trkpt>
      <trkpt lat="45.94502" lon="4.73525">
        <ele>183</ele>
        <time>2018-06-01T08:42:59Z</time>
      </trkpt>
      <trkpt lat="45.94502" lon="4.73528">
        <ele>183</ele>
        <time>2018-06-01T08:43:00Z</time>
      </trkpt>
      <trkpt lat="45.94502" lon="4.73539">
        <ele>183</ele>
        <time>2018-06-01T08:43:01Z</time>
      </trkpt>
      <trkpt lat="45.94501" lon="4.73549">
        <ele>183</ele>
        <time>2018-06-01T08:43:03Z</time>
      </trkpt>
      <trkpt lat="45.94501" lon="4.73555">
        <ele>183</ele>
        <time>2018-06-01T08:43:04Z</time>
      </trkpt>
      <trkpt lat="45.94499" lon="4.73566">
        <ele>185</ele>
        <time>2018-06-01T08:43:06Z</time>
      </trkpt>
      <trkpt lat="45.94498" lon="4.73573">
        <ele>185</ele>
        <time>2018-06-01T08:43:07Z</time>
      </trkpt>
      <trkpt lat="45.94497" lon="4.73581">
        <ele>185</ele>
        <time>2018-06-01T08:43:09Z</time>
      </trkpt>
      <trkpt lat="45.94496" lon="4.73594">
        <ele>185</ele>
        <time>2018-06-01T08:43:10Z</time>
      </trkpt>
      <trkpt lat="45.94496" lon="4.736">
        <ele>185</ele>
        <time>2018-06-01T08:43:11Z</time>
      </trkpt>
      <trkpt lat="45.94495" lon="4.73607">
        <ele>186</ele>
        <time>2018-06-01T08:43:12Z</time>
      </trkpt>
      <trkpt lat="45.94495" lon="4.73618">
        <ele>186</ele>
        <time>2018-06-01T08:43:14Z</time>
      </trkpt>
      <trkpt lat="45.94493" lon="4.73624">
        <ele>186</ele>
        <time>2018-06-01T08:43:15Z</time>
      </trkpt>
      <trkpt lat="45.94491" lon="4.73637">
        <ele>186</ele>
        <time>2018-06-01T08:43:17Z</time>
      </trkpt>
      <trkpt lat="45.9449" lon="4.73648">
        <ele>186</ele>
        <time>2018-06-01T08:43:18Z</time>
      </trkpt>
      <trkpt lat="45.94489" lon="4.73661">
        <ele>185</ele>
        <time>2018-06-01T08:43:20Z</time>
      </trkpt>
      <trkpt lat="45.94488" lon="4.73668">
        <ele>185</ele>
        <time>2018-06-01T08:43:21Z</time>
      </trkpt>
      <trkpt lat="45.94486" lon="4.73677">
        <ele>186</ele>
        <time>2018-06-01T08:43:22Z</time>
      </trkpt>
      <trkpt lat="45.94486" lon="4.73685">
        <ele>186</ele>
        <time>2018-06-01T08:43:23Z</time>
      </trkpt>
      <trkpt lat="45.94483" lon="4.73691">
        <ele>186</ele>
        <time>2018-06-01T08:43:24Z</time>
      </trkpt>
      <trkpt lat="45.94482" lon="4.73698">
        <ele>186</ele>
        <time>2018-06-01T08:43:25Z</time>
      </trkpt>
      <trkpt lat="45.94481" lon="4.73705">
        <ele>186</ele>
        <time>2018-06-01T08:43:26Z</time>
      </trkpt>
      <trkpt lat="45.94481" lon="4.73714">
        <ele>186</ele>
        <time>2018-06-01T08:43:27Z</time>
      </trkpt>
      <trkpt lat="45.9448" lon="4.73721">
        <ele>186</ele>
        <time>2018-06-01T08:43:28Z</time>
      </trkpt>
      <trkpt lat="45.9448" lon="4.73729">
        <ele>186</ele>
        <time>2018-06-01T08:43:29Z</time>
      </trkpt>
      <trkpt lat="45.9448" lon="4.73741">
        <ele>186</ele>
        <time>2018-06-01T08:43:31Z</time>
      </trkpt>
      <trkpt lat="45.94479" lon="4.73748">
        <ele>186</ele>
        <time>2018-06-01T08:43:32Z</time>
      </trkpt>
      <trkpt lat="45.94478" lon="4.73757">
        <ele>186</ele>
        <time>2018-06-01T08:43:33Z</time>
      </trkpt>
      <trkpt lat="45.94478" lon="4.73762">
        <ele>186</ele>
        <time>2018-06-01T08:43:34Z</time>
      </trkpt>
      <trkpt lat="45.94478" lon="4.7377">
        <ele>186</ele>
        <time>2018-06-01T08:43:35Z</time>
      </trkpt>
      <trkpt lat="45.94482" lon="4.73775">
        <ele>186</ele>
        <time>2018-06-01T08:43:36Z</time>
      </trkpt>
      <trkpt lat="45.94486" lon="4.73777">
        <ele>186</ele>
        <time>2018-06-01T08:43:37Z</time>
      </trkpt>
      <trkpt lat="45.94491" lon="4.7378">
        <ele>186</ele>
        <time>2018-06-01T08:43:38Z</time>
      </trkpt>
      <trkpt lat="45.94495" lon="4.73783">
        <ele>186</ele>
        <time>2018-06-01T08:43:39Z</time>
      </trkpt>
      <trkpt lat="45.945" lon="4.73789">
        <ele>186</ele>
        <time>2018-06-01T08:43:40Z</time>
      </trkpt>
      <trkpt lat="45.94505" lon="4.73793">
        <ele>186</ele>
        <time>2018-06-01T08:43:41Z</time>
      </trkpt>
      <trkpt lat="45.94509" lon="4.73797">
        <ele>186</ele>
        <time>2018-06-01T08:43:42Z</time>
      </trkpt>
      <trkpt lat="45.94514" lon="4.73801">
        <ele>186</ele>
        <time>2018-06-01T08:43:43Z</time>
      </trkpt>
      <trkpt lat="45.94518" lon="4.73803">
        <ele>186</ele>
        <time>2018-06-01T08:43:44Z</time>
      </trkpt>
      <trkpt lat="45.94523" lon="4.73814">
        <ele>186</ele>
        <time>2018-06-01T08:43:46Z</time>
      </trkpt>
      <trkpt lat="45.94527" lon="4.73818">
        <ele>186</ele>
        <time>2018-06-01T08:43:47Z</time>
      </trkpt>
      <trkpt lat="45.94533" lon="4.73821">
        <ele>186</ele>
        <time>2018-06-01T08:43:48Z</time>
      </trkpt>
      <trkpt lat="45.94537" lon="4.73825">
        <ele>186</ele>
        <time>2018-06-01T08:43:49Z</time>
      </trkpt>
      <trkpt lat="45.9454" lon="4.73832">
        <ele>186</ele>
        <time>2018-06-01T08:43:50Z</time>
      </trkpt>
      <trkpt lat="45.94546" lon="4.73834">
        <ele>186</ele>
        <time>2018-06-01T08:43:51Z</time>
      </trkpt>
      <trkpt lat="45.9455" lon="4.73838">
        <ele>186</ele>
        <time>2018-06-01T08:43:52Z</time>
      </trkpt>
      <trkpt lat="45.94554" lon="4.73844">
        <ele>186</ele>
        <time>2018-06-01T08:43:53Z</time>
      </trkpt>
      <trkpt lat="45.94559" lon="4.7385">
        <ele>186</ele>
        <time>2018-06-01T08:43:54Z</time>
      </trkpt>
      <trkpt lat="45.94564" lon="4.73856">
        <ele>186</ele>
        <time>2018-06-01T08:43:55Z</time>
      </trkpt>
      <trkpt lat="45.94567" lon="4.73859">
        <ele>186</ele>
        <time>2018-06-01T08:43:56Z</time>
      </trkpt>
      <trkpt lat="45.94571" lon="4.73863">
        <ele>186</ele>
        <time>2018-06-01T08:43:57Z</time>
      </trkpt>
      <trkpt lat="45.94576" lon="4.73867">
        <ele>186</ele>
        <time>2018-06-01T08:43:58Z</time>
      </trkpt>
      <trkpt lat="45.9458" lon="4.73874">
        <ele>186</ele>
        <time>2018-06-01T08:43:59Z</time>
      </trkpt>
      <trkpt lat="45.94585" lon="4.73878">
        <ele>187</ele>
        <time>2018-06-01T08:44:00Z</time>
      </trkpt>
      <trkpt lat="45.9459" lon="4.73881">
        <ele>187</ele>
        <time>2018-06-01T08:44:01Z</time>
      </trkpt>
      <trkpt lat="45.94595" lon="4.73885">
        <ele>187</ele>
        <time>2018-06-01T08:44:02Z</time>
      </trkpt>
      <trkpt lat="45.94599" lon="4.7389">
        <ele>187</ele>
        <time>2018-06-01T08:44:03Z</time>
      </trkpt>
      <trkpt lat="45.94602" lon="4.73894">
        <ele>187</ele>
        <time>2018-06-01T08:44:04Z</time>
      </trkpt>
      <trkpt lat="45.94606" lon="4.739">
        <ele>187</ele>
        <time>2018-06-01T08:44:05Z</time>
      </trkpt>
      <trkpt lat="45.9461" lon="4.73905">
        <ele>187</ele>
        <time>2018-06-01T08:44:06Z</time>
      </trkpt>
      <trkpt lat="45.94614" lon="4.7391">
        <ele>187</ele>
        <time>2018-06-01T08:44:07Z</time>
      </trkpt>
      <trkpt lat="45.9462" lon="4.73914">
        <ele>187</ele>
        <time>2018-06-01T08:44:08Z</time>
      </trkpt>
      <trkpt lat="45.94624" lon="4.73918">
        <ele>187</ele>
        <time>2018-06-01T08:44:09Z</time>
      </trkpt>
      <trkpt lat="45.94628" lon="4.73923">
        <ele>187</ele>
        <time>2018-06-01T08:44:10Z</time>
      </trkpt>
      <trkpt lat="45.94633" lon="4.7393">
        <ele>187</ele>
        <time>2018-06-01T08:44:11Z</time>
      </trkpt>
      <trkpt lat="45.94637" lon="4.73936">
        <ele>187</ele>
        <time>2018-06-01T08:44:12Z</time>
      </trkpt>
      <trkpt lat="45.9464" lon="4.73942">
        <ele>187</ele>
        <time>2018-06-01T08:44:13Z</time>
      </trkpt>
      <trkpt lat="45.94644" lon="4.73946">
        <ele>187</ele>
        <time>2018-06-01T08:44:14Z</time>
      </trkpt>
      <trkpt lat="45.94648" lon="4.7395">
        <ele>187</ele>
        <time>2018-06-01T08:44:15Z</time>
      </trkpt>
      <trkpt lat="45.94651" lon="4.73955">
        <ele>187</ele>
        <time>2018-06-01T08:44:16Z</time>
      </trkpt>
      <trkpt lat="45.94656" lon="4.7396">
        <ele>187</ele>
        <time>2018-06-01T08:44:17Z</time>
      </trkpt>
      <trkpt lat="45.9466" lon="4.73965">
        <ele>187</ele>
        <time>2018-06-01T08:44:18Z</time>
      </trkpt>
      <trkpt lat="45.94665" lon="4.73971">
        <ele>187</ele>
        <time>2018-06-01T08:44:19Z</time>
      </trkpt>
      <trkpt lat="45.94669" lon="4.73977">
        <ele>187</ele>
        <time>2018-06-01T08:44:20Z</time>
      </trkpt>
      <trkpt lat="45.94673" lon="4.73983">
        <ele>187</ele>
        <time>2018-06-01T08:44:21Z</time>
      </trkpt>
      <trkpt lat="45.94678" lon="4.73987">
        <ele>187</ele>
        <time>2018-06-01T08:44:22Z</time>
      </trkpt>
      <trkpt lat="45.94683" lon="4.73993">
        <ele>187</ele>
        <time>2018-06-01T08:44:23Z</time>
      </trkpt>
      <trkpt lat="45.94687" lon="4.73998">
        <ele>187</ele>
        <time>2018-06-01T08:44:24Z</time>
      </trkpt>
      <trkpt lat="45.94691" lon="4.74004">
        <ele>187</ele>
        <time>2018-06-01T08:44:25Z</time>
      </trkpt>
      <trkpt lat="45.94695" lon="4.74009">
        <ele>187</ele>
        <time>2018-06-01T08:44:26Z</time>
      </trkpt>
      <trkpt lat="45.94699" lon="4.74015">
        <ele>187</ele>
        <time>2018-06-01T08:44:27Z</time>
      </trkpt>
      <trkpt lat="45.94703" lon="4.74021">
        <ele>187</ele>
        <time>2018-06-01T08:44:28Z</time>
      </trkpt>
      <trkpt lat="45.94706" lon="4.74026">
        <ele>187</ele>
        <time>2018-06-01T08:44:29Z</time>
      </trkpt>
      <trkpt lat="45.94709" lon="4.74031">
        <ele>187</ele>
        <time>2018-06-01T08:44:30Z</time>
      </trkpt>
      <trkpt lat="45.94711" lon="4.74038">
        <ele>187</ele>
        <time>2018-06-01T08:44:31Z</time>
      </trkpt>
      <trkpt lat="45.94716" lon="4.74043">
        <ele>187</ele>
        <time>2018-06-01T08:44:32Z</time>
      </trkpt>
      <trkpt lat="45.9472" lon="4.74047">
        <ele>187</ele>
        <time>2018-06-01T08:44:33Z</time>
      </trkpt>
      <trkpt lat="45.94724" lon="4.74054">
        <ele>188</ele>
        <time>2018-06-01T08:44:34Z</time>
      </trkpt>
      <trkpt lat="45.94728" lon="4.74059">
        <ele>188</ele>
        <time>2018-06-01T08:44:35Z</time>
      </trkpt>
      <trkpt lat="45.94732" lon="4.74064">
        <ele>188</ele>
        <time>2018-06-01T08:44:36Z</time>
      </trkpt>
      <trkpt lat="45.94736" lon="4.74069">
        <ele>188</ele>
        <time>2018-06-01T08:44:37Z</time>
      </trkpt>
      <trkpt lat="45.9474" lon="4.74074">
        <ele>188</ele>
        <time>2018-06-01T08:44:38Z</time>
      </trkpt>
      <trkpt lat="45.94744" lon="4.74079">
        <ele>189</ele>
        <time>2018-06-01T08:44:39Z</time>
      </trkpt>
      <trkpt lat="45.94749" lon="4.74084">
        <ele>189</ele>
        <time>2018-06-01T08:44:40Z</time>
      </trkpt>
      <trkpt lat="45.94752" lon="4.7409">
        <ele>189</ele>
        <time>2018-06-01T08:44:41Z</time>
      </trkpt>
      <trkpt lat="45.94756" lon="4.74095">
        <ele>189</ele>
        <time>2018-06-01T08:44:42Z</time>
      </trkpt>
      <trkpt lat="45.9476" lon="4.741">
        <ele>189</ele>
        <time>2018-06-01T08:44:43Z</time>
      </trkpt>
      <trkpt lat="45.94764" lon="4.74105">
        <ele>189</ele>
        <time>2018-06-01T08:44:44Z</time>
      </trkpt>
      <trkpt lat="45.94768" lon="4.74112">
        <ele>189</ele>
        <time>2018-06-01T08:44:45Z</time>
      </trkpt>
      <trkpt lat="45.94771" lon="4.74118">
        <ele>189</ele>
        <time>2018-06-01T08:44:46Z</time>
      </trkpt>
      <trkpt lat="45.94775" lon="4.74123">
        <ele>189</ele>
        <time>2018-06-01T08:44:47Z</time>
      </trkpt>
      <trkpt lat="45.94779" lon="4.74128">
        <ele>189</ele>
        <time>2018-06-01T08:44:48Z</time>
      </trkpt>
      <trkpt lat="45.94783" lon="4.74135">
        <ele>189</ele>
        <time>2018-06-01T08:44:49Z</time>
      </trkpt>
      <trkpt lat="45.94787" lon="4.7414">
        <ele>189</ele>
        <time>2018-06-01T08:44:50Z</time>
      </trkpt>
      <trkpt lat="45.94792" lon="4.74146">
        <ele>189</ele>
        <time>2018-06-01T08:44:51Z</time>
      </trkpt>
      <trkpt lat="45.94793" lon="4.74152">
        <ele>189</ele>
        <time>2018-06-01T08:44:52Z</time>
      </trkpt>
      <trkpt lat="45.94796" lon="4.74158">
        <ele>189</ele>
        <time>2018-06-01T08:44:53Z</time>
      </trkpt>
      <trkpt lat="45.948" lon="4.74164">
        <ele>189</ele>
        <time>2018-06-01T08:44:54Z</time>
      </trkpt>
      <trkpt lat="45.94805" lon="4.74169">
        <ele>189</ele>
        <time>2018-06-01T08:44:55Z</time>
      </trkpt>
      <trkpt lat="45.94805" lon="4.74177">
        <ele>189</ele>
        <time>2018-06-01T08:44:56Z</time>
      </trkpt>
      <trkpt lat="45.94808" lon="4.74184">
        <ele>189</ele>
        <time>2018-06-01T08:44:57Z</time>
      </trkpt>
      <trkpt lat="45.94809" lon="4.74192">
        <ele>189</ele>
        <time>2018-06-01T08:44:58Z</time>
      </trkpt>
      <trkpt lat="45.94813" lon="4.74198">
        <ele>188</ele>
        <time>2018-06-01T08:44:59Z</time>
      </trkpt>
      <trkpt lat="45.94817" lon="4.74206">
        <ele>188</ele>
        <time>2018-06-01T08:45:00Z</time>
      </trkpt>
      <trkpt lat="45.94821" lon="4.74212">
        <ele>188</ele>
        <time>2018-06-01T08:45:01Z</time>
      </trkpt>
      <trkpt lat="45.94825" lon="4.74219">
        <ele>188</ele>
        <time>2018-06-01T08:45:02Z</time>
      </trkpt>
      <trkpt lat="45.94828" lon="4.74226">
        <ele>188</ele>
        <time>2018-06-01T08:45:03Z</time>
      </trkpt>
      <trkpt lat="45.94831" lon="4.74233">
        <ele>189</ele>
        <time>2018-06-01T08:45:04Z</time>
      </trkpt>
      <trkpt lat="45.94835" lon="4.7424">
        <ele>189</ele>
        <time>2018-06-01T08:45:05Z</time>
      </trkpt>
      <trkpt lat="45.94839" lon="4.74246">
        <ele>189</ele>
        <time>2018-06-01T08:45:06Z</time>
      </trkpt>
      <trkpt lat="45.94842" lon="4.74253">
        <ele>190</ele>
        <time>2018-06-01T08:45:07Z</time>
      </trkpt>
      <trkpt lat="45.94848" lon="4.74259">
        <ele>190</ele>
        <time>2018-06-01T08:45:08Z</time>
      </trkpt>
      <trkpt lat="45.94852" lon="4.74265">
        <ele>190</ele>
        <time>2018-06-01T08:45:09Z</time>
      </trkpt>
      <trkpt lat="45.94855" lon="4.74272">
        <ele>190</ele>
        <time>2018-06-01T08:45:10Z</time>
      </trkpt>
      <trkpt lat="45.94859" lon="4.74278">
        <ele>190</ele>
        <time>2018-06-01T08:45:11Z</time>
      </trkpt>
      <trkpt lat="45.94863" lon="4.74283">
        <ele>191</ele>
        <time>2018-06-01T08:45:12Z</time>
      </trkpt>
      <trkpt lat="45.94866" lon="4.7429">
        <ele>191</ele>
        <time>2018-06-01T08:45:13Z</time>
      </trkpt>
      <trkpt lat="45.94869" lon="4.74295">
        <ele>191</ele>
        <time>2018-06-01T08:45:14Z</time>
      </trkpt>
      <trkpt lat="45.94872" lon="4.74301">
        <ele>191</ele>
        <time>2018-06-01T08:45:15Z</time>
      </trkpt>
      <trkpt lat="45.94877" lon="4.74307">
        <ele>191</ele>
        <time>2018-06-01T08:45:16Z</time>
      </trkpt>
      <trkpt lat="45.94882" lon="4.74315">
        <ele>191</ele>
        <time>2018-06-01T08:45:17Z</time>
      </trkpt>
      <trkpt lat="45.94887" lon="4.7432">
        <ele>191</ele>
        <time>2018-06-01T08:45:18Z</time>
      </trkpt>
      <trkpt lat="45.94892" lon="4.74327">
        <ele>191</ele>
        <time>2018-06-01T08:45:19Z</time>
      </trkpt>
      <trkpt lat="45.94894" lon="4.74333">
        <ele>191</ele>
        <time>2018-06-01T08:45:20Z</time>
      </trkpt>
      <trkpt lat="45.94896" lon="4.7434">
        <ele>191</ele>
        <time>2018-06-01T08:45:21Z</time>
      </trkpt>
      <trkpt lat="45.94899" lon="4.74346">
        <ele>191</ele>
        <time>2018-06-01T08:45:22Z</time>
      </trkpt>
      <trkpt lat="45.94903" lon="4.74352">
        <ele>191</ele>
        <time>2018-06-01T08:45:23Z</time>
      </trkpt>
      <trkpt lat="45.94906" lon="4.74358">
        <ele>191</ele>
        <time>2018-06-01T08:45:24Z</time>
      </trkpt>
      <trkpt lat="45.94909" lon="4.74365">
        <ele>191</ele>
        <time>2018-06-01T08:45:25Z</time>
      </trkpt>
      <trkpt lat="45.94912" lon="4.74372">
        <ele>191</ele>
        <time>2018-06-01T08:45:26Z</time>
      </trkpt>
      <trkpt lat="45.94915" lon="4.74378">
        <ele>191</ele>
        <time>2018-06-01T08:45:27Z</time>
      </trkpt>
      <trkpt lat="45.94918" lon="4.74387">
        <ele>192</ele>
        <time>2018-06-01T08:45:28Z</time>
      </trkpt>
      <trkpt lat="45.94921" lon="4.74393">
        <ele>192</ele>
        <time>2018-06-01T08:45:29Z</time>
      </trkpt>
      <trkpt lat="45.94924" lon="4.74399">
        <ele>192</ele>
        <time>2018-06-01T08:45:30Z</time>
      </trkpt>
      <trkpt lat="45.94928" lon="4.74406">
        <ele>192</ele>
        <time>2018-06-01T08:45:31Z</time>
      </trkpt>
      <trkpt lat="45.94934" lon="4.74413">
        <ele>192</ele>
        <time>2018-06-01T08:45:32Z</time>
      </trkpt>
      <trkpt lat="45.94937" lon="4.74419">
        <ele>192</ele>
        <time>2018-06-01T08:45:33Z</time>
      </trkpt>
      <trkpt lat="45.9494" lon="4.74426">
        <ele>192</ele>
        <time>2018-06-01T08:45:34Z</time>
      </trkpt>
      <trkpt lat="45.94943" lon="4.74433">
        <ele>192</ele>
        <time>2018-06-01T08:45:35Z</time>
      </trkpt>
      <trkpt lat="45.94946" lon="4.74439">
        <ele>192</ele>
        <time>2018-06-01T08:45:36Z</time>
      </trkpt>
      <trkpt lat="45.94949" lon="4.74445">
        <ele>192</ele>
        <time>2018-06-01T08:45:37Z</time>
      </trkpt>
      <trkpt lat="45.94954" lon="4.74456">
        <ele>192</ele>
        <time>2018-06-01T08:45:39Z</time>
      </trkpt>
      <trkpt lat="45.94959" lon="4.74462">
        <ele>193</ele>
        <time>2018-06-01T08:45:40Z</time>
      </trkpt>
      <trkpt lat="45.94963" lon="4.74469">
        <ele>193</ele>
        <time>2018-06-01T08:45:41Z</time>
      </trkpt>
      <trkpt lat="45.94967" lon="4.74476">
        <ele>193</ele>
        <time>2018-06-01T08:45:42Z</time>
      </trkpt>
      <trkpt lat="45.9497" lon="4.74484">
        <ele>193</ele>
        <time>2018-06-01T08:45:43Z</time>
      </trkpt>
      <trkpt lat="45.94973" lon="4.7449">
        <ele>193</ele>
        <time>2018-06-01T08:45:44Z</time>
      </trkpt>
      <trkpt lat="45.94977" lon="4.74496">
        <ele>193</ele>
        <time>2018-06-01T08:45:45Z</time>
      </trkpt>
      <trkpt lat="45.94981" lon="4.74503">
        <ele>193</ele>
        <time>2018-06-01T08:45:46Z</time>
      </trkpt>
      <trkpt lat="45.94983" lon="4.7451">
        <ele>193</ele>
        <time>2018-06-01T08:45:47Z</time>
      </trkpt>
      <trkpt lat="45.94986" lon="4.74517">
        <ele>193</ele>
        <time>2018-06-01T08:45:48Z</time>
      </trkpt>
      <trkpt lat="45.9499" lon="4.74523">
        <ele>193</ele>
        <time>2018-06-01T08:45:49Z</time>
      </trkpt>
      <trkpt lat="45.94993" lon="4.74532">
        <ele>193</ele>
        <time>2018-06-01T08:45:50Z</time>
      </trkpt>
      <trkpt lat="45.94996" lon="4.74537">
        <ele>193</ele>
        <time>2018-06-01T08:45:51Z</time>
      </trkpt>
      <trkpt lat="45.94999" lon="4.74542">
        <ele>193</ele>
        <time>2018-06-01T08:45:52Z</time>
      </trkpt>
      <trkpt lat="45.95002" lon="4.74548">
        <ele>194</ele>
        <time>2018-06-01T08:45:53Z</time>
      </trkpt>
      <trkpt lat="45.95004" lon="4.74554">
        <ele>194</ele>
        <time>2018-06-01T08:45:54Z</time>
      </trkpt>
      <trkpt lat="45.95008" lon="4.74561">
        <ele>194</ele>
        <time>2018-06-01T08:45:55Z</time>
      </trkpt>
      <trkpt lat="45.95011" lon="4.74567">
        <ele>194</ele>
        <time>2018-06-01T08:45:56Z</time>
      </trkpt>
      <trkpt lat="45.95017" lon="4.74573">
        <ele>194</ele>
        <time>2018-06-01T08:45:57Z</time>
      </trkpt>
      <trkpt lat="45.9502" lon="4.74582">
        <ele>194</ele>
        <time>2018-06-01T08:45:58Z</time>
      </trkpt>
      <trkpt lat="45.95023" lon="4.74589">
        <ele>194</ele>
        <time>2018-06-01T08:45:59Z</time>
      </trkpt>
      <trkpt lat="45.95025" lon="4.74594">
        <ele>194</ele>
        <time>2018-06-01T08:46:00Z</time>
      </trkpt>
      <trkpt lat="45.95028" lon="4.74599">
        <ele>194</ele>
        <time>2018-06-01T08:46:01Z</time>
      </trkpt>
      <trkpt lat="45.95031" lon="4.74605">
        <ele>194</ele>
        <time>2018-06-01T08:46:02Z</time>
      </trkpt>
      <trkpt lat="45.95034" lon="4.74611">
        <ele>194</ele>
        <time>2018-06-01T08:46:03Z</time>
      </trkpt>
      <trkpt lat="45.95038" lon="4.74617">
        <ele>194</ele>
        <time>2018-06-01T08:46:04Z</time>
      </trkpt>
      <trkpt lat="45.95042" lon="4.74623">
        <ele>194</ele>
        <time>2018-06-01T08:46:05Z</time>
      </trkpt>
      <trkpt lat="45.95045" lon="4.74629">
        <ele>194</ele>
        <time>2018-06-01T08:46:06Z</time>
      </trkpt>
      <trkpt lat="45.95048" lon="4.74635">
        <ele>194</ele>
        <time>2018-06-01T08:46:07Z</time>
      </trkpt>
      <trkpt lat="45.95052" lon="4.74641">
        <ele>194</ele>
        <time>2018-06-01T08:46:08Z</time>
      </trkpt>
      <trkpt lat="45.95056" lon="4.74647">
        <ele>194</ele>
        <time>2018-06-01T08:46:09Z</time>
      </trkpt>
      <trkpt lat="45.9506" lon="4.74654">
        <ele>194</ele>
        <time>2018-06-01T08:46:10Z</time>
      </trkpt>
      <trkpt lat="45.95063" lon="4.74659">
        <ele>195</ele>
        <time>2018-06-01T08:46:11Z</time>
      </trkpt>
      <trkpt lat="45.95065" lon="4.74666">
        <ele>195</ele>
        <time>2018-06-01T08:46:12Z</time>
      </trkpt>
      <trkpt lat="45.95069" lon="4.74672">
        <ele>194</ele>
        <time>2018-06-01T08:46:13Z</time>
      </trkpt>
      <trkpt lat="45.95072" lon="4.74678">
        <ele>194</ele>
        <time>2018-06-01T08:46:14Z</time>
      </trkpt>
      <trkpt lat="45.95076" lon="4.74685">
        <ele>194</ele>
        <time>2018-06-01T08:46:15Z</time>
      </trkpt>
      <trkpt lat="45.9508" lon="4.74691">
        <ele>194</ele>
        <time>2018-06-01T08:46:16Z</time>
      </trkpt>
      <trkpt lat="45.95083" lon="4.74698">
        <ele>194</ele>
        <time>2018-06-01T08:46:17Z</time>
      </trkpt>
      <trkpt lat="45.95087" lon="4.74705">
        <ele>194</ele>
        <time>2018-06-01T08:46:18Z</time>
      </trkpt>
      <trkpt lat="45.95089" lon="4.74713">
        <ele>194</ele>
        <time>2018-06-01T08:46:19Z</time>
      </trkpt>
      <trkpt lat="45.95093" lon="4.74718">
        <ele>194</ele>
        <time>2018-06-01T08:46:20Z</time>
      </trkpt>
      <trkpt lat="45.95098" lon="4.74724">
        <ele>194</ele>
        <time>2018-06-01T08:46:21Z</time>
      </trkpt>
      <trkpt lat="45.951" lon="4.7473">
        <ele>194</ele>
        <time>2018-06-01T08:46:22Z</time>
      </trkpt>
      <trkpt lat="45.95104" lon="4.74736">
        <ele>194</ele>
        <time>2018-06-01T08:46:23Z</time>
      </trkpt>
      <trkpt lat="45.95109" lon="4.74743">
        <ele>194</ele>
        <time>2018-06-01T08:46:24Z</time>
      </trkpt>
      <trkpt lat="45.95112" lon="4.74748">
        <ele>194</ele>
        <time>2018-06-01T08:46:25Z</time>
      </trkpt>
      <trkpt lat="45.95116" lon="4.74754">
        <ele>194</ele>
        <time>2018-06-01T08:46:26Z</time>
      </trkpt>
      <trkpt lat="45.95119" lon="4.74763">
        <ele>194</ele>
        <time>2018-06-01T08:46:27Z</time>
      </trkpt>
      <trkpt lat="45.95123" lon="4.74769">
        <ele>194</ele>
        <time>2018-06-01T08:46:28Z</time>
      </trkpt>
      <trkpt lat="45.95127" lon="4.74776">
        <ele>194</ele>
        <time>2018-06-01T08:46:29Z</time>
      </trkpt>
      <trkpt lat="45.9513" lon="4.74783">
        <ele>194</ele>
        <time>2018-06-01T08:46:30Z</time>
      </trkpt>
      <trkpt lat="45.95134" lon="4.74789">
        <ele>194</ele>
        <time>2018-06-01T08:46:31Z</time>
      </trkpt>
      <trkpt lat="45.95137" lon="4.74795">
        <ele>194</ele>
        <time>2018-06-01T08:46:32Z</time>
      </trkpt>
      <trkpt lat="45.95141" lon="4.74801">
        <ele>194</ele>
        <time>2018-06-01T08:46:33Z</time>
      </trkpt>
      <trkpt lat="45.95145" lon="4.74805">
        <ele>194</ele>
        <time>2018-06-01T08:46:34Z</time>
      </trkpt>
      <trkpt lat="45.95149" lon="4.74811">
        <ele>194</ele>
        <time>2018-06-01T08:46:35Z</time>
      </trkpt>
      <trkpt lat="45.95153" lon="4.74816">
        <ele>194</ele>
        <time>2018-06-01T08:46:36Z</time>
      </trkpt>
      <trkpt lat="45.95156" lon="4.74824">
        <ele>194</ele>
        <time>2018-06-01T08:46:37Z</time>
      </trkpt>
      <trkpt lat="45.9516" lon="4.74831">
        <ele>194</ele>
        <time>2018-06-01T08:46:38Z</time>
      </trkpt>
      <trkpt lat="45.95166" lon="4.74837">
        <ele>194</ele>
        <time>2018-06-01T08:46:39Z</time>
      </trkpt>
      <trkpt lat="45.9517" lon="4.74843">
        <ele>194</ele>
        <time>2018-06-01T08:46:40Z</time>
      </trkpt>
      <trkpt lat="45.95173" lon="4.74851">
        <ele>194</ele>
        <time>2018-06-01T08:46:41Z</time>
      </trkpt>
      <trkpt lat="45.95178" lon="4.74857">
        <ele>194</ele>
        <time>2018-06-01T08:46:42Z</time>
      </trkpt>
      <trkpt lat="45.95183" lon="4.74863">
        <ele>194</ele>
        <time>2018-06-01T08:46:43Z</time>
      </trkpt>
      <trkpt lat="45.95187" lon="4.74869">
        <ele>194</ele>
        <time>2018-06-01T08:46:44Z</time>
      </trkpt>
      <trkpt lat="45.9519" lon="4.74876">
        <ele>194</ele>
        <time>2018-06-01T08:46:45Z</time>
      </trkpt>
      <trkpt lat="45.95195" lon="4.74883">
        <ele>194</ele>
        <time>2018-06-01T08:46:46Z</time>
      </trkpt>
      <trkpt lat="45.95198" lon="4.74887">
        <ele>194</ele>
        <time>2018-06-01T08:46:47Z</time>
      </trkpt>
      <trkpt lat="45.95202" lon="4.74894">
        <ele>194</ele>
        <time>2018-06-01T08:46:48Z</time>
      </trkpt>
      <trkpt lat="45.95204" lon="4.749">
        <ele>194</ele>
        <time>2018-06-01T08:46:49Z</time>
      </trkpt>
      <trkpt lat="45.95208" lon="4.74906">
        <ele>194</ele>
        <time>2018-06-01T08:46:50Z</time>
      </trkpt>
      <trkpt lat="45.95212" lon="4.74913">
        <ele>193</ele>
        <time>2018-06-01T08:46:51Z</time>
      </trkpt>
      <trkpt lat="45.95216" lon="4.74919">
        <ele>192</ele>
        <time>2018-06-01T08:46:52Z</time>
      </trkpt>
      <trkpt lat="45.95219" lon="4.74928">
        <ele>192</ele>
        <time>2018-06-01T08:46:53Z</time>
      </trkpt>
      <trkpt lat="45.95223" lon="4.74935">
        <ele>192</ele>
        <time>2018-06-01T08:46:54Z</time>
      </trkpt>
      <trkpt lat="45.95228" lon="4.74941">
        <ele>192</ele>
        <time>2018-06-01T08:46:55Z</time>
      </trkpt>
      <trkpt lat="45.95232" lon="4.74947">
        <ele>192</ele>
        <time>2018-06-01T08:46:56Z</time>
      </trkpt>
      <trkpt lat="45.95237" lon="4.74953">
        <ele>192</ele>
        <time>2018-06-01T08:46:57Z</time>
      </trkpt>
      <trkpt lat="45.95242" lon="4.74959">
        <ele>191</ele>
        <time>2018-06-01T08:46:58Z</time>
      </trkpt>
      <trkpt lat="45.95246" lon="4.74967">
        <ele>191</ele>
        <time>2018-06-01T08:46:59Z</time>
      </trkpt>
      <trkpt lat="45.9525" lon="4.74974">
        <ele>192</ele>
        <time>2018-06-01T08:47:00Z</time>
      </trkpt>
      <trkpt lat="45.95254" lon="4.74979">
        <ele>192</ele>
        <time>2018-06-01T08:47:01Z</time>
      </trkpt>
      <trkpt lat="45.9526" lon="4.74987">
        <ele>192</ele>
        <time>2018-06-01T08:47:02Z</time>
      </trkpt>
      <trkpt lat="45.95264" lon="4.74991">
        <ele>192</ele>
        <time>2018-06-01T08:47:03Z</time>
      </trkpt>
      <trkpt lat="45.95268" lon="4.74997">
        <ele>192</ele>
        <time>2018-06-01T08:47:04Z</time>
      </trkpt>
      <trkpt lat="45.95273" lon="4.75004">
        <ele>191</ele>
        <time>2018-06-01T08:47:05Z</time>
      </trkpt>
      <trkpt lat="45.95277" lon="4.7501">
        <ele>191</ele>
        <time>2018-06-01T08:47:06Z</time>
      </trkpt>
      <trkpt lat="45.95282" lon="4.75017">
        <ele>191</ele>
        <time>2018-06-01T08:47:07Z</time>
      </trkpt>
      <trkpt lat="45.95288" lon="4.75024">
        <ele>191</ele>
        <time>2018-06-01T08:47:08Z</time>
      </trkpt>
      <trkpt lat="45.95293" lon="4.75031">
        <ele>191</ele>
        <time>2018-06-01T08:47:09Z</time>
      </trkpt>
      <trkpt lat="45.95297" lon="4.75036">
        <ele>191</ele>
        <time>2018-06-01T08:47:10Z</time>
      </trkpt>
      <trkpt lat="45.95302" lon="4.75042">
        <ele>191</ele>
        <time>2018-06-01T08:47:11Z</time>
      </trkpt>
      <trkpt lat="45.95305" lon="4.75048">
        <ele>191</ele>
        <time>2018-06-01T08:47:12Z</time>
      </trkpt>
      <trkpt lat="45.95309" lon="4.75052">
        <ele>192</ele>
        <time>2018-06-01T08:47:13Z</time>
      </trkpt>
      <trkpt lat="45.95314" lon="4.7506">
        <ele>192</ele>
        <time>2018-06-01T08:47:14Z</time>
      </trkpt>
      <trkpt lat="45.95318" lon="4.75065">
        <ele>192</ele>
        <time>2018-06-01T08:47:15Z</time>
      </trkpt>
      <trkpt lat="45.95322" lon="4.75072">
        <ele>192</ele>
        <time>2018-06-01T08:47:16Z</time>
      </trkpt>
      <trkpt lat="45.95326" lon="4.75079">
        <ele>192</ele>
        <time>2018-06-01T08:47:17Z</time>
      </trkpt>
      <trkpt lat="45.9533" lon="4.75085">
        <ele>192</ele>
        <time>2018-06-01T08:47:18Z</time>
      </trkpt>
      <trkpt lat="45.95335" lon="4.75091">
        <ele>193</ele>
        <time>2018-06-01T08:47:19Z</time>
      </trkpt>
      <trkpt lat="45.95338" lon="4.75097">
        <ele>192</ele>
        <time>2018-06-01T08:47:20Z</time>
      </trkpt>
      <trkpt lat="45.95343" lon="4.75103">
        <ele>192</ele>
        <time>2018-06-01T08:47:21Z</time>
      </trkpt>
      <trkpt lat="45.95347" lon="4.75107">
        <ele>192</ele>
        <time>2018-06-01T08:47:22Z</time>
      </trkpt>
      <trkpt lat="45.95351" lon="4.75114">
        <ele>192</ele>
        <time>2018-06-01T08:47:23Z</time>
      </trkpt>
      <trkpt lat="45.95355" lon="4.75121">
        <ele>191</ele>
        <time>2018-06-01T08:47:24Z</time>
      </trkpt>
      <trkpt lat="45.95359" lon="4.75128">
        <ele>191</ele>
        <time>2018-06-01T08:47:25Z</time>
      </trkpt>
      <trkpt lat="45.95363" lon="4.75135">
        <ele>191</ele>
        <time>2018-06-01T08:47:26Z</time>
      </trkpt>
      <trkpt lat="45.95368" lon="4.75142">
        <ele>191</ele>
        <time>2018-06-01T08:47:27Z</time>
      </trkpt>
      <trkpt lat="45.95371" lon="4.75149">
        <ele>191</ele>
        <time>2018-06-01T08:47:28Z</time>
      </trkpt>
      <trkpt lat="45.95376" lon="4.75156">
        <ele>191</ele>
        <time>2018-06-01T08:47:29Z</time>
      </trkpt>
      <trkpt lat="45.95381" lon="4.75164">
        <ele>191</ele>
        <time>2018-06-01T08:47:30Z</time>
      </trkpt>
      <trkpt lat="45.95384" lon="4.75171">
        <ele>189</ele>
        <time>2018-06-01T08:47:31Z</time>
      </trkpt>
      <trkpt lat="45.95387" lon="4.75179">
        <ele>189</ele>
        <time>2018-06-01T08:47:32Z</time>
      </trkpt>
      <trkpt lat="45.9539" lon="4.75187">
        <ele>189</ele>
        <time>2018-06-01T08:47:33Z</time>
      </trkpt>
      <trkpt lat="45.95395" lon="4.75194">
        <ele>189</ele>
        <time>2018-06-01T08:47:34Z</time>
      </trkpt>
      <trkpt lat="45.95398" lon="4.75201">
        <ele>189</ele>
        <time>2018-06-01T08:47:35Z</time>
      </trkpt>
      <trkpt lat="45.95402" lon="4.75208">
        <ele>189</ele>
        <time>2018-06-01T08:47:36Z</time>
      </trkpt>
      <trkpt lat="45.95405" lon="4.75219">
        <ele>188</ele>
        <time>2018-06-01T08:47:37Z</time>
      </trkpt>
      <trkpt lat="45.95409" lon="4.75225">
        <ele>188</ele>
        <time>2018-06-01T08:47:38Z</time>
      </trkpt>
      <trkpt lat="45.95413" lon="4.75232">
        <ele>189</ele>
        <time>2018-06-01T08:47:39Z</time>
      </trkpt>
      <trkpt lat="45.95417" lon="4.75239">
        <ele>190</ele>
        <time>2018-06-01T08:47:40Z</time>
      </trkpt>
      <trkpt lat="45.95421" lon="4.75245">
        <ele>190</ele>
        <time>2018-06-01T08:47:41Z</time>
      </trkpt>
      <trkpt lat="45.95425" lon="4.75254">
        <ele>189</ele>
        <time>2018-06-01T08:47:42Z</time>
      </trkpt>
      <trkpt lat="45.95429" lon="4.75261">
        <ele>189</ele>
        <time>2018-06-01T08:47:43Z</time>
      </trkpt>
      <trkpt lat="45.95433" lon="4.75268">
        <ele>189</ele>
        <time>2018-06-01T08:47:44Z</time>
      </trkpt>
      <trkpt lat="45.95437" lon="4.75276">
        <ele>188</ele>
        <time>2018-06-01T08:47:45Z</time>
      </trkpt>
      <trkpt lat="45.95441" lon="4.75282">
        <ele>188</ele>
        <time>2018-06-01T08:47:46Z</time>
      </trkpt>
      <trkpt lat="45.95445" lon="4.75289">
        <ele>188</ele>
        <time>2018-06-01T08:47:47Z</time>
      </trkpt>
      <trkpt lat="45.95448" lon="4.75297">
        <ele>188</ele>
        <time>2018-06-01T08:47:48Z</time>
      </trkpt>
      <trkpt lat="45.95452" lon="4.75305">
        <ele>188</ele>
        <time>2018-06-01T08:47:49Z</time>
      </trkpt>
      <trkpt lat="45.95456" lon="4.75312">
        <ele>188</ele>
        <time>2018-06-01T08:47:50Z</time>
      </trkpt>
      <trkpt lat="45.9546" lon="4.7532">
        <ele>188</ele>
        <time>2018-06-01T08:47:51Z</time>
      </trkpt>
      <trkpt lat="45.95463" lon="4.75326">
        <ele>188</ele>
        <time>2018-06-01T08:47:52Z</time>
      </trkpt>
      <trkpt lat="45.95466" lon="4.75334">
        <ele>185</ele>
        <time>2018-06-01T08:47:53Z</time>
      </trkpt>
      <trkpt lat="45.9547" lon="4.75342">
        <ele>186</ele>
        <time>2018-06-01T08:47:54Z</time>
      </trkpt>
      <trkpt lat="45.95473" lon="4.7535">
        <ele>186</ele>
        <time>2018-06-01T08:47:55Z</time>
      </trkpt>
      <trkpt lat="45.95477" lon="4.75357">
        <ele>186</ele>
        <time>2018-06-01T08:47:56Z</time>
      </trkpt>
      <trkpt lat="45.95481" lon="4.75364">
        <ele>185</ele>
        <time>2018-06-01T08:47:57Z</time>
      </trkpt>
      <trkpt lat="45.95487" lon="4.75372">
        <ele>185</ele>
        <time>2018-06-01T08:47:58Z</time>
      </trkpt>
      <trkpt lat="45.95491" lon="4.7538">
        <ele>185</ele>
        <time>2018-06-01T08:47:59Z</time>
      </trkpt>
      <trkpt lat="45.95496" lon="4.75387">
        <ele>185</ele>
        <time>2018-06-01T08:48:00Z</time>
      </trkpt>
      <trkpt lat="45.955" lon="4.75397">
        <ele>185</ele>
        <time>2018-06-01T08:48:01Z</time>
      </trkpt>
      <trkpt lat="45.95502" lon="4.75407">
        <ele>186</ele>
        <time>2018-06-01T08:48:02Z</time>
      </trkpt>
      <trkpt lat="45.95504" lon="4.75416">
        <ele>186</ele>
        <time>2018-06-01T08:48:03Z</time>
      </trkpt>
      <trkpt lat="45.95506" lon="4.75426">
        <ele>186</ele>
        <time>2018-06-01T08:48:04Z</time>
      </trkpt>
      <trkpt lat="45.95507" lon="4.75435">
        <ele>186</ele>
        <time>2018-06-01T08:48:05Z</time>
      </trkpt>
      <trkpt lat="45.95508" lon="4.75444">
        <ele>186</ele>
        <time>2018-06-01T08:48:06Z</time>
      </trkpt>
      <trkpt lat="45.95509" lon="4.75454">
        <ele>187</ele>
        <time>2018-06-01T08:48:07Z</time>
      </trkpt>
      <trkpt lat="45.9551" lon="4.75464">
        <ele>186</ele>
        <time>2018-06-01T08:48:08Z</time>
      </trkpt>
      <trkpt lat="45.95509" lon="4.75473">
        <ele>186</ele>
        <time>2018-06-01T08:48:09Z</time>
      </trkpt>
      <trkpt lat="45.9551" lon="4.75483">
        <ele>186</ele>
        <time>2018-06-01T08:48:10Z</time>
      </trkpt>
      <trkpt lat="45.95514" lon="4.75495">
        <ele>186</ele>
        <time>2018-06-01T08:48:12Z</time>
      </trkpt>
      <trkpt lat="45.95518" lon="4.75499">
        <ele>186</ele>
        <time>2018-06-01T08:48:13Z</time>
      </trkpt>
      <trkpt lat="45.95523" lon="4.75503">
        <ele>185</ele>
        <time>2018-06-01T08:48:14Z</time>
      </trkpt>
      <trkpt lat="45.95531" lon="4.75509">
        <ele>185</ele>
        <time>2018-06-01T08:48:15Z</time>
      </trkpt>
      <trkpt lat="45.95537" lon="4.75513">
        <ele>186</ele>
        <time>2018-06-01T08:48:16Z</time>
      </trkpt>
      <trkpt lat="45.95543" lon="4.75519">
        <ele>186</ele>
        <time>2018-06-01T08:48:17Z</time>
      </trkpt>
      <trkpt lat="45.95547" lon="4.75524">
        <ele>186</ele>
        <time>2018-06-01T08:48:18Z</time>
      </trkpt>
      <trkpt lat="45.95553" lon="4.75526">
        <ele>186</ele>
        <time>2018-06-01T08:48:19Z</time>
      </trkpt>
      <trkpt lat="45.95558" lon="4.75531">
        <ele>186</ele>
        <time>2018-06-01T08:48:20Z</time>
      </trkpt>
      <trkpt lat="45.95563" lon="4.75535">
        <ele>186</ele>
        <time>2018-06-01T08:48:21Z</time>
      </trkpt>
      <trkpt lat="45.95569" lon="4.75542">
        <ele>186</ele>
        <time>2018-06-01T08:48:22Z</time>
      </trkpt>
      <trkpt lat="45.95574" lon="4.75548">
        <ele>186</ele>
        <time>2018-06-01T08:48:23Z</time>
      </trkpt>
      <trkpt lat="45.95578" lon="4.75554">
        <ele>186</ele>
        <time>2018-06-01T08:48:24Z</time>
      </trkpt>
      <trkpt lat="45.95582" lon="4.75561">
        <ele>186</ele>
        <time>2018-06-01T08:48:25Z</time>
      </trkpt>
      <trkpt lat="45.95587" lon="4.75568">
        <ele>188</ele>
        <time>2018-06-01T08:48:26Z</time>
      </trkpt>
      <trkpt lat="45.9559" lon="4.75576">
        <ele>187</ele>
        <time>2018-06-01T08:48:27Z</time>
      </trkpt>
      <trkpt lat="45.95593" lon="4.75584">
        <ele>187</ele>
        <time>2018-06-01T08:48:28Z</time>
      </trkpt>
      <trkpt lat="45.95596" lon="4.75591">
        <ele>187</ele>
        <time>2018-06-01T08:48:29Z</time>
      </trkpt>
      <trkpt lat="45.95599" lon="4.75597">
        <ele>187</ele>
        <time>2018-06-01T08:48:30Z</time>
      </trkpt>
      <trkpt lat="45.95603" lon="4.75603">
        <ele>187</ele>
        <time>2018-06-01T08:48:31Z</time>
      </trkpt>
      <trkpt lat="45.95605" lon="4.75611">
        <ele>187</ele>
        <time>2018-06-01T08:48:32Z</time>
      </trkpt>
      <trkpt lat="45.95609" lon="4.75618">
        <ele>188</ele>
        <time>2018-06-01T08:48:33Z</time>
      </trkpt>
      <trkpt lat="45.95611" lon="4.75627">
        <ele>188</ele>
        <time>2018-06-01T08:48:34Z</time>
      </trkpt>
      <trkpt lat="45.95613" lon="4.75635">
        <ele>188</ele>
        <time>2018-06-01T08:48:35Z</time>
      </trkpt>
      <trkpt lat="45.95617" lon="4.75643">
        <ele>188</ele>
        <time>2018-06-01T08:48:36Z</time>
      </trkpt>
      <trkpt lat="45.95619" lon="4.75651">
        <ele>188</ele>
        <time>2018-06-01T08:48:37Z</time>
      </trkpt>
      <trkpt lat="45.9562" lon="4.75661">
        <ele>188</ele>
        <time>2018-06-01T08:48:38Z</time>
      </trkpt>
      <trkpt lat="45.95621" lon="4.7567">
        <ele>187</ele>
        <time>2018-06-01T08:48:39Z</time>
      </trkpt>
      <trkpt lat="45.95623" lon="4.75679">
        <ele>187</ele>
        <time>2018-06-01T08:48:40Z</time>
      </trkpt>
      <trkpt lat="45.95624" lon="4.75687">
        <ele>187</ele>
        <time>2018-06-01T08:48:41Z</time>
      </trkpt>
      <trkpt lat="45.95625" lon="4.75696">
        <ele>187</ele>
        <time>2018-06-01T08:48:42Z</time>
      </trkpt>
      <trkpt lat="45.95627" lon="4.75705">
        <ele>187</ele>
        <time>2018-06-01T08:48:43Z</time>
      </trkpt>
      <trkpt lat="45.95629" lon="4.75714">
        <ele>187</ele>
        <time>2018-06-01T08:48:44Z</time>
      </trkpt>
      <trkpt lat="45.9563" lon="4.75724">
        <ele>187</ele>
        <time>2018-06-01T08:48:45Z</time>
      </trkpt>
      <trkpt lat="45.95632" lon="4.75734">
        <ele>187</ele>
        <time>2018-06-01T08:48:46Z</time>
      </trkpt>
      <trkpt lat="45.95633" lon="4.75745">
        <ele>187</ele>
        <time>2018-06-01T08:48:47Z</time>
      </trkpt>
      <trkpt lat="45.95633" lon="4.75754">
        <ele>186</ele>
        <time>2018-06-01T08:48:48Z</time>
      </trkpt>
      <trkpt lat="45.95634" lon="4.75763">
        <ele>186</ele>
        <time>2018-06-01T08:48:49Z</time>
      </trkpt>
      <trkpt lat="45.95635" lon="4.75775">
        <ele>185</ele>
        <time>2018-06-01T08:48:50Z</time>
      </trkpt>
      <trkpt lat="45.95635" lon="4.75784">
        <ele>185</ele>
        <time>2018-06-01T08:48:51Z</time>
      </trkpt>
      <trkpt lat="45.95638" lon="4.75794">
        <ele>185</ele>
        <time>2018-06-01T08:48:52Z</time>
      </trkpt>
      <trkpt lat="45.95639" lon="4.75801">
        <ele>185</ele>
        <time>2018-06-01T08:48:53Z</time>
      </trkpt>
      <trkpt lat="45.95641" lon="4.7581">
        <ele>185</ele>
        <time>2018-06-01T08:48:54Z</time>
      </trkpt>
      <trkpt lat="45.95642" lon="4.75821">
        <ele>185</ele>
        <time>2018-06-01T08:48:55Z</time>
      </trkpt>
      <trkpt lat="45.95645" lon="4.75832">
        <ele>185</ele>
        <time>2018-06-01T08:48:56Z</time>
      </trkpt>
      <trkpt lat="45.95648" lon="4.75839">
        <ele>185</ele>
        <time>2018-06-01T08:48:57Z</time>
      </trkpt>
      <trkpt lat="45.95651" lon="4.75849">
        <ele>184</ele>
        <time>2018-06-01T08:48:58Z</time>
      </trkpt>
      <trkpt lat="45.95653" lon="4.75858">
        <ele>184</ele>
        <time>2018-06-01T08:48:59Z</time>
      </trkpt>
      <trkpt lat="45.95657" lon="4.75862">
        <ele>184</ele>
        <time>2018-06-01T08:49:00Z</time>
      </trkpt>
      <trkpt lat="45.9566" lon="4.75871">
        <ele>184</ele>
        <time>2018-06-01T08:49:01Z</time>
      </trkpt>
      <trkpt lat="45.95664" lon="4.75878">
        <ele>184</ele>
        <time>2018-06-01T08:49:02Z</time>
      </trkpt>
      <trkpt lat="45.95667" lon="4.75886">
        <ele>184</ele>
        <time>2018-06-01T08:49:03Z</time>
      </trkpt>
      <trkpt lat="45.95669" lon="4.75894">
        <ele>186</ele>
        <time>2018-06-01T08:49:04Z</time>
      </trkpt>
      <trkpt lat="45.95673" lon="4.75903">
        <ele>185</ele>
        <time>2018-06-01T08:49:05Z</time>
      </trkpt>
      <trkpt lat="45.95676" lon="4.75912">
        <ele>185</ele>
        <time>2018-06-01T08:49:06Z</time>
      </trkpt>
      <trkpt lat="45.95679" lon="4.75922">
        <ele>185</ele>
        <time>2018-06-01T08:49:07Z</time>
      </trkpt>
      <trkpt lat="45.95683" lon="4.75929">
        <ele>185</ele>
        <time>2018-06-01T08:49:08Z</time>
      </trkpt>
      <trkpt lat="45.95688" lon="4.75938">
        <ele>185</ele>
        <time>2018-06-01T08:49:09Z</time>
      </trkpt>
      <trkpt lat="45.95692" lon="4.75945">
        <ele>185</ele>
        <time>2018-06-01T08:49:10Z</time>
      </trkpt>
      <trkpt lat="45.95695" lon="4.75954">
        <ele>185</ele>
        <time>2018-06-01T08:49:11Z</time>
      </trkpt>
      <trkpt lat="45.95699" lon="4.75962">
        <ele>185</ele>
        <time>2018-06-01T08:49:12Z</time>
      </trkpt>
      <trkpt lat="45.95703" lon="4.7597">
        <ele>185</ele>
        <time>2018-06-01T08:49:13Z</time>
      </trkpt>
      <trkpt lat="45.95707" lon="4.75978">
        <ele>185</ele>
        <time>2018-06-01T08:49:14Z</time>
      </trkpt>
      <trkpt lat="45.9571" lon="4.75986">
        <ele>185</ele>
        <time>2018-06-01T08:49:15Z</time>
      </trkpt>
      <trkpt lat="45.95714" lon="4.75995">
        <ele>185</ele>
        <time>2018-06-01T08:49:16Z</time>
      </trkpt>
      <trkpt lat="45.95718" lon="4.76003">
        <ele>184</ele>
        <time>2018-06-01T08:49:17Z</time>
      </trkpt>
      <trkpt lat="45.95721" lon="4.76011">
        <ele>185</ele>
        <time>2018-06-01T08:49:18Z</time>
      </trkpt>
      <trkpt lat="45.95725" lon="4.76019">
        <ele>185</ele>
        <time>2018-06-01T08:49:19Z</time>
      </trkpt>
      <trkpt lat="45.9573" lon="4.76027">
        <ele>185</ele>
        <time>2018-06-01T08:49:20Z</time>
      </trkpt>
      <trkpt lat="45.95733" lon="4.76035">
        <ele>184</ele>
        <time>2018-06-01T08:49:21Z</time>
      </trkpt>
      <trkpt lat="45.95736" lon="4.76042">
        <ele>184</ele>
        <time>2018-06-01T08:49:22Z</time>
      </trkpt>
      <trkpt lat="45.95739" lon="4.76049">
        <ele>184</ele>
        <time>2018-06-01T08:49:23Z</time>
      </trkpt>
      <trkpt lat="45.95743" lon="4.76057">
        <ele>184</ele>
        <time>2018-06-01T08:49:24Z</time>
      </trkpt>
      <trkpt lat="45.95746" lon="4.76066">
        <ele>185</ele>
        <time>2018-06-01T08:49:25Z</time>
      </trkpt>
      <trkpt lat="45.95749" lon="4.76073">
        <ele>185</ele>
        <time>2018-06-01T08:49:26Z</time>
      </trkpt>
      <trkpt lat="45.95752" lon="4.76081">
        <ele>185</ele>
        <time>2018-06-01T08:49:27Z</time>
      </trkpt>
      <trkpt lat="45.95754" lon="4.7609">
        <ele>185</ele>
        <time>2018-06-01T08:49:28Z</time>
      </trkpt>
      <trkpt lat="45.95756" lon="4.76098">
        <ele>186</ele>
        <time>2018-06-01T08:49:29Z</time>
      </trkpt>
      <trkpt lat="45.95758" lon="4.76107">
        <ele>186</ele>
        <time>2018-06-01T08:49:30Z</time>
      </trkpt>
      <trkpt lat="45.9576" lon="4.76116">
        <ele>186</ele>
        <time>2018-06-01T08:49:31Z</time>
      </trkpt>
      <trkpt lat="45.95761" lon="4.76125">
        <ele>186</ele>
        <time>2018-06-01T08:49:32Z</time>
      </trkpt>
      <trkpt lat="45.95763" lon="4.76133">
        <ele>186</ele>
        <time>2018-06-01T08:49:33Z</time>
      </trkpt>
      <trkpt lat="45.95764" lon="4.76142">
        <ele>186</ele>
        <time>2018-06-01T08:49:34Z</time>
      </trkpt>
      <trkpt lat="45.95765" lon="4.76151">
        <ele>186</ele>
        <time>2018-06-01T08:49:35Z</time>
      </trkpt>
      <trkpt lat="45.95766" lon="4.76161">
        <ele>186</ele>
        <time>2018-06-01T08:49:36Z</time>
      </trkpt>
      <trkpt lat="45.95766" lon="4.76174">
        <ele>186</ele>
        <time>2018-06-01T08:49:37Z</time>
      </trkpt>
      <trkpt lat="45.95767" lon="4.76181">
        <ele>186</ele>
        <time>2018-06-01T08:49:38Z</time>
      </trkpt>
      <trkpt lat="45.95769" lon="4.76193">
        <ele>186</ele>
        <time>2018-06-01T08:49:39Z</time>
      </trkpt>
      <trkpt lat="45.95769" lon="4.76199">
        <ele>186</ele>
        <time>2018-06-01T08:49:40Z</time>
      </trkpt>
      <trkpt lat="45.95769" lon="4.76209">
        <ele>186</ele>
        <time>2018-06-01T08:49:41Z</time>
      </trkpt>
      <trkpt lat="45.95769" lon="4.76218">
        <ele>186</ele>
        <time>2018-06-01T08:49:42Z</time>
      </trkpt>
      <trkpt lat="45.9577" lon="4.76227">
        <ele>186</ele>
        <time>2018-06-01T08:49:43Z</time>
      </trkpt>
      <trkpt lat="45.95769" lon="4.76234">
        <ele>186</ele>
        <time>2018-06-01T08:49:44Z</time>
      </trkpt>
      <trkpt lat="45.9577" lon="4.76244">
        <ele>186</ele>
        <time>2018-06-01T08:49:45Z</time>
      </trkpt>
      <trkpt lat="45.9577" lon="4.76252">
        <ele>185</ele>
        <time>2018-06-01T08:49:46Z</time>
      </trkpt>
      <trkpt lat="45.95769" lon="4.76261">
        <ele>185</ele>
        <time>2018-06-01T08:49:47Z</time>
      </trkpt>
      <trkpt lat="45.9577" lon="4.76271">
        <ele>186</ele>
        <time>2018-06-01T08:49:48Z</time>
      </trkpt>
      <trkpt lat="45.9577" lon="4.76279">
        <ele>186</ele>
        <time>2018-06-01T08:49:49Z</time>
      </trkpt>
      <trkpt lat="45.95771" lon="4.76288">
        <ele>186</ele>
        <time>2018-06-01T08:49:50Z</time>
      </trkpt>
      <trkpt lat="45.95771" lon="4.76299">
        <ele>186</ele>
        <time>2018-06-01T08:49:51Z</time>
      </trkpt>
      <trkpt lat="45.95773" lon="4.76308">
        <ele>186</ele>
        <time>2018-06-01T08:49:52Z</time>
      </trkpt>
      <trkpt lat="45.95773" lon="4.76318">
        <ele>185</ele>
        <time>2018-06-01T08:49:53Z</time>
      </trkpt>
      <trkpt lat="45.95773" lon="4.76328">
        <ele>185</ele>
        <time>2018-06-01T08:49:54Z</time>
      </trkpt>
      <trkpt lat="45.95773" lon="4.76337">
        <ele>186</ele>
        <time>2018-06-01T08:49:55Z</time>
      </trkpt>
      <trkpt lat="45.95773" lon="4.76346">
        <ele>186</ele>
        <time>2018-06-01T08:49:56Z</time>
      </trkpt>
      <trkpt lat="45.95774" lon="4.76356">
        <ele>186</ele>
        <time>2018-06-01T08:49:57Z</time>
      </trkpt>
      <trkpt lat="45.95775" lon="4.76367">
        <ele>186</ele>
        <time>2018-06-01T08:49:58Z</time>
      </trkpt>
      <trkpt lat="45.95775" lon="4.76376">
        <ele>186</ele>
        <time>2018-06-01T08:49:59Z</time>
      </trkpt>
      <trkpt lat="45.95777" lon="4.76387">
        <ele>186</ele>
        <time>2018-06-01T08:50:00Z</time>
      </trkpt>
      <trkpt lat="45.95776" lon="4.76396">
        <ele>186</ele>
        <time>2018-06-01T08:50:01Z</time>
      </trkpt>
      <trkpt lat="45.95777" lon="4.76406">
        <ele>186</ele>
        <time>2018-06-01T08:50:02Z</time>
      </trkpt>
      <trkpt lat="45.95778" lon="4.76415">
        <ele>186</ele>
        <time>2018-06-01T08:50:03Z</time>
      </trkpt>
      <trkpt lat="45.95779" lon="4.76424">
        <ele>186</ele>
        <time>2018-06-01T08:50:04Z</time>
      </trkpt>
      <trkpt lat="45.95779" lon="4.76433">
        <ele>186</ele>
        <time>2018-06-01T08:50:05Z</time>
      </trkpt>
      <trkpt lat="45.9578" lon="4.76441">
        <ele>186</ele>
        <time>2018-06-01T08:50:06Z</time>
      </trkpt>
      <trkpt lat="45.95781" lon="4.7645">
        <ele>186</ele>
        <time>2018-06-01T08:50:07Z</time>
      </trkpt>
      <trkpt lat="45.95783" lon="4.7646">
        <ele>186</ele>
        <time>2018-06-01T08:50:08Z</time>
      </trkpt>
      <trkpt lat="45.95784" lon="4.7647">
        <ele>186</ele>
        <time>2018-06-01T08:50:09Z</time>
      </trkpt>
      <trkpt lat="45.95786" lon="4.76478">
        <ele>186</ele>
        <time>2018-06-01T08:50:10Z</time>
      </trkpt>
      <trkpt lat="45.95787" lon="4.76487">
        <ele>186</ele>
        <time>2018-06-01T08:50:11Z</time>
      </trkpt>
      <trkpt lat="45.95789" lon="4.76498">
        <ele>186</ele>
        <time>2018-06-01T08:50:12Z</time>
      </trkpt>
      <trkpt lat="45.95791" lon="4.76505">
        <ele>187</ele>
        <time>2018-06-01T08:50:13Z</time>
      </trkpt>
      <trkpt lat="45.95792" lon="4.76513">
        <ele>187</ele>
        <time>2018-06-01T08:50:14Z</time>
      </trkpt>
      <trkpt lat="45.95793" lon="4.76521">
        <ele>187</ele>
        <time>2018-06-01T08:50:15Z</time>
      </trkpt>
      <trkpt lat="45.95795" lon="4.76529">
        <ele>187</ele>
        <time>2018-06-01T08:50:16Z</time>
      </trkpt>
      <trkpt lat="45.95797" lon="4.76538">
        <ele>187</ele>
        <time>2018-06-01T08:50:17Z</time>
      </trkpt>
      <trkpt lat="45.95798" lon="4.76548">
        <ele>187</ele>
        <time>2018-06-01T08:50:18Z</time>
      </trkpt>
      <trkpt lat="45.958" lon="4.76557">
        <ele>187</ele>
        <time>2018-06-01T08:50:19Z</time>
      </trkpt>
      <trkpt lat="45.958" lon="4.76566">
        <ele>187</ele>
        <time>2018-06-01T08:50:20Z</time>
      </trkpt>
      <trkpt lat="45.95802" lon="4.76576">
        <ele>187</ele>
        <time>2018-06-01T08:50:21Z</time>
      </trkpt>
      <trkpt lat="45.95804" lon="4.76588">
        <ele>188</ele>
        <time>2018-06-01T08:50:22Z</time>
      </trkpt>
      <trkpt lat="45.95803" lon="4.76595">
        <ele>187</ele>
        <time>2018-06-01T08:50:23Z</time>
      </trkpt>
      <trkpt lat="45.95803" lon="4.76605">
        <ele>188</ele>
        <time>2018-06-01T08:50:24Z</time>
      </trkpt>
      <trkpt lat="45.95806" lon="4.76619">
        <ele>188</ele>
        <time>2018-06-01T08:50:25Z</time>
      </trkpt>
      <trkpt lat="45.9581" lon="4.7663">
        <ele>188</ele>
        <time>2018-06-01T08:50:26Z</time>
      </trkpt>
      <trkpt lat="45.95812" lon="4.76638">
        <ele>188</ele>
        <time>2018-06-01T08:50:27Z</time>
      </trkpt>
      <trkpt lat="45.95813" lon="4.76646">
        <ele>188</ele>
        <time>2018-06-01T08:50:28Z</time>
      </trkpt>
      <trkpt lat="45.95814" lon="4.76654">
        <ele>188</ele>
        <time>2018-06-01T08:50:29Z</time>
      </trkpt>
      <trkpt lat="45.95815" lon="4.76662">
        <ele>188</ele>
        <time>2018-06-01T08:50:30Z</time>
      </trkpt>
      <trkpt lat="45.95817" lon="4.76671">
        <ele>188</ele>
        <time>2018-06-01T08:50:31Z</time>
      </trkpt>
      <trkpt lat="45.95818" lon="4.76678">
        <ele>189</ele>
        <time>2018-06-01T08:50:32Z</time>
      </trkpt>
      <trkpt lat="45.9582" lon="4.76687">
        <ele>189</ele>
        <time>2018-06-01T08:50:33Z</time>
      </trkpt>
      <trkpt lat="45.9582" lon="4.76692">
        <ele>189</ele>
        <time>2018-06-01T08:50:34Z</time>
      </trkpt>
      <trkpt lat="45.95821" lon="4.76701">
        <ele>189</ele>
        <time>2018-06-01T08:50:35Z</time>
      </trkpt>
      <trkpt lat="45.95822" lon="4.7671">
        <ele>189</ele>
        <time>2018-06-01T08:50:36Z</time>
      </trkpt>
      <trkpt lat="45.95822" lon="4.76718">
        <ele>189</ele>
        <time>2018-06-01T08:50:37Z</time>
      </trkpt>
      <trkpt lat="45.95823" lon="4.76724">
        <ele>190</ele>
        <time>2018-06-01T08:50:38Z</time>
      </trkpt>
      <trkpt lat="45.95825" lon="4.76733">
        <ele>190</ele>
        <time>2018-06-01T08:50:39Z</time>
      </trkpt>
      <trkpt lat="45.95826" lon="4.76745">
        <ele>190</ele>
        <time>2018-06-01T08:50:40Z</time>
      </trkpt>
      <trkpt lat="45.95827" lon="4.76753">
        <ele>191</ele>
        <time>2018-06-01T08:50:41Z</time>
      </trkpt>
      <trkpt lat="45.95829" lon="4.76762">
        <ele>190</ele>
        <time>2018-06-01T08:50:42Z</time>
      </trkpt>
      <trkpt lat="45.95831" lon="4.76771">
        <ele>190</ele>
        <time>2018-06-01T08:50:43Z</time>
      </trkpt>
      <trkpt lat="45.95833" lon="4.7678">
        <ele>190</ele>
        <time>2018-06-01T08:50:44Z</time>
      </trkpt>
      <trkpt lat="45.95835" lon="4.76789">
        <ele>191</ele>
        <time>2018-06-01T08:50:45Z</time>
      </trkpt>
      <trkpt lat="45.95836" lon="4.76798">
        <ele>191</ele>
        <time>2018-06-01T08:50:46Z</time>
      </trkpt>
      <trkpt lat="45.95837" lon="4.76807">
        <ele>191</ele>
        <time>2018-06-01T08:50:47Z</time>
      </trkpt>
      <trkpt lat="45.95836" lon="4.76817">
        <ele>190</ele>
        <time>2018-06-01T08:50:48Z</time>
      </trkpt>
      <trkpt lat="45.95836" lon="4.76827">
        <ele>190</ele>
        <time>2018-06-01T08:50:49Z</time>
      </trkpt>
      <trkpt lat="45.95834" lon="4.76833">
        <ele>190</ele>
        <time>2018-06-01T08:50:50Z</time>
      </trkpt>
      <trkpt lat="45.95832" lon="4.76843">
        <ele>190</ele>
        <time>2018-06-01T08:50:51Z</time>
      </trkpt>
      <trkpt lat="45.9583" lon="4.76852">
        <ele>190</ele>
        <time>2018-06-01T08:50:52Z</time>
      </trkpt>
      <trkpt lat="45.95831" lon="4.7686">
        <ele>189</ele>
        <time>2018-06-01T08:50:53Z</time>
      </trkpt>
      <trkpt lat="45.95829" lon="4.7687">
        <ele>189</ele>
        <time>2018-06-01T08:50:54Z</time>
      </trkpt>
      <trkpt lat="45.95826" lon="4.7688">
        <ele>189</ele>
        <time>2018-06-01T08:50:55Z</time>
      </trkpt>
      <trkpt lat="45.95824" lon="4.76891">
        <ele>189</ele>
        <time>2018-06-01T08:50:56Z</time>
      </trkpt>
      <trkpt lat="45.95822" lon="4.76902">
        <ele>189</ele>
        <time>2018-06-01T08:50:57Z</time>
      </trkpt>
      <trkpt lat="45.95821" lon="4.76911">
        <ele>190</ele>
        <time>2018-06-01T08:50:58Z</time>
      </trkpt>
      <trkpt lat="45.95819" lon="4.7692">
        <ele>190</ele>
        <time>2018-06-01T08:50:59Z</time>
      </trkpt>
      <trkpt lat="45.95816" lon="4.76929">
        <ele>189</ele>
        <time>2018-06-01T08:51:00Z</time>
      </trkpt>
      <trkpt lat="45.95815" lon="4.76938">
        <ele>189</ele>
        <time>2018-06-01T08:51:01Z</time>
      </trkpt>
      <trkpt lat="45.95813" lon="4.76946">
        <ele>189</ele>
        <time>2018-06-01T08:51:02Z</time>
      </trkpt>
      <trkpt lat="45.95812" lon="4.76955">
        <ele>189</ele>
        <time>2018-06-01T08:51:03Z</time>
      </trkpt>
      <trkpt lat="45.9581" lon="4.76964">
        <ele>189</ele>
        <time>2018-06-01T08:51:04Z</time>
      </trkpt>
      <trkpt lat="45.95808" lon="4.76973">
        <ele>189</ele>
        <time>2018-06-01T08:51:05Z</time>
      </trkpt>
      <trkpt lat="45.95807" lon="4.76981">
        <ele>189</ele>
        <time>2018-06-01T08:51:06Z</time>
      </trkpt>
      <trkpt lat="45.95806" lon="4.76991">
        <ele>190</ele>
        <time>2018-06-01T08:51:07Z</time>
      </trkpt>
      <trkpt lat="45.95806" lon="4.76996">
        <ele>190</ele>
        <time>2018-06-01T08:51:08Z</time>
      </trkpt>
      <trkpt lat="45.95807" lon="4.77007">
        <ele>190</ele>
        <time>2018-06-01T08:51:09Z</time>
      </trkpt>
      <trkpt lat="45.95809" lon="4.77016">
        <ele>190</ele>
        <time>2018-06-01T08:51:10Z</time>
      </trkpt>
      <trkpt lat="45.95811" lon="4.77025">
        <ele>190</ele>
        <time>2018-06-01T08:51:11Z</time>
      </trkpt>
      <trkpt lat="45.95814" lon="4.77033">
        <ele>190</ele>
        <time>2018-06-01T08:51:12Z</time>
      </trkpt>
      <trkpt lat="45.95816" lon="4.77041">
        <ele>190</ele>
        <time>2018-06-01T08:51:13Z</time>
      </trkpt>
      <trkpt lat="45.9582" lon="4.77049">
        <ele>190</ele>
        <time>2018-06-01T08:51:14Z</time>
      </trkpt>
      <trkpt lat="45.95823" lon="4.77057">
        <ele>190</ele>
        <time>2018-06-01T08:51:15Z</time>
      </trkpt>
      <trkpt lat="45.95826" lon="4.77064">
        <ele>191</ele>
        <time>2018-06-01T08:51:16Z</time>
      </trkpt>
      <trkpt lat="45.9583" lon="4.77072">
        <ele>191</ele>
        <time>2018-06-01T08:51:17Z</time>
      </trkpt>
      <trkpt lat="45.95834" lon="4.7708">
        <ele>192</ele>
        <time>2018-06-01T08:51:18Z</time>
      </trkpt>
      <trkpt lat="45.95837" lon="4.77088">
        <ele>192</ele>
        <time>2018-06-01T08:51:19Z</time>
      </trkpt>
      <trkpt lat="45.9584" lon="4.77095">
        <ele>193</ele>
        <time>2018-06-01T08:51:20Z</time>
      </trkpt>
      <trkpt lat="45.95843" lon="4.77104">
        <ele>193</ele>
        <time>2018-06-01T08:51:21Z</time>
      </trkpt>
      <trkpt lat="45.95844" lon="4.77108">
        <ele>193</ele>
        <time>2018-06-01T08:51:22Z</time>
      </trkpt>
      <trkpt lat="45.95846" lon="4.77116">
        <ele>193</ele>
        <time>2018-06-01T08:51:23Z</time>
      </trkpt>
      <trkpt lat="45.9585" lon="4.77128">
        <ele>193</ele>
        <time>2018-06-01T08:51:24Z</time>
      </trkpt>
      <trkpt lat="45.95851" lon="4.77138">
        <ele>193</ele>
        <time>2018-06-01T08:51:25Z</time>
      </trkpt>
      <trkpt lat="45.95852" lon="4.77144">
        <ele>193</ele>
        <time>2018-06-01T08:51:26Z</time>
      </trkpt>
      <trkpt lat="45.95854" lon="4.77149">
        <ele>193</ele>
        <time>2018-06-01T08:51:27Z</time>
      </trkpt>
      <trkpt lat="45.95857" lon="4.77156">
        <ele>193</ele>
        <time>2018-06-01T08:51:28Z</time>
      </trkpt>
      <trkpt lat="45.95858" lon="4.77164">
        <ele>192</ele>
        <time>2018-06-01T08:51:29Z</time>
      </trkpt>
      <trkpt lat="45.95861" lon="4.7717">
        <ele>192</ele>
        <time>2018-06-01T08:51:30Z</time>
      </trkpt>
      <trkpt lat="45.95863" lon="4.77177">
        <ele>192</ele>
        <time>2018-06-01T08:51:31Z</time>
      </trkpt>
      <trkpt lat="45.95864" lon="4.77183">
        <ele>192</ele>
        <time>2018-06-01T08:51:32Z</time>
      </trkpt>
      <trkpt lat="45.95866" lon="4.7719">
        <ele>193</ele>
        <time>2018-06-01T08:51:33Z</time>
      </trkpt>
      <trkpt lat="45.95868" lon="4.77201">
        <ele>193</ele>
        <time>2018-06-01T08:51:34Z</time>
      </trkpt>
      <trkpt lat="45.9587" lon="4.77209">
        <ele>193</ele>
        <time>2018-06-01T08:51:35Z</time>
      </trkpt>
      <trkpt lat="45.95872" lon="4.77218">
        <ele>193</ele>
        <time>2018-06-01T08:51:36Z</time>
      </trkpt>
      <trkpt lat="45.95874" lon="4.77225">
        <ele>193</ele>
        <time>2018-06-01T08:51:37Z</time>
      </trkpt>
      <trkpt lat="45.95875" lon="4.77233">
        <ele>193</ele>
        <time>2018-06-01T08:51:38Z</time>
      </trkpt>
      <trkpt lat="45.95876" lon="4.77242">
        <ele>193</ele>
        <time>2018-06-01T08:51:39Z</time>
      </trkpt>
      <trkpt lat="45.95878" lon="4.7725">
        <ele>193</ele>
        <time>2018-06-01T08:51:40Z</time>
      </trkpt>
      <trkpt lat="45.95879" lon="4.7726">
        <ele>193</ele>
        <time>2018-06-01T08:51:41Z</time>
      </trkpt>
      <trkpt lat="45.95881" lon="4.77268">
        <ele>193</ele>
        <time>2018-06-01T08:51:42Z</time>
      </trkpt>
      <trkpt lat="45.95884" lon="4.77277">
        <ele>193</ele>
        <time>2018-06-01T08:51:43Z</time>
      </trkpt>
      <trkpt lat="45.95886" lon="4.77283">
        <ele>193</ele>
        <time>2018-06-01T08:51:44Z</time>
      </trkpt>
      <trkpt lat="45.9589" lon="4.77293">
        <ele>193</ele>
        <time>2018-06-01T08:51:46Z</time>
      </trkpt>
      <trkpt lat="45.9589" lon="4.77299">
        <ele>193</ele>
        <time>2018-06-01T08:51:47Z</time>
      </trkpt>
      <trkpt lat="45.95893" lon="4.77304">
        <ele>193</ele>
        <time>2018-06-01T08:51:48Z</time>
      </trkpt>
      <trkpt lat="45.95895" lon="4.77311">
        <ele>193</ele>
        <time>2018-06-01T08:51:49Z</time>
      </trkpt>
      <trkpt lat="45.95898" lon="4.7732">
        <ele>193</ele>
        <time>2018-06-01T08:51:50Z</time>
      </trkpt>
      <trkpt lat="45.959" lon="4.77325">
        <ele>194</ele>
        <time>2018-06-01T08:51:51Z</time>
      </trkpt>
      <trkpt lat="45.95903" lon="4.77331">
        <ele>194</ele>
        <time>2018-06-01T08:51:52Z</time>
      </trkpt>
      <trkpt lat="45.95906" lon="4.77338">
        <ele>194</ele>
        <time>2018-06-01T08:51:53Z</time>
      </trkpt>
      <trkpt lat="45.95907" lon="4.77344">
        <ele>194</ele>
        <time>2018-06-01T08:51:54Z</time>
      </trkpt>
      <trkpt lat="45.9591" lon="4.77351">
        <ele>193</ele>
        <time>2018-06-01T08:51:55Z</time>
      </trkpt>
      <trkpt lat="45.95912" lon="4.77358">
        <ele>193</ele>
        <time>2018-06-01T08:51:56Z</time>
      </trkpt>
      <trkpt lat="45.95913" lon="4.77366">
        <ele>193</ele>
        <time>2018-06-01T08:51:57Z</time>
      </trkpt>
      <trkpt lat="45.95915" lon="4.77374">
        <ele>193</ele>
        <time>2018-06-01T08:51:58Z</time>
      </trkpt>
      <trkpt lat="45.95916" lon="4.77381">
        <ele>193</ele>
        <time>2018-06-01T08:51:59Z</time>
      </trkpt>
      <trkpt lat="45.95918" lon="4.77388">
        <ele>196</ele>
        <time>2018-06-01T08:52:00Z</time>
      </trkpt>
      <trkpt lat="45.9592" lon="4.77396">
        <ele>196</ele>
        <time>2018-06-01T08:52:01Z</time>
      </trkpt>
      <trkpt lat="45.95922" lon="4.77405">
        <ele>195</ele>
        <time>2018-06-01T08:52:02Z</time>
      </trkpt>
      <trkpt lat="45.95924" lon="4.7741">
        <ele>195</ele>
        <time>2018-06-01T08:52:03Z</time>
      </trkpt>
      <trkpt lat="45.95926" lon="4.77418">
        <ele>195</ele>
        <time>2018-06-01T08:52:04Z</time>
      </trkpt>
      <trkpt lat="45.95928" lon="4.77424">
        <ele>195</ele>
        <time>2018-06-01T08:52:05Z</time>
      </trkpt>
      <trkpt lat="45.9593" lon="4.7743">
        <ele>195</ele>
        <time>2018-06-01T08:52:06Z</time>
      </trkpt>
      <trkpt lat="45.95933" lon="4.77436">
        <ele>195</ele>
        <time>2018-06-01T08:52:07Z</time>
      </trkpt>
      <trkpt lat="45.95936" lon="4.77448">
        <ele>195</ele>
        <time>2018-06-01T08:52:09Z</time>
      </trkpt>
      <trkpt lat="45.95938" lon="4.77453">
        <ele>195</ele>
        <time>2018-06-01T08:52:10Z</time>
      </trkpt>
      <trkpt lat="45.95942" lon="4.77464">
        <ele>195</ele>
        <time>2018-06-01T08:52:12Z</time>
      </trkpt>
      <trkpt lat="45.95945" lon="4.77471">
        <ele>195</ele>
        <time>2018-06-01T08:52:13Z</time>
      </trkpt>
      <trkpt lat="45.95946" lon="4.77478">
        <ele>195</ele>
        <time>2018-06-01T08:52:14Z</time>
      </trkpt>
      <trkpt lat="45.95949" lon="4.77484">
        <ele>195</ele>
        <time>2018-06-01T08:52:15Z</time>
      </trkpt>
      <trkpt lat="45.95952" lon="4.7749">
        <ele>195</ele>
        <time>2018-06-01T08:52:16Z</time>
      </trkpt>
      <trkpt lat="45.95954" lon="4.77496">
        <ele>196</ele>
        <time>2018-06-01T08:52:17Z</time>
      </trkpt>
      <trkpt lat="45.95956" lon="4.77503">
        <ele>195</ele>
        <time>2018-06-01T08:52:18Z</time>
      </trkpt>
      <trkpt lat="45.95958" lon="4.77509">
        <ele>195</ele>
        <time>2018-06-01T08:52:19Z</time>
      </trkpt>
      <trkpt lat="45.95962" lon="4.7752">
        <ele>195</ele>
        <time>2018-06-01T08:52:21Z</time>
      </trkpt>
      <trkpt lat="45.95964" lon="4.77524">
        <ele>195</ele>
        <time>2018-06-01T08:52:22Z</time>
      </trkpt>
      <trkpt lat="45.95968" lon="4.77534">
        <ele>195</ele>
        <time>2018-06-01T08:52:24Z</time>
      </trkpt>
      <trkpt lat="45.95971" lon="4.77539">
        <ele>195</ele>
        <time>2018-06-01T08:52:25Z</time>
      </trkpt>
      <trkpt lat="45.95975" lon="4.77547">
        <ele>195</ele>
        <time>2018-06-01T08:52:27Z</time>
      </trkpt>
      <trkpt lat="45.95978" lon="4.77554">
        <ele>195</ele>
        <time>2018-06-01T08:52:28Z</time>
      </trkpt>
      <trkpt lat="45.9598" lon="4.7756">
        <ele>196</ele>
        <time>2018-06-01T08:52:29Z</time>
      </trkpt>
      <trkpt lat="45.95983" lon="4.77565">
        <ele>196</ele>
        <time>2018-06-01T08:52:30Z</time>
      </trkpt>
      <trkpt lat="45.95985" lon="4.7757">
        <ele>196</ele>
        <time>2018-06-01T08:52:31Z</time>
      </trkpt>
      <trkpt lat="45.95985" lon="4.77579">
        <ele>196</ele>
        <time>2018-06-01T08:52:32Z</time>
      </trkpt>
      <trkpt lat="45.9599" lon="4.77589">
        <ele>196</ele>
        <time>2018-06-01T08:52:37Z</time>
      </trkpt>
      <trkpt lat="45.95995" lon="4.77598">
        <ele>195</ele>
        <time>2018-06-01T08:52:38Z</time>
      </trkpt>
      <trkpt lat="45.96002" lon="4.77601">
        <ele>198</ele>
        <time>2018-06-01T08:52:42Z</time>
      </trkpt>
      <trkpt lat="45.96004" lon="4.77603">
        <ele>198</ele>
        <time>2018-06-01T08:52:43Z</time>
      </trkpt>
      <trkpt lat="45.96006" lon="4.77604">
        <ele>198</ele>
        <time>2018-06-01T08:52:44Z</time>
      </trkpt>
      <trkpt lat="45.96014" lon="4.7761">
        <ele>199</ele>
        <time>2018-06-01T08:52:45Z</time>
      </trkpt>
      <trkpt lat="45.9602" lon="4.77618">
        <ele>199</ele>
        <time>2018-06-01T08:52:47Z</time>
      </trkpt>
      <trkpt lat="45.96023" lon="4.77623">
        <ele>199</ele>
        <time>2018-06-01T08:52:48Z</time>
      </trkpt>
      <trkpt lat="45.96027" lon="4.77627">
        <ele>199</ele>
        <time>2018-06-01T08:52:49Z</time>
      </trkpt>
      <trkpt lat="45.96031" lon="4.77631">
        <ele>199</ele>
        <time>2018-06-01T08:52:50Z</time>
      </trkpt>
      <trkpt lat="45.96034" lon="4.77635">
        <ele>199</ele>
        <time>2018-06-01T08:52:51Z</time>
      </trkpt>
      <trkpt lat="45.96038" lon="4.77641">
        <ele>199</ele>
        <time>2018-06-01T08:52:52Z</time>
      </trkpt>
      <trkpt lat="45.96044" lon="4.77649">
        <ele>199</ele>
        <time>2018-06-01T08:52:54Z</time>
      </trkpt>
      <trkpt lat="45.96048" lon="4.77653">
        <ele>200</ele>
        <time>2018-06-01T08:52:55Z</time>
      </trkpt>
      <trkpt lat="45.96051" lon="4.77658">
        <ele>200</ele>
        <time>2018-06-01T08:52:56Z</time>
      </trkpt>
      <trkpt lat="45.96055" lon="4.77663">
        <ele>200</ele>
        <time>2018-06-01T08:52:57Z</time>
      </trkpt>
      <trkpt lat="45.96061" lon="4.77672">
        <ele>198</ele>
        <time>2018-06-01T08:52:59Z</time>
      </trkpt>
      <trkpt lat="45.96065" lon="4.77676">
        <ele>198</ele>
        <time>2018-06-01T08:53:00Z</time>
      </trkpt>
      <trkpt lat="45.96069" lon="4.77681">
        <ele>198</ele>
        <time>2018-06-01T08:53:01Z</time>
      </trkpt>
      <trkpt lat="45.96073" lon="4.77688">
        <ele>198</ele>
        <time>2018-06-01T08:53:02Z</time>
      </trkpt>
      <trkpt lat="45.96077" lon="4.77693">
        <ele>197</ele>
        <time>2018-06-01T08:53:03Z</time>
      </trkpt>
      <trkpt lat="45.9608" lon="4.77698">
        <ele>197</ele>
        <time>2018-06-01T08:53:04Z</time>
      </trkpt>
      <trkpt lat="45.96085" lon="4.77704">
        <ele>200</ele>
        <time>2018-06-01T08:53:05Z</time>
      </trkpt>
      <trkpt lat="45.96088" lon="4.77709">
        <ele>200</ele>
        <time>2018-06-01T08:53:06Z</time>
      </trkpt>
      <trkpt lat="45.96091" lon="4.77715">
        <ele>199</ele>
        <time>2018-06-01T08:53:07Z</time>
      </trkpt>
      <trkpt lat="45.96096" lon="4.7772">
        <ele>199</ele>
        <time>2018-06-01T08:53:08Z</time>
      </trkpt>
      <trkpt lat="45.96099" lon="4.77725">
        <ele>199</ele>
        <time>2018-06-01T08:53:09Z</time>
      </trkpt>
      <trkpt lat="45.96103" lon="4.77729">
        <ele>199</ele>
        <time>2018-06-01T08:53:10Z</time>
      </trkpt>
      <trkpt lat="45.96106" lon="4.77735">
        <ele>199</ele>
        <time>2018-06-01T08:53:11Z</time>
      </trkpt>
      <trkpt lat="45.9611" lon="4.7774">
        <ele>199</ele>
        <time>2018-06-01T08:53:12Z</time>
      </trkpt>
      <trkpt lat="45.96113" lon="4.77746">
        <ele>199</ele>
        <time>2018-06-01T08:53:13Z</time>
      </trkpt>
      <trkpt lat="45.96117" lon="4.77748">
        <ele>199</ele>
        <time>2018-06-01T08:53:14Z</time>
      </trkpt>
      <trkpt lat="45.9612" lon="4.77753">
        <ele>197</ele>
        <time>2018-06-01T08:53:15Z</time>
      </trkpt>
      <trkpt lat="45.96121" lon="4.77761">
        <ele>197</ele>
        <time>2018-06-01T08:53:16Z</time>
      </trkpt>
      <trkpt lat="45.96123" lon="4.77767">
        <ele>197</ele>
        <time>2018-06-01T08:53:17Z</time>
      </trkpt>
      <trkpt lat="45.96127" lon="4.77775">
        <ele>198</ele>
        <time>2018-06-01T08:53:18Z</time>
      </trkpt>
      <trkpt lat="45.96132" lon="4.77785">
        <ele>198</ele>
        <time>2018-06-01T08:53:20Z</time>
      </trkpt>
      <trkpt lat="45.96134" lon="4.77789">
        <ele>198</ele>
        <time>2018-06-01T08:53:21Z</time>
      </trkpt>
      <trkpt lat="45.96136" lon="4.77794">
        <ele>198</ele>
        <time>2018-06-01T08:53:22Z</time>
      </trkpt>
      <trkpt lat="45.96142" lon="4.77803">
        <ele>198</ele>
        <time>2018-06-01T08:53:23Z</time>
      </trkpt>
      <trkpt lat="45.96144" lon="4.7781">
        <ele>198</ele>
        <time>2018-06-01T08:53:24Z</time>
      </trkpt>
      <trkpt lat="45.96148" lon="4.77814">
        <ele>198</ele>
        <time>2018-06-01T08:53:25Z</time>
      </trkpt>
      <trkpt lat="45.96154" lon="4.77822">
        <ele>198</ele>
        <time>2018-06-01T08:53:27Z</time>
      </trkpt>
      <trkpt lat="45.96158" lon="4.77826">
        <ele>198</ele>
        <time>2018-06-01T08:53:28Z</time>
      </trkpt>
      <trkpt lat="45.96161" lon="4.77832">
        <ele>199</ele>
        <time>2018-06-01T08:53:29Z</time>
      </trkpt>
      <trkpt lat="45.96164" lon="4.77839">
        <ele>198</ele>
        <time>2018-06-01T08:53:30Z</time>
      </trkpt>
      <trkpt lat="45.96167" lon="4.77843">
        <ele>197</ele>
        <time>2018-06-01T08:53:31Z</time>
      </trkpt>
      <trkpt lat="45.96171" lon="4.77849">
        <ele>201</ele>
        <time>2018-06-01T08:53:32Z</time>
      </trkpt>
      <trkpt lat="45.96174" lon="4.77855">
        <ele>201</ele>
        <time>2018-06-01T08:53:33Z</time>
      </trkpt>
      <trkpt lat="45.96179" lon="4.77861">
        <ele>201</ele>
        <time>2018-06-01T08:53:34Z</time>
      </trkpt>
      <trkpt lat="45.96182" lon="4.77866">
        <ele>201</ele>
        <time>2018-06-01T08:53:35Z</time>
      </trkpt>
      <trkpt lat="45.96185" lon="4.77872">
        <ele>201</ele>
        <time>2018-06-01T08:53:36Z</time>
      </trkpt>
      <trkpt lat="45.96188" lon="4.77877">
        <ele>201</ele>
        <time>2018-06-01T08:53:37Z</time>
      </trkpt>
      <trkpt lat="45.96191" lon="4.77882">
        <ele>201</ele>
        <time>2018-06-01T08:53:38Z</time>
      </trkpt>
      <trkpt lat="45.96196" lon="4.77888">
        <ele>202</ele>
        <time>2018-06-01T08:53:39Z</time>
      </trkpt>
      <trkpt lat="45.962" lon="4.77895">
        <ele>202</ele>
        <time>2018-06-01T08:53:40Z</time>
      </trkpt>
      <trkpt lat="45.96203" lon="4.77902">
        <ele>202</ele>
        <time>2018-06-01T08:53:41Z</time>
      </trkpt>
      <trkpt lat="45.96206" lon="4.77907">
        <ele>202</ele>
        <time>2018-06-01T08:53:42Z</time>
      </trkpt>
      <trkpt lat="45.96209" lon="4.77914">
        <ele>202</ele>
        <time>2018-06-01T08:53:43Z</time>
      </trkpt>
      <trkpt lat="45.96213" lon="4.7792">
        <ele>200</ele>
        <time>2018-06-01T08:53:44Z</time>
      </trkpt>
      <trkpt lat="45.96217" lon="4.77926">
        <ele>200</ele>
        <time>2018-06-01T08:53:45Z</time>
      </trkpt>
      <trkpt lat="45.96222" lon="4.77931">
        <ele>200</ele>
        <time>2018-06-01T08:53:46Z</time>
      </trkpt>
      <trkpt lat="45.96226" lon="4.77937">
        <ele>200</ele>
        <time>2018-06-01T08:53:47Z</time>
      </trkpt>
      <trkpt lat="45.9623" lon="4.77942">
        <ele>200</ele>
        <time>2018-06-01T08:53:48Z</time>
      </trkpt>
      <trkpt lat="45.96233" lon="4.77945">
        <ele>200</ele>
        <time>2018-06-01T08:53:49Z</time>
      </trkpt>
      <trkpt lat="45.96237" lon="4.77951">
        <ele>200</ele>
        <time>2018-06-01T08:53:50Z</time>
      </trkpt>
      <trkpt lat="45.96244" lon="4.77959">
        <ele>199</ele>
        <time>2018-06-01T08:53:52Z</time>
      </trkpt>
      <trkpt lat="45.96248" lon="4.77961">
        <ele>199</ele>
        <time>2018-06-01T08:53:53Z</time>
      </trkpt>
      <trkpt lat="45.96252" lon="4.77965">
        <ele>204</ele>
        <time>2018-06-01T08:53:54Z</time>
      </trkpt>
      <trkpt lat="45.96256" lon="4.7797">
        <ele>203</ele>
        <time>2018-06-01T08:53:55Z</time>
      </trkpt>
      <trkpt lat="45.96259" lon="4.77976">
        <ele>203</ele>
        <time>2018-06-01T08:53:56Z</time>
      </trkpt>
      <trkpt lat="45.96264" lon="4.77979">
        <ele>203</ele>
        <time>2018-06-01T08:53:57Z</time>
      </trkpt>
      <trkpt lat="45.96266" lon="4.77988">
        <ele>202</ele>
        <time>2018-06-01T08:53:58Z</time>
      </trkpt>
      <trkpt lat="45.96274" lon="4.7799">
        <ele>203</ele>
        <time>2018-06-01T08:53:59Z</time>
      </trkpt>
      <trkpt lat="45.96279" lon="4.77994">
        <ele>203</ele>
        <time>2018-06-01T08:54:00Z</time>
      </trkpt>
      <trkpt lat="45.96284" lon="4.77999">
        <ele>203</ele>
        <time>2018-06-01T08:54:01Z</time>
      </trkpt>
      <trkpt lat="45.96289" lon="4.78002">
        <ele>199</ele>
        <time>2018-06-01T08:54:02Z</time>
      </trkpt>
      <trkpt lat="45.96295" lon="4.7801">
        <ele>199</ele>
        <time>2018-06-01T08:54:03Z</time>
      </trkpt>
      <trkpt lat="45.963" lon="4.78015">
        <ele>199</ele>
        <time>2018-06-01T08:54:04Z</time>
      </trkpt>
      <trkpt lat="45.96304" lon="4.78021">
        <ele>200</ele>
        <time>2018-06-01T08:54:05Z</time>
      </trkpt>
      <trkpt lat="45.96309" lon="4.78028">
        <ele>200</ele>
        <time>2018-06-01T08:54:06Z</time>
      </trkpt>
      <trkpt lat="45.96316" lon="4.78034">
        <ele>200</ele>
        <time>2018-06-01T08:54:07Z</time>
      </trkpt>
      <trkpt lat="45.9632" lon="4.78037">
        <ele>200</ele>
        <time>2018-06-01T08:54:08Z</time>
      </trkpt>
      <trkpt lat="45.96325" lon="4.78043">
        <ele>199</ele>
        <time>2018-06-01T08:54:09Z</time>
      </trkpt>
      <trkpt lat="45.96326" lon="4.78047">
        <ele>199</ele>
        <time>2018-06-01T08:54:10Z</time>
      </trkpt>
      <trkpt lat="45.96332" lon="4.78052">
        <ele>199</ele>
        <time>2018-06-01T08:54:11Z</time>
      </trkpt>
      <trkpt lat="45.96337" lon="4.78057">
        <ele>202</ele>
        <time>2018-06-01T08:54:12Z</time>
      </trkpt>
      <trkpt lat="45.96341" lon="4.78062">
        <ele>202</ele>
        <time>2018-06-01T08:54:13Z</time>
      </trkpt>
      <trkpt lat="45.96345" lon="4.78066">
        <ele>201</ele>
        <time>2018-06-01T08:54:14Z</time>
      </trkpt>
      <trkpt lat="45.9635" lon="4.78071">
        <ele>201</ele>
        <time>2018-06-01T08:54:15Z</time>
      </trkpt>
      <trkpt lat="45.96355" lon="4.78076">
        <ele>202</ele>
        <time>2018-06-01T08:54:16Z</time>
      </trkpt>
      <trkpt lat="45.9636" lon="4.78081">
        <ele>202</ele>
        <time>2018-06-01T08:54:17Z</time>
      </trkpt>
      <trkpt lat="45.96364" lon="4.78083">
        <ele>199</ele>
        <time>2018-06-01T08:54:18Z</time>
      </trkpt>
      <trkpt lat="45.96368" lon="4.78088">
        <ele>199</ele>
        <time>2018-06-01T08:54:19Z</time>
      </trkpt>
      <trkpt lat="45.96375" lon="4.78095">
        <ele>200</ele>
        <time>2018-06-01T08:54:21Z</time>
      </trkpt>
      <trkpt lat="45.96378" lon="4.78099">
        <ele>200</ele>
        <time>2018-06-01T08:54:22Z</time>
      </trkpt>
      <trkpt lat="45.96383" lon="4.78103">
        <ele>200</ele>
        <time>2018-06-01T08:54:23Z</time>
      </trkpt>
      <trkpt lat="45.96387" lon="4.78108">
        <ele>200</ele>
        <time>2018-06-01T08:54:24Z</time>
      </trkpt>
      <trkpt lat="45.9639" lon="4.78113">
        <ele>200</ele>
        <time>2018-06-01T08:54:25Z</time>
      </trkpt>
      <trkpt lat="45.96395" lon="4.78118">
        <ele>200</ele>
        <time>2018-06-01T08:54:26Z</time>
      </trkpt>
      <trkpt lat="45.96398" lon="4.78123">
        <ele>200</ele>
        <time>2018-06-01T08:54:27Z</time>
      </trkpt>
      <trkpt lat="45.96401" lon="4.78128">
        <ele>199</ele>
        <time>2018-06-01T08:54:28Z</time>
      </trkpt>
      <trkpt lat="45.96407" lon="4.78134">
        <ele>199</ele>
        <time>2018-06-01T08:54:29Z</time>
      </trkpt>
      <trkpt lat="45.96413" lon="4.78139">
        <ele>199</ele>
        <time>2018-06-01T08:54:30Z</time>
      </trkpt>
      <trkpt lat="45.96418" lon="4.78143">
        <ele>202</ele>
        <time>2018-06-01T08:54:31Z</time>
      </trkpt>
      <trkpt lat="45.96422" lon="4.78149">
        <ele>202</ele>
        <time>2018-06-01T08:54:32Z</time>
      </trkpt>
      <trkpt lat="45.96427" lon="4.78153">
        <ele>202</ele>
        <time>2018-06-01T08:54:33Z</time>
      </trkpt>
      <trkpt lat="45.96432" lon="4.78158">
        <ele>202</ele>
        <time>2018-06-01T08:54:34Z</time>
      </trkpt>
      <trkpt lat="45.96437" lon="4.78164">
        <ele>202</ele>
        <time>2018-06-01T08:54:35Z</time>
      </trkpt>
      <trkpt lat="45.96442" lon="4.78166">
        <ele>203</ele>
        <time>2018-06-01T08:54:36Z</time>
      </trkpt>
      <trkpt lat="45.96447" lon="4.78168">
        <ele>199</ele>
        <time>2018-06-01T08:54:37Z</time>
      </trkpt>
      <trkpt lat="45.96452" lon="4.78173">
        <ele>200</ele>
        <time>2018-06-01T08:54:38Z</time>
      </trkpt>
      <trkpt lat="45.96457" lon="4.78178">
        <ele>200</ele>
        <time>2018-06-01T08:54:39Z</time>
      </trkpt>
      <trkpt lat="45.96461" lon="4.78183">
        <ele>200</ele>
        <time>2018-06-01T08:54:40Z</time>
      </trkpt>
      <trkpt lat="45.96466" lon="4.78187">
        <ele>200</ele>
        <time>2018-06-01T08:54:41Z</time>
      </trkpt>
      <trkpt lat="45.96471" lon="4.78189">
        <ele>200</ele>
        <time>2018-06-01T08:54:42Z</time>
      </trkpt>
      <trkpt lat="45.96476" lon="4.78192">
        <ele>200</ele>
        <time>2018-06-01T08:54:43Z</time>
      </trkpt>
      <trkpt lat="45.96481" lon="4.78194">
        <ele>200</ele>
        <time>2018-06-01T08:54:44Z</time>
      </trkpt>
      <trkpt lat="45.96486" lon="4.78196">
        <ele>200</ele>
        <time>2018-06-01T08:54:45Z</time>
      </trkpt>
      <trkpt lat="45.9649" lon="4.782">
        <ele>200</ele>
        <time>2018-06-01T08:54:46Z</time>
      </trkpt>
      <trkpt lat="45.96496" lon="4.78204">
        <ele>200</ele>
        <time>2018-06-01T08:54:47Z</time>
      </trkpt>
      <trkpt lat="45.96502" lon="4.7821">
        <ele>205</ele>
        <time>2018-06-01T08:54:48Z</time>
      </trkpt>
      <trkpt lat="45.96506" lon="4.78216">
        <ele>204</ele>
        <time>2018-06-01T08:54:49Z</time>
      </trkpt>
      <trkpt lat="45.9651" lon="4.78221">
        <ele>204</ele>
        <time>2018-06-01T08:54:50Z</time>
      </trkpt>
      <trkpt lat="45.96513" lon="4.78228">
        <ele>204</ele>
        <time>2018-06-01T08:54:51Z</time>
      </trkpt>
      <trkpt lat="45.96517" lon="4.78235">
        <ele>203</ele>
        <time>2018-06-01T08:54:52Z</time>
      </trkpt>
      <trkpt lat="45.96521" lon="4.78241">
        <ele>203</ele>
        <time>2018-06-01T08:54:53Z</time>
      </trkpt>
      <trkpt lat="45.96523" lon="4.78247">
        <ele>203</ele>
        <time>2018-06-01T08:54:54Z</time>
      </trkpt>
      <trkpt lat="45.96526" lon="4.78253">
        <ele>200</ele>
        <time>2018-06-01T08:54:55Z</time>
      </trkpt>
      <trkpt lat="45.96529" lon="4.78259">
        <ele>200</ele>
        <time>2018-06-01T08:54:56Z</time>
      </trkpt>
      <trkpt lat="45.96533" lon="4.78264">
        <ele>200</ele>
        <time>2018-06-01T08:54:57Z</time>
      </trkpt>
      <trkpt lat="45.96538" lon="4.78268">
        <ele>200</ele>
        <time>2018-06-01T08:54:58Z</time>
      </trkpt>
      <trkpt lat="45.96541" lon="4.78274">
        <ele>200</ele>
        <time>2018-06-01T08:54:59Z</time>
      </trkpt>
      <trkpt lat="45.96545" lon="4.7828">
        <ele>200</ele>
        <time>2018-06-01T08:55:00Z</time>
      </trkpt>
      <trkpt lat="45.96549" lon="4.78285">
        <ele>200</ele>
        <time>2018-06-01T08:55:01Z</time>
      </trkpt>
      <trkpt lat="45.96552" lon="4.7829">
        <ele>200</ele>
        <time>2018-06-01T08:55:02Z</time>
      </trkpt>
      <trkpt lat="45.96557" lon="4.78295">
        <ele>200</ele>
        <time>2018-06-01T08:55:03Z</time>
      </trkpt>
      <trkpt lat="45.96561" lon="4.783">
        <ele>200</ele>
        <time>2018-06-01T08:55:04Z</time>
      </trkpt>
      <trkpt lat="45.96565" lon="4.78305">
        <ele>200</ele>
        <time>2018-06-01T08:55:05Z</time>
      </trkpt>
      <trkpt lat="45.9657" lon="4.7831">
        <ele>199</ele>
        <time>2018-06-01T08:55:06Z</time>
      </trkpt>
      <trkpt lat="45.96573" lon="4.78314">
        <ele>199</ele>
        <time>2018-06-01T08:55:07Z</time>
      </trkpt>
      <trkpt lat="45.96578" lon="4.78318">
        <ele>199</ele>
        <time>2018-06-01T08:55:08Z</time>
      </trkpt>
      <trkpt lat="45.96582" lon="4.78321">
        <ele>199</ele>
        <time>2018-06-01T08:55:09Z</time>
      </trkpt>
      <trkpt lat="45.96588" lon="4.78326">
        <ele>201</ele>
        <time>2018-06-01T08:55:10Z</time>
      </trkpt>
      <trkpt lat="45.96592" lon="4.7833">
        <ele>201</ele>
        <time>2018-06-01T08:55:11Z</time>
      </trkpt>
      <trkpt lat="45.96594" lon="4.78335">
        <ele>199</ele>
        <time>2018-06-01T08:55:12Z</time>
      </trkpt>
      <trkpt lat="45.96599" lon="4.78339">
        <ele>199</ele>
        <time>2018-06-01T08:55:13Z</time>
      </trkpt>
      <trkpt lat="45.96602" lon="4.78343">
        <ele>200</ele>
        <time>2018-06-01T08:55:14Z</time>
      </trkpt>
      <trkpt lat="45.96608" lon="4.78347">
        <ele>200</ele>
        <time>2018-06-01T08:55:15Z</time>
      </trkpt>
      <trkpt lat="45.96612" lon="4.78351">
        <ele>200</ele>
        <time>2018-06-01T08:55:16Z</time>
      </trkpt>
      <trkpt lat="45.96616" lon="4.78355">
        <ele>201</ele>
        <time>2018-06-01T08:55:17Z</time>
      </trkpt>
      <trkpt lat="45.9662" lon="4.78358">
        <ele>201</ele>
        <time>2018-06-01T08:55:18Z</time>
      </trkpt>
      <trkpt lat="45.96629" lon="4.78362">
        <ele>201</ele>
        <time>2018-06-01T08:55:20Z</time>
      </trkpt>
      <trkpt lat="45.96632" lon="4.78366">
        <ele>201</ele>
        <time>2018-06-01T08:55:21Z</time>
      </trkpt>
      <trkpt lat="45.96637" lon="4.78369">
        <ele>201</ele>
        <time>2018-06-01T08:55:22Z</time>
      </trkpt>
      <trkpt lat="45.96642" lon="4.78373">
        <ele>201</ele>
        <time>2018-06-01T08:55:23Z</time>
      </trkpt>
      <trkpt lat="45.96646" lon="4.78377">
        <ele>201</ele>
        <time>2018-06-01T08:55:24Z</time>
      </trkpt>
      <trkpt lat="45.96651" lon="4.78381">
        <ele>201</ele>
        <time>2018-06-01T08:55:25Z</time>
      </trkpt>
      <trkpt lat="45.96654" lon="4.78382">
        <ele>201</ele>
        <time>2018-06-01T08:55:26Z</time>
      </trkpt>
      <trkpt lat="45.96659" lon="4.78387">
        <ele>201</ele>
        <time>2018-06-01T08:55:27Z</time>
      </trkpt>
      <trkpt lat="45.96664" lon="4.78391">
        <ele>201</ele>
        <time>2018-06-01T08:55:28Z</time>
      </trkpt>
      <trkpt lat="45.96669" lon="4.78394">
        <ele>204</ele>
        <time>2018-06-01T08:55:29Z</time>
      </trkpt>
      <trkpt lat="45.96676" lon="4.78401">
        <ele>204</ele>
        <time>2018-06-01T08:55:31Z</time>
      </trkpt>
      <trkpt lat="45.9668" lon="4.78404">
        <ele>204</ele>
        <time>2018-06-01T08:55:32Z</time>
      </trkpt>
      <trkpt lat="45.96686" lon="4.78412">
        <ele>204</ele>
        <time>2018-06-01T08:55:34Z</time>
      </trkpt>
      <trkpt lat="45.96691" lon="4.78418">
        <ele>202</ele>
        <time>2018-06-01T08:55:35Z</time>
      </trkpt>
      <trkpt lat="45.96694" lon="4.78423">
        <ele>202</ele>
        <time>2018-06-01T08:55:36Z</time>
      </trkpt>
      <trkpt lat="45.96698" lon="4.78427">
        <ele>203</ele>
        <time>2018-06-01T08:55:37Z</time>
      </trkpt>
      <trkpt lat="45.96702" lon="4.78433">
        <ele>203</ele>
        <time>2018-06-01T08:55:38Z</time>
      </trkpt>
      <trkpt lat="45.96705" lon="4.78436">
        <ele>203</ele>
        <time>2018-06-01T08:55:39Z</time>
      </trkpt>
      <trkpt lat="45.9671" lon="4.78442">
        <ele>203</ele>
        <time>2018-06-01T08:55:40Z</time>
      </trkpt>
      <trkpt lat="45.96714" lon="4.78445">
        <ele>203</ele>
        <time>2018-06-01T08:55:41Z</time>
      </trkpt>
      <trkpt lat="45.96719" lon="4.7845">
        <ele>203</ele>
        <time>2018-06-01T08:55:42Z</time>
      </trkpt>
      <trkpt lat="45.96724" lon="4.78454">
        <ele>203</ele>
        <time>2018-06-01T08:55:43Z</time>
      </trkpt>
      <trkpt lat="45.96729" lon="4.7846">
        <ele>203</ele>
        <time>2018-06-01T08:55:44Z</time>
      </trkpt>
      <trkpt lat="45.96734" lon="4.78464">
        <ele>203</ele>
        <time>2018-06-01T08:55:45Z</time>
      </trkpt>
      <trkpt lat="45.96739" lon="4.7847">
        <ele>203</ele>
        <time>2018-06-01T08:55:46Z</time>
      </trkpt>
      <trkpt lat="45.96743" lon="4.78474">
        <ele>203</ele>
        <time>2018-06-01T08:55:47Z</time>
      </trkpt>
      <trkpt lat="45.96747" lon="4.78479">
        <ele>203</ele>
        <time>2018-06-01T08:55:48Z</time>
      </trkpt>
      <trkpt lat="45.96752" lon="4.78485">
        <ele>205</ele>
        <time>2018-06-01T08:55:49Z</time>
      </trkpt>
      <trkpt lat="45.96757" lon="4.7849">
        <ele>204</ele>
        <time>2018-06-01T08:55:50Z</time>
      </trkpt>
      <trkpt lat="45.96762" lon="4.78495">
        <ele>204</ele>
        <time>2018-06-01T08:55:51Z</time>
      </trkpt>
      <trkpt lat="45.96766" lon="4.78502">
        <ele>203</ele>
        <time>2018-06-01T08:55:52Z</time>
      </trkpt>
      <trkpt lat="45.96772" lon="4.7851">
        <ele>203</ele>
        <time>2018-06-01T08:55:53Z</time>
      </trkpt>
      <trkpt lat="45.96776" lon="4.78516">
        <ele>203</ele>
        <time>2018-06-01T08:55:54Z</time>
      </trkpt>
      <trkpt lat="45.9678" lon="4.78523">
        <ele>203</ele>
        <time>2018-06-01T08:55:55Z</time>
      </trkpt>
      <trkpt lat="45.96784" lon="4.78528">
        <ele>203</ele>
        <time>2018-06-01T08:55:56Z</time>
      </trkpt>
      <trkpt lat="45.96788" lon="4.78534">
        <ele>203</ele>
        <time>2018-06-01T08:55:57Z</time>
      </trkpt>
      <trkpt lat="45.9679" lon="4.78542">
        <ele>203</ele>
        <time>2018-06-01T08:55:58Z</time>
      </trkpt>
      <trkpt lat="45.96794" lon="4.78546">
        <ele>203</ele>
        <time>2018-06-01T08:55:59Z</time>
      </trkpt>
      <trkpt lat="45.96799" lon="4.78555">
        <ele>203</ele>
        <time>2018-06-01T08:56:01Z</time>
      </trkpt>
      <trkpt lat="45.96803" lon="4.78559">
        <ele>203</ele>
        <time>2018-06-01T08:56:02Z</time>
      </trkpt>
      <trkpt lat="45.96807" lon="4.78564">
        <ele>203</ele>
        <time>2018-06-01T08:56:03Z</time>
      </trkpt>
      <trkpt lat="45.96811" lon="4.78568">
        <ele>203</ele>
        <time>2018-06-01T08:56:04Z</time>
      </trkpt>
      <trkpt lat="45.96814" lon="4.78573">
        <ele>203</ele>
        <time>2018-06-01T08:56:05Z</time>
      </trkpt>
      <trkpt lat="45.96817" lon="4.78579">
        <ele>203</ele>
        <time>2018-06-01T08:56:06Z</time>
      </trkpt>
      <trkpt lat="45.96823" lon="4.78589">
        <ele>202</ele>
        <time>2018-06-01T08:56:08Z</time>
      </trkpt>
      <trkpt lat="45.96825" lon="4.78595">
        <ele>202</ele>
        <time>2018-06-01T08:56:09Z</time>
      </trkpt>
      <trkpt lat="45.96828" lon="4.78603">
        <ele>202</ele>
        <time>2018-06-01T08:56:10Z</time>
      </trkpt>
      <trkpt lat="45.96831" lon="4.78612">
        <ele>202</ele>
        <time>2018-06-01T08:56:11Z</time>
      </trkpt>
      <trkpt lat="45.96833" lon="4.78619">
        <ele>203</ele>
        <time>2018-06-01T08:56:12Z</time>
      </trkpt>
      <trkpt lat="45.96835" lon="4.78627">
        <ele>203</ele>
        <time>2018-06-01T08:56:13Z</time>
      </trkpt>
      <trkpt lat="45.96838" lon="4.78634">
        <ele>203</ele>
        <time>2018-06-01T08:56:14Z</time>
      </trkpt>
      <trkpt lat="45.96841" lon="4.78641">
        <ele>203</ele>
        <time>2018-06-01T08:56:15Z</time>
      </trkpt>
      <trkpt lat="45.96845" lon="4.78648">
        <ele>203</ele>
        <time>2018-06-01T08:56:16Z</time>
      </trkpt>
      <trkpt lat="45.96848" lon="4.78653">
        <ele>203</ele>
        <time>2018-06-01T08:56:17Z</time>
      </trkpt>
      <trkpt lat="45.9685" lon="4.7866">
        <ele>203</ele>
        <time>2018-06-01T08:56:18Z</time>
      </trkpt>
      <trkpt lat="45.96852" lon="4.78666">
        <ele>203</ele>
        <time>2018-06-01T08:56:19Z</time>
      </trkpt>
      <trkpt lat="45.96856" lon="4.78673">
        <ele>202</ele>
        <time>2018-06-01T08:56:20Z</time>
      </trkpt>
      <trkpt lat="45.96859" lon="4.7868">
        <ele>202</ele>
        <time>2018-06-01T08:56:21Z</time>
      </trkpt>
      <trkpt lat="45.96862" lon="4.78686">
        <ele>202</ele>
        <time>2018-06-01T08:56:22Z</time>
      </trkpt>
      <trkpt lat="45.96864" lon="4.78693">
        <ele>202</ele>
        <time>2018-06-01T08:56:23Z</time>
      </trkpt>
      <trkpt lat="45.96868" lon="4.78697">
        <ele>202</ele>
        <time>2018-06-01T08:56:24Z</time>
      </trkpt>
      <trkpt lat="45.96871" lon="4.78703">
        <ele>202</ele>
        <time>2018-06-01T08:56:25Z</time>
      </trkpt>
      <trkpt lat="45.96874" lon="4.78711">
        <ele>202</ele>
        <time>2018-06-01T08:56:26Z</time>
      </trkpt>
      <trkpt lat="45.96879" lon="4.78718">
        <ele>202</ele>
        <time>2018-06-01T08:56:27Z</time>
      </trkpt>
      <trkpt lat="45.96881" lon="4.78723">
        <ele>202</ele>
        <time>2018-06-01T08:56:28Z</time>
      </trkpt>
      <trkpt lat="45.96885" lon="4.7873">
        <ele>202</ele>
        <time>2018-06-01T08:56:29Z</time>
      </trkpt>
      <trkpt lat="45.96888" lon="4.78738">
        <ele>202</ele>
        <time>2018-06-01T08:56:30Z</time>
      </trkpt>
      <trkpt lat="45.9689" lon="4.78743">
        <ele>202</ele>
        <time>2018-06-01T08:56:31Z</time>
      </trkpt>
      <trkpt lat="45.96892" lon="4.78749">
        <ele>202</ele>
        <time>2018-06-01T08:56:32Z</time>
      </trkpt>
      <trkpt lat="45.96894" lon="4.78757">
        <ele>201</ele>
        <time>2018-06-01T08:56:33Z</time>
      </trkpt>
      <trkpt lat="45.96896" lon="4.78764">
        <ele>201</ele>
        <time>2018-06-01T08:56:34Z</time>
      </trkpt>
      <trkpt lat="45.969" lon="4.78769">
        <ele>201</ele>
        <time>2018-06-01T08:56:35Z</time>
      </trkpt>
      <trkpt lat="45.96904" lon="4.78775">
        <ele>201</ele>
        <time>2018-06-01T08:56:36Z</time>
      </trkpt>
      <trkpt lat="45.96906" lon="4.78781">
        <ele>201</ele>
        <time>2018-06-01T08:56:37Z</time>
      </trkpt>
      <trkpt lat="45.96908" lon="4.78787">
        <ele>201</ele>
        <time>2018-06-01T08:56:38Z</time>
      </trkpt>
      <trkpt lat="45.96912" lon="4.78791">
        <ele>201</ele>
        <time>2018-06-01T08:56:39Z</time>
      </trkpt>
      <trkpt lat="45.96916" lon="4.78797">
        <ele>201</ele>
        <time>2018-06-01T08:56:40Z</time>
      </trkpt>
      <trkpt lat="45.9692" lon="4.78803">
        <ele>203</ele>
        <time>2018-06-01T08:56:41Z</time>
      </trkpt>
      <trkpt lat="45.96924" lon="4.78807">
        <ele>203</ele>
        <time>2018-06-01T08:56:42Z</time>
      </trkpt>
      <trkpt lat="45.96928" lon="4.78813">
        <ele>202</ele>
        <time>2018-06-01T08:56:43Z</time>
      </trkpt>
      <trkpt lat="45.96932" lon="4.78819">
        <ele>202</ele>
        <time>2018-06-01T08:56:44Z</time>
      </trkpt>
      <trkpt lat="45.96936" lon="4.78824">
        <ele>202</ele>
        <time>2018-06-01T08:56:45Z</time>
      </trkpt>
      <trkpt lat="45.96939" lon="4.78829">
        <ele>202</ele>
        <time>2018-06-01T08:56:46Z</time>
      </trkpt>
      <trkpt lat="45.96942" lon="4.78836">
        <ele>202</ele>
        <time>2018-06-01T08:56:47Z</time>
      </trkpt>
      <trkpt lat="45.96946" lon="4.7884">
        <ele>202</ele>
        <time>2018-06-01T08:56:48Z</time>
      </trkpt>
      <trkpt lat="45.96951" lon="4.78845">
        <ele>202</ele>
        <time>2018-06-01T08:56:49Z</time>
      </trkpt>
      <trkpt lat="45.96955" lon="4.7885">
        <ele>203</ele>
        <time>2018-06-01T08:56:50Z</time>
      </trkpt>
      <trkpt lat="45.9696" lon="4.78855">
        <ele>203</ele>
        <time>2018-06-01T08:56:51Z</time>
      </trkpt>
      <trkpt lat="45.96964" lon="4.7886">
        <ele>203</ele>
        <time>2018-06-01T08:56:52Z</time>
      </trkpt>
      <trkpt lat="45.96968" lon="4.78866">
        <ele>203</ele>
        <time>2018-06-01T08:56:53Z</time>
      </trkpt>
      <trkpt lat="45.96972" lon="4.78871">
        <ele>203</ele>
        <time>2018-06-01T08:56:54Z</time>
      </trkpt>
      <trkpt lat="45.96976" lon="4.78874">
        <ele>203</ele>
        <time>2018-06-01T08:56:55Z</time>
      </trkpt>
      <trkpt lat="45.9698" lon="4.78878">
        <ele>203</ele>
        <time>2018-06-01T08:56:56Z</time>
      </trkpt>
      <trkpt lat="45.96984" lon="4.78884">
        <ele>203</ele>
        <time>2018-06-01T08:56:57Z</time>
      </trkpt>
      <trkpt lat="45.96987" lon="4.78889">
        <ele>203</ele>
        <time>2018-06-01T08:56:58Z</time>
      </trkpt>
      <trkpt lat="45.96991" lon="4.78893">
        <ele>203</ele>
        <time>2018-06-01T08:56:59Z</time>
      </trkpt>
      <trkpt lat="45.96995" lon="4.78897">
        <ele>203</ele>
        <time>2018-06-01T08:57:00Z</time>
      </trkpt>
      <trkpt lat="45.96999" lon="4.78902">
        <ele>204</ele>
        <time>2018-06-01T08:57:01Z</time>
      </trkpt>
      <trkpt lat="45.97002" lon="4.78908">
        <ele>205</ele>
        <time>2018-06-01T08:57:02Z</time>
      </trkpt>
      <trkpt lat="45.97005" lon="4.78912">
        <ele>205</ele>
        <time>2018-06-01T08:57:03Z</time>
      </trkpt>
      <trkpt lat="45.9701" lon="4.78918">
        <ele>204</ele>
        <time>2018-06-01T08:57:04Z</time>
      </trkpt>
      <trkpt lat="45.97015" lon="4.78924">
        <ele>205</ele>
        <time>2018-06-01T08:57:05Z</time>
      </trkpt>
      <trkpt lat="45.97019" lon="4.7893">
        <ele>205</ele>
        <time>2018-06-01T08:57:06Z</time>
      </trkpt>
      <trkpt lat="45.97021" lon="4.78935">
        <ele>205</ele>
        <time>2018-06-01T08:57:07Z</time>
      </trkpt>
      <trkpt lat="45.97025" lon="4.78941">
        <ele>205</ele>
        <time>2018-06-01T08:57:08Z</time>
      </trkpt>
      <trkpt lat="45.97029" lon="4.78946">
        <ele>205</ele>
        <time>2018-06-01T08:57:09Z</time>
      </trkpt>
      <trkpt lat="45.97031" lon="4.78952">
        <ele>205</ele>
        <time>2018-06-01T08:57:10Z</time>
      </trkpt>
      <trkpt lat="45.97035" lon="4.78957">
        <ele>205</ele>
        <time>2018-06-01T08:57:11Z</time>
      </trkpt>
      <trkpt lat="45.97038" lon="4.78963">
        <ele>205</ele>
        <time>2018-06-01T08:57:12Z</time>
      </trkpt>
      <trkpt lat="45.97042" lon="4.78966">
        <ele>205</ele>
        <time>2018-06-01T08:57:13Z</time>
      </trkpt>
      <trkpt lat="45.97046" lon="4.78977">
        <ele>205</ele>
        <time>2018-06-01T08:57:15Z</time>
      </trkpt>
      <trkpt lat="45.97048" lon="4.78983">
        <ele>205</ele>
        <time>2018-06-01T08:57:16Z</time>
      </trkpt>
      <trkpt lat="45.97052" lon="4.78994">
        <ele>205</ele>
        <time>2018-06-01T08:57:18Z</time>
      </trkpt>
      <trkpt lat="45.97053" lon="4.79">
        <ele>205</ele>
        <time>2018-06-01T08:57:19Z</time>
      </trkpt>
      <trkpt lat="45.97055" lon="4.79007">
        <ele>203</ele>
        <time>2018-06-01T08:57:20Z</time>
      </trkpt>
      <trkpt lat="45.97057" lon="4.79013">
        <ele>203</ele>
        <time>2018-06-01T08:57:21Z</time>
      </trkpt>
      <trkpt lat="45.9706" lon="4.79023">
        <ele>203</ele>
        <time>2018-06-01T08:57:22Z</time>
      </trkpt>
      <trkpt lat="45.97062" lon="4.7903">
        <ele>203</ele>
        <time>2018-06-01T08:57:23Z</time>
      </trkpt>
      <trkpt lat="45.97065" lon="4.79037">
        <ele>203</ele>
        <time>2018-06-01T08:57:24Z</time>
      </trkpt>
      <trkpt lat="45.97067" lon="4.79045">
        <ele>203</ele>
        <time>2018-06-01T08:57:25Z</time>
      </trkpt>
      <trkpt lat="45.97068" lon="4.79055">
        <ele>203</ele>
        <time>2018-06-01T08:57:26Z</time>
      </trkpt>
      <trkpt lat="45.9707" lon="4.79063">
        <ele>203</ele>
        <time>2018-06-01T08:57:27Z</time>
      </trkpt>
      <trkpt lat="45.97072" lon="4.79069">
        <ele>204</ele>
        <time>2018-06-01T08:57:28Z</time>
      </trkpt>
      <trkpt lat="45.97074" lon="4.79077">
        <ele>204</ele>
        <time>2018-06-01T08:57:29Z</time>
      </trkpt>
      <trkpt lat="45.97076" lon="4.79088">
        <ele>204</ele>
        <time>2018-06-01T08:57:30Z</time>
      </trkpt>
      <trkpt lat="45.97079" lon="4.79095">
        <ele>204</ele>
        <time>2018-06-01T08:57:31Z</time>
      </trkpt>
      <trkpt lat="45.97081" lon="4.79103">
        <ele>204</ele>
        <time>2018-06-01T08:57:32Z</time>
      </trkpt>
      <trkpt lat="45.97084" lon="4.79112">
        <ele>206</ele>
        <time>2018-06-01T08:57:33Z</time>
      </trkpt>
      <trkpt lat="45.97088" lon="4.79121">
        <ele>206</ele>
        <time>2018-06-01T08:57:34Z</time>
      </trkpt>
      <trkpt lat="45.97091" lon="4.79125">
        <ele>206</ele>
        <time>2018-06-01T08:57:35Z</time>
      </trkpt>
      <trkpt lat="45.97095" lon="4.7913">
        <ele>206</ele>
        <time>2018-06-01T08:57:36Z</time>
      </trkpt>
      <trkpt lat="45.97098" lon="4.79136">
        <ele>206</ele>
        <time>2018-06-01T08:57:37Z</time>
      </trkpt>
      <trkpt lat="45.97102" lon="4.79144">
        <ele>206</ele>
        <time>2018-06-01T08:57:38Z</time>
      </trkpt>
      <trkpt lat="45.97105" lon="4.7915">
        <ele>206</ele>
        <time>2018-06-01T08:57:39Z</time>
      </trkpt>
      <trkpt lat="45.97109" lon="4.79156">
        <ele>206</ele>
        <time>2018-06-01T08:57:40Z</time>
      </trkpt>
      <trkpt lat="45.97112" lon="4.79162">
        <ele>206</ele>
        <time>2018-06-01T08:57:41Z</time>
      </trkpt>
      <trkpt lat="45.97114" lon="4.79169">
        <ele>206</ele>
        <time>2018-06-01T08:57:42Z</time>
      </trkpt>
      <trkpt lat="45.97118" lon="4.79175">
        <ele>206</ele>
        <time>2018-06-01T08:57:43Z</time>
      </trkpt>
      <trkpt lat="45.9712" lon="4.79182">
        <ele>206</ele>
        <time>2018-06-01T08:57:44Z</time>
      </trkpt>
      <trkpt lat="45.97126" lon="4.79188">
        <ele>206</ele>
        <time>2018-06-01T08:57:45Z</time>
      </trkpt>
      <trkpt lat="45.97129" lon="4.79196">
        <ele>206</ele>
        <time>2018-06-01T08:57:46Z</time>
      </trkpt>
      <trkpt lat="45.97132" lon="4.79202">
        <ele>206</ele>
        <time>2018-06-01T08:57:47Z</time>
      </trkpt>
      <trkpt lat="45.97135" lon="4.79209">
        <ele>206</ele>
        <time>2018-06-01T08:57:48Z</time>
      </trkpt>
      <trkpt lat="45.97139" lon="4.79216">
        <ele>206</ele>
        <time>2018-06-01T08:57:49Z</time>
      </trkpt>
      <trkpt lat="45.97142" lon="4.79222">
        <ele>206</ele>
        <time>2018-06-01T08:57:50Z</time>
      </trkpt>
      <trkpt lat="45.97145" lon="4.7923">
        <ele>205</ele>
        <time>2018-06-01T08:57:51Z</time>
      </trkpt>
      <trkpt lat="45.97148" lon="4.79235">
        <ele>205</ele>
        <time>2018-06-01T08:57:52Z</time>
      </trkpt>
      <trkpt lat="45.97151" lon="4.79242">
        <ele>205</ele>
        <time>2018-06-01T08:57:53Z</time>
      </trkpt>
      <trkpt lat="45.97154" lon="4.79249">
        <ele>205</ele>
        <time>2018-06-01T08:57:54Z</time>
      </trkpt>
      <trkpt lat="45.97157" lon="4.79256">
        <ele>205</ele>
        <time>2018-06-01T08:57:55Z</time>
      </trkpt>
      <trkpt lat="45.9716" lon="4.79263">
        <ele>205</ele>
        <time>2018-06-01T08:57:56Z</time>
      </trkpt>
      <trkpt lat="45.97162" lon="4.7927">
        <ele>204</ele>
        <time>2018-06-01T08:57:57Z</time>
      </trkpt>
      <trkpt lat="45.97164" lon="4.79278">
        <ele>204</ele>
        <time>2018-06-01T08:57:58Z</time>
      </trkpt>
      <trkpt lat="45.97167" lon="4.79285">
        <ele>207</ele>
        <time>2018-06-01T08:57:59Z</time>
      </trkpt>
      <trkpt lat="45.97169" lon="4.79293">
        <ele>207</ele>
        <time>2018-06-01T08:58:00Z</time>
      </trkpt>
      <trkpt lat="45.97172" lon="4.79301">
        <ele>207</ele>
        <time>2018-06-01T08:58:01Z</time>
      </trkpt>
      <trkpt lat="45.97175" lon="4.79309">
        <ele>207</ele>
        <time>2018-06-01T08:58:02Z</time>
      </trkpt>
      <trkpt lat="45.97178" lon="4.79316">
        <ele>207</ele>
        <time>2018-06-01T08:58:03Z</time>
      </trkpt>
      <trkpt lat="45.9718" lon="4.79323">
        <ele>207</ele>
        <time>2018-06-01T08:58:04Z</time>
      </trkpt>
      <trkpt lat="45.97183" lon="4.79331">
        <ele>207</ele>
        <time>2018-06-01T08:58:05Z</time>
      </trkpt>
      <trkpt lat="45.97186" lon="4.79336">
        <ele>207</ele>
        <time>2018-06-01T08:58:06Z</time>
      </trkpt>
      <trkpt lat="45.97189" lon="4.79343">
        <ele>207</ele>
        <time>2018-06-01T08:58:07Z</time>
      </trkpt>
      <trkpt lat="45.97193" lon="4.79348">
        <ele>207</ele>
        <time>2018-06-01T08:58:08Z</time>
      </trkpt>
      <trkpt lat="45.97196" lon="4.79355">
        <ele>207</ele>
        <time>2018-06-01T08:58:09Z</time>
      </trkpt>
      <trkpt lat="45.97198" lon="4.79363">
        <ele>207</ele>
        <time>2018-06-01T08:58:10Z</time>
      </trkpt>
      <trkpt lat="45.972" lon="4.79372">
        <ele>207</ele>
        <time>2018-06-01T08:58:11Z</time>
      </trkpt>
      <trkpt lat="45.97203" lon="4.79378">
        <ele>208</ele>
        <time>2018-06-01T08:58:12Z</time>
      </trkpt>
      <trkpt lat="45.97207" lon="4.79388">
        <ele>208</ele>
        <time>2018-06-01T08:58:13Z</time>
      </trkpt>
      <trkpt lat="45.9721" lon="4.79394">
        <ele>208</ele>
        <time>2018-06-01T08:58:14Z</time>
      </trkpt>
      <trkpt lat="45.97212" lon="4.794">
        <ele>208</ele>
        <time>2018-06-01T08:58:15Z</time>
      </trkpt>
      <trkpt lat="45.97215" lon="4.79405">
        <ele>208</ele>
        <time>2018-06-01T08:58:16Z</time>
      </trkpt>
      <trkpt lat="45.97218" lon="4.79413">
        <ele>208</ele>
        <time>2018-06-01T08:58:17Z</time>
      </trkpt>
      <trkpt lat="45.97219" lon="4.79425">
        <ele>208</ele>
        <time>2018-06-01T08:58:19Z</time>
      </trkpt>
      <trkpt lat="45.97221" lon="4.79431">
        <ele>208</ele>
        <time>2018-06-01T08:58:20Z</time>
      </trkpt>
      <trkpt lat="45.97223" lon="4.79436">
        <ele>209</ele>
        <time>2018-06-01T08:58:21Z</time>
      </trkpt>
      <trkpt lat="45.97226" lon="4.79442">
        <ele>209</ele>
        <time>2018-06-01T08:58:22Z</time>
      </trkpt>
      <trkpt lat="45.97228" lon="4.79448">
        <ele>209</ele>
        <time>2018-06-01T08:58:23Z</time>
      </trkpt>
      <trkpt lat="45.9723" lon="4.79454">
        <ele>209</ele>
        <time>2018-06-01T08:58:24Z</time>
      </trkpt>
      <trkpt lat="45.97233" lon="4.79459">
        <ele>209</ele>
        <time>2018-06-01T08:58:25Z</time>
      </trkpt>
      <trkpt lat="45.97237" lon="4.79466">
        <ele>209</ele>
        <time>2018-06-01T08:58:26Z</time>
      </trkpt>
      <trkpt lat="45.9724" lon="4.79477">
        <ele>209</ele>
        <time>2018-06-01T08:58:28Z</time>
      </trkpt>
      <trkpt lat="45.97242" lon="4.79483">
        <ele>210</ele>
        <time>2018-06-01T08:58:29Z</time>
      </trkpt>
      <trkpt lat="45.97242" lon="4.7949">
        <ele>210</ele>
        <time>2018-06-01T08:58:30Z</time>
      </trkpt>
      <trkpt lat="45.97244" lon="4.79497">
        <ele>210</ele>
        <time>2018-06-01T08:58:31Z</time>
      </trkpt>
      <trkpt lat="45.97245" lon="4.79503">
        <ele>211</ele>
        <time>2018-06-01T08:58:32Z</time>
      </trkpt>
      <trkpt lat="45.97246" lon="4.79509">
        <ele>210</ele>
        <time>2018-06-01T08:58:33Z</time>
      </trkpt>
      <trkpt lat="45.97247" lon="4.79514">
        <ele>210</ele>
        <time>2018-06-01T08:58:34Z</time>
      </trkpt>
      <trkpt lat="45.97248" lon="4.79523">
        <ele>210</ele>
        <time>2018-06-01T08:58:35Z</time>
      </trkpt>
      <trkpt lat="45.97249" lon="4.79528">
        <ele>210</ele>
        <time>2018-06-01T08:58:36Z</time>
      </trkpt>
      <trkpt lat="45.97251" lon="4.79536">
        <ele>214</ele>
        <time>2018-06-01T08:58:37Z</time>
      </trkpt>
      <trkpt lat="45.97253" lon="4.79542">
        <ele>214</ele>
        <time>2018-06-01T08:58:38Z</time>
      </trkpt>
      <trkpt lat="45.97254" lon="4.79548">
        <ele>214</ele>
        <time>2018-06-01T08:58:39Z</time>
      </trkpt>
      <trkpt lat="45.97255" lon="4.79561">
        <ele>213</ele>
        <time>2018-06-01T08:58:41Z</time>
      </trkpt>
      <trkpt lat="45.97256" lon="4.79568">
        <ele>213</ele>
        <time>2018-06-01T08:58:42Z</time>
      </trkpt>
      <trkpt lat="45.97255" lon="4.79576">
        <ele>212</ele>
        <time>2018-06-01T08:58:43Z</time>
      </trkpt>
      <trkpt lat="45.97254" lon="4.79585">
        <ele>211</ele>
        <time>2018-06-01T08:58:44Z</time>
      </trkpt>
      <trkpt lat="45.97255" lon="4.79593">
        <ele>212</ele>
        <time>2018-06-01T08:58:45Z</time>
      </trkpt>
      <trkpt lat="45.97254" lon="4.796">
        <ele>212</ele>
        <time>2018-06-01T08:58:46Z</time>
      </trkpt>
      <trkpt lat="45.97255" lon="4.79608">
        <ele>213</ele>
        <time>2018-06-01T08:58:47Z</time>
      </trkpt>
      <trkpt lat="45.97255" lon="4.79615">
        <ele>213</ele>
        <time>2018-06-01T08:58:48Z</time>
      </trkpt>
      <trkpt lat="45.97255" lon="4.79623">
        <ele>213</ele>
        <time>2018-06-01T08:58:49Z</time>
      </trkpt>
      <trkpt lat="45.97256" lon="4.79631">
        <ele>213</ele>
        <time>2018-06-01T08:58:50Z</time>
      </trkpt>
      <trkpt lat="45.97257" lon="4.79639">
        <ele>212</ele>
        <time>2018-06-01T08:58:51Z</time>
      </trkpt>
      <trkpt lat="45.97257" lon="4.79647">
        <ele>212</ele>
        <time>2018-06-01T08:58:52Z</time>
      </trkpt>
      <trkpt lat="45.97257" lon="4.79657">
        <ele>211</ele>
        <time>2018-06-01T08:58:53Z</time>
      </trkpt>
      <trkpt lat="45.97256" lon="4.79664">
        <ele>210</ele>
        <time>2018-06-01T08:58:54Z</time>
      </trkpt>
      <trkpt lat="45.97254" lon="4.79671">
        <ele>209</ele>
        <time>2018-06-01T08:58:55Z</time>
      </trkpt>
      <trkpt lat="45.97253" lon="4.7968">
        <ele>210</ele>
        <time>2018-06-01T08:58:56Z</time>
      </trkpt>
      <trkpt lat="45.97251" lon="4.79687">
        <ele>211</ele>
        <time>2018-06-01T08:58:57Z</time>
      </trkpt>
      <trkpt lat="45.9725" lon="4.79693">
        <ele>212</ele>
        <time>2018-06-01T08:58:58Z</time>
      </trkpt>
      <trkpt lat="45.97249" lon="4.797">
        <ele>208</ele>
        <time>2018-06-01T08:58:59Z</time>
      </trkpt>
      <trkpt lat="45.97248" lon="4.79708">
        <ele>209</ele>
        <time>2018-06-01T08:59:00Z</time>
      </trkpt>
      <trkpt lat="45.97247" lon="4.79716">
        <ele>209</ele>
        <time>2018-06-01T08:59:01Z</time>
      </trkpt>
      <trkpt lat="45.97246" lon="4.79723">
        <ele>209</ele>
        <time>2018-06-01T08:59:02Z</time>
      </trkpt>
      <trkpt lat="45.97245" lon="4.7973">
        <ele>209</ele>
        <time>2018-06-01T08:59:03Z</time>
      </trkpt>
      <trkpt lat="45.97244" lon="4.79737">
        <ele>209</ele>
        <time>2018-06-01T08:59:04Z</time>
      </trkpt>
      <trkpt lat="45.97244" lon="4.79744">
        <ele>209</ele>
        <time>2018-06-01T08:59:05Z</time>
      </trkpt>
      <trkpt lat="45.97241" lon="4.79751">
        <ele>209</ele>
        <time>2018-06-01T08:59:06Z</time>
      </trkpt>
      <trkpt lat="45.97241" lon="4.7976">
        <ele>209</ele>
        <time>2018-06-01T08:59:07Z</time>
      </trkpt>
      <trkpt lat="45.9724" lon="4.79769">
        <ele>210</ele>
        <time>2018-06-01T08:59:08Z</time>
      </trkpt>
      <trkpt lat="45.97239" lon="4.79777">
        <ele>210</ele>
        <time>2018-06-01T08:59:09Z</time>
      </trkpt>
      <trkpt lat="45.97239" lon="4.79784">
        <ele>210</ele>
        <time>2018-06-01T08:59:10Z</time>
      </trkpt>
      <trkpt lat="45.97239" lon="4.7979">
        <ele>210</ele>
        <time>2018-06-01T08:59:11Z</time>
      </trkpt>
      <trkpt lat="45.9724" lon="4.79797">
        <ele>210</ele>
        <time>2018-06-01T08:59:12Z</time>
      </trkpt>
      <trkpt lat="45.9724" lon="4.79804">
        <ele>210</ele>
        <time>2018-06-01T08:59:13Z</time>
      </trkpt>
      <trkpt lat="45.97238" lon="4.79811">
        <ele>210</ele>
        <time>2018-06-01T08:59:14Z</time>
      </trkpt>
      <trkpt lat="45.97239" lon="4.79819">
        <ele>211</ele>
        <time>2018-06-01T08:59:15Z</time>
      </trkpt>
      <trkpt lat="45.97241" lon="4.79826">
        <ele>211</ele>
        <time>2018-06-01T08:59:16Z</time>
      </trkpt>
      <trkpt lat="45.97241" lon="4.79834">
        <ele>212</ele>
        <time>2018-06-01T08:59:17Z</time>
      </trkpt>
      <trkpt lat="45.97241" lon="4.79842">
        <ele>211</ele>
        <time>2018-06-01T08:59:18Z</time>
      </trkpt>
      <trkpt lat="45.97241" lon="4.79849">
        <ele>211</ele>
        <time>2018-06-01T08:59:19Z</time>
      </trkpt>
      <trkpt lat="45.97242" lon="4.79856">
        <ele>211</ele>
        <time>2018-06-01T08:59:20Z</time>
      </trkpt>
      <trkpt lat="45.97244" lon="4.79864">
        <ele>211</ele>
        <time>2018-06-01T08:59:21Z</time>
      </trkpt>
      <trkpt lat="45.97246" lon="4.79871">
        <ele>211</ele>
        <time>2018-06-01T08:59:22Z</time>
      </trkpt>
      <trkpt lat="45.97249" lon="4.79876">
        <ele>211</ele>
        <time>2018-06-01T08:59:23Z</time>
      </trkpt>
      <trkpt lat="45.97252" lon="4.79882">
        <ele>213</ele>
        <time>2018-06-01T08:59:24Z</time>
      </trkpt>
      <trkpt lat="45.97254" lon="4.79892">
        <ele>213</ele>
        <time>2018-06-01T08:59:27Z</time>
      </trkpt>
      <trkpt lat="45.97254" lon="4.79895">
        <ele>213</ele>
        <time>2018-06-01T08:59:28Z</time>
      </trkpt>
      <trkpt lat="45.97256" lon="4.79907">
        <ele>213</ele>
        <time>2018-06-01T08:59:33Z</time>
      </trkpt>
      <trkpt lat="45.97257" lon="4.7991">
        <ele>212</ele>
        <time>2018-06-01T08:59:34Z</time>
      </trkpt>
      <trkpt lat="45.97262" lon="4.79917">
        <ele>212</ele>
        <time>2018-06-01T08:59:37Z</time>
      </trkpt>
      <trkpt lat="45.9727" lon="4.79921">
        <ele>212</ele>
        <time>2018-06-01T08:59:38Z</time>
      </trkpt>
      <trkpt lat="45.97278" lon="4.79919">
        <ele>212</ele>
        <time>2018-06-01T08:59:40Z</time>
      </trkpt>
      <trkpt lat="45.97283" lon="4.79916">
        <ele>213</ele>
        <time>2018-06-01T08:59:41Z</time>
      </trkpt>
      <trkpt lat="45.97287" lon="4.79914">
        <ele>213</ele>
        <time>2018-06-01T08:59:42Z</time>
      </trkpt>
      <trkpt lat="45.97292" lon="4.79913">
        <ele>213</ele>
        <time>2018-06-01T08:59:43Z</time>
      </trkpt>
      <trkpt lat="45.97296" lon="4.79913">
        <ele>213</ele>
        <time>2018-06-01T08:59:44Z</time>
      </trkpt>
      <trkpt lat="45.97301" lon="4.79912">
        <ele>213</ele>
        <time>2018-06-01T08:59:45Z</time>
      </trkpt>
      <trkpt lat="45.9731" lon="4.7991">
        <ele>213</ele>
        <time>2018-06-01T08:59:47Z</time>
      </trkpt>
      <trkpt lat="45.97315" lon="4.79909">
        <ele>213</ele>
        <time>2018-06-01T08:59:48Z</time>
      </trkpt>
      <trkpt lat="45.9732" lon="4.79907">
        <ele>213</ele>
        <time>2018-06-01T08:59:49Z</time>
      </trkpt>
      <trkpt lat="45.97326" lon="4.79905">
        <ele>213</ele>
        <time>2018-06-01T08:59:50Z</time>
      </trkpt>
      <trkpt lat="45.97331" lon="4.79904">
        <ele>213</ele>
        <time>2018-06-01T08:59:51Z</time>
      </trkpt>
      <trkpt lat="45.97335" lon="4.79903">
        <ele>215</ele>
        <time>2018-06-01T08:59:52Z</time>
      </trkpt>
      <trkpt lat="45.97339" lon="4.79901">
        <ele>215</ele>
        <time>2018-06-01T08:59:53Z</time>
      </trkpt>
      <trkpt lat="45.97344" lon="4.799">
        <ele>216</ele>
        <time>2018-06-01T08:59:54Z</time>
      </trkpt>
      <trkpt lat="45.97349" lon="4.79899">
        <ele>216</ele>
        <time>2018-06-01T08:59:55Z</time>
      </trkpt>
      <trkpt lat="45.97354" lon="4.79897">
        <ele>216</ele>
        <time>2018-06-01T08:59:56Z</time>
      </trkpt>
      <trkpt lat="45.97365" lon="4.79896">
        <ele>217</ele>
        <time>2018-06-01T08:59:59Z</time>
      </trkpt>
      <trkpt lat="45.97371" lon="4.79898">
        <ele>217</ele>
        <time>2018-06-01T09:00:00Z</time>
      </trkpt>
      <trkpt lat="45.97375" lon="4.79897">
        <ele>217</ele>
        <time>2018-06-01T09:00:01Z</time>
      </trkpt>
      <trkpt lat="45.97383" lon="4.79897">
        <ele>217</ele>
        <time>2018-06-01T09:00:03Z</time>
      </trkpt>
      <trkpt lat="45.97388" lon="4.79897">
        <ele>217</ele>
        <time>2018-06-01T09:00:04Z</time>
      </trkpt>
      <trkpt lat="45.97392" lon="4.79896">
        <ele>217</ele>
        <time>2018-06-01T09:00:05Z</time>
      </trkpt>
      <trkpt lat="45.97397" lon="4.79897">
        <ele>217</ele>
        <time>2018-06-01T09:00:06Z</time>
      </trkpt>
      <trkpt lat="45.97402" lon="4.79895">
        <ele>217</ele>
        <time>2018-06-01T09:00:07Z</time>
      </trkpt>
      <trkpt lat="45.97407" lon="4.79895">
        <ele>217</ele>
        <time>2018-06-01T09:00:08Z</time>
      </trkpt>
      <trkpt lat="45.97412" lon="4.79897">
        <ele>217</ele>
        <time>2018-06-01T09:00:09Z</time>
      </trkpt>
      <trkpt lat="45.97416" lon="4.79895">
        <ele>217</ele>
        <time>2018-06-01T09:00:10Z</time>
      </trkpt>
      <trkpt lat="45.97425" lon="4.79893">
        <ele>219</ele>
        <time>2018-06-01T09:00:12Z</time>
      </trkpt>
      <trkpt lat="45.97429" lon="4.79894">
        <ele>220</ele>
        <time>2018-06-01T09:00:13Z</time>
      </trkpt>
      <trkpt lat="45.97436" lon="4.79891">
        <ele>220</ele>
        <time>2018-06-01T09:00:15Z</time>
      </trkpt>
      <trkpt lat="45.97441" lon="4.79891">
        <ele>220</ele>
        <time>2018-06-01T09:00:16Z</time>
      </trkpt>
      <trkpt lat="45.97449" lon="4.79892">
        <ele>220</ele>
        <time>2018-06-01T09:00:18Z</time>
      </trkpt>
      <trkpt lat="45.97453" lon="4.79893">
        <ele>220</ele>
        <time>2018-06-01T09:00:19Z</time>
      </trkpt>
      <trkpt lat="45.97461" lon="4.79892">
        <ele>221</ele>
        <time>2018-06-01T09:00:21Z</time>
      </trkpt>
      <trkpt lat="45.97466" lon="4.79891">
        <ele>221</ele>
        <time>2018-06-01T09:00:22Z</time>
      </trkpt>
      <trkpt lat="45.97474" lon="4.7989">
        <ele>221</ele>
        <time>2018-06-01T09:00:24Z</time>
      </trkpt>
      <trkpt lat="45.97478" lon="4.79889">
        <ele>221</ele>
        <time>2018-06-01T09:00:25Z</time>
      </trkpt>
      <trkpt lat="45.97487" lon="4.79889">
        <ele>221</ele>
        <time>2018-06-01T09:00:27Z</time>
      </trkpt>
      <trkpt lat="45.97491" lon="4.79889">
        <ele>221</ele>
        <time>2018-06-01T09:00:28Z</time>
      </trkpt>
      <trkpt lat="45.97495" lon="4.79889">
        <ele>221</ele>
        <time>2018-06-01T09:00:29Z</time>
      </trkpt>
      <trkpt lat="45.975" lon="4.79887">
        <ele>221</ele>
        <time>2018-06-01T09:00:30Z</time>
      </trkpt>
      <trkpt lat="45.97506" lon="4.79887">
        <ele>221</ele>
        <time>2018-06-01T09:00:32Z</time>
      </trkpt>
      <trkpt lat="45.9751" lon="4.79886">
        <ele>221</ele>
        <time>2018-06-01T09:00:33Z</time>
      </trkpt>
      <trkpt lat="45.97515" lon="4.79885">
        <ele>221</ele>
        <time>2018-06-01T09:00:35Z</time>
      </trkpt>
      <trkpt lat="45.9752" lon="4.79884">
        <ele>222</ele>
        <time>2018-06-01T09:00:36Z</time>
      </trkpt>
      <trkpt lat="45.97528" lon="4.79885">
        <ele>221</ele>
        <time>2018-06-01T09:00:39Z</time>
      </trkpt>
      <trkpt lat="45.97531" lon="4.79884">
        <ele>222</ele>
        <time>2018-06-01T09:00:40Z</time>
      </trkpt>
      <trkpt lat="45.97539" lon="4.79881">
        <ele>222</ele>
        <time>2018-06-01T09:00:43Z</time>
      </trkpt>
      <trkpt lat="45.97542" lon="4.79881">
        <ele>222</ele>
        <time>2018-06-01T09:00:44Z</time>
      </trkpt>
      <trkpt lat="45.97549" lon="4.79879">
        <ele>222</ele>
        <time>2018-06-01T09:00:46Z</time>
      </trkpt>
      <trkpt lat="45.97552" lon="4.79878">
        <ele>222</ele>
        <time>2018-06-01T09:00:47Z</time>
      </trkpt>
      <trkpt lat="45.97555" lon="4.79877">
        <ele>222</ele>
        <time>2018-06-01T09:00:48Z</time>
      </trkpt>
      <trkpt lat="45.97565" lon="4.79873">
        <ele>222</ele>
        <time>2018-06-01T09:00:49Z</time>
      </trkpt>
      <trkpt lat="45.97573" lon="4.79871">
        <ele>222</ele>
        <time>2018-06-01T09:00:51Z</time>
      </trkpt>
      <trkpt lat="45.97576" lon="4.79869">
        <ele>222</ele>
        <time>2018-06-01T09:00:52Z</time>
      </trkpt>
      <trkpt lat="45.97581" lon="4.79868">
        <ele>222</ele>
        <time>2018-06-01T09:00:53Z</time>
      </trkpt>
      <trkpt lat="45.97585" lon="4.79866">
        <ele>221</ele>
        <time>2018-06-01T09:00:54Z</time>
      </trkpt>
      <trkpt lat="45.97592" lon="4.79864">
        <ele>221</ele>
        <time>2018-06-01T09:00:56Z</time>
      </trkpt>
      <trkpt lat="45.97597" lon="4.79863">
        <ele>221</ele>
        <time>2018-06-01T09:00:57Z</time>
      </trkpt>
      <trkpt lat="45.97601" lon="4.79861">
        <ele>221</ele>
        <time>2018-06-01T09:00:58Z</time>
      </trkpt>
      <trkpt lat="45.97606" lon="4.79859">
        <ele>221</ele>
        <time>2018-06-01T09:00:59Z</time>
      </trkpt>
      <trkpt lat="45.97614" lon="4.79857">
        <ele>221</ele>
        <time>2018-06-01T09:01:01Z</time>
      </trkpt>
      <trkpt lat="45.97617" lon="4.79855">
        <ele>221</ele>
        <time>2018-06-01T09:01:02Z</time>
      </trkpt>
      <trkpt lat="45.97626" lon="4.79852">
        <ele>221</ele>
        <time>2018-06-01T09:01:04Z</time>
      </trkpt>
      <trkpt lat="45.97629" lon="4.79852">
        <ele>221</ele>
        <time>2018-06-01T09:01:05Z</time>
      </trkpt>
      <trkpt lat="45.97638" lon="4.79849">
        <ele>221</ele>
        <time>2018-06-01T09:01:07Z</time>
      </trkpt>
      <trkpt lat="45.97642" lon="4.79848">
        <ele>221</ele>
        <time>2018-06-01T09:01:08Z</time>
      </trkpt>
      <trkpt lat="45.97647" lon="4.79846">
        <ele>221</ele>
        <time>2018-06-01T09:01:09Z</time>
      </trkpt>
      <trkpt lat="45.97652" lon="4.79844">
        <ele>221</ele>
        <time>2018-06-01T09:01:10Z</time>
      </trkpt>
      <trkpt lat="45.97657" lon="4.79842">
        <ele>221</ele>
        <time>2018-06-01T09:01:11Z</time>
      </trkpt>
      <trkpt lat="45.97662" lon="4.7984">
        <ele>221</ele>
        <time>2018-06-01T09:01:12Z</time>
      </trkpt>
      <trkpt lat="45.97667" lon="4.79839">
        <ele>221</ele>
        <time>2018-06-01T09:01:13Z</time>
      </trkpt>
      <trkpt lat="45.97671" lon="4.79837">
        <ele>221</ele>
        <time>2018-06-01T09:01:14Z</time>
      </trkpt>
      <trkpt lat="45.97677" lon="4.79835">
        <ele>221</ele>
        <time>2018-06-01T09:01:15Z</time>
      </trkpt>
      <trkpt lat="45.97682" lon="4.79834">
        <ele>221</ele>
        <time>2018-06-01T09:01:16Z</time>
      </trkpt>
      <trkpt lat="45.97688" lon="4.79834">
        <ele>221</ele>
        <time>2018-06-01T09:01:17Z</time>
      </trkpt>
      <trkpt lat="45.97693" lon="4.79832">
        <ele>223</ele>
        <time>2018-06-01T09:01:18Z</time>
      </trkpt>
      <trkpt lat="45.97697" lon="4.79831">
        <ele>223</ele>
        <time>2018-06-01T09:01:19Z</time>
      </trkpt>
      <trkpt lat="45.97702" lon="4.7983">
        <ele>223</ele>
        <time>2018-06-01T09:01:20Z</time>
      </trkpt>
      <trkpt lat="45.97707" lon="4.79831">
        <ele>223</ele>
        <time>2018-06-01T09:01:21Z</time>
      </trkpt>
      <trkpt lat="45.97712" lon="4.79831">
        <ele>223</ele>
        <time>2018-06-01T09:01:22Z</time>
      </trkpt>
      <trkpt lat="45.97718" lon="4.7983">
        <ele>223</ele>
        <time>2018-06-01T09:01:23Z</time>
      </trkpt>
      <trkpt lat="45.97723" lon="4.79827">
        <ele>223</ele>
        <time>2018-06-01T09:01:24Z</time>
      </trkpt>
      <trkpt lat="45.97729" lon="4.79825">
        <ele>223</ele>
        <time>2018-06-01T09:01:25Z</time>
      </trkpt>
      <trkpt lat="45.97734" lon="4.79823">
        <ele>223</ele>
        <time>2018-06-01T09:01:26Z</time>
      </trkpt>
      <trkpt lat="45.97739" lon="4.79823">
        <ele>223</ele>
        <time>2018-06-01T09:01:27Z</time>
      </trkpt>
      <trkpt lat="45.97745" lon="4.79821">
        <ele>223</ele>
        <time>2018-06-01T09:01:28Z</time>
      </trkpt>
      <trkpt lat="45.97751" lon="4.7982">
        <ele>223</ele>
        <time>2018-06-01T09:01:29Z</time>
      </trkpt>
      <trkpt lat="45.97756" lon="4.79818">
        <ele>223</ele>
        <time>2018-06-01T09:01:30Z</time>
      </trkpt>
      <trkpt lat="45.97762" lon="4.79817">
        <ele>223</ele>
        <time>2018-06-01T09:01:31Z</time>
      </trkpt>
      <trkpt lat="45.97767" lon="4.79813">
        <ele>223</ele>
        <time>2018-06-01T09:01:32Z</time>
      </trkpt>
      <trkpt lat="45.97773" lon="4.79813">
        <ele>223</ele>
        <time>2018-06-01T09:01:33Z</time>
      </trkpt>
      <trkpt lat="45.97779" lon="4.79812">
        <ele>223</ele>
        <time>2018-06-01T09:01:34Z</time>
      </trkpt>
      <trkpt lat="45.97785" lon="4.79812">
        <ele>223</ele>
        <time>2018-06-01T09:01:35Z</time>
      </trkpt>
      <trkpt lat="45.97791" lon="4.79811">
        <ele>223</ele>
        <time>2018-06-01T09:01:36Z</time>
      </trkpt>
      <trkpt lat="45.97797" lon="4.7981">
        <ele>223</ele>
        <time>2018-06-01T09:01:37Z</time>
      </trkpt>
      <trkpt lat="45.97803" lon="4.79809">
        <ele>223</ele>
        <time>2018-06-01T09:01:38Z</time>
      </trkpt>
      <trkpt lat="45.97811" lon="4.79807">
        <ele>223</ele>
        <time>2018-06-01T09:01:40Z</time>
      </trkpt>
      <trkpt lat="45.97815" lon="4.7981">
        <ele>223</ele>
        <time>2018-06-01T09:01:41Z</time>
      </trkpt>
      <trkpt lat="45.97821" lon="4.7981">
        <ele>223</ele>
        <time>2018-06-01T09:01:42Z</time>
      </trkpt>
      <trkpt lat="45.97826" lon="4.79812">
        <ele>223</ele>
        <time>2018-06-01T09:01:43Z</time>
      </trkpt>
      <trkpt lat="45.97832" lon="4.7981">
        <ele>223</ele>
        <time>2018-06-01T09:01:44Z</time>
      </trkpt>
      <trkpt lat="45.97837" lon="4.79809">
        <ele>224</ele>
        <time>2018-06-01T09:01:45Z</time>
      </trkpt>
      <trkpt lat="45.97842" lon="4.79808">
        <ele>224</ele>
        <time>2018-06-01T09:01:46Z</time>
      </trkpt>
      <trkpt lat="45.97848" lon="4.79808">
        <ele>224</ele>
        <time>2018-06-01T09:01:47Z</time>
      </trkpt>
      <trkpt lat="45.97853" lon="4.79804">
        <ele>224</ele>
        <time>2018-06-01T09:01:48Z</time>
      </trkpt>
      <trkpt lat="45.97859" lon="4.79803">
        <ele>224</ele>
        <time>2018-06-01T09:01:49Z</time>
      </trkpt>
      <trkpt lat="45.97864" lon="4.79806">
        <ele>224</ele>
        <time>2018-06-01T09:01:50Z</time>
      </trkpt>
      <trkpt lat="45.9787" lon="4.79805">
        <ele>224</ele>
        <time>2018-06-01T09:01:51Z</time>
      </trkpt>
      <trkpt lat="45.97875" lon="4.79803">
        <ele>224</ele>
        <time>2018-06-01T09:01:52Z</time>
      </trkpt>
      <trkpt lat="45.9788" lon="4.79801">
        <ele>224</ele>
        <time>2018-06-01T09:01:53Z</time>
      </trkpt>
      <trkpt lat="45.97885" lon="4.798">
        <ele>224</ele>
        <time>2018-06-01T09:01:54Z</time>
      </trkpt>
      <trkpt lat="45.97891" lon="4.79799">
        <ele>224</ele>
        <time>2018-06-01T09:01:55Z</time>
      </trkpt>
      <trkpt lat="45.97897" lon="4.79798">
        <ele>224</ele>
        <time>2018-06-01T09:01:56Z</time>
      </trkpt>
      <trkpt lat="45.97903" lon="4.79797">
        <ele>224</ele>
        <time>2018-06-01T09:01:57Z</time>
      </trkpt>
      <trkpt lat="45.97908" lon="4.79798">
        <ele>224</ele>
        <time>2018-06-01T09:01:58Z</time>
      </trkpt>
      <trkpt lat="45.97914" lon="4.79797">
        <ele>224</ele>
        <time>2018-06-01T09:01:59Z</time>
      </trkpt>
      <trkpt lat="45.97919" lon="4.79795">
        <ele>224</ele>
        <time>2018-06-01T09:02:00Z</time>
      </trkpt>
      <trkpt lat="45.97925" lon="4.79794">
        <ele>224</ele>
        <time>2018-06-01T09:02:01Z</time>
      </trkpt>
      <trkpt lat="45.9793" lon="4.79793">
        <ele>224</ele>
        <time>2018-06-01T09:02:02Z</time>
      </trkpt>
      <trkpt lat="45.97936" lon="4.79792">
        <ele>224</ele>
        <time>2018-06-01T09:02:03Z</time>
      </trkpt>
      <trkpt lat="45.97943" lon="4.79792">
        <ele>224</ele>
        <time>2018-06-01T09:02:04Z</time>
      </trkpt>
      <trkpt lat="45.97952" lon="4.79788">
        <ele>224</ele>
        <time>2018-06-01T09:02:05Z</time>
      </trkpt>
      <trkpt lat="45.97958" lon="4.79788">
        <ele>224</ele>
        <time>2018-06-01T09:02:06Z</time>
      </trkpt>
      <trkpt lat="45.97962" lon="4.79788">
        <ele>224</ele>
        <time>2018-06-01T09:02:07Z</time>
      </trkpt>
      <trkpt lat="45.97967" lon="4.79786">
        <ele>224</ele>
        <time>2018-06-01T09:02:08Z</time>
      </trkpt>
      <trkpt lat="45.97975" lon="4.79782">
        <ele>224</ele>
        <time>2018-06-01T09:02:09Z</time>
      </trkpt>
      <trkpt lat="45.9798" lon="4.79781">
        <ele>224</ele>
        <time>2018-06-01T09:02:10Z</time>
      </trkpt>
      <trkpt lat="45.97985" lon="4.79779">
        <ele>224</ele>
        <time>2018-06-01T09:02:11Z</time>
      </trkpt>
      <trkpt lat="45.97989" lon="4.79778">
        <ele>224</ele>
        <time>2018-06-01T09:02:12Z</time>
      </trkpt>
      <trkpt lat="45.97994" lon="4.79778">
        <ele>224</ele>
        <time>2018-06-01T09:02:13Z</time>
      </trkpt>
      <trkpt lat="45.98" lon="4.79777">
        <ele>224</ele>
        <time>2018-06-01T09:02:14Z</time>
      </trkpt>
      <trkpt lat="45.98006" lon="4.79775">
        <ele>223</ele>
        <time>2018-06-01T09:02:15Z</time>
      </trkpt>
      <trkpt lat="45.98011" lon="4.79775">
        <ele>223</ele>
        <time>2018-06-01T09:02:16Z</time>
      </trkpt>
      <trkpt lat="45.98017" lon="4.79774">
        <ele>223</ele>
        <time>2018-06-01T09:02:17Z</time>
      </trkpt>
      <trkpt lat="45.98022" lon="4.79773">
        <ele>223</ele>
        <time>2018-06-01T09:02:18Z</time>
      </trkpt>
      <trkpt lat="45.98027" lon="4.79772">
        <ele>223</ele>
        <time>2018-06-01T09:02:19Z</time>
      </trkpt>
      <trkpt lat="45.98033" lon="4.79772">
        <ele>223</ele>
        <time>2018-06-01T09:02:20Z</time>
      </trkpt>
      <trkpt lat="45.98038" lon="4.7977">
        <ele>223</ele>
        <time>2018-06-01T09:02:21Z</time>
      </trkpt>
      <trkpt lat="45.98043" lon="4.7977">
        <ele>223</ele>
        <time>2018-06-01T09:02:22Z</time>
      </trkpt>
      <trkpt lat="45.98049" lon="4.7977">
        <ele>223</ele>
        <time>2018-06-01T09:02:23Z</time>
      </trkpt>
      <trkpt lat="45.98055" lon="4.79769">
        <ele>223</ele>
        <time>2018-06-01T09:02:24Z</time>
      </trkpt>
      <trkpt lat="45.98061" lon="4.7977">
        <ele>223</ele>
        <time>2018-06-01T09:02:25Z</time>
      </trkpt>
      <trkpt lat="45.98066" lon="4.7977">
        <ele>223</ele>
        <time>2018-06-01T09:02:26Z</time>
      </trkpt>
      <trkpt lat="45.98073" lon="4.79769">
        <ele>223</ele>
        <time>2018-06-01T09:02:27Z</time>
      </trkpt>
      <trkpt lat="45.98079" lon="4.79769">
        <ele>223</ele>
        <time>2018-06-01T09:02:28Z</time>
      </trkpt>
      <trkpt lat="45.98085" lon="4.79768">
        <ele>223</ele>
        <time>2018-06-01T09:02:29Z</time>
      </trkpt>
      <trkpt lat="45.98091" lon="4.79767">
        <ele>223</ele>
        <time>2018-06-01T09:02:30Z</time>
      </trkpt>
      <trkpt lat="45.98096" lon="4.7976">
        <ele>223</ele>
        <time>2018-06-01T09:02:31Z</time>
      </trkpt>
      <trkpt lat="45.98101" lon="4.7976">
        <ele>223</ele>
        <time>2018-06-01T09:02:32Z</time>
      </trkpt>
      <trkpt lat="45.98108" lon="4.79758">
        <ele>224</ele>
        <time>2018-06-01T09:02:33Z</time>
      </trkpt>
      <trkpt lat="45.98114" lon="4.79758">
        <ele>224</ele>
        <time>2018-06-01T09:02:34Z</time>
      </trkpt>
      <trkpt lat="45.98118" lon="4.79757">
        <ele>224</ele>
        <time>2018-06-01T09:02:35Z</time>
      </trkpt>
      <trkpt lat="45.98123" lon="4.79756">
        <ele>224</ele>
        <time>2018-06-01T09:02:36Z</time>
      </trkpt>
      <trkpt lat="45.98127" lon="4.79756">
        <ele>224</ele>
        <time>2018-06-01T09:02:37Z</time>
      </trkpt>
      <trkpt lat="45.98136" lon="4.79755">
        <ele>224</ele>
        <time>2018-06-01T09:02:39Z</time>
      </trkpt>
      <trkpt lat="45.9814" lon="4.79755">
        <ele>224</ele>
        <time>2018-06-01T09:02:40Z</time>
      </trkpt>
      <trkpt lat="45.98145" lon="4.79756">
        <ele>225</ele>
        <time>2018-06-01T09:02:41Z</time>
      </trkpt>
      <trkpt lat="45.9815" lon="4.79755">
        <ele>225</ele>
        <time>2018-06-01T09:02:42Z</time>
      </trkpt>
      <trkpt lat="45.98159" lon="4.79755">
        <ele>225</ele>
        <time>2018-06-01T09:02:44Z</time>
      </trkpt>
      <trkpt lat="45.98163" lon="4.79759">
        <ele>225</ele>
        <time>2018-06-01T09:02:45Z</time>
      </trkpt>
      <trkpt lat="45.9817" lon="4.79764">
        <ele>226</ele>
        <time>2018-06-01T09:02:47Z</time>
      </trkpt>
      <trkpt lat="45.98174" lon="4.7977">
        <ele>226</ele>
        <time>2018-06-01T09:02:48Z</time>
      </trkpt>
      <trkpt lat="45.98177" lon="4.79777">
        <ele>226</ele>
        <time>2018-06-01T09:02:49Z</time>
      </trkpt>
      <trkpt lat="45.98179" lon="4.79784">
        <ele>226</ele>
        <time>2018-06-01T09:02:50Z</time>
      </trkpt>
      <trkpt lat="45.98181" lon="4.7979">
        <ele>226</ele>
        <time>2018-06-01T09:02:51Z</time>
      </trkpt>
      <trkpt lat="45.98184" lon="4.79802">
        <ele>226</ele>
        <time>2018-06-01T09:02:52Z</time>
      </trkpt>
      <trkpt lat="45.98186" lon="4.79809">
        <ele>225</ele>
        <time>2018-06-01T09:02:53Z</time>
      </trkpt>
      <trkpt lat="45.98189" lon="4.79815">
        <ele>225</ele>
        <time>2018-06-01T09:02:54Z</time>
      </trkpt>
      <trkpt lat="45.98191" lon="4.79824">
        <ele>225</ele>
        <time>2018-06-01T09:02:55Z</time>
      </trkpt>
      <trkpt lat="45.98194" lon="4.79832">
        <ele>225</ele>
        <time>2018-06-01T09:02:56Z</time>
      </trkpt>
      <trkpt lat="45.98197" lon="4.79841">
        <ele>225</ele>
        <time>2018-06-01T09:02:57Z</time>
      </trkpt>
      <trkpt lat="45.982" lon="4.7985">
        <ele>225</ele>
        <time>2018-06-01T09:02:58Z</time>
      </trkpt>
      <trkpt lat="45.98203" lon="4.79859">
        <ele>225</ele>
        <time>2018-06-01T09:02:59Z</time>
      </trkpt>
      <trkpt lat="45.98207" lon="4.79868">
        <ele>225</ele>
        <time>2018-06-01T09:03:00Z</time>
      </trkpt>
      <trkpt lat="45.9821" lon="4.79877">
        <ele>225</ele>
        <time>2018-06-01T09:03:01Z</time>
      </trkpt>
      <trkpt lat="45.98212" lon="4.79885">
        <ele>225</ele>
        <time>2018-06-01T09:03:02Z</time>
      </trkpt>
      <trkpt lat="45.98215" lon="4.79894">
        <ele>225</ele>
        <time>2018-06-01T09:03:03Z</time>
      </trkpt>
      <trkpt lat="45.98218" lon="4.79901">
        <ele>225</ele>
        <time>2018-06-01T09:03:04Z</time>
      </trkpt>
      <trkpt lat="45.98222" lon="4.79908">
        <ele>225</ele>
        <time>2018-06-01T09:03:05Z</time>
      </trkpt>
      <trkpt lat="45.98225" lon="4.79917">
        <ele>225</ele>
        <time>2018-06-01T09:03:06Z</time>
      </trkpt>
      <trkpt lat="45.98227" lon="4.79925">
        <ele>225</ele>
        <time>2018-06-01T09:03:07Z</time>
      </trkpt>
      <trkpt lat="45.98229" lon="4.79933">
        <ele>225</ele>
        <time>2018-06-01T09:03:08Z</time>
      </trkpt>
      <trkpt lat="45.98232" lon="4.7994">
        <ele>225</ele>
        <time>2018-06-01T09:03:09Z</time>
      </trkpt>
      <trkpt lat="45.98235" lon="4.79948">
        <ele>225</ele>
        <time>2018-06-01T09:03:10Z</time>
      </trkpt>
      <trkpt lat="45.98239" lon="4.79957">
        <ele>225</ele>
        <time>2018-06-01T09:03:13Z</time>
      </trkpt>
      <trkpt lat="45.9824" lon="4.79959">
        <ele>225</ele>
        <time>2018-06-01T09:03:14Z</time>
      </trkpt>
      <trkpt lat="45.98241" lon="4.79971">
        <ele>225</ele>
        <time>2018-06-01T09:03:56Z</time>
      </trkpt>
      <trkpt lat="45.98241" lon="4.79973">
        <ele>225</ele>
        <time>2018-06-01T09:03:57Z</time>
      </trkpt>
      <trkpt lat="45.98244" lon="4.79981">
        <ele>225</ele>
        <time>2018-06-01T09:04:00Z</time>
      </trkpt>
      <trkpt lat="45.98245" lon="4.79985">
        <ele>225</ele>
        <time>2018-06-01T09:04:01Z</time>
      </trkpt>
      <trkpt lat="45.98247" lon="4.79988">
        <ele>226</ele>
        <time>2018-06-01T09:04:02Z</time>
      </trkpt>
      <trkpt lat="45.98251" lon="4.8">
        <ele>226</ele>
        <time>2018-06-01T09:04:03Z</time>
      </trkpt>
      <trkpt lat="45.98254" lon="4.80011">
        <ele>227</ele>
        <time>2018-06-01T09:04:05Z</time>
      </trkpt>
      <trkpt lat="45.98256" lon="4.80017">
        <ele>228</ele>
        <time>2018-06-01T09:04:06Z</time>
      </trkpt>
      <trkpt lat="45.98257" lon="4.80023">
        <ele>228</ele>
        <time>2018-06-01T09:04:07Z</time>
      </trkpt>
      <trkpt lat="45.98259" lon="4.80032">
        <ele>228</ele>
        <time>2018-06-01T09:04:08Z</time>
      </trkpt>
      <trkpt lat="45.98264" lon="4.80039">
        <ele>228</ele>
        <time>2018-06-01T09:04:09Z</time>
      </trkpt>
      <trkpt lat="45.98266" lon="4.80045">
        <ele>228</ele>
        <time>2018-06-01T09:04:10Z</time>
      </trkpt>
      <trkpt lat="45.9827" lon="4.80052">
        <ele>229</ele>
        <time>2018-06-01T09:04:11Z</time>
      </trkpt>
      <trkpt lat="45.98271" lon="4.80057">
        <ele>229</ele>
        <time>2018-06-01T09:04:12Z</time>
      </trkpt>
      <trkpt lat="45.98275" lon="4.80065">
        <ele>229</ele>
        <time>2018-06-01T09:04:13Z</time>
      </trkpt>
      <trkpt lat="45.98277" lon="4.80073">
        <ele>229</ele>
        <time>2018-06-01T09:04:14Z</time>
      </trkpt>
      <trkpt lat="45.98279" lon="4.80081">
        <ele>229</ele>
        <time>2018-06-01T09:04:15Z</time>
      </trkpt>
      <trkpt lat="45.98281" lon="4.80086">
        <ele>228</ele>
        <time>2018-06-01T09:04:16Z</time>
      </trkpt>
      <trkpt lat="45.98284" lon="4.80093">
        <ele>228</ele>
        <time>2018-06-01T09:04:17Z</time>
      </trkpt>
      <trkpt lat="45.98288" lon="4.80101">
        <ele>228</ele>
        <time>2018-06-01T09:04:18Z</time>
      </trkpt>
      <trkpt lat="45.98291" lon="4.80107">
        <ele>228</ele>
        <time>2018-06-01T09:04:19Z</time>
      </trkpt>
      <trkpt lat="45.98294" lon="4.80114">
        <ele>228</ele>
        <time>2018-06-01T09:04:20Z</time>
      </trkpt>
      <trkpt lat="45.98296" lon="4.80121">
        <ele>228</ele>
        <time>2018-06-01T09:04:21Z</time>
      </trkpt>
      <trkpt lat="45.98297" lon="4.80127">
        <ele>228</ele>
        <time>2018-06-01T09:04:22Z</time>
      </trkpt>
      <trkpt lat="45.98299" lon="4.80134">
        <ele>228</ele>
        <time>2018-06-01T09:04:23Z</time>
      </trkpt>
      <trkpt lat="45.98301" lon="4.80141">
        <ele>228</ele>
        <time>2018-06-01T09:04:24Z</time>
      </trkpt>
      <trkpt lat="45.98304" lon="4.80153">
        <ele>228</ele>
        <time>2018-06-01T09:04:26Z</time>
      </trkpt>
      <trkpt lat="45.98306" lon="4.80159">
        <ele>228</ele>
        <time>2018-06-01T09:04:27Z</time>
      </trkpt>
      <trkpt lat="45.98309" lon="4.80166">
        <ele>228</ele>
        <time>2018-06-01T09:04:28Z</time>
      </trkpt>
      <trkpt lat="45.98312" lon="4.80172">
        <ele>227</ele>
        <time>2018-06-01T09:04:29Z</time>
      </trkpt>
      <trkpt lat="45.98314" lon="4.80178">
        <ele>227</ele>
        <time>2018-06-01T09:04:30Z</time>
      </trkpt>
      <trkpt lat="45.98317" lon="4.80184">
        <ele>227</ele>
        <time>2018-06-01T09:04:31Z</time>
      </trkpt>
      <trkpt lat="45.98319" lon="4.80191">
        <ele>227</ele>
        <time>2018-06-01T09:04:32Z</time>
      </trkpt>
      <trkpt lat="45.98321" lon="4.80197">
        <ele>227</ele>
        <time>2018-06-01T09:04:33Z</time>
      </trkpt>
      <trkpt lat="45.98323" lon="4.80203">
        <ele>227</ele>
        <time>2018-06-01T09:04:34Z</time>
      </trkpt>
      <trkpt lat="45.98326" lon="4.80209">
        <ele>227</ele>
        <time>2018-06-01T09:04:35Z</time>
      </trkpt>
      <trkpt lat="45.98329" lon="4.80221">
        <ele>227</ele>
        <time>2018-06-01T09:04:37Z</time>
      </trkpt>
      <trkpt lat="45.98329" lon="4.80228">
        <ele>228</ele>
        <time>2018-06-01T09:04:38Z</time>
      </trkpt>
      <trkpt lat="45.98328" lon="4.80235">
        <ele>228</ele>
        <time>2018-06-01T09:04:39Z</time>
      </trkpt>
      <trkpt lat="45.98327" lon="4.80243">
        <ele>229</ele>
        <time>2018-06-01T09:04:40Z</time>
      </trkpt>
      <trkpt lat="45.98325" lon="4.80253">
        <ele>229</ele>
        <time>2018-06-01T09:04:42Z</time>
      </trkpt>
      <trkpt lat="45.98325" lon="4.80259">
        <ele>228</ele>
        <time>2018-06-01T09:04:43Z</time>
      </trkpt>
      <trkpt lat="45.98324" lon="4.80271">
        <ele>227</ele>
        <time>2018-06-01T09:04:44Z</time>
      </trkpt>
      <trkpt lat="45.98324" lon="4.80279">
        <ele>227</ele>
        <time>2018-06-01T09:04:45Z</time>
      </trkpt>
      <trkpt lat="45.9832" lon="4.80287">
        <ele>227</ele>
        <time>2018-06-01T09:04:46Z</time>
      </trkpt>
      <trkpt lat="45.98313" lon="4.80297">
        <ele>226</ele>
        <time>2018-06-01T09:04:47Z</time>
      </trkpt>
      <trkpt lat="45.98313" lon="4.80309">
        <ele>226</ele>
        <time>2018-06-01T09:04:49Z</time>
      </trkpt>
      <trkpt lat="45.9831" lon="4.80323">
        <ele>227</ele>
        <time>2018-06-01T09:04:50Z</time>
      </trkpt>
      <trkpt lat="45.98311" lon="4.80332">
        <ele>227</ele>
        <time>2018-06-01T09:04:51Z</time>
      </trkpt>
      <trkpt lat="45.98308" lon="4.80341">
        <ele>226</ele>
        <time>2018-06-01T09:04:52Z</time>
      </trkpt>
      <trkpt lat="45.98307" lon="4.80351">
        <ele>226</ele>
        <time>2018-06-01T09:04:53Z</time>
      </trkpt>
      <trkpt lat="45.98304" lon="4.80363">
        <ele>225</ele>
        <time>2018-06-01T09:04:54Z</time>
      </trkpt>
      <trkpt lat="45.98302" lon="4.80373">
        <ele>225</ele>
        <time>2018-06-01T09:04:55Z</time>
      </trkpt>
      <trkpt lat="45.98299" lon="4.8038">
        <ele>225</ele>
        <time>2018-06-01T09:04:56Z</time>
      </trkpt>
      <trkpt lat="45.98296" lon="4.80391">
        <ele>224</ele>
        <time>2018-06-01T09:04:57Z</time>
      </trkpt>
      <trkpt lat="45.98294" lon="4.80399">
        <ele>224</ele>
        <time>2018-06-01T09:04:58Z</time>
      </trkpt>
      <trkpt lat="45.98293" lon="4.80412">
        <ele>224</ele>
        <time>2018-06-01T09:04:59Z</time>
      </trkpt>
      <trkpt lat="45.9829" lon="4.80422">
        <ele>224</ele>
        <time>2018-06-01T09:05:00Z</time>
      </trkpt>
      <trkpt lat="45.9829" lon="4.80432">
        <ele>224</ele>
        <time>2018-06-01T09:05:01Z</time>
      </trkpt>
      <trkpt lat="45.98288" lon="4.80442">
        <ele>224</ele>
        <time>2018-06-01T09:05:02Z</time>
      </trkpt>
      <trkpt lat="45.98284" lon="4.80451">
        <ele>223</ele>
        <time>2018-06-01T09:05:03Z</time>
      </trkpt>
      <trkpt lat="45.98281" lon="4.80465">
        <ele>223</ele>
        <time>2018-06-01T09:05:04Z</time>
      </trkpt>
      <trkpt lat="45.9828" lon="4.80472">
        <ele>223</ele>
        <time>2018-06-01T09:05:05Z</time>
      </trkpt>
      <trkpt lat="45.98278" lon="4.80483">
        <ele>223</ele>
        <time>2018-06-01T09:05:06Z</time>
      </trkpt>
      <trkpt lat="45.98279" lon="4.80494">
        <ele>223</ele>
        <time>2018-06-01T09:05:07Z</time>
      </trkpt>
      <trkpt lat="45.98272" lon="4.80501">
        <ele>223</ele>
        <time>2018-06-01T09:05:08Z</time>
      </trkpt>
      <trkpt lat="45.98268" lon="4.80509">
        <ele>223</ele>
        <time>2018-06-01T09:05:09Z</time>
      </trkpt>
      <trkpt lat="45.98266" lon="4.8052">
        <ele>223</ele>
        <time>2018-06-01T09:05:10Z</time>
      </trkpt>
      <trkpt lat="45.98264" lon="4.80529">
        <ele>224</ele>
        <time>2018-06-01T09:05:11Z</time>
      </trkpt>
      <trkpt lat="45.98262" lon="4.80537">
        <ele>224</ele>
        <time>2018-06-01T09:05:12Z</time>
      </trkpt>
      <trkpt lat="45.98259" lon="4.80542">
        <ele>224</ele>
        <time>2018-06-01T09:05:13Z</time>
      </trkpt>
      <trkpt lat="45.98257" lon="4.80549">
        <ele>224</ele>
        <time>2018-06-01T09:05:14Z</time>
      </trkpt>
      <trkpt lat="45.98255" lon="4.80558">
        <ele>224</ele>
        <time>2018-06-01T09:05:15Z</time>
      </trkpt>
      <trkpt lat="45.98254" lon="4.80568">
        <ele>224</ele>
        <time>2018-06-01T09:05:16Z</time>
      </trkpt>
      <trkpt lat="45.98251" lon="4.80577">
        <ele>224</ele>
        <time>2018-06-01T09:05:17Z</time>
      </trkpt>
      <trkpt lat="45.98249" lon="4.80585">
        <ele>224</ele>
        <time>2018-06-01T09:05:18Z</time>
      </trkpt>
      <trkpt lat="45.98247" lon="4.80593">
        <ele>224</ele>
        <time>2018-06-01T09:05:19Z</time>
      </trkpt>
      <trkpt lat="45.98244" lon="4.80601">
        <ele>224</ele>
        <time>2018-06-01T09:05:20Z</time>
      </trkpt>
      <trkpt lat="45.98241" lon="4.8061">
        <ele>224</ele>
        <time>2018-06-01T09:05:21Z</time>
      </trkpt>
      <trkpt lat="45.98239" lon="4.80618">
        <ele>224</ele>
        <time>2018-06-01T09:05:22Z</time>
      </trkpt>
      <trkpt lat="45.98236" lon="4.80627">
        <ele>224</ele>
        <time>2018-06-01T09:05:23Z</time>
      </trkpt>
      <trkpt lat="45.98232" lon="4.80634">
        <ele>224</ele>
        <time>2018-06-01T09:05:24Z</time>
      </trkpt>
      <trkpt lat="45.9823" lon="4.80641">
        <ele>224</ele>
        <time>2018-06-01T09:05:25Z</time>
      </trkpt>
      <trkpt lat="45.98227" lon="4.80648">
        <ele>224</ele>
        <time>2018-06-01T09:05:26Z</time>
      </trkpt>
      <trkpt lat="45.98224" lon="4.80655">
        <ele>224</ele>
        <time>2018-06-01T09:05:27Z</time>
      </trkpt>
      <trkpt lat="45.98221" lon="4.80661">
        <ele>224</ele>
        <time>2018-06-01T09:05:28Z</time>
      </trkpt>
      <trkpt lat="45.98218" lon="4.80665">
        <ele>224</ele>
        <time>2018-06-01T09:05:29Z</time>
      </trkpt>
      <trkpt lat="45.98214" lon="4.80669">
        <ele>224</ele>
        <time>2018-06-01T09:05:30Z</time>
      </trkpt>
      <trkpt lat="45.98209" lon="4.80671">
        <ele>224</ele>
        <time>2018-06-01T09:05:31Z</time>
      </trkpt>
      <trkpt lat="45.98205" lon="4.80675">
        <ele>224</ele>
        <time>2018-06-01T09:05:32Z</time>
      </trkpt>
      <trkpt lat="45.982" lon="4.80677">
        <ele>225</ele>
        <time>2018-06-01T09:05:33Z</time>
      </trkpt>
      <trkpt lat="45.98193" lon="4.80678">
        <ele>225</ele>
        <time>2018-06-01T09:05:34Z</time>
      </trkpt>
      <trkpt lat="45.98187" lon="4.80681">
        <ele>225</ele>
        <time>2018-06-01T09:05:36Z</time>
      </trkpt>
      <trkpt lat="45.98183" lon="4.80681">
        <ele>225</ele>
        <time>2018-06-01T09:05:37Z</time>
      </trkpt>
      <trkpt lat="45.98175" lon="4.80681">
        <ele>225</ele>
        <time>2018-06-01T09:05:39Z</time>
      </trkpt>
      <trkpt lat="45.98166" lon="4.80686">
        <ele>227</ele>
        <time>2018-06-01T09:05:40Z</time>
      </trkpt>
      <trkpt lat="45.9816" lon="4.8069">
        <ele>227</ele>
        <time>2018-06-01T09:05:42Z</time>
      </trkpt>
      <trkpt lat="45.98154" lon="4.80689">
        <ele>227</ele>
        <time>2018-06-01T09:05:43Z</time>
      </trkpt>
      <trkpt lat="45.98146" lon="4.80688">
        <ele>228</ele>
        <time>2018-06-01T09:05:45Z</time>
      </trkpt>
      <trkpt lat="45.98142" lon="4.80687">
        <ele>228</ele>
        <time>2018-06-01T09:05:46Z</time>
      </trkpt>
      <trkpt lat="45.98137" lon="4.80687">
        <ele>228</ele>
        <time>2018-06-01T09:05:47Z</time>
      </trkpt>
      <trkpt lat="45.98132" lon="4.80687">
        <ele>228</ele>
        <time>2018-06-01T09:05:48Z</time>
      </trkpt>
      <trkpt lat="45.98124" lon="4.80687">
        <ele>228</ele>
        <time>2018-06-01T09:05:50Z</time>
      </trkpt>
      <trkpt lat="45.9812" lon="4.80686">
        <ele>228</ele>
        <time>2018-06-01T09:05:51Z</time>
      </trkpt>
      <trkpt lat="45.98112" lon="4.80686">
        <ele>228</ele>
        <time>2018-06-01T09:05:53Z</time>
      </trkpt>
      <trkpt lat="45.98107" lon="4.80685">
        <ele>228</ele>
        <time>2018-06-01T09:05:54Z</time>
      </trkpt>
      <trkpt lat="45.98103" lon="4.80685">
        <ele>228</ele>
        <time>2018-06-01T09:05:55Z</time>
      </trkpt>
      <trkpt lat="45.98098" lon="4.80686">
        <ele>228</ele>
        <time>2018-06-01T09:05:56Z</time>
      </trkpt>
      <trkpt lat="45.98092" lon="4.80689">
        <ele>228</ele>
        <time>2018-06-01T09:05:57Z</time>
      </trkpt>
      <trkpt lat="45.98087" lon="4.8069">
        <ele>228</ele>
        <time>2018-06-01T09:05:58Z</time>
      </trkpt>
      <trkpt lat="45.98079" lon="4.80688">
        <ele>229</ele>
        <time>2018-06-01T09:06:00Z</time>
      </trkpt>
      <trkpt lat="45.98075" lon="4.80687">
        <ele>229</ele>
        <time>2018-06-01T09:06:01Z</time>
      </trkpt>
      <trkpt lat="45.98068" lon="4.80687">
        <ele>230</ele>
        <time>2018-06-01T09:06:03Z</time>
      </trkpt>
      <trkpt lat="45.98064" lon="4.80687">
        <ele>230</ele>
        <time>2018-06-01T09:06:04Z</time>
      </trkpt>
      <trkpt lat="45.98055" lon="4.8069">
        <ele>230</ele>
        <time>2018-06-01T09:06:07Z</time>
      </trkpt>
      <trkpt lat="45.98049" lon="4.80692">
        <ele>230</ele>
        <time>2018-06-01T09:06:08Z</time>
      </trkpt>
      <trkpt lat="45.98041" lon="4.80694">
        <ele>230</ele>
        <time>2018-06-01T09:06:12Z</time>
      </trkpt>
      <trkpt lat="45.98038" lon="4.80695">
        <ele>230</ele>
        <time>2018-06-01T09:06:13Z</time>
      </trkpt>
      <trkpt lat="45.9803" lon="4.80699">
        <ele>230</ele>
        <time>2018-06-01T09:06:14Z</time>
      </trkpt>
      <trkpt lat="45.98029" lon="4.80701">
        <ele>231</ele>
        <time>2018-06-01T09:06:15Z</time>
      </trkpt>
      <trkpt lat="45.98029" lon="4.80712">
        <ele>231</ele>
        <time>2018-06-01T09:06:19Z</time>
      </trkpt>
      <trkpt lat="45.9803" lon="4.80715">
        <ele>231</ele>
        <time>2018-06-01T09:06:20Z</time>
      </trkpt>
      <trkpt lat="45.98033" lon="4.80724">
        <ele>231</ele>
        <time>2018-06-01T09:06:23Z</time>
      </trkpt>
      <trkpt lat="45.98034" lon="4.80727">
        <ele>231</ele>
        <time>2018-06-01T09:06:24Z</time>
      </trkpt>
      <trkpt lat="45.98036" lon="4.80736">
        <ele>231</ele>
        <time>2018-06-01T09:06:27Z</time>
      </trkpt>
      <trkpt lat="45.98037" lon="4.8074">
        <ele>231</ele>
        <time>2018-06-01T09:06:28Z</time>
      </trkpt>
      <trkpt lat="45.98039" lon="4.80751">
        <ele>233</ele>
        <time>2018-06-01T09:06:31Z</time>
      </trkpt>
      <trkpt lat="45.98039" lon="4.80756">
        <ele>233</ele>
        <time>2018-06-01T09:06:32Z</time>
      </trkpt>
      <trkpt lat="45.98041" lon="4.80765">
        <ele>233</ele>
        <time>2018-06-01T09:06:34Z</time>
      </trkpt>
      <trkpt lat="45.98042" lon="4.8077">
        <ele>233</ele>
        <time>2018-06-01T09:06:35Z</time>
      </trkpt>
      <trkpt lat="45.98044" lon="4.80779">
        <ele>233</ele>
        <time>2018-06-01T09:06:37Z</time>
      </trkpt>
      <trkpt lat="45.98045" lon="4.80783">
        <ele>233</ele>
        <time>2018-06-01T09:06:38Z</time>
      </trkpt>
      <trkpt lat="45.98049" lon="4.80798">
        <ele>234</ele>
        <time>2018-06-01T09:06:39Z</time>
      </trkpt>
      <trkpt lat="45.98051" lon="4.80806">
        <ele>234</ele>
        <time>2018-06-01T09:06:42Z</time>
      </trkpt>
      <trkpt lat="45.98054" lon="4.80817">
        <ele>234</ele>
        <time>2018-06-01T09:06:43Z</time>
      </trkpt>
      <trkpt lat="45.98056" lon="4.80828">
        <ele>234</ele>
        <time>2018-06-01T09:06:47Z</time>
      </trkpt>
      <trkpt lat="45.98057" lon="4.80831">
        <ele>234</ele>
        <time>2018-06-01T09:06:48Z</time>
      </trkpt>
      <trkpt lat="45.9806" lon="4.80842">
        <ele>236</ele>
        <time>2018-06-01T09:06:51Z</time>
      </trkpt>
      <trkpt lat="45.98061" lon="4.80846">
        <ele>236</ele>
        <time>2018-06-01T09:06:52Z</time>
      </trkpt>
      <trkpt lat="45.98064" lon="4.80857">
        <ele>236</ele>
        <time>2018-06-01T09:06:55Z</time>
      </trkpt>
      <trkpt lat="45.98065" lon="4.8086">
        <ele>236</ele>
        <time>2018-06-01T09:06:56Z</time>
      </trkpt>
      <trkpt lat="45.98068" lon="4.80871">
        <ele>237</ele>
        <time>2018-06-01T09:06:59Z</time>
      </trkpt>
      <trkpt lat="45.98069" lon="4.80875">
        <ele>237</ele>
        <time>2018-06-01T09:07:00Z</time>
      </trkpt>
      <trkpt lat="45.98072" lon="4.80886">
        <ele>237</ele>
        <time>2018-06-01T09:07:03Z</time>
      </trkpt>
      <trkpt lat="45.98073" lon="4.8089">
        <ele>238</ele>
        <time>2018-06-01T09:07:04Z</time>
      </trkpt>
      <trkpt lat="45.98075" lon="4.80902">
        <ele>238</ele>
        <time>2018-06-01T09:07:07Z</time>
      </trkpt>
      <trkpt lat="45.98075" lon="4.80905">
        <ele>238</ele>
        <time>2018-06-01T09:07:08Z</time>
      </trkpt>
      <trkpt lat="45.98077" lon="4.80917">
        <ele>239</ele>
        <time>2018-06-01T09:07:11Z</time>
      </trkpt>
      <trkpt lat="45.98077" lon="4.8092">
        <ele>239</ele>
        <time>2018-06-01T09:07:12Z</time>
      </trkpt>
      <trkpt lat="45.9808" lon="4.80931">
        <ele>240</ele>
        <time>2018-06-01T09:07:15Z</time>
      </trkpt>
      <trkpt lat="45.98081" lon="4.80934">
        <ele>240</ele>
        <time>2018-06-01T09:07:16Z</time>
      </trkpt>
      <trkpt lat="45.98085" lon="4.80944">
        <ele>238</ele>
        <time>2018-06-01T09:07:19Z</time>
      </trkpt>
      <trkpt lat="45.98086" lon="4.80947">
        <ele>238</ele>
        <time>2018-06-01T09:07:20Z</time>
      </trkpt>
      <trkpt lat="45.98089" lon="4.80958">
        <ele>239</ele>
        <time>2018-06-01T09:07:23Z</time>
      </trkpt>
      <trkpt lat="45.98089" lon="4.80961">
        <ele>239</ele>
        <time>2018-06-01T09:07:24Z</time>
      </trkpt>
      <trkpt lat="45.98092" lon="4.8097">
        <ele>239</ele>
        <time>2018-06-01T09:07:27Z</time>
      </trkpt>
      <trkpt lat="45.98093" lon="4.80973">
        <ele>239</ele>
        <time>2018-06-01T09:07:28Z</time>
      </trkpt>
      <trkpt lat="45.98095" lon="4.80982">
        <ele>240</ele>
        <time>2018-06-01T09:07:31Z</time>
      </trkpt>
      <trkpt lat="45.98095" lon="4.80986">
        <ele>240</ele>
        <time>2018-06-01T09:07:32Z</time>
      </trkpt>
      <trkpt lat="45.98098" lon="4.80996">
        <ele>240</ele>
        <time>2018-06-01T09:07:34Z</time>
      </trkpt>
      <trkpt lat="45.98102" lon="4.81009">
        <ele>242</ele>
        <time>2018-06-01T09:07:35Z</time>
      </trkpt>
      <trkpt lat="45.98106" lon="4.81018">
        <ele>242</ele>
        <time>2018-06-01T09:07:36Z</time>
      </trkpt>
      <trkpt lat="45.98107" lon="4.81023">
        <ele>242</ele>
        <time>2018-06-01T09:07:37Z</time>
      </trkpt>
      <trkpt lat="45.98111" lon="4.81034">
        <ele>242</ele>
        <time>2018-06-01T09:07:39Z</time>
      </trkpt>
      <trkpt lat="45.98112" lon="4.81041">
        <ele>242</ele>
        <time>2018-06-01T09:07:40Z</time>
      </trkpt>
      <trkpt lat="45.98115" lon="4.81052">
        <ele>243</ele>
        <time>2018-06-01T09:07:42Z</time>
      </trkpt>
      <trkpt lat="45.98117" lon="4.81058">
        <ele>243</ele>
        <time>2018-06-01T09:07:43Z</time>
      </trkpt>
      <trkpt lat="45.9812" lon="4.81067">
        <ele>243</ele>
        <time>2018-06-01T09:07:45Z</time>
      </trkpt>
      <trkpt lat="45.98123" lon="4.81074">
        <ele>243</ele>
        <time>2018-06-01T09:07:46Z</time>
      </trkpt>
      <trkpt lat="45.98127" lon="4.81084">
        <ele>245</ele>
        <time>2018-06-01T09:07:48Z</time>
      </trkpt>
      <trkpt lat="45.98129" lon="4.81089">
        <ele>245</ele>
        <time>2018-06-01T09:07:49Z</time>
      </trkpt>
      <trkpt lat="45.98132" lon="4.81098">
        <ele>245</ele>
        <time>2018-06-01T09:07:51Z</time>
      </trkpt>
      <trkpt lat="45.98134" lon="4.81104">
        <ele>245</ele>
        <time>2018-06-01T09:07:52Z</time>
      </trkpt>
      <trkpt lat="45.98135" lon="4.81108">
        <ele>245</ele>
        <time>2018-06-01T09:07:53Z</time>
      </trkpt>
      <trkpt lat="45.9814" lon="4.81115">
        <ele>245</ele>
        <time>2018-06-01T09:07:54Z</time>
      </trkpt>
      <trkpt lat="45.98145" lon="4.81124">
        <ele>245</ele>
        <time>2018-06-01T09:07:56Z</time>
      </trkpt>
      <trkpt lat="45.98149" lon="4.8113">
        <ele>245</ele>
        <time>2018-06-01T09:07:57Z</time>
      </trkpt>
      <trkpt lat="45.98151" lon="4.81136">
        <ele>245</ele>
        <time>2018-06-01T09:07:58Z</time>
      </trkpt>
      <trkpt lat="45.98154" lon="4.81142">
        <ele>245</ele>
        <time>2018-06-01T09:07:59Z</time>
      </trkpt>
      <trkpt lat="45.98157" lon="4.81153">
        <ele>245</ele>
        <time>2018-06-01T09:08:01Z</time>
      </trkpt>
      <trkpt lat="45.9816" lon="4.81158">
        <ele>245</ele>
        <time>2018-06-01T09:08:02Z</time>
      </trkpt>
      <trkpt lat="45.98162" lon="4.81163">
        <ele>245</ele>
        <time>2018-06-01T09:08:03Z</time>
      </trkpt>
      <trkpt lat="45.98166" lon="4.81169">
        <ele>245</ele>
        <time>2018-06-01T09:08:04Z</time>
      </trkpt>
      <trkpt lat="45.98168" lon="4.81181">
        <ele>245</ele>
        <time>2018-06-01T09:08:06Z</time>
      </trkpt>
      <trkpt lat="45.98169" lon="4.81188">
        <ele>245</ele>
        <time>2018-06-01T09:08:07Z</time>
      </trkpt>
      <trkpt lat="45.9817" lon="4.81194">
        <ele>245</ele>
        <time>2018-06-01T09:08:08Z</time>
      </trkpt>
      <trkpt lat="45.98172" lon="4.81201">
        <ele>245</ele>
        <time>2018-06-01T09:08:09Z</time>
      </trkpt>
      <trkpt lat="45.98173" lon="4.81207">
        <ele>245</ele>
        <time>2018-06-01T09:08:10Z</time>
      </trkpt>
      <trkpt lat="45.98175" lon="4.81213">
        <ele>246</ele>
        <time>2018-06-01T09:08:11Z</time>
      </trkpt>
      <trkpt lat="45.98177" lon="4.8122">
        <ele>246</ele>
        <time>2018-06-01T09:08:12Z</time>
      </trkpt>
      <trkpt lat="45.98179" lon="4.81227">
        <ele>246</ele>
        <time>2018-06-01T09:08:13Z</time>
      </trkpt>
      <trkpt lat="45.9818" lon="4.81238">
        <ele>246</ele>
        <time>2018-06-01T09:08:15Z</time>
      </trkpt>
      <trkpt lat="45.98178" lon="4.81243">
        <ele>247</ele>
        <time>2018-06-01T09:08:16Z</time>
      </trkpt>
      <trkpt lat="45.98181" lon="4.81254">
        <ele>247</ele>
        <time>2018-06-01T09:08:18Z</time>
      </trkpt>
      <trkpt lat="45.98181" lon="4.81259">
        <ele>247</ele>
        <time>2018-06-01T09:08:19Z</time>
      </trkpt>
      <trkpt lat="45.98183" lon="4.81271">
        <ele>247</ele>
        <time>2018-06-01T09:08:21Z</time>
      </trkpt>
      <trkpt lat="45.98184" lon="4.81277">
        <ele>247</ele>
        <time>2018-06-01T09:08:22Z</time>
      </trkpt>
      <trkpt lat="45.98183" lon="4.81284">
        <ele>247</ele>
        <time>2018-06-01T09:08:24Z</time>
      </trkpt>
      <trkpt lat="45.98184" lon="4.8129">
        <ele>247</ele>
        <time>2018-06-01T09:08:25Z</time>
      </trkpt>
      <trkpt lat="45.98185" lon="4.81296">
        <ele>247</ele>
        <time>2018-06-01T09:08:26Z</time>
      </trkpt>
      <trkpt lat="45.98187" lon="4.81303">
        <ele>247</ele>
        <time>2018-06-01T09:08:27Z</time>
      </trkpt>
      <trkpt lat="45.98188" lon="4.81315">
        <ele>247</ele>
        <time>2018-06-01T09:08:29Z</time>
      </trkpt>
      <trkpt lat="45.9819" lon="4.81322">
        <ele>247</ele>
        <time>2018-06-01T09:08:30Z</time>
      </trkpt>
      <trkpt lat="45.98191" lon="4.81328">
        <ele>247</ele>
        <time>2018-06-01T09:08:31Z</time>
      </trkpt>
      <trkpt lat="45.98192" lon="4.81335">
        <ele>248</ele>
        <time>2018-06-01T09:08:32Z</time>
      </trkpt>
      <trkpt lat="45.98195" lon="4.81346">
        <ele>248</ele>
        <time>2018-06-01T09:08:34Z</time>
      </trkpt>
      <trkpt lat="45.98198" lon="4.81354">
        <ele>248</ele>
        <time>2018-06-01T09:08:35Z</time>
      </trkpt>
      <trkpt lat="45.98201" lon="4.81364">
        <ele>248</ele>
        <time>2018-06-01T09:08:37Z</time>
      </trkpt>
      <trkpt lat="45.98202" lon="4.8137">
        <ele>248</ele>
        <time>2018-06-01T09:08:38Z</time>
      </trkpt>
      <trkpt lat="45.98206" lon="4.81381">
        <ele>248</ele>
        <time>2018-06-01T09:08:40Z</time>
      </trkpt>
      <trkpt lat="45.98207" lon="4.81388">
        <ele>248</ele>
        <time>2018-06-01T09:08:41Z</time>
      </trkpt>
      <trkpt lat="45.9821" lon="4.81399">
        <ele>248</ele>
        <time>2018-06-01T09:08:43Z</time>
      </trkpt>
      <trkpt lat="45.98212" lon="4.81405">
        <ele>248</ele>
        <time>2018-06-01T09:08:44Z</time>
      </trkpt>
      <trkpt lat="45.98216" lon="4.81416">
        <ele>248</ele>
        <time>2018-06-01T09:08:46Z</time>
      </trkpt>
      <trkpt lat="45.98219" lon="4.81422">
        <ele>249</ele>
        <time>2018-06-01T09:08:47Z</time>
      </trkpt>
      <trkpt lat="45.9822" lon="4.81429">
        <ele>249</ele>
        <time>2018-06-01T09:08:48Z</time>
      </trkpt>
      <trkpt lat="45.98222" lon="4.81435">
        <ele>249</ele>
        <time>2018-06-01T09:08:49Z</time>
      </trkpt>
      <trkpt lat="45.98225" lon="4.81441">
        <ele>249</ele>
        <time>2018-06-01T09:08:50Z</time>
      </trkpt>
      <trkpt lat="45.98228" lon="4.81446">
        <ele>249</ele>
        <time>2018-06-01T09:08:51Z</time>
      </trkpt>
      <trkpt lat="45.9823" lon="4.81453">
        <ele>249</ele>
        <time>2018-06-01T09:08:52Z</time>
      </trkpt>
      <trkpt lat="45.98232" lon="4.8146">
        <ele>249</ele>
        <time>2018-06-01T09:08:53Z</time>
      </trkpt>
      <trkpt lat="45.98234" lon="4.81466">
        <ele>249</ele>
        <time>2018-06-01T09:08:54Z</time>
      </trkpt>
      <trkpt lat="45.98236" lon="4.81473">
        <ele>249</ele>
        <time>2018-06-01T09:08:55Z</time>
      </trkpt>
      <trkpt lat="45.98239" lon="4.8148">
        <ele>249</ele>
        <time>2018-06-01T09:08:56Z</time>
      </trkpt>
      <trkpt lat="45.98241" lon="4.81486">
        <ele>249</ele>
        <time>2018-06-01T09:08:57Z</time>
      </trkpt>
      <trkpt lat="45.98242" lon="4.81494">
        <ele>249</ele>
        <time>2018-06-01T09:08:58Z</time>
      </trkpt>
      <trkpt lat="45.98244" lon="4.81502">
        <ele>249</ele>
        <time>2018-06-01T09:08:59Z</time>
      </trkpt>
      <trkpt lat="45.98246" lon="4.81509">
        <ele>249</ele>
        <time>2018-06-01T09:09:00Z</time>
      </trkpt>
      <trkpt lat="45.98249" lon="4.81517">
        <ele>249</ele>
        <time>2018-06-01T09:09:01Z</time>
      </trkpt>
      <trkpt lat="45.98252" lon="4.81524">
        <ele>247</ele>
        <time>2018-06-01T09:09:02Z</time>
      </trkpt>
      <trkpt lat="45.98255" lon="4.81532">
        <ele>247</ele>
        <time>2018-06-01T09:09:03Z</time>
      </trkpt>
      <trkpt lat="45.98258" lon="4.81541">
        <ele>247</ele>
        <time>2018-06-01T09:09:04Z</time>
      </trkpt>
      <trkpt lat="45.9826" lon="4.8155">
        <ele>247</ele>
        <time>2018-06-01T09:09:05Z</time>
      </trkpt>
      <trkpt lat="45.98262" lon="4.81558">
        <ele>247</ele>
        <time>2018-06-01T09:09:06Z</time>
      </trkpt>
      <trkpt lat="45.98265" lon="4.81565">
        <ele>247</ele>
        <time>2018-06-01T09:09:07Z</time>
      </trkpt>
      <trkpt lat="45.98268" lon="4.81572">
        <ele>247</ele>
        <time>2018-06-01T09:09:08Z</time>
      </trkpt>
      <trkpt lat="45.9827" lon="4.81581">
        <ele>247</ele>
        <time>2018-06-01T09:09:09Z</time>
      </trkpt>
      <trkpt lat="45.98273" lon="4.81587">
        <ele>247</ele>
        <time>2018-06-01T09:09:10Z</time>
      </trkpt>
      <trkpt lat="45.98275" lon="4.81595">
        <ele>247</ele>
        <time>2018-06-01T09:09:11Z</time>
      </trkpt>
      <trkpt lat="45.98278" lon="4.81604">
        <ele>247</ele>
        <time>2018-06-01T09:09:12Z</time>
      </trkpt>
      <trkpt lat="45.98281" lon="4.81612">
        <ele>247</ele>
        <time>2018-06-01T09:09:13Z</time>
      </trkpt>
      <trkpt lat="45.98284" lon="4.81618">
        <ele>247</ele>
        <time>2018-06-01T09:09:14Z</time>
      </trkpt>
      <trkpt lat="45.98288" lon="4.81624">
        <ele>247</ele>
        <time>2018-06-01T09:09:15Z</time>
      </trkpt>
      <trkpt lat="45.98293" lon="4.81632">
        <ele>247</ele>
        <time>2018-06-01T09:09:17Z</time>
      </trkpt>
      <trkpt lat="45.98298" lon="4.81637">
        <ele>246</ele>
        <time>2018-06-01T09:09:18Z</time>
      </trkpt>
      <trkpt lat="45.98302" lon="4.81641">
        <ele>246</ele>
        <time>2018-06-01T09:09:19Z</time>
      </trkpt>
      <trkpt lat="45.98307" lon="4.81646">
        <ele>246</ele>
        <time>2018-06-01T09:09:20Z</time>
      </trkpt>
      <trkpt lat="45.98312" lon="4.81651">
        <ele>246</ele>
        <time>2018-06-01T09:09:21Z</time>
      </trkpt>
      <trkpt lat="45.98317" lon="4.81657">
        <ele>246</ele>
        <time>2018-06-01T09:09:22Z</time>
      </trkpt>
      <trkpt lat="45.98321" lon="4.81662">
        <ele>246</ele>
        <time>2018-06-01T09:09:23Z</time>
      </trkpt>
      <trkpt lat="45.98327" lon="4.81665">
        <ele>246</ele>
        <time>2018-06-01T09:09:24Z</time>
      </trkpt>
      <trkpt lat="45.98332" lon="4.81668">
        <ele>246</ele>
        <time>2018-06-01T09:09:25Z</time>
      </trkpt>
      <trkpt lat="45.98338" lon="4.81671">
        <ele>246</ele>
        <time>2018-06-01T09:09:26Z</time>
      </trkpt>
      <trkpt lat="45.98342" lon="4.81672">
        <ele>245</ele>
        <time>2018-06-01T09:09:27Z</time>
      </trkpt>
      <trkpt lat="45.98348" lon="4.81672">
        <ele>245</ele>
        <time>2018-06-01T09:09:28Z</time>
      </trkpt>
      <trkpt lat="45.98354" lon="4.81674">
        <ele>245</ele>
        <time>2018-06-01T09:09:29Z</time>
      </trkpt>
      <trkpt lat="45.9836" lon="4.81674">
        <ele>244</ele>
        <time>2018-06-01T09:09:30Z</time>
      </trkpt>
      <trkpt lat="45.98367" lon="4.81675">
        <ele>244</ele>
        <time>2018-06-01T09:09:31Z</time>
      </trkpt>
      <trkpt lat="45.98372" lon="4.81672">
        <ele>244</ele>
        <time>2018-06-01T09:09:32Z</time>
      </trkpt>
      <trkpt lat="45.98378" lon="4.81671">
        <ele>244</ele>
        <time>2018-06-01T09:09:33Z</time>
      </trkpt>
      <trkpt lat="45.98384" lon="4.81669">
        <ele>243</ele>
        <time>2018-06-01T09:09:34Z</time>
      </trkpt>
      <trkpt lat="45.9839" lon="4.81667">
        <ele>243</ele>
        <time>2018-06-01T09:09:35Z</time>
      </trkpt>
      <trkpt lat="45.98396" lon="4.81665">
        <ele>242</ele>
        <time>2018-06-01T09:09:36Z</time>
      </trkpt>
      <trkpt lat="45.98403" lon="4.81664">
        <ele>242</ele>
        <time>2018-06-01T09:09:37Z</time>
      </trkpt>
      <trkpt lat="45.98408" lon="4.81662">
        <ele>241</ele>
        <time>2018-06-01T09:09:38Z</time>
      </trkpt>
      <trkpt lat="45.98415" lon="4.81661">
        <ele>241</ele>
        <time>2018-06-01T09:09:39Z</time>
      </trkpt>
      <trkpt lat="45.9842" lon="4.81661">
        <ele>240</ele>
        <time>2018-06-01T09:09:40Z</time>
      </trkpt>
      <trkpt lat="45.98426" lon="4.81663">
        <ele>240</ele>
        <time>2018-06-01T09:09:41Z</time>
      </trkpt>
      <trkpt lat="45.98432" lon="4.81666">
        <ele>239</ele>
        <time>2018-06-01T09:09:42Z</time>
      </trkpt>
      <trkpt lat="45.98438" lon="4.81668">
        <ele>240</ele>
        <time>2018-06-01T09:09:43Z</time>
      </trkpt>
      <trkpt lat="45.98443" lon="4.81672">
        <ele>239</ele>
        <time>2018-06-01T09:09:44Z</time>
      </trkpt>
      <trkpt lat="45.98447" lon="4.8168">
        <ele>239</ele>
        <time>2018-06-01T09:09:45Z</time>
      </trkpt>
      <trkpt lat="45.98451" lon="4.81687">
        <ele>239</ele>
        <time>2018-06-01T09:09:46Z</time>
      </trkpt>
      <trkpt lat="45.98455" lon="4.81693">
        <ele>239</ele>
        <time>2018-06-01T09:09:47Z</time>
      </trkpt>
      <trkpt lat="45.98457" lon="4.817">
        <ele>239</ele>
        <time>2018-06-01T09:09:48Z</time>
      </trkpt>
      <trkpt lat="45.9846" lon="4.81707">
        <ele>239</ele>
        <time>2018-06-01T09:09:49Z</time>
      </trkpt>
      <trkpt lat="45.98465" lon="4.81714">
        <ele>239</ele>
        <time>2018-06-01T09:09:50Z</time>
      </trkpt>
      <trkpt lat="45.98471" lon="4.81722">
        <ele>239</ele>
        <time>2018-06-01T09:09:51Z</time>
      </trkpt>
      <trkpt lat="45.98476" lon="4.81728">
        <ele>239</ele>
        <time>2018-06-01T09:09:52Z</time>
      </trkpt>
      <trkpt lat="45.98483" lon="4.81734">
        <ele>238</ele>
        <time>2018-06-01T09:09:53Z</time>
      </trkpt>
      <trkpt lat="45.9849" lon="4.8174">
        <ele>238</ele>
        <time>2018-06-01T09:09:54Z</time>
      </trkpt>
      <trkpt lat="45.98497" lon="4.81747">
        <ele>237</ele>
        <time>2018-06-01T09:09:55Z</time>
      </trkpt>
      <trkpt lat="45.98503" lon="4.81753">
        <ele>237</ele>
        <time>2018-06-01T09:09:56Z</time>
      </trkpt>
      <trkpt lat="45.98509" lon="4.81761">
        <ele>237</ele>
        <time>2018-06-01T09:09:57Z</time>
      </trkpt>
      <trkpt lat="45.98516" lon="4.8177">
        <ele>238</ele>
        <time>2018-06-01T09:09:58Z</time>
      </trkpt>
      <trkpt lat="45.98522" lon="4.81776">
        <ele>238</ele>
        <time>2018-06-01T09:09:59Z</time>
      </trkpt>
      <trkpt lat="45.98529" lon="4.81784">
        <ele>238</ele>
        <time>2018-06-01T09:10:00Z</time>
      </trkpt>
      <trkpt lat="45.98535" lon="4.81792">
        <ele>238</ele>
        <time>2018-06-01T09:10:01Z</time>
      </trkpt>
      <trkpt lat="45.9854" lon="4.81798">
        <ele>238</ele>
        <time>2018-06-01T09:10:02Z</time>
      </trkpt>
      <trkpt lat="45.98547" lon="4.81803">
        <ele>238</ele>
        <time>2018-06-01T09:10:03Z</time>
      </trkpt>
      <trkpt lat="45.98555" lon="4.81802">
        <ele>238</ele>
        <time>2018-06-01T09:10:04Z</time>
      </trkpt>
      <trkpt lat="45.9856" lon="4.818">
        <ele>238</ele>
        <time>2018-06-01T09:10:05Z</time>
      </trkpt>
      <trkpt lat="45.98567" lon="4.81791">
        <ele>238</ele>
        <time>2018-06-01T09:10:06Z</time>
      </trkpt>
      <trkpt lat="45.98571" lon="4.81784">
        <ele>238</ele>
        <time>2018-06-01T09:10:07Z</time>
      </trkpt>
      <trkpt lat="45.98575" lon="4.81778">
        <ele>238</ele>
        <time>2018-06-01T09:10:08Z</time>
      </trkpt>
      <trkpt lat="45.98579" lon="4.81772">
        <ele>237</ele>
        <time>2018-06-01T09:10:09Z</time>
      </trkpt>
      <trkpt lat="45.98583" lon="4.81767">
        <ele>237</ele>
        <time>2018-06-01T09:10:10Z</time>
      </trkpt>
      <trkpt lat="45.98589" lon="4.81763">
        <ele>237</ele>
        <time>2018-06-01T09:10:11Z</time>
      </trkpt>
      <trkpt lat="45.98594" lon="4.81758">
        <ele>237</ele>
        <time>2018-06-01T09:10:12Z</time>
      </trkpt>
      <trkpt lat="45.986" lon="4.81756">
        <ele>237</ele>
        <time>2018-06-01T09:10:13Z</time>
      </trkpt>
      <trkpt lat="45.98605" lon="4.81754">
        <ele>238</ele>
        <time>2018-06-01T09:10:14Z</time>
      </trkpt>
      <trkpt lat="45.98611" lon="4.81754">
        <ele>238</ele>
        <time>2018-06-01T09:10:15Z</time>
      </trkpt>
      <trkpt lat="45.98616" lon="4.81752">
        <ele>238</ele>
        <time>2018-06-01T09:10:16Z</time>
      </trkpt>
      <trkpt lat="45.98622" lon="4.8175">
        <ele>238</ele>
        <time>2018-06-01T09:10:17Z</time>
      </trkpt>
      <trkpt lat="45.98627" lon="4.81749">
        <ele>237</ele>
        <time>2018-06-01T09:10:18Z</time>
      </trkpt>
      <trkpt lat="45.98632" lon="4.81748">
        <ele>237</ele>
        <time>2018-06-01T09:10:19Z</time>
      </trkpt>
      <trkpt lat="45.98638" lon="4.81746">
        <ele>237</ele>
        <time>2018-06-01T09:10:20Z</time>
      </trkpt>
      <trkpt lat="45.98642" lon="4.81744">
        <ele>237</ele>
        <time>2018-06-01T09:10:21Z</time>
      </trkpt>
      <trkpt lat="45.98648" lon="4.81743">
        <ele>237</ele>
        <time>2018-06-01T09:10:22Z</time>
      </trkpt>
      <trkpt lat="45.98653" lon="4.81742">
        <ele>237</ele>
        <time>2018-06-01T09:10:23Z</time>
      </trkpt>
      <trkpt lat="45.98658" lon="4.81738">
        <ele>237</ele>
        <time>2018-06-01T09:10:24Z</time>
      </trkpt>
      <trkpt lat="45.98663" lon="4.81737">
        <ele>237</ele>
        <time>2018-06-01T09:10:25Z</time>
      </trkpt>
      <trkpt lat="45.98668" lon="4.81735">
        <ele>238</ele>
        <time>2018-06-01T09:10:26Z</time>
      </trkpt>
      <trkpt lat="45.98675" lon="4.81733">
        <ele>238</ele>
        <time>2018-06-01T09:10:27Z</time>
      </trkpt>
      <trkpt lat="45.98681" lon="4.81733">
        <ele>238</ele>
        <time>2018-06-01T09:10:28Z</time>
      </trkpt>
      <trkpt lat="45.98687" lon="4.81733">
        <ele>238</ele>
        <time>2018-06-01T09:10:29Z</time>
      </trkpt>
      <trkpt lat="45.98694" lon="4.81733">
        <ele>238</ele>
        <time>2018-06-01T09:10:30Z</time>
      </trkpt>
      <trkpt lat="45.987" lon="4.81728">
        <ele>239</ele>
        <time>2018-06-01T09:10:31Z</time>
      </trkpt>
      <trkpt lat="45.98704" lon="4.81726">
        <ele>239</ele>
        <time>2018-06-01T09:10:32Z</time>
      </trkpt>
      <trkpt lat="45.9871" lon="4.81724">
        <ele>239</ele>
        <time>2018-06-01T09:10:33Z</time>
      </trkpt>
      <trkpt lat="45.98715" lon="4.81723">
        <ele>239</ele>
        <time>2018-06-01T09:10:34Z</time>
      </trkpt>
      <trkpt lat="45.9872" lon="4.81728">
        <ele>239</ele>
        <time>2018-06-01T09:10:35Z</time>
      </trkpt>
      <trkpt lat="45.98725" lon="4.81733">
        <ele>239</ele>
        <time>2018-06-01T09:10:36Z</time>
      </trkpt>
      <trkpt lat="45.98728" lon="4.8174">
        <ele>239</ele>
        <time>2018-06-01T09:10:37Z</time>
      </trkpt>
      <trkpt lat="45.98733" lon="4.81746">
        <ele>240</ele>
        <time>2018-06-01T09:10:38Z</time>
      </trkpt>
      <trkpt lat="45.98737" lon="4.81753">
        <ele>240</ele>
        <time>2018-06-01T09:10:39Z</time>
      </trkpt>
      <trkpt lat="45.98741" lon="4.8176">
        <ele>240</ele>
        <time>2018-06-01T09:10:40Z</time>
      </trkpt>
      <trkpt lat="45.98745" lon="4.81767">
        <ele>240</ele>
        <time>2018-06-01T09:10:41Z</time>
      </trkpt>
      <trkpt lat="45.98748" lon="4.81776">
        <ele>240</ele>
        <time>2018-06-01T09:10:42Z</time>
      </trkpt>
      <trkpt lat="45.98752" lon="4.81783">
        <ele>241</ele>
        <time>2018-06-01T09:10:43Z</time>
      </trkpt>
      <trkpt lat="45.98756" lon="4.81791">
        <ele>241</ele>
        <time>2018-06-01T09:10:44Z</time>
      </trkpt>
      <trkpt lat="45.98761" lon="4.81799">
        <ele>240</ele>
        <time>2018-06-01T09:10:45Z</time>
      </trkpt>
      <trkpt lat="45.98765" lon="4.81807">
        <ele>240</ele>
        <time>2018-06-01T09:10:46Z</time>
      </trkpt>
      <trkpt lat="45.9877" lon="4.81816">
        <ele>240</ele>
        <time>2018-06-01T09:10:47Z</time>
      </trkpt>
      <trkpt lat="45.98774" lon="4.81827">
        <ele>240</ele>
        <time>2018-06-01T09:10:48Z</time>
      </trkpt>
      <trkpt lat="45.98777" lon="4.81835">
        <ele>239</ele>
        <time>2018-06-01T09:10:49Z</time>
      </trkpt>
      <trkpt lat="45.98782" lon="4.81844">
        <ele>239</ele>
        <time>2018-06-01T09:10:50Z</time>
      </trkpt>
      <trkpt lat="45.98785" lon="4.81852">
        <ele>239</ele>
        <time>2018-06-01T09:10:51Z</time>
      </trkpt>
      <trkpt lat="45.98789" lon="4.8186">
        <ele>239</ele>
        <time>2018-06-01T09:10:52Z</time>
      </trkpt>
      <trkpt lat="45.98792" lon="4.8187">
        <ele>239</ele>
        <time>2018-06-01T09:10:53Z</time>
      </trkpt>
      <trkpt lat="45.98795" lon="4.81879">
        <ele>239</ele>
        <time>2018-06-01T09:10:54Z</time>
      </trkpt>
      <trkpt lat="45.98799" lon="4.81888">
        <ele>239</ele>
        <time>2018-06-01T09:10:55Z</time>
      </trkpt>
      <trkpt lat="45.98801" lon="4.81897">
        <ele>239</ele>
        <time>2018-06-01T09:10:56Z</time>
      </trkpt>
      <trkpt lat="45.98802" lon="4.81907">
        <ele>239</ele>
        <time>2018-06-01T09:10:57Z</time>
      </trkpt>
      <trkpt lat="45.98805" lon="4.81916">
        <ele>239</ele>
        <time>2018-06-01T09:10:58Z</time>
      </trkpt>
      <trkpt lat="45.98807" lon="4.81925">
        <ele>239</ele>
        <time>2018-06-01T09:10:59Z</time>
      </trkpt>
      <trkpt lat="45.9881" lon="4.81934">
        <ele>239</ele>
        <time>2018-06-01T09:11:00Z</time>
      </trkpt>
      <trkpt lat="45.98811" lon="4.81944">
        <ele>239</ele>
        <time>2018-06-01T09:11:01Z</time>
      </trkpt>
      <trkpt lat="45.98813" lon="4.81953">
        <ele>239</ele>
        <time>2018-06-01T09:11:02Z</time>
      </trkpt>
      <trkpt lat="45.98814" lon="4.81962">
        <ele>239</ele>
        <time>2018-06-01T09:11:03Z</time>
      </trkpt>
      <trkpt lat="45.98816" lon="4.81971">
        <ele>239</ele>
        <time>2018-06-01T09:11:04Z</time>
      </trkpt>
      <trkpt lat="45.98817" lon="4.8198">
        <ele>239</ele>
        <time>2018-06-01T09:11:05Z</time>
      </trkpt>
      <trkpt lat="45.98818" lon="4.81988">
        <ele>238</ele>
        <time>2018-06-01T09:11:06Z</time>
      </trkpt>
      <trkpt lat="45.98818" lon="4.81996">
        <ele>238</ele>
        <time>2018-06-01T09:11:07Z</time>
      </trkpt>
      <trkpt lat="45.9882" lon="4.82005">
        <ele>238</ele>
        <time>2018-06-01T09:11:08Z</time>
      </trkpt>
      <trkpt lat="45.98821" lon="4.82014">
        <ele>238</ele>
        <time>2018-06-01T09:11:09Z</time>
      </trkpt>
      <trkpt lat="45.98823" lon="4.82023">
        <ele>238</ele>
        <time>2018-06-01T09:11:10Z</time>
      </trkpt>
      <trkpt lat="45.98823" lon="4.82032">
        <ele>238</ele>
        <time>2018-06-01T09:11:11Z</time>
      </trkpt>
      <trkpt lat="45.98824" lon="4.8204">
        <ele>238</ele>
        <time>2018-06-01T09:11:12Z</time>
      </trkpt>
      <trkpt lat="45.98826" lon="4.82049">
        <ele>238</ele>
        <time>2018-06-01T09:11:13Z</time>
      </trkpt>
      <trkpt lat="45.98828" lon="4.82058">
        <ele>237</ele>
        <time>2018-06-01T09:11:14Z</time>
      </trkpt>
      <trkpt lat="45.9883" lon="4.82066">
        <ele>237</ele>
        <time>2018-06-01T09:11:15Z</time>
      </trkpt>
      <trkpt lat="45.9883" lon="4.82074">
        <ele>237</ele>
        <time>2018-06-01T09:11:16Z</time>
      </trkpt>
      <trkpt lat="45.98831" lon="4.82082">
        <ele>236</ele>
        <time>2018-06-01T09:11:17Z</time>
      </trkpt>
      <trkpt lat="45.98832" lon="4.8209">
        <ele>236</ele>
        <time>2018-06-01T09:11:18Z</time>
      </trkpt>
      <trkpt lat="45.98836" lon="4.82098">
        <ele>236</ele>
        <time>2018-06-01T09:11:19Z</time>
      </trkpt>
      <trkpt lat="45.98838" lon="4.82105">
        <ele>236</ele>
        <time>2018-06-01T09:11:20Z</time>
      </trkpt>
      <trkpt lat="45.98839" lon="4.82115">
        <ele>235</ele>
        <time>2018-06-01T09:11:21Z</time>
      </trkpt>
      <trkpt lat="45.98847" lon="4.8212">
        <ele>235</ele>
        <time>2018-06-01T09:11:22Z</time>
      </trkpt>
      <trkpt lat="45.98846" lon="4.82129">
        <ele>236</ele>
        <time>2018-06-01T09:11:23Z</time>
      </trkpt>
      <trkpt lat="45.98847" lon="4.82138">
        <ele>236</ele>
        <time>2018-06-01T09:11:24Z</time>
      </trkpt>
      <trkpt lat="45.98848" lon="4.82147">
        <ele>236</ele>
        <time>2018-06-01T09:11:25Z</time>
      </trkpt>
      <trkpt lat="45.98851" lon="4.82157">
        <ele>236</ele>
        <time>2018-06-01T09:11:26Z</time>
      </trkpt>
      <trkpt lat="45.98851" lon="4.82166">
        <ele>236</ele>
        <time>2018-06-01T09:11:27Z</time>
      </trkpt>
      <trkpt lat="45.98853" lon="4.82174">
        <ele>236</ele>
        <time>2018-06-01T09:11:28Z</time>
      </trkpt>
      <trkpt lat="45.98857" lon="4.82184">
        <ele>236</ele>
        <time>2018-06-01T09:11:29Z</time>
      </trkpt>
      <trkpt lat="45.9886" lon="4.82192">
        <ele>236</ele>
        <time>2018-06-01T09:11:30Z</time>
      </trkpt>
      <trkpt lat="45.98862" lon="4.822">
        <ele>236</ele>
        <time>2018-06-01T09:11:31Z</time>
      </trkpt>
      <trkpt lat="45.98866" lon="4.82207">
        <ele>236</ele>
        <time>2018-06-01T09:11:32Z</time>
      </trkpt>
      <trkpt lat="45.98869" lon="4.82212">
        <ele>236</ele>
        <time>2018-06-01T09:11:33Z</time>
      </trkpt>
      <trkpt lat="45.98872" lon="4.82221">
        <ele>236</ele>
        <time>2018-06-01T09:11:34Z</time>
      </trkpt>
      <trkpt lat="45.98875" lon="4.82228">
        <ele>236</ele>
        <time>2018-06-01T09:11:35Z</time>
      </trkpt>
      <trkpt lat="45.98878" lon="4.82235">
        <ele>236</ele>
        <time>2018-06-01T09:11:36Z</time>
      </trkpt>
      <trkpt lat="45.98881" lon="4.82242">
        <ele>236</ele>
        <time>2018-06-01T09:11:37Z</time>
      </trkpt>
      <trkpt lat="45.98884" lon="4.82249">
        <ele>236</ele>
        <time>2018-06-01T09:11:38Z</time>
      </trkpt>
      <trkpt lat="45.98888" lon="4.82254">
        <ele>236</ele>
        <time>2018-06-01T09:11:39Z</time>
      </trkpt>
      <trkpt lat="45.98892" lon="4.82261">
        <ele>236</ele>
        <time>2018-06-01T09:11:40Z</time>
      </trkpt>
      <trkpt lat="45.98896" lon="4.82267">
        <ele>236</ele>
        <time>2018-06-01T09:11:41Z</time>
      </trkpt>
      <trkpt lat="45.98899" lon="4.82273">
        <ele>236</ele>
        <time>2018-06-01T09:11:42Z</time>
      </trkpt>
      <trkpt lat="45.98902" lon="4.82281">
        <ele>236</ele>
        <time>2018-06-01T09:11:43Z</time>
      </trkpt>
      <trkpt lat="45.98906" lon="4.82287">
        <ele>236</ele>
        <time>2018-06-01T09:11:44Z</time>
      </trkpt>
      <trkpt lat="45.98911" lon="4.82292">
        <ele>236</ele>
        <time>2018-06-01T09:11:45Z</time>
      </trkpt>
      <trkpt lat="45.98919" lon="4.82297">
        <ele>234</ele>
        <time>2018-06-01T09:11:46Z</time>
      </trkpt>
      <trkpt lat="45.98924" lon="4.82301">
        <ele>234</ele>
        <time>2018-06-01T09:11:47Z</time>
      </trkpt>
      <trkpt lat="45.9893" lon="4.82306">
        <ele>234</ele>
        <time>2018-06-01T09:11:48Z</time>
      </trkpt>
      <trkpt lat="45.98933" lon="4.82312">
        <ele>234</ele>
        <time>2018-06-01T09:11:49Z</time>
      </trkpt>
      <trkpt lat="45.98938" lon="4.82317">
        <ele>234</ele>
        <time>2018-06-01T09:11:50Z</time>
      </trkpt>
      <trkpt lat="45.98942" lon="4.82321">
        <ele>234</ele>
        <time>2018-06-01T09:11:51Z</time>
      </trkpt>
      <trkpt lat="45.98946" lon="4.82327">
        <ele>234</ele>
        <time>2018-06-01T09:11:52Z</time>
      </trkpt>
      <trkpt lat="45.98951" lon="4.82333">
        <ele>234</ele>
        <time>2018-06-01T09:11:53Z</time>
      </trkpt>
      <trkpt lat="45.98955" lon="4.8234">
        <ele>235</ele>
        <time>2018-06-01T09:11:54Z</time>
      </trkpt>
      <trkpt lat="45.98957" lon="4.82349">
        <ele>235</ele>
        <time>2018-06-01T09:11:55Z</time>
      </trkpt>
      <trkpt lat="45.98959" lon="4.82357">
        <ele>235</ele>
        <time>2018-06-01T09:11:56Z</time>
      </trkpt>
      <trkpt lat="45.98963" lon="4.82366">
        <ele>235</ele>
        <time>2018-06-01T09:11:57Z</time>
      </trkpt>
      <trkpt lat="45.98965" lon="4.82373">
        <ele>235</ele>
        <time>2018-06-01T09:11:58Z</time>
      </trkpt>
      <trkpt lat="45.98967" lon="4.82382">
        <ele>235</ele>
        <time>2018-06-01T09:11:59Z</time>
      </trkpt>
      <trkpt lat="45.98974" lon="4.82385">
        <ele>235</ele>
        <time>2018-06-01T09:12:00Z</time>
      </trkpt>
      <trkpt lat="45.98976" lon="4.82393">
        <ele>235</ele>
        <time>2018-06-01T09:12:01Z</time>
      </trkpt>
      <trkpt lat="45.98978" lon="4.82401">
        <ele>235</ele>
        <time>2018-06-01T09:12:02Z</time>
      </trkpt>
      <trkpt lat="45.9898" lon="4.82409">
        <ele>235</ele>
        <time>2018-06-01T09:12:03Z</time>
      </trkpt>
      <trkpt lat="45.9898" lon="4.82416">
        <ele>235</ele>
        <time>2018-06-01T09:12:04Z</time>
      </trkpt>
      <trkpt lat="45.98983" lon="4.82426">
        <ele>235</ele>
        <time>2018-06-01T09:12:05Z</time>
      </trkpt>
      <trkpt lat="45.98986" lon="4.82435">
        <ele>236</ele>
        <time>2018-06-01T09:12:06Z</time>
      </trkpt>
      <trkpt lat="45.98988" lon="4.82441">
        <ele>236</ele>
        <time>2018-06-01T09:12:07Z</time>
      </trkpt>
      <trkpt lat="45.9899" lon="4.8245">
        <ele>236</ele>
        <time>2018-06-01T09:12:08Z</time>
      </trkpt>
      <trkpt lat="45.98991" lon="4.82459">
        <ele>236</ele>
        <time>2018-06-01T09:12:09Z</time>
      </trkpt>
      <trkpt lat="45.98993" lon="4.82468">
        <ele>236</ele>
        <time>2018-06-01T09:12:10Z</time>
      </trkpt>
      <trkpt lat="45.98996" lon="4.82476">
        <ele>236</ele>
        <time>2018-06-01T09:12:11Z</time>
      </trkpt>
      <trkpt lat="45.99" lon="4.82484">
        <ele>235</ele>
        <time>2018-06-01T09:12:12Z</time>
      </trkpt>
      <trkpt lat="45.99001" lon="4.82492">
        <ele>235</ele>
        <time>2018-06-01T09:12:13Z</time>
      </trkpt>
      <trkpt lat="45.99004" lon="4.82499">
        <ele>235</ele>
        <time>2018-06-01T09:12:14Z</time>
      </trkpt>
      <trkpt lat="45.99008" lon="4.82508">
        <ele>235</ele>
        <time>2018-06-01T09:12:15Z</time>
      </trkpt>
      <trkpt lat="45.9901" lon="4.82515">
        <ele>235</ele>
        <time>2018-06-01T09:12:16Z</time>
      </trkpt>
      <trkpt lat="45.99013" lon="4.82522">
        <ele>235</ele>
        <time>2018-06-01T09:12:17Z</time>
      </trkpt>
      <trkpt lat="45.99017" lon="4.82529">
        <ele>235</ele>
        <time>2018-06-01T09:12:18Z</time>
      </trkpt>
      <trkpt lat="45.99021" lon="4.82536">
        <ele>235</ele>
        <time>2018-06-01T09:12:19Z</time>
      </trkpt>
      <trkpt lat="45.99025" lon="4.82539">
        <ele>235</ele>
        <time>2018-06-01T09:12:20Z</time>
      </trkpt>
      <trkpt lat="45.99028" lon="4.82544">
        <ele>235</ele>
        <time>2018-06-01T09:12:21Z</time>
      </trkpt>
      <trkpt lat="45.99035" lon="4.8255">
        <ele>235</ele>
        <time>2018-06-01T09:12:22Z</time>
      </trkpt>
      <trkpt lat="45.99039" lon="4.82555">
        <ele>235</ele>
        <time>2018-06-01T09:12:23Z</time>
      </trkpt>
      <trkpt lat="45.99045" lon="4.82559">
        <ele>235</ele>
        <time>2018-06-01T09:12:24Z</time>
      </trkpt>
      <trkpt lat="45.9905" lon="4.82563">
        <ele>235</ele>
        <time>2018-06-01T09:12:25Z</time>
      </trkpt>
      <trkpt lat="45.99055" lon="4.82566">
        <ele>235</ele>
        <time>2018-06-01T09:12:26Z</time>
      </trkpt>
      <trkpt lat="45.99059" lon="4.82568">
        <ele>235</ele>
        <time>2018-06-01T09:12:27Z</time>
      </trkpt>
      <trkpt lat="45.99064" lon="4.8257">
        <ele>235</ele>
        <time>2018-06-01T09:12:28Z</time>
      </trkpt>
      <trkpt lat="45.99069" lon="4.82571">
        <ele>235</ele>
        <time>2018-06-01T09:12:29Z</time>
      </trkpt>
      <trkpt lat="45.99073" lon="4.82574">
        <ele>235</ele>
        <time>2018-06-01T09:12:30Z</time>
      </trkpt>
      <trkpt lat="45.99076" lon="4.82585">
        <ele>235</ele>
        <time>2018-06-01T09:12:33Z</time>
      </trkpt>
      <trkpt lat="45.99076" lon="4.82589">
        <ele>235</ele>
        <time>2018-06-01T09:12:34Z</time>
      </trkpt>
      <trkpt lat="45.99073" lon="4.82598">
        <ele>235</ele>
        <time>2018-06-01T09:12:35Z</time>
      </trkpt>
      <trkpt lat="45.99071" lon="4.82603">
        <ele>236</ele>
        <time>2018-06-01T09:12:36Z</time>
      </trkpt>
      <trkpt lat="45.99068" lon="4.82613">
        <ele>236</ele>
        <time>2018-06-01T09:12:38Z</time>
      </trkpt>
      <trkpt lat="45.99067" lon="4.82618">
        <ele>236</ele>
        <time>2018-06-01T09:12:39Z</time>
      </trkpt>
      <trkpt lat="45.99063" lon="4.82625">
        <ele>236</ele>
        <time>2018-06-01T09:12:41Z</time>
      </trkpt>
      <trkpt lat="45.9906" lon="4.82629">
        <ele>236</ele>
        <time>2018-06-01T09:12:42Z</time>
      </trkpt>
      <trkpt lat="45.99056" lon="4.82638">
        <ele>236</ele>
        <time>2018-06-01T09:12:44Z</time>
      </trkpt>
      <trkpt lat="45.99054" lon="4.82642">
        <ele>236</ele>
        <time>2018-06-01T09:12:45Z</time>
      </trkpt>
      <trkpt lat="45.9905" lon="4.82652">
        <ele>236</ele>
        <time>2018-06-01T09:12:47Z</time>
      </trkpt>
      <trkpt lat="45.99048" lon="4.82656">
        <ele>236</ele>
        <time>2018-06-01T09:12:48Z</time>
      </trkpt>
      <trkpt lat="45.99046" lon="4.82661">
        <ele>236</ele>
        <time>2018-06-01T09:12:50Z</time>
      </trkpt>
      <trkpt lat="45.99043" lon="4.82669">
        <ele>238</ele>
        <time>2018-06-01T09:12:51Z</time>
      </trkpt>
      <trkpt lat="45.99039" lon="4.82678">
        <ele>238</ele>
        <time>2018-06-01T09:12:53Z</time>
      </trkpt>
      <trkpt lat="45.99037" lon="4.82682">
        <ele>238</ele>
        <time>2018-06-01T09:12:54Z</time>
      </trkpt>
      <trkpt lat="45.99033" lon="4.82691">
        <ele>238</ele>
        <time>2018-06-01T09:12:56Z</time>
      </trkpt>
      <trkpt lat="45.99032" lon="4.82693">
        <ele>238</ele>
        <time>2018-06-01T09:12:57Z</time>
      </trkpt>
      <trkpt lat="45.99028" lon="4.82702">
        <ele>238</ele>
        <time>2018-06-01T09:12:59Z</time>
      </trkpt>
      <trkpt lat="45.99027" lon="4.82704">
        <ele>238</ele>
        <time>2018-06-01T09:13:00Z</time>
      </trkpt>
      <trkpt lat="45.99023" lon="4.82713">
        <ele>239</ele>
        <time>2018-06-01T09:13:03Z</time>
      </trkpt>
      <trkpt lat="45.99021" lon="4.82717">
        <ele>239</ele>
        <time>2018-06-01T09:13:04Z</time>
      </trkpt>
      <trkpt lat="45.99016" lon="4.82727">
        <ele>239</ele>
        <time>2018-06-01T09:13:07Z</time>
      </trkpt>
      <trkpt lat="45.99014" lon="4.82731">
        <ele>239</ele>
        <time>2018-06-01T09:13:08Z</time>
      </trkpt>
      <trkpt lat="45.9901" lon="4.82741">
        <ele>240</ele>
        <time>2018-06-01T09:13:11Z</time>
      </trkpt>
      <trkpt lat="45.99008" lon="4.82745">
        <ele>240</ele>
        <time>2018-06-01T09:13:12Z</time>
      </trkpt>
      <trkpt lat="45.99005" lon="4.82755">
        <ele>241</ele>
        <time>2018-06-01T09:13:15Z</time>
      </trkpt>
      <trkpt lat="45.99004" lon="4.82759">
        <ele>241</ele>
        <time>2018-06-01T09:13:16Z</time>
      </trkpt>
      <trkpt lat="45.99" lon="4.8277">
        <ele>241</ele>
        <time>2018-06-01T09:13:19Z</time>
      </trkpt>
      <trkpt lat="45.98999" lon="4.82773">
        <ele>245</ele>
        <time>2018-06-01T09:13:20Z</time>
      </trkpt>
      <trkpt lat="45.98995" lon="4.82783">
        <ele>246</ele>
        <time>2018-06-01T09:13:23Z</time>
      </trkpt>
      <trkpt lat="45.98993" lon="4.82786">
        <ele>247</ele>
        <time>2018-06-01T09:13:24Z</time>
      </trkpt>
      <trkpt lat="45.98989" lon="4.82795">
        <ele>247</ele>
        <time>2018-06-01T09:13:27Z</time>
      </trkpt>
      <trkpt lat="45.98988" lon="4.82797">
        <ele>248</ele>
        <time>2018-06-01T09:13:28Z</time>
      </trkpt>
      <trkpt lat="45.98984" lon="4.82806">
        <ele>248</ele>
        <time>2018-06-01T09:13:31Z</time>
      </trkpt>
      <trkpt lat="45.98983" lon="4.82809">
        <ele>248</ele>
        <time>2018-06-01T09:13:32Z</time>
      </trkpt>
      <trkpt lat="45.98979" lon="4.82817">
        <ele>248</ele>
        <time>2018-06-01T09:13:35Z</time>
      </trkpt>
      <trkpt lat="45.98978" lon="4.8282">
        <ele>248</ele>
        <time>2018-06-01T09:13:36Z</time>
      </trkpt>
      <trkpt lat="45.98973" lon="4.82831">
        <ele>249</ele>
        <time>2018-06-01T09:13:40Z</time>
      </trkpt>
      <trkpt lat="45.98972" lon="4.82833">
        <ele>249</ele>
        <time>2018-06-01T09:13:41Z</time>
      </trkpt>
      <trkpt lat="45.98969" lon="4.82843">
        <ele>251</ele>
        <time>2018-06-01T09:13:44Z</time>
      </trkpt>
      <trkpt lat="45.98968" lon="4.82845">
        <ele>252</ele>
        <time>2018-06-01T09:13:45Z</time>
      </trkpt>
      <trkpt lat="45.98963" lon="4.82856">
        <ele>252</ele>
        <time>2018-06-01T09:13:49Z</time>
      </trkpt>
      <trkpt lat="45.98962" lon="4.82859">
        <ele>252</ele>
        <time>2018-06-01T09:13:50Z</time>
      </trkpt>
      <trkpt lat="45.98958" lon="4.82868">
        <ele>252</ele>
        <time>2018-06-01T09:13:53Z</time>
      </trkpt>
      <trkpt lat="45.98957" lon="4.82871">
        <ele>252</ele>
        <time>2018-06-01T09:13:54Z</time>
      </trkpt>
      <trkpt lat="45.98954" lon="4.82879">
        <ele>253</ele>
        <time>2018-06-01T09:13:57Z</time>
      </trkpt>
      <trkpt lat="45.98952" lon="4.82882">
        <ele>253</ele>
        <time>2018-06-01T09:13:58Z</time>
      </trkpt>
      <trkpt lat="45.98949" lon="4.82891">
        <ele>253</ele>
        <time>2018-06-01T09:14:01Z</time>
      </trkpt>
      <trkpt lat="45.98948" lon="4.82894">
        <ele>253</ele>
        <time>2018-06-01T09:14:02Z</time>
      </trkpt>
      <trkpt lat="45.98944" lon="4.82902">
        <ele>253</ele>
        <time>2018-06-01T09:14:05Z</time>
      </trkpt>
      <trkpt lat="45.98943" lon="4.82905">
        <ele>253</ele>
        <time>2018-06-01T09:14:06Z</time>
      </trkpt>
      <trkpt lat="45.98939" lon="4.82916">
        <ele>254</ele>
        <time>2018-06-01T09:14:10Z</time>
      </trkpt>
      <trkpt lat="45.98938" lon="4.82919">
        <ele>255</ele>
        <time>2018-06-01T09:14:11Z</time>
      </trkpt>
      <trkpt lat="45.98933" lon="4.82927">
        <ele>255</ele>
        <time>2018-06-01T09:14:14Z</time>
      </trkpt>
      <trkpt lat="45.98932" lon="4.82929">
        <ele>255</ele>
        <time>2018-06-01T09:14:15Z</time>
      </trkpt>
      <trkpt lat="45.98927" lon="4.8294">
        <ele>255</ele>
        <time>2018-06-01T09:14:19Z</time>
      </trkpt>
      <trkpt lat="45.98926" lon="4.82943">
        <ele>255</ele>
        <time>2018-06-01T09:14:20Z</time>
      </trkpt>
      <trkpt lat="45.98921" lon="4.82953">
        <ele>255</ele>
        <time>2018-06-01T09:14:24Z</time>
      </trkpt>
      <trkpt lat="45.9892" lon="4.82956">
        <ele>255</ele>
        <time>2018-06-01T09:14:25Z</time>
      </trkpt>
      <trkpt lat="45.98915" lon="4.82965">
        <ele>258</ele>
        <time>2018-06-01T09:14:29Z</time>
      </trkpt>
      <trkpt lat="45.98913" lon="4.82967">
        <ele>258</ele>
        <time>2018-06-01T09:14:30Z</time>
      </trkpt>
      <trkpt lat="45.98908" lon="4.82974">
        <ele>259</ele>
        <time>2018-06-01T09:14:33Z</time>
      </trkpt>
      <trkpt lat="45.98906" lon="4.82976">
        <ele>259</ele>
        <time>2018-06-01T09:14:34Z</time>
      </trkpt>
      <trkpt lat="45.98901" lon="4.82982">
        <ele>259</ele>
        <time>2018-06-01T09:14:37Z</time>
      </trkpt>
      <trkpt lat="45.98899" lon="4.82984">
        <ele>259</ele>
        <time>2018-06-01T09:14:38Z</time>
      </trkpt>
      <trkpt lat="45.98893" lon="4.82989">
        <ele>259</ele>
        <time>2018-06-01T09:14:41Z</time>
      </trkpt>
      <trkpt lat="45.9889" lon="4.82991">
        <ele>259</ele>
        <time>2018-06-01T09:14:42Z</time>
      </trkpt>
      <trkpt lat="45.98883" lon="4.82995">
        <ele>259</ele>
        <time>2018-06-01T09:14:45Z</time>
      </trkpt>
      <trkpt lat="45.9888" lon="4.82996">
        <ele>260</ele>
        <time>2018-06-01T09:14:46Z</time>
      </trkpt>
      <trkpt lat="45.98873" lon="4.83001">
        <ele>260</ele>
        <time>2018-06-01T09:14:49Z</time>
      </trkpt>
      <trkpt lat="45.98871" lon="4.83002">
        <ele>260</ele>
        <time>2018-06-01T09:14:50Z</time>
      </trkpt>
      <trkpt lat="45.98863" lon="4.83006">
        <ele>260</ele>
        <time>2018-06-01T09:14:54Z</time>
      </trkpt>
      <trkpt lat="45.98861" lon="4.83007">
        <ele>260</ele>
        <time>2018-06-01T09:14:55Z</time>
      </trkpt>
      <trkpt lat="45.98853" lon="4.8301">
        <ele>261</ele>
        <time>2018-06-01T09:14:59Z</time>
      </trkpt>
      <trkpt lat="45.98851" lon="4.83011">
        <ele>261</ele>
        <time>2018-06-01T09:15:00Z</time>
      </trkpt>
      <trkpt lat="45.98843" lon="4.83014">
        <ele>261</ele>
        <time>2018-06-01T09:15:03Z</time>
      </trkpt>
      <trkpt lat="45.98841" lon="4.83016">
        <ele>261</ele>
        <time>2018-06-01T09:15:04Z</time>
      </trkpt>
      <trkpt lat="45.98833" lon="4.83021">
        <ele>264</ele>
        <time>2018-06-01T09:15:08Z</time>
      </trkpt>
      <trkpt lat="45.98831" lon="4.83022">
        <ele>264</ele>
        <time>2018-06-01T09:15:09Z</time>
      </trkpt>
      <trkpt lat="45.98824" lon="4.83027">
        <ele>264</ele>
        <time>2018-06-01T09:15:12Z</time>
      </trkpt>
      <trkpt lat="45.98822" lon="4.83029">
        <ele>264</ele>
        <time>2018-06-01T09:15:13Z</time>
      </trkpt>
      <trkpt lat="45.98815" lon="4.83035">
        <ele>264</ele>
        <time>2018-06-01T09:15:16Z</time>
      </trkpt>
      <trkpt lat="45.98812" lon="4.83037">
        <ele>264</ele>
        <time>2018-06-01T09:15:17Z</time>
      </trkpt>
      <trkpt lat="45.98805" lon="4.83044">
        <ele>264</ele>
        <time>2018-06-01T09:15:20Z</time>
      </trkpt>
      <trkpt lat="45.98802" lon="4.83046">
        <ele>264</ele>
        <time>2018-06-01T09:15:21Z</time>
      </trkpt>
      <trkpt lat="45.98795" lon="4.83052">
        <ele>265</ele>
        <time>2018-06-01T09:15:24Z</time>
      </trkpt>
      <trkpt lat="45.98793" lon="4.83054">
        <ele>265</ele>
        <time>2018-06-01T09:15:25Z</time>
      </trkpt>
      <trkpt lat="45.98785" lon="4.8306">
        <ele>265</ele>
        <time>2018-06-01T09:15:28Z</time>
      </trkpt>
      <trkpt lat="45.98783" lon="4.83062">
        <ele>265</ele>
        <time>2018-06-01T09:15:29Z</time>
      </trkpt>
      <trkpt lat="45.98778" lon="4.83067">
        <ele>265</ele>
        <time>2018-06-01T09:15:31Z</time>
      </trkpt>
      <trkpt lat="45.98775" lon="4.8307">
        <ele>265</ele>
        <time>2018-06-01T09:15:32Z</time>
      </trkpt>
      <trkpt lat="45.98768" lon="4.83078">
        <ele>266</ele>
        <time>2018-06-01T09:15:35Z</time>
      </trkpt>
      <trkpt lat="45.98766" lon="4.8308">
        <ele>266</ele>
        <time>2018-06-01T09:15:36Z</time>
      </trkpt>
      <trkpt lat="45.98758" lon="4.83087">
        <ele>266</ele>
        <time>2018-06-01T09:15:39Z</time>
      </trkpt>
      <trkpt lat="45.98756" lon="4.83089">
        <ele>266</ele>
        <time>2018-06-01T09:15:40Z</time>
      </trkpt>
      <trkpt lat="45.9875" lon="4.83093">
        <ele>267</ele>
        <time>2018-06-01T09:15:42Z</time>
      </trkpt>
      <trkpt lat="45.98747" lon="4.83095">
        <ele>267</ele>
        <time>2018-06-01T09:15:43Z</time>
      </trkpt>
      <trkpt lat="45.98741" lon="4.831">
        <ele>267</ele>
        <time>2018-06-01T09:15:45Z</time>
      </trkpt>
      <trkpt lat="45.98738" lon="4.83102">
        <ele>267</ele>
        <time>2018-06-01T09:15:46Z</time>
      </trkpt>
      <trkpt lat="45.98732" lon="4.83107">
        <ele>267</ele>
        <time>2018-06-01T09:15:48Z</time>
      </trkpt>
      <trkpt lat="45.98722" lon="4.83114">
        <ele>267</ele>
        <time>2018-06-01T09:15:49Z</time>
      </trkpt>
      <trkpt lat="45.98715" lon="4.83119">
        <ele>267</ele>
        <time>2018-06-01T09:15:51Z</time>
      </trkpt>
      <trkpt lat="45.98712" lon="4.83122">
        <ele>267</ele>
        <time>2018-06-01T09:15:52Z</time>
      </trkpt>
      <trkpt lat="45.98705" lon="4.83128">
        <ele>266</ele>
        <time>2018-06-01T09:15:54Z</time>
      </trkpt>
      <trkpt lat="45.98701" lon="4.83131">
        <ele>266</ele>
        <time>2018-06-01T09:15:55Z</time>
      </trkpt>
      <trkpt lat="45.98694" lon="4.83136">
        <ele>266</ele>
        <time>2018-06-01T09:15:57Z</time>
      </trkpt>
      <trkpt lat="45.98691" lon="4.8314">
        <ele>266</ele>
        <time>2018-06-01T09:15:58Z</time>
      </trkpt>
      <trkpt lat="45.98684" lon="4.83147">
        <ele>266</ele>
        <time>2018-06-01T09:16:00Z</time>
      </trkpt>
      <trkpt lat="45.9868" lon="4.83151">
        <ele>266</ele>
        <time>2018-06-01T09:16:01Z</time>
      </trkpt>
      <trkpt lat="45.98676" lon="4.83154">
        <ele>266</ele>
        <time>2018-06-01T09:16:02Z</time>
      </trkpt>
      <trkpt lat="45.98671" lon="4.83156">
        <ele>266</ele>
        <time>2018-06-01T09:16:03Z</time>
      </trkpt>
      <trkpt lat="45.98667" lon="4.8316">
        <ele>266</ele>
        <time>2018-06-01T09:16:04Z</time>
      </trkpt>
      <trkpt lat="45.98663" lon="4.83164">
        <ele>266</ele>
        <time>2018-06-01T09:16:05Z</time>
      </trkpt>
      <trkpt lat="45.98659" lon="4.83167">
        <ele>266</ele>
        <time>2018-06-01T09:16:06Z</time>
      </trkpt>
      <trkpt lat="45.98655" lon="4.8317">
        <ele>266</ele>
        <time>2018-06-01T09:16:07Z</time>
      </trkpt>
      <trkpt lat="45.98651" lon="4.83172">
        <ele>267</ele>
        <time>2018-06-01T09:16:08Z</time>
      </trkpt>
      <trkpt lat="45.98647" lon="4.83175">
        <ele>267</ele>
        <time>2018-06-01T09:16:09Z</time>
      </trkpt>
      <trkpt lat="45.98644" lon="4.83182">
        <ele>267</ele>
        <time>2018-06-01T09:16:10Z</time>
      </trkpt>
      <trkpt lat="45.98639" lon="4.83187">
        <ele>267</ele>
        <time>2018-06-01T09:16:11Z</time>
      </trkpt>
      <trkpt lat="45.98636" lon="4.83191">
        <ele>267</ele>
        <time>2018-06-01T09:16:12Z</time>
      </trkpt>
      <trkpt lat="45.98632" lon="4.83195">
        <ele>267</ele>
        <time>2018-06-01T09:16:13Z</time>
      </trkpt>
      <trkpt lat="45.98628" lon="4.83203">
        <ele>267</ele>
        <time>2018-06-01T09:16:14Z</time>
      </trkpt>
      <trkpt lat="45.98624" lon="4.83207">
        <ele>267</ele>
        <time>2018-06-01T09:16:15Z</time>
      </trkpt>
      <trkpt lat="45.98618" lon="4.83215">
        <ele>267</ele>
        <time>2018-06-01T09:16:17Z</time>
      </trkpt>
      <trkpt lat="45.98614" lon="4.83219">
        <ele>267</ele>
        <time>2018-06-01T09:16:18Z</time>
      </trkpt>
      <trkpt lat="45.98608" lon="4.83226">
        <ele>267</ele>
        <time>2018-06-01T09:16:20Z</time>
      </trkpt>
      <trkpt lat="45.98604" lon="4.8323">
        <ele>268</ele>
        <time>2018-06-01T09:16:21Z</time>
      </trkpt>
      <trkpt lat="45.98603" lon="4.83236">
        <ele>268</ele>
        <time>2018-06-01T09:16:22Z</time>
      </trkpt>
      <trkpt lat="45.98599" lon="4.83241">
        <ele>268</ele>
        <time>2018-06-01T09:16:23Z</time>
      </trkpt>
      <trkpt lat="45.98596" lon="4.83247">
        <ele>268</ele>
        <time>2018-06-01T09:16:24Z</time>
      </trkpt>
      <trkpt lat="45.98593" lon="4.83251">
        <ele>268</ele>
        <time>2018-06-01T09:16:25Z</time>
      </trkpt>
      <trkpt lat="45.98589" lon="4.83256">
        <ele>268</ele>
        <time>2018-06-01T09:16:26Z</time>
      </trkpt>
      <trkpt lat="45.98585" lon="4.83261">
        <ele>268</ele>
        <time>2018-06-01T09:16:27Z</time>
      </trkpt>
      <trkpt lat="45.98582" lon="4.83265">
        <ele>269</ele>
        <time>2018-06-01T09:16:28Z</time>
      </trkpt>
      <trkpt lat="45.98578" lon="4.8327">
        <ele>269</ele>
        <time>2018-06-01T09:16:29Z</time>
      </trkpt>
      <trkpt lat="45.98574" lon="4.83277">
        <ele>269</ele>
        <time>2018-06-01T09:16:31Z</time>
      </trkpt>
      <trkpt lat="45.9857" lon="4.83281">
        <ele>269</ele>
        <time>2018-06-01T09:16:32Z</time>
      </trkpt>
      <trkpt lat="45.98566" lon="4.83286">
        <ele>269</ele>
        <time>2018-06-01T09:16:33Z</time>
      </trkpt>
      <trkpt lat="45.98562" lon="4.83291">
        <ele>269</ele>
        <time>2018-06-01T09:16:34Z</time>
      </trkpt>
      <trkpt lat="45.98558" lon="4.83296">
        <ele>269</ele>
        <time>2018-06-01T09:16:35Z</time>
      </trkpt>
      <trkpt lat="45.98555" lon="4.83302">
        <ele>269</ele>
        <time>2018-06-01T09:16:36Z</time>
      </trkpt>
      <trkpt lat="45.98549" lon="4.83312">
        <ele>269</ele>
        <time>2018-06-01T09:16:38Z</time>
      </trkpt>
      <trkpt lat="45.98545" lon="4.83319">
        <ele>269</ele>
        <time>2018-06-01T09:16:39Z</time>
      </trkpt>
      <trkpt lat="45.98542" lon="4.83323">
        <ele>269</ele>
        <time>2018-06-01T09:16:40Z</time>
      </trkpt>
      <trkpt lat="45.98537" lon="4.83328">
        <ele>269</ele>
        <time>2018-06-01T09:16:41Z</time>
      </trkpt>
      <trkpt lat="45.98533" lon="4.83333">
        <ele>269</ele>
        <time>2018-06-01T09:16:42Z</time>
      </trkpt>
      <trkpt lat="45.9853" lon="4.83337">
        <ele>269</ele>
        <time>2018-06-01T09:16:43Z</time>
      </trkpt>
      <trkpt lat="45.98526" lon="4.83343">
        <ele>269</ele>
        <time>2018-06-01T09:16:44Z</time>
      </trkpt>
      <trkpt lat="45.98521" lon="4.83347">
        <ele>269</ele>
        <time>2018-06-01T09:16:45Z</time>
      </trkpt>
      <trkpt lat="45.98516" lon="4.83352">
        <ele>270</ele>
        <time>2018-06-01T09:16:46Z</time>
      </trkpt>
      <trkpt lat="45.98512" lon="4.83357">
        <ele>269</ele>
        <time>2018-06-01T09:16:47Z</time>
      </trkpt>
      <trkpt lat="45.98507" lon="4.83363">
        <ele>269</ele>
        <time>2018-06-01T09:16:48Z</time>
      </trkpt>
      <trkpt lat="45.98502" lon="4.83367">
        <ele>269</ele>
        <time>2018-06-01T09:16:49Z</time>
      </trkpt>
      <trkpt lat="45.98497" lon="4.83372">
        <ele>270</ele>
        <time>2018-06-01T09:16:50Z</time>
      </trkpt>
      <trkpt lat="45.98493" lon="4.83377">
        <ele>269</ele>
        <time>2018-06-01T09:16:51Z</time>
      </trkpt>
      <trkpt lat="45.98487" lon="4.83383">
        <ele>269</ele>
        <time>2018-06-01T09:16:52Z</time>
      </trkpt>
      <trkpt lat="45.98483" lon="4.83388">
        <ele>269</ele>
        <time>2018-06-01T09:16:53Z</time>
      </trkpt>
      <trkpt lat="45.98479" lon="4.83394">
        <ele>269</ele>
        <time>2018-06-01T09:16:54Z</time>
      </trkpt>
      <trkpt lat="45.98474" lon="4.834">
        <ele>269</ele>
        <time>2018-06-01T09:16:55Z</time>
      </trkpt>
      <trkpt lat="45.98469" lon="4.83406">
        <ele>269</ele>
        <time>2018-06-01T09:16:56Z</time>
      </trkpt>
      <trkpt lat="45.98465" lon="4.8341">
        <ele>269</ele>
        <time>2018-06-01T09:16:57Z</time>
      </trkpt>
      <trkpt lat="45.9846" lon="4.83416">
        <ele>269</ele>
        <time>2018-06-01T09:16:58Z</time>
      </trkpt>
      <trkpt lat="45.98456" lon="4.83423">
        <ele>269</ele>
        <time>2018-06-01T09:16:59Z</time>
      </trkpt>
      <trkpt lat="45.98452" lon="4.8343">
        <ele>268</ele>
        <time>2018-06-01T09:17:00Z</time>
      </trkpt>
      <trkpt lat="45.98447" lon="4.83437">
        <ele>268</ele>
        <time>2018-06-01T09:17:01Z</time>
      </trkpt>
      <trkpt lat="45.98444" lon="4.83445">
        <ele>268</ele>
        <time>2018-06-01T09:17:02Z</time>
      </trkpt>
      <trkpt lat="45.98439" lon="4.83452">
        <ele>268</ele>
        <time>2018-06-01T09:17:03Z</time>
      </trkpt>
      <trkpt lat="45.98436" lon="4.83459">
        <ele>268</ele>
        <time>2018-06-01T09:17:04Z</time>
      </trkpt>
      <trkpt lat="45.98432" lon="4.83465">
        <ele>268</ele>
        <time>2018-06-01T09:17:05Z</time>
      </trkpt>
      <trkpt lat="45.98426" lon="4.83468">
        <ele>268</ele>
        <time>2018-06-01T09:17:06Z</time>
      </trkpt>
      <trkpt lat="45.98423" lon="4.83474">
        <ele>268</ele>
        <time>2018-06-01T09:17:07Z</time>
      </trkpt>
      <trkpt lat="45.98419" lon="4.83479">
        <ele>268</ele>
        <time>2018-06-01T09:17:08Z</time>
      </trkpt>
      <trkpt lat="45.98416" lon="4.83484">
        <ele>269</ele>
        <time>2018-06-01T09:17:09Z</time>
      </trkpt>
      <trkpt lat="45.98411" lon="4.83489">
        <ele>269</ele>
        <time>2018-06-01T09:17:10Z</time>
      </trkpt>
      <trkpt lat="45.98407" lon="4.83494">
        <ele>268</ele>
        <time>2018-06-01T09:17:11Z</time>
      </trkpt>
      <trkpt lat="45.98403" lon="4.83498">
        <ele>269</ele>
        <time>2018-06-01T09:17:12Z</time>
      </trkpt>
      <trkpt lat="45.98399" lon="4.83503">
        <ele>269</ele>
        <time>2018-06-01T09:17:13Z</time>
      </trkpt>
      <trkpt lat="45.98394" lon="4.8351">
        <ele>269</ele>
        <time>2018-06-01T09:17:14Z</time>
      </trkpt>
      <trkpt lat="45.9839" lon="4.83515">
        <ele>269</ele>
        <time>2018-06-01T09:17:15Z</time>
      </trkpt>
      <trkpt lat="45.98386" lon="4.8352">
        <ele>269</ele>
        <time>2018-06-01T09:17:16Z</time>
      </trkpt>
      <trkpt lat="45.98382" lon="4.83526">
        <ele>269</ele>
        <time>2018-06-01T09:17:17Z</time>
      </trkpt>
      <trkpt lat="45.98378" lon="4.83531">
        <ele>269</ele>
        <time>2018-06-01T09:17:18Z</time>
      </trkpt>
      <trkpt lat="45.98374" lon="4.83537">
        <ele>269</ele>
        <time>2018-06-01T09:17:19Z</time>
      </trkpt>
      <trkpt lat="45.98371" lon="4.83541">
        <ele>269</ele>
        <time>2018-06-01T09:17:20Z</time>
      </trkpt>
      <trkpt lat="45.98366" lon="4.83547">
        <ele>269</ele>
        <time>2018-06-01T09:17:21Z</time>
      </trkpt>
      <trkpt lat="45.98364" lon="4.83553">
        <ele>269</ele>
        <time>2018-06-01T09:17:22Z</time>
      </trkpt>
      <trkpt lat="45.9836" lon="4.83559">
        <ele>269</ele>
        <time>2018-06-01T09:17:23Z</time>
      </trkpt>
      <trkpt lat="45.98356" lon="4.83566">
        <ele>269</ele>
        <time>2018-06-01T09:17:24Z</time>
      </trkpt>
      <trkpt lat="45.98352" lon="4.83571">
        <ele>269</ele>
        <time>2018-06-01T09:17:25Z</time>
      </trkpt>
      <trkpt lat="45.98348" lon="4.83577">
        <ele>270</ele>
        <time>2018-06-01T09:17:26Z</time>
      </trkpt>
      <trkpt lat="45.98344" lon="4.83583">
        <ele>270</ele>
        <time>2018-06-01T09:17:27Z</time>
      </trkpt>
      <trkpt lat="45.9834" lon="4.83589">
        <ele>270</ele>
        <time>2018-06-01T09:17:28Z</time>
      </trkpt>
      <trkpt lat="45.98335" lon="4.83594">
        <ele>270</ele>
        <time>2018-06-01T09:17:29Z</time>
      </trkpt>
      <trkpt lat="45.98331" lon="4.83596">
        <ele>270</ele>
        <time>2018-06-01T09:17:30Z</time>
      </trkpt>
      <trkpt lat="45.98326" lon="4.83602">
        <ele>271</ele>
        <time>2018-06-01T09:17:31Z</time>
      </trkpt>
      <trkpt lat="45.98322" lon="4.83608">
        <ele>271</ele>
        <time>2018-06-01T09:17:32Z</time>
      </trkpt>
      <trkpt lat="45.98319" lon="4.83614">
        <ele>271</ele>
        <time>2018-06-01T09:17:33Z</time>
      </trkpt>
      <trkpt lat="45.98315" lon="4.8362">
        <ele>271</ele>
        <time>2018-06-01T09:17:34Z</time>
      </trkpt>
      <trkpt lat="45.98311" lon="4.83627">
        <ele>271</ele>
        <time>2018-06-01T09:17:35Z</time>
      </trkpt>
      <trkpt lat="45.98308" lon="4.83633">
        <ele>271</ele>
        <time>2018-06-01T09:17:36Z</time>
      </trkpt>
      <trkpt lat="45.98305" lon="4.8364">
        <ele>271</ele>
        <time>2018-06-01T09:17:37Z</time>
      </trkpt>
      <trkpt lat="45.98303" lon="4.83648">
        <ele>271</ele>
        <time>2018-06-01T09:17:38Z</time>
      </trkpt>
      <trkpt lat="45.983" lon="4.83655">
        <ele>271</ele>
        <time>2018-06-01T09:17:39Z</time>
      </trkpt>
      <trkpt lat="45.98299" lon="4.83665">
        <ele>271</ele>
        <time>2018-06-01T09:17:40Z</time>
      </trkpt>
      <trkpt lat="45.98296" lon="4.83672">
        <ele>272</ele>
        <time>2018-06-01T09:17:41Z</time>
      </trkpt>
      <trkpt lat="45.98293" lon="4.8368">
        <ele>272</ele>
        <time>2018-06-01T09:17:42Z</time>
      </trkpt>
      <trkpt lat="45.98291" lon="4.83687">
        <ele>272</ele>
        <time>2018-06-01T09:17:43Z</time>
      </trkpt>
      <trkpt lat="45.98289" lon="4.83694">
        <ele>272</ele>
        <time>2018-06-01T09:17:44Z</time>
      </trkpt>
      <trkpt lat="45.98286" lon="4.83702">
        <ele>272</ele>
        <time>2018-06-01T09:17:45Z</time>
      </trkpt>
      <trkpt lat="45.98283" lon="4.83709">
        <ele>272</ele>
        <time>2018-06-01T09:17:46Z</time>
      </trkpt>
      <trkpt lat="45.98281" lon="4.83715">
        <ele>272</ele>
        <time>2018-06-01T09:17:47Z</time>
      </trkpt>
      <trkpt lat="45.9828" lon="4.83726">
        <ele>272</ele>
        <time>2018-06-01T09:17:48Z</time>
      </trkpt>
      <trkpt lat="45.98277" lon="4.83733">
        <ele>272</ele>
        <time>2018-06-01T09:17:49Z</time>
      </trkpt>
      <trkpt lat="45.98275" lon="4.83739">
        <ele>272</ele>
        <time>2018-06-01T09:17:50Z</time>
      </trkpt>
      <trkpt lat="45.98273" lon="4.83746">
        <ele>272</ele>
        <time>2018-06-01T09:17:51Z</time>
      </trkpt>
      <trkpt lat="45.9827" lon="4.83756">
        <ele>272</ele>
        <time>2018-06-01T09:17:53Z</time>
      </trkpt>
      <trkpt lat="45.98267" lon="4.83763">
        <ele>272</ele>
        <time>2018-06-01T09:17:54Z</time>
      </trkpt>
      <trkpt lat="45.98265" lon="4.83771">
        <ele>272</ele>
        <time>2018-06-01T09:17:55Z</time>
      </trkpt>
      <trkpt lat="45.98263" lon="4.83778">
        <ele>272</ele>
        <time>2018-06-01T09:17:56Z</time>
      </trkpt>
      <trkpt lat="45.9826" lon="4.83786">
        <ele>272</ele>
        <time>2018-06-01T09:17:57Z</time>
      </trkpt>
      <trkpt lat="45.98257" lon="4.83792">
        <ele>272</ele>
        <time>2018-06-01T09:17:58Z</time>
      </trkpt>
      <trkpt lat="45.98255" lon="4.83799">
        <ele>272</ele>
        <time>2018-06-01T09:17:59Z</time>
      </trkpt>
      <trkpt lat="45.98252" lon="4.83807">
        <ele>272</ele>
        <time>2018-06-01T09:18:00Z</time>
      </trkpt>
      <trkpt lat="45.98249" lon="4.83813">
        <ele>272</ele>
        <time>2018-06-01T09:18:01Z</time>
      </trkpt>
      <trkpt lat="45.98247" lon="4.8382">
        <ele>272</ele>
        <time>2018-06-01T09:18:02Z</time>
      </trkpt>
      <trkpt lat="45.98245" lon="4.83826">
        <ele>272</ele>
        <time>2018-06-01T09:18:03Z</time>
      </trkpt>
      <trkpt lat="45.98243" lon="4.83833">
        <ele>272</ele>
        <time>2018-06-01T09:18:04Z</time>
      </trkpt>
      <trkpt lat="45.9824" lon="4.8384">
        <ele>272</ele>
        <time>2018-06-01T09:18:05Z</time>
      </trkpt>
      <trkpt lat="45.98238" lon="4.83846">
        <ele>272</ele>
        <time>2018-06-01T09:18:06Z</time>
      </trkpt>
      <trkpt lat="45.98236" lon="4.83853">
        <ele>272</ele>
        <time>2018-06-01T09:18:07Z</time>
      </trkpt>
      <trkpt lat="45.98233" lon="4.8386">
        <ele>272</ele>
        <time>2018-06-01T09:18:08Z</time>
      </trkpt>
      <trkpt lat="45.98229" lon="4.83869">
        <ele>272</ele>
        <time>2018-06-01T09:18:10Z</time>
      </trkpt>
      <trkpt lat="45.98227" lon="4.83876">
        <ele>272</ele>
        <time>2018-06-01T09:18:11Z</time>
      </trkpt>
      <trkpt lat="45.98224" lon="4.83883">
        <ele>272</ele>
        <time>2018-06-01T09:18:12Z</time>
      </trkpt>
      <trkpt lat="45.9822" lon="4.83892">
        <ele>272</ele>
        <time>2018-06-01T09:18:13Z</time>
      </trkpt>
      <trkpt lat="45.98217" lon="4.83898">
        <ele>273</ele>
        <time>2018-06-01T09:18:14Z</time>
      </trkpt>
      <trkpt lat="45.98215" lon="4.83904">
        <ele>273</ele>
        <time>2018-06-01T09:18:15Z</time>
      </trkpt>
      <trkpt lat="45.98212" lon="4.83911">
        <ele>273</ele>
        <time>2018-06-01T09:18:16Z</time>
      </trkpt>
      <trkpt lat="45.9821" lon="4.83918">
        <ele>273</ele>
        <time>2018-06-01T09:18:17Z</time>
      </trkpt>
      <trkpt lat="45.98207" lon="4.83924">
        <ele>273</ele>
        <time>2018-06-01T09:18:18Z</time>
      </trkpt>
      <trkpt lat="45.98204" lon="4.8393">
        <ele>273</ele>
        <time>2018-06-01T09:18:19Z</time>
      </trkpt>
      <trkpt lat="45.98201" lon="4.83938">
        <ele>273</ele>
        <time>2018-06-01T09:18:20Z</time>
      </trkpt>
      <trkpt lat="45.98198" lon="4.83944">
        <ele>273</ele>
        <time>2018-06-01T09:18:21Z</time>
      </trkpt>
      <trkpt lat="45.98197" lon="4.83952">
        <ele>273</ele>
        <time>2018-06-01T09:18:22Z</time>
      </trkpt>
      <trkpt lat="45.98194" lon="4.83958">
        <ele>273</ele>
        <time>2018-06-01T09:18:23Z</time>
      </trkpt>
      <trkpt lat="45.98191" lon="4.83966">
        <ele>273</ele>
        <time>2018-06-01T09:18:24Z</time>
      </trkpt>
      <trkpt lat="45.98188" lon="4.83973">
        <ele>273</ele>
        <time>2018-06-01T09:18:25Z</time>
      </trkpt>
      <trkpt lat="45.98185" lon="4.83978">
        <ele>273</ele>
        <time>2018-06-01T09:18:26Z</time>
      </trkpt>
      <trkpt lat="45.98183" lon="4.83984">
        <ele>273</ele>
        <time>2018-06-01T09:18:27Z</time>
      </trkpt>
      <trkpt lat="45.9818" lon="4.83991">
        <ele>273</ele>
        <time>2018-06-01T09:18:28Z</time>
      </trkpt>
      <trkpt lat="45.98177" lon="4.83998">
        <ele>273</ele>
        <time>2018-06-01T09:18:29Z</time>
      </trkpt>
      <trkpt lat="45.98176" lon="4.84007">
        <ele>273</ele>
        <time>2018-06-01T09:18:30Z</time>
      </trkpt>
      <trkpt lat="45.98172" lon="4.84013">
        <ele>273</ele>
        <time>2018-06-01T09:18:31Z</time>
      </trkpt>
      <trkpt lat="45.98168" lon="4.84021">
        <ele>273</ele>
        <time>2018-06-01T09:18:32Z</time>
      </trkpt>
      <trkpt lat="45.98165" lon="4.84025">
        <ele>273</ele>
        <time>2018-06-01T09:18:33Z</time>
      </trkpt>
      <trkpt lat="45.98162" lon="4.84032">
        <ele>273</ele>
        <time>2018-06-01T09:18:34Z</time>
      </trkpt>
      <trkpt lat="45.98159" lon="4.84036">
        <ele>273</ele>
        <time>2018-06-01T09:18:35Z</time>
      </trkpt>
      <trkpt lat="45.98155" lon="4.84042">
        <ele>273</ele>
        <time>2018-06-01T09:18:36Z</time>
      </trkpt>
      <trkpt lat="45.98151" lon="4.84047">
        <ele>273</ele>
        <time>2018-06-01T09:18:37Z</time>
      </trkpt>
      <trkpt lat="45.98149" lon="4.84053">
        <ele>273</ele>
        <time>2018-06-01T09:18:38Z</time>
      </trkpt>
      <trkpt lat="45.98146" lon="4.84057">
        <ele>273</ele>
        <time>2018-06-01T09:18:39Z</time>
      </trkpt>
      <trkpt lat="45.98143" lon="4.84061">
        <ele>273</ele>
        <time>2018-06-01T09:18:40Z</time>
      </trkpt>
      <trkpt lat="45.98138" lon="4.84066">
        <ele>273</ele>
        <time>2018-06-01T09:18:41Z</time>
      </trkpt>
      <trkpt lat="45.98134" lon="4.8407">
        <ele>273</ele>
        <time>2018-06-01T09:18:42Z</time>
      </trkpt>
      <trkpt lat="45.9813" lon="4.84075">
        <ele>273</ele>
        <time>2018-06-01T09:18:43Z</time>
      </trkpt>
      <trkpt lat="45.98125" lon="4.8408">
        <ele>273</ele>
        <time>2018-06-01T09:18:44Z</time>
      </trkpt>
      <trkpt lat="45.98122" lon="4.84085">
        <ele>273</ele>
        <time>2018-06-01T09:18:45Z</time>
      </trkpt>
      <trkpt lat="45.98117" lon="4.84089">
        <ele>273</ele>
        <time>2018-06-01T09:18:46Z</time>
      </trkpt>
      <trkpt lat="45.98113" lon="4.84093">
        <ele>273</ele>
        <time>2018-06-01T09:18:47Z</time>
      </trkpt>
      <trkpt lat="45.98108" lon="4.84097">
        <ele>273</ele>
        <time>2018-06-01T09:18:48Z</time>
      </trkpt>
      <trkpt lat="45.98105" lon="4.841">
        <ele>273</ele>
        <time>2018-06-01T09:18:49Z</time>
      </trkpt>
      <trkpt lat="45.981" lon="4.84103">
        <ele>273</ele>
        <time>2018-06-01T09:18:50Z</time>
      </trkpt>
      <trkpt lat="45.98096" lon="4.84107">
        <ele>273</ele>
        <time>2018-06-01T09:18:51Z</time>
      </trkpt>
      <trkpt lat="45.98092" lon="4.84109">
        <ele>273</ele>
        <time>2018-06-01T09:18:52Z</time>
      </trkpt>
      <trkpt lat="45.98088" lon="4.84114">
        <ele>273</ele>
        <time>2018-06-01T09:18:53Z</time>
      </trkpt>
      <trkpt lat="45.98085" lon="4.84118">
        <ele>273</ele>
        <time>2018-06-01T09:18:54Z</time>
      </trkpt>
      <trkpt lat="45.98081" lon="4.84123">
        <ele>273</ele>
        <time>2018-06-01T09:18:55Z</time>
      </trkpt>
      <trkpt lat="45.98076" lon="4.84126">
        <ele>273</ele>
        <time>2018-06-01T09:18:56Z</time>
      </trkpt>
      <trkpt lat="45.98072" lon="4.8413">
        <ele>273</ele>
        <time>2018-06-01T09:18:57Z</time>
      </trkpt>
      <trkpt lat="45.98067" lon="4.84134">
        <ele>273</ele>
        <time>2018-06-01T09:18:58Z</time>
      </trkpt>
      <trkpt lat="45.98063" lon="4.8414">
        <ele>273</ele>
        <time>2018-06-01T09:18:59Z</time>
      </trkpt>
      <trkpt lat="45.98059" lon="4.84144">
        <ele>273</ele>
        <time>2018-06-01T09:19:00Z</time>
      </trkpt>
      <trkpt lat="45.98054" lon="4.84146">
        <ele>273</ele>
        <time>2018-06-01T09:19:01Z</time>
      </trkpt>
      <trkpt lat="45.98049" lon="4.84149">
        <ele>273</ele>
        <time>2018-06-01T09:19:02Z</time>
      </trkpt>
      <trkpt lat="45.98046" lon="4.84153">
        <ele>273</ele>
        <time>2018-06-01T09:19:03Z</time>
      </trkpt>
      <trkpt lat="45.98042" lon="4.84157">
        <ele>273</ele>
        <time>2018-06-01T09:19:04Z</time>
      </trkpt>
      <trkpt lat="45.98038" lon="4.84162">
        <ele>273</ele>
        <time>2018-06-01T09:19:05Z</time>
      </trkpt>
      <trkpt lat="45.98035" lon="4.84168">
        <ele>273</ele>
        <time>2018-06-01T09:19:06Z</time>
      </trkpt>
      <trkpt lat="45.98032" lon="4.84174">
        <ele>273</ele>
        <time>2018-06-01T09:19:07Z</time>
      </trkpt>
      <trkpt lat="45.98028" lon="4.84178">
        <ele>274</ele>
        <time>2018-06-01T09:19:08Z</time>
      </trkpt>
      <trkpt lat="45.98023" lon="4.84181">
        <ele>274</ele>
        <time>2018-06-01T09:19:09Z</time>
      </trkpt>
      <trkpt lat="45.9802" lon="4.84186">
        <ele>274</ele>
        <time>2018-06-01T09:19:10Z</time>
      </trkpt>
      <trkpt lat="45.98016" lon="4.84191">
        <ele>274</ele>
        <time>2018-06-01T09:19:11Z</time>
      </trkpt>
      <trkpt lat="45.98011" lon="4.84195">
        <ele>274</ele>
        <time>2018-06-01T09:19:12Z</time>
      </trkpt>
      <trkpt lat="45.98007" lon="4.84198">
        <ele>274</ele>
        <time>2018-06-01T09:19:13Z</time>
      </trkpt>
      <trkpt lat="45.98003" lon="4.84201">
        <ele>274</ele>
        <time>2018-06-01T09:19:14Z</time>
      </trkpt>
      <trkpt lat="45.97999" lon="4.84206">
        <ele>274</ele>
        <time>2018-06-01T09:19:15Z</time>
      </trkpt>
      <trkpt lat="45.97994" lon="4.8421">
        <ele>274</ele>
        <time>2018-06-01T09:19:16Z</time>
      </trkpt>
      <trkpt lat="45.9799" lon="4.84214">
        <ele>274</ele>
        <time>2018-06-01T09:19:17Z</time>
      </trkpt>
      <trkpt lat="45.97985" lon="4.84218">
        <ele>274</ele>
        <time>2018-06-01T09:19:18Z</time>
      </trkpt>
      <trkpt lat="45.97981" lon="4.84222">
        <ele>274</ele>
        <time>2018-06-01T09:19:19Z</time>
      </trkpt>
      <trkpt lat="45.97976" lon="4.84226">
        <ele>274</ele>
        <time>2018-06-01T09:19:20Z</time>
      </trkpt>
      <trkpt lat="45.97972" lon="4.84231">
        <ele>274</ele>
        <time>2018-06-01T09:19:21Z</time>
      </trkpt>
      <trkpt lat="45.97968" lon="4.84236">
        <ele>274</ele>
        <time>2018-06-01T09:19:22Z</time>
      </trkpt>
      <trkpt lat="45.97964" lon="4.8424">
        <ele>274</ele>
        <time>2018-06-01T09:19:23Z</time>
      </trkpt>
      <trkpt lat="45.97959" lon="4.84245">
        <ele>274</ele>
        <time>2018-06-01T09:19:24Z</time>
      </trkpt>
      <trkpt lat="45.97955" lon="4.84249">
        <ele>275</ele>
        <time>2018-06-01T09:19:25Z</time>
      </trkpt>
      <trkpt lat="45.9795" lon="4.84253">
        <ele>275</ele>
        <time>2018-06-01T09:19:26Z</time>
      </trkpt>
      <trkpt lat="45.97947" lon="4.8426">
        <ele>275</ele>
        <time>2018-06-01T09:19:27Z</time>
      </trkpt>
      <trkpt lat="45.97943" lon="4.84264">
        <ele>275</ele>
        <time>2018-06-01T09:19:28Z</time>
      </trkpt>
      <trkpt lat="45.97938" lon="4.84269">
        <ele>275</ele>
        <time>2018-06-01T09:19:29Z</time>
      </trkpt>
      <trkpt lat="45.97935" lon="4.84274">
        <ele>275</ele>
        <time>2018-06-01T09:19:30Z</time>
      </trkpt>
      <trkpt lat="45.97932" lon="4.84279">
        <ele>275</ele>
        <time>2018-06-01T09:19:31Z</time>
      </trkpt>
      <trkpt lat="45.9793" lon="4.84285">
        <ele>275</ele>
        <time>2018-06-01T09:19:32Z</time>
      </trkpt>
      <trkpt lat="45.97928" lon="4.84291">
        <ele>275</ele>
        <time>2018-06-01T09:19:33Z</time>
      </trkpt>
      <trkpt lat="45.9793" lon="4.84303">
        <ele>275</ele>
        <time>2018-06-01T09:19:35Z</time>
      </trkpt>
      <trkpt lat="45.97932" lon="4.84309">
        <ele>275</ele>
        <time>2018-06-01T09:19:36Z</time>
      </trkpt>
      <trkpt lat="45.97933" lon="4.84316">
        <ele>275</ele>
        <time>2018-06-01T09:19:37Z</time>
      </trkpt>
      <trkpt lat="45.97934" lon="4.84324">
        <ele>275</ele>
        <time>2018-06-01T09:19:38Z</time>
      </trkpt>
      <trkpt lat="45.97935" lon="4.8433">
        <ele>275</ele>
        <time>2018-06-01T09:19:39Z</time>
      </trkpt>
      <trkpt lat="45.97936" lon="4.84337">
        <ele>275</ele>
        <time>2018-06-01T09:19:40Z</time>
      </trkpt>
      <trkpt lat="45.97938" lon="4.84344">
        <ele>275</ele>
        <time>2018-06-01T09:19:41Z</time>
      </trkpt>
      <trkpt lat="45.97939" lon="4.84352">
        <ele>275</ele>
        <time>2018-06-01T09:19:42Z</time>
      </trkpt>
      <trkpt lat="45.9794" lon="4.84359">
        <ele>275</ele>
        <time>2018-06-01T09:19:43Z</time>
      </trkpt>
      <trkpt lat="45.97941" lon="4.84366">
        <ele>275</ele>
        <time>2018-06-01T09:19:44Z</time>
      </trkpt>
      <trkpt lat="45.97945" lon="4.84373">
        <ele>275</ele>
        <time>2018-06-01T09:19:45Z</time>
      </trkpt>
      <trkpt lat="45.97947" lon="4.84382">
        <ele>275</ele>
        <time>2018-06-01T09:19:46Z</time>
      </trkpt>
      <trkpt lat="45.97948" lon="4.84386">
        <ele>275</ele>
        <time>2018-06-01T09:19:47Z</time>
      </trkpt>
      <trkpt lat="45.97951" lon="4.84393">
        <ele>275</ele>
        <time>2018-06-01T09:19:48Z</time>
      </trkpt>
      <trkpt lat="45.97952" lon="4.84401">
        <ele>275</ele>
        <time>2018-06-01T09:19:49Z</time>
      </trkpt>
      <trkpt lat="45.97953" lon="4.84409">
        <ele>275</ele>
        <time>2018-06-01T09:19:50Z</time>
      </trkpt>
      <trkpt lat="45.97953" lon="4.84417">
        <ele>275</ele>
        <time>2018-06-01T09:19:51Z</time>
      </trkpt>
      <trkpt lat="45.97954" lon="4.84425">
        <ele>275</ele>
        <time>2018-06-01T09:19:52Z</time>
      </trkpt>
      <trkpt lat="45.97955" lon="4.84434">
        <ele>275</ele>
        <time>2018-06-01T09:19:53Z</time>
      </trkpt>
      <trkpt lat="45.97956" lon="4.84441">
        <ele>275</ele>
        <time>2018-06-01T09:19:54Z</time>
      </trkpt>
      <trkpt lat="45.97958" lon="4.8445">
        <ele>275</ele>
        <time>2018-06-01T09:19:55Z</time>
      </trkpt>
      <trkpt lat="45.97959" lon="4.84458">
        <ele>275</ele>
        <time>2018-06-01T09:19:56Z</time>
      </trkpt>
      <trkpt lat="45.9796" lon="4.84467">
        <ele>275</ele>
        <time>2018-06-01T09:19:57Z</time>
      </trkpt>
      <trkpt lat="45.97961" lon="4.84474">
        <ele>275</ele>
        <time>2018-06-01T09:19:58Z</time>
      </trkpt>
      <trkpt lat="45.97962" lon="4.84482">
        <ele>275</ele>
        <time>2018-06-01T09:19:59Z</time>
      </trkpt>
      <trkpt lat="45.97963" lon="4.8449">
        <ele>275</ele>
        <time>2018-06-01T09:20:00Z</time>
      </trkpt>
      <trkpt lat="45.97965" lon="4.84497">
        <ele>275</ele>
        <time>2018-06-01T09:20:01Z</time>
      </trkpt>
      <trkpt lat="45.97965" lon="4.84506">
        <ele>275</ele>
        <time>2018-06-01T09:20:02Z</time>
      </trkpt>
      <trkpt lat="45.97966" lon="4.84514">
        <ele>275</ele>
        <time>2018-06-01T09:20:03Z</time>
      </trkpt>
      <trkpt lat="45.97967" lon="4.84522">
        <ele>275</ele>
        <time>2018-06-01T09:20:04Z</time>
      </trkpt>
      <trkpt lat="45.9797" lon="4.84528">
        <ele>275</ele>
        <time>2018-06-01T09:20:05Z</time>
      </trkpt>
      <trkpt lat="45.97971" lon="4.84537">
        <ele>275</ele>
        <time>2018-06-01T09:20:06Z</time>
      </trkpt>
      <trkpt lat="45.97971" lon="4.84546">
        <ele>275</ele>
        <time>2018-06-01T09:20:07Z</time>
      </trkpt>
      <trkpt lat="45.97972" lon="4.84555">
        <ele>275</ele>
        <time>2018-06-01T09:20:08Z</time>
      </trkpt>
      <trkpt lat="45.97974" lon="4.84564">
        <ele>275</ele>
        <time>2018-06-01T09:20:09Z</time>
      </trkpt>
      <trkpt lat="45.97974" lon="4.84572">
        <ele>275</ele>
        <time>2018-06-01T09:20:10Z</time>
      </trkpt>
      <trkpt lat="45.97976" lon="4.8458">
        <ele>275</ele>
        <time>2018-06-01T09:20:11Z</time>
      </trkpt>
      <trkpt lat="45.97978" lon="4.84588">
        <ele>274</ele>
        <time>2018-06-01T09:20:12Z</time>
      </trkpt>
      <trkpt lat="45.97978" lon="4.84596">
        <ele>274</ele>
        <time>2018-06-01T09:20:13Z</time>
      </trkpt>
      <trkpt lat="45.9798" lon="4.84605">
        <ele>274</ele>
        <time>2018-06-01T09:20:14Z</time>
      </trkpt>
      <trkpt lat="45.9798" lon="4.84613">
        <ele>275</ele>
        <time>2018-06-01T09:20:15Z</time>
      </trkpt>
      <trkpt lat="45.97982" lon="4.84621">
        <ele>275</ele>
        <time>2018-06-01T09:20:16Z</time>
      </trkpt>
      <trkpt lat="45.97984" lon="4.84627">
        <ele>275</ele>
        <time>2018-06-01T09:20:17Z</time>
      </trkpt>
      <trkpt lat="45.97984" lon="4.84634">
        <ele>275</ele>
        <time>2018-06-01T09:20:18Z</time>
      </trkpt>
      <trkpt lat="45.97986" lon="4.84647">
        <ele>274</ele>
        <time>2018-06-01T09:20:20Z</time>
      </trkpt>
      <trkpt lat="45.97988" lon="4.84655">
        <ele>274</ele>
        <time>2018-06-01T09:20:21Z</time>
      </trkpt>
      <trkpt lat="45.97988" lon="4.84663">
        <ele>274</ele>
        <time>2018-06-01T09:20:22Z</time>
      </trkpt>
      <trkpt lat="45.97989" lon="4.84671">
        <ele>274</ele>
        <time>2018-06-01T09:20:23Z</time>
      </trkpt>
      <trkpt lat="45.97992" lon="4.84677">
        <ele>275</ele>
        <time>2018-06-01T09:20:24Z</time>
      </trkpt>
      <trkpt lat="45.97993" lon="4.84684">
        <ele>275</ele>
        <time>2018-06-01T09:20:25Z</time>
      </trkpt>
      <trkpt lat="45.97993" lon="4.84692">
        <ele>275</ele>
        <time>2018-06-01T09:20:26Z</time>
      </trkpt>
      <trkpt lat="45.97993" lon="4.847">
        <ele>275</ele>
        <time>2018-06-01T09:20:27Z</time>
      </trkpt>
      <trkpt lat="45.97994" lon="4.84707">
        <ele>275</ele>
        <time>2018-06-01T09:20:28Z</time>
      </trkpt>
      <trkpt lat="45.97996" lon="4.84716">
        <ele>275</ele>
        <time>2018-06-01T09:20:29Z</time>
      </trkpt>
      <trkpt lat="45.97996" lon="4.84724">
        <ele>275</ele>
        <time>2018-06-01T09:20:30Z</time>
      </trkpt>
      <trkpt lat="45.97995" lon="4.84733">
        <ele>275</ele>
        <time>2018-06-01T09:20:31Z</time>
      </trkpt>
      <trkpt lat="45.97996" lon="4.8474">
        <ele>275</ele>
        <time>2018-06-01T09:20:32Z</time>
      </trkpt>
      <trkpt lat="45.97997" lon="4.84748">
        <ele>275</ele>
        <time>2018-06-01T09:20:33Z</time>
      </trkpt>
      <trkpt lat="45.97998" lon="4.84755">
        <ele>275</ele>
        <time>2018-06-01T09:20:34Z</time>
      </trkpt>
      <trkpt lat="45.97998" lon="4.84764">
        <ele>275</ele>
        <time>2018-06-01T09:20:35Z</time>
      </trkpt>
      <trkpt lat="45.97998" lon="4.84772">
        <ele>274</ele>
        <time>2018-06-01T09:20:36Z</time>
      </trkpt>
      <trkpt lat="45.97999" lon="4.84779">
        <ele>274</ele>
        <time>2018-06-01T09:20:37Z</time>
      </trkpt>
      <trkpt lat="45.97999" lon="4.84787">
        <ele>274</ele>
        <time>2018-06-01T09:20:38Z</time>
      </trkpt>
      <trkpt lat="45.98" lon="4.84795">
        <ele>273</ele>
        <time>2018-06-01T09:20:39Z</time>
      </trkpt>
      <trkpt lat="45.98002" lon="4.84807">
        <ele>273</ele>
        <time>2018-06-01T09:20:41Z</time>
      </trkpt>
      <trkpt lat="45.98005" lon="4.84815">
        <ele>272</ele>
        <time>2018-06-01T09:20:42Z</time>
      </trkpt>
      <trkpt lat="45.98005" lon="4.84822">
        <ele>272</ele>
        <time>2018-06-01T09:20:43Z</time>
      </trkpt>
      <trkpt lat="45.98006" lon="4.84829">
        <ele>272</ele>
        <time>2018-06-01T09:20:44Z</time>
      </trkpt>
      <trkpt lat="45.98006" lon="4.84836">
        <ele>272</ele>
        <time>2018-06-01T09:20:45Z</time>
      </trkpt>
      <trkpt lat="45.98007" lon="4.84843">
        <ele>272</ele>
        <time>2018-06-01T09:20:46Z</time>
      </trkpt>
      <trkpt lat="45.98006" lon="4.84852">
        <ele>272</ele>
        <time>2018-06-01T09:20:47Z</time>
      </trkpt>
      <trkpt lat="45.98007" lon="4.8486">
        <ele>272</ele>
        <time>2018-06-01T09:20:48Z</time>
      </trkpt>
      <trkpt lat="45.98008" lon="4.84868">
        <ele>272</ele>
        <time>2018-06-01T09:20:49Z</time>
      </trkpt>
      <trkpt lat="45.9801" lon="4.84878">
        <ele>272</ele>
        <time>2018-06-01T09:20:50Z</time>
      </trkpt>
      <trkpt lat="45.9801" lon="4.84885">
        <ele>272</ele>
        <time>2018-06-01T09:20:51Z</time>
      </trkpt>
      <trkpt lat="45.98011" lon="4.84893">
        <ele>272</ele>
        <time>2018-06-01T09:20:52Z</time>
      </trkpt>
      <trkpt lat="45.98012" lon="4.84902">
        <ele>272</ele>
        <time>2018-06-01T09:20:53Z</time>
      </trkpt>
      <trkpt lat="45.98013" lon="4.8491">
        <ele>272</ele>
        <time>2018-06-01T09:20:54Z</time>
      </trkpt>
      <trkpt lat="45.98013" lon="4.84918">
        <ele>272</ele>
        <time>2018-06-01T09:20:55Z</time>
      </trkpt>
      <trkpt lat="45.98013" lon="4.84925">
        <ele>272</ele>
        <time>2018-06-01T09:20:56Z</time>
      </trkpt>
      <trkpt lat="45.98014" lon="4.84934">
        <ele>272</ele>
        <time>2018-06-01T09:20:57Z</time>
      </trkpt>
      <trkpt lat="45.98014" lon="4.84941">
        <ele>272</ele>
        <time>2018-06-01T09:20:58Z</time>
      </trkpt>
      <trkpt lat="45.98015" lon="4.8495">
        <ele>272</ele>
        <time>2018-06-01T09:20:59Z</time>
      </trkpt>
      <trkpt lat="45.98017" lon="4.84958">
        <ele>272</ele>
        <time>2018-06-01T09:21:00Z</time>
      </trkpt>
      <trkpt lat="45.98019" lon="4.84966">
        <ele>272</ele>
        <time>2018-06-01T09:21:01Z</time>
      </trkpt>
      <trkpt lat="45.98019" lon="4.84974">
        <ele>272</ele>
        <time>2018-06-01T09:21:02Z</time>
      </trkpt>
      <trkpt lat="45.98019" lon="4.84982">
        <ele>272</ele>
        <time>2018-06-01T09:21:03Z</time>
      </trkpt>
      <trkpt lat="45.9802" lon="4.8499">
        <ele>272</ele>
        <time>2018-06-01T09:21:04Z</time>
      </trkpt>
      <trkpt lat="45.98021" lon="4.84998">
        <ele>272</ele>
        <time>2018-06-01T09:21:05Z</time>
      </trkpt>
      <trkpt lat="45.98022" lon="4.85006">
        <ele>273</ele>
        <time>2018-06-01T09:21:06Z</time>
      </trkpt>
      <trkpt lat="45.98022" lon="4.85014">
        <ele>273</ele>
        <time>2018-06-01T09:21:07Z</time>
      </trkpt>
      <trkpt lat="45.98025" lon="4.85022">
        <ele>273</ele>
        <time>2018-06-01T09:21:08Z</time>
      </trkpt>
      <trkpt lat="45.98024" lon="4.85029">
        <ele>273</ele>
        <time>2018-06-01T09:21:09Z</time>
      </trkpt>
      <trkpt lat="45.98024" lon="4.85036">
        <ele>273</ele>
        <time>2018-06-01T09:21:10Z</time>
      </trkpt>
      <trkpt lat="45.98024" lon="4.85042">
        <ele>273</ele>
        <time>2018-06-01T09:21:11Z</time>
      </trkpt>
      <trkpt lat="45.98024" lon="4.85049">
        <ele>273</ele>
        <time>2018-06-01T09:21:12Z</time>
      </trkpt>
      <trkpt lat="45.98024" lon="4.85057">
        <ele>273</ele>
        <time>2018-06-01T09:21:13Z</time>
      </trkpt>
      <trkpt lat="45.98023" lon="4.85065">
        <ele>273</ele>
        <time>2018-06-01T09:21:14Z</time>
      </trkpt>
      <trkpt lat="45.98023" lon="4.85073">
        <ele>273</ele>
        <time>2018-06-01T09:21:15Z</time>
      </trkpt>
      <trkpt lat="45.98025" lon="4.8508">
        <ele>273</ele>
        <time>2018-06-01T09:21:16Z</time>
      </trkpt>
      <trkpt lat="45.98025" lon="4.85088">
        <ele>274</ele>
        <time>2018-06-01T09:21:17Z</time>
      </trkpt>
      <trkpt lat="45.98026" lon="4.85097">
        <ele>274</ele>
        <time>2018-06-01T09:21:18Z</time>
      </trkpt>
      <trkpt lat="45.98027" lon="4.85104">
        <ele>274</ele>
        <time>2018-06-01T09:21:19Z</time>
      </trkpt>
      <trkpt lat="45.98027" lon="4.85112">
        <ele>274</ele>
        <time>2018-06-01T09:21:20Z</time>
      </trkpt>
      <trkpt lat="45.98029" lon="4.8512">
        <ele>274</ele>
        <time>2018-06-01T09:21:21Z</time>
      </trkpt>
      <trkpt lat="45.98032" lon="4.85126">
        <ele>274</ele>
        <time>2018-06-01T09:21:22Z</time>
      </trkpt>
      <trkpt lat="45.98034" lon="4.85133">
        <ele>275</ele>
        <time>2018-06-01T09:21:23Z</time>
      </trkpt>
      <trkpt lat="45.98037" lon="4.85139">
        <ele>275</ele>
        <time>2018-06-01T09:21:24Z</time>
      </trkpt>
      <trkpt lat="45.98039" lon="4.85145">
        <ele>275</ele>
        <time>2018-06-01T09:21:25Z</time>
      </trkpt>
      <trkpt lat="45.98041" lon="4.85152">
        <ele>275</ele>
        <time>2018-06-01T09:21:26Z</time>
      </trkpt>
      <trkpt lat="45.98043" lon="4.85159">
        <ele>275</ele>
        <time>2018-06-01T09:21:27Z</time>
      </trkpt>
      <trkpt lat="45.98045" lon="4.85165">
        <ele>275</ele>
        <time>2018-06-01T09:21:28Z</time>
      </trkpt>
      <trkpt lat="45.98046" lon="4.85172">
        <ele>275</ele>
        <time>2018-06-01T09:21:29Z</time>
      </trkpt>
      <trkpt lat="45.98048" lon="4.85177">
        <ele>275</ele>
        <time>2018-06-01T09:21:30Z</time>
      </trkpt>
      <trkpt lat="45.9805" lon="4.85183">
        <ele>276</ele>
        <time>2018-06-01T09:21:31Z</time>
      </trkpt>
      <trkpt lat="45.98053" lon="4.85189">
        <ele>276</ele>
        <time>2018-06-01T09:21:32Z</time>
      </trkpt>
      <trkpt lat="45.98054" lon="4.852">
        <ele>276</ele>
        <time>2018-06-01T09:21:34Z</time>
      </trkpt>
      <trkpt lat="45.98056" lon="4.85206">
        <ele>276</ele>
        <time>2018-06-01T09:21:35Z</time>
      </trkpt>
      <trkpt lat="45.9806" lon="4.85214">
        <ele>276</ele>
        <time>2018-06-01T09:21:37Z</time>
      </trkpt>
      <trkpt lat="45.98062" lon="4.8522">
        <ele>276</ele>
        <time>2018-06-01T09:21:38Z</time>
      </trkpt>
      <trkpt lat="45.98066" lon="4.85231">
        <ele>276</ele>
        <time>2018-06-01T09:21:40Z</time>
      </trkpt>
      <trkpt lat="45.98069" lon="4.85235">
        <ele>276</ele>
        <time>2018-06-01T09:21:41Z</time>
      </trkpt>
      <trkpt lat="45.98071" lon="4.8524">
        <ele>276</ele>
        <time>2018-06-01T09:21:42Z</time>
      </trkpt>
      <trkpt lat="45.98073" lon="4.85246">
        <ele>276</ele>
        <time>2018-06-01T09:21:43Z</time>
      </trkpt>
      <trkpt lat="45.98076" lon="4.85252">
        <ele>276</ele>
        <time>2018-06-01T09:21:44Z</time>
      </trkpt>
      <trkpt lat="45.98079" lon="4.85258">
        <ele>276</ele>
        <time>2018-06-01T09:21:45Z</time>
      </trkpt>
      <trkpt lat="45.98082" lon="4.85265">
        <ele>276</ele>
        <time>2018-06-01T09:21:46Z</time>
      </trkpt>
      <trkpt lat="45.98084" lon="4.85272">
        <ele>276</ele>
        <time>2018-06-01T09:21:47Z</time>
      </trkpt>
      <trkpt lat="45.98088" lon="4.85277">
        <ele>276</ele>
        <time>2018-06-01T09:21:48Z</time>
      </trkpt>
      <trkpt lat="45.9809" lon="4.85285">
        <ele>276</ele>
        <time>2018-06-01T09:21:49Z</time>
      </trkpt>
      <trkpt lat="45.98094" lon="4.85291">
        <ele>276</ele>
        <time>2018-06-01T09:21:50Z</time>
      </trkpt>
      <trkpt lat="45.98095" lon="4.85299">
        <ele>276</ele>
        <time>2018-06-01T09:21:51Z</time>
      </trkpt>
      <trkpt lat="45.98099" lon="4.8531">
        <ele>276</ele>
        <time>2018-06-01T09:21:53Z</time>
      </trkpt>
      <trkpt lat="45.98102" lon="4.85315">
        <ele>276</ele>
        <time>2018-06-01T09:21:54Z</time>
      </trkpt>
      <trkpt lat="45.98106" lon="4.85321">
        <ele>276</ele>
        <time>2018-06-01T09:21:55Z</time>
      </trkpt>
      <trkpt lat="45.98109" lon="4.85327">
        <ele>276</ele>
        <time>2018-06-01T09:21:56Z</time>
      </trkpt>
      <trkpt lat="45.98112" lon="4.85332">
        <ele>276</ele>
        <time>2018-06-01T09:21:57Z</time>
      </trkpt>
      <trkpt lat="45.98116" lon="4.85339">
        <ele>276</ele>
        <time>2018-06-01T09:21:58Z</time>
      </trkpt>
      <trkpt lat="45.98118" lon="4.85346">
        <ele>276</ele>
        <time>2018-06-01T09:21:59Z</time>
      </trkpt>
      <trkpt lat="45.9812" lon="4.85354">
        <ele>276</ele>
        <time>2018-06-01T09:22:00Z</time>
      </trkpt>
      <trkpt lat="45.98122" lon="4.85365">
        <ele>276</ele>
        <time>2018-06-01T09:22:01Z</time>
      </trkpt>
      <trkpt lat="45.98127" lon="4.85371">
        <ele>276</ele>
        <time>2018-06-01T09:22:02Z</time>
      </trkpt>
      <trkpt lat="45.98129" lon="4.85378">
        <ele>276</ele>
        <time>2018-06-01T09:22:03Z</time>
      </trkpt>
      <trkpt lat="45.98131" lon="4.85387">
        <ele>276</ele>
        <time>2018-06-01T09:22:04Z</time>
      </trkpt>
      <trkpt lat="45.98134" lon="4.85394">
        <ele>276</ele>
        <time>2018-06-01T09:22:05Z</time>
      </trkpt>
      <trkpt lat="45.98138" lon="4.85402">
        <ele>276</ele>
        <time>2018-06-01T09:22:06Z</time>
      </trkpt>
      <trkpt lat="45.98142" lon="4.85409">
        <ele>276</ele>
        <time>2018-06-01T09:22:07Z</time>
      </trkpt>
      <trkpt lat="45.98144" lon="4.85415">
        <ele>276</ele>
        <time>2018-06-01T09:22:08Z</time>
      </trkpt>
      <trkpt lat="45.98147" lon="4.85423">
        <ele>276</ele>
        <time>2018-06-01T09:22:09Z</time>
      </trkpt>
      <trkpt lat="45.98149" lon="4.85429">
        <ele>276</ele>
        <time>2018-06-01T09:22:10Z</time>
      </trkpt>
      <trkpt lat="45.98152" lon="4.85434">
        <ele>276</ele>
        <time>2018-06-01T09:22:11Z</time>
      </trkpt>
      <trkpt lat="45.98155" lon="4.8544">
        <ele>276</ele>
        <time>2018-06-01T09:22:12Z</time>
      </trkpt>
      <trkpt lat="45.98158" lon="4.85446">
        <ele>276</ele>
        <time>2018-06-01T09:22:13Z</time>
      </trkpt>
      <trkpt lat="45.9816" lon="4.85454">
        <ele>276</ele>
        <time>2018-06-01T09:22:14Z</time>
      </trkpt>
      <trkpt lat="45.98163" lon="4.85462">
        <ele>275</ele>
        <time>2018-06-01T09:22:15Z</time>
      </trkpt>
      <trkpt lat="45.98167" lon="4.85469">
        <ele>275</ele>
        <time>2018-06-01T09:22:16Z</time>
      </trkpt>
      <trkpt lat="45.98169" lon="4.85476">
        <ele>275</ele>
        <time>2018-06-01T09:22:17Z</time>
      </trkpt>
      <trkpt lat="45.98172" lon="4.85481">
        <ele>275</ele>
        <time>2018-06-01T09:22:18Z</time>
      </trkpt>
      <trkpt lat="45.98174" lon="4.85489">
        <ele>275</ele>
        <time>2018-06-01T09:22:19Z</time>
      </trkpt>
      <trkpt lat="45.98177" lon="4.85495">
        <ele>275</ele>
        <time>2018-06-01T09:22:20Z</time>
      </trkpt>
      <trkpt lat="45.9818" lon="4.85501">
        <ele>275</ele>
        <time>2018-06-01T09:22:21Z</time>
      </trkpt>
      <trkpt lat="45.98183" lon="4.85508">
        <ele>275</ele>
        <time>2018-06-01T09:22:22Z</time>
      </trkpt>
      <trkpt lat="45.98185" lon="4.85514">
        <ele>275</ele>
        <time>2018-06-01T09:22:23Z</time>
      </trkpt>
      <trkpt lat="45.98188" lon="4.85521">
        <ele>276</ele>
        <time>2018-06-01T09:22:24Z</time>
      </trkpt>
      <trkpt lat="45.9819" lon="4.85527">
        <ele>276</ele>
        <time>2018-06-01T09:22:25Z</time>
      </trkpt>
      <trkpt lat="45.98193" lon="4.85534">
        <ele>276</ele>
        <time>2018-06-01T09:22:26Z</time>
      </trkpt>
      <trkpt lat="45.98197" lon="4.85541">
        <ele>276</ele>
        <time>2018-06-01T09:22:27Z</time>
      </trkpt>
      <trkpt lat="45.98199" lon="4.85547">
        <ele>276</ele>
        <time>2018-06-01T09:22:28Z</time>
      </trkpt>
      <trkpt lat="45.98205" lon="4.85551">
        <ele>276</ele>
        <time>2018-06-01T09:22:29Z</time>
      </trkpt>
      <trkpt lat="45.98207" lon="4.85558">
        <ele>276</ele>
        <time>2018-06-01T09:22:30Z</time>
      </trkpt>
      <trkpt lat="45.9821" lon="4.85565">
        <ele>276</ele>
        <time>2018-06-01T09:22:31Z</time>
      </trkpt>
      <trkpt lat="45.98212" lon="4.85572">
        <ele>276</ele>
        <time>2018-06-01T09:22:32Z</time>
      </trkpt>
      <trkpt lat="45.98215" lon="4.85577">
        <ele>276</ele>
        <time>2018-06-01T09:22:33Z</time>
      </trkpt>
      <trkpt lat="45.98219" lon="4.85583">
        <ele>276</ele>
        <time>2018-06-01T09:22:34Z</time>
      </trkpt>
      <trkpt lat="45.98221" lon="4.8559">
        <ele>277</ele>
        <time>2018-06-01T09:22:35Z</time>
      </trkpt>
      <trkpt lat="45.98223" lon="4.85597">
        <ele>277</ele>
        <time>2018-06-01T09:22:36Z</time>
      </trkpt>
      <trkpt lat="45.98225" lon="4.85603">
        <ele>277</ele>
        <time>2018-06-01T09:22:37Z</time>
      </trkpt>
      <trkpt lat="45.98228" lon="4.85608">
        <ele>277</ele>
        <time>2018-06-01T09:22:38Z</time>
      </trkpt>
      <trkpt lat="45.98231" lon="4.85615">
        <ele>277</ele>
        <time>2018-06-01T09:22:39Z</time>
      </trkpt>
      <trkpt lat="45.98233" lon="4.85621">
        <ele>277</ele>
        <time>2018-06-01T09:22:40Z</time>
      </trkpt>
      <trkpt lat="45.98235" lon="4.85628">
        <ele>277</ele>
        <time>2018-06-01T09:22:41Z</time>
      </trkpt>
      <trkpt lat="45.98237" lon="4.85637">
        <ele>277</ele>
        <time>2018-06-01T09:22:42Z</time>
      </trkpt>
      <trkpt lat="45.98241" lon="4.85643">
        <ele>277</ele>
        <time>2018-06-01T09:22:43Z</time>
      </trkpt>
      <trkpt lat="45.98243" lon="4.8565">
        <ele>276</ele>
        <time>2018-06-01T09:22:44Z</time>
      </trkpt>
      <trkpt lat="45.98246" lon="4.85658">
        <ele>276</ele>
        <time>2018-06-01T09:22:45Z</time>
      </trkpt>
      <trkpt lat="45.98249" lon="4.85664">
        <ele>276</ele>
        <time>2018-06-01T09:22:46Z</time>
      </trkpt>
      <trkpt lat="45.98251" lon="4.85671">
        <ele>276</ele>
        <time>2018-06-01T09:22:47Z</time>
      </trkpt>
      <trkpt lat="45.98254" lon="4.85676">
        <ele>275</ele>
        <time>2018-06-01T09:22:48Z</time>
      </trkpt>
      <trkpt lat="45.98256" lon="4.85684">
        <ele>275</ele>
        <time>2018-06-01T09:22:49Z</time>
      </trkpt>
      <trkpt lat="45.9826" lon="4.85692">
        <ele>275</ele>
        <time>2018-06-01T09:22:50Z</time>
      </trkpt>
      <trkpt lat="45.98262" lon="4.85698">
        <ele>275</ele>
        <time>2018-06-01T09:22:51Z</time>
      </trkpt>
      <trkpt lat="45.98264" lon="4.85706">
        <ele>275</ele>
        <time>2018-06-01T09:22:52Z</time>
      </trkpt>
      <trkpt lat="45.98267" lon="4.85712">
        <ele>275</ele>
        <time>2018-06-01T09:22:53Z</time>
      </trkpt>
      <trkpt lat="45.9827" lon="4.8572">
        <ele>275</ele>
        <time>2018-06-01T09:22:54Z</time>
      </trkpt>
      <trkpt lat="45.98272" lon="4.85727">
        <ele>274</ele>
        <time>2018-06-01T09:22:55Z</time>
      </trkpt>
      <trkpt lat="45.98274" lon="4.85734">
        <ele>274</ele>
        <time>2018-06-01T09:22:56Z</time>
      </trkpt>
      <trkpt lat="45.98279" lon="4.85738">
        <ele>274</ele>
        <time>2018-06-01T09:22:57Z</time>
      </trkpt>
      <trkpt lat="45.98281" lon="4.85745">
        <ele>274</ele>
        <time>2018-06-01T09:22:58Z</time>
      </trkpt>
      <trkpt lat="45.98284" lon="4.85755">
        <ele>275</ele>
        <time>2018-06-01T09:22:59Z</time>
      </trkpt>
      <trkpt lat="45.98287" lon="4.85762">
        <ele>275</ele>
        <time>2018-06-01T09:23:00Z</time>
      </trkpt>
      <trkpt lat="45.9829" lon="4.85768">
        <ele>275</ele>
        <time>2018-06-01T09:23:01Z</time>
      </trkpt>
      <trkpt lat="45.98293" lon="4.85774">
        <ele>275</ele>
        <time>2018-06-01T09:23:02Z</time>
      </trkpt>
      <trkpt lat="45.98296" lon="4.85782">
        <ele>275</ele>
        <time>2018-06-01T09:23:03Z</time>
      </trkpt>
      <trkpt lat="45.983" lon="4.85788">
        <ele>275</ele>
        <time>2018-06-01T09:23:04Z</time>
      </trkpt>
      <trkpt lat="45.98302" lon="4.85796">
        <ele>275</ele>
        <time>2018-06-01T09:23:05Z</time>
      </trkpt>
      <trkpt lat="45.98304" lon="4.85803">
        <ele>275</ele>
        <time>2018-06-01T09:23:06Z</time>
      </trkpt>
      <trkpt lat="45.98307" lon="4.8581">
        <ele>275</ele>
        <time>2018-06-01T09:23:07Z</time>
      </trkpt>
      <trkpt lat="45.98309" lon="4.85816">
        <ele>275</ele>
        <time>2018-06-01T09:23:08Z</time>
      </trkpt>
      <trkpt lat="45.98312" lon="4.85823">
        <ele>275</ele>
        <time>2018-06-01T09:23:09Z</time>
      </trkpt>
      <trkpt lat="45.98315" lon="4.85829">
        <ele>275</ele>
        <time>2018-06-01T09:23:10Z</time>
      </trkpt>
      <trkpt lat="45.98317" lon="4.85836">
        <ele>276</ele>
        <time>2018-06-01T09:23:11Z</time>
      </trkpt>
      <trkpt lat="45.98318" lon="4.85842">
        <ele>276</ele>
        <time>2018-06-01T09:23:12Z</time>
      </trkpt>
      <trkpt lat="45.98322" lon="4.8585">
        <ele>276</ele>
        <time>2018-06-01T09:23:13Z</time>
      </trkpt>
      <trkpt lat="45.98324" lon="4.85857">
        <ele>276</ele>
        <time>2018-06-01T09:23:14Z</time>
      </trkpt>
      <trkpt lat="45.98326" lon="4.85864">
        <ele>276</ele>
        <time>2018-06-01T09:23:15Z</time>
      </trkpt>
      <trkpt lat="45.98328" lon="4.85871">
        <ele>276</ele>
        <time>2018-06-01T09:23:16Z</time>
      </trkpt>
      <trkpt lat="45.98331" lon="4.85882">
        <ele>276</ele>
        <time>2018-06-01T09:23:18Z</time>
      </trkpt>
      <trkpt lat="45.98333" lon="4.85887">
        <ele>276</ele>
        <time>2018-06-01T09:23:19Z</time>
      </trkpt>
      <trkpt lat="45.98334" lon="4.85895">
        <ele>276</ele>
        <time>2018-06-01T09:23:20Z</time>
      </trkpt>
      <trkpt lat="45.9834" lon="4.85902">
        <ele>276</ele>
        <time>2018-06-01T09:23:21Z</time>
      </trkpt>
      <trkpt lat="45.98344" lon="4.85912">
        <ele>276</ele>
        <time>2018-06-01T09:23:23Z</time>
      </trkpt>
      <trkpt lat="45.98345" lon="4.85918">
        <ele>276</ele>
        <time>2018-06-01T09:23:24Z</time>
      </trkpt>
      <trkpt lat="45.98349" lon="4.85927">
        <ele>276</ele>
        <time>2018-06-01T09:23:25Z</time>
      </trkpt>
      <trkpt lat="45.98356" lon="4.85937">
        <ele>276</ele>
        <time>2018-06-01T09:23:26Z</time>
      </trkpt>
      <trkpt lat="45.98353" lon="4.85946">
        <ele>276</ele>
        <time>2018-06-01T09:23:27Z</time>
      </trkpt>
      <trkpt lat="45.9836" lon="4.85952">
        <ele>276</ele>
        <time>2018-06-01T09:23:28Z</time>
      </trkpt>
      <trkpt lat="45.98363" lon="4.85963">
        <ele>276</ele>
        <time>2018-06-01T09:23:29Z</time>
      </trkpt>
      <trkpt lat="45.98361" lon="4.85969">
        <ele>276</ele>
        <time>2018-06-01T09:23:30Z</time>
      </trkpt>
      <trkpt lat="45.98365" lon="4.85978">
        <ele>276</ele>
        <time>2018-06-01T09:23:32Z</time>
      </trkpt>
      <trkpt lat="45.9837" lon="4.85986">
        <ele>276</ele>
        <time>2018-06-01T09:23:33Z</time>
      </trkpt>
      <trkpt lat="45.98374" lon="4.85993">
        <ele>277</ele>
        <time>2018-06-01T09:23:34Z</time>
      </trkpt>
      <trkpt lat="45.98378" lon="4.86002">
        <ele>277</ele>
        <time>2018-06-01T09:23:35Z</time>
      </trkpt>
      <trkpt lat="45.98383" lon="4.86004">
        <ele>277</ele>
        <time>2018-06-01T09:23:36Z</time>
      </trkpt>
      <trkpt lat="45.98385" lon="4.86014">
        <ele>277</ele>
        <time>2018-06-01T09:23:37Z</time>
      </trkpt>
      <trkpt lat="45.98387" lon="4.86019">
        <ele>277</ele>
        <time>2018-06-01T09:23:38Z</time>
      </trkpt>
      <trkpt lat="45.98388" lon="4.86026">
        <ele>277</ele>
        <time>2018-06-01T09:23:39Z</time>
      </trkpt>
      <trkpt lat="45.98392" lon="4.86034">
        <ele>277</ele>
        <time>2018-06-01T09:23:40Z</time>
      </trkpt>
      <trkpt lat="45.98394" lon="4.86042">
        <ele>277</ele>
        <time>2018-06-01T09:23:41Z</time>
      </trkpt>
      <trkpt lat="45.98397" lon="4.86048">
        <ele>277</ele>
        <time>2018-06-01T09:23:42Z</time>
      </trkpt>
      <trkpt lat="45.984" lon="4.86055">
        <ele>277</ele>
        <time>2018-06-01T09:23:43Z</time>
      </trkpt>
      <trkpt lat="45.98403" lon="4.86062">
        <ele>277</ele>
        <time>2018-06-01T09:23:44Z</time>
      </trkpt>
      <trkpt lat="45.98406" lon="4.86069">
        <ele>277</ele>
        <time>2018-06-01T09:23:45Z</time>
      </trkpt>
      <trkpt lat="45.98407" lon="4.86076">
        <ele>277</ele>
        <time>2018-06-01T09:23:46Z</time>
      </trkpt>
      <trkpt lat="45.98408" lon="4.86083">
        <ele>277</ele>
        <time>2018-06-01T09:23:47Z</time>
      </trkpt>
      <trkpt lat="45.98409" lon="4.8609">
        <ele>277</ele>
        <time>2018-06-01T09:23:48Z</time>
      </trkpt>
      <trkpt lat="45.98408" lon="4.86098">
        <ele>277</ele>
        <time>2018-06-01T09:23:49Z</time>
      </trkpt>
      <trkpt lat="45.98411" lon="4.86109">
        <ele>277</ele>
        <time>2018-06-01T09:23:52Z</time>
      </trkpt>
      <trkpt lat="45.98412" lon="4.86112">
        <ele>277</ele>
        <time>2018-06-01T09:23:53Z</time>
      </trkpt>
      <trkpt lat="45.98414" lon="4.86122">
        <ele>277</ele>
        <time>2018-06-01T09:23:54Z</time>
      </trkpt>
      <trkpt lat="45.98414" lon="4.86124">
        <ele>277</ele>
        <time>2018-06-01T09:23:55Z</time>
      </trkpt>
      <trkpt lat="45.98414" lon="4.86127">
        <ele>276</ele>
        <time>2018-06-01T09:23:56Z</time>
      </trkpt>
      <trkpt lat="45.98416" lon="4.86138">
        <ele>276</ele>
        <time>2018-06-01T09:23:57Z</time>
      </trkpt>
      <trkpt lat="45.98416" lon="4.86144">
        <ele>276</ele>
        <time>2018-06-01T09:23:59Z</time>
      </trkpt>
      <trkpt lat="45.98418" lon="4.86154">
        <ele>276</ele>
        <time>2018-06-01T09:24:00Z</time>
      </trkpt>
      <trkpt lat="45.98421" lon="4.86164">
        <ele>276</ele>
        <time>2018-06-01T09:24:02Z</time>
      </trkpt>
      <trkpt lat="45.98422" lon="4.8617">
        <ele>276</ele>
        <time>2018-06-01T09:24:03Z</time>
      </trkpt>
      <trkpt lat="45.98424" lon="4.86182">
        <ele>275</ele>
        <time>2018-06-01T09:24:05Z</time>
      </trkpt>
      <trkpt lat="45.98425" lon="4.86187">
        <ele>275</ele>
        <time>2018-06-01T09:24:06Z</time>
      </trkpt>
      <trkpt lat="45.98427" lon="4.862">
        <ele>275</ele>
        <time>2018-06-01T09:24:08Z</time>
      </trkpt>
      <trkpt lat="45.98427" lon="4.86206">
        <ele>275</ele>
        <time>2018-06-01T09:24:09Z</time>
      </trkpt>
      <trkpt lat="45.98428" lon="4.86213">
        <ele>275</ele>
        <time>2018-06-01T09:24:10Z</time>
      </trkpt>
      <trkpt lat="45.9843" lon="4.8622">
        <ele>275</ele>
        <time>2018-06-01T09:24:11Z</time>
      </trkpt>
      <trkpt lat="45.98431" lon="4.86226">
        <ele>275</ele>
        <time>2018-06-01T09:24:12Z</time>
      </trkpt>
      <trkpt lat="45.98433" lon="4.86234">
        <ele>275</ele>
        <time>2018-06-01T09:24:13Z</time>
      </trkpt>
      <trkpt lat="45.98434" lon="4.86242">
        <ele>275</ele>
        <time>2018-06-01T09:24:14Z</time>
      </trkpt>
      <trkpt lat="45.98435" lon="4.86249">
        <ele>275</ele>
        <time>2018-06-01T09:24:15Z</time>
      </trkpt>
      <trkpt lat="45.98436" lon="4.86257">
        <ele>275</ele>
        <time>2018-06-01T09:24:16Z</time>
      </trkpt>
      <trkpt lat="45.98438" lon="4.86266">
        <ele>275</ele>
        <time>2018-06-01T09:24:17Z</time>
      </trkpt>
      <trkpt lat="45.98438" lon="4.86276">
        <ele>276</ele>
        <time>2018-06-01T09:24:18Z</time>
      </trkpt>
      <trkpt lat="45.98439" lon="4.86287">
        <ele>276</ele>
        <time>2018-06-01T09:24:19Z</time>
      </trkpt>
      <trkpt lat="45.98441" lon="4.86298">
        <ele>276</ele>
        <time>2018-06-01T09:24:20Z</time>
      </trkpt>
      <trkpt lat="45.98443" lon="4.86308">
        <ele>276</ele>
        <time>2018-06-01T09:24:21Z</time>
      </trkpt>
      <trkpt lat="45.98445" lon="4.86319">
        <ele>276</ele>
        <time>2018-06-01T09:24:22Z</time>
      </trkpt>
      <trkpt lat="45.98448" lon="4.86328">
        <ele>276</ele>
        <time>2018-06-01T09:24:23Z</time>
      </trkpt>
      <trkpt lat="45.98452" lon="4.86336">
        <ele>277</ele>
        <time>2018-06-01T09:24:24Z</time>
      </trkpt>
      <trkpt lat="45.98455" lon="4.86346">
        <ele>277</ele>
        <time>2018-06-01T09:24:25Z</time>
      </trkpt>
      <trkpt lat="45.98457" lon="4.86355">
        <ele>277</ele>
        <time>2018-06-01T09:24:26Z</time>
      </trkpt>
      <trkpt lat="45.9846" lon="4.86364">
        <ele>277</ele>
        <time>2018-06-01T09:24:27Z</time>
      </trkpt>
      <trkpt lat="45.98461" lon="4.86373">
        <ele>277</ele>
        <time>2018-06-01T09:24:28Z</time>
      </trkpt>
      <trkpt lat="45.98465" lon="4.8638">
        <ele>277</ele>
        <time>2018-06-01T09:24:29Z</time>
      </trkpt>
      <trkpt lat="45.98468" lon="4.86389">
        <ele>277</ele>
        <time>2018-06-01T09:24:30Z</time>
      </trkpt>
      <trkpt lat="45.9847" lon="4.86397">
        <ele>277</ele>
        <time>2018-06-01T09:24:31Z</time>
      </trkpt>
      <trkpt lat="45.98474" lon="4.86404">
        <ele>277</ele>
        <time>2018-06-01T09:24:32Z</time>
      </trkpt>
      <trkpt lat="45.98477" lon="4.86411">
        <ele>277</ele>
        <time>2018-06-01T09:24:33Z</time>
      </trkpt>
      <trkpt lat="45.98481" lon="4.86419">
        <ele>278</ele>
        <time>2018-06-01T09:24:34Z</time>
      </trkpt>
      <trkpt lat="45.98484" lon="4.86426">
        <ele>278</ele>
        <time>2018-06-01T09:24:35Z</time>
      </trkpt>
      <trkpt lat="45.98488" lon="4.86436">
        <ele>278</ele>
        <time>2018-06-01T09:24:36Z</time>
      </trkpt>
      <trkpt lat="45.98491" lon="4.86442">
        <ele>278</ele>
        <time>2018-06-01T09:24:37Z</time>
      </trkpt>
      <trkpt lat="45.98494" lon="4.8645">
        <ele>278</ele>
        <time>2018-06-01T09:24:38Z</time>
      </trkpt>
      <trkpt lat="45.98497" lon="4.86457">
        <ele>278</ele>
        <time>2018-06-01T09:24:39Z</time>
      </trkpt>
      <trkpt lat="45.98501" lon="4.86463">
        <ele>278</ele>
        <time>2018-06-01T09:24:40Z</time>
      </trkpt>
      <trkpt lat="45.98504" lon="4.8647">
        <ele>278</ele>
        <time>2018-06-01T09:24:41Z</time>
      </trkpt>
      <trkpt lat="45.98509" lon="4.86476">
        <ele>278</ele>
        <time>2018-06-01T09:24:42Z</time>
      </trkpt>
      <trkpt lat="45.98513" lon="4.86484">
        <ele>278</ele>
        <time>2018-06-01T09:24:43Z</time>
      </trkpt>
      <trkpt lat="45.98515" lon="4.86491">
        <ele>278</ele>
        <time>2018-06-01T09:24:44Z</time>
      </trkpt>
      <trkpt lat="45.98519" lon="4.86498">
        <ele>278</ele>
        <time>2018-06-01T09:24:45Z</time>
      </trkpt>
      <trkpt lat="45.98522" lon="4.86506">
        <ele>279</ele>
        <time>2018-06-01T09:24:46Z</time>
      </trkpt>
      <trkpt lat="45.98525" lon="4.86514">
        <ele>279</ele>
        <time>2018-06-01T09:24:47Z</time>
      </trkpt>
      <trkpt lat="45.98529" lon="4.86523">
        <ele>279</ele>
        <time>2018-06-01T09:24:48Z</time>
      </trkpt>
      <trkpt lat="45.98532" lon="4.86528">
        <ele>278</ele>
        <time>2018-06-01T09:24:49Z</time>
      </trkpt>
      <trkpt lat="45.98536" lon="4.86533">
        <ele>278</ele>
        <time>2018-06-01T09:24:50Z</time>
      </trkpt>
      <trkpt lat="45.9854" lon="4.86543">
        <ele>278</ele>
        <time>2018-06-01T09:24:51Z</time>
      </trkpt>
      <trkpt lat="45.98542" lon="4.86551">
        <ele>278</ele>
        <time>2018-06-01T09:24:52Z</time>
      </trkpt>
      <trkpt lat="45.98544" lon="4.86561">
        <ele>278</ele>
        <time>2018-06-01T09:24:53Z</time>
      </trkpt>
      <trkpt lat="45.98547" lon="4.86568">
        <ele>278</ele>
        <time>2018-06-01T09:24:54Z</time>
      </trkpt>
      <trkpt lat="45.9855" lon="4.86576">
        <ele>278</ele>
        <time>2018-06-01T09:24:55Z</time>
      </trkpt>
      <trkpt lat="45.98552" lon="4.86586">
        <ele>278</ele>
        <time>2018-06-01T09:24:56Z</time>
      </trkpt>
      <trkpt lat="45.98556" lon="4.86595">
        <ele>278</ele>
        <time>2018-06-01T09:24:57Z</time>
      </trkpt>
      <trkpt lat="45.98558" lon="4.86603">
        <ele>278</ele>
        <time>2018-06-01T09:24:58Z</time>
      </trkpt>
      <trkpt lat="45.98559" lon="4.86615">
        <ele>278</ele>
        <time>2018-06-01T09:24:59Z</time>
      </trkpt>
      <trkpt lat="45.98559" lon="4.86621">
        <ele>278</ele>
        <time>2018-06-01T09:25:00Z</time>
      </trkpt>
      <trkpt lat="45.98561" lon="4.86632">
        <ele>278</ele>
        <time>2018-06-01T09:25:01Z</time>
      </trkpt>
      <trkpt lat="45.98562" lon="4.86641">
        <ele>277</ele>
        <time>2018-06-01T09:25:02Z</time>
      </trkpt>
      <trkpt lat="45.98563" lon="4.86651">
        <ele>277</ele>
        <time>2018-06-01T09:25:03Z</time>
      </trkpt>
      <trkpt lat="45.98564" lon="4.8666">
        <ele>277</ele>
        <time>2018-06-01T09:25:04Z</time>
      </trkpt>
      <trkpt lat="45.98566" lon="4.86669">
        <ele>276</ele>
        <time>2018-06-01T09:25:05Z</time>
      </trkpt>
      <trkpt lat="45.98564" lon="4.86676">
        <ele>277</ele>
        <time>2018-06-01T09:25:06Z</time>
      </trkpt>
      <trkpt lat="45.98566" lon="4.86686">
        <ele>277</ele>
        <time>2018-06-01T09:25:07Z</time>
      </trkpt>
      <trkpt lat="45.98566" lon="4.86695">
        <ele>277</ele>
        <time>2018-06-01T09:25:08Z</time>
      </trkpt>
      <trkpt lat="45.98567" lon="4.86704">
        <ele>277</ele>
        <time>2018-06-01T09:25:09Z</time>
      </trkpt>
      <trkpt lat="45.98565" lon="4.86714">
        <ele>277</ele>
        <time>2018-06-01T09:25:10Z</time>
      </trkpt>
      <trkpt lat="45.98565" lon="4.86724">
        <ele>277</ele>
        <time>2018-06-01T09:25:11Z</time>
      </trkpt>
      <trkpt lat="45.98566" lon="4.86733">
        <ele>277</ele>
        <time>2018-06-01T09:25:12Z</time>
      </trkpt>
      <trkpt lat="45.98567" lon="4.86743">
        <ele>277</ele>
        <time>2018-06-01T09:25:13Z</time>
      </trkpt>
      <trkpt lat="45.98568" lon="4.86753">
        <ele>277</ele>
        <time>2018-06-01T09:25:14Z</time>
      </trkpt>
      <trkpt lat="45.9857" lon="4.86764">
        <ele>277</ele>
        <time>2018-06-01T09:25:15Z</time>
      </trkpt>
      <trkpt lat="45.9857" lon="4.86772">
        <ele>277</ele>
        <time>2018-06-01T09:25:16Z</time>
      </trkpt>
      <trkpt lat="45.98571" lon="4.8678">
        <ele>277</ele>
        <time>2018-06-01T09:25:17Z</time>
      </trkpt>
      <trkpt lat="45.98572" lon="4.86788">
        <ele>277</ele>
        <time>2018-06-01T09:25:18Z</time>
      </trkpt>
      <trkpt lat="45.98572" lon="4.86797">
        <ele>278</ele>
        <time>2018-06-01T09:25:19Z</time>
      </trkpt>
      <trkpt lat="45.98573" lon="4.86805">
        <ele>278</ele>
        <time>2018-06-01T09:25:20Z</time>
      </trkpt>
      <trkpt lat="45.98573" lon="4.86813">
        <ele>278</ele>
        <time>2018-06-01T09:25:21Z</time>
      </trkpt>
      <trkpt lat="45.98573" lon="4.86821">
        <ele>277</ele>
        <time>2018-06-01T09:25:22Z</time>
      </trkpt>
      <trkpt lat="45.98575" lon="4.8683">
        <ele>277</ele>
        <time>2018-06-01T09:25:23Z</time>
      </trkpt>
      <trkpt lat="45.98576" lon="4.86841">
        <ele>278</ele>
        <time>2018-06-01T09:25:24Z</time>
      </trkpt>
      <trkpt lat="45.9858" lon="4.86853">
        <ele>279</ele>
        <time>2018-06-01T09:25:25Z</time>
      </trkpt>
      <trkpt lat="45.98583" lon="4.86863">
        <ele>279</ele>
        <time>2018-06-01T09:25:26Z</time>
      </trkpt>
      <trkpt lat="45.98583" lon="4.86873">
        <ele>279</ele>
        <time>2018-06-01T09:25:27Z</time>
      </trkpt>
      <trkpt lat="45.98583" lon="4.86883">
        <ele>279</ele>
        <time>2018-06-01T09:25:28Z</time>
      </trkpt>
      <trkpt lat="45.98583" lon="4.86894">
        <ele>279</ele>
        <time>2018-06-01T09:25:29Z</time>
      </trkpt>
      <trkpt lat="45.98583" lon="4.86905">
        <ele>279</ele>
        <time>2018-06-01T09:25:30Z</time>
      </trkpt>
      <trkpt lat="45.98583" lon="4.86914">
        <ele>279</ele>
        <time>2018-06-01T09:25:31Z</time>
      </trkpt>
      <trkpt lat="45.98582" lon="4.86925">
        <ele>280</ele>
        <time>2018-06-01T09:25:32Z</time>
      </trkpt>
      <trkpt lat="45.98582" lon="4.86937">
        <ele>280</ele>
        <time>2018-06-01T09:25:33Z</time>
      </trkpt>
      <trkpt lat="45.98583" lon="4.86948">
        <ele>281</ele>
        <time>2018-06-01T09:25:34Z</time>
      </trkpt>
      <trkpt lat="45.98582" lon="4.86957">
        <ele>281</ele>
        <time>2018-06-01T09:25:35Z</time>
      </trkpt>
      <trkpt lat="45.98582" lon="4.86969">
        <ele>281</ele>
        <time>2018-06-01T09:25:36Z</time>
      </trkpt>
      <trkpt lat="45.98583" lon="4.86981">
        <ele>281</ele>
        <time>2018-06-01T09:25:37Z</time>
      </trkpt>
      <trkpt lat="45.98583" lon="4.86991">
        <ele>280</ele>
        <time>2018-06-01T09:25:38Z</time>
      </trkpt>
      <trkpt lat="45.98584" lon="4.87001">
        <ele>280</ele>
        <time>2018-06-01T09:25:39Z</time>
      </trkpt>
      <trkpt lat="45.98586" lon="4.87013">
        <ele>279</ele>
        <time>2018-06-01T09:25:40Z</time>
      </trkpt>
      <trkpt lat="45.98588" lon="4.87024">
        <ele>279</ele>
        <time>2018-06-01T09:25:41Z</time>
      </trkpt>
      <trkpt lat="45.9859" lon="4.87036">
        <ele>279</ele>
        <time>2018-06-01T09:25:42Z</time>
      </trkpt>
      <trkpt lat="45.98593" lon="4.87048">
        <ele>279</ele>
        <time>2018-06-01T09:25:43Z</time>
      </trkpt>
      <trkpt lat="45.98595" lon="4.87058">
        <ele>279</ele>
        <time>2018-06-01T09:25:44Z</time>
      </trkpt>
      <trkpt lat="45.98598" lon="4.87068">
        <ele>279</ele>
        <time>2018-06-01T09:25:45Z</time>
      </trkpt>
      <trkpt lat="45.98599" lon="4.87077">
        <ele>279</ele>
        <time>2018-06-01T09:25:46Z</time>
      </trkpt>
      <trkpt lat="45.98601" lon="4.87089">
        <ele>279</ele>
        <time>2018-06-01T09:25:47Z</time>
      </trkpt>
      <trkpt lat="45.98601" lon="4.87097">
        <ele>279</ele>
        <time>2018-06-01T09:25:48Z</time>
      </trkpt>
      <trkpt lat="45.98603" lon="4.87108">
        <ele>279</ele>
        <time>2018-06-01T09:25:49Z</time>
      </trkpt>
      <trkpt lat="45.98605" lon="4.87116">
        <ele>279</ele>
        <time>2018-06-01T09:25:50Z</time>
      </trkpt>
      <trkpt lat="45.98609" lon="4.87131">
        <ele>279</ele>
        <time>2018-06-01T09:25:51Z</time>
      </trkpt>
      <trkpt lat="45.9861" lon="4.87141">
        <ele>278</ele>
        <time>2018-06-01T09:25:52Z</time>
      </trkpt>
      <trkpt lat="45.98608" lon="4.87153">
        <ele>278</ele>
        <time>2018-06-01T09:25:53Z</time>
      </trkpt>
      <trkpt lat="45.98608" lon="4.87165">
        <ele>278</ele>
        <time>2018-06-01T09:25:54Z</time>
      </trkpt>
      <trkpt lat="45.98609" lon="4.87177">
        <ele>277</ele>
        <time>2018-06-01T09:25:55Z</time>
      </trkpt>
      <trkpt lat="45.98607" lon="4.87189">
        <ele>277</ele>
        <time>2018-06-01T09:25:56Z</time>
      </trkpt>
      <trkpt lat="45.98608" lon="4.87199">
        <ele>277</ele>
        <time>2018-06-01T09:25:57Z</time>
      </trkpt>
      <trkpt lat="45.98611" lon="4.87205">
        <ele>277</ele>
        <time>2018-06-01T09:25:58Z</time>
      </trkpt>
      <trkpt lat="45.98608" lon="4.87218">
        <ele>277</ele>
        <time>2018-06-01T09:25:59Z</time>
      </trkpt>
      <trkpt lat="45.98607" lon="4.87227">
        <ele>277</ele>
        <time>2018-06-01T09:26:00Z</time>
      </trkpt>
      <trkpt lat="45.98605" lon="4.87238">
        <ele>277</ele>
        <time>2018-06-01T09:26:01Z</time>
      </trkpt>
      <trkpt lat="45.98603" lon="4.87247">
        <ele>277</ele>
        <time>2018-06-01T09:26:02Z</time>
      </trkpt>
      <trkpt lat="45.98602" lon="4.87257">
        <ele>275</ele>
        <time>2018-06-01T09:26:03Z</time>
      </trkpt>
      <trkpt lat="45.986" lon="4.8727">
        <ele>275</ele>
        <time>2018-06-01T09:26:04Z</time>
      </trkpt>
      <trkpt lat="45.98599" lon="4.87281">
        <ele>275</ele>
        <time>2018-06-01T09:26:05Z</time>
      </trkpt>
      <trkpt lat="45.98598" lon="4.87292">
        <ele>275</ele>
        <time>2018-06-01T09:26:06Z</time>
      </trkpt>
      <trkpt lat="45.98597" lon="4.87303">
        <ele>274</ele>
        <time>2018-06-01T09:26:07Z</time>
      </trkpt>
      <trkpt lat="45.98599" lon="4.87315">
        <ele>274</ele>
        <time>2018-06-01T09:26:08Z</time>
      </trkpt>
      <trkpt lat="45.98599" lon="4.87324">
        <ele>274</ele>
        <time>2018-06-01T09:26:09Z</time>
      </trkpt>
      <trkpt lat="45.98606" lon="4.87336">
        <ele>272</ele>
        <time>2018-06-01T09:26:10Z</time>
      </trkpt>
      <trkpt lat="45.98608" lon="4.87347">
        <ele>272</ele>
        <time>2018-06-01T09:26:11Z</time>
      </trkpt>
      <trkpt lat="45.98611" lon="4.87358">
        <ele>272</ele>
        <time>2018-06-01T09:26:12Z</time>
      </trkpt>
      <trkpt lat="45.98612" lon="4.87368">
        <ele>271</ele>
        <time>2018-06-01T09:26:13Z</time>
      </trkpt>
      <trkpt lat="45.98613" lon="4.8738">
        <ele>271</ele>
        <time>2018-06-01T09:26:14Z</time>
      </trkpt>
      <trkpt lat="45.98617" lon="4.87389">
        <ele>271</ele>
        <time>2018-06-01T09:26:15Z</time>
      </trkpt>
      <trkpt lat="45.98617" lon="4.87398">
        <ele>271</ele>
        <time>2018-06-01T09:26:16Z</time>
      </trkpt>
      <trkpt lat="45.98618" lon="4.87412">
        <ele>271</ele>
        <time>2018-06-01T09:26:17Z</time>
      </trkpt>
      <trkpt lat="45.98619" lon="4.87422">
        <ele>269</ele>
        <time>2018-06-01T09:26:18Z</time>
      </trkpt>
      <trkpt lat="45.98622" lon="4.87434">
        <ele>269</ele>
        <time>2018-06-01T09:26:19Z</time>
      </trkpt>
      <trkpt lat="45.98626" lon="4.87448">
        <ele>268</ele>
        <time>2018-06-01T09:26:20Z</time>
      </trkpt>
      <trkpt lat="45.98629" lon="4.8746">
        <ele>268</ele>
        <time>2018-06-01T09:26:21Z</time>
      </trkpt>
      <trkpt lat="45.98631" lon="4.87472">
        <ele>268</ele>
        <time>2018-06-01T09:26:22Z</time>
      </trkpt>
      <trkpt lat="45.98635" lon="4.87483">
        <ele>268</ele>
        <time>2018-06-01T09:26:23Z</time>
      </trkpt>
      <trkpt lat="45.98637" lon="4.87494">
        <ele>267</ele>
        <time>2018-06-01T09:26:24Z</time>
      </trkpt>
      <trkpt lat="45.98639" lon="4.87506">
        <ele>267</ele>
        <time>2018-06-01T09:26:25Z</time>
      </trkpt>
      <trkpt lat="45.98642" lon="4.87518">
        <ele>267</ele>
        <time>2018-06-01T09:26:26Z</time>
      </trkpt>
      <trkpt lat="45.98644" lon="4.87529">
        <ele>267</ele>
        <time>2018-06-01T09:26:27Z</time>
      </trkpt>
      <trkpt lat="45.98647" lon="4.8754">
        <ele>267</ele>
        <time>2018-06-01T09:26:28Z</time>
      </trkpt>
      <trkpt lat="45.98649" lon="4.8755">
        <ele>267</ele>
        <time>2018-06-01T09:26:29Z</time>
      </trkpt>
      <trkpt lat="45.98655" lon="4.87558">
        <ele>267</ele>
        <time>2018-06-01T09:26:30Z</time>
      </trkpt>
      <trkpt lat="45.98661" lon="4.87564">
        <ele>267</ele>
        <time>2018-06-01T09:26:31Z</time>
      </trkpt>
      <trkpt lat="45.98666" lon="4.87571">
        <ele>267</ele>
        <time>2018-06-01T09:26:32Z</time>
      </trkpt>
      <trkpt lat="45.98671" lon="4.87575">
        <ele>267</ele>
        <time>2018-06-01T09:26:33Z</time>
      </trkpt>
      <trkpt lat="45.98678" lon="4.87578">
        <ele>267</ele>
        <time>2018-06-01T09:26:34Z</time>
      </trkpt>
      <trkpt lat="45.98683" lon="4.87579">
        <ele>267</ele>
        <time>2018-06-01T09:26:35Z</time>
      </trkpt>
      <trkpt lat="45.9869" lon="4.87573">
        <ele>267</ele>
        <time>2018-06-01T09:26:36Z</time>
      </trkpt>
      <trkpt lat="45.98697" lon="4.87576">
        <ele>267</ele>
        <time>2018-06-01T09:26:37Z</time>
      </trkpt>
      <trkpt lat="45.98704" lon="4.87567">
        <ele>267</ele>
        <time>2018-06-01T09:26:38Z</time>
      </trkpt>
      <trkpt lat="45.98708" lon="4.87565">
        <ele>267</ele>
        <time>2018-06-01T09:26:39Z</time>
      </trkpt>
      <trkpt lat="45.98713" lon="4.87564">
        <ele>267</ele>
        <time>2018-06-01T09:26:40Z</time>
      </trkpt>
      <trkpt lat="45.98722" lon="4.87563">
        <ele>267</ele>
        <time>2018-06-01T09:26:41Z</time>
      </trkpt>
      <trkpt lat="45.9873" lon="4.87563">
        <ele>267</ele>
        <time>2018-06-01T09:26:42Z</time>
      </trkpt>
      <trkpt lat="45.98738" lon="4.87562">
        <ele>267</ele>
        <time>2018-06-01T09:26:43Z</time>
      </trkpt>
      <trkpt lat="45.98747" lon="4.87563">
        <ele>267</ele>
        <time>2018-06-01T09:26:44Z</time>
      </trkpt>
      <trkpt lat="45.98754" lon="4.87562">
        <ele>269</ele>
        <time>2018-06-01T09:26:45Z</time>
      </trkpt>
      <trkpt lat="45.98758" lon="4.87567">
        <ele>269</ele>
        <time>2018-06-01T09:26:46Z</time>
      </trkpt>
      <trkpt lat="45.98766" lon="4.87569">
        <ele>269</ele>
        <time>2018-06-01T09:26:47Z</time>
      </trkpt>
      <trkpt lat="45.9877" lon="4.87572">
        <ele>269</ele>
        <time>2018-06-01T09:26:48Z</time>
      </trkpt>
      <trkpt lat="45.98775" lon="4.87576">
        <ele>269</ele>
        <time>2018-06-01T09:26:49Z</time>
      </trkpt>
      <trkpt lat="45.98779" lon="4.87579">
        <ele>269</ele>
        <time>2018-06-01T09:26:50Z</time>
      </trkpt>
      <trkpt lat="45.98785" lon="4.87587">
        <ele>271</ele>
        <time>2018-06-01T09:26:51Z</time>
      </trkpt>
      <trkpt lat="45.9879" lon="4.87591">
        <ele>271</ele>
        <time>2018-06-01T09:26:52Z</time>
      </trkpt>
      <trkpt lat="45.98792" lon="4.876">
        <ele>271</ele>
        <time>2018-06-01T09:26:54Z</time>
      </trkpt>
      <trkpt lat="45.98799" lon="4.8761">
        <ele>271</ele>
        <time>2018-06-01T09:26:55Z</time>
      </trkpt>
      <trkpt lat="45.98805" lon="4.87616">
        <ele>271</ele>
        <time>2018-06-01T09:26:57Z</time>
      </trkpt>
      <trkpt lat="45.98808" lon="4.87624">
        <ele>271</ele>
        <time>2018-06-01T09:26:58Z</time>
      </trkpt>
      <trkpt lat="45.98812" lon="4.87633">
        <ele>271</ele>
        <time>2018-06-01T09:27:00Z</time>
      </trkpt>
      <trkpt lat="45.98815" lon="4.87637">
        <ele>272</ele>
        <time>2018-06-01T09:27:01Z</time>
      </trkpt>
      <trkpt lat="45.98816" lon="4.87645">
        <ele>272</ele>
        <time>2018-06-01T09:27:02Z</time>
      </trkpt>
      <trkpt lat="45.9882" lon="4.87654">
        <ele>272</ele>
        <time>2018-06-01T09:27:03Z</time>
      </trkpt>
      <trkpt lat="45.9882" lon="4.87659">
        <ele>272</ele>
        <time>2018-06-01T09:27:04Z</time>
      </trkpt>
      <trkpt lat="45.98823" lon="4.87666">
        <ele>272</ele>
        <time>2018-06-01T09:27:05Z</time>
      </trkpt>
      <trkpt lat="45.98823" lon="4.87675">
        <ele>273</ele>
        <time>2018-06-01T09:27:06Z</time>
      </trkpt>
      <trkpt lat="45.98824" lon="4.87683">
        <ele>273</ele>
        <time>2018-06-01T09:27:07Z</time>
      </trkpt>
      <trkpt lat="45.98824" lon="4.8769">
        <ele>273</ele>
        <time>2018-06-01T09:27:08Z</time>
      </trkpt>
      <trkpt lat="45.98824" lon="4.87697">
        <ele>273</ele>
        <time>2018-06-01T09:27:09Z</time>
      </trkpt>
      <trkpt lat="45.98827" lon="4.87707">
        <ele>273</ele>
        <time>2018-06-01T09:27:10Z</time>
      </trkpt>
      <trkpt lat="45.98829" lon="4.87715">
        <ele>274</ele>
        <time>2018-06-01T09:27:11Z</time>
      </trkpt>
      <trkpt lat="45.98832" lon="4.87725">
        <ele>274</ele>
        <time>2018-06-01T09:27:12Z</time>
      </trkpt>
      <trkpt lat="45.98834" lon="4.87732">
        <ele>273</ele>
        <time>2018-06-01T09:27:13Z</time>
      </trkpt>
      <trkpt lat="45.98835" lon="4.87738">
        <ele>273</ele>
        <time>2018-06-01T09:27:14Z</time>
      </trkpt>
      <trkpt lat="45.98836" lon="4.87746">
        <ele>273</ele>
        <time>2018-06-01T09:27:15Z</time>
      </trkpt>
      <trkpt lat="45.98838" lon="4.87754">
        <ele>273</ele>
        <time>2018-06-01T09:27:16Z</time>
      </trkpt>
      <trkpt lat="45.98839" lon="4.8776">
        <ele>273</ele>
        <time>2018-06-01T09:27:17Z</time>
      </trkpt>
      <trkpt lat="45.98842" lon="4.87767">
        <ele>273</ele>
        <time>2018-06-01T09:27:18Z</time>
      </trkpt>
      <trkpt lat="45.98844" lon="4.87775">
        <ele>273</ele>
        <time>2018-06-01T09:27:19Z</time>
      </trkpt>
      <trkpt lat="45.98846" lon="4.87782">
        <ele>273</ele>
        <time>2018-06-01T09:27:20Z</time>
      </trkpt>
      <trkpt lat="45.98848" lon="4.87788">
        <ele>273</ele>
        <time>2018-06-01T09:27:21Z</time>
      </trkpt>
      <trkpt lat="45.98851" lon="4.87796">
        <ele>273</ele>
        <time>2018-06-01T09:27:22Z</time>
      </trkpt>
      <trkpt lat="45.98854" lon="4.87804">
        <ele>273</ele>
        <time>2018-06-01T09:27:23Z</time>
      </trkpt>
      <trkpt lat="45.98857" lon="4.87815">
        <ele>273</ele>
        <time>2018-06-01T09:27:25Z</time>
      </trkpt>
      <trkpt lat="45.98857" lon="4.87818">
        <ele>273</ele>
        <time>2018-06-01T09:27:26Z</time>
      </trkpt>
      <trkpt lat="45.98861" lon="4.87824">
        <ele>273</ele>
        <time>2018-06-01T09:27:27Z</time>
      </trkpt>
      <trkpt lat="45.98862" lon="4.87832">
        <ele>273</ele>
        <time>2018-06-01T09:27:28Z</time>
      </trkpt>
      <trkpt lat="45.98866" lon="4.8784">
        <ele>273</ele>
        <time>2018-06-01T09:27:29Z</time>
      </trkpt>
      <trkpt lat="45.9887" lon="4.87848">
        <ele>273</ele>
        <time>2018-06-01T09:27:30Z</time>
      </trkpt>
      <trkpt lat="45.98874" lon="4.87857">
        <ele>273</ele>
        <time>2018-06-01T09:27:31Z</time>
      </trkpt>
      <trkpt lat="45.98878" lon="4.87863">
        <ele>272</ele>
        <time>2018-06-01T09:27:32Z</time>
      </trkpt>
      <trkpt lat="45.98882" lon="4.87866">
        <ele>272</ele>
        <time>2018-06-01T09:27:33Z</time>
      </trkpt>
      <trkpt lat="45.98886" lon="4.87871">
        <ele>272</ele>
        <time>2018-06-01T09:27:34Z</time>
      </trkpt>
      <trkpt lat="45.98889" lon="4.87877">
        <ele>272</ele>
        <time>2018-06-01T09:27:35Z</time>
      </trkpt>
      <trkpt lat="45.98893" lon="4.87884">
        <ele>272</ele>
        <time>2018-06-01T09:27:36Z</time>
      </trkpt>
      <trkpt lat="45.989" lon="4.87891">
        <ele>272</ele>
        <time>2018-06-01T09:27:38Z</time>
      </trkpt>
      <trkpt lat="45.98903" lon="4.87895">
        <ele>272</ele>
        <time>2018-06-01T09:27:39Z</time>
      </trkpt>
      <trkpt lat="45.98907" lon="4.87899">
        <ele>272</ele>
        <time>2018-06-01T09:27:40Z</time>
      </trkpt>
      <trkpt lat="45.98911" lon="4.87903">
        <ele>272</ele>
        <time>2018-06-01T09:27:41Z</time>
      </trkpt>
      <trkpt lat="45.98915" lon="4.87907">
        <ele>271</ele>
        <time>2018-06-01T09:27:42Z</time>
      </trkpt>
      <trkpt lat="45.98919" lon="4.87913">
        <ele>272</ele>
        <time>2018-06-01T09:27:43Z</time>
      </trkpt>
      <trkpt lat="45.98923" lon="4.87917">
        <ele>272</ele>
        <time>2018-06-01T09:27:45Z</time>
      </trkpt>
      <trkpt lat="45.98927" lon="4.87922">
        <ele>272</ele>
        <time>2018-06-01T09:27:46Z</time>
      </trkpt>
      <trkpt lat="45.98935" lon="4.87925">
        <ele>272</ele>
        <time>2018-06-01T09:27:48Z</time>
      </trkpt>
      <trkpt lat="45.98937" lon="4.87926">
        <ele>272</ele>
        <time>2018-06-01T09:27:49Z</time>
      </trkpt>
      <trkpt lat="45.98938" lon="4.87926">
        <ele>272</ele>
        <time>2018-06-01T09:27:50Z</time>
      </trkpt>
      <trkpt lat="45.98946" lon="4.87929">
        <ele>273</ele>
        <time>2018-06-01T09:27:51Z</time>
      </trkpt>
      <trkpt lat="45.98954" lon="4.87932">
        <ele>273</ele>
        <time>2018-06-01T09:27:54Z</time>
      </trkpt>
      <trkpt lat="45.98961" lon="4.87934">
        <ele>273</ele>
        <time>2018-06-01T09:27:55Z</time>
      </trkpt>
      <trkpt lat="45.98969" lon="4.87937">
        <ele>274</ele>
        <time>2018-06-01T09:27:57Z</time>
      </trkpt>
      <trkpt lat="45.98973" lon="4.87939">
        <ele>274</ele>
        <time>2018-06-01T09:27:58Z</time>
      </trkpt>
      <trkpt lat="45.98977" lon="4.8794">
        <ele>274</ele>
        <time>2018-06-01T09:28:00Z</time>
      </trkpt>
      <trkpt lat="45.98983" lon="4.87943">
        <ele>274</ele>
        <time>2018-06-01T09:28:01Z</time>
      </trkpt>
      <trkpt lat="45.9899" lon="4.87947">
        <ele>274</ele>
        <time>2018-06-01T09:28:04Z</time>
      </trkpt>
      <trkpt lat="45.98991" lon="4.87948">
        <ele>274</ele>
        <time>2018-06-01T09:28:05Z</time>
      </trkpt>
      <trkpt lat="45.98997" lon="4.87952">
        <ele>274</ele>
        <time>2018-06-01T09:28:08Z</time>
      </trkpt>
      <trkpt lat="45.99" lon="4.87954">
        <ele>274</ele>
        <time>2018-06-01T09:28:09Z</time>
      </trkpt>
      <trkpt lat="45.99002" lon="4.87955">
        <ele>276</ele>
        <time>2018-06-01T09:28:10Z</time>
      </trkpt>
      <trkpt lat="45.99011" lon="4.87962">
        <ele>276</ele>
        <time>2018-06-01T09:28:11Z</time>
      </trkpt>
      <trkpt lat="45.99018" lon="4.87965">
        <ele>276</ele>
        <time>2018-06-01T09:28:15Z</time>
      </trkpt>
      <trkpt lat="45.9902" lon="4.87967">
        <ele>276</ele>
        <time>2018-06-01T09:28:16Z</time>
      </trkpt>
      <trkpt lat="45.99028" lon="4.87972">
        <ele>276</ele>
        <time>2018-06-01T09:28:19Z</time>
      </trkpt>
      <trkpt lat="45.9903" lon="4.87973">
        <ele>276</ele>
        <time>2018-06-01T09:28:20Z</time>
      </trkpt>
      <trkpt lat="45.99036" lon="4.87977">
        <ele>276</ele>
        <time>2018-06-01T09:28:22Z</time>
      </trkpt>
      <trkpt lat="45.99039" lon="4.87979">
        <ele>276</ele>
        <time>2018-06-01T09:28:23Z</time>
      </trkpt>
      <trkpt lat="45.99044" lon="4.87982">
        <ele>277</ele>
        <time>2018-06-01T09:28:25Z</time>
      </trkpt>
      <trkpt lat="45.99047" lon="4.87984">
        <ele>277</ele>
        <time>2018-06-01T09:28:26Z</time>
      </trkpt>
      <trkpt lat="45.99053" lon="4.87988">
        <ele>277</ele>
        <time>2018-06-01T09:28:28Z</time>
      </trkpt>
      <trkpt lat="45.99056" lon="4.8799">
        <ele>277</ele>
        <time>2018-06-01T09:28:29Z</time>
      </trkpt>
      <trkpt lat="45.99062" lon="4.87994">
        <ele>277</ele>
        <time>2018-06-01T09:28:31Z</time>
      </trkpt>
      <trkpt lat="45.99066" lon="4.87996">
        <ele>277</ele>
        <time>2018-06-01T09:28:32Z</time>
      </trkpt>
      <trkpt lat="45.99076" lon="4.88001">
        <ele>278</ele>
        <time>2018-06-01T09:28:33Z</time>
      </trkpt>
      <trkpt lat="45.99084" lon="4.88006">
        <ele>278</ele>
        <time>2018-06-01T09:28:37Z</time>
      </trkpt>
      <trkpt lat="45.99087" lon="4.88008">
        <ele>278</ele>
        <time>2018-06-01T09:28:38Z</time>
      </trkpt>
      <trkpt lat="45.99095" lon="4.88012">
        <ele>278</ele>
        <time>2018-06-01T09:28:39Z</time>
      </trkpt>
      <trkpt lat="45.99098" lon="4.88014">
        <ele>278</ele>
        <time>2018-06-01T09:28:40Z</time>
      </trkpt>
      <trkpt lat="45.99105" lon="4.88018">
        <ele>278</ele>
        <time>2018-06-01T09:28:42Z</time>
      </trkpt>
      <trkpt lat="45.99108" lon="4.8802">
        <ele>278</ele>
        <time>2018-06-01T09:28:43Z</time>
      </trkpt>
      <trkpt lat="45.99115" lon="4.88024">
        <ele>278</ele>
        <time>2018-06-01T09:28:45Z</time>
      </trkpt>
      <trkpt lat="45.99118" lon="4.88026">
        <ele>278</ele>
        <time>2018-06-01T09:28:46Z</time>
      </trkpt>
      <trkpt lat="45.99126" lon="4.8803">
        <ele>279</ele>
        <time>2018-06-01T09:28:48Z</time>
      </trkpt>
      <trkpt lat="45.99129" lon="4.88032">
        <ele>279</ele>
        <time>2018-06-01T09:28:49Z</time>
      </trkpt>
      <trkpt lat="45.99136" lon="4.88036">
        <ele>279</ele>
        <time>2018-06-01T09:28:51Z</time>
      </trkpt>
      <trkpt lat="45.9914" lon="4.88038">
        <ele>279</ele>
        <time>2018-06-01T09:28:52Z</time>
      </trkpt>
      <trkpt lat="45.99147" lon="4.88043">
        <ele>279</ele>
        <time>2018-06-01T09:28:54Z</time>
      </trkpt>
      <trkpt lat="45.9915" lon="4.88045">
        <ele>279</ele>
        <time>2018-06-01T09:28:55Z</time>
      </trkpt>
      <trkpt lat="45.99158" lon="4.8805">
        <ele>279</ele>
        <time>2018-06-01T09:28:57Z</time>
      </trkpt>
      <trkpt lat="45.99161" lon="4.88053">
        <ele>279</ele>
        <time>2018-06-01T09:28:58Z</time>
      </trkpt>
      <trkpt lat="45.99167" lon="4.88057">
        <ele>279</ele>
        <time>2018-06-01T09:29:00Z</time>
      </trkpt>
      <trkpt lat="45.99171" lon="4.88059">
        <ele>279</ele>
        <time>2018-06-01T09:29:01Z</time>
      </trkpt>
      <trkpt lat="45.99178" lon="4.88065">
        <ele>279</ele>
        <time>2018-06-01T09:29:03Z</time>
      </trkpt>
      <trkpt lat="45.99182" lon="4.88068">
        <ele>279</ele>
        <time>2018-06-01T09:29:04Z</time>
      </trkpt>
      <trkpt lat="45.99188" lon="4.88073">
        <ele>280</ele>
        <time>2018-06-01T09:29:06Z</time>
      </trkpt>
      <trkpt lat="45.99191" lon="4.88075">
        <ele>280</ele>
        <time>2018-06-01T09:29:07Z</time>
      </trkpt>
      <trkpt lat="45.99199" lon="4.8808">
        <ele>280</ele>
        <time>2018-06-01T09:29:09Z</time>
      </trkpt>
      <trkpt lat="45.99202" lon="4.88083">
        <ele>280</ele>
        <time>2018-06-01T09:29:10Z</time>
      </trkpt>
      <trkpt lat="45.99209" lon="4.88089">
        <ele>280</ele>
        <time>2018-06-01T09:29:12Z</time>
      </trkpt>
      <trkpt lat="45.99212" lon="4.88092">
        <ele>280</ele>
        <time>2018-06-01T09:29:13Z</time>
      </trkpt>
      <trkpt lat="45.9922" lon="4.88098">
        <ele>280</ele>
        <time>2018-06-01T09:29:15Z</time>
      </trkpt>
      <trkpt lat="45.99224" lon="4.88101">
        <ele>280</ele>
        <time>2018-06-01T09:29:16Z</time>
      </trkpt>
      <trkpt lat="45.99232" lon="4.88107">
        <ele>280</ele>
        <time>2018-06-01T09:29:18Z</time>
      </trkpt>
      <trkpt lat="45.99235" lon="4.8811">
        <ele>280</ele>
        <time>2018-06-01T09:29:19Z</time>
      </trkpt>
      <trkpt lat="45.99243" lon="4.88116">
        <ele>280</ele>
        <time>2018-06-01T09:29:21Z</time>
      </trkpt>
      <trkpt lat="45.99247" lon="4.88119">
        <ele>280</ele>
        <time>2018-06-01T09:29:22Z</time>
      </trkpt>
      <trkpt lat="45.99251" lon="4.88122">
        <ele>283</ele>
        <time>2018-06-01T09:29:23Z</time>
      </trkpt>
      <trkpt lat="45.99255" lon="4.88125">
        <ele>283</ele>
        <time>2018-06-01T09:29:24Z</time>
      </trkpt>
      <trkpt lat="45.99262" lon="4.88133">
        <ele>283</ele>
        <time>2018-06-01T09:29:26Z</time>
      </trkpt>
      <trkpt lat="45.99266" lon="4.88136">
        <ele>283</ele>
        <time>2018-06-01T09:29:27Z</time>
      </trkpt>
      <trkpt lat="45.99272" lon="4.88143">
        <ele>283</ele>
        <time>2018-06-01T09:29:29Z</time>
      </trkpt>
      <trkpt lat="45.99276" lon="4.88147">
        <ele>283</ele>
        <time>2018-06-01T09:29:30Z</time>
      </trkpt>
      <trkpt lat="45.99282" lon="4.88154">
        <ele>284</ele>
        <time>2018-06-01T09:29:32Z</time>
      </trkpt>
      <trkpt lat="45.99286" lon="4.88157">
        <ele>284</ele>
        <time>2018-06-01T09:29:33Z</time>
      </trkpt>
      <trkpt lat="45.99292" lon="4.88165">
        <ele>284</ele>
        <time>2018-06-01T09:29:35Z</time>
      </trkpt>
      <trkpt lat="45.99296" lon="4.88168">
        <ele>284</ele>
        <time>2018-06-01T09:29:36Z</time>
      </trkpt>
      <trkpt lat="45.99303" lon="4.88174">
        <ele>285</ele>
        <time>2018-06-01T09:29:38Z</time>
      </trkpt>
      <trkpt lat="45.99307" lon="4.88177">
        <ele>285</ele>
        <time>2018-06-01T09:29:39Z</time>
      </trkpt>
      <trkpt lat="45.99314" lon="4.88184">
        <ele>285</ele>
        <time>2018-06-01T09:29:41Z</time>
      </trkpt>
      <trkpt lat="45.99316" lon="4.88186">
        <ele>285</ele>
        <time>2018-06-01T09:29:42Z</time>
      </trkpt>
      <trkpt lat="45.99323" lon="4.88191">
        <ele>285</ele>
        <time>2018-06-01T09:29:44Z</time>
      </trkpt>
      <trkpt lat="45.99326" lon="4.88195">
        <ele>285</ele>
        <time>2018-06-01T09:29:45Z</time>
      </trkpt>
      <trkpt lat="45.99333" lon="4.88202">
        <ele>285</ele>
        <time>2018-06-01T09:29:47Z</time>
      </trkpt>
      <trkpt lat="45.99336" lon="4.88206">
        <ele>288</ele>
        <time>2018-06-01T09:29:48Z</time>
      </trkpt>
      <trkpt lat="45.99344" lon="4.88213">
        <ele>287</ele>
        <time>2018-06-01T09:29:50Z</time>
      </trkpt>
      <trkpt lat="45.99348" lon="4.88217">
        <ele>287</ele>
        <time>2018-06-01T09:29:51Z</time>
      </trkpt>
      <trkpt lat="45.99351" lon="4.8822">
        <ele>287</ele>
        <time>2018-06-01T09:29:52Z</time>
      </trkpt>
      <trkpt lat="45.99355" lon="4.88225">
        <ele>287</ele>
        <time>2018-06-01T09:29:53Z</time>
      </trkpt>
      <trkpt lat="45.99359" lon="4.88229">
        <ele>287</ele>
        <time>2018-06-01T09:29:54Z</time>
      </trkpt>
      <trkpt lat="45.99363" lon="4.88233">
        <ele>287</ele>
        <time>2018-06-01T09:29:55Z</time>
      </trkpt>
      <trkpt lat="45.99367" lon="4.88238">
        <ele>287</ele>
        <time>2018-06-01T09:29:56Z</time>
      </trkpt>
      <trkpt lat="45.99372" lon="4.88242">
        <ele>287</ele>
        <time>2018-06-01T09:29:57Z</time>
      </trkpt>
      <trkpt lat="45.99376" lon="4.88247">
        <ele>287</ele>
        <time>2018-06-01T09:29:58Z</time>
      </trkpt>
      <trkpt lat="45.99378" lon="4.88253">
        <ele>285</ele>
        <time>2018-06-01T09:29:59Z</time>
      </trkpt>
      <trkpt lat="45.99383" lon="4.88263">
        <ele>285</ele>
        <time>2018-06-01T09:30:01Z</time>
      </trkpt>
      <trkpt lat="45.99385" lon="4.88269">
        <ele>285</ele>
        <time>2018-06-01T09:30:02Z</time>
      </trkpt>
      <trkpt lat="45.99389" lon="4.88275">
        <ele>284</ele>
        <time>2018-06-01T09:30:03Z</time>
      </trkpt>
      <trkpt lat="45.99392" lon="4.88282">
        <ele>284</ele>
        <time>2018-06-01T09:30:04Z</time>
      </trkpt>
      <trkpt lat="45.99396" lon="4.88288">
        <ele>284</ele>
        <time>2018-06-01T09:30:05Z</time>
      </trkpt>
      <trkpt lat="45.99399" lon="4.88293">
        <ele>284</ele>
        <time>2018-06-01T09:30:06Z</time>
      </trkpt>
      <trkpt lat="45.99402" lon="4.88297">
        <ele>284</ele>
        <time>2018-06-01T09:30:07Z</time>
      </trkpt>
      <trkpt lat="45.99405" lon="4.88305">
        <ele>284</ele>
        <time>2018-06-01T09:30:08Z</time>
      </trkpt>
      <trkpt lat="45.99408" lon="4.88312">
        <ele>283</ele>
        <time>2018-06-01T09:30:09Z</time>
      </trkpt>
      <trkpt lat="45.9941" lon="4.88318">
        <ele>283</ele>
        <time>2018-06-01T09:30:10Z</time>
      </trkpt>
      <trkpt lat="45.99412" lon="4.88324">
        <ele>283</ele>
        <time>2018-06-01T09:30:11Z</time>
      </trkpt>
      <trkpt lat="45.99415" lon="4.88328">
        <ele>282</ele>
        <time>2018-06-01T09:30:12Z</time>
      </trkpt>
      <trkpt lat="45.99417" lon="4.88334">
        <ele>282</ele>
        <time>2018-06-01T09:30:13Z</time>
      </trkpt>
      <trkpt lat="45.9942" lon="4.8834">
        <ele>282</ele>
        <time>2018-06-01T09:30:14Z</time>
      </trkpt>
      <trkpt lat="45.99425" lon="4.8835">
        <ele>283</ele>
        <time>2018-06-01T09:30:16Z</time>
      </trkpt>
      <trkpt lat="45.99427" lon="4.88356">
        <ele>283</ele>
        <time>2018-06-01T09:30:17Z</time>
      </trkpt>
      <trkpt lat="45.99429" lon="4.88362">
        <ele>283</ele>
        <time>2018-06-01T09:30:18Z</time>
      </trkpt>
      <trkpt lat="45.99431" lon="4.88368">
        <ele>283</ele>
        <time>2018-06-01T09:30:19Z</time>
      </trkpt>
      <trkpt lat="45.99436" lon="4.88377">
        <ele>283</ele>
        <time>2018-06-01T09:30:21Z</time>
      </trkpt>
      <trkpt lat="45.99438" lon="4.88384">
        <ele>283</ele>
        <time>2018-06-01T09:30:22Z</time>
      </trkpt>
      <trkpt lat="45.99441" lon="4.88389">
        <ele>283</ele>
        <time>2018-06-01T09:30:23Z</time>
      </trkpt>
      <trkpt lat="45.99444" lon="4.88395">
        <ele>283</ele>
        <time>2018-06-01T09:30:24Z</time>
      </trkpt>
      <trkpt lat="45.99448" lon="4.88399">
        <ele>283</ele>
        <time>2018-06-01T09:30:25Z</time>
      </trkpt>
      <trkpt lat="45.99452" lon="4.88404">
        <ele>283</ele>
        <time>2018-06-01T09:30:26Z</time>
      </trkpt>
      <trkpt lat="45.99456" lon="4.88408">
        <ele>283</ele>
        <time>2018-06-01T09:30:27Z</time>
      </trkpt>
      <trkpt lat="45.9946" lon="4.88412">
        <ele>283</ele>
        <time>2018-06-01T09:30:28Z</time>
      </trkpt>
      <trkpt lat="45.99464" lon="4.88417">
        <ele>284</ele>
        <time>2018-06-01T09:30:29Z</time>
      </trkpt>
      <trkpt lat="45.99467" lon="4.88419">
        <ele>284</ele>
        <time>2018-06-01T09:30:30Z</time>
      </trkpt>
      <trkpt lat="45.99471" lon="4.88422">
        <ele>284</ele>
        <time>2018-06-01T09:30:31Z</time>
      </trkpt>
      <trkpt lat="45.99476" lon="4.88423">
        <ele>284</ele>
        <time>2018-06-01T09:30:32Z</time>
      </trkpt>
      <trkpt lat="45.9948" lon="4.88429">
        <ele>284</ele>
        <time>2018-06-01T09:30:33Z</time>
      </trkpt>
      <trkpt lat="45.99484" lon="4.88434">
        <ele>284</ele>
        <time>2018-06-01T09:30:34Z</time>
      </trkpt>
      <trkpt lat="45.99487" lon="4.88439">
        <ele>284</ele>
        <time>2018-06-01T09:30:35Z</time>
      </trkpt>
      <trkpt lat="45.9949" lon="4.88446">
        <ele>284</ele>
        <time>2018-06-01T09:30:36Z</time>
      </trkpt>
      <trkpt lat="45.99494" lon="4.88451">
        <ele>284</ele>
        <time>2018-06-01T09:30:37Z</time>
      </trkpt>
      <trkpt lat="45.99497" lon="4.88457">
        <ele>284</ele>
        <time>2018-06-01T09:30:38Z</time>
      </trkpt>
      <trkpt lat="45.99502" lon="4.88463">
        <ele>284</ele>
        <time>2018-06-01T09:30:39Z</time>
      </trkpt>
      <trkpt lat="45.99505" lon="4.88469">
        <ele>284</ele>
        <time>2018-06-01T09:30:40Z</time>
      </trkpt>
      <trkpt lat="45.99507" lon="4.88474">
        <ele>284</ele>
        <time>2018-06-01T09:30:41Z</time>
      </trkpt>
      <trkpt lat="45.9951" lon="4.8848">
        <ele>284</ele>
        <time>2018-06-01T09:30:42Z</time>
      </trkpt>
      <trkpt lat="45.99513" lon="4.88485">
        <ele>284</ele>
        <time>2018-06-01T09:30:43Z</time>
      </trkpt>
      <trkpt lat="45.99516" lon="4.8849">
        <ele>284</ele>
        <time>2018-06-01T09:30:44Z</time>
      </trkpt>
      <trkpt lat="45.9952" lon="4.88496">
        <ele>284</ele>
        <time>2018-06-01T09:30:45Z</time>
      </trkpt>
      <trkpt lat="45.99523" lon="4.88502">
        <ele>285</ele>
        <time>2018-06-01T09:30:46Z</time>
      </trkpt>
      <trkpt lat="45.99525" lon="4.88509">
        <ele>285</ele>
        <time>2018-06-01T09:30:47Z</time>
      </trkpt>
      <trkpt lat="45.99528" lon="4.88515">
        <ele>285</ele>
        <time>2018-06-01T09:30:48Z</time>
      </trkpt>
      <trkpt lat="45.9953" lon="4.88521">
        <ele>285</ele>
        <time>2018-06-01T09:30:49Z</time>
      </trkpt>
      <trkpt lat="45.99533" lon="4.88526">
        <ele>285</ele>
        <time>2018-06-01T09:30:50Z</time>
      </trkpt>
      <trkpt lat="45.99536" lon="4.88537">
        <ele>285</ele>
        <time>2018-06-01T09:30:52Z</time>
      </trkpt>
      <trkpt lat="45.99538" lon="4.88543">
        <ele>285</ele>
        <time>2018-06-01T09:30:53Z</time>
      </trkpt>
      <trkpt lat="45.99542" lon="4.88549">
        <ele>285</ele>
        <time>2018-06-01T09:30:54Z</time>
      </trkpt>
      <trkpt lat="45.99545" lon="4.88553">
        <ele>285</ele>
        <time>2018-06-01T09:30:55Z</time>
      </trkpt>
      <trkpt lat="45.99548" lon="4.8856">
        <ele>285</ele>
        <time>2018-06-01T09:30:56Z</time>
      </trkpt>
      <trkpt lat="45.99549" lon="4.88567">
        <ele>286</ele>
        <time>2018-06-01T09:30:57Z</time>
      </trkpt>
      <trkpt lat="45.9955" lon="4.88574">
        <ele>286</ele>
        <time>2018-06-01T09:30:58Z</time>
      </trkpt>
      <trkpt lat="45.99552" lon="4.88581">
        <ele>286</ele>
        <time>2018-06-01T09:30:59Z</time>
      </trkpt>
      <trkpt lat="45.99553" lon="4.88587">
        <ele>286</ele>
        <time>2018-06-01T09:31:00Z</time>
      </trkpt>
      <trkpt lat="45.99554" lon="4.88594">
        <ele>286</ele>
        <time>2018-06-01T09:31:01Z</time>
      </trkpt>
      <trkpt lat="45.99556" lon="4.88601">
        <ele>286</ele>
        <time>2018-06-01T09:31:02Z</time>
      </trkpt>
      <trkpt lat="45.99556" lon="4.88608">
        <ele>286</ele>
        <time>2018-06-01T09:31:03Z</time>
      </trkpt>
      <trkpt lat="45.99557" lon="4.88615">
        <ele>286</ele>
        <time>2018-06-01T09:31:04Z</time>
      </trkpt>
      <trkpt lat="45.99558" lon="4.88623">
        <ele>286</ele>
        <time>2018-06-01T09:31:05Z</time>
      </trkpt>
      <trkpt lat="45.99558" lon="4.8863">
        <ele>286</ele>
        <time>2018-06-01T09:31:06Z</time>
      </trkpt>
      <trkpt lat="45.9956" lon="4.88637">
        <ele>286</ele>
        <time>2018-06-01T09:31:07Z</time>
      </trkpt>
      <trkpt lat="45.9956" lon="4.88644">
        <ele>286</ele>
        <time>2018-06-01T09:31:08Z</time>
      </trkpt>
      <trkpt lat="45.99561" lon="4.8865">
        <ele>286</ele>
        <time>2018-06-01T09:31:09Z</time>
      </trkpt>
      <trkpt lat="45.99561" lon="4.88658">
        <ele>286</ele>
        <time>2018-06-01T09:31:10Z</time>
      </trkpt>
      <trkpt lat="45.99562" lon="4.88664">
        <ele>286</ele>
        <time>2018-06-01T09:31:11Z</time>
      </trkpt>
      <trkpt lat="45.99563" lon="4.88671">
        <ele>287</ele>
        <time>2018-06-01T09:31:12Z</time>
      </trkpt>
      <trkpt lat="45.99562" lon="4.88679">
        <ele>286</ele>
        <time>2018-06-01T09:31:13Z</time>
      </trkpt>
      <trkpt lat="45.99564" lon="4.88685">
        <ele>286</ele>
        <time>2018-06-01T09:31:14Z</time>
      </trkpt>
      <trkpt lat="45.99565" lon="4.88692">
        <ele>286</ele>
        <time>2018-06-01T09:31:15Z</time>
      </trkpt>
      <trkpt lat="45.99565" lon="4.88699">
        <ele>286</ele>
        <time>2018-06-01T09:31:16Z</time>
      </trkpt>
      <trkpt lat="45.99566" lon="4.88706">
        <ele>286</ele>
        <time>2018-06-01T09:31:17Z</time>
      </trkpt>
      <trkpt lat="45.99567" lon="4.88713">
        <ele>286</ele>
        <time>2018-06-01T09:31:18Z</time>
      </trkpt>
      <trkpt lat="45.99568" lon="4.88719">
        <ele>286</ele>
        <time>2018-06-01T09:31:19Z</time>
      </trkpt>
      <trkpt lat="45.99568" lon="4.88726">
        <ele>287</ele>
        <time>2018-06-01T09:31:20Z</time>
      </trkpt>
      <trkpt lat="45.99569" lon="4.88733">
        <ele>287</ele>
        <time>2018-06-01T09:31:21Z</time>
      </trkpt>
      <trkpt lat="45.9957" lon="4.88745">
        <ele>287</ele>
        <time>2018-06-01T09:31:23Z</time>
      </trkpt>
      <trkpt lat="45.99571" lon="4.88751">
        <ele>287</ele>
        <time>2018-06-01T09:31:24Z</time>
      </trkpt>
      <trkpt lat="45.99573" lon="4.88763">
        <ele>287</ele>
        <time>2018-06-01T09:31:26Z</time>
      </trkpt>
      <trkpt lat="45.99573" lon="4.8877">
        <ele>287</ele>
        <time>2018-06-01T09:31:27Z</time>
      </trkpt>
      <trkpt lat="45.99575" lon="4.88777">
        <ele>287</ele>
        <time>2018-06-01T09:31:28Z</time>
      </trkpt>
      <trkpt lat="45.99575" lon="4.88784">
        <ele>287</ele>
        <time>2018-06-01T09:31:29Z</time>
      </trkpt>
      <trkpt lat="45.99576" lon="4.88791">
        <ele>287</ele>
        <time>2018-06-01T09:31:30Z</time>
      </trkpt>
      <trkpt lat="45.99577" lon="4.88798">
        <ele>287</ele>
        <time>2018-06-01T09:31:31Z</time>
      </trkpt>
      <trkpt lat="45.99578" lon="4.88805">
        <ele>287</ele>
        <time>2018-06-01T09:31:32Z</time>
      </trkpt>
      <trkpt lat="45.99578" lon="4.88811">
        <ele>287</ele>
        <time>2018-06-01T09:31:33Z</time>
      </trkpt>
      <trkpt lat="45.99579" lon="4.88818">
        <ele>287</ele>
        <time>2018-06-01T09:31:34Z</time>
      </trkpt>
      <trkpt lat="45.99578" lon="4.88826">
        <ele>287</ele>
        <time>2018-06-01T09:31:35Z</time>
      </trkpt>
      <trkpt lat="45.99579" lon="4.88833">
        <ele>287</ele>
        <time>2018-06-01T09:31:36Z</time>
      </trkpt>
      <trkpt lat="45.99579" lon="4.8884">
        <ele>287</ele>
        <time>2018-06-01T09:31:37Z</time>
      </trkpt>
      <trkpt lat="45.99582" lon="4.88846">
        <ele>287</ele>
        <time>2018-06-01T09:31:38Z</time>
      </trkpt>
      <trkpt lat="45.99583" lon="4.88853">
        <ele>287</ele>
        <time>2018-06-01T09:31:39Z</time>
      </trkpt>
      <trkpt lat="45.99584" lon="4.88861">
        <ele>287</ele>
        <time>2018-06-01T09:31:40Z</time>
      </trkpt>
      <trkpt lat="45.99585" lon="4.88867">
        <ele>287</ele>
        <time>2018-06-01T09:31:41Z</time>
      </trkpt>
      <trkpt lat="45.99586" lon="4.88874">
        <ele>287</ele>
        <time>2018-06-01T09:31:42Z</time>
      </trkpt>
      <trkpt lat="45.99587" lon="4.88881">
        <ele>287</ele>
        <time>2018-06-01T09:31:43Z</time>
      </trkpt>
      <trkpt lat="45.99588" lon="4.88888">
        <ele>287</ele>
        <time>2018-06-01T09:31:44Z</time>
      </trkpt>
      <trkpt lat="45.99589" lon="4.88896">
        <ele>287</ele>
        <time>2018-06-01T09:31:45Z</time>
      </trkpt>
      <trkpt lat="45.99588" lon="4.88904">
        <ele>287</ele>
        <time>2018-06-01T09:31:46Z</time>
      </trkpt>
      <trkpt lat="45.99589" lon="4.88911">
        <ele>287</ele>
        <time>2018-06-01T09:31:47Z</time>
      </trkpt>
      <trkpt lat="45.99589" lon="4.88919">
        <ele>287</ele>
        <time>2018-06-01T09:31:48Z</time>
      </trkpt>
      <trkpt lat="45.9959" lon="4.88926">
        <ele>287</ele>
        <time>2018-06-01T09:31:49Z</time>
      </trkpt>
      <trkpt lat="45.99592" lon="4.88938">
        <ele>287</ele>
        <time>2018-06-01T09:31:51Z</time>
      </trkpt>
      <trkpt lat="45.99592" lon="4.88946">
        <ele>287</ele>
        <time>2018-06-01T09:31:52Z</time>
      </trkpt>
      <trkpt lat="45.99592" lon="4.88952">
        <ele>287</ele>
        <time>2018-06-01T09:31:53Z</time>
      </trkpt>
      <trkpt lat="45.99593" lon="4.8896">
        <ele>288</ele>
        <time>2018-06-01T09:31:54Z</time>
      </trkpt>
      <trkpt lat="45.99593" lon="4.88967">
        <ele>288</ele>
        <time>2018-06-01T09:31:55Z</time>
      </trkpt>
      <trkpt lat="45.99594" lon="4.88973">
        <ele>288</ele>
        <time>2018-06-01T09:31:56Z</time>
      </trkpt>
      <trkpt lat="45.99595" lon="4.8898">
        <ele>288</ele>
        <time>2018-06-01T09:31:57Z</time>
      </trkpt>
      <trkpt lat="45.99595" lon="4.88987">
        <ele>288</ele>
        <time>2018-06-01T09:31:58Z</time>
      </trkpt>
      <trkpt lat="45.99595" lon="4.88999">
        <ele>288</ele>
        <time>2018-06-01T09:32:00Z</time>
      </trkpt>
      <trkpt lat="45.99596" lon="4.89004">
        <ele>288</ele>
        <time>2018-06-01T09:32:01Z</time>
      </trkpt>
      <trkpt lat="45.99597" lon="4.89011">
        <ele>288</ele>
        <time>2018-06-01T09:32:02Z</time>
      </trkpt>
      <trkpt lat="45.99597" lon="4.89019">
        <ele>288</ele>
        <time>2018-06-01T09:32:03Z</time>
      </trkpt>
      <trkpt lat="45.99597" lon="4.89027">
        <ele>289</ele>
        <time>2018-06-01T09:32:04Z</time>
      </trkpt>
      <trkpt lat="45.99596" lon="4.89034">
        <ele>289</ele>
        <time>2018-06-01T09:32:05Z</time>
      </trkpt>
      <trkpt lat="45.99595" lon="4.89041">
        <ele>289</ele>
        <time>2018-06-01T09:32:06Z</time>
      </trkpt>
      <trkpt lat="45.99594" lon="4.89048">
        <ele>289</ele>
        <time>2018-06-01T09:32:07Z</time>
      </trkpt>
      <trkpt lat="45.99594" lon="4.89055">
        <ele>289</ele>
        <time>2018-06-01T09:32:08Z</time>
      </trkpt>
      <trkpt lat="45.99593" lon="4.89062">
        <ele>289</ele>
        <time>2018-06-01T09:32:09Z</time>
      </trkpt>
      <trkpt lat="45.99591" lon="4.89069">
        <ele>289</ele>
        <time>2018-06-01T09:32:10Z</time>
      </trkpt>
      <trkpt lat="45.9959" lon="4.89076">
        <ele>289</ele>
        <time>2018-06-01T09:32:11Z</time>
      </trkpt>
      <trkpt lat="45.99589" lon="4.89083">
        <ele>289</ele>
        <time>2018-06-01T09:32:12Z</time>
      </trkpt>
      <trkpt lat="45.99587" lon="4.8909">
        <ele>289</ele>
        <time>2018-06-01T09:32:13Z</time>
      </trkpt>
      <trkpt lat="45.99586" lon="4.89098">
        <ele>289</ele>
        <time>2018-06-01T09:32:14Z</time>
      </trkpt>
      <trkpt lat="45.99587" lon="4.89104">
        <ele>289</ele>
        <time>2018-06-01T09:32:15Z</time>
      </trkpt>
      <trkpt lat="45.99586" lon="4.89111">
        <ele>289</ele>
        <time>2018-06-01T09:32:16Z</time>
      </trkpt>
      <trkpt lat="45.99586" lon="4.89118">
        <ele>289</ele>
        <time>2018-06-01T09:32:17Z</time>
      </trkpt>
      <trkpt lat="45.99585" lon="4.89126">
        <ele>289</ele>
        <time>2018-06-01T09:32:18Z</time>
      </trkpt>
      <trkpt lat="45.99585" lon="4.89132">
        <ele>289</ele>
        <time>2018-06-01T09:32:19Z</time>
      </trkpt>
      <trkpt lat="45.99585" lon="4.8914">
        <ele>289</ele>
        <time>2018-06-01T09:32:20Z</time>
      </trkpt>
      <trkpt lat="45.99586" lon="4.89147">
        <ele>289</ele>
        <time>2018-06-01T09:32:21Z</time>
      </trkpt>
      <trkpt lat="45.99587" lon="4.89159">
        <ele>288</ele>
        <time>2018-06-01T09:32:23Z</time>
      </trkpt>
      <trkpt lat="45.99587" lon="4.89167">
        <ele>288</ele>
        <time>2018-06-01T09:32:24Z</time>
      </trkpt>
      <trkpt lat="45.99587" lon="4.89173">
        <ele>288</ele>
        <time>2018-06-01T09:32:25Z</time>
      </trkpt>
      <trkpt lat="45.99588" lon="4.89181">
        <ele>288</ele>
        <time>2018-06-01T09:32:26Z</time>
      </trkpt>
      <trkpt lat="45.99588" lon="4.89188">
        <ele>288</ele>
        <time>2018-06-01T09:32:27Z</time>
      </trkpt>
      <trkpt lat="45.99588" lon="4.89196">
        <ele>288</ele>
        <time>2018-06-01T09:32:28Z</time>
      </trkpt>
      <trkpt lat="45.99589" lon="4.89201">
        <ele>288</ele>
        <time>2018-06-01T09:32:29Z</time>
      </trkpt>
      <trkpt lat="45.9959" lon="4.89208">
        <ele>288</ele>
        <time>2018-06-01T09:32:30Z</time>
      </trkpt>
      <trkpt lat="45.99591" lon="4.8922">
        <ele>288</ele>
        <time>2018-06-01T09:32:32Z</time>
      </trkpt>
      <trkpt lat="45.99592" lon="4.89227">
        <ele>288</ele>
        <time>2018-06-01T09:32:33Z</time>
      </trkpt>
      <trkpt lat="45.99592" lon="4.89235">
        <ele>288</ele>
        <time>2018-06-01T09:32:34Z</time>
      </trkpt>
      <trkpt lat="45.99591" lon="4.89244">
        <ele>288</ele>
        <time>2018-06-01T09:32:35Z</time>
      </trkpt>
      <trkpt lat="45.99591" lon="4.89251">
        <ele>288</ele>
        <time>2018-06-01T09:32:36Z</time>
      </trkpt>
      <trkpt lat="45.99591" lon="4.89258">
        <ele>288</ele>
        <time>2018-06-01T09:32:37Z</time>
      </trkpt>
      <trkpt lat="45.99592" lon="4.89266">
        <ele>288</ele>
        <time>2018-06-01T09:32:38Z</time>
      </trkpt>
      <trkpt lat="45.99591" lon="4.89272">
        <ele>288</ele>
        <time>2018-06-01T09:32:39Z</time>
      </trkpt>
      <trkpt lat="45.99591" lon="4.8928">
        <ele>289</ele>
        <time>2018-06-01T09:32:40Z</time>
      </trkpt>
      <trkpt lat="45.9959" lon="4.89287">
        <ele>289</ele>
        <time>2018-06-01T09:32:41Z</time>
      </trkpt>
      <trkpt lat="45.99591" lon="4.89294">
        <ele>289</ele>
        <time>2018-06-01T09:32:42Z</time>
      </trkpt>
      <trkpt lat="45.9959" lon="4.89302">
        <ele>289</ele>
        <time>2018-06-01T09:32:43Z</time>
      </trkpt>
      <trkpt lat="45.99591" lon="4.8931">
        <ele>289</ele>
        <time>2018-06-01T09:32:44Z</time>
      </trkpt>
      <trkpt lat="45.99591" lon="4.89318">
        <ele>289</ele>
        <time>2018-06-01T09:32:45Z</time>
      </trkpt>
      <trkpt lat="45.99591" lon="4.89326">
        <ele>289</ele>
        <time>2018-06-01T09:32:46Z</time>
      </trkpt>
      <trkpt lat="45.99592" lon="4.89333">
        <ele>289</ele>
        <time>2018-06-01T09:32:47Z</time>
      </trkpt>
      <trkpt lat="45.99591" lon="4.89341">
        <ele>289</ele>
        <time>2018-06-01T09:32:48Z</time>
      </trkpt>
      <trkpt lat="45.99592" lon="4.89348">
        <ele>289</ele>
        <time>2018-06-01T09:32:49Z</time>
      </trkpt>
      <trkpt lat="45.99592" lon="4.89356">
        <ele>289</ele>
        <time>2018-06-01T09:32:50Z</time>
      </trkpt>
      <trkpt lat="45.99593" lon="4.89363">
        <ele>289</ele>
        <time>2018-06-01T09:32:51Z</time>
      </trkpt>
      <trkpt lat="45.99593" lon="4.89371">
        <ele>289</ele>
        <time>2018-06-01T09:32:52Z</time>
      </trkpt>
      <trkpt lat="45.99594" lon="4.89377">
        <ele>290</ele>
        <time>2018-06-01T09:32:53Z</time>
      </trkpt>
      <trkpt lat="45.99594" lon="4.89384">
        <ele>290</ele>
        <time>2018-06-01T09:32:54Z</time>
      </trkpt>
      <trkpt lat="45.99595" lon="4.89392">
        <ele>290</ele>
        <time>2018-06-01T09:32:55Z</time>
      </trkpt>
      <trkpt lat="45.99596" lon="4.89399">
        <ele>290</ele>
        <time>2018-06-01T09:32:56Z</time>
      </trkpt>
      <trkpt lat="45.99599" lon="4.89405">
        <ele>290</ele>
        <time>2018-06-01T09:32:57Z</time>
      </trkpt>
      <trkpt lat="45.996" lon="4.89412">
        <ele>290</ele>
        <time>2018-06-01T09:32:58Z</time>
      </trkpt>
      <trkpt lat="45.996" lon="4.8942">
        <ele>290</ele>
        <time>2018-06-01T09:32:59Z</time>
      </trkpt>
      <trkpt lat="45.996" lon="4.89428">
        <ele>290</ele>
        <time>2018-06-01T09:33:00Z</time>
      </trkpt>
      <trkpt lat="45.996" lon="4.89435">
        <ele>290</ele>
        <time>2018-06-01T09:33:01Z</time>
      </trkpt>
      <trkpt lat="45.996" lon="4.89442">
        <ele>290</ele>
        <time>2018-06-01T09:33:02Z</time>
      </trkpt>
      <trkpt lat="45.996" lon="4.89449">
        <ele>290</ele>
        <time>2018-06-01T09:33:03Z</time>
      </trkpt>
      <trkpt lat="45.99601" lon="4.89457">
        <ele>290</ele>
        <time>2018-06-01T09:33:04Z</time>
      </trkpt>
      <trkpt lat="45.99602" lon="4.89464">
        <ele>290</ele>
        <time>2018-06-01T09:33:05Z</time>
      </trkpt>
      <trkpt lat="45.99602" lon="4.89471">
        <ele>290</ele>
        <time>2018-06-01T09:33:06Z</time>
      </trkpt>
      <trkpt lat="45.99602" lon="4.89478">
        <ele>290</ele>
        <time>2018-06-01T09:33:07Z</time>
      </trkpt>
      <trkpt lat="45.99603" lon="4.8949">
        <ele>290</ele>
        <time>2018-06-01T09:33:09Z</time>
      </trkpt>
      <trkpt lat="45.99602" lon="4.89496">
        <ele>290</ele>
        <time>2018-06-01T09:33:10Z</time>
      </trkpt>
      <trkpt lat="45.99603" lon="4.89508">
        <ele>290</ele>
        <time>2018-06-01T09:33:13Z</time>
      </trkpt>
      <trkpt lat="45.99603" lon="4.89511">
        <ele>290</ele>
        <time>2018-06-01T09:33:14Z</time>
      </trkpt>
      <trkpt lat="45.99604" lon="4.89524">
        <ele>291</ele>
        <time>2018-06-01T09:33:17Z</time>
      </trkpt>
      <trkpt lat="45.99604" lon="4.89528">
        <ele>291</ele>
        <time>2018-06-01T09:33:18Z</time>
      </trkpt>
      <trkpt lat="45.99605" lon="4.89541">
        <ele>291</ele>
        <time>2018-06-01T09:33:19Z</time>
      </trkpt>
      <trkpt lat="45.99606" lon="4.89551">
        <ele>291</ele>
        <time>2018-06-01T09:33:22Z</time>
      </trkpt>
      <trkpt lat="45.99606" lon="4.89554">
        <ele>291</ele>
        <time>2018-06-01T09:33:23Z</time>
      </trkpt>
      <trkpt lat="45.99608" lon="4.89565">
        <ele>291</ele>
        <time>2018-06-01T09:33:26Z</time>
      </trkpt>
      <trkpt lat="45.99608" lon="4.89569">
        <ele>291</ele>
        <time>2018-06-01T09:33:27Z</time>
      </trkpt>
      <trkpt lat="45.99609" lon="4.8958">
        <ele>291</ele>
        <time>2018-06-01T09:33:30Z</time>
      </trkpt>
      <trkpt lat="45.99609" lon="4.89585">
        <ele>292</ele>
        <time>2018-06-01T09:33:31Z</time>
      </trkpt>
      <trkpt lat="45.9961" lon="4.89599">
        <ele>291</ele>
        <time>2018-06-01T09:33:32Z</time>
      </trkpt>
      <trkpt lat="45.99611" lon="4.8961">
        <ele>291</ele>
        <time>2018-06-01T09:33:34Z</time>
      </trkpt>
      <trkpt lat="45.99611" lon="4.89616">
        <ele>291</ele>
        <time>2018-06-01T09:33:35Z</time>
      </trkpt>
      <trkpt lat="45.99611" lon="4.89629">
        <ele>291</ele>
        <time>2018-06-01T09:33:37Z</time>
      </trkpt>
      <trkpt lat="45.99612" lon="4.89635">
        <ele>291</ele>
        <time>2018-06-01T09:33:38Z</time>
      </trkpt>
      <trkpt lat="45.99612" lon="4.89648">
        <ele>291</ele>
        <time>2018-06-01T09:33:40Z</time>
      </trkpt>
      <trkpt lat="45.99612" lon="4.89655">
        <ele>291</ele>
        <time>2018-06-01T09:33:41Z</time>
      </trkpt>
      <trkpt lat="45.99614" lon="4.89666">
        <ele>291</ele>
        <time>2018-06-01T09:33:42Z</time>
      </trkpt>
      <trkpt lat="45.99615" lon="4.89672">
        <ele>291</ele>
        <time>2018-06-01T09:33:43Z</time>
      </trkpt>
      <trkpt lat="45.99614" lon="4.89684">
        <ele>291</ele>
        <time>2018-06-01T09:33:45Z</time>
      </trkpt>
      <trkpt lat="45.99614" lon="4.89691">
        <ele>291</ele>
        <time>2018-06-01T09:33:46Z</time>
      </trkpt>
      <trkpt lat="45.99615" lon="4.89697">
        <ele>291</ele>
        <time>2018-06-01T09:33:47Z</time>
      </trkpt>
      <trkpt lat="45.99615" lon="4.89704">
        <ele>291</ele>
        <time>2018-06-01T09:33:48Z</time>
      </trkpt>
      <trkpt lat="45.99614" lon="4.89711">
        <ele>291</ele>
        <time>2018-06-01T09:33:49Z</time>
      </trkpt>
      <trkpt lat="45.99614" lon="4.89717">
        <ele>291</ele>
        <time>2018-06-01T09:33:50Z</time>
      </trkpt>
      <trkpt lat="45.99614" lon="4.89725">
        <ele>292</ele>
        <time>2018-06-01T09:33:51Z</time>
      </trkpt>
      <trkpt lat="45.99615" lon="4.8973">
        <ele>292</ele>
        <time>2018-06-01T09:33:52Z</time>
      </trkpt>
      <trkpt lat="45.99614" lon="4.89738">
        <ele>292</ele>
        <time>2018-06-01T09:33:53Z</time>
      </trkpt>
      <trkpt lat="45.99614" lon="4.89745">
        <ele>292</ele>
        <time>2018-06-01T09:33:54Z</time>
      </trkpt>
      <trkpt lat="45.99614" lon="4.89751">
        <ele>292</ele>
        <time>2018-06-01T09:33:55Z</time>
      </trkpt>
      <trkpt lat="45.99614" lon="4.89758">
        <ele>292</ele>
        <time>2018-06-01T09:33:56Z</time>
      </trkpt>
      <trkpt lat="45.99615" lon="4.8977">
        <ele>292</ele>
        <time>2018-06-01T09:33:58Z</time>
      </trkpt>
      <trkpt lat="45.99613" lon="4.89779">
        <ele>292</ele>
        <time>2018-06-01T09:33:59Z</time>
      </trkpt>
      <trkpt lat="45.99611" lon="4.89791">
        <ele>292</ele>
        <time>2018-06-01T09:34:00Z</time>
      </trkpt>
      <trkpt lat="45.99611" lon="4.89797">
        <ele>292</ele>
        <time>2018-06-01T09:34:01Z</time>
      </trkpt>
      <trkpt lat="45.99611" lon="4.89803">
        <ele>292</ele>
        <time>2018-06-01T09:34:02Z</time>
      </trkpt>
      <trkpt lat="45.99612" lon="4.89809">
        <ele>292</ele>
        <time>2018-06-01T09:34:03Z</time>
      </trkpt>
      <trkpt lat="45.99614" lon="4.89816">
        <ele>292</ele>
        <time>2018-06-01T09:34:04Z</time>
      </trkpt>
      <trkpt lat="45.99612" lon="4.89823">
        <ele>292</ele>
        <time>2018-06-01T09:34:05Z</time>
      </trkpt>
      <trkpt lat="45.99609" lon="4.89834">
        <ele>293</ele>
        <time>2018-06-01T09:34:07Z</time>
      </trkpt>
      <trkpt lat="45.99608" lon="4.8984">
        <ele>293</ele>
        <time>2018-06-01T09:34:08Z</time>
      </trkpt>
      <trkpt lat="45.99609" lon="4.89848">
        <ele>293</ele>
        <time>2018-06-01T09:34:09Z</time>
      </trkpt>
      <trkpt lat="45.99608" lon="4.89854">
        <ele>293</ele>
        <time>2018-06-01T09:34:10Z</time>
      </trkpt>
      <trkpt lat="45.99606" lon="4.89862">
        <ele>293</ele>
        <time>2018-06-01T09:34:11Z</time>
      </trkpt>
      <trkpt lat="45.99606" lon="4.89868">
        <ele>293</ele>
        <time>2018-06-01T09:34:12Z</time>
      </trkpt>
      <trkpt lat="45.99606" lon="4.8988">
        <ele>292</ele>
        <time>2018-06-01T09:34:14Z</time>
      </trkpt>
      <trkpt lat="45.99604" lon="4.89888">
        <ele>292</ele>
        <time>2018-06-01T09:34:15Z</time>
      </trkpt>
      <trkpt lat="45.99603" lon="4.89894">
        <ele>292</ele>
        <time>2018-06-01T09:34:16Z</time>
      </trkpt>
      <trkpt lat="45.99603" lon="4.89902">
        <ele>292</ele>
        <time>2018-06-01T09:34:17Z</time>
      </trkpt>
      <trkpt lat="45.99603" lon="4.89908">
        <ele>292</ele>
        <time>2018-06-01T09:34:18Z</time>
      </trkpt>
      <trkpt lat="45.99603" lon="4.89915">
        <ele>292</ele>
        <time>2018-06-01T09:34:19Z</time>
      </trkpt>
      <trkpt lat="45.99605" lon="4.89928">
        <ele>293</ele>
        <time>2018-06-01T09:34:21Z</time>
      </trkpt>
      <trkpt lat="45.99604" lon="4.89934">
        <ele>293</ele>
        <time>2018-06-01T09:34:22Z</time>
      </trkpt>
      <trkpt lat="45.99604" lon="4.89947">
        <ele>294</ele>
        <time>2018-06-01T09:34:24Z</time>
      </trkpt>
      <trkpt lat="45.99604" lon="4.89953">
        <ele>294</ele>
        <time>2018-06-01T09:34:25Z</time>
      </trkpt>
      <trkpt lat="45.99605" lon="4.89965">
        <ele>294</ele>
        <time>2018-06-01T09:34:27Z</time>
      </trkpt>
      <trkpt lat="45.99606" lon="4.89972">
        <ele>294</ele>
        <time>2018-06-01T09:34:28Z</time>
      </trkpt>
      <trkpt lat="45.99609" lon="4.89983">
        <ele>294</ele>
        <time>2018-06-01T09:34:30Z</time>
      </trkpt>
      <trkpt lat="45.9961" lon="4.8999">
        <ele>294</ele>
        <time>2018-06-01T09:34:31Z</time>
      </trkpt>
      <trkpt lat="45.99612" lon="4.89996">
        <ele>294</ele>
        <time>2018-06-01T09:34:32Z</time>
      </trkpt>
      <trkpt lat="45.99614" lon="4.90002">
        <ele>296</ele>
        <time>2018-06-01T09:34:33Z</time>
      </trkpt>
      <trkpt lat="45.99615" lon="4.90013">
        <ele>296</ele>
        <time>2018-06-01T09:34:35Z</time>
      </trkpt>
      <trkpt lat="45.99617" lon="4.90019">
        <ele>296</ele>
        <time>2018-06-01T09:34:36Z</time>
      </trkpt>
      <trkpt lat="45.99618" lon="4.90031">
        <ele>296</ele>
        <time>2018-06-01T09:34:38Z</time>
      </trkpt>
      <trkpt lat="45.9962" lon="4.90038">
        <ele>296</ele>
        <time>2018-06-01T09:34:39Z</time>
      </trkpt>
      <trkpt lat="45.99623" lon="4.90047">
        <ele>297</ele>
        <time>2018-06-01T09:34:41Z</time>
      </trkpt>
      <trkpt lat="45.99625" lon="4.90053">
        <ele>297</ele>
        <time>2018-06-01T09:34:42Z</time>
      </trkpt>
      <trkpt lat="45.9963" lon="4.90062">
        <ele>297</ele>
        <time>2018-06-01T09:34:44Z</time>
      </trkpt>
      <trkpt lat="45.99633" lon="4.90068">
        <ele>297</ele>
        <time>2018-06-01T09:34:45Z</time>
      </trkpt>
      <trkpt lat="45.99636" lon="4.9008">
        <ele>297</ele>
        <time>2018-06-01T09:34:47Z</time>
      </trkpt>
      <trkpt lat="45.99637" lon="4.90086">
        <ele>298</ele>
        <time>2018-06-01T09:34:48Z</time>
      </trkpt>
      <trkpt lat="45.99638" lon="4.90095">
        <ele>299</ele>
        <time>2018-06-01T09:34:50Z</time>
      </trkpt>
      <trkpt lat="45.99639" lon="4.901">
        <ele>299</ele>
        <time>2018-06-01T09:34:51Z</time>
      </trkpt>
      <trkpt lat="45.99641" lon="4.90109">
        <ele>299</ele>
        <time>2018-06-01T09:34:53Z</time>
      </trkpt>
      <trkpt lat="45.99642" lon="4.90113">
        <ele>299</ele>
        <time>2018-06-01T09:34:54Z</time>
      </trkpt>
      <trkpt lat="45.99647" lon="4.90123">
        <ele>299</ele>
        <time>2018-06-01T09:34:58Z</time>
      </trkpt>
      <trkpt lat="45.99649" lon="4.90126">
        <ele>299</ele>
        <time>2018-06-01T09:34:59Z</time>
      </trkpt>
      <trkpt lat="45.99651" lon="4.90134">
        <ele>299</ele>
        <time>2018-06-01T09:35:01Z</time>
      </trkpt>
      <trkpt lat="45.99652" lon="4.90138">
        <ele>299</ele>
        <time>2018-06-01T09:35:02Z</time>
      </trkpt>
      <trkpt lat="45.99654" lon="4.90146">
        <ele>300</ele>
        <time>2018-06-01T09:35:04Z</time>
      </trkpt>
      <trkpt lat="45.99655" lon="4.9015">
        <ele>300</ele>
        <time>2018-06-01T09:35:05Z</time>
      </trkpt>
      <trkpt lat="45.99657" lon="4.90159">
        <ele>300</ele>
        <time>2018-06-01T09:35:07Z</time>
      </trkpt>
      <trkpt lat="45.99658" lon="4.90163">
        <ele>300</ele>
        <time>2018-06-01T09:35:08Z</time>
      </trkpt>
      <trkpt lat="45.99661" lon="4.90171">
        <ele>301</ele>
        <time>2018-06-01T09:35:10Z</time>
      </trkpt>
      <trkpt lat="45.99662" lon="4.90174">
        <ele>301</ele>
        <time>2018-06-01T09:35:11Z</time>
      </trkpt>
      <trkpt lat="45.99666" lon="4.90182">
        <ele>301</ele>
        <time>2018-06-01T09:35:13Z</time>
      </trkpt>
      <trkpt lat="45.99667" lon="4.90186">
        <ele>302</ele>
        <time>2018-06-01T09:35:14Z</time>
      </trkpt>
      <trkpt lat="45.9967" lon="4.90197">
        <ele>303</ele>
        <time>2018-06-01T09:35:17Z</time>
      </trkpt>
      <trkpt lat="45.99671" lon="4.90201">
        <ele>303</ele>
        <time>2018-06-01T09:35:18Z</time>
      </trkpt>
      <trkpt lat="45.99673" lon="4.90212">
        <ele>303</ele>
        <time>2018-06-01T09:35:21Z</time>
      </trkpt>
      <trkpt lat="45.99674" lon="4.90216">
        <ele>303</ele>
        <time>2018-06-01T09:35:22Z</time>
      </trkpt>
      <trkpt lat="45.99675" lon="4.9022">
        <ele>303</ele>
        <time>2018-06-01T09:35:23Z</time>
      </trkpt>
      <trkpt lat="45.99677" lon="4.90233">
        <ele>304</ele>
        <time>2018-06-01T09:35:24Z</time>
      </trkpt>
      <trkpt lat="45.9968" lon="4.90243">
        <ele>304</ele>
        <time>2018-06-01T09:35:26Z</time>
      </trkpt>
      <trkpt lat="45.99681" lon="4.90248">
        <ele>304</ele>
        <time>2018-06-01T09:35:27Z</time>
      </trkpt>
      <trkpt lat="45.99682" lon="4.90259">
        <ele>304</ele>
        <time>2018-06-01T09:35:29Z</time>
      </trkpt>
      <trkpt lat="45.99682" lon="4.90265">
        <ele>305</ele>
        <time>2018-06-01T09:35:30Z</time>
      </trkpt>
      <trkpt lat="45.99682" lon="4.90278">
        <ele>305</ele>
        <time>2018-06-01T09:35:32Z</time>
      </trkpt>
      <trkpt lat="45.99682" lon="4.90285">
        <ele>304</ele>
        <time>2018-06-01T09:35:33Z</time>
      </trkpt>
      <trkpt lat="45.99679" lon="4.90297">
        <ele>304</ele>
        <time>2018-06-01T09:35:35Z</time>
      </trkpt>
      <trkpt lat="45.99678" lon="4.903">
        <ele>304</ele>
        <time>2018-06-01T09:35:36Z</time>
      </trkpt>
      <trkpt lat="45.99675" lon="4.90312">
        <ele>304</ele>
        <time>2018-06-01T09:35:42Z</time>
      </trkpt>
      <trkpt lat="45.99676" lon="4.90313">
        <ele>304</ele>
        <time>2018-06-01T09:35:43Z</time>
      </trkpt>
      <trkpt lat="45.99676" lon="4.90326">
        <ele>303</ele>
        <time>2018-06-01T09:35:52Z</time>
      </trkpt>
      <trkpt lat="45.99677" lon="4.90327">
        <ele>303</ele>
        <time>2018-06-01T09:35:53Z</time>
      </trkpt>
      <trkpt lat="45.99683" lon="4.90328">
        <ele>304</ele>
        <time>2018-06-01T09:35:56Z</time>
      </trkpt>
      <trkpt lat="45.99686" lon="4.90329">
        <ele>304</ele>
        <time>2018-06-01T09:35:57Z</time>
      </trkpt>
      <trkpt lat="45.99692" lon="4.90332">
        <ele>304</ele>
        <time>2018-06-01T09:35:59Z</time>
      </trkpt>
      <trkpt lat="45.99695" lon="4.90348">
        <ele>303</ele>
        <time>2018-06-01T09:36:00Z</time>
      </trkpt>
      <trkpt lat="45.99692" lon="4.90354">
        <ele>303</ele>
        <time>2018-06-01T09:36:01Z</time>
      </trkpt>
      <trkpt lat="45.99688" lon="4.9036">
        <ele>302</ele>
        <time>2018-06-01T09:36:02Z</time>
      </trkpt>
      <trkpt lat="45.99687" lon="4.9037">
        <ele>302</ele>
        <time>2018-06-01T09:36:03Z</time>
      </trkpt>
      <trkpt lat="45.99685" lon="4.90378">
        <ele>302</ele>
        <time>2018-06-01T09:36:04Z</time>
      </trkpt>
      <trkpt lat="45.99682" lon="4.90387">
        <ele>302</ele>
        <time>2018-06-01T09:36:05Z</time>
      </trkpt>
      <trkpt lat="45.9968" lon="4.90395">
        <ele>302</ele>
        <time>2018-06-01T09:36:06Z</time>
      </trkpt>
      <trkpt lat="45.99679" lon="4.90405">
        <ele>302</ele>
        <time>2018-06-01T09:36:07Z</time>
      </trkpt>
      <trkpt lat="45.99675" lon="4.90411">
        <ele>301</ele>
        <time>2018-06-01T09:36:08Z</time>
      </trkpt>
      <trkpt lat="45.99671" lon="4.9042">
        <ele>301</ele>
        <time>2018-06-01T09:36:10Z</time>
      </trkpt>
      <trkpt lat="45.9967" lon="4.90423">
        <ele>301</ele>
        <time>2018-06-01T09:36:11Z</time>
      </trkpt>
      <trkpt lat="45.99666" lon="4.90432">
        <ele>300</ele>
        <time>2018-06-01T09:36:15Z</time>
      </trkpt>
      <trkpt lat="45.99664" lon="4.90433">
        <ele>300</ele>
        <time>2018-06-01T09:36:16Z</time>
      </trkpt>
      <trkpt lat="45.99657" lon="4.90439">
        <ele>300</ele>
        <time>2018-06-01T09:37:55Z</time>
      </trkpt>
      <trkpt lat="45.99656" lon="4.9044">
        <ele>300</ele>
        <time>2018-06-01T09:37:56Z</time>
      </trkpt>
      <trkpt lat="45.99649" lon="4.90444">
        <ele>300</ele>
        <time>2018-06-01T09:38:01Z</time>
      </trkpt>
      <trkpt lat="45.99647" lon="4.90444">
        <ele>300</ele>
        <time>2018-06-01T09:38:02Z</time>
      </trkpt>
      <trkpt lat="45.99638" lon="4.90446">
        <ele>300</ele>
        <time>2018-06-01T09:38:06Z</time>
      </trkpt>
      <trkpt lat="45.99635" lon="4.90446">
        <ele>300</ele>
        <time>2018-06-01T09:38:07Z</time>
      </trkpt>
      <trkpt lat="45.99627" lon="4.90447">
        <ele>300</ele>
        <time>2018-06-01T09:38:10Z</time>
      </trkpt>
      <trkpt lat="45.99622" lon="4.90447">
        <ele>300</ele>
        <time>2018-06-01T09:38:11Z</time>
      </trkpt>
      <trkpt lat="45.99614" lon="4.90447">
        <ele>300</ele>
        <time>2018-06-01T09:38:14Z</time>
      </trkpt>
      <trkpt lat="45.99612" lon="4.90446">
        <ele>300</ele>
        <time>2018-06-01T09:38:15Z</time>
      </trkpt>
      <trkpt lat="45.99608" lon="4.90441">
        <ele>300</ele>
        <time>2018-06-01T09:38:18Z</time>
      </trkpt>
      <trkpt lat="45.99603" lon="4.90436">
        <ele>300</ele>
        <time>2018-06-01T09:38:19Z</time>
      </trkpt>
      <trkpt lat="45.99598" lon="4.90442">
        <ele>300</ele>
        <time>2018-06-01T09:38:22Z</time>
      </trkpt>
      <trkpt lat="45.99595" lon="4.90444">
        <ele>300</ele>
        <time>2018-06-01T09:38:23Z</time>
      </trkpt>
      <trkpt lat="45.99588" lon="4.90451">
        <ele>300</ele>
        <time>2018-06-01T09:38:24Z</time>
      </trkpt>
      <trkpt lat="45.99584" lon="4.90452">
        <ele>300</ele>
        <time>2018-06-01T09:38:25Z</time>
      </trkpt>
      <trkpt lat="45.99576" lon="4.90455">
        <ele>299</ele>
        <time>2018-06-01T09:38:27Z</time>
      </trkpt>
      <trkpt lat="45.99573" lon="4.90464">
        <ele>299</ele>
        <time>2018-06-01T09:38:28Z</time>
      </trkpt>
      <trkpt lat="45.99568" lon="4.90471">
        <ele>299</ele>
        <time>2018-06-01T09:38:29Z</time>
      </trkpt>
      <trkpt lat="45.99565" lon="4.90476">
        <ele>299</ele>
        <time>2018-06-01T09:38:30Z</time>
      </trkpt>
      <trkpt lat="45.9956" lon="4.9048">
        <ele>299</ele>
        <time>2018-06-01T09:38:31Z</time>
      </trkpt>
      <trkpt lat="45.99557" lon="4.90484">
        <ele>299</ele>
        <time>2018-06-01T09:38:32Z</time>
      </trkpt>
      <trkpt lat="45.99553" lon="4.90489">
        <ele>299</ele>
        <time>2018-06-01T09:38:33Z</time>
      </trkpt>
      <trkpt lat="45.99548" lon="4.90495">
        <ele>299</ele>
        <time>2018-06-01T09:38:34Z</time>
      </trkpt>
      <trkpt lat="45.99544" lon="4.90499">
        <ele>299</ele>
        <time>2018-06-01T09:38:35Z</time>
      </trkpt>
      <trkpt lat="45.99541" lon="4.90505">
        <ele>299</ele>
        <time>2018-06-01T09:38:36Z</time>
      </trkpt>
      <trkpt lat="45.99538" lon="4.90514">
        <ele>299</ele>
        <time>2018-06-01T09:38:37Z</time>
      </trkpt>
      <trkpt lat="45.99533" lon="4.90519">
        <ele>299</ele>
        <time>2018-06-01T09:38:38Z</time>
      </trkpt>
      <trkpt lat="45.99528" lon="4.90525">
        <ele>299</ele>
        <time>2018-06-01T09:38:39Z</time>
      </trkpt>
      <trkpt lat="45.99522" lon="4.90527">
        <ele>299</ele>
        <time>2018-06-01T09:38:40Z</time>
      </trkpt>
      <trkpt lat="45.99517" lon="4.90533">
        <ele>299</ele>
        <time>2018-06-01T09:38:41Z</time>
      </trkpt>
      <trkpt lat="45.99512" lon="4.90538">
        <ele>299</ele>
        <time>2018-06-01T09:38:42Z</time>
      </trkpt>
      <trkpt lat="45.99508" lon="4.90544">
        <ele>299</ele>
        <time>2018-06-01T09:38:43Z</time>
      </trkpt>
      <trkpt lat="45.99503" lon="4.9055">
        <ele>299</ele>
        <time>2018-06-01T09:38:44Z</time>
      </trkpt>
      <trkpt lat="45.99498" lon="4.90557">
        <ele>299</ele>
        <time>2018-06-01T09:38:45Z</time>
      </trkpt>
      <trkpt lat="45.99493" lon="4.90564">
        <ele>299</ele>
        <time>2018-06-01T09:38:46Z</time>
      </trkpt>
      <trkpt lat="45.99488" lon="4.90569">
        <ele>299</ele>
        <time>2018-06-01T09:38:47Z</time>
      </trkpt>
      <trkpt lat="45.99484" lon="4.90576">
        <ele>299</ele>
        <time>2018-06-01T09:38:48Z</time>
      </trkpt>
      <trkpt lat="45.9948" lon="4.90581">
        <ele>299</ele>
        <time>2018-06-01T09:38:49Z</time>
      </trkpt>
      <trkpt lat="45.99476" lon="4.90586">
        <ele>298</ele>
        <time>2018-06-01T09:38:50Z</time>
      </trkpt>
      <trkpt lat="45.99473" lon="4.9059">
        <ele>298</ele>
        <time>2018-06-01T09:38:51Z</time>
      </trkpt>
      <trkpt lat="45.99469" lon="4.90595">
        <ele>298</ele>
        <time>2018-06-01T09:38:52Z</time>
      </trkpt>
      <trkpt lat="45.99465" lon="4.90602">
        <ele>298</ele>
        <time>2018-06-01T09:38:53Z</time>
      </trkpt>
      <trkpt lat="45.99461" lon="4.90607">
        <ele>298</ele>
        <time>2018-06-01T09:38:54Z</time>
      </trkpt>
      <trkpt lat="45.99456" lon="4.90611">
        <ele>298</ele>
        <time>2018-06-01T09:38:55Z</time>
      </trkpt>
      <trkpt lat="45.99452" lon="4.90618">
        <ele>298</ele>
        <time>2018-06-01T09:38:56Z</time>
      </trkpt>
      <trkpt lat="45.99447" lon="4.90623">
        <ele>298</ele>
        <time>2018-06-01T09:38:57Z</time>
      </trkpt>
      <trkpt lat="45.99443" lon="4.90628">
        <ele>298</ele>
        <time>2018-06-01T09:38:58Z</time>
      </trkpt>
      <trkpt lat="45.99438" lon="4.90633">
        <ele>298</ele>
        <time>2018-06-01T09:38:59Z</time>
      </trkpt>
      <trkpt lat="45.99433" lon="4.90637">
        <ele>298</ele>
        <time>2018-06-01T09:39:00Z</time>
      </trkpt>
      <trkpt lat="45.99428" lon="4.90643">
        <ele>298</ele>
        <time>2018-06-01T09:39:01Z</time>
      </trkpt>
      <trkpt lat="45.99424" lon="4.90649">
        <ele>298</ele>
        <time>2018-06-01T09:39:02Z</time>
      </trkpt>
      <trkpt lat="45.99419" lon="4.90654">
        <ele>298</ele>
        <time>2018-06-01T09:39:03Z</time>
      </trkpt>
      <trkpt lat="45.99414" lon="4.90659">
        <ele>298</ele>
        <time>2018-06-01T09:39:04Z</time>
      </trkpt>
      <trkpt lat="45.99409" lon="4.90665">
        <ele>298</ele>
        <time>2018-06-01T09:39:05Z</time>
      </trkpt>
      <trkpt lat="45.99405" lon="4.9067">
        <ele>298</ele>
        <time>2018-06-01T09:39:06Z</time>
      </trkpt>
      <trkpt lat="45.994" lon="4.90674">
        <ele>298</ele>
        <time>2018-06-01T09:39:07Z</time>
      </trkpt>
      <trkpt lat="45.99395" lon="4.9068">
        <ele>298</ele>
        <time>2018-06-01T09:39:08Z</time>
      </trkpt>
      <trkpt lat="45.9939" lon="4.90686">
        <ele>298</ele>
        <time>2018-06-01T09:39:09Z</time>
      </trkpt>
      <trkpt lat="45.99388" lon="4.90693">
        <ele>298</ele>
        <time>2018-06-01T09:39:10Z</time>
      </trkpt>
      <trkpt lat="45.99383" lon="4.907">
        <ele>298</ele>
        <time>2018-06-01T09:39:11Z</time>
      </trkpt>
      <trkpt lat="45.99378" lon="4.90705">
        <ele>298</ele>
        <time>2018-06-01T09:39:12Z</time>
      </trkpt>
      <trkpt lat="45.99372" lon="4.90712">
        <ele>299</ele>
        <time>2018-06-01T09:39:13Z</time>
      </trkpt>
      <trkpt lat="45.99368" lon="4.90718">
        <ele>299</ele>
        <time>2018-06-01T09:39:14Z</time>
      </trkpt>
      <trkpt lat="45.99363" lon="4.90723">
        <ele>299</ele>
        <time>2018-06-01T09:39:15Z</time>
      </trkpt>
      <trkpt lat="45.99359" lon="4.90729">
        <ele>299</ele>
        <time>2018-06-01T09:39:16Z</time>
      </trkpt>
      <trkpt lat="45.99354" lon="4.90735">
        <ele>299</ele>
        <time>2018-06-01T09:39:17Z</time>
      </trkpt>
      <trkpt lat="45.9935" lon="4.9074">
        <ele>299</ele>
        <time>2018-06-01T09:39:18Z</time>
      </trkpt>
      <trkpt lat="45.99345" lon="4.90746">
        <ele>299</ele>
        <time>2018-06-01T09:39:19Z</time>
      </trkpt>
      <trkpt lat="45.9934" lon="4.9075">
        <ele>300</ele>
        <time>2018-06-01T09:39:20Z</time>
      </trkpt>
      <trkpt lat="45.99336" lon="4.90753">
        <ele>300</ele>
        <time>2018-06-01T09:39:21Z</time>
      </trkpt>
      <trkpt lat="45.99331" lon="4.90759">
        <ele>300</ele>
        <time>2018-06-01T09:39:22Z</time>
      </trkpt>
      <trkpt lat="45.99326" lon="4.90763">
        <ele>300</ele>
        <time>2018-06-01T09:39:23Z</time>
      </trkpt>
      <trkpt lat="45.99322" lon="4.90769">
        <ele>300</ele>
        <time>2018-06-01T09:39:24Z</time>
      </trkpt>
      <trkpt lat="45.99319" lon="4.90774">
        <ele>300</ele>
        <time>2018-06-01T09:39:25Z</time>
      </trkpt>
      <trkpt lat="45.99313" lon="4.90779">
        <ele>300</ele>
        <time>2018-06-01T09:39:26Z</time>
      </trkpt>
      <trkpt lat="45.99308" lon="4.90784">
        <ele>300</ele>
        <time>2018-06-01T09:39:27Z</time>
      </trkpt>
      <trkpt lat="45.99305" lon="4.90787">
        <ele>300</ele>
        <time>2018-06-01T09:39:28Z</time>
      </trkpt>
      <trkpt lat="45.99301" lon="4.9079">
        <ele>300</ele>
        <time>2018-06-01T09:39:29Z</time>
      </trkpt>
      <trkpt lat="45.99297" lon="4.90795">
        <ele>300</ele>
        <time>2018-06-01T09:39:30Z</time>
      </trkpt>
      <trkpt lat="45.99292" lon="4.90802">
        <ele>300</ele>
        <time>2018-06-01T09:39:31Z</time>
      </trkpt>
      <trkpt lat="45.99288" lon="4.90807">
        <ele>300</ele>
        <time>2018-06-01T09:39:32Z</time>
      </trkpt>
      <trkpt lat="45.99284" lon="4.90814">
        <ele>300</ele>
        <time>2018-06-01T09:39:33Z</time>
      </trkpt>
      <trkpt lat="45.99279" lon="4.90819">
        <ele>300</ele>
        <time>2018-06-01T09:39:34Z</time>
      </trkpt>
      <trkpt lat="45.99274" lon="4.90825">
        <ele>300</ele>
        <time>2018-06-01T09:39:35Z</time>
      </trkpt>
      <trkpt lat="45.9927" lon="4.9083">
        <ele>300</ele>
        <time>2018-06-01T09:39:36Z</time>
      </trkpt>
      <trkpt lat="45.99265" lon="4.90834">
        <ele>300</ele>
        <time>2018-06-01T09:39:37Z</time>
      </trkpt>
      <trkpt lat="45.99259" lon="4.9084">
        <ele>300</ele>
        <time>2018-06-01T09:39:38Z</time>
      </trkpt>
      <trkpt lat="45.99256" lon="4.90845">
        <ele>300</ele>
        <time>2018-06-01T09:39:39Z</time>
      </trkpt>
      <trkpt lat="45.99252" lon="4.90851">
        <ele>300</ele>
        <time>2018-06-01T09:39:40Z</time>
      </trkpt>
      <trkpt lat="45.99248" lon="4.90856">
        <ele>300</ele>
        <time>2018-06-01T09:39:41Z</time>
      </trkpt>
      <trkpt lat="45.99245" lon="4.90861">
        <ele>300</ele>
        <time>2018-06-01T09:39:42Z</time>
      </trkpt>
      <trkpt lat="45.99238" lon="4.90866">
        <ele>300</ele>
        <time>2018-06-01T09:39:43Z</time>
      </trkpt>
      <trkpt lat="45.99234" lon="4.90873">
        <ele>300</ele>
        <time>2018-06-01T09:39:44Z</time>
      </trkpt>
      <trkpt lat="45.99229" lon="4.90878">
        <ele>299</ele>
        <time>2018-06-01T09:39:45Z</time>
      </trkpt>
      <trkpt lat="45.99225" lon="4.90885">
        <ele>299</ele>
        <time>2018-06-01T09:39:46Z</time>
      </trkpt>
      <trkpt lat="45.99219" lon="4.9089">
        <ele>299</ele>
        <time>2018-06-01T09:39:47Z</time>
      </trkpt>
      <trkpt lat="45.99216" lon="4.90897">
        <ele>299</ele>
        <time>2018-06-01T09:39:48Z</time>
      </trkpt>
      <trkpt lat="45.99211" lon="4.90902">
        <ele>299</ele>
        <time>2018-06-01T09:39:49Z</time>
      </trkpt>
      <trkpt lat="45.99205" lon="4.90907">
        <ele>300</ele>
        <time>2018-06-01T09:39:50Z</time>
      </trkpt>
      <trkpt lat="45.99201" lon="4.90912">
        <ele>300</ele>
        <time>2018-06-01T09:39:51Z</time>
      </trkpt>
      <trkpt lat="45.99196" lon="4.90918">
        <ele>300</ele>
        <time>2018-06-01T09:39:52Z</time>
      </trkpt>
      <trkpt lat="45.99193" lon="4.90923">
        <ele>300</ele>
        <time>2018-06-01T09:39:53Z</time>
      </trkpt>
      <trkpt lat="45.9919" lon="4.90929">
        <ele>300</ele>
        <time>2018-06-01T09:39:54Z</time>
      </trkpt>
      <trkpt lat="45.99183" lon="4.90934">
        <ele>300</ele>
        <time>2018-06-01T09:39:55Z</time>
      </trkpt>
      <trkpt lat="45.9918" lon="4.90941">
        <ele>300</ele>
        <time>2018-06-01T09:39:56Z</time>
      </trkpt>
      <trkpt lat="45.99175" lon="4.90947">
        <ele>300</ele>
        <time>2018-06-01T09:39:57Z</time>
      </trkpt>
      <trkpt lat="45.99171" lon="4.90953">
        <ele>300</ele>
        <time>2018-06-01T09:39:58Z</time>
      </trkpt>
      <trkpt lat="45.99167" lon="4.90957">
        <ele>300</ele>
        <time>2018-06-01T09:39:59Z</time>
      </trkpt>
      <trkpt lat="45.99163" lon="4.90963">
        <ele>300</ele>
        <time>2018-06-01T09:40:00Z</time>
      </trkpt>
      <trkpt lat="45.99158" lon="4.90968">
        <ele>300</ele>
        <time>2018-06-01T09:40:01Z</time>
      </trkpt>
      <trkpt lat="45.99153" lon="4.90973">
        <ele>300</ele>
        <time>2018-06-01T09:40:02Z</time>
      </trkpt>
      <trkpt lat="45.99148" lon="4.90979">
        <ele>301</ele>
        <time>2018-06-01T09:40:03Z</time>
      </trkpt>
      <trkpt lat="45.99144" lon="4.90987">
        <ele>301</ele>
        <time>2018-06-01T09:40:04Z</time>
      </trkpt>
      <trkpt lat="45.99138" lon="4.90993">
        <ele>301</ele>
        <time>2018-06-01T09:40:05Z</time>
      </trkpt>
      <trkpt lat="45.99133" lon="4.90998">
        <ele>301</ele>
        <time>2018-06-01T09:40:06Z</time>
      </trkpt>
      <trkpt lat="45.99129" lon="4.91004">
        <ele>301</ele>
        <time>2018-06-01T09:40:07Z</time>
      </trkpt>
      <trkpt lat="45.99126" lon="4.91011">
        <ele>301</ele>
        <time>2018-06-01T09:40:08Z</time>
      </trkpt>
      <trkpt lat="45.99121" lon="4.91017">
        <ele>301</ele>
        <time>2018-06-01T09:40:09Z</time>
      </trkpt>
      <trkpt lat="45.99116" lon="4.91022">
        <ele>301</ele>
        <time>2018-06-01T09:40:10Z</time>
      </trkpt>
      <trkpt lat="45.99109" lon="4.91028">
        <ele>301</ele>
        <time>2018-06-01T09:40:11Z</time>
      </trkpt>
      <trkpt lat="45.99105" lon="4.91034">
        <ele>301</ele>
        <time>2018-06-01T09:40:12Z</time>
      </trkpt>
      <trkpt lat="45.991" lon="4.9104">
        <ele>301</ele>
        <time>2018-06-01T09:40:13Z</time>
      </trkpt>
      <trkpt lat="45.99095" lon="4.91047">
        <ele>301</ele>
        <time>2018-06-01T09:40:14Z</time>
      </trkpt>
      <trkpt lat="45.99089" lon="4.91052">
        <ele>301</ele>
        <time>2018-06-01T09:40:15Z</time>
      </trkpt>
      <trkpt lat="45.99084" lon="4.91058">
        <ele>300</ele>
        <time>2018-06-01T09:40:16Z</time>
      </trkpt>
      <trkpt lat="45.99081" lon="4.91064">
        <ele>300</ele>
        <time>2018-06-01T09:40:17Z</time>
      </trkpt>
      <trkpt lat="45.99076" lon="4.9107">
        <ele>300</ele>
        <time>2018-06-01T09:40:18Z</time>
      </trkpt>
      <trkpt lat="45.99071" lon="4.91078">
        <ele>300</ele>
        <time>2018-06-01T09:40:19Z</time>
      </trkpt>
      <trkpt lat="45.99066" lon="4.91084">
        <ele>300</ele>
        <time>2018-06-01T09:40:20Z</time>
      </trkpt>
      <trkpt lat="45.99061" lon="4.91089">
        <ele>300</ele>
        <time>2018-06-01T09:40:21Z</time>
      </trkpt>
      <trkpt lat="45.99056" lon="4.91096">
        <ele>299</ele>
        <time>2018-06-01T09:40:22Z</time>
      </trkpt>
      <trkpt lat="45.9905" lon="4.91102">
        <ele>299</ele>
        <time>2018-06-01T09:40:23Z</time>
      </trkpt>
      <trkpt lat="45.99045" lon="4.91108">
        <ele>299</ele>
        <time>2018-06-01T09:40:24Z</time>
      </trkpt>
      <trkpt lat="45.9904" lon="4.91114">
        <ele>299</ele>
        <time>2018-06-01T09:40:25Z</time>
      </trkpt>
      <trkpt lat="45.99035" lon="4.91119">
        <ele>299</ele>
        <time>2018-06-01T09:40:26Z</time>
      </trkpt>
      <trkpt lat="45.99031" lon="4.91125">
        <ele>299</ele>
        <time>2018-06-01T09:40:27Z</time>
      </trkpt>
      <trkpt lat="45.99026" lon="4.91131">
        <ele>299</ele>
        <time>2018-06-01T09:40:28Z</time>
      </trkpt>
      <trkpt lat="45.99022" lon="4.9114">
        <ele>299</ele>
        <time>2018-06-01T09:40:29Z</time>
      </trkpt>
      <trkpt lat="45.99017" lon="4.91146">
        <ele>299</ele>
        <time>2018-06-01T09:40:30Z</time>
      </trkpt>
      <trkpt lat="45.99011" lon="4.91151">
        <ele>299</ele>
        <time>2018-06-01T09:40:31Z</time>
      </trkpt>
      <trkpt lat="45.99008" lon="4.91157">
        <ele>299</ele>
        <time>2018-06-01T09:40:32Z</time>
      </trkpt>
      <trkpt lat="45.99004" lon="4.91164">
        <ele>299</ele>
        <time>2018-06-01T09:40:33Z</time>
      </trkpt>
      <trkpt lat="45.98999" lon="4.91171">
        <ele>299</ele>
        <time>2018-06-01T09:40:34Z</time>
      </trkpt>
      <trkpt lat="45.98994" lon="4.91176">
        <ele>299</ele>
        <time>2018-06-01T09:40:35Z</time>
      </trkpt>
      <trkpt lat="45.98989" lon="4.91181">
        <ele>299</ele>
        <time>2018-06-01T09:40:36Z</time>
      </trkpt>
      <trkpt lat="45.98984" lon="4.91187">
        <ele>299</ele>
        <time>2018-06-01T09:40:37Z</time>
      </trkpt>
      <trkpt lat="45.9898" lon="4.91195">
        <ele>299</ele>
        <time>2018-06-01T09:40:38Z</time>
      </trkpt>
      <trkpt lat="45.98975" lon="4.91201">
        <ele>299</ele>
        <time>2018-06-01T09:40:39Z</time>
      </trkpt>
      <trkpt lat="45.98971" lon="4.91207">
        <ele>299</ele>
        <time>2018-06-01T09:40:40Z</time>
      </trkpt>
      <trkpt lat="45.98966" lon="4.91212">
        <ele>299</ele>
        <time>2018-06-01T09:40:41Z</time>
      </trkpt>
      <trkpt lat="45.98961" lon="4.91219">
        <ele>299</ele>
        <time>2018-06-01T09:40:42Z</time>
      </trkpt>
      <trkpt lat="45.98956" lon="4.91224">
        <ele>299</ele>
        <time>2018-06-01T09:40:43Z</time>
      </trkpt>
      <trkpt lat="45.98952" lon="4.9123">
        <ele>299</ele>
        <time>2018-06-01T09:40:44Z</time>
      </trkpt>
      <trkpt lat="45.98947" lon="4.91239">
        <ele>299</ele>
        <time>2018-06-01T09:40:45Z</time>
      </trkpt>
      <trkpt lat="45.98942" lon="4.91243">
        <ele>299</ele>
        <time>2018-06-01T09:40:46Z</time>
      </trkpt>
      <trkpt lat="45.98937" lon="4.91249">
        <ele>299</ele>
        <time>2018-06-01T09:40:47Z</time>
      </trkpt>
      <trkpt lat="45.98932" lon="4.91254">
        <ele>299</ele>
        <time>2018-06-01T09:40:48Z</time>
      </trkpt>
      <trkpt lat="45.98925" lon="4.91261">
        <ele>299</ele>
        <time>2018-06-01T09:40:49Z</time>
      </trkpt>
      <trkpt lat="45.9892" lon="4.91267">
        <ele>299</ele>
        <time>2018-06-01T09:40:50Z</time>
      </trkpt>
      <trkpt lat="45.98915" lon="4.91273">
        <ele>299</ele>
        <time>2018-06-01T09:40:51Z</time>
      </trkpt>
      <trkpt lat="45.98911" lon="4.91279">
        <ele>299</ele>
        <time>2018-06-01T09:40:52Z</time>
      </trkpt>
      <trkpt lat="45.98905" lon="4.91286">
        <ele>299</ele>
        <time>2018-06-01T09:40:53Z</time>
      </trkpt>
      <trkpt lat="45.98901" lon="4.91292">
        <ele>299</ele>
        <time>2018-06-01T09:40:54Z</time>
      </trkpt>
      <trkpt lat="45.98897" lon="4.91297">
        <ele>299</ele>
        <time>2018-06-01T09:40:55Z</time>
      </trkpt>
      <trkpt lat="45.98893" lon="4.91302">
        <ele>299</ele>
        <time>2018-06-01T09:40:56Z</time>
      </trkpt>
      <trkpt lat="45.98889" lon="4.91307">
        <ele>299</ele>
        <time>2018-06-01T09:40:57Z</time>
      </trkpt>
      <trkpt lat="45.98883" lon="4.91313">
        <ele>299</ele>
        <time>2018-06-01T09:40:58Z</time>
      </trkpt>
      <trkpt lat="45.98879" lon="4.91318">
        <ele>299</ele>
        <time>2018-06-01T09:40:59Z</time>
      </trkpt>
      <trkpt lat="45.98874" lon="4.91323">
        <ele>298</ele>
        <time>2018-06-01T09:41:00Z</time>
      </trkpt>
      <trkpt lat="45.98869" lon="4.9133">
        <ele>298</ele>
        <time>2018-06-01T09:41:01Z</time>
      </trkpt>
      <trkpt lat="45.98865" lon="4.91336">
        <ele>298</ele>
        <time>2018-06-01T09:41:02Z</time>
      </trkpt>
      <trkpt lat="45.9886" lon="4.91342">
        <ele>298</ele>
        <time>2018-06-01T09:41:03Z</time>
      </trkpt>
      <trkpt lat="45.98855" lon="4.91346">
        <ele>298</ele>
        <time>2018-06-01T09:41:04Z</time>
      </trkpt>
      <trkpt lat="45.9885" lon="4.91353">
        <ele>298</ele>
        <time>2018-06-01T09:41:05Z</time>
      </trkpt>
      <trkpt lat="45.98845" lon="4.91358">
        <ele>298</ele>
        <time>2018-06-01T09:41:06Z</time>
      </trkpt>
      <trkpt lat="45.98839" lon="4.91364">
        <ele>298</ele>
        <time>2018-06-01T09:41:07Z</time>
      </trkpt>
      <trkpt lat="45.98834" lon="4.91371">
        <ele>298</ele>
        <time>2018-06-01T09:41:08Z</time>
      </trkpt>
      <trkpt lat="45.98829" lon="4.91377">
        <ele>298</ele>
        <time>2018-06-01T09:41:09Z</time>
      </trkpt>
      <trkpt lat="45.98823" lon="4.91383">
        <ele>298</ele>
        <time>2018-06-01T09:41:10Z</time>
      </trkpt>
      <trkpt lat="45.98818" lon="4.9139">
        <ele>298</ele>
        <time>2018-06-01T09:41:11Z</time>
      </trkpt>
      <trkpt lat="45.98813" lon="4.91395">
        <ele>299</ele>
        <time>2018-06-01T09:41:12Z</time>
      </trkpt>
      <trkpt lat="45.98809" lon="4.91402">
        <ele>299</ele>
        <time>2018-06-01T09:41:13Z</time>
      </trkpt>
      <trkpt lat="45.98804" lon="4.91408">
        <ele>299</ele>
        <time>2018-06-01T09:41:14Z</time>
      </trkpt>
      <trkpt lat="45.98798" lon="4.91415">
        <ele>299</ele>
        <time>2018-06-01T09:41:15Z</time>
      </trkpt>
      <trkpt lat="45.98793" lon="4.9142">
        <ele>298</ele>
        <time>2018-06-01T09:41:16Z</time>
      </trkpt>
      <trkpt lat="45.98788" lon="4.91428">
        <ele>298</ele>
        <time>2018-06-01T09:41:17Z</time>
      </trkpt>
      <trkpt lat="45.98784" lon="4.91433">
        <ele>298</ele>
        <time>2018-06-01T09:41:18Z</time>
      </trkpt>
      <trkpt lat="45.98781" lon="4.91439">
        <ele>298</ele>
        <time>2018-06-01T09:41:19Z</time>
      </trkpt>
      <trkpt lat="45.98776" lon="4.91445">
        <ele>298</ele>
        <time>2018-06-01T09:41:20Z</time>
      </trkpt>
      <trkpt lat="45.9877" lon="4.9145">
        <ele>298</ele>
        <time>2018-06-01T09:41:21Z</time>
      </trkpt>
      <trkpt lat="45.98766" lon="4.91456">
        <ele>298</ele>
        <time>2018-06-01T09:41:22Z</time>
      </trkpt>
      <trkpt lat="45.9876" lon="4.91462">
        <ele>298</ele>
        <time>2018-06-01T09:41:23Z</time>
      </trkpt>
      <trkpt lat="45.98755" lon="4.9147">
        <ele>298</ele>
        <time>2018-06-01T09:41:24Z</time>
      </trkpt>
      <trkpt lat="45.9875" lon="4.91475">
        <ele>299</ele>
        <time>2018-06-01T09:41:25Z</time>
      </trkpt>
      <trkpt lat="45.98745" lon="4.9148">
        <ele>299</ele>
        <time>2018-06-01T09:41:26Z</time>
      </trkpt>
      <trkpt lat="45.9874" lon="4.91486">
        <ele>299</ele>
        <time>2018-06-01T09:41:27Z</time>
      </trkpt>
      <trkpt lat="45.98736" lon="4.91492">
        <ele>299</ele>
        <time>2018-06-01T09:41:28Z</time>
      </trkpt>
      <trkpt lat="45.9873" lon="4.91497">
        <ele>299</ele>
        <time>2018-06-01T09:41:29Z</time>
      </trkpt>
      <trkpt lat="45.98725" lon="4.91502">
        <ele>299</ele>
        <time>2018-06-01T09:41:30Z</time>
      </trkpt>
      <trkpt lat="45.98719" lon="4.91506">
        <ele>299</ele>
        <time>2018-06-01T09:41:31Z</time>
      </trkpt>
      <trkpt lat="45.98716" lon="4.91513">
        <ele>299</ele>
        <time>2018-06-01T09:41:32Z</time>
      </trkpt>
      <trkpt lat="45.98711" lon="4.9152">
        <ele>299</ele>
        <time>2018-06-01T09:41:33Z</time>
      </trkpt>
      <trkpt lat="45.98706" lon="4.91525">
        <ele>299</ele>
        <time>2018-06-01T09:41:34Z</time>
      </trkpt>
      <trkpt lat="45.98702" lon="4.91532">
        <ele>299</ele>
        <time>2018-06-01T09:41:35Z</time>
      </trkpt>
      <trkpt lat="45.98696" lon="4.91538">
        <ele>299</ele>
        <time>2018-06-01T09:41:36Z</time>
      </trkpt>
      <trkpt lat="45.98691" lon="4.91544">
        <ele>299</ele>
        <time>2018-06-01T09:41:37Z</time>
      </trkpt>
      <trkpt lat="45.98686" lon="4.9155">
        <ele>299</ele>
        <time>2018-06-01T09:41:38Z</time>
      </trkpt>
      <trkpt lat="45.9868" lon="4.91556">
        <ele>299</ele>
        <time>2018-06-01T09:41:39Z</time>
      </trkpt>
      <trkpt lat="45.98675" lon="4.91563">
        <ele>299</ele>
        <time>2018-06-01T09:41:40Z</time>
      </trkpt>
      <trkpt lat="45.98671" lon="4.9157">
        <ele>299</ele>
        <time>2018-06-01T09:41:41Z</time>
      </trkpt>
      <trkpt lat="45.98666" lon="4.91575">
        <ele>299</ele>
        <time>2018-06-01T09:41:42Z</time>
      </trkpt>
      <trkpt lat="45.98661" lon="4.91581">
        <ele>299</ele>
        <time>2018-06-01T09:41:43Z</time>
      </trkpt>
      <trkpt lat="45.98658" lon="4.91589">
        <ele>299</ele>
        <time>2018-06-01T09:41:44Z</time>
      </trkpt>
      <trkpt lat="45.98652" lon="4.91594">
        <ele>299</ele>
        <time>2018-06-01T09:41:45Z</time>
      </trkpt>
      <trkpt lat="45.98647" lon="4.91599">
        <ele>299</ele>
        <time>2018-06-01T09:41:46Z</time>
      </trkpt>
      <trkpt lat="45.98643" lon="4.91603">
        <ele>298</ele>
        <time>2018-06-01T09:41:47Z</time>
      </trkpt>
      <trkpt lat="45.98638" lon="4.9161">
        <ele>298</ele>
        <time>2018-06-01T09:41:48Z</time>
      </trkpt>
      <trkpt lat="45.98631" lon="4.91618">
        <ele>298</ele>
        <time>2018-06-01T09:41:49Z</time>
      </trkpt>
      <trkpt lat="45.98625" lon="4.91621">
        <ele>298</ele>
        <time>2018-06-01T09:41:50Z</time>
      </trkpt>
      <trkpt lat="45.98619" lon="4.91626">
        <ele>298</ele>
        <time>2018-06-01T09:41:51Z</time>
      </trkpt>
      <trkpt lat="45.98617" lon="4.91632">
        <ele>298</ele>
        <time>2018-06-01T09:41:52Z</time>
      </trkpt>
      <trkpt lat="45.98612" lon="4.91641">
        <ele>298</ele>
        <time>2018-06-01T09:41:53Z</time>
      </trkpt>
      <trkpt lat="45.98607" lon="4.91648">
        <ele>298</ele>
        <time>2018-06-01T09:41:54Z</time>
      </trkpt>
      <trkpt lat="45.98599" lon="4.9165">
        <ele>298</ele>
        <time>2018-06-01T09:41:55Z</time>
      </trkpt>
      <trkpt lat="45.98596" lon="4.91656">
        <ele>298</ele>
        <time>2018-06-01T09:41:56Z</time>
      </trkpt>
      <trkpt lat="45.98592" lon="4.91665">
        <ele>298</ele>
        <time>2018-06-01T09:41:57Z</time>
      </trkpt>
      <trkpt lat="45.98587" lon="4.9167">
        <ele>298</ele>
        <time>2018-06-01T09:41:58Z</time>
      </trkpt>
      <trkpt lat="45.9858" lon="4.91677">
        <ele>298</ele>
        <time>2018-06-01T09:41:59Z</time>
      </trkpt>
      <trkpt lat="45.98574" lon="4.91682">
        <ele>298</ele>
        <time>2018-06-01T09:42:00Z</time>
      </trkpt>
      <trkpt lat="45.98569" lon="4.91688">
        <ele>298</ele>
        <time>2018-06-01T09:42:01Z</time>
      </trkpt>
      <trkpt lat="45.98565" lon="4.91694">
        <ele>298</ele>
        <time>2018-06-01T09:42:02Z</time>
      </trkpt>
      <trkpt lat="45.9856" lon="4.917">
        <ele>298</ele>
        <time>2018-06-01T09:42:03Z</time>
      </trkpt>
      <trkpt lat="45.98554" lon="4.91706">
        <ele>298</ele>
        <time>2018-06-01T09:42:04Z</time>
      </trkpt>
      <trkpt lat="45.98549" lon="4.91712">
        <ele>298</ele>
        <time>2018-06-01T09:42:05Z</time>
      </trkpt>
      <trkpt lat="45.98545" lon="4.91718">
        <ele>298</ele>
        <time>2018-06-01T09:42:06Z</time>
      </trkpt>
      <trkpt lat="45.9854" lon="4.91724">
        <ele>297</ele>
        <time>2018-06-01T09:42:07Z</time>
      </trkpt>
      <trkpt lat="45.98535" lon="4.91732">
        <ele>297</ele>
        <time>2018-06-01T09:42:08Z</time>
      </trkpt>
      <trkpt lat="45.98531" lon="4.91738">
        <ele>297</ele>
        <time>2018-06-01T09:42:09Z</time>
      </trkpt>
      <trkpt lat="45.98526" lon="4.91744">
        <ele>297</ele>
        <time>2018-06-01T09:42:10Z</time>
      </trkpt>
      <trkpt lat="45.98522" lon="4.91751">
        <ele>297</ele>
        <time>2018-06-01T09:42:11Z</time>
      </trkpt>
      <trkpt lat="45.98517" lon="4.91757">
        <ele>297</ele>
        <time>2018-06-01T09:42:12Z</time>
      </trkpt>
      <trkpt lat="45.98512" lon="4.91762">
        <ele>297</ele>
        <time>2018-06-01T09:42:13Z</time>
      </trkpt>
      <trkpt lat="45.98507" lon="4.9177">
        <ele>297</ele>
        <time>2018-06-01T09:42:14Z</time>
      </trkpt>
      <trkpt lat="45.98503" lon="4.91775">
        <ele>297</ele>
        <time>2018-06-01T09:42:15Z</time>
      </trkpt>
      <trkpt lat="45.98497" lon="4.91781">
        <ele>297</ele>
        <time>2018-06-01T09:42:16Z</time>
      </trkpt>
      <trkpt lat="45.98493" lon="4.91787">
        <ele>297</ele>
        <time>2018-06-01T09:42:17Z</time>
      </trkpt>
      <trkpt lat="45.98487" lon="4.91794">
        <ele>297</ele>
        <time>2018-06-01T09:42:18Z</time>
      </trkpt>
      <trkpt lat="45.98482" lon="4.91799">
        <ele>297</ele>
        <time>2018-06-01T09:42:19Z</time>
      </trkpt>
      <trkpt lat="45.98477" lon="4.91805">
        <ele>297</ele>
        <time>2018-06-01T09:42:20Z</time>
      </trkpt>
      <trkpt lat="45.98472" lon="4.9181">
        <ele>297</ele>
        <time>2018-06-01T09:42:21Z</time>
      </trkpt>
      <trkpt lat="45.98468" lon="4.91816">
        <ele>297</ele>
        <time>2018-06-01T09:42:22Z</time>
      </trkpt>
      <trkpt lat="45.98463" lon="4.91823">
        <ele>297</ele>
        <time>2018-06-01T09:42:23Z</time>
      </trkpt>
      <trkpt lat="45.9846" lon="4.9183">
        <ele>297</ele>
        <time>2018-06-01T09:42:24Z</time>
      </trkpt>
      <trkpt lat="45.98454" lon="4.91834">
        <ele>297</ele>
        <time>2018-06-01T09:42:25Z</time>
      </trkpt>
      <trkpt lat="45.98449" lon="4.9184">
        <ele>297</ele>
        <time>2018-06-01T09:42:26Z</time>
      </trkpt>
      <trkpt lat="45.98444" lon="4.91845">
        <ele>297</ele>
        <time>2018-06-01T09:42:27Z</time>
      </trkpt>
      <trkpt lat="45.98439" lon="4.91851">
        <ele>297</ele>
        <time>2018-06-01T09:42:28Z</time>
      </trkpt>
      <trkpt lat="45.98434" lon="4.91857">
        <ele>297</ele>
        <time>2018-06-01T09:42:29Z</time>
      </trkpt>
      <trkpt lat="45.9843" lon="4.91863">
        <ele>297</ele>
        <time>2018-06-01T09:42:30Z</time>
      </trkpt>
      <trkpt lat="45.98426" lon="4.91869">
        <ele>297</ele>
        <time>2018-06-01T09:42:31Z</time>
      </trkpt>
      <trkpt lat="45.98421" lon="4.91876">
        <ele>297</ele>
        <time>2018-06-01T09:42:32Z</time>
      </trkpt>
      <trkpt lat="45.98416" lon="4.91881">
        <ele>297</ele>
        <time>2018-06-01T09:42:33Z</time>
      </trkpt>
      <trkpt lat="45.98411" lon="4.91888">
        <ele>297</ele>
        <time>2018-06-01T09:42:34Z</time>
      </trkpt>
      <trkpt lat="45.98407" lon="4.91896">
        <ele>297</ele>
        <time>2018-06-01T09:42:35Z</time>
      </trkpt>
      <trkpt lat="45.98402" lon="4.91901">
        <ele>297</ele>
        <time>2018-06-01T09:42:36Z</time>
      </trkpt>
      <trkpt lat="45.98397" lon="4.91908">
        <ele>297</ele>
        <time>2018-06-01T09:42:37Z</time>
      </trkpt>
      <trkpt lat="45.98392" lon="4.91915">
        <ele>297</ele>
        <time>2018-06-01T09:42:38Z</time>
      </trkpt>
      <trkpt lat="45.98387" lon="4.91921">
        <ele>297</ele>
        <time>2018-06-01T09:42:39Z</time>
      </trkpt>
      <trkpt lat="45.98382" lon="4.91925">
        <ele>297</ele>
        <time>2018-06-01T09:42:40Z</time>
      </trkpt>
      <trkpt lat="45.98378" lon="4.91933">
        <ele>297</ele>
        <time>2018-06-01T09:42:41Z</time>
      </trkpt>
      <trkpt lat="45.98372" lon="4.91938">
        <ele>298</ele>
        <time>2018-06-01T09:42:42Z</time>
      </trkpt>
      <trkpt lat="45.98367" lon="4.91944">
        <ele>298</ele>
        <time>2018-06-01T09:42:43Z</time>
      </trkpt>
      <trkpt lat="45.98362" lon="4.9195">
        <ele>298</ele>
        <time>2018-06-01T09:42:44Z</time>
      </trkpt>
      <trkpt lat="45.98356" lon="4.91956">
        <ele>298</ele>
        <time>2018-06-01T09:42:45Z</time>
      </trkpt>
      <trkpt lat="45.98349" lon="4.91962">
        <ele>297</ele>
        <time>2018-06-01T09:42:46Z</time>
      </trkpt>
      <trkpt lat="45.98344" lon="4.91968">
        <ele>297</ele>
        <time>2018-06-01T09:42:47Z</time>
      </trkpt>
      <trkpt lat="45.98339" lon="4.91974">
        <ele>297</ele>
        <time>2018-06-01T09:42:48Z</time>
      </trkpt>
      <trkpt lat="45.98335" lon="4.9198">
        <ele>297</ele>
        <time>2018-06-01T09:42:49Z</time>
      </trkpt>
      <trkpt lat="45.9833" lon="4.91983">
        <ele>298</ele>
        <time>2018-06-01T09:42:50Z</time>
      </trkpt>
      <trkpt lat="45.98325" lon="4.91987">
        <ele>298</ele>
        <time>2018-06-01T09:42:51Z</time>
      </trkpt>
      <trkpt lat="45.98319" lon="4.91993">
        <ele>298</ele>
        <time>2018-06-01T09:42:52Z</time>
      </trkpt>
      <trkpt lat="45.98314" lon="4.91999">
        <ele>298</ele>
        <time>2018-06-01T09:42:53Z</time>
      </trkpt>
      <trkpt lat="45.98309" lon="4.92005">
        <ele>298</ele>
        <time>2018-06-01T09:42:54Z</time>
      </trkpt>
      <trkpt lat="45.98305" lon="4.92012">
        <ele>298</ele>
        <time>2018-06-01T09:42:55Z</time>
      </trkpt>
      <trkpt lat="45.98301" lon="4.92016">
        <ele>298</ele>
        <time>2018-06-01T09:42:56Z</time>
      </trkpt>
      <trkpt lat="45.98297" lon="4.92023">
        <ele>298</ele>
        <time>2018-06-01T09:42:57Z</time>
      </trkpt>
      <trkpt lat="45.98292" lon="4.92029">
        <ele>298</ele>
        <time>2018-06-01T09:42:58Z</time>
      </trkpt>
      <trkpt lat="45.98286" lon="4.92035">
        <ele>298</ele>
        <time>2018-06-01T09:42:59Z</time>
      </trkpt>
      <trkpt lat="45.98281" lon="4.92041">
        <ele>298</ele>
        <time>2018-06-01T09:43:00Z</time>
      </trkpt>
      <trkpt lat="45.98276" lon="4.92048">
        <ele>298</ele>
        <time>2018-06-01T09:43:01Z</time>
      </trkpt>
      <trkpt lat="45.9827" lon="4.92054">
        <ele>298</ele>
        <time>2018-06-01T09:43:02Z</time>
      </trkpt>
      <trkpt lat="45.98264" lon="4.92059">
        <ele>298</ele>
        <time>2018-06-01T09:43:03Z</time>
      </trkpt>
      <trkpt lat="45.9826" lon="4.92065">
        <ele>298</ele>
        <time>2018-06-01T09:43:04Z</time>
      </trkpt>
      <trkpt lat="45.98254" lon="4.92071">
        <ele>299</ele>
        <time>2018-06-01T09:43:05Z</time>
      </trkpt>
      <trkpt lat="45.98248" lon="4.92078">
        <ele>299</ele>
        <time>2018-06-01T09:43:06Z</time>
      </trkpt>
      <trkpt lat="45.98246" lon="4.92084">
        <ele>299</ele>
        <time>2018-06-01T09:43:07Z</time>
      </trkpt>
      <trkpt lat="45.9824" lon="4.9209">
        <ele>299</ele>
        <time>2018-06-01T09:43:08Z</time>
      </trkpt>
      <trkpt lat="45.98236" lon="4.92097">
        <ele>299</ele>
        <time>2018-06-01T09:43:09Z</time>
      </trkpt>
      <trkpt lat="45.98234" lon="4.92104">
        <ele>299</ele>
        <time>2018-06-01T09:43:10Z</time>
      </trkpt>
      <trkpt lat="45.98227" lon="4.9211">
        <ele>299</ele>
        <time>2018-06-01T09:43:11Z</time>
      </trkpt>
      <trkpt lat="45.98223" lon="4.92116">
        <ele>299</ele>
        <time>2018-06-01T09:43:12Z</time>
      </trkpt>
      <trkpt lat="45.9822" lon="4.92123">
        <ele>299</ele>
        <time>2018-06-01T09:43:13Z</time>
      </trkpt>
      <trkpt lat="45.98214" lon="4.92129">
        <ele>299</ele>
        <time>2018-06-01T09:43:14Z</time>
      </trkpt>
      <trkpt lat="45.9821" lon="4.92135">
        <ele>299</ele>
        <time>2018-06-01T09:43:15Z</time>
      </trkpt>
      <trkpt lat="45.98205" lon="4.92141">
        <ele>299</ele>
        <time>2018-06-01T09:43:16Z</time>
      </trkpt>
      <trkpt lat="45.982" lon="4.92147">
        <ele>299</ele>
        <time>2018-06-01T09:43:17Z</time>
      </trkpt>
      <trkpt lat="45.98194" lon="4.92153">
        <ele>299</ele>
        <time>2018-06-01T09:43:18Z</time>
      </trkpt>
      <trkpt lat="45.98188" lon="4.9216">
        <ele>299</ele>
        <time>2018-06-01T09:43:19Z</time>
      </trkpt>
      <trkpt lat="45.98183" lon="4.92166">
        <ele>299</ele>
        <time>2018-06-01T09:43:20Z</time>
      </trkpt>
      <trkpt lat="45.98177" lon="4.92173">
        <ele>299</ele>
        <time>2018-06-01T09:43:21Z</time>
      </trkpt>
      <trkpt lat="45.98172" lon="4.92181">
        <ele>299</ele>
        <time>2018-06-01T09:43:22Z</time>
      </trkpt>
      <trkpt lat="45.98166" lon="4.92186">
        <ele>299</ele>
        <time>2018-06-01T09:43:23Z</time>
      </trkpt>
      <trkpt lat="45.98162" lon="4.92193">
        <ele>299</ele>
        <time>2018-06-01T09:43:24Z</time>
      </trkpt>
      <trkpt lat="45.98158" lon="4.92201">
        <ele>299</ele>
        <time>2018-06-01T09:43:25Z</time>
      </trkpt>
      <trkpt lat="45.98152" lon="4.92204">
        <ele>299</ele>
        <time>2018-06-01T09:43:26Z</time>
      </trkpt>
      <trkpt lat="45.98147" lon="4.9221">
        <ele>299</ele>
        <time>2018-06-01T09:43:27Z</time>
      </trkpt>
      <trkpt lat="45.98144" lon="4.92218">
        <ele>300</ele>
        <time>2018-06-01T09:43:28Z</time>
      </trkpt>
      <trkpt lat="45.98138" lon="4.92224">
        <ele>300</ele>
        <time>2018-06-01T09:43:29Z</time>
      </trkpt>
      <trkpt lat="45.98133" lon="4.9223">
        <ele>300</ele>
        <time>2018-06-01T09:43:30Z</time>
      </trkpt>
      <trkpt lat="45.98129" lon="4.92237">
        <ele>300</ele>
        <time>2018-06-01T09:43:31Z</time>
      </trkpt>
      <trkpt lat="45.98124" lon="4.92244">
        <ele>299</ele>
        <time>2018-06-01T09:43:32Z</time>
      </trkpt>
      <trkpt lat="45.98118" lon="4.9225">
        <ele>300</ele>
        <time>2018-06-01T09:43:33Z</time>
      </trkpt>
      <trkpt lat="45.98113" lon="4.92257">
        <ele>300</ele>
        <time>2018-06-01T09:43:34Z</time>
      </trkpt>
      <trkpt lat="45.98108" lon="4.92262">
        <ele>300</ele>
        <time>2018-06-01T09:43:35Z</time>
      </trkpt>
      <trkpt lat="45.98101" lon="4.92268">
        <ele>300</ele>
        <time>2018-06-01T09:43:36Z</time>
      </trkpt>
      <trkpt lat="45.98097" lon="4.92273">
        <ele>300</ele>
        <time>2018-06-01T09:43:37Z</time>
      </trkpt>
      <trkpt lat="45.98092" lon="4.92279">
        <ele>300</ele>
        <time>2018-06-01T09:43:38Z</time>
      </trkpt>
      <trkpt lat="45.98086" lon="4.92284">
        <ele>300</ele>
        <time>2018-06-01T09:43:39Z</time>
      </trkpt>
      <trkpt lat="45.98081" lon="4.92292">
        <ele>299</ele>
        <time>2018-06-01T09:43:40Z</time>
      </trkpt>
      <trkpt lat="45.98076" lon="4.92297">
        <ele>299</ele>
        <time>2018-06-01T09:43:41Z</time>
      </trkpt>
      <trkpt lat="45.98071" lon="4.92305">
        <ele>299</ele>
        <time>2018-06-01T09:43:42Z</time>
      </trkpt>
      <trkpt lat="45.98066" lon="4.92312">
        <ele>299</ele>
        <time>2018-06-01T09:43:43Z</time>
      </trkpt>
      <trkpt lat="45.98061" lon="4.92318">
        <ele>299</ele>
        <time>2018-06-01T09:43:44Z</time>
      </trkpt>
      <trkpt lat="45.98056" lon="4.92325">
        <ele>299</ele>
        <time>2018-06-01T09:43:45Z</time>
      </trkpt>
      <trkpt lat="45.98051" lon="4.92331">
        <ele>299</ele>
        <time>2018-06-01T09:43:46Z</time>
      </trkpt>
      <trkpt lat="45.98047" lon="4.92338">
        <ele>299</ele>
        <time>2018-06-01T09:43:47Z</time>
      </trkpt>
      <trkpt lat="45.98041" lon="4.92346">
        <ele>299</ele>
        <time>2018-06-01T09:43:48Z</time>
      </trkpt>
      <trkpt lat="45.98036" lon="4.9235">
        <ele>299</ele>
        <time>2018-06-01T09:43:49Z</time>
      </trkpt>
      <trkpt lat="45.9803" lon="4.92355">
        <ele>298</ele>
        <time>2018-06-01T09:43:50Z</time>
      </trkpt>
      <trkpt lat="45.98024" lon="4.9236">
        <ele>298</ele>
        <time>2018-06-01T09:43:51Z</time>
      </trkpt>
      <trkpt lat="45.98019" lon="4.92369">
        <ele>298</ele>
        <time>2018-06-01T09:43:52Z</time>
      </trkpt>
      <trkpt lat="45.98013" lon="4.92375">
        <ele>298</ele>
        <time>2018-06-01T09:43:53Z</time>
      </trkpt>
      <trkpt lat="45.98008" lon="4.92383">
        <ele>298</ele>
        <time>2018-06-01T09:43:54Z</time>
      </trkpt>
      <trkpt lat="45.98003" lon="4.92388">
        <ele>298</ele>
        <time>2018-06-01T09:43:55Z</time>
      </trkpt>
      <trkpt lat="45.97998" lon="4.92394">
        <ele>298</ele>
        <time>2018-06-01T09:43:56Z</time>
      </trkpt>
      <trkpt lat="45.97993" lon="4.92399">
        <ele>298</ele>
        <time>2018-06-01T09:43:57Z</time>
      </trkpt>
      <trkpt lat="45.97988" lon="4.92405">
        <ele>298</ele>
        <time>2018-06-01T09:43:58Z</time>
      </trkpt>
      <trkpt lat="45.97983" lon="4.92411">
        <ele>298</ele>
        <time>2018-06-01T09:43:59Z</time>
      </trkpt>
      <trkpt lat="45.97977" lon="4.92419">
        <ele>298</ele>
        <time>2018-06-01T09:44:00Z</time>
      </trkpt>
      <trkpt lat="45.97972" lon="4.92425">
        <ele>298</ele>
        <time>2018-06-01T09:44:01Z</time>
      </trkpt>
      <trkpt lat="45.97967" lon="4.92431">
        <ele>298</ele>
        <time>2018-06-01T09:44:02Z</time>
      </trkpt>
      <trkpt lat="45.97963" lon="4.92438">
        <ele>298</ele>
        <time>2018-06-01T09:44:03Z</time>
      </trkpt>
      <trkpt lat="45.97957" lon="4.92445">
        <ele>299</ele>
        <time>2018-06-01T09:44:04Z</time>
      </trkpt>
      <trkpt lat="45.97952" lon="4.92451">
        <ele>299</ele>
        <time>2018-06-01T09:44:05Z</time>
      </trkpt>
      <trkpt lat="45.97947" lon="4.92457">
        <ele>299</ele>
        <time>2018-06-01T09:44:06Z</time>
      </trkpt>
      <trkpt lat="45.97942" lon="4.92462">
        <ele>299</ele>
        <time>2018-06-01T09:44:07Z</time>
      </trkpt>
      <trkpt lat="45.97938" lon="4.92468">
        <ele>299</ele>
        <time>2018-06-01T09:44:08Z</time>
      </trkpt>
      <trkpt lat="45.97933" lon="4.92473">
        <ele>299</ele>
        <time>2018-06-01T09:44:09Z</time>
      </trkpt>
      <trkpt lat="45.97929" lon="4.92479">
        <ele>299</ele>
        <time>2018-06-01T09:44:10Z</time>
      </trkpt>
      <trkpt lat="45.97924" lon="4.92485">
        <ele>299</ele>
        <time>2018-06-01T09:44:11Z</time>
      </trkpt>
      <trkpt lat="45.9792" lon="4.92492">
        <ele>299</ele>
        <time>2018-06-01T09:44:12Z</time>
      </trkpt>
      <trkpt lat="45.97915" lon="4.92496">
        <ele>299</ele>
        <time>2018-06-01T09:44:13Z</time>
      </trkpt>
      <trkpt lat="45.97913" lon="4.92506">
        <ele>299</ele>
        <time>2018-06-01T09:44:14Z</time>
      </trkpt>
      <trkpt lat="45.97909" lon="4.92512">
        <ele>299</ele>
        <time>2018-06-01T09:44:15Z</time>
      </trkpt>
      <trkpt lat="45.97904" lon="4.92519">
        <ele>299</ele>
        <time>2018-06-01T09:44:16Z</time>
      </trkpt>
      <trkpt lat="45.97899" lon="4.92523">
        <ele>300</ele>
        <time>2018-06-01T09:44:17Z</time>
      </trkpt>
      <trkpt lat="45.97894" lon="4.92529">
        <ele>300</ele>
        <time>2018-06-01T09:44:18Z</time>
      </trkpt>
      <trkpt lat="45.97889" lon="4.92536">
        <ele>300</ele>
        <time>2018-06-01T09:44:19Z</time>
      </trkpt>
      <trkpt lat="45.97884" lon="4.9254">
        <ele>300</ele>
        <time>2018-06-01T09:44:20Z</time>
      </trkpt>
      <trkpt lat="45.97879" lon="4.92544">
        <ele>300</ele>
        <time>2018-06-01T09:44:21Z</time>
      </trkpt>
      <trkpt lat="45.97874" lon="4.9255">
        <ele>300</ele>
        <time>2018-06-01T09:44:22Z</time>
      </trkpt>
      <trkpt lat="45.97868" lon="4.92556">
        <ele>300</ele>
        <time>2018-06-01T09:44:23Z</time>
      </trkpt>
      <trkpt lat="45.97864" lon="4.92561">
        <ele>300</ele>
        <time>2018-06-01T09:44:24Z</time>
      </trkpt>
      <trkpt lat="45.97859" lon="4.92567">
        <ele>300</ele>
        <time>2018-06-01T09:44:25Z</time>
      </trkpt>
      <trkpt lat="45.97854" lon="4.92573">
        <ele>300</ele>
        <time>2018-06-01T09:44:26Z</time>
      </trkpt>
      <trkpt lat="45.97848" lon="4.9258">
        <ele>300</ele>
        <time>2018-06-01T09:44:27Z</time>
      </trkpt>
      <trkpt lat="45.97843" lon="4.92586">
        <ele>300</ele>
        <time>2018-06-01T09:44:28Z</time>
      </trkpt>
      <trkpt lat="45.97838" lon="4.92592">
        <ele>300</ele>
        <time>2018-06-01T09:44:29Z</time>
      </trkpt>
      <trkpt lat="45.97835" lon="4.92601">
        <ele>300</ele>
        <time>2018-06-01T09:44:30Z</time>
      </trkpt>
      <trkpt lat="45.97828" lon="4.92605">
        <ele>300</ele>
        <time>2018-06-01T09:44:31Z</time>
      </trkpt>
      <trkpt lat="45.97822" lon="4.92609">
        <ele>300</ele>
        <time>2018-06-01T09:44:32Z</time>
      </trkpt>
      <trkpt lat="45.97817" lon="4.92614">
        <ele>300</ele>
        <time>2018-06-01T09:44:33Z</time>
      </trkpt>
      <trkpt lat="45.97812" lon="4.9262">
        <ele>300</ele>
        <time>2018-06-01T09:44:34Z</time>
      </trkpt>
      <trkpt lat="45.97806" lon="4.92627">
        <ele>301</ele>
        <time>2018-06-01T09:44:35Z</time>
      </trkpt>
      <trkpt lat="45.97803" lon="4.92641">
        <ele>301</ele>
        <time>2018-06-01T09:44:36Z</time>
      </trkpt>
      <trkpt lat="45.97798" lon="4.92646">
        <ele>301</ele>
        <time>2018-06-01T09:44:37Z</time>
      </trkpt>
      <trkpt lat="45.97793" lon="4.92652">
        <ele>301</ele>
        <time>2018-06-01T09:44:38Z</time>
      </trkpt>
      <trkpt lat="45.97787" lon="4.92659">
        <ele>300</ele>
        <time>2018-06-01T09:44:39Z</time>
      </trkpt>
      <trkpt lat="45.97782" lon="4.92665">
        <ele>300</ele>
        <time>2018-06-01T09:44:40Z</time>
      </trkpt>
      <trkpt lat="45.97775" lon="4.92671">
        <ele>300</ele>
        <time>2018-06-01T09:44:41Z</time>
      </trkpt>
      <trkpt lat="45.97769" lon="4.92676">
        <ele>300</ele>
        <time>2018-06-01T09:44:42Z</time>
      </trkpt>
      <trkpt lat="45.97766" lon="4.92687">
        <ele>300</ele>
        <time>2018-06-01T09:44:43Z</time>
      </trkpt>
      <trkpt lat="45.9776" lon="4.92693">
        <ele>300</ele>
        <time>2018-06-01T09:44:44Z</time>
      </trkpt>
      <trkpt lat="45.97755" lon="4.92697">
        <ele>300</ele>
        <time>2018-06-01T09:44:45Z</time>
      </trkpt>
      <trkpt lat="45.97751" lon="4.92703">
        <ele>300</ele>
        <time>2018-06-01T09:44:46Z</time>
      </trkpt>
      <trkpt lat="45.97745" lon="4.92707">
        <ele>301</ele>
        <time>2018-06-01T09:44:47Z</time>
      </trkpt>
      <trkpt lat="45.9774" lon="4.92714">
        <ele>301</ele>
        <time>2018-06-01T09:44:48Z</time>
      </trkpt>
      <trkpt lat="45.97736" lon="4.9272">
        <ele>301</ele>
        <time>2018-06-01T09:44:49Z</time>
      </trkpt>
      <trkpt lat="45.9773" lon="4.92727">
        <ele>301</ele>
        <time>2018-06-01T09:44:50Z</time>
      </trkpt>
      <trkpt lat="45.97724" lon="4.92732">
        <ele>301</ele>
        <time>2018-06-01T09:44:51Z</time>
      </trkpt>
      <trkpt lat="45.97719" lon="4.92738">
        <ele>301</ele>
        <time>2018-06-01T09:44:52Z</time>
      </trkpt>
      <trkpt lat="45.97712" lon="4.92743">
        <ele>301</ele>
        <time>2018-06-01T09:44:53Z</time>
      </trkpt>
      <trkpt lat="45.97706" lon="4.92748">
        <ele>302</ele>
        <time>2018-06-01T09:44:54Z</time>
      </trkpt>
      <trkpt lat="45.97701" lon="4.92754">
        <ele>301</ele>
        <time>2018-06-01T09:44:55Z</time>
      </trkpt>
      <trkpt lat="45.97697" lon="4.92759">
        <ele>301</ele>
        <time>2018-06-01T09:44:56Z</time>
      </trkpt>
      <trkpt lat="45.97692" lon="4.92765">
        <ele>301</ele>
        <time>2018-06-01T09:44:57Z</time>
      </trkpt>
      <trkpt lat="45.97685" lon="4.92772">
        <ele>301</ele>
        <time>2018-06-01T09:44:58Z</time>
      </trkpt>
      <trkpt lat="45.9768" lon="4.92777">
        <ele>301</ele>
        <time>2018-06-01T09:44:59Z</time>
      </trkpt>
      <trkpt lat="45.97673" lon="4.92784">
        <ele>301</ele>
        <time>2018-06-01T09:45:00Z</time>
      </trkpt>
      <trkpt lat="45.97668" lon="4.92789">
        <ele>301</ele>
        <time>2018-06-01T09:45:01Z</time>
      </trkpt>
      <trkpt lat="45.97665" lon="4.92795">
        <ele>301</ele>
        <time>2018-06-01T09:45:02Z</time>
      </trkpt>
      <trkpt lat="45.97661" lon="4.92801">
        <ele>300</ele>
        <time>2018-06-01T09:45:03Z</time>
      </trkpt>
      <trkpt lat="45.97655" lon="4.92806">
        <ele>300</ele>
        <time>2018-06-01T09:45:04Z</time>
      </trkpt>
      <trkpt lat="45.97651" lon="4.92812">
        <ele>300</ele>
        <time>2018-06-01T09:45:05Z</time>
      </trkpt>
      <trkpt lat="45.97647" lon="4.92818">
        <ele>300</ele>
        <time>2018-06-01T09:45:06Z</time>
      </trkpt>
      <trkpt lat="45.97642" lon="4.92824">
        <ele>300</ele>
        <time>2018-06-01T09:45:07Z</time>
      </trkpt>
      <trkpt lat="45.97637" lon="4.9283">
        <ele>300</ele>
        <time>2018-06-01T09:45:08Z</time>
      </trkpt>
      <trkpt lat="45.97633" lon="4.92837">
        <ele>298</ele>
        <time>2018-06-01T09:45:09Z</time>
      </trkpt>
      <trkpt lat="45.97628" lon="4.92843">
        <ele>298</ele>
        <time>2018-06-01T09:45:10Z</time>
      </trkpt>
      <trkpt lat="45.97623" lon="4.92848">
        <ele>298</ele>
        <time>2018-06-01T09:45:11Z</time>
      </trkpt>
      <trkpt lat="45.97618" lon="4.92855">
        <ele>298</ele>
        <time>2018-06-01T09:45:12Z</time>
      </trkpt>
      <trkpt lat="45.97613" lon="4.92862">
        <ele>298</ele>
        <time>2018-06-01T09:45:13Z</time>
      </trkpt>
      <trkpt lat="45.97608" lon="4.92868">
        <ele>298</ele>
        <time>2018-06-01T09:45:14Z</time>
      </trkpt>
      <trkpt lat="45.97603" lon="4.92872">
        <ele>298</ele>
        <time>2018-06-01T09:45:15Z</time>
      </trkpt>
      <trkpt lat="45.97597" lon="4.92876">
        <ele>298</ele>
        <time>2018-06-01T09:45:16Z</time>
      </trkpt>
      <trkpt lat="45.97593" lon="4.92884">
        <ele>298</ele>
        <time>2018-06-01T09:45:17Z</time>
      </trkpt>
      <trkpt lat="45.9759" lon="4.9289">
        <ele>298</ele>
        <time>2018-06-01T09:45:18Z</time>
      </trkpt>
      <trkpt lat="45.97584" lon="4.92895">
        <ele>298</ele>
        <time>2018-06-01T09:45:19Z</time>
      </trkpt>
      <trkpt lat="45.9758" lon="4.929">
        <ele>298</ele>
        <time>2018-06-01T09:45:20Z</time>
      </trkpt>
      <trkpt lat="45.97574" lon="4.92907">
        <ele>298</ele>
        <time>2018-06-01T09:45:21Z</time>
      </trkpt>
      <trkpt lat="45.9757" lon="4.92915">
        <ele>298</ele>
        <time>2018-06-01T09:45:22Z</time>
      </trkpt>
      <trkpt lat="45.97565" lon="4.92923">
        <ele>298</ele>
        <time>2018-06-01T09:45:23Z</time>
      </trkpt>
      <trkpt lat="45.9756" lon="4.92928">
        <ele>298</ele>
        <time>2018-06-01T09:45:24Z</time>
      </trkpt>
      <trkpt lat="45.97555" lon="4.92937">
        <ele>299</ele>
        <time>2018-06-01T09:45:25Z</time>
      </trkpt>
      <trkpt lat="45.9755" lon="4.92944">
        <ele>299</ele>
        <time>2018-06-01T09:45:26Z</time>
      </trkpt>
      <trkpt lat="45.97545" lon="4.92949">
        <ele>299</ele>
        <time>2018-06-01T09:45:27Z</time>
      </trkpt>
      <trkpt lat="45.9754" lon="4.92955">
        <ele>299</ele>
        <time>2018-06-01T09:45:28Z</time>
      </trkpt>
      <trkpt lat="45.97534" lon="4.92961">
        <ele>299</ele>
        <time>2018-06-01T09:45:29Z</time>
      </trkpt>
      <trkpt lat="45.97529" lon="4.92967">
        <ele>299</ele>
        <time>2018-06-01T09:45:30Z</time>
      </trkpt>
      <trkpt lat="45.97525" lon="4.92976">
        <ele>299</ele>
        <time>2018-06-01T09:45:31Z</time>
      </trkpt>
      <trkpt lat="45.9752" lon="4.92983">
        <ele>299</ele>
        <time>2018-06-01T09:45:32Z</time>
      </trkpt>
      <trkpt lat="45.97516" lon="4.92988">
        <ele>299</ele>
        <time>2018-06-01T09:45:33Z</time>
      </trkpt>
      <trkpt lat="45.9751" lon="4.92993">
        <ele>299</ele>
        <time>2018-06-01T09:45:34Z</time>
      </trkpt>
      <trkpt lat="45.97505" lon="4.92999">
        <ele>299</ele>
        <time>2018-06-01T09:45:35Z</time>
      </trkpt>
      <trkpt lat="45.97501" lon="4.93004">
        <ele>299</ele>
        <time>2018-06-01T09:45:36Z</time>
      </trkpt>
      <trkpt lat="45.97497" lon="4.9301">
        <ele>299</ele>
        <time>2018-06-01T09:45:37Z</time>
      </trkpt>
      <trkpt lat="45.97489" lon="4.93011">
        <ele>299</ele>
        <time>2018-06-01T09:45:38Z</time>
      </trkpt>
      <trkpt lat="45.97483" lon="4.93017">
        <ele>299</ele>
        <time>2018-06-01T09:45:39Z</time>
      </trkpt>
      <trkpt lat="45.97478" lon="4.93025">
        <ele>299</ele>
        <time>2018-06-01T09:45:40Z</time>
      </trkpt>
      <trkpt lat="45.97473" lon="4.93031">
        <ele>299</ele>
        <time>2018-06-01T09:45:41Z</time>
      </trkpt>
      <trkpt lat="45.97468" lon="4.93036">
        <ele>299</ele>
        <time>2018-06-01T09:45:42Z</time>
      </trkpt>
      <trkpt lat="45.97463" lon="4.93043">
        <ele>299</ele>
        <time>2018-06-01T09:45:43Z</time>
      </trkpt>
      <trkpt lat="45.97459" lon="4.93053">
        <ele>299</ele>
        <time>2018-06-01T09:45:44Z</time>
      </trkpt>
      <trkpt lat="45.97453" lon="4.93056">
        <ele>299</ele>
        <time>2018-06-01T09:45:45Z</time>
      </trkpt>
      <trkpt lat="45.97449" lon="4.93063">
        <ele>299</ele>
        <time>2018-06-01T09:45:46Z</time>
      </trkpt>
      <trkpt lat="45.97444" lon="4.93071">
        <ele>299</ele>
        <time>2018-06-01T09:45:47Z</time>
      </trkpt>
      <trkpt lat="45.97442" lon="4.93081">
        <ele>299</ele>
        <time>2018-06-01T09:45:48Z</time>
      </trkpt>
      <trkpt lat="45.97437" lon="4.93087">
        <ele>299</ele>
        <time>2018-06-01T09:45:49Z</time>
      </trkpt>
      <trkpt lat="45.97432" lon="4.93091">
        <ele>299</ele>
        <time>2018-06-01T09:45:50Z</time>
      </trkpt>
      <trkpt lat="45.97427" lon="4.93095">
        <ele>299</ele>
        <time>2018-06-01T09:45:51Z</time>
      </trkpt>
      <trkpt lat="45.97423" lon="4.93104">
        <ele>299</ele>
        <time>2018-06-01T09:45:52Z</time>
      </trkpt>
      <trkpt lat="45.97419" lon="4.93111">
        <ele>299</ele>
        <time>2018-06-01T09:45:53Z</time>
      </trkpt>
      <trkpt lat="45.97414" lon="4.93115">
        <ele>300</ele>
        <time>2018-06-01T09:45:54Z</time>
      </trkpt>
      <trkpt lat="45.97408" lon="4.93121">
        <ele>300</ele>
        <time>2018-06-01T09:45:55Z</time>
      </trkpt>
      <trkpt lat="45.97404" lon="4.93127">
        <ele>300</ele>
        <time>2018-06-01T09:45:56Z</time>
      </trkpt>
      <trkpt lat="45.97397" lon="4.93129">
        <ele>300</ele>
        <time>2018-06-01T09:45:57Z</time>
      </trkpt>
      <trkpt lat="45.97393" lon="4.93135">
        <ele>300</ele>
        <time>2018-06-01T09:45:58Z</time>
      </trkpt>
      <trkpt lat="45.97389" lon="4.93141">
        <ele>300</ele>
        <time>2018-06-01T09:45:59Z</time>
      </trkpt>
      <trkpt lat="45.97384" lon="4.93149">
        <ele>300</ele>
        <time>2018-06-01T09:46:00Z</time>
      </trkpt>
      <trkpt lat="45.9738" lon="4.93155">
        <ele>300</ele>
        <time>2018-06-01T09:46:01Z</time>
      </trkpt>
      <trkpt lat="45.97375" lon="4.93158">
        <ele>300</ele>
        <time>2018-06-01T09:46:02Z</time>
      </trkpt>
      <trkpt lat="45.9737" lon="4.93163">
        <ele>300</ele>
        <time>2018-06-01T09:46:03Z</time>
      </trkpt>
      <trkpt lat="45.97366" lon="4.93169">
        <ele>301</ele>
        <time>2018-06-01T09:46:04Z</time>
      </trkpt>
      <trkpt lat="45.97361" lon="4.93174">
        <ele>301</ele>
        <time>2018-06-01T09:46:05Z</time>
      </trkpt>
      <trkpt lat="45.97357" lon="4.93179">
        <ele>301</ele>
        <time>2018-06-01T09:46:06Z</time>
      </trkpt>
      <trkpt lat="45.97352" lon="4.93186">
        <ele>301</ele>
        <time>2018-06-01T09:46:07Z</time>
      </trkpt>
      <trkpt lat="45.97346" lon="4.93189">
        <ele>301</ele>
        <time>2018-06-01T09:46:08Z</time>
      </trkpt>
      <trkpt lat="45.97342" lon="4.93194">
        <ele>301</ele>
        <time>2018-06-01T09:46:09Z</time>
      </trkpt>
      <trkpt lat="45.97337" lon="4.93199">
        <ele>301</ele>
        <time>2018-06-01T09:46:10Z</time>
      </trkpt>
      <trkpt lat="45.97331" lon="4.93204">
        <ele>301</ele>
        <time>2018-06-01T09:46:11Z</time>
      </trkpt>
      <trkpt lat="45.97326" lon="4.93209">
        <ele>302</ele>
        <time>2018-06-01T09:46:12Z</time>
      </trkpt>
      <trkpt lat="45.97321" lon="4.93216">
        <ele>302</ele>
        <time>2018-06-01T09:46:13Z</time>
      </trkpt>
      <trkpt lat="45.97316" lon="4.93222">
        <ele>302</ele>
        <time>2018-06-01T09:46:14Z</time>
      </trkpt>
      <trkpt lat="45.97311" lon="4.93229">
        <ele>302</ele>
        <time>2018-06-01T09:46:15Z</time>
      </trkpt>
      <trkpt lat="45.97306" lon="4.93235">
        <ele>302</ele>
        <time>2018-06-01T09:46:16Z</time>
      </trkpt>
      <trkpt lat="45.97301" lon="4.9324">
        <ele>302</ele>
        <time>2018-06-01T09:46:17Z</time>
      </trkpt>
      <trkpt lat="45.97296" lon="4.93247">
        <ele>302</ele>
        <time>2018-06-01T09:46:18Z</time>
      </trkpt>
      <trkpt lat="45.97288" lon="4.9325">
        <ele>302</ele>
        <time>2018-06-01T09:46:19Z</time>
      </trkpt>
      <trkpt lat="45.97284" lon="4.93256">
        <ele>302</ele>
        <time>2018-06-01T09:46:20Z</time>
      </trkpt>
      <trkpt lat="45.9728" lon="4.93262">
        <ele>302</ele>
        <time>2018-06-01T09:46:21Z</time>
      </trkpt>
      <trkpt lat="45.97276" lon="4.93267">
        <ele>302</ele>
        <time>2018-06-01T09:46:22Z</time>
      </trkpt>
      <trkpt lat="45.97271" lon="4.93272">
        <ele>302</ele>
        <time>2018-06-01T09:46:23Z</time>
      </trkpt>
      <trkpt lat="45.97266" lon="4.9328">
        <ele>302</ele>
        <time>2018-06-01T09:46:24Z</time>
      </trkpt>
      <trkpt lat="45.97262" lon="4.93287">
        <ele>302</ele>
        <time>2018-06-01T09:46:25Z</time>
      </trkpt>
      <trkpt lat="45.97255" lon="4.93296">
        <ele>302</ele>
        <time>2018-06-01T09:46:26Z</time>
      </trkpt>
      <trkpt lat="45.97251" lon="4.933">
        <ele>302</ele>
        <time>2018-06-01T09:46:27Z</time>
      </trkpt>
      <trkpt lat="45.97246" lon="4.93305">
        <ele>300</ele>
        <time>2018-06-01T09:46:28Z</time>
      </trkpt>
      <trkpt lat="45.97242" lon="4.93313">
        <ele>301</ele>
        <time>2018-06-01T09:46:29Z</time>
      </trkpt>
      <trkpt lat="45.97238" lon="4.93321">
        <ele>301</ele>
        <time>2018-06-01T09:46:30Z</time>
      </trkpt>
      <trkpt lat="45.97233" lon="4.93326">
        <ele>301</ele>
        <time>2018-06-01T09:46:31Z</time>
      </trkpt>
      <trkpt lat="45.97229" lon="4.93332">
        <ele>301</ele>
        <time>2018-06-01T09:46:32Z</time>
      </trkpt>
      <trkpt lat="45.97225" lon="4.93337">
        <ele>301</ele>
        <time>2018-06-01T09:46:33Z</time>
      </trkpt>
      <trkpt lat="45.97219" lon="4.93342">
        <ele>301</ele>
        <time>2018-06-01T09:46:34Z</time>
      </trkpt>
      <trkpt lat="45.97215" lon="4.93348">
        <ele>301</ele>
        <time>2018-06-01T09:46:35Z</time>
      </trkpt>
      <trkpt lat="45.9721" lon="4.93354">
        <ele>301</ele>
        <time>2018-06-01T09:46:36Z</time>
      </trkpt>
      <trkpt lat="45.97206" lon="4.93359">
        <ele>301</ele>
        <time>2018-06-01T09:46:37Z</time>
      </trkpt>
      <trkpt lat="45.97201" lon="4.93365">
        <ele>301</ele>
        <time>2018-06-01T09:46:38Z</time>
      </trkpt>
      <trkpt lat="45.97197" lon="4.93372">
        <ele>301</ele>
        <time>2018-06-01T09:46:39Z</time>
      </trkpt>
      <trkpt lat="45.97192" lon="4.93377">
        <ele>301</ele>
        <time>2018-06-01T09:46:40Z</time>
      </trkpt>
      <trkpt lat="45.97188" lon="4.93381">
        <ele>301</ele>
        <time>2018-06-01T09:46:41Z</time>
      </trkpt>
      <trkpt lat="45.97183" lon="4.93387">
        <ele>301</ele>
        <time>2018-06-01T09:46:42Z</time>
      </trkpt>
      <trkpt lat="45.97179" lon="4.93394">
        <ele>301</ele>
        <time>2018-06-01T09:46:43Z</time>
      </trkpt>
      <trkpt lat="45.97174" lon="4.93399">
        <ele>302</ele>
        <time>2018-06-01T09:46:44Z</time>
      </trkpt>
      <trkpt lat="45.97168" lon="4.93405">
        <ele>302</ele>
        <time>2018-06-01T09:46:45Z</time>
      </trkpt>
      <trkpt lat="45.97163" lon="4.9341">
        <ele>302</ele>
        <time>2018-06-01T09:46:46Z</time>
      </trkpt>
      <trkpt lat="45.97158" lon="4.93415">
        <ele>301</ele>
        <time>2018-06-01T09:46:47Z</time>
      </trkpt>
      <trkpt lat="45.97154" lon="4.93419">
        <ele>302</ele>
        <time>2018-06-01T09:46:48Z</time>
      </trkpt>
      <trkpt lat="45.9715" lon="4.93423">
        <ele>302</ele>
        <time>2018-06-01T09:46:49Z</time>
      </trkpt>
      <trkpt lat="45.97148" lon="4.93431">
        <ele>302</ele>
        <time>2018-06-01T09:46:50Z</time>
      </trkpt>
      <trkpt lat="45.97144" lon="4.93436">
        <ele>301</ele>
        <time>2018-06-01T09:46:51Z</time>
      </trkpt>
      <trkpt lat="45.9714" lon="4.9344">
        <ele>301</ele>
        <time>2018-06-01T09:46:52Z</time>
      </trkpt>
      <trkpt lat="45.97135" lon="4.93446">
        <ele>301</ele>
        <time>2018-06-01T09:46:53Z</time>
      </trkpt>
      <trkpt lat="45.97132" lon="4.93452">
        <ele>301</ele>
        <time>2018-06-01T09:46:54Z</time>
      </trkpt>
      <trkpt lat="45.97129" lon="4.93459">
        <ele>301</ele>
        <time>2018-06-01T09:46:55Z</time>
      </trkpt>
      <trkpt lat="45.97125" lon="4.93464">
        <ele>301</ele>
        <time>2018-06-01T09:46:56Z</time>
      </trkpt>
      <trkpt lat="45.9712" lon="4.93468">
        <ele>301</ele>
        <time>2018-06-01T09:46:57Z</time>
      </trkpt>
      <trkpt lat="45.97116" lon="4.93471">
        <ele>301</ele>
        <time>2018-06-01T09:46:58Z</time>
      </trkpt>
      <trkpt lat="45.97113" lon="4.93479">
        <ele>301</ele>
        <time>2018-06-01T09:46:59Z</time>
      </trkpt>
      <trkpt lat="45.97107" lon="4.93485">
        <ele>301</ele>
        <time>2018-06-01T09:47:00Z</time>
      </trkpt>
      <trkpt lat="45.97102" lon="4.93489">
        <ele>301</ele>
        <time>2018-06-01T09:47:01Z</time>
      </trkpt>
      <trkpt lat="45.97097" lon="4.93493">
        <ele>301</ele>
        <time>2018-06-01T09:47:02Z</time>
      </trkpt>
      <trkpt lat="45.9709" lon="4.93498">
        <ele>300</ele>
        <time>2018-06-01T09:47:03Z</time>
      </trkpt>
      <trkpt lat="45.97084" lon="4.935">
        <ele>300</ele>
        <time>2018-06-01T09:47:04Z</time>
      </trkpt>
      <trkpt lat="45.97078" lon="4.93505">
        <ele>300</ele>
        <time>2018-06-01T09:47:05Z</time>
      </trkpt>
      <trkpt lat="45.97075" lon="4.93512">
        <ele>300</ele>
        <time>2018-06-01T09:47:06Z</time>
      </trkpt>
      <trkpt lat="45.97069" lon="4.93516">
        <ele>299</ele>
        <time>2018-06-01T09:47:07Z</time>
      </trkpt>
      <trkpt lat="45.97064" lon="4.93522">
        <ele>299</ele>
        <time>2018-06-01T09:47:08Z</time>
      </trkpt>
      <trkpt lat="45.97059" lon="4.93526">
        <ele>299</ele>
        <time>2018-06-01T09:47:09Z</time>
      </trkpt>
      <trkpt lat="45.97053" lon="4.93533">
        <ele>299</ele>
        <time>2018-06-01T09:47:10Z</time>
      </trkpt>
      <trkpt lat="45.97048" lon="4.93537">
        <ele>299</ele>
        <time>2018-06-01T09:47:11Z</time>
      </trkpt>
      <trkpt lat="45.97044" lon="4.93546">
        <ele>299</ele>
        <time>2018-06-01T09:47:12Z</time>
      </trkpt>
      <trkpt lat="45.9704" lon="4.93553">
        <ele>299</ele>
        <time>2018-06-01T09:47:13Z</time>
      </trkpt>
      <trkpt lat="45.97035" lon="4.93559">
        <ele>299</ele>
        <time>2018-06-01T09:47:14Z</time>
      </trkpt>
      <trkpt lat="45.9703" lon="4.93566">
        <ele>299</ele>
        <time>2018-06-01T09:47:15Z</time>
      </trkpt>
      <trkpt lat="45.97026" lon="4.93572">
        <ele>299</ele>
        <time>2018-06-01T09:47:16Z</time>
      </trkpt>
      <trkpt lat="45.97022" lon="4.93578">
        <ele>299</ele>
        <time>2018-06-01T09:47:17Z</time>
      </trkpt>
      <trkpt lat="45.97017" lon="4.93583">
        <ele>299</ele>
        <time>2018-06-01T09:47:18Z</time>
      </trkpt>
      <trkpt lat="45.97012" lon="4.93589">
        <ele>299</ele>
        <time>2018-06-01T09:47:19Z</time>
      </trkpt>
      <trkpt lat="45.97007" lon="4.93597">
        <ele>299</ele>
        <time>2018-06-01T09:47:20Z</time>
      </trkpt>
      <trkpt lat="45.97004" lon="4.93605">
        <ele>300</ele>
        <time>2018-06-01T09:47:21Z</time>
      </trkpt>
      <trkpt lat="45.96998" lon="4.93612">
        <ele>299</ele>
        <time>2018-06-01T09:47:22Z</time>
      </trkpt>
      <trkpt lat="45.96992" lon="4.93616">
        <ele>299</ele>
        <time>2018-06-01T09:47:23Z</time>
      </trkpt>
      <trkpt lat="45.96987" lon="4.93621">
        <ele>299</ele>
        <time>2018-06-01T09:47:24Z</time>
      </trkpt>
      <trkpt lat="45.96983" lon="4.93629">
        <ele>299</ele>
        <time>2018-06-01T09:47:25Z</time>
      </trkpt>
      <trkpt lat="45.96978" lon="4.93635">
        <ele>299</ele>
        <time>2018-06-01T09:47:26Z</time>
      </trkpt>
      <trkpt lat="45.96972" lon="4.9364">
        <ele>299</ele>
        <time>2018-06-01T09:47:27Z</time>
      </trkpt>
      <trkpt lat="45.96967" lon="4.93643">
        <ele>299</ele>
        <time>2018-06-01T09:47:28Z</time>
      </trkpt>
      <trkpt lat="45.96963" lon="4.93652">
        <ele>299</ele>
        <time>2018-06-01T09:47:29Z</time>
      </trkpt>
      <trkpt lat="45.96958" lon="4.9366">
        <ele>299</ele>
        <time>2018-06-01T09:47:30Z</time>
      </trkpt>
      <trkpt lat="45.96952" lon="4.93664">
        <ele>299</ele>
        <time>2018-06-01T09:47:31Z</time>
      </trkpt>
      <trkpt lat="45.96946" lon="4.9367">
        <ele>298</ele>
        <time>2018-06-01T09:47:32Z</time>
      </trkpt>
      <trkpt lat="45.9694" lon="4.93676">
        <ele>298</ele>
        <time>2018-06-01T09:47:33Z</time>
      </trkpt>
      <trkpt lat="45.96936" lon="4.93684">
        <ele>298</ele>
        <time>2018-06-01T09:47:34Z</time>
      </trkpt>
      <trkpt lat="45.96931" lon="4.9369">
        <ele>298</ele>
        <time>2018-06-01T09:47:35Z</time>
      </trkpt>
      <trkpt lat="45.96924" lon="4.93697">
        <ele>298</ele>
        <time>2018-06-01T09:47:36Z</time>
      </trkpt>
      <trkpt lat="45.96918" lon="4.93705">
        <ele>298</ele>
        <time>2018-06-01T09:47:37Z</time>
      </trkpt>
      <trkpt lat="45.96913" lon="4.93712">
        <ele>297</ele>
        <time>2018-06-01T09:47:38Z</time>
      </trkpt>
      <trkpt lat="45.96907" lon="4.93717">
        <ele>297</ele>
        <time>2018-06-01T09:47:39Z</time>
      </trkpt>
      <trkpt lat="45.969" lon="4.9372">
        <ele>297</ele>
        <time>2018-06-01T09:47:40Z</time>
      </trkpt>
      <trkpt lat="45.96894" lon="4.93724">
        <ele>297</ele>
        <time>2018-06-01T09:47:41Z</time>
      </trkpt>
      <trkpt lat="45.96886" lon="4.93727">
        <ele>297</ele>
        <time>2018-06-01T09:47:42Z</time>
      </trkpt>
      <trkpt lat="45.96879" lon="4.93731">
        <ele>297</ele>
        <time>2018-06-01T09:47:43Z</time>
      </trkpt>
      <trkpt lat="45.96872" lon="4.93735">
        <ele>297</ele>
        <time>2018-06-01T09:47:44Z</time>
      </trkpt>
      <trkpt lat="45.96865" lon="4.93737">
        <ele>297</ele>
        <time>2018-06-01T09:47:45Z</time>
      </trkpt>
      <trkpt lat="45.96858" lon="4.9374">
        <ele>297</ele>
        <time>2018-06-01T09:47:46Z</time>
      </trkpt>
      <trkpt lat="45.96851" lon="4.93742">
        <ele>297</ele>
        <time>2018-06-01T09:47:47Z</time>
      </trkpt>
      <trkpt lat="45.96844" lon="4.93746">
        <ele>296</ele>
        <time>2018-06-01T09:47:48Z</time>
      </trkpt>
      <trkpt lat="45.96838" lon="4.93751">
        <ele>296</ele>
        <time>2018-06-01T09:47:49Z</time>
      </trkpt>
      <trkpt lat="45.96831" lon="4.93754">
        <ele>296</ele>
        <time>2018-06-01T09:47:50Z</time>
      </trkpt>
      <trkpt lat="45.96823" lon="4.93754">
        <ele>296</ele>
        <time>2018-06-01T09:47:51Z</time>
      </trkpt>
      <trkpt lat="45.96816" lon="4.93756">
        <ele>296</ele>
        <time>2018-06-01T09:47:52Z</time>
      </trkpt>
      <trkpt lat="45.96809" lon="4.93757">
        <ele>295</ele>
        <time>2018-06-01T09:47:53Z</time>
      </trkpt>
      <trkpt lat="45.96802" lon="4.9376">
        <ele>295</ele>
        <time>2018-06-01T09:47:54Z</time>
      </trkpt>
      <trkpt lat="45.96794" lon="4.93762">
        <ele>295</ele>
        <time>2018-06-01T09:47:55Z</time>
      </trkpt>
      <trkpt lat="45.96786" lon="4.93764">
        <ele>295</ele>
        <time>2018-06-01T09:47:56Z</time>
      </trkpt>
      <trkpt lat="45.9678" lon="4.93767">
        <ele>295</ele>
        <time>2018-06-01T09:47:57Z</time>
      </trkpt>
      <trkpt lat="45.96774" lon="4.93776">
        <ele>295</ele>
        <time>2018-06-01T09:47:58Z</time>
      </trkpt>
      <trkpt lat="45.96767" lon="4.93776">
        <ele>295</ele>
        <time>2018-06-01T09:47:59Z</time>
      </trkpt>
      <trkpt lat="45.96758" lon="4.93776">
        <ele>295</ele>
        <time>2018-06-01T09:48:00Z</time>
      </trkpt>
      <trkpt lat="45.96752" lon="4.9378">
        <ele>295</ele>
        <time>2018-06-01T09:48:01Z</time>
      </trkpt>
      <trkpt lat="45.96743" lon="4.93783">
        <ele>296</ele>
        <time>2018-06-01T09:48:02Z</time>
      </trkpt>
      <trkpt lat="45.96736" lon="4.93784">
        <ele>296</ele>
        <time>2018-06-01T09:48:03Z</time>
      </trkpt>
      <trkpt lat="45.96729" lon="4.93786">
        <ele>296</ele>
        <time>2018-06-01T09:48:04Z</time>
      </trkpt>
      <trkpt lat="45.96722" lon="4.93788">
        <ele>296</ele>
        <time>2018-06-01T09:48:05Z</time>
      </trkpt>
      <trkpt lat="45.96715" lon="4.9379">
        <ele>296</ele>
        <time>2018-06-01T09:48:06Z</time>
      </trkpt>
      <trkpt lat="45.96708" lon="4.93793">
        <ele>296</ele>
        <time>2018-06-01T09:48:07Z</time>
      </trkpt>
      <trkpt lat="45.96702" lon="4.93801">
        <ele>296</ele>
        <time>2018-06-01T09:48:08Z</time>
      </trkpt>
      <trkpt lat="45.96694" lon="4.93798">
        <ele>297</ele>
        <time>2018-06-01T09:48:09Z</time>
      </trkpt>
      <trkpt lat="45.96689" lon="4.93802">
        <ele>297</ele>
        <time>2018-06-01T09:48:10Z</time>
      </trkpt>
      <trkpt lat="45.96682" lon="4.93804">
        <ele>297</ele>
        <time>2018-06-01T09:48:11Z</time>
      </trkpt>
      <trkpt lat="45.96676" lon="4.93806">
        <ele>297</ele>
        <time>2018-06-01T09:48:12Z</time>
      </trkpt>
      <trkpt lat="45.9667" lon="4.93807">
        <ele>297</ele>
        <time>2018-06-01T09:48:13Z</time>
      </trkpt>
      <trkpt lat="45.96665" lon="4.9381">
        <ele>297</ele>
        <time>2018-06-01T09:48:14Z</time>
      </trkpt>
      <trkpt lat="45.96659" lon="4.93811">
        <ele>297</ele>
        <time>2018-06-01T09:48:15Z</time>
      </trkpt>
      <trkpt lat="45.96653" lon="4.93813">
        <ele>297</ele>
        <time>2018-06-01T09:48:16Z</time>
      </trkpt>
      <trkpt lat="45.96647" lon="4.93815">
        <ele>297</ele>
        <time>2018-06-01T09:48:17Z</time>
      </trkpt>
      <trkpt lat="45.96641" lon="4.93817">
        <ele>297</ele>
        <time>2018-06-01T09:48:18Z</time>
      </trkpt>
      <trkpt lat="45.96636" lon="4.93822">
        <ele>297</ele>
        <time>2018-06-01T09:48:19Z</time>
      </trkpt>
      <trkpt lat="45.9663" lon="4.93824">
        <ele>297</ele>
        <time>2018-06-01T09:48:20Z</time>
      </trkpt>
      <trkpt lat="45.96623" lon="4.93825">
        <ele>297</ele>
        <time>2018-06-01T09:48:21Z</time>
      </trkpt>
      <trkpt lat="45.96618" lon="4.93828">
        <ele>297</ele>
        <time>2018-06-01T09:48:22Z</time>
      </trkpt>
      <trkpt lat="45.96611" lon="4.93829">
        <ele>297</ele>
        <time>2018-06-01T09:48:23Z</time>
      </trkpt>
      <trkpt lat="45.96606" lon="4.93832">
        <ele>297</ele>
        <time>2018-06-01T09:48:24Z</time>
      </trkpt>
      <trkpt lat="45.966" lon="4.93835">
        <ele>296</ele>
        <time>2018-06-01T09:48:25Z</time>
      </trkpt>
      <trkpt lat="45.96594" lon="4.93837">
        <ele>296</ele>
        <time>2018-06-01T09:48:26Z</time>
      </trkpt>
      <trkpt lat="45.9659" lon="4.93837">
        <ele>296</ele>
        <time>2018-06-01T09:48:27Z</time>
      </trkpt>
      <trkpt lat="45.9658" lon="4.93836">
        <ele>296</ele>
        <time>2018-06-01T09:48:28Z</time>
      </trkpt>
      <trkpt lat="45.96574" lon="4.93838">
        <ele>296</ele>
        <time>2018-06-01T09:48:29Z</time>
      </trkpt>
      <trkpt lat="45.96569" lon="4.93844">
        <ele>296</ele>
        <time>2018-06-01T09:48:30Z</time>
      </trkpt>
      <trkpt lat="45.96564" lon="4.93848">
        <ele>296</ele>
        <time>2018-06-01T09:48:31Z</time>
      </trkpt>
      <trkpt lat="45.96558" lon="4.93852">
        <ele>296</ele>
        <time>2018-06-01T09:48:32Z</time>
      </trkpt>
      <trkpt lat="45.96552" lon="4.93855">
        <ele>296</ele>
        <time>2018-06-01T09:48:33Z</time>
      </trkpt>
      <trkpt lat="45.96545" lon="4.93855">
        <ele>296</ele>
        <time>2018-06-01T09:48:34Z</time>
      </trkpt>
      <trkpt lat="45.96538" lon="4.93858">
        <ele>296</ele>
        <time>2018-06-01T09:48:35Z</time>
      </trkpt>
      <trkpt lat="45.96531" lon="4.93859">
        <ele>296</ele>
        <time>2018-06-01T09:48:36Z</time>
      </trkpt>
      <trkpt lat="45.96523" lon="4.9386">
        <ele>296</ele>
        <time>2018-06-01T09:48:37Z</time>
      </trkpt>
      <trkpt lat="45.96517" lon="4.93862">
        <ele>296</ele>
        <time>2018-06-01T09:48:38Z</time>
      </trkpt>
      <trkpt lat="45.9651" lon="4.93864">
        <ele>296</ele>
        <time>2018-06-01T09:48:39Z</time>
      </trkpt>
      <trkpt lat="45.96504" lon="4.93867">
        <ele>296</ele>
        <time>2018-06-01T09:48:40Z</time>
      </trkpt>
      <trkpt lat="45.96499" lon="4.93871">
        <ele>296</ele>
        <time>2018-06-01T09:48:41Z</time>
      </trkpt>
      <trkpt lat="45.96495" lon="4.93875">
        <ele>295</ele>
        <time>2018-06-01T09:48:42Z</time>
      </trkpt>
      <trkpt lat="45.96486" lon="4.93872">
        <ele>296</ele>
        <time>2018-06-01T09:48:43Z</time>
      </trkpt>
      <trkpt lat="45.9648" lon="4.93875">
        <ele>295</ele>
        <time>2018-06-01T09:48:44Z</time>
      </trkpt>
      <trkpt lat="45.96473" lon="4.93878">
        <ele>295</ele>
        <time>2018-06-01T09:48:45Z</time>
      </trkpt>
      <trkpt lat="45.96467" lon="4.93878">
        <ele>295</ele>
        <time>2018-06-01T09:48:46Z</time>
      </trkpt>
      <trkpt lat="45.96461" lon="4.9388">
        <ele>295</ele>
        <time>2018-06-01T09:48:47Z</time>
      </trkpt>
      <trkpt lat="45.96455" lon="4.93881">
        <ele>296</ele>
        <time>2018-06-01T09:48:48Z</time>
      </trkpt>
      <trkpt lat="45.9645" lon="4.93885">
        <ele>296</ele>
        <time>2018-06-01T09:48:49Z</time>
      </trkpt>
      <trkpt lat="45.96444" lon="4.93886">
        <ele>296</ele>
        <time>2018-06-01T09:48:50Z</time>
      </trkpt>
      <trkpt lat="45.96437" lon="4.93887">
        <ele>296</ele>
        <time>2018-06-01T09:48:51Z</time>
      </trkpt>
      <trkpt lat="45.96432" lon="4.93895">
        <ele>296</ele>
        <time>2018-06-01T09:48:52Z</time>
      </trkpt>
      <trkpt lat="45.96428" lon="4.93898">
        <ele>296</ele>
        <time>2018-06-01T09:48:53Z</time>
      </trkpt>
      <trkpt lat="45.96421" lon="4.939">
        <ele>296</ele>
        <time>2018-06-01T09:48:54Z</time>
      </trkpt>
      <trkpt lat="45.96414" lon="4.93901">
        <ele>295</ele>
        <time>2018-06-01T09:48:55Z</time>
      </trkpt>
      <trkpt lat="45.96408" lon="4.93903">
        <ele>295</ele>
        <time>2018-06-01T09:48:56Z</time>
      </trkpt>
      <trkpt lat="45.96401" lon="4.93905">
        <ele>295</ele>
        <time>2018-06-01T09:48:57Z</time>
      </trkpt>
      <trkpt lat="45.96395" lon="4.9391">
        <ele>295</ele>
        <time>2018-06-01T09:48:58Z</time>
      </trkpt>
      <trkpt lat="45.96388" lon="4.9391">
        <ele>294</ele>
        <time>2018-06-01T09:48:59Z</time>
      </trkpt>
      <trkpt lat="45.96383" lon="4.93911">
        <ele>294</ele>
        <time>2018-06-01T09:49:00Z</time>
      </trkpt>
      <trkpt lat="45.96378" lon="4.93913">
        <ele>294</ele>
        <time>2018-06-01T09:49:01Z</time>
      </trkpt>
      <trkpt lat="45.96371" lon="4.93915">
        <ele>294</ele>
        <time>2018-06-01T09:49:02Z</time>
      </trkpt>
      <trkpt lat="45.96364" lon="4.93917">
        <ele>294</ele>
        <time>2018-06-01T09:49:03Z</time>
      </trkpt>
      <trkpt lat="45.96357" lon="4.93918">
        <ele>294</ele>
        <time>2018-06-01T09:49:04Z</time>
      </trkpt>
      <trkpt lat="45.9635" lon="4.93921">
        <ele>293</ele>
        <time>2018-06-01T09:49:05Z</time>
      </trkpt>
      <trkpt lat="45.96344" lon="4.93924">
        <ele>293</ele>
        <time>2018-06-01T09:49:06Z</time>
      </trkpt>
      <trkpt lat="45.96338" lon="4.93925">
        <ele>293</ele>
        <time>2018-06-01T09:49:07Z</time>
      </trkpt>
      <trkpt lat="45.96331" lon="4.93927">
        <ele>292</ele>
        <time>2018-06-01T09:49:08Z</time>
      </trkpt>
      <trkpt lat="45.96326" lon="4.93929">
        <ele>292</ele>
        <time>2018-06-01T09:49:09Z</time>
      </trkpt>
      <trkpt lat="45.9632" lon="4.93931">
        <ele>292</ele>
        <time>2018-06-01T09:49:10Z</time>
      </trkpt>
      <trkpt lat="45.96314" lon="4.93937">
        <ele>292</ele>
        <time>2018-06-01T09:49:11Z</time>
      </trkpt>
      <trkpt lat="45.96307" lon="4.93939">
        <ele>292</ele>
        <time>2018-06-01T09:49:12Z</time>
      </trkpt>
      <trkpt lat="45.963" lon="4.93942">
        <ele>292</ele>
        <time>2018-06-01T09:49:13Z</time>
      </trkpt>
      <trkpt lat="45.96293" lon="4.93945">
        <ele>292</ele>
        <time>2018-06-01T09:49:14Z</time>
      </trkpt>
      <trkpt lat="45.96287" lon="4.93947">
        <ele>292</ele>
        <time>2018-06-01T09:49:15Z</time>
      </trkpt>
      <trkpt lat="45.96279" lon="4.93949">
        <ele>291</ele>
        <time>2018-06-01T09:49:16Z</time>
      </trkpt>
      <trkpt lat="45.96272" lon="4.93952">
        <ele>291</ele>
        <time>2018-06-01T09:49:17Z</time>
      </trkpt>
      <trkpt lat="45.96266" lon="4.93955">
        <ele>291</ele>
        <time>2018-06-01T09:49:18Z</time>
      </trkpt>
      <trkpt lat="45.96261" lon="4.93961">
        <ele>291</ele>
        <time>2018-06-01T09:49:19Z</time>
      </trkpt>
      <trkpt lat="45.96255" lon="4.93965">
        <ele>291</ele>
        <time>2018-06-01T09:49:20Z</time>
      </trkpt>
      <trkpt lat="45.96249" lon="4.93967">
        <ele>290</ele>
        <time>2018-06-01T09:49:21Z</time>
      </trkpt>
      <trkpt lat="45.96242" lon="4.93971">
        <ele>290</ele>
        <time>2018-06-01T09:49:22Z</time>
      </trkpt>
      <trkpt lat="45.96236" lon="4.93975">
        <ele>290</ele>
        <time>2018-06-01T09:49:23Z</time>
      </trkpt>
      <trkpt lat="45.9623" lon="4.93982">
        <ele>290</ele>
        <time>2018-06-01T09:49:24Z</time>
      </trkpt>
      <trkpt lat="45.96224" lon="4.93985">
        <ele>290</ele>
        <time>2018-06-01T09:49:25Z</time>
      </trkpt>
      <trkpt lat="45.96218" lon="4.9399">
        <ele>290</ele>
        <time>2018-06-01T09:49:26Z</time>
      </trkpt>
      <trkpt lat="45.96212" lon="4.93995">
        <ele>290</ele>
        <time>2018-06-01T09:49:27Z</time>
      </trkpt>
      <trkpt lat="45.96208" lon="4.94002">
        <ele>290</ele>
        <time>2018-06-01T09:49:28Z</time>
      </trkpt>
      <trkpt lat="45.96202" lon="4.94005">
        <ele>290</ele>
        <time>2018-06-01T09:49:29Z</time>
      </trkpt>
      <trkpt lat="45.96197" lon="4.94008">
        <ele>290</ele>
        <time>2018-06-01T09:49:30Z</time>
      </trkpt>
      <trkpt lat="45.96191" lon="4.94013">
        <ele>290</ele>
        <time>2018-06-01T09:49:31Z</time>
      </trkpt>
      <trkpt lat="45.96186" lon="4.94018">
        <ele>290</ele>
        <time>2018-06-01T09:49:32Z</time>
      </trkpt>
      <trkpt lat="45.96183" lon="4.94027">
        <ele>290</ele>
        <time>2018-06-01T09:49:33Z</time>
      </trkpt>
      <trkpt lat="45.96177" lon="4.94032">
        <ele>290</ele>
        <time>2018-06-01T09:49:34Z</time>
      </trkpt>
      <trkpt lat="45.96171" lon="4.94035">
        <ele>290</ele>
        <time>2018-06-01T09:49:35Z</time>
      </trkpt>
      <trkpt lat="45.96165" lon="4.94039">
        <ele>290</ele>
        <time>2018-06-01T09:49:36Z</time>
      </trkpt>
      <trkpt lat="45.96157" lon="4.94043">
        <ele>290</ele>
        <time>2018-06-01T09:49:37Z</time>
      </trkpt>
      <trkpt lat="45.96151" lon="4.94048">
        <ele>290</ele>
        <time>2018-06-01T09:49:38Z</time>
      </trkpt>
      <trkpt lat="45.96146" lon="4.94053">
        <ele>290</ele>
        <time>2018-06-01T09:49:39Z</time>
      </trkpt>
      <trkpt lat="45.96141" lon="4.94056">
        <ele>290</ele>
        <time>2018-06-01T09:49:40Z</time>
      </trkpt>
      <trkpt lat="45.96135" lon="4.9406">
        <ele>290</ele>
        <time>2018-06-01T09:49:41Z</time>
      </trkpt>
      <trkpt lat="45.9613" lon="4.94067">
        <ele>290</ele>
        <time>2018-06-01T09:49:42Z</time>
      </trkpt>
      <trkpt lat="45.96127" lon="4.94074">
        <ele>290</ele>
        <time>2018-06-01T09:49:43Z</time>
      </trkpt>
      <trkpt lat="45.9612" lon="4.94078">
        <ele>291</ele>
        <time>2018-06-01T09:49:44Z</time>
      </trkpt>
      <trkpt lat="45.96114" lon="4.94082">
        <ele>291</ele>
        <time>2018-06-01T09:49:45Z</time>
      </trkpt>
      <trkpt lat="45.96108" lon="4.94086">
        <ele>291</ele>
        <time>2018-06-01T09:49:46Z</time>
      </trkpt>
      <trkpt lat="45.96102" lon="4.9409">
        <ele>291</ele>
        <time>2018-06-01T09:49:47Z</time>
      </trkpt>
      <trkpt lat="45.96099" lon="4.94104">
        <ele>291</ele>
        <time>2018-06-01T09:49:48Z</time>
      </trkpt>
      <trkpt lat="45.96092" lon="4.94107">
        <ele>291</ele>
        <time>2018-06-01T09:49:49Z</time>
      </trkpt>
      <trkpt lat="45.96087" lon="4.94112">
        <ele>291</ele>
        <time>2018-06-01T09:49:50Z</time>
      </trkpt>
      <trkpt lat="45.96083" lon="4.94118">
        <ele>291</ele>
        <time>2018-06-01T09:49:51Z</time>
      </trkpt>
      <trkpt lat="45.96077" lon="4.94121">
        <ele>291</ele>
        <time>2018-06-01T09:49:52Z</time>
      </trkpt>
      <trkpt lat="45.9607" lon="4.94124">
        <ele>291</ele>
        <time>2018-06-01T09:49:53Z</time>
      </trkpt>
      <trkpt lat="45.96065" lon="4.94127">
        <ele>291</ele>
        <time>2018-06-01T09:49:54Z</time>
      </trkpt>
      <trkpt lat="45.96059" lon="4.94131">
        <ele>291</ele>
        <time>2018-06-01T09:49:55Z</time>
      </trkpt>
      <trkpt lat="45.96054" lon="4.94133">
        <ele>291</ele>
        <time>2018-06-01T09:49:56Z</time>
      </trkpt>
      <trkpt lat="45.96047" lon="4.94135">
        <ele>291</ele>
        <time>2018-06-01T09:49:57Z</time>
      </trkpt>
      <trkpt lat="45.9604" lon="4.94137">
        <ele>291</ele>
        <time>2018-06-01T09:49:58Z</time>
      </trkpt>
      <trkpt lat="45.96032" lon="4.94137">
        <ele>291</ele>
        <time>2018-06-01T09:49:59Z</time>
      </trkpt>
      <trkpt lat="45.96023" lon="4.94129">
        <ele>291</ele>
        <time>2018-06-01T09:50:00Z</time>
      </trkpt>
      <trkpt lat="45.96017" lon="4.94128">
        <ele>291</ele>
        <time>2018-06-01T09:50:01Z</time>
      </trkpt>
      <trkpt lat="45.96011" lon="4.94126">
        <ele>291</ele>
        <time>2018-06-01T09:50:02Z</time>
      </trkpt>
      <trkpt lat="45.96005" lon="4.94124">
        <ele>291</ele>
        <time>2018-06-01T09:50:03Z</time>
      </trkpt>
      <trkpt lat="45.96" lon="4.94122">
        <ele>291</ele>
        <time>2018-06-01T09:50:04Z</time>
      </trkpt>
      <trkpt lat="45.95994" lon="4.94122">
        <ele>291</ele>
        <time>2018-06-01T09:50:05Z</time>
      </trkpt>
      <trkpt lat="45.95987" lon="4.94121">
        <ele>292</ele>
        <time>2018-06-01T09:50:06Z</time>
      </trkpt>
      <trkpt lat="45.95981" lon="4.94118">
        <ele>292</ele>
        <time>2018-06-01T09:50:07Z</time>
      </trkpt>
      <trkpt lat="45.95975" lon="4.94117">
        <ele>292</ele>
        <time>2018-06-01T09:50:08Z</time>
      </trkpt>
      <trkpt lat="45.95967" lon="4.94114">
        <ele>292</ele>
        <time>2018-06-01T09:50:09Z</time>
      </trkpt>
      <trkpt lat="45.95962" lon="4.94112">
        <ele>292</ele>
        <time>2018-06-01T09:50:10Z</time>
      </trkpt>
      <trkpt lat="45.95955" lon="4.94111">
        <ele>292</ele>
        <time>2018-06-01T09:50:11Z</time>
      </trkpt>
      <trkpt lat="45.95949" lon="4.94109">
        <ele>292</ele>
        <time>2018-06-01T09:50:12Z</time>
      </trkpt>
      <trkpt lat="45.95944" lon="4.94108">
        <ele>292</ele>
        <time>2018-06-01T09:50:13Z</time>
      </trkpt>
      <trkpt lat="45.95939" lon="4.94104">
        <ele>292</ele>
        <time>2018-06-01T09:50:14Z</time>
      </trkpt>
      <trkpt lat="45.95935" lon="4.94099">
        <ele>292</ele>
        <time>2018-06-01T09:50:15Z</time>
      </trkpt>
      <trkpt lat="45.9593" lon="4.94098">
        <ele>292</ele>
        <time>2018-06-01T09:50:16Z</time>
      </trkpt>
      <trkpt lat="45.95924" lon="4.94098">
        <ele>292</ele>
        <time>2018-06-01T09:50:17Z</time>
      </trkpt>
      <trkpt lat="45.95919" lon="4.94097">
        <ele>292</ele>
        <time>2018-06-01T09:50:18Z</time>
      </trkpt>
      <trkpt lat="45.95915" lon="4.94094">
        <ele>293</ele>
        <time>2018-06-01T09:50:19Z</time>
      </trkpt>
      <trkpt lat="45.95909" lon="4.94092">
        <ele>293</ele>
        <time>2018-06-01T09:50:20Z</time>
      </trkpt>
      <trkpt lat="45.95904" lon="4.9409">
        <ele>293</ele>
        <time>2018-06-01T09:50:21Z</time>
      </trkpt>
      <trkpt lat="45.95898" lon="4.94089">
        <ele>293</ele>
        <time>2018-06-01T09:50:22Z</time>
      </trkpt>
      <trkpt lat="45.95893" lon="4.94089">
        <ele>293</ele>
        <time>2018-06-01T09:50:23Z</time>
      </trkpt>
      <trkpt lat="45.95888" lon="4.94088">
        <ele>293</ele>
        <time>2018-06-01T09:50:24Z</time>
      </trkpt>
      <trkpt lat="45.95883" lon="4.94087">
        <ele>293</ele>
        <time>2018-06-01T09:50:25Z</time>
      </trkpt>
      <trkpt lat="45.95878" lon="4.94086">
        <ele>293</ele>
        <time>2018-06-01T09:50:26Z</time>
      </trkpt>
      <trkpt lat="45.95873" lon="4.94084">
        <ele>293</ele>
        <time>2018-06-01T09:50:27Z</time>
      </trkpt>
      <trkpt lat="45.95869" lon="4.94086">
        <ele>293</ele>
        <time>2018-06-01T09:50:28Z</time>
      </trkpt>
      <trkpt lat="45.95864" lon="4.94085">
        <ele>293</ele>
        <time>2018-06-01T09:50:29Z</time>
      </trkpt>
      <trkpt lat="45.95859" lon="4.94083">
        <ele>293</ele>
        <time>2018-06-01T09:50:30Z</time>
      </trkpt>
      <trkpt lat="45.95854" lon="4.94079">
        <ele>293</ele>
        <time>2018-06-01T09:50:31Z</time>
      </trkpt>
      <trkpt lat="45.95849" lon="4.94075">
        <ele>293</ele>
        <time>2018-06-01T09:50:32Z</time>
      </trkpt>
      <trkpt lat="45.95844" lon="4.94072">
        <ele>293</ele>
        <time>2018-06-01T09:50:33Z</time>
      </trkpt>
      <trkpt lat="45.9584" lon="4.94069">
        <ele>293</ele>
        <time>2018-06-01T09:50:34Z</time>
      </trkpt>
      <trkpt lat="45.95835" lon="4.94068">
        <ele>293</ele>
        <time>2018-06-01T09:50:35Z</time>
      </trkpt>
      <trkpt lat="45.95831" lon="4.94068">
        <ele>294</ele>
        <time>2018-06-01T09:50:36Z</time>
      </trkpt>
      <trkpt lat="45.95826" lon="4.94066">
        <ele>294</ele>
        <time>2018-06-01T09:50:37Z</time>
      </trkpt>
      <trkpt lat="45.95821" lon="4.94066">
        <ele>294</ele>
        <time>2018-06-01T09:50:38Z</time>
      </trkpt>
      <trkpt lat="45.95816" lon="4.94065">
        <ele>294</ele>
        <time>2018-06-01T09:50:39Z</time>
      </trkpt>
      <trkpt lat="45.95811" lon="4.94064">
        <ele>294</ele>
        <time>2018-06-01T09:50:40Z</time>
      </trkpt>
      <trkpt lat="45.95804" lon="4.94065">
        <ele>294</ele>
        <time>2018-06-01T09:50:41Z</time>
      </trkpt>
      <trkpt lat="45.95798" lon="4.94065">
        <ele>294</ele>
        <time>2018-06-01T09:50:42Z</time>
      </trkpt>
      <trkpt lat="45.95792" lon="4.94063">
        <ele>294</ele>
        <time>2018-06-01T09:50:43Z</time>
      </trkpt>
      <trkpt lat="45.95787" lon="4.9406">
        <ele>294</ele>
        <time>2018-06-01T09:50:44Z</time>
      </trkpt>
      <trkpt lat="45.95783" lon="4.94061">
        <ele>294</ele>
        <time>2018-06-01T09:50:45Z</time>
      </trkpt>
      <trkpt lat="45.95777" lon="4.9406">
        <ele>294</ele>
        <time>2018-06-01T09:50:46Z</time>
      </trkpt>
      <trkpt lat="45.95772" lon="4.94058">
        <ele>294</ele>
        <time>2018-06-01T09:50:47Z</time>
      </trkpt>
      <trkpt lat="45.95767" lon="4.94058">
        <ele>294</ele>
        <time>2018-06-01T09:50:48Z</time>
      </trkpt>
      <trkpt lat="45.95762" lon="4.94056">
        <ele>294</ele>
        <time>2018-06-01T09:50:49Z</time>
      </trkpt>
      <trkpt lat="45.95756" lon="4.94055">
        <ele>294</ele>
        <time>2018-06-01T09:50:50Z</time>
      </trkpt>
      <trkpt lat="45.95751" lon="4.94055">
        <ele>294</ele>
        <time>2018-06-01T09:50:51Z</time>
      </trkpt>
      <trkpt lat="45.95746" lon="4.94055">
        <ele>295</ele>
        <time>2018-06-01T09:50:52Z</time>
      </trkpt>
      <trkpt lat="45.95739" lon="4.94053">
        <ele>295</ele>
        <time>2018-06-01T09:50:53Z</time>
      </trkpt>
      <trkpt lat="45.95734" lon="4.94051">
        <ele>295</ele>
        <time>2018-06-01T09:50:54Z</time>
      </trkpt>
      <trkpt lat="45.95728" lon="4.94049">
        <ele>295</ele>
        <time>2018-06-01T09:50:55Z</time>
      </trkpt>
      <trkpt lat="45.95723" lon="4.94047">
        <ele>295</ele>
        <time>2018-06-01T09:50:56Z</time>
      </trkpt>
      <trkpt lat="45.95717" lon="4.94045">
        <ele>295</ele>
        <time>2018-06-01T09:50:57Z</time>
      </trkpt>
      <trkpt lat="45.95712" lon="4.94043">
        <ele>295</ele>
        <time>2018-06-01T09:50:58Z</time>
      </trkpt>
      <trkpt lat="45.95707" lon="4.94039">
        <ele>295</ele>
        <time>2018-06-01T09:50:59Z</time>
      </trkpt>
      <trkpt lat="45.95701" lon="4.94038">
        <ele>295</ele>
        <time>2018-06-01T09:51:00Z</time>
      </trkpt>
      <trkpt lat="45.95697" lon="4.94037">
        <ele>295</ele>
        <time>2018-06-01T09:51:01Z</time>
      </trkpt>
      <trkpt lat="45.95692" lon="4.94036">
        <ele>295</ele>
        <time>2018-06-01T09:51:02Z</time>
      </trkpt>
      <trkpt lat="45.95687" lon="4.94035">
        <ele>295</ele>
        <time>2018-06-01T09:51:03Z</time>
      </trkpt>
      <trkpt lat="45.95682" lon="4.94033">
        <ele>295</ele>
        <time>2018-06-01T09:51:04Z</time>
      </trkpt>
      <trkpt lat="45.95675" lon="4.94037">
        <ele>295</ele>
        <time>2018-06-01T09:51:05Z</time>
      </trkpt>
      <trkpt lat="45.95672" lon="4.94034">
        <ele>295</ele>
        <time>2018-06-01T09:51:06Z</time>
      </trkpt>
      <trkpt lat="45.95665" lon="4.94027">
        <ele>294</ele>
        <time>2018-06-01T09:51:08Z</time>
      </trkpt>
      <trkpt lat="45.95665" lon="4.94025">
        <ele>294</ele>
        <time>2018-06-01T09:51:09Z</time>
      </trkpt>
      <trkpt lat="45.95665" lon="4.94012">
        <ele>295</ele>
        <time>2018-06-01T09:51:13Z</time>
      </trkpt>
      <trkpt lat="45.95665" lon="4.94009">
        <ele>295</ele>
        <time>2018-06-01T09:51:14Z</time>
      </trkpt>
      <trkpt lat="45.95664" lon="4.93999">
        <ele>296</ele>
        <time>2018-06-01T09:51:17Z</time>
      </trkpt>
      <trkpt lat="45.95663" lon="4.93996">
        <ele>296</ele>
        <time>2018-06-01T09:51:18Z</time>
      </trkpt>
      <trkpt lat="45.95657" lon="4.93988">
        <ele>295</ele>
        <time>2018-06-01T09:51:23Z</time>
      </trkpt>
      <trkpt lat="45.95656" lon="4.93988">
        <ele>295</ele>
        <time>2018-06-01T09:51:24Z</time>
      </trkpt>
      <trkpt lat="45.95655" lon="4.93991">
        <ele>295</ele>
        <time>2018-06-01T09:52:11Z</time>
      </trkpt>
      <trkpt lat="45.95655" lon="4.93991">
        <ele>295</ele>
        <time>2018-06-01T09:52:12Z</time>
      </trkpt>
      <trkpt lat="45.9565" lon="4.93991">
        <ele>295</ele>
        <time>2018-06-01T09:54:27Z</time>
      </trkpt>
      <trkpt lat="45.9565" lon="4.93991">
        <ele>295</ele>
        <time>2018-06-01T09:54:28Z</time>
      </trkpt>
      <trkpt lat="45.95659" lon="4.93991">
        <ele>295</ele>
        <time>2018-06-01T09:58:09Z</time>
      </trkpt>
      <trkpt lat="45.95659" lon="4.93991">
        <ele>295</ele>
        <time>2018-06-01T09:58:10Z</time>
      </trkpt>
      <trkpt lat="45.9565" lon="4.93993">
        <ele>295</ele>
        <time>2018-06-01T09:58:51Z</time>
      </trkpt>
      <trkpt lat="45.9565" lon="4.93993">
        <ele>295</ele>
        <time>2018-06-01T09:58:52Z</time>
      </trkpt>
      <trkpt lat="45.95658" lon="4.9399">
        <ele>295</ele>
        <time>2018-06-01T09:59:14Z</time>
      </trkpt>
      <trkpt lat="45.95659" lon="4.9399">
        <ele>295</ele>
        <time>2018-06-01T09:59:15Z</time>
      </trkpt>
      <trkpt lat="45.95664" lon="4.93991">
        <ele>295</ele>
        <time>2018-06-01T10:00:13Z</time>
      </trkpt>
      <trkpt lat="45.95665" lon="4.93991">
        <ele>295</ele>
        <time>2018-06-01T10:00:14Z</time>
      </trkpt>
      <trkpt lat="45.95665" lon="4.93991">
        <ele>295</ele>
        <time>2018-06-01T10:00:15Z</time>
      </trkpt>
      <trkpt lat="45.95656" lon="4.93992">
        <ele>295</ele>
        <time>2018-06-01T10:00:22Z</time>
      </trkpt>
      <trkpt lat="45.95655" lon="4.93993">
        <ele>295</ele>
        <time>2018-06-01T10:00:23Z</time>
      </trkpt>
      <trkpt lat="45.95655" lon="4.93981">
        <ele>295</ele>
        <time>2018-06-01T10:03:28Z</time>
      </trkpt>
      <trkpt lat="45.95653" lon="4.9398">
        <ele>294</ele>
        <time>2018-06-01T10:03:29Z</time>
      </trkpt>
      <trkpt lat="45.95651" lon="4.93977">
        <ele>294</ele>
        <time>2018-06-01T10:03:30Z</time>
      </trkpt>
      <trkpt lat="45.95646" lon="4.93968">
        <ele>294</ele>
        <time>2018-06-01T10:03:31Z</time>
      </trkpt>
      <trkpt lat="45.95645" lon="4.93963">
        <ele>294</ele>
        <time>2018-06-01T10:03:32Z</time>
      </trkpt>
      <trkpt lat="45.95648" lon="4.93955">
        <ele>294</ele>
        <time>2018-06-01T10:03:33Z</time>
      </trkpt>
      <trkpt lat="45.95645" lon="4.93949">
        <ele>294</ele>
        <time>2018-06-01T10:03:34Z</time>
      </trkpt>
      <trkpt lat="45.95645" lon="4.93942">
        <ele>294</ele>
        <time>2018-06-01T10:03:35Z</time>
      </trkpt>
      <trkpt lat="45.95647" lon="4.93934">
        <ele>294</ele>
        <time>2018-06-01T10:03:36Z</time>
      </trkpt>
      <trkpt lat="45.95649" lon="4.93926">
        <ele>294</ele>
        <time>2018-06-01T10:03:37Z</time>
      </trkpt>
      <trkpt lat="45.9565" lon="4.93917">
        <ele>294</ele>
        <time>2018-06-01T10:03:38Z</time>
      </trkpt>
      <trkpt lat="45.9565" lon="4.93909">
        <ele>292</ele>
        <time>2018-06-01T10:03:39Z</time>
      </trkpt>
      <trkpt lat="45.95651" lon="4.93901">
        <ele>292</ele>
        <time>2018-06-01T10:03:40Z</time>
      </trkpt>
      <trkpt lat="45.95654" lon="4.93892">
        <ele>292</ele>
        <time>2018-06-01T10:03:41Z</time>
      </trkpt>
      <trkpt lat="45.95656" lon="4.93884">
        <ele>291</ele>
        <time>2018-06-01T10:03:42Z</time>
      </trkpt>
      <trkpt lat="45.95657" lon="4.93876">
        <ele>291</ele>
        <time>2018-06-01T10:03:43Z</time>
      </trkpt>
      <trkpt lat="45.95653" lon="4.93867">
        <ele>290</ele>
        <time>2018-06-01T10:03:44Z</time>
      </trkpt>
      <trkpt lat="45.95649" lon="4.93863">
        <ele>290</ele>
        <time>2018-06-01T10:03:45Z</time>
      </trkpt>
      <trkpt lat="45.95643" lon="4.93856">
        <ele>290</ele>
        <time>2018-06-01T10:03:46Z</time>
      </trkpt>
      <trkpt lat="45.95638" lon="4.93851">
        <ele>290</ele>
        <time>2018-06-01T10:03:47Z</time>
      </trkpt>
      <trkpt lat="45.95632" lon="4.93848">
        <ele>290</ele>
        <time>2018-06-01T10:03:48Z</time>
      </trkpt>
      <trkpt lat="45.95626" lon="4.93844">
        <ele>290</ele>
        <time>2018-06-01T10:03:49Z</time>
      </trkpt>
      <trkpt lat="45.95621" lon="4.93841">
        <ele>290</ele>
        <time>2018-06-01T10:03:50Z</time>
      </trkpt>
      <trkpt lat="45.95616" lon="4.93835">
        <ele>290</ele>
        <time>2018-06-01T10:03:51Z</time>
      </trkpt>
      <trkpt lat="45.9561" lon="4.93831">
        <ele>289</ele>
        <time>2018-06-01T10:03:52Z</time>
      </trkpt>
      <trkpt lat="45.95604" lon="4.93828">
        <ele>289</ele>
        <time>2018-06-01T10:03:53Z</time>
      </trkpt>
      <trkpt lat="45.95599" lon="4.93826">
        <ele>289</ele>
        <time>2018-06-01T10:03:54Z</time>
      </trkpt>
      <trkpt lat="45.95594" lon="4.9382">
        <ele>289</ele>
        <time>2018-06-01T10:03:55Z</time>
      </trkpt>
      <trkpt lat="45.9559" lon="4.93815">
        <ele>289</ele>
        <time>2018-06-01T10:03:56Z</time>
      </trkpt>
      <trkpt lat="45.95584" lon="4.93811">
        <ele>289</ele>
        <time>2018-06-01T10:03:57Z</time>
      </trkpt>
      <trkpt lat="45.95579" lon="4.93806">
        <ele>290</ele>
        <time>2018-06-01T10:03:58Z</time>
      </trkpt>
      <trkpt lat="45.95575" lon="4.93801">
        <ele>290</ele>
        <time>2018-06-01T10:03:59Z</time>
      </trkpt>
      <trkpt lat="45.95571" lon="4.93795">
        <ele>290</ele>
        <time>2018-06-01T10:04:00Z</time>
      </trkpt>
      <trkpt lat="45.95568" lon="4.93788">
        <ele>290</ele>
        <time>2018-06-01T10:04:01Z</time>
      </trkpt>
      <trkpt lat="45.95563" lon="4.93782">
        <ele>290</ele>
        <time>2018-06-01T10:04:02Z</time>
      </trkpt>
      <trkpt lat="45.95561" lon="4.93773">
        <ele>290</ele>
        <time>2018-06-01T10:04:03Z</time>
      </trkpt>
      <trkpt lat="45.9556" lon="4.93765">
        <ele>290</ele>
        <time>2018-06-01T10:04:04Z</time>
      </trkpt>
      <trkpt lat="45.95558" lon="4.93758">
        <ele>290</ele>
        <time>2018-06-01T10:04:05Z</time>
      </trkpt>
      <trkpt lat="45.95559" lon="4.93749">
        <ele>290</ele>
        <time>2018-06-01T10:04:06Z</time>
      </trkpt>
      <trkpt lat="45.95559" lon="4.93741">
        <ele>290</ele>
        <time>2018-06-01T10:04:07Z</time>
      </trkpt>
      <trkpt lat="45.9556" lon="4.9373">
        <ele>290</ele>
        <time>2018-06-01T10:04:08Z</time>
      </trkpt>
      <trkpt lat="45.95563" lon="4.93722">
        <ele>290</ele>
        <time>2018-06-01T10:04:09Z</time>
      </trkpt>
      <trkpt lat="45.95567" lon="4.93713">
        <ele>290</ele>
        <time>2018-06-01T10:04:10Z</time>
      </trkpt>
      <trkpt lat="45.95567" lon="4.93704">
        <ele>290</ele>
        <time>2018-06-01T10:04:11Z</time>
      </trkpt>
      <trkpt lat="45.95562" lon="4.93695">
        <ele>290</ele>
        <time>2018-06-01T10:04:12Z</time>
      </trkpt>
      <trkpt lat="45.95564" lon="4.93685">
        <ele>290</ele>
        <time>2018-06-01T10:04:13Z</time>
      </trkpt>
      <trkpt lat="45.95568" lon="4.93676">
        <ele>289</ele>
        <time>2018-06-01T10:04:14Z</time>
      </trkpt>
      <trkpt lat="45.95565" lon="4.93668">
        <ele>289</ele>
        <time>2018-06-01T10:04:15Z</time>
      </trkpt>
      <trkpt lat="45.95565" lon="4.93659">
        <ele>289</ele>
        <time>2018-06-01T10:04:16Z</time>
      </trkpt>
      <trkpt lat="45.95567" lon="4.9365">
        <ele>289</ele>
        <time>2018-06-01T10:04:17Z</time>
      </trkpt>
      <trkpt lat="45.95568" lon="4.9364">
        <ele>289</ele>
        <time>2018-06-01T10:04:18Z</time>
      </trkpt>
      <trkpt lat="45.95563" lon="4.93631">
        <ele>289</ele>
        <time>2018-06-01T10:04:19Z</time>
      </trkpt>
      <trkpt lat="45.95566" lon="4.93622">
        <ele>289</ele>
        <time>2018-06-01T10:04:20Z</time>
      </trkpt>
      <trkpt lat="45.95566" lon="4.93613">
        <ele>289</ele>
        <time>2018-06-01T10:04:21Z</time>
      </trkpt>
      <trkpt lat="45.95567" lon="4.93603">
        <ele>289</ele>
        <time>2018-06-01T10:04:22Z</time>
      </trkpt>
      <trkpt lat="45.95568" lon="4.93594">
        <ele>289</ele>
        <time>2018-06-01T10:04:23Z</time>
      </trkpt>
      <trkpt lat="45.95566" lon="4.93585">
        <ele>289</ele>
        <time>2018-06-01T10:04:24Z</time>
      </trkpt>
      <trkpt lat="45.95567" lon="4.93577">
        <ele>289</ele>
        <time>2018-06-01T10:04:25Z</time>
      </trkpt>
      <trkpt lat="45.95571" lon="4.93568">
        <ele>289</ele>
        <time>2018-06-01T10:04:26Z</time>
      </trkpt>
      <trkpt lat="45.95569" lon="4.9356">
        <ele>289</ele>
        <time>2018-06-01T10:04:27Z</time>
      </trkpt>
      <trkpt lat="45.9557" lon="4.93553">
        <ele>289</ele>
        <time>2018-06-01T10:04:28Z</time>
      </trkpt>
      <trkpt lat="45.9557" lon="4.93544">
        <ele>289</ele>
        <time>2018-06-01T10:04:29Z</time>
      </trkpt>
      <trkpt lat="45.95567" lon="4.93535">
        <ele>290</ele>
        <time>2018-06-01T10:04:30Z</time>
      </trkpt>
      <trkpt lat="45.95569" lon="4.93527">
        <ele>290</ele>
        <time>2018-06-01T10:04:31Z</time>
      </trkpt>
      <trkpt lat="45.95568" lon="4.93518">
        <ele>290</ele>
        <time>2018-06-01T10:04:32Z</time>
      </trkpt>
      <trkpt lat="45.95566" lon="4.93509">
        <ele>290</ele>
        <time>2018-06-01T10:04:33Z</time>
      </trkpt>
      <trkpt lat="45.95564" lon="4.93501">
        <ele>290</ele>
        <time>2018-06-01T10:04:34Z</time>
      </trkpt>
      <trkpt lat="45.95562" lon="4.93495">
        <ele>290</ele>
        <time>2018-06-01T10:04:35Z</time>
      </trkpt>
      <trkpt lat="45.95561" lon="4.93488">
        <ele>289</ele>
        <time>2018-06-01T10:04:36Z</time>
      </trkpt>
      <trkpt lat="45.95557" lon="4.93482">
        <ele>289</ele>
        <time>2018-06-01T10:04:37Z</time>
      </trkpt>
      <trkpt lat="45.95554" lon="4.93475">
        <ele>289</ele>
        <time>2018-06-01T10:04:38Z</time>
      </trkpt>
      <trkpt lat="45.95552" lon="4.93469">
        <ele>289</ele>
        <time>2018-06-01T10:04:39Z</time>
      </trkpt>
      <trkpt lat="45.95547" lon="4.93463">
        <ele>289</ele>
        <time>2018-06-01T10:04:40Z</time>
      </trkpt>
      <trkpt lat="45.95546" lon="4.93457">
        <ele>289</ele>
        <time>2018-06-01T10:04:41Z</time>
      </trkpt>
      <trkpt lat="45.95543" lon="4.93446">
        <ele>289</ele>
        <time>2018-06-01T10:04:43Z</time>
      </trkpt>
      <trkpt lat="45.95544" lon="4.93442">
        <ele>289</ele>
        <time>2018-06-01T10:04:44Z</time>
      </trkpt>
      <trkpt lat="45.95544" lon="4.93435">
        <ele>289</ele>
        <time>2018-06-01T10:04:45Z</time>
      </trkpt>
      <trkpt lat="45.9554" lon="4.93428">
        <ele>289</ele>
        <time>2018-06-01T10:04:46Z</time>
      </trkpt>
      <trkpt lat="45.95537" lon="4.9342">
        <ele>289</ele>
        <time>2018-06-01T10:04:47Z</time>
      </trkpt>
      <trkpt lat="45.95535" lon="4.93412">
        <ele>289</ele>
        <time>2018-06-01T10:04:48Z</time>
      </trkpt>
      <trkpt lat="45.95533" lon="4.93405">
        <ele>289</ele>
        <time>2018-06-01T10:04:49Z</time>
      </trkpt>
      <trkpt lat="45.95531" lon="4.93398">
        <ele>289</ele>
        <time>2018-06-01T10:04:50Z</time>
      </trkpt>
      <trkpt lat="45.95527" lon="4.93392">
        <ele>289</ele>
        <time>2018-06-01T10:04:51Z</time>
      </trkpt>
      <trkpt lat="45.95524" lon="4.93383">
        <ele>289</ele>
        <time>2018-06-01T10:04:52Z</time>
      </trkpt>
      <trkpt lat="45.95521" lon="4.93377">
        <ele>289</ele>
        <time>2018-06-01T10:04:53Z</time>
      </trkpt>
      <trkpt lat="45.95518" lon="4.93368">
        <ele>289</ele>
        <time>2018-06-01T10:04:54Z</time>
      </trkpt>
      <trkpt lat="45.95514" lon="4.9336">
        <ele>289</ele>
        <time>2018-06-01T10:04:55Z</time>
      </trkpt>
      <trkpt lat="45.9551" lon="4.93355">
        <ele>289</ele>
        <time>2018-06-01T10:04:56Z</time>
      </trkpt>
      <trkpt lat="45.95506" lon="4.93346">
        <ele>289</ele>
        <time>2018-06-01T10:04:57Z</time>
      </trkpt>
      <trkpt lat="45.95503" lon="4.9334">
        <ele>289</ele>
        <time>2018-06-01T10:04:58Z</time>
      </trkpt>
      <trkpt lat="45.955" lon="4.93333">
        <ele>289</ele>
        <time>2018-06-01T10:04:59Z</time>
      </trkpt>
      <trkpt lat="45.95494" lon="4.93324">
        <ele>289</ele>
        <time>2018-06-01T10:05:00Z</time>
      </trkpt>
      <trkpt lat="45.95488" lon="4.93312">
        <ele>290</ele>
        <time>2018-06-01T10:05:01Z</time>
      </trkpt>
      <trkpt lat="45.95488" lon="4.93305">
        <ele>290</ele>
        <time>2018-06-01T10:05:02Z</time>
      </trkpt>
      <trkpt lat="45.95483" lon="4.93302">
        <ele>290</ele>
        <time>2018-06-01T10:05:03Z</time>
      </trkpt>
      <trkpt lat="45.95482" lon="4.93289">
        <ele>290</ele>
        <time>2018-06-01T10:05:05Z</time>
      </trkpt>
      <trkpt lat="45.95478" lon="4.93284">
        <ele>290</ele>
        <time>2018-06-01T10:05:06Z</time>
      </trkpt>
      <trkpt lat="45.95475" lon="4.9328">
        <ele>290</ele>
        <time>2018-06-01T10:05:07Z</time>
      </trkpt>
      <trkpt lat="45.95469" lon="4.93274">
        <ele>290</ele>
        <time>2018-06-01T10:05:08Z</time>
      </trkpt>
      <trkpt lat="45.95466" lon="4.93266">
        <ele>290</ele>
        <time>2018-06-01T10:05:09Z</time>
      </trkpt>
      <trkpt lat="45.95462" lon="4.93257">
        <ele>290</ele>
        <time>2018-06-01T10:05:10Z</time>
      </trkpt>
      <trkpt lat="45.95461" lon="4.9325">
        <ele>290</ele>
        <time>2018-06-01T10:05:11Z</time>
      </trkpt>
      <trkpt lat="45.95457" lon="4.93242">
        <ele>291</ele>
        <time>2018-06-01T10:05:12Z</time>
      </trkpt>
      <trkpt lat="45.95457" lon="4.93236">
        <ele>291</ele>
        <time>2018-06-01T10:05:13Z</time>
      </trkpt>
      <trkpt lat="45.95455" lon="4.93225">
        <ele>291</ele>
        <time>2018-06-01T10:05:14Z</time>
      </trkpt>
      <trkpt lat="45.95449" lon="4.93219">
        <ele>291</ele>
        <time>2018-06-01T10:05:15Z</time>
      </trkpt>
      <trkpt lat="45.95447" lon="4.93213">
        <ele>291</ele>
        <time>2018-06-01T10:05:16Z</time>
      </trkpt>
      <trkpt lat="45.95442" lon="4.93205">
        <ele>291</ele>
        <time>2018-06-01T10:05:17Z</time>
      </trkpt>
      <trkpt lat="45.95443" lon="4.93197">
        <ele>291</ele>
        <time>2018-06-01T10:05:18Z</time>
      </trkpt>
      <trkpt lat="45.95444" lon="4.93191">
        <ele>291</ele>
        <time>2018-06-01T10:05:19Z</time>
      </trkpt>
      <trkpt lat="45.95444" lon="4.93183">
        <ele>291</ele>
        <time>2018-06-01T10:05:20Z</time>
      </trkpt>
      <trkpt lat="45.95445" lon="4.93178">
        <ele>291</ele>
        <time>2018-06-01T10:05:21Z</time>
      </trkpt>
      <trkpt lat="45.95449" lon="4.93172">
        <ele>291</ele>
        <time>2018-06-01T10:05:22Z</time>
      </trkpt>
      <trkpt lat="45.95452" lon="4.93167">
        <ele>291</ele>
        <time>2018-06-01T10:05:23Z</time>
      </trkpt>
      <trkpt lat="45.95454" lon="4.93159">
        <ele>291</ele>
        <time>2018-06-01T10:05:24Z</time>
      </trkpt>
      <trkpt lat="45.95461" lon="4.93159">
        <ele>290</ele>
        <time>2018-06-01T10:05:25Z</time>
      </trkpt>
      <trkpt lat="45.95466" lon="4.93156">
        <ele>290</ele>
        <time>2018-06-01T10:05:26Z</time>
      </trkpt>
      <trkpt lat="45.9547" lon="4.93154">
        <ele>290</ele>
        <time>2018-06-01T10:05:27Z</time>
      </trkpt>
      <trkpt lat="45.95476" lon="4.93149">
        <ele>290</ele>
        <time>2018-06-01T10:05:28Z</time>
      </trkpt>
      <trkpt lat="45.95483" lon="4.93143">
        <ele>290</ele>
        <time>2018-06-01T10:05:29Z</time>
      </trkpt>
      <trkpt lat="45.95487" lon="4.93141">
        <ele>290</ele>
        <time>2018-06-01T10:05:30Z</time>
      </trkpt>
      <trkpt lat="45.95495" lon="4.93136">
        <ele>290</ele>
        <time>2018-06-01T10:05:32Z</time>
      </trkpt>
      <trkpt lat="45.95499" lon="4.93135">
        <ele>290</ele>
        <time>2018-06-01T10:05:33Z</time>
      </trkpt>
      <trkpt lat="45.95504" lon="4.93132">
        <ele>289</ele>
        <time>2018-06-01T10:05:34Z</time>
      </trkpt>
      <trkpt lat="45.9551" lon="4.9313">
        <ele>289</ele>
        <time>2018-06-01T10:05:35Z</time>
      </trkpt>
      <trkpt lat="45.95513" lon="4.93124">
        <ele>289</ele>
        <time>2018-06-01T10:05:36Z</time>
      </trkpt>
      <trkpt lat="45.95517" lon="4.93118">
        <ele>289</ele>
        <time>2018-06-01T10:05:37Z</time>
      </trkpt>
      <trkpt lat="45.95524" lon="4.93112">
        <ele>289</ele>
        <time>2018-06-01T10:05:39Z</time>
      </trkpt>
      <trkpt lat="45.95528" lon="4.93107">
        <ele>289</ele>
        <time>2018-06-01T10:05:40Z</time>
      </trkpt>
      <trkpt lat="45.95532" lon="4.931">
        <ele>289</ele>
        <time>2018-06-01T10:05:41Z</time>
      </trkpt>
      <trkpt lat="45.95538" lon="4.93094">
        <ele>289</ele>
        <time>2018-06-01T10:05:42Z</time>
      </trkpt>
      <trkpt lat="45.95542" lon="4.93089">
        <ele>290</ele>
        <time>2018-06-01T10:05:43Z</time>
      </trkpt>
      <trkpt lat="45.95545" lon="4.93079">
        <ele>290</ele>
        <time>2018-06-01T10:05:44Z</time>
      </trkpt>
      <trkpt lat="45.95547" lon="4.93071">
        <ele>290</ele>
        <time>2018-06-01T10:05:45Z</time>
      </trkpt>
      <trkpt lat="45.95549" lon="4.93063">
        <ele>290</ele>
        <time>2018-06-01T10:05:46Z</time>
      </trkpt>
      <trkpt lat="45.9555" lon="4.93054">
        <ele>290</ele>
        <time>2018-06-01T10:05:47Z</time>
      </trkpt>
      <trkpt lat="45.9555" lon="4.93046">
        <ele>291</ele>
        <time>2018-06-01T10:05:48Z</time>
      </trkpt>
      <trkpt lat="45.95551" lon="4.93037">
        <ele>291</ele>
        <time>2018-06-01T10:05:49Z</time>
      </trkpt>
      <trkpt lat="45.95553" lon="4.9303">
        <ele>291</ele>
        <time>2018-06-01T10:05:50Z</time>
      </trkpt>
      <trkpt lat="45.95556" lon="4.93022">
        <ele>291</ele>
        <time>2018-06-01T10:05:51Z</time>
      </trkpt>
      <trkpt lat="45.95555" lon="4.93015">
        <ele>291</ele>
        <time>2018-06-01T10:05:52Z</time>
      </trkpt>
      <trkpt lat="45.95555" lon="4.93007">
        <ele>291</ele>
        <time>2018-06-01T10:05:53Z</time>
      </trkpt>
      <trkpt lat="45.95555" lon="4.93001">
        <ele>291</ele>
        <time>2018-06-01T10:05:54Z</time>
      </trkpt>
      <trkpt lat="45.95554" lon="4.92992">
        <ele>292</ele>
        <time>2018-06-01T10:05:55Z</time>
      </trkpt>
      <trkpt lat="45.95556" lon="4.92985">
        <ele>292</ele>
        <time>2018-06-01T10:05:56Z</time>
      </trkpt>
      <trkpt lat="45.95558" lon="4.92977">
        <ele>292</ele>
        <time>2018-06-01T10:05:57Z</time>
      </trkpt>
      <trkpt lat="45.95557" lon="4.9297">
        <ele>292</ele>
        <time>2018-06-01T10:05:58Z</time>
      </trkpt>
      <trkpt lat="45.95557" lon="4.92961">
        <ele>292</ele>
        <time>2018-06-01T10:05:59Z</time>
      </trkpt>
      <trkpt lat="45.95559" lon="4.92954">
        <ele>292</ele>
        <time>2018-06-01T10:06:00Z</time>
      </trkpt>
      <trkpt lat="45.95561" lon="4.92946">
        <ele>292</ele>
        <time>2018-06-01T10:06:01Z</time>
      </trkpt>
      <trkpt lat="45.95561" lon="4.92939">
        <ele>292</ele>
        <time>2018-06-01T10:06:02Z</time>
      </trkpt>
      <trkpt lat="45.95562" lon="4.9293">
        <ele>293</ele>
        <time>2018-06-01T10:06:03Z</time>
      </trkpt>
      <trkpt lat="45.95564" lon="4.92923">
        <ele>293</ele>
        <time>2018-06-01T10:06:04Z</time>
      </trkpt>
      <trkpt lat="45.95566" lon="4.92914">
        <ele>294</ele>
        <time>2018-06-01T10:06:05Z</time>
      </trkpt>
      <trkpt lat="45.95568" lon="4.92906">
        <ele>294</ele>
        <time>2018-06-01T10:06:06Z</time>
      </trkpt>
      <trkpt lat="45.9557" lon="4.92899">
        <ele>294</ele>
        <time>2018-06-01T10:06:07Z</time>
      </trkpt>
      <trkpt lat="45.95571" lon="4.92891">
        <ele>294</ele>
        <time>2018-06-01T10:06:08Z</time>
      </trkpt>
      <trkpt lat="45.95573" lon="4.92883">
        <ele>294</ele>
        <time>2018-06-01T10:06:09Z</time>
      </trkpt>
      <trkpt lat="45.95573" lon="4.92875">
        <ele>294</ele>
        <time>2018-06-01T10:06:10Z</time>
      </trkpt>
      <trkpt lat="45.95574" lon="4.92868">
        <ele>294</ele>
        <time>2018-06-01T10:06:11Z</time>
      </trkpt>
      <trkpt lat="45.95575" lon="4.9286">
        <ele>294</ele>
        <time>2018-06-01T10:06:12Z</time>
      </trkpt>
      <trkpt lat="45.95577" lon="4.92852">
        <ele>294</ele>
        <time>2018-06-01T10:06:13Z</time>
      </trkpt>
      <trkpt lat="45.95578" lon="4.92844">
        <ele>294</ele>
        <time>2018-06-01T10:06:14Z</time>
      </trkpt>
      <trkpt lat="45.95578" lon="4.92837">
        <ele>295</ele>
        <time>2018-06-01T10:06:15Z</time>
      </trkpt>
      <trkpt lat="45.95578" lon="4.9283">
        <ele>295</ele>
        <time>2018-06-01T10:06:16Z</time>
      </trkpt>
      <trkpt lat="45.95579" lon="4.92822">
        <ele>295</ele>
        <time>2018-06-01T10:06:17Z</time>
      </trkpt>
      <trkpt lat="45.9558" lon="4.92816">
        <ele>295</ele>
        <time>2018-06-01T10:06:18Z</time>
      </trkpt>
      <trkpt lat="45.95581" lon="4.92809">
        <ele>294</ele>
        <time>2018-06-01T10:06:19Z</time>
      </trkpt>
      <trkpt lat="45.95583" lon="4.92802">
        <ele>294</ele>
        <time>2018-06-01T10:06:20Z</time>
      </trkpt>
      <trkpt lat="45.95583" lon="4.92794">
        <ele>294</ele>
        <time>2018-06-01T10:06:21Z</time>
      </trkpt>
      <trkpt lat="45.95585" lon="4.92787">
        <ele>295</ele>
        <time>2018-06-01T10:06:22Z</time>
      </trkpt>
      <trkpt lat="45.95585" lon="4.9278">
        <ele>295</ele>
        <time>2018-06-01T10:06:23Z</time>
      </trkpt>
      <trkpt lat="45.95587" lon="4.92774">
        <ele>295</ele>
        <time>2018-06-01T10:06:24Z</time>
      </trkpt>
      <trkpt lat="45.95589" lon="4.92766">
        <ele>295</ele>
        <time>2018-06-01T10:06:25Z</time>
      </trkpt>
      <trkpt lat="45.9559" lon="4.92757">
        <ele>295</ele>
        <time>2018-06-01T10:06:26Z</time>
      </trkpt>
      <trkpt lat="45.95592" lon="4.92749">
        <ele>295</ele>
        <time>2018-06-01T10:06:27Z</time>
      </trkpt>
      <trkpt lat="45.95593" lon="4.92741">
        <ele>295</ele>
        <time>2018-06-01T10:06:28Z</time>
      </trkpt>
      <trkpt lat="45.95595" lon="4.92732">
        <ele>295</ele>
        <time>2018-06-01T10:06:29Z</time>
      </trkpt>
      <trkpt lat="45.95596" lon="4.92723">
        <ele>295</ele>
        <time>2018-06-01T10:06:30Z</time>
      </trkpt>
      <trkpt lat="45.95599" lon="4.92714">
        <ele>295</ele>
        <time>2018-06-01T10:06:31Z</time>
      </trkpt>
      <trkpt lat="45.956" lon="4.92705">
        <ele>295</ele>
        <time>2018-06-01T10:06:32Z</time>
      </trkpt>
      <trkpt lat="45.95602" lon="4.92697">
        <ele>295</ele>
        <time>2018-06-01T10:06:33Z</time>
      </trkpt>
      <trkpt lat="45.95605" lon="4.92689">
        <ele>295</ele>
        <time>2018-06-01T10:06:34Z</time>
      </trkpt>
      <trkpt lat="45.95607" lon="4.9268">
        <ele>295</ele>
        <time>2018-06-01T10:06:35Z</time>
      </trkpt>
      <trkpt lat="45.95608" lon="4.92671">
        <ele>294</ele>
        <time>2018-06-01T10:06:36Z</time>
      </trkpt>
      <trkpt lat="45.95611" lon="4.92662">
        <ele>294</ele>
        <time>2018-06-01T10:06:37Z</time>
      </trkpt>
      <trkpt lat="45.95611" lon="4.92654">
        <ele>294</ele>
        <time>2018-06-01T10:06:38Z</time>
      </trkpt>
      <trkpt lat="45.95613" lon="4.92645">
        <ele>294</ele>
        <time>2018-06-01T10:06:39Z</time>
      </trkpt>
      <trkpt lat="45.95614" lon="4.92637">
        <ele>294</ele>
        <time>2018-06-01T10:06:40Z</time>
      </trkpt>
      <trkpt lat="45.95616" lon="4.92628">
        <ele>294</ele>
        <time>2018-06-01T10:06:41Z</time>
      </trkpt>
      <trkpt lat="45.95618" lon="4.92619">
        <ele>294</ele>
        <time>2018-06-01T10:06:42Z</time>
      </trkpt>
      <trkpt lat="45.95618" lon="4.92611">
        <ele>294</ele>
        <time>2018-06-01T10:06:43Z</time>
      </trkpt>
      <trkpt lat="45.95619" lon="4.92604">
        <ele>294</ele>
        <time>2018-06-01T10:06:44Z</time>
      </trkpt>
      <trkpt lat="45.9562" lon="4.92595">
        <ele>294</ele>
        <time>2018-06-01T10:06:45Z</time>
      </trkpt>
      <trkpt lat="45.95624" lon="4.92586">
        <ele>294</ele>
        <time>2018-06-01T10:06:46Z</time>
      </trkpt>
      <trkpt lat="45.95624" lon="4.92577">
        <ele>294</ele>
        <time>2018-06-01T10:06:47Z</time>
      </trkpt>
      <trkpt lat="45.95628" lon="4.92568">
        <ele>294</ele>
        <time>2018-06-01T10:06:48Z</time>
      </trkpt>
      <trkpt lat="45.95629" lon="4.92559">
        <ele>294</ele>
        <time>2018-06-01T10:06:49Z</time>
      </trkpt>
      <trkpt lat="45.9563" lon="4.92551">
        <ele>294</ele>
        <time>2018-06-01T10:06:50Z</time>
      </trkpt>
      <trkpt lat="45.95631" lon="4.92542">
        <ele>294</ele>
        <time>2018-06-01T10:06:51Z</time>
      </trkpt>
      <trkpt lat="45.95632" lon="4.92534">
        <ele>294</ele>
        <time>2018-06-01T10:06:52Z</time>
      </trkpt>
      <trkpt lat="45.95632" lon="4.92526">
        <ele>294</ele>
        <time>2018-06-01T10:06:53Z</time>
      </trkpt>
      <trkpt lat="45.95633" lon="4.92518">
        <ele>294</ele>
        <time>2018-06-01T10:06:54Z</time>
      </trkpt>
      <trkpt lat="45.95634" lon="4.9251">
        <ele>294</ele>
        <time>2018-06-01T10:06:55Z</time>
      </trkpt>
      <trkpt lat="45.95635" lon="4.92502">
        <ele>294</ele>
        <time>2018-06-01T10:06:56Z</time>
      </trkpt>
      <trkpt lat="45.95636" lon="4.92494">
        <ele>293</ele>
        <time>2018-06-01T10:06:57Z</time>
      </trkpt>
      <trkpt lat="45.95636" lon="4.92486">
        <ele>293</ele>
        <time>2018-06-01T10:06:58Z</time>
      </trkpt>
      <trkpt lat="45.95638" lon="4.92477">
        <ele>293</ele>
        <time>2018-06-01T10:06:59Z</time>
      </trkpt>
      <trkpt lat="45.95639" lon="4.92469">
        <ele>293</ele>
        <time>2018-06-01T10:07:00Z</time>
      </trkpt>
      <trkpt lat="45.95639" lon="4.92461">
        <ele>293</ele>
        <time>2018-06-01T10:07:01Z</time>
      </trkpt>
      <trkpt lat="45.95641" lon="4.92453">
        <ele>293</ele>
        <time>2018-06-01T10:07:02Z</time>
      </trkpt>
      <trkpt lat="45.95641" lon="4.92445">
        <ele>293</ele>
        <time>2018-06-01T10:07:03Z</time>
      </trkpt>
      <trkpt lat="45.95642" lon="4.92436">
        <ele>293</ele>
        <time>2018-06-01T10:07:04Z</time>
      </trkpt>
      <trkpt lat="45.95643" lon="4.92428">
        <ele>293</ele>
        <time>2018-06-01T10:07:05Z</time>
      </trkpt>
      <trkpt lat="45.95644" lon="4.9242">
        <ele>293</ele>
        <time>2018-06-01T10:07:06Z</time>
      </trkpt>
      <trkpt lat="45.95645" lon="4.92412">
        <ele>293</ele>
        <time>2018-06-01T10:07:07Z</time>
      </trkpt>
      <trkpt lat="45.95646" lon="4.92403">
        <ele>293</ele>
        <time>2018-06-01T10:07:08Z</time>
      </trkpt>
      <trkpt lat="45.95648" lon="4.92394">
        <ele>293</ele>
        <time>2018-06-01T10:07:09Z</time>
      </trkpt>
      <trkpt lat="45.95648" lon="4.92385">
        <ele>293</ele>
        <time>2018-06-01T10:07:10Z</time>
      </trkpt>
      <trkpt lat="45.95649" lon="4.92375">
        <ele>293</ele>
        <time>2018-06-01T10:07:11Z</time>
      </trkpt>
      <trkpt lat="45.95649" lon="4.92366">
        <ele>293</ele>
        <time>2018-06-01T10:07:12Z</time>
      </trkpt>
      <trkpt lat="45.9565" lon="4.92357">
        <ele>293</ele>
        <time>2018-06-01T10:07:13Z</time>
      </trkpt>
      <trkpt lat="45.95652" lon="4.92348">
        <ele>293</ele>
        <time>2018-06-01T10:07:14Z</time>
      </trkpt>
      <trkpt lat="45.95652" lon="4.9234">
        <ele>293</ele>
        <time>2018-06-01T10:07:15Z</time>
      </trkpt>
      <trkpt lat="45.95653" lon="4.92331">
        <ele>293</ele>
        <time>2018-06-01T10:07:16Z</time>
      </trkpt>
      <trkpt lat="45.95654" lon="4.92321">
        <ele>293</ele>
        <time>2018-06-01T10:07:17Z</time>
      </trkpt>
      <trkpt lat="45.95654" lon="4.92312">
        <ele>293</ele>
        <time>2018-06-01T10:07:18Z</time>
      </trkpt>
      <trkpt lat="45.95655" lon="4.92303">
        <ele>293</ele>
        <time>2018-06-01T10:07:19Z</time>
      </trkpt>
      <trkpt lat="45.95656" lon="4.92294">
        <ele>293</ele>
        <time>2018-06-01T10:07:20Z</time>
      </trkpt>
      <trkpt lat="45.95656" lon="4.92286">
        <ele>293</ele>
        <time>2018-06-01T10:07:21Z</time>
      </trkpt>
      <trkpt lat="45.95656" lon="4.92277">
        <ele>293</ele>
        <time>2018-06-01T10:07:22Z</time>
      </trkpt>
      <trkpt lat="45.95656" lon="4.92269">
        <ele>294</ele>
        <time>2018-06-01T10:07:23Z</time>
      </trkpt>
      <trkpt lat="45.95657" lon="4.9226">
        <ele>294</ele>
        <time>2018-06-01T10:07:24Z</time>
      </trkpt>
      <trkpt lat="45.95656" lon="4.92251">
        <ele>294</ele>
        <time>2018-06-01T10:07:25Z</time>
      </trkpt>
      <trkpt lat="45.95657" lon="4.92242">
        <ele>294</ele>
        <time>2018-06-01T10:07:26Z</time>
      </trkpt>
      <trkpt lat="45.95656" lon="4.92234">
        <ele>294</ele>
        <time>2018-06-01T10:07:27Z</time>
      </trkpt>
      <trkpt lat="45.95658" lon="4.92226">
        <ele>294</ele>
        <time>2018-06-01T10:07:28Z</time>
      </trkpt>
      <trkpt lat="45.95659" lon="4.92217">
        <ele>294</ele>
        <time>2018-06-01T10:07:29Z</time>
      </trkpt>
      <trkpt lat="45.9566" lon="4.92207">
        <ele>294</ele>
        <time>2018-06-01T10:07:30Z</time>
      </trkpt>
      <trkpt lat="45.95663" lon="4.92198">
        <ele>295</ele>
        <time>2018-06-01T10:07:31Z</time>
      </trkpt>
      <trkpt lat="45.95664" lon="4.92189">
        <ele>295</ele>
        <time>2018-06-01T10:07:32Z</time>
      </trkpt>
      <trkpt lat="45.95665" lon="4.92179">
        <ele>296</ele>
        <time>2018-06-01T10:07:33Z</time>
      </trkpt>
      <trkpt lat="45.95665" lon="4.9217">
        <ele>297</ele>
        <time>2018-06-01T10:07:34Z</time>
      </trkpt>
      <trkpt lat="45.95666" lon="4.92161">
        <ele>297</ele>
        <time>2018-06-01T10:07:35Z</time>
      </trkpt>
      <trkpt lat="45.95667" lon="4.92153">
        <ele>298</ele>
        <time>2018-06-01T10:07:36Z</time>
      </trkpt>
      <trkpt lat="45.95668" lon="4.92147">
        <ele>299</ele>
        <time>2018-06-01T10:07:37Z</time>
      </trkpt>
      <trkpt lat="45.95669" lon="4.92139">
        <ele>299</ele>
        <time>2018-06-01T10:07:38Z</time>
      </trkpt>
      <trkpt lat="45.95669" lon="4.92133">
        <ele>299</ele>
        <time>2018-06-01T10:07:39Z</time>
      </trkpt>
      <trkpt lat="45.95669" lon="4.92125">
        <ele>299</ele>
        <time>2018-06-01T10:07:40Z</time>
      </trkpt>
      <trkpt lat="45.95669" lon="4.92116">
        <ele>300</ele>
        <time>2018-06-01T10:07:41Z</time>
      </trkpt>
      <trkpt lat="45.9567" lon="4.92107">
        <ele>300</ele>
        <time>2018-06-01T10:07:42Z</time>
      </trkpt>
      <trkpt lat="45.95671" lon="4.92096">
        <ele>299</ele>
        <time>2018-06-01T10:07:43Z</time>
      </trkpt>
      <trkpt lat="45.95673" lon="4.92088">
        <ele>299</ele>
        <time>2018-06-01T10:07:44Z</time>
      </trkpt>
      <trkpt lat="45.95674" lon="4.9208">
        <ele>300</ele>
        <time>2018-06-01T10:07:45Z</time>
      </trkpt>
      <trkpt lat="45.95675" lon="4.92074">
        <ele>300</ele>
        <time>2018-06-01T10:07:46Z</time>
      </trkpt>
      <trkpt lat="45.95677" lon="4.92067">
        <ele>300</ele>
        <time>2018-06-01T10:07:47Z</time>
      </trkpt>
      <trkpt lat="45.95677" lon="4.92057">
        <ele>300</ele>
        <time>2018-06-01T10:07:48Z</time>
      </trkpt>
      <trkpt lat="45.95677" lon="4.92049">
        <ele>300</ele>
        <time>2018-06-01T10:07:49Z</time>
      </trkpt>
      <trkpt lat="45.95678" lon="4.92044">
        <ele>300</ele>
        <time>2018-06-01T10:07:50Z</time>
      </trkpt>
      <trkpt lat="45.95676" lon="4.92035">
        <ele>300</ele>
        <time>2018-06-01T10:07:51Z</time>
      </trkpt>
      <trkpt lat="45.95675" lon="4.92027">
        <ele>300</ele>
        <time>2018-06-01T10:07:52Z</time>
      </trkpt>
      <trkpt lat="45.95672" lon="4.9202">
        <ele>300</ele>
        <time>2018-06-01T10:07:53Z</time>
      </trkpt>
      <trkpt lat="45.95669" lon="4.92013">
        <ele>299</ele>
        <time>2018-06-01T10:07:54Z</time>
      </trkpt>
      <trkpt lat="45.95668" lon="4.92005">
        <ele>299</ele>
        <time>2018-06-01T10:07:55Z</time>
      </trkpt>
      <trkpt lat="45.95661" lon="4.91998">
        <ele>297</ele>
        <time>2018-06-01T10:07:56Z</time>
      </trkpt>
      <trkpt lat="45.95655" lon="4.91994">
        <ele>297</ele>
        <time>2018-06-01T10:07:57Z</time>
      </trkpt>
      <trkpt lat="45.9565" lon="4.91987">
        <ele>296</ele>
        <time>2018-06-01T10:07:58Z</time>
      </trkpt>
      <trkpt lat="45.95647" lon="4.91978">
        <ele>296</ele>
        <time>2018-06-01T10:07:59Z</time>
      </trkpt>
      <trkpt lat="45.95642" lon="4.91974">
        <ele>295</ele>
        <time>2018-06-01T10:08:00Z</time>
      </trkpt>
      <trkpt lat="45.95637" lon="4.91967">
        <ele>295</ele>
        <time>2018-06-01T10:08:01Z</time>
      </trkpt>
      <trkpt lat="45.95631" lon="4.91961">
        <ele>295</ele>
        <time>2018-06-01T10:08:02Z</time>
      </trkpt>
      <trkpt lat="45.95628" lon="4.91956">
        <ele>295</ele>
        <time>2018-06-01T10:08:03Z</time>
      </trkpt>
      <trkpt lat="45.95622" lon="4.91951">
        <ele>295</ele>
        <time>2018-06-01T10:08:04Z</time>
      </trkpt>
      <trkpt lat="45.95619" lon="4.91947">
        <ele>295</ele>
        <time>2018-06-01T10:08:05Z</time>
      </trkpt>
      <trkpt lat="45.95615" lon="4.91941">
        <ele>294</ele>
        <time>2018-06-01T10:08:06Z</time>
      </trkpt>
      <trkpt lat="45.95611" lon="4.91936">
        <ele>294</ele>
        <time>2018-06-01T10:08:07Z</time>
      </trkpt>
      <trkpt lat="45.95607" lon="4.91931">
        <ele>294</ele>
        <time>2018-06-01T10:08:08Z</time>
      </trkpt>
      <trkpt lat="45.95601" lon="4.91927">
        <ele>294</ele>
        <time>2018-06-01T10:08:09Z</time>
      </trkpt>
      <trkpt lat="45.95593" lon="4.91921">
        <ele>294</ele>
        <time>2018-06-01T10:08:10Z</time>
      </trkpt>
      <trkpt lat="45.95586" lon="4.91917">
        <ele>293</ele>
        <time>2018-06-01T10:08:12Z</time>
      </trkpt>
      <trkpt lat="45.95583" lon="4.91912">
        <ele>293</ele>
        <time>2018-06-01T10:08:13Z</time>
      </trkpt>
      <trkpt lat="45.95576" lon="4.91908">
        <ele>294</ele>
        <time>2018-06-01T10:08:14Z</time>
      </trkpt>
      <trkpt lat="45.95571" lon="4.91905">
        <ele>294</ele>
        <time>2018-06-01T10:08:15Z</time>
      </trkpt>
      <trkpt lat="45.95564" lon="4.91901">
        <ele>294</ele>
        <time>2018-06-01T10:08:16Z</time>
      </trkpt>
      <trkpt lat="45.95558" lon="4.91898">
        <ele>294</ele>
        <time>2018-06-01T10:08:17Z</time>
      </trkpt>
      <trkpt lat="45.95552" lon="4.91892">
        <ele>294</ele>
        <time>2018-06-01T10:08:18Z</time>
      </trkpt>
      <trkpt lat="45.95546" lon="4.91887">
        <ele>294</ele>
        <time>2018-06-01T10:08:19Z</time>
      </trkpt>
      <trkpt lat="45.95541" lon="4.91882">
        <ele>294</ele>
        <time>2018-06-01T10:08:20Z</time>
      </trkpt>
      <trkpt lat="45.95536" lon="4.91879">
        <ele>294</ele>
        <time>2018-06-01T10:08:21Z</time>
      </trkpt>
      <trkpt lat="45.95532" lon="4.91875">
        <ele>294</ele>
        <time>2018-06-01T10:08:22Z</time>
      </trkpt>
      <trkpt lat="45.95525" lon="4.91873">
        <ele>295</ele>
        <time>2018-06-01T10:08:23Z</time>
      </trkpt>
      <trkpt lat="45.95519" lon="4.91868">
        <ele>295</ele>
        <time>2018-06-01T10:08:24Z</time>
      </trkpt>
      <trkpt lat="45.95515" lon="4.91862">
        <ele>295</ele>
        <time>2018-06-01T10:08:25Z</time>
      </trkpt>
      <trkpt lat="45.95512" lon="4.91854">
        <ele>295</ele>
        <time>2018-06-01T10:08:26Z</time>
      </trkpt>
      <trkpt lat="45.95507" lon="4.91852">
        <ele>295</ele>
        <time>2018-06-01T10:08:27Z</time>
      </trkpt>
      <trkpt lat="45.95501" lon="4.91849">
        <ele>295</ele>
        <time>2018-06-01T10:08:28Z</time>
      </trkpt>
      <trkpt lat="45.95495" lon="4.91845">
        <ele>295</ele>
        <time>2018-06-01T10:08:29Z</time>
      </trkpt>
      <trkpt lat="45.95491" lon="4.91841">
        <ele>295</ele>
        <time>2018-06-01T10:08:30Z</time>
      </trkpt>
      <trkpt lat="45.95486" lon="4.91837">
        <ele>295</ele>
        <time>2018-06-01T10:08:31Z</time>
      </trkpt>
      <trkpt lat="45.95481" lon="4.91834">
        <ele>295</ele>
        <time>2018-06-01T10:08:32Z</time>
      </trkpt>
      <trkpt lat="45.95475" lon="4.91828">
        <ele>297</ele>
        <time>2018-06-01T10:08:33Z</time>
      </trkpt>
      <trkpt lat="45.9547" lon="4.91823">
        <ele>297</ele>
        <time>2018-06-01T10:08:34Z</time>
      </trkpt>
      <trkpt lat="45.95468" lon="4.91819">
        <ele>297</ele>
        <time>2018-06-01T10:08:35Z</time>
      </trkpt>
      <trkpt lat="45.95464" lon="4.91812">
        <ele>297</ele>
        <time>2018-06-01T10:08:36Z</time>
      </trkpt>
      <trkpt lat="45.95459" lon="4.91808">
        <ele>298</ele>
        <time>2018-06-01T10:08:37Z</time>
      </trkpt>
      <trkpt lat="45.95457" lon="4.91802">
        <ele>298</ele>
        <time>2018-06-01T10:08:38Z</time>
      </trkpt>
      <trkpt lat="45.95454" lon="4.91796">
        <ele>298</ele>
        <time>2018-06-01T10:08:39Z</time>
      </trkpt>
      <trkpt lat="45.9545" lon="4.91791">
        <ele>298</ele>
        <time>2018-06-01T10:08:40Z</time>
      </trkpt>
      <trkpt lat="45.95446" lon="4.91787">
        <ele>298</ele>
        <time>2018-06-01T10:08:41Z</time>
      </trkpt>
      <trkpt lat="45.95442" lon="4.91781">
        <ele>298</ele>
        <time>2018-06-01T10:08:42Z</time>
      </trkpt>
      <trkpt lat="45.95438" lon="4.91775">
        <ele>298</ele>
        <time>2018-06-01T10:08:43Z</time>
      </trkpt>
      <trkpt lat="45.95435" lon="4.9177">
        <ele>298</ele>
        <time>2018-06-01T10:08:44Z</time>
      </trkpt>
      <trkpt lat="45.95431" lon="4.91764">
        <ele>298</ele>
        <time>2018-06-01T10:08:45Z</time>
      </trkpt>
      <trkpt lat="45.95428" lon="4.91752">
        <ele>298</ele>
        <time>2018-06-01T10:08:47Z</time>
      </trkpt>
      <trkpt lat="45.95428" lon="4.91746">
        <ele>299</ele>
        <time>2018-06-01T10:08:48Z</time>
      </trkpt>
      <trkpt lat="45.95425" lon="4.91734">
        <ele>300</ele>
        <time>2018-06-01T10:08:51Z</time>
      </trkpt>
      <trkpt lat="45.95424" lon="4.91732">
        <ele>300</ele>
        <time>2018-06-01T10:08:52Z</time>
      </trkpt>
      <trkpt lat="45.95422" lon="4.91723">
        <ele>300</ele>
        <time>2018-06-01T10:08:53Z</time>
      </trkpt>
      <trkpt lat="45.95422" lon="4.91717">
        <ele>301</ele>
        <time>2018-06-01T10:08:54Z</time>
      </trkpt>
      <trkpt lat="45.95422" lon="4.91705">
        <ele>301</ele>
        <time>2018-06-01T10:08:58Z</time>
      </trkpt>
      <trkpt lat="45.95421" lon="4.91702">
        <ele>301</ele>
        <time>2018-06-01T10:08:59Z</time>
      </trkpt>
      <trkpt lat="45.9542" lon="4.91698">
        <ele>301</ele>
        <time>2018-06-01T10:09:00Z</time>
      </trkpt>
      <trkpt lat="45.95416" lon="4.91686">
        <ele>300</ele>
        <time>2018-06-01T10:09:01Z</time>
      </trkpt>
      <trkpt lat="45.95413" lon="4.91675">
        <ele>300</ele>
        <time>2018-06-01T10:09:03Z</time>
      </trkpt>
      <trkpt lat="45.95407" lon="4.91666">
        <ele>301</ele>
        <time>2018-06-01T10:09:04Z</time>
      </trkpt>
      <trkpt lat="45.95402" lon="4.91661">
        <ele>301</ele>
        <time>2018-06-01T10:09:06Z</time>
      </trkpt>
      <trkpt lat="45.954" lon="4.91658">
        <ele>301</ele>
        <time>2018-06-01T10:09:07Z</time>
      </trkpt>
      <trkpt lat="45.95397" lon="4.91648">
        <ele>301</ele>
        <time>2018-06-01T10:09:10Z</time>
      </trkpt>
      <trkpt lat="45.95395" lon="4.91635">
        <ele>301</ele>
        <time>2018-06-01T10:09:11Z</time>
      </trkpt>
      <trkpt lat="45.95394" lon="4.91622">
        <ele>301</ele>
        <time>2018-06-01T10:09:13Z</time>
      </trkpt>
      <trkpt lat="45.95392" lon="4.9162">
        <ele>301</ele>
        <time>2018-06-01T10:09:14Z</time>
      </trkpt>
      <trkpt lat="45.95389" lon="4.91614">
        <ele>301</ele>
        <time>2018-06-01T10:09:16Z</time>
      </trkpt>
      <trkpt lat="45.95386" lon="4.91604">
        <ele>301</ele>
        <time>2018-06-01T10:09:17Z</time>
      </trkpt>
      <trkpt lat="45.95382" lon="4.91593">
        <ele>301</ele>
        <time>2018-06-01T10:09:19Z</time>
      </trkpt>
      <trkpt lat="45.9538" lon="4.91587">
        <ele>301</ele>
        <time>2018-06-01T10:09:20Z</time>
      </trkpt>
      <trkpt lat="45.95377" lon="4.91582">
        <ele>300</ele>
        <time>2018-06-01T10:09:21Z</time>
      </trkpt>
      <trkpt lat="45.95372" lon="4.91573">
        <ele>300</ele>
        <time>2018-06-01T10:09:22Z</time>
      </trkpt>
      <trkpt lat="45.9537" lon="4.91564">
        <ele>300</ele>
        <time>2018-06-01T10:09:24Z</time>
      </trkpt>
      <trkpt lat="45.95368" lon="4.91561">
        <ele>300</ele>
        <time>2018-06-01T10:09:25Z</time>
      </trkpt>
      <trkpt lat="45.95365" lon="4.91552">
        <ele>300</ele>
        <time>2018-06-01T10:09:26Z</time>
      </trkpt>
      <trkpt lat="45.95361" lon="4.91546">
        <ele>300</ele>
        <time>2018-06-01T10:09:27Z</time>
      </trkpt>
      <trkpt lat="45.95359" lon="4.91535">
        <ele>300</ele>
        <time>2018-06-01T10:09:29Z</time>
      </trkpt>
      <trkpt lat="45.95359" lon="4.91529">
        <ele>299</ele>
        <time>2018-06-01T10:09:30Z</time>
      </trkpt>
      <trkpt lat="45.95357" lon="4.91518">
        <ele>299</ele>
        <time>2018-06-01T10:09:32Z</time>
      </trkpt>
      <trkpt lat="45.95356" lon="4.91516">
        <ele>299</ele>
        <time>2018-06-01T10:09:33Z</time>
      </trkpt>
      <trkpt lat="45.95355" lon="4.91513">
        <ele>299</ele>
        <time>2018-06-01T10:09:34Z</time>
      </trkpt>
      <trkpt lat="45.95351" lon="4.91504">
        <ele>299</ele>
        <time>2018-06-01T10:09:35Z</time>
      </trkpt>
      <trkpt lat="45.95349" lon="4.91493">
        <ele>298</ele>
        <time>2018-06-01T10:09:37Z</time>
      </trkpt>
      <trkpt lat="45.95349" lon="4.91487">
        <ele>298</ele>
        <time>2018-06-01T10:09:38Z</time>
      </trkpt>
      <trkpt lat="45.95346" lon="4.91475">
        <ele>298</ele>
        <time>2018-06-01T10:09:40Z</time>
      </trkpt>
      <trkpt lat="45.95346" lon="4.91473">
        <ele>299</ele>
        <time>2018-06-01T10:09:41Z</time>
      </trkpt>
      <trkpt lat="45.95345" lon="4.91463">
        <ele>299</ele>
        <time>2018-06-01T10:09:44Z</time>
      </trkpt>
      <trkpt lat="45.95345" lon="4.91452">
        <ele>298</ele>
        <time>2018-06-01T10:09:45Z</time>
      </trkpt>
      <trkpt lat="45.95344" lon="4.91444">
        <ele>298</ele>
        <time>2018-06-01T10:09:48Z</time>
      </trkpt>
      <trkpt lat="45.95343" lon="4.9143">
        <ele>298</ele>
        <time>2018-06-01T10:09:49Z</time>
      </trkpt>
      <trkpt lat="45.95339" lon="4.91423">
        <ele>298</ele>
        <time>2018-06-01T10:09:50Z</time>
      </trkpt>
      <trkpt lat="45.95338" lon="4.91416">
        <ele>298</ele>
        <time>2018-06-01T10:09:51Z</time>
      </trkpt>
      <trkpt lat="45.95336" lon="4.91405">
        <ele>298</ele>
        <time>2018-06-01T10:09:53Z</time>
      </trkpt>
      <trkpt lat="45.95336" lon="4.91402">
        <ele>298</ele>
        <time>2018-06-01T10:09:54Z</time>
      </trkpt>
      <trkpt lat="45.95335" lon="4.91399">
        <ele>298</ele>
        <time>2018-06-01T10:09:55Z</time>
      </trkpt>
      <trkpt lat="45.95332" lon="4.9139">
        <ele>298</ele>
        <time>2018-06-01T10:09:56Z</time>
      </trkpt>
      <trkpt lat="45.9533" lon="4.9138">
        <ele>298</ele>
        <time>2018-06-01T10:09:58Z</time>
      </trkpt>
      <trkpt lat="45.95329" lon="4.91375">
        <ele>298</ele>
        <time>2018-06-01T10:09:59Z</time>
      </trkpt>
      <trkpt lat="45.95329" lon="4.91363">
        <ele>298</ele>
        <time>2018-06-01T10:10:03Z</time>
      </trkpt>
      <trkpt lat="45.95325" lon="4.91351">
        <ele>297</ele>
        <time>2018-06-01T10:10:04Z</time>
      </trkpt>
      <trkpt lat="45.95323" lon="4.91339">
        <ele>297</ele>
        <time>2018-06-01T10:10:09Z</time>
      </trkpt>
      <trkpt lat="45.95323" lon="4.91336">
        <ele>297</ele>
        <time>2018-06-01T10:10:10Z</time>
      </trkpt>
      <trkpt lat="45.95322" lon="4.91324">
        <ele>297</ele>
        <time>2018-06-01T10:10:13Z</time>
      </trkpt>
      <trkpt lat="45.95321" lon="4.9132">
        <ele>298</ele>
        <time>2018-06-01T10:10:14Z</time>
      </trkpt>
      <trkpt lat="45.95318" lon="4.91303">
        <ele>298</ele>
        <time>2018-06-01T10:10:15Z</time>
      </trkpt>
      <trkpt lat="45.95317" lon="4.91293">
        <ele>298</ele>
        <time>2018-06-01T10:10:19Z</time>
      </trkpt>
      <trkpt lat="45.95317" lon="4.9129">
        <ele>298</ele>
        <time>2018-06-01T10:10:20Z</time>
      </trkpt>
      <trkpt lat="45.95318" lon="4.91281">
        <ele>298</ele>
        <time>2018-06-01T10:10:23Z</time>
      </trkpt>
      <trkpt lat="45.95318" lon="4.91277">
        <ele>298</ele>
        <time>2018-06-01T10:10:24Z</time>
      </trkpt>
      <trkpt lat="45.95316" lon="4.91266">
        <ele>298</ele>
        <time>2018-06-01T10:10:27Z</time>
      </trkpt>
      <trkpt lat="45.95316" lon="4.91262">
        <ele>298</ele>
        <time>2018-06-01T10:10:28Z</time>
      </trkpt>
      <trkpt lat="45.95313" lon="4.91254">
        <ele>298</ele>
        <time>2018-06-01T10:10:30Z</time>
      </trkpt>
      <trkpt lat="45.95308" lon="4.91238">
        <ele>299</ele>
        <time>2018-06-01T10:10:31Z</time>
      </trkpt>
      <trkpt lat="45.95304" lon="4.91228">
        <ele>299</ele>
        <time>2018-06-01T10:10:34Z</time>
      </trkpt>
      <trkpt lat="45.95302" lon="4.91223">
        <ele>299</ele>
        <time>2018-06-01T10:10:35Z</time>
      </trkpt>
      <trkpt lat="45.95298" lon="4.91215">
        <ele>299</ele>
        <time>2018-06-01T10:10:37Z</time>
      </trkpt>
      <trkpt lat="45.95291" lon="4.91201">
        <ele>299</ele>
        <time>2018-06-01T10:10:38Z</time>
      </trkpt>
      <trkpt lat="45.95286" lon="4.91194">
        <ele>299</ele>
        <time>2018-06-01T10:10:40Z</time>
      </trkpt>
      <trkpt lat="45.95281" lon="4.91187">
        <ele>299</ele>
        <time>2018-06-01T10:10:41Z</time>
      </trkpt>
      <trkpt lat="45.95277" lon="4.91181">
        <ele>299</ele>
        <time>2018-06-01T10:10:42Z</time>
      </trkpt>
      <trkpt lat="45.95273" lon="4.91176">
        <ele>299</ele>
        <time>2018-06-01T10:10:43Z</time>
      </trkpt>
      <trkpt lat="45.95269" lon="4.91171">
        <ele>299</ele>
        <time>2018-06-01T10:10:44Z</time>
      </trkpt>
      <trkpt lat="45.95266" lon="4.91167">
        <ele>299</ele>
        <time>2018-06-01T10:10:45Z</time>
      </trkpt>
      <trkpt lat="45.95261" lon="4.91157">
        <ele>299</ele>
        <time>2018-06-01T10:10:48Z</time>
      </trkpt>
      <trkpt lat="45.95258" lon="4.91147">
        <ele>299</ele>
        <time>2018-06-01T10:10:49Z</time>
      </trkpt>
      <trkpt lat="45.95255" lon="4.91137">
        <ele>299</ele>
        <time>2018-06-01T10:10:51Z</time>
      </trkpt>
      <trkpt lat="45.95251" lon="4.91129">
        <ele>299</ele>
        <time>2018-06-01T10:10:52Z</time>
      </trkpt>
      <trkpt lat="45.95247" lon="4.91121">
        <ele>298</ele>
        <time>2018-06-01T10:10:54Z</time>
      </trkpt>
      <trkpt lat="45.95246" lon="4.91118">
        <ele>298</ele>
        <time>2018-06-01T10:10:55Z</time>
      </trkpt>
      <trkpt lat="45.9524" lon="4.9111">
        <ele>298</ele>
        <time>2018-06-01T10:10:56Z</time>
      </trkpt>
      <trkpt lat="45.95235" lon="4.91106">
        <ele>298</ele>
        <time>2018-06-01T10:10:57Z</time>
      </trkpt>
      <trkpt lat="45.95231" lon="4.91101">
        <ele>298</ele>
        <time>2018-06-01T10:10:59Z</time>
      </trkpt>
      <trkpt lat="45.95226" lon="4.91094">
        <ele>298</ele>
        <time>2018-06-01T10:11:00Z</time>
      </trkpt>
      <trkpt lat="45.95221" lon="4.91086">
        <ele>298</ele>
        <time>2018-06-01T10:11:03Z</time>
      </trkpt>
      <trkpt lat="45.95215" lon="4.91077">
        <ele>297</ele>
        <time>2018-06-01T10:11:04Z</time>
      </trkpt>
      <trkpt lat="45.95213" lon="4.91072">
        <ele>297</ele>
        <time>2018-06-01T10:11:05Z</time>
      </trkpt>
      <trkpt lat="45.95209" lon="4.91066">
        <ele>297</ele>
        <time>2018-06-01T10:11:06Z</time>
      </trkpt>
      <trkpt lat="45.95206" lon="4.91059">
        <ele>297</ele>
        <time>2018-06-01T10:11:07Z</time>
      </trkpt>
      <trkpt lat="45.95203" lon="4.91053">
        <ele>297</ele>
        <time>2018-06-01T10:11:08Z</time>
      </trkpt>
      <trkpt lat="45.95199" lon="4.91047">
        <ele>297</ele>
        <time>2018-06-01T10:11:09Z</time>
      </trkpt>
      <trkpt lat="45.95196" lon="4.91042">
        <ele>297</ele>
        <time>2018-06-01T10:11:10Z</time>
      </trkpt>
      <trkpt lat="45.95192" lon="4.91032">
        <ele>297</ele>
        <time>2018-06-01T10:11:12Z</time>
      </trkpt>
      <trkpt lat="45.95188" lon="4.91026">
        <ele>297</ele>
        <time>2018-06-01T10:11:13Z</time>
      </trkpt>
      <trkpt lat="45.95185" lon="4.91019">
        <ele>297</ele>
        <time>2018-06-01T10:11:14Z</time>
      </trkpt>
      <trkpt lat="45.95183" lon="4.91012">
        <ele>298</ele>
        <time>2018-06-01T10:11:15Z</time>
      </trkpt>
      <trkpt lat="45.9518" lon="4.91006">
        <ele>298</ele>
        <time>2018-06-01T10:11:16Z</time>
      </trkpt>
      <trkpt lat="45.95178" lon="4.90998">
        <ele>298</ele>
        <time>2018-06-01T10:11:17Z</time>
      </trkpt>
      <trkpt lat="45.95177" lon="4.9099">
        <ele>298</ele>
        <time>2018-06-01T10:11:18Z</time>
      </trkpt>
      <trkpt lat="45.95176" lon="4.90984">
        <ele>298</ele>
        <time>2018-06-01T10:11:19Z</time>
      </trkpt>
      <trkpt lat="45.95174" lon="4.90978">
        <ele>298</ele>
        <time>2018-06-01T10:11:20Z</time>
      </trkpt>
      <trkpt lat="45.95174" lon="4.9097">
        <ele>298</ele>
        <time>2018-06-01T10:11:21Z</time>
      </trkpt>
      <trkpt lat="45.95173" lon="4.90964">
        <ele>298</ele>
        <time>2018-06-01T10:11:22Z</time>
      </trkpt>
      <trkpt lat="45.95173" lon="4.90957">
        <ele>297</ele>
        <time>2018-06-01T10:11:23Z</time>
      </trkpt>
      <trkpt lat="45.95172" lon="4.90949">
        <ele>297</ele>
        <time>2018-06-01T10:11:24Z</time>
      </trkpt>
      <trkpt lat="45.95173" lon="4.90941">
        <ele>297</ele>
        <time>2018-06-01T10:11:25Z</time>
      </trkpt>
      <trkpt lat="45.95172" lon="4.90933">
        <ele>297</ele>
        <time>2018-06-01T10:11:26Z</time>
      </trkpt>
      <trkpt lat="45.95174" lon="4.90924">
        <ele>297</ele>
        <time>2018-06-01T10:11:27Z</time>
      </trkpt>
      <trkpt lat="45.95175" lon="4.90915">
        <ele>297</ele>
        <time>2018-06-01T10:11:28Z</time>
      </trkpt>
      <trkpt lat="45.95176" lon="4.90906">
        <ele>298</ele>
        <time>2018-06-01T10:11:29Z</time>
      </trkpt>
      <trkpt lat="45.95176" lon="4.90899">
        <ele>298</ele>
        <time>2018-06-01T10:11:30Z</time>
      </trkpt>
      <trkpt lat="45.95178" lon="4.9089">
        <ele>298</ele>
        <time>2018-06-01T10:11:31Z</time>
      </trkpt>
      <trkpt lat="45.95179" lon="4.90882">
        <ele>298</ele>
        <time>2018-06-01T10:11:32Z</time>
      </trkpt>
      <trkpt lat="45.95181" lon="4.90874">
        <ele>298</ele>
        <time>2018-06-01T10:11:33Z</time>
      </trkpt>
      <trkpt lat="45.95182" lon="4.90867">
        <ele>298</ele>
        <time>2018-06-01T10:11:34Z</time>
      </trkpt>
      <trkpt lat="45.95183" lon="4.90858">
        <ele>298</ele>
        <time>2018-06-01T10:11:35Z</time>
      </trkpt>
      <trkpt lat="45.95185" lon="4.9085">
        <ele>298</ele>
        <time>2018-06-01T10:11:36Z</time>
      </trkpt>
      <trkpt lat="45.95185" lon="4.90842">
        <ele>298</ele>
        <time>2018-06-01T10:11:37Z</time>
      </trkpt>
      <trkpt lat="45.95186" lon="4.90834">
        <ele>298</ele>
        <time>2018-06-01T10:11:38Z</time>
      </trkpt>
      <trkpt lat="45.95186" lon="4.90825">
        <ele>298</ele>
        <time>2018-06-01T10:11:39Z</time>
      </trkpt>
      <trkpt lat="45.95187" lon="4.90817">
        <ele>298</ele>
        <time>2018-06-01T10:11:40Z</time>
      </trkpt>
      <trkpt lat="45.95187" lon="4.90808">
        <ele>298</ele>
        <time>2018-06-01T10:11:41Z</time>
      </trkpt>
      <trkpt lat="45.95187" lon="4.908">
        <ele>298</ele>
        <time>2018-06-01T10:11:42Z</time>
      </trkpt>
      <trkpt lat="45.95185" lon="4.90793">
        <ele>298</ele>
        <time>2018-06-01T10:11:43Z</time>
      </trkpt>
      <trkpt lat="45.95186" lon="4.90786">
        <ele>298</ele>
        <time>2018-06-01T10:11:44Z</time>
      </trkpt>
      <trkpt lat="45.95183" lon="4.90777">
        <ele>298</ele>
        <time>2018-06-01T10:11:45Z</time>
      </trkpt>
      <trkpt lat="45.95182" lon="4.90769">
        <ele>298</ele>
        <time>2018-06-01T10:11:46Z</time>
      </trkpt>
      <trkpt lat="45.95182" lon="4.90761">
        <ele>298</ele>
        <time>2018-06-01T10:11:47Z</time>
      </trkpt>
      <trkpt lat="45.95184" lon="4.90754">
        <ele>298</ele>
        <time>2018-06-01T10:11:48Z</time>
      </trkpt>
      <trkpt lat="45.95184" lon="4.90747">
        <ele>297</ele>
        <time>2018-06-01T10:11:49Z</time>
      </trkpt>
      <trkpt lat="45.95185" lon="4.9074">
        <ele>297</ele>
        <time>2018-06-01T10:11:50Z</time>
      </trkpt>
      <trkpt lat="45.95185" lon="4.90732">
        <ele>297</ele>
        <time>2018-06-01T10:11:51Z</time>
      </trkpt>
      <trkpt lat="45.95185" lon="4.90725">
        <ele>297</ele>
        <time>2018-06-01T10:11:52Z</time>
      </trkpt>
      <trkpt lat="45.95186" lon="4.90719">
        <ele>297</ele>
        <time>2018-06-01T10:11:53Z</time>
      </trkpt>
      <trkpt lat="45.95184" lon="4.90712">
        <ele>297</ele>
        <time>2018-06-01T10:11:54Z</time>
      </trkpt>
      <trkpt lat="45.95185" lon="4.90705">
        <ele>297</ele>
        <time>2018-06-01T10:11:55Z</time>
      </trkpt>
      <trkpt lat="45.95185" lon="4.90698">
        <ele>297</ele>
        <time>2018-06-01T10:11:56Z</time>
      </trkpt>
      <trkpt lat="45.95184" lon="4.9069">
        <ele>297</ele>
        <time>2018-06-01T10:11:57Z</time>
      </trkpt>
      <trkpt lat="45.95183" lon="4.90684">
        <ele>297</ele>
        <time>2018-06-01T10:11:58Z</time>
      </trkpt>
      <trkpt lat="45.95184" lon="4.90677">
        <ele>297</ele>
        <time>2018-06-01T10:11:59Z</time>
      </trkpt>
      <trkpt lat="45.95183" lon="4.9067">
        <ele>296</ele>
        <time>2018-06-01T10:12:00Z</time>
      </trkpt>
      <trkpt lat="45.95183" lon="4.90663">
        <ele>295</ele>
        <time>2018-06-01T10:12:01Z</time>
      </trkpt>
      <trkpt lat="45.95184" lon="4.90656">
        <ele>295</ele>
        <time>2018-06-01T10:12:02Z</time>
      </trkpt>
      <trkpt lat="45.95185" lon="4.90649">
        <ele>296</ele>
        <time>2018-06-01T10:12:03Z</time>
      </trkpt>
      <trkpt lat="45.95184" lon="4.90641">
        <ele>295</ele>
        <time>2018-06-01T10:12:04Z</time>
      </trkpt>
      <trkpt lat="45.95185" lon="4.90633">
        <ele>295</ele>
        <time>2018-06-01T10:12:05Z</time>
      </trkpt>
      <trkpt lat="45.95187" lon="4.90625">
        <ele>295</ele>
        <time>2018-06-01T10:12:06Z</time>
      </trkpt>
      <trkpt lat="45.95187" lon="4.90615">
        <ele>295</ele>
        <time>2018-06-01T10:12:07Z</time>
      </trkpt>
      <trkpt lat="45.95189" lon="4.90608">
        <ele>295</ele>
        <time>2018-06-01T10:12:08Z</time>
      </trkpt>
      <trkpt lat="45.95189" lon="4.90601">
        <ele>295</ele>
        <time>2018-06-01T10:12:09Z</time>
      </trkpt>
      <trkpt lat="45.95189" lon="4.90593">
        <ele>295</ele>
        <time>2018-06-01T10:12:10Z</time>
      </trkpt>
      <trkpt lat="45.9519" lon="4.90584">
        <ele>295</ele>
        <time>2018-06-01T10:12:11Z</time>
      </trkpt>
      <trkpt lat="45.95192" lon="4.90572">
        <ele>293</ele>
        <time>2018-06-01T10:12:13Z</time>
      </trkpt>
      <trkpt lat="45.95192" lon="4.90563">
        <ele>293</ele>
        <time>2018-06-01T10:12:14Z</time>
      </trkpt>
      <trkpt lat="45.95193" lon="4.90553">
        <ele>293</ele>
        <time>2018-06-01T10:12:15Z</time>
      </trkpt>
      <trkpt lat="45.95192" lon="4.90544">
        <ele>293</ele>
        <time>2018-06-01T10:12:16Z</time>
      </trkpt>
      <trkpt lat="45.95192" lon="4.90536">
        <ele>293</ele>
        <time>2018-06-01T10:12:17Z</time>
      </trkpt>
      <trkpt lat="45.95192" lon="4.90527">
        <ele>292</ele>
        <time>2018-06-01T10:12:18Z</time>
      </trkpt>
      <trkpt lat="45.95192" lon="4.90517">
        <ele>292</ele>
        <time>2018-06-01T10:12:19Z</time>
      </trkpt>
      <trkpt lat="45.95193" lon="4.90509">
        <ele>292</ele>
        <time>2018-06-01T10:12:20Z</time>
      </trkpt>
      <trkpt lat="45.95194" lon="4.90499">
        <ele>291</ele>
        <time>2018-06-01T10:12:21Z</time>
      </trkpt>
      <trkpt lat="45.95194" lon="4.90489">
        <ele>290</ele>
        <time>2018-06-01T10:12:22Z</time>
      </trkpt>
      <trkpt lat="45.95193" lon="4.90479">
        <ele>290</ele>
        <time>2018-06-01T10:12:23Z</time>
      </trkpt>
      <trkpt lat="45.95192" lon="4.9047">
        <ele>290</ele>
        <time>2018-06-01T10:12:24Z</time>
      </trkpt>
      <trkpt lat="45.95192" lon="4.90461">
        <ele>290</ele>
        <time>2018-06-01T10:12:25Z</time>
      </trkpt>
      <trkpt lat="45.95192" lon="4.90451">
        <ele>290</ele>
        <time>2018-06-01T10:12:26Z</time>
      </trkpt>
      <trkpt lat="45.95193" lon="4.90443">
        <ele>290</ele>
        <time>2018-06-01T10:12:27Z</time>
      </trkpt>
      <trkpt lat="45.95194" lon="4.90433">
        <ele>289</ele>
        <time>2018-06-01T10:12:28Z</time>
      </trkpt>
      <trkpt lat="45.95195" lon="4.90426">
        <ele>289</ele>
        <time>2018-06-01T10:12:29Z</time>
      </trkpt>
      <trkpt lat="45.95196" lon="4.90416">
        <ele>288</ele>
        <time>2018-06-01T10:12:30Z</time>
      </trkpt>
      <trkpt lat="45.95196" lon="4.90406">
        <ele>288</ele>
        <time>2018-06-01T10:12:31Z</time>
      </trkpt>
      <trkpt lat="45.95198" lon="4.90399">
        <ele>288</ele>
        <time>2018-06-01T10:12:32Z</time>
      </trkpt>
      <trkpt lat="45.95199" lon="4.90389">
        <ele>288</ele>
        <time>2018-06-01T10:12:33Z</time>
      </trkpt>
      <trkpt lat="45.95201" lon="4.90379">
        <ele>288</ele>
        <time>2018-06-01T10:12:34Z</time>
      </trkpt>
      <trkpt lat="45.95202" lon="4.9037">
        <ele>288</ele>
        <time>2018-06-01T10:12:35Z</time>
      </trkpt>
      <trkpt lat="45.95203" lon="4.9036">
        <ele>288</ele>
        <time>2018-06-01T10:12:36Z</time>
      </trkpt>
      <trkpt lat="45.95204" lon="4.90352">
        <ele>288</ele>
        <time>2018-06-01T10:12:37Z</time>
      </trkpt>
      <trkpt lat="45.95206" lon="4.90344">
        <ele>288</ele>
        <time>2018-06-01T10:12:38Z</time>
      </trkpt>
      <trkpt lat="45.95206" lon="4.90335">
        <ele>288</ele>
        <time>2018-06-01T10:12:39Z</time>
      </trkpt>
      <trkpt lat="45.95208" lon="4.90326">
        <ele>287</ele>
        <time>2018-06-01T10:12:40Z</time>
      </trkpt>
      <trkpt lat="45.9521" lon="4.90318">
        <ele>287</ele>
        <time>2018-06-01T10:12:41Z</time>
      </trkpt>
      <trkpt lat="45.95211" lon="4.90309">
        <ele>287</ele>
        <time>2018-06-01T10:12:42Z</time>
      </trkpt>
      <trkpt lat="45.95212" lon="4.90299">
        <ele>287</ele>
        <time>2018-06-01T10:12:43Z</time>
      </trkpt>
      <trkpt lat="45.95214" lon="4.90292">
        <ele>287</ele>
        <time>2018-06-01T10:12:44Z</time>
      </trkpt>
      <trkpt lat="45.95215" lon="4.90283">
        <ele>287</ele>
        <time>2018-06-01T10:12:45Z</time>
      </trkpt>
      <trkpt lat="45.95215" lon="4.90275">
        <ele>287</ele>
        <time>2018-06-01T10:12:46Z</time>
      </trkpt>
      <trkpt lat="45.95216" lon="4.90266">
        <ele>287</ele>
        <time>2018-06-01T10:12:47Z</time>
      </trkpt>
      <trkpt lat="45.95216" lon="4.90257">
        <ele>287</ele>
        <time>2018-06-01T10:12:48Z</time>
      </trkpt>
      <trkpt lat="45.95215" lon="4.90248">
        <ele>286</ele>
        <time>2018-06-01T10:12:49Z</time>
      </trkpt>
      <trkpt lat="45.95215" lon="4.90239">
        <ele>286</ele>
        <time>2018-06-01T10:12:50Z</time>
      </trkpt>
      <trkpt lat="45.95213" lon="4.9023">
        <ele>286</ele>
        <time>2018-06-01T10:12:51Z</time>
      </trkpt>
      <trkpt lat="45.95213" lon="4.90222">
        <ele>286</ele>
        <time>2018-06-01T10:12:52Z</time>
      </trkpt>
      <trkpt lat="45.95213" lon="4.90213">
        <ele>286</ele>
        <time>2018-06-01T10:12:53Z</time>
      </trkpt>
      <trkpt lat="45.95212" lon="4.90205">
        <ele>286</ele>
        <time>2018-06-01T10:12:54Z</time>
      </trkpt>
      <trkpt lat="45.95211" lon="4.90196">
        <ele>286</ele>
        <time>2018-06-01T10:12:55Z</time>
      </trkpt>
      <trkpt lat="45.95209" lon="4.90187">
        <ele>286</ele>
        <time>2018-06-01T10:12:56Z</time>
      </trkpt>
      <trkpt lat="45.95206" lon="4.90181">
        <ele>287</ele>
        <time>2018-06-01T10:12:57Z</time>
      </trkpt>
      <trkpt lat="45.95203" lon="4.90174">
        <ele>287</ele>
        <time>2018-06-01T10:12:58Z</time>
      </trkpt>
      <trkpt lat="45.95198" lon="4.9017">
        <ele>287</ele>
        <time>2018-06-01T10:12:59Z</time>
      </trkpt>
      <trkpt lat="45.95192" lon="4.90168">
        <ele>287</ele>
        <time>2018-06-01T10:13:00Z</time>
      </trkpt>
      <trkpt lat="45.95186" lon="4.90168">
        <ele>287</ele>
        <time>2018-06-01T10:13:01Z</time>
      </trkpt>
      <trkpt lat="45.95181" lon="4.90171">
        <ele>287</ele>
        <time>2018-06-01T10:13:02Z</time>
      </trkpt>
      <trkpt lat="45.95174" lon="4.90172">
        <ele>287</ele>
        <time>2018-06-01T10:13:03Z</time>
      </trkpt>
      <trkpt lat="45.95169" lon="4.90175">
        <ele>287</ele>
        <time>2018-06-01T10:13:04Z</time>
      </trkpt>
      <trkpt lat="45.95163" lon="4.90176">
        <ele>287</ele>
        <time>2018-06-01T10:13:05Z</time>
      </trkpt>
      <trkpt lat="45.95157" lon="4.90175">
        <ele>287</ele>
        <time>2018-06-01T10:13:06Z</time>
      </trkpt>
      <trkpt lat="45.95151" lon="4.90174">
        <ele>287</ele>
        <time>2018-06-01T10:13:07Z</time>
      </trkpt>
      <trkpt lat="45.95146" lon="4.90172">
        <ele>287</ele>
        <time>2018-06-01T10:13:08Z</time>
      </trkpt>
      <trkpt lat="45.95141" lon="4.90169">
        <ele>287</ele>
        <time>2018-06-01T10:13:09Z</time>
      </trkpt>
      <trkpt lat="45.95134" lon="4.90166">
        <ele>286</ele>
        <time>2018-06-01T10:13:10Z</time>
      </trkpt>
      <trkpt lat="45.95129" lon="4.90162">
        <ele>286</ele>
        <time>2018-06-01T10:13:11Z</time>
      </trkpt>
      <trkpt lat="45.95122" lon="4.90158">
        <ele>286</ele>
        <time>2018-06-01T10:13:12Z</time>
      </trkpt>
      <trkpt lat="45.95116" lon="4.90153">
        <ele>286</ele>
        <time>2018-06-01T10:13:13Z</time>
      </trkpt>
      <trkpt lat="45.9511" lon="4.90149">
        <ele>286</ele>
        <time>2018-06-01T10:13:14Z</time>
      </trkpt>
      <trkpt lat="45.95104" lon="4.90144">
        <ele>286</ele>
        <time>2018-06-01T10:13:15Z</time>
      </trkpt>
      <trkpt lat="45.95098" lon="4.90137">
        <ele>286</ele>
        <time>2018-06-01T10:13:16Z</time>
      </trkpt>
      <trkpt lat="45.95093" lon="4.90131">
        <ele>286</ele>
        <time>2018-06-01T10:13:17Z</time>
      </trkpt>
      <trkpt lat="45.95087" lon="4.90124">
        <ele>286</ele>
        <time>2018-06-01T10:13:18Z</time>
      </trkpt>
      <trkpt lat="45.95082" lon="4.90118">
        <ele>285</ele>
        <time>2018-06-01T10:13:19Z</time>
      </trkpt>
      <trkpt lat="45.95077" lon="4.90111">
        <ele>285</ele>
        <time>2018-06-01T10:13:20Z</time>
      </trkpt>
      <trkpt lat="45.95072" lon="4.90104">
        <ele>285</ele>
        <time>2018-06-01T10:13:21Z</time>
      </trkpt>
      <trkpt lat="45.95068" lon="4.90098">
        <ele>285</ele>
        <time>2018-06-01T10:13:22Z</time>
      </trkpt>
      <trkpt lat="45.95063" lon="4.90091">
        <ele>285</ele>
        <time>2018-06-01T10:13:23Z</time>
      </trkpt>
      <trkpt lat="45.95058" lon="4.90085">
        <ele>285</ele>
        <time>2018-06-01T10:13:24Z</time>
      </trkpt>
      <trkpt lat="45.95053" lon="4.90078">
        <ele>285</ele>
        <time>2018-06-01T10:13:25Z</time>
      </trkpt>
      <trkpt lat="45.95048" lon="4.90071">
        <ele>285</ele>
        <time>2018-06-01T10:13:26Z</time>
      </trkpt>
      <trkpt lat="45.95043" lon="4.90064">
        <ele>285</ele>
        <time>2018-06-01T10:13:27Z</time>
      </trkpt>
      <trkpt lat="45.95039" lon="4.90058">
        <ele>285</ele>
        <time>2018-06-01T10:13:28Z</time>
      </trkpt>
      <trkpt lat="45.95034" lon="4.90052">
        <ele>285</ele>
        <time>2018-06-01T10:13:29Z</time>
      </trkpt>
      <trkpt lat="45.95031" lon="4.90044">
        <ele>284</ele>
        <time>2018-06-01T10:13:30Z</time>
      </trkpt>
      <trkpt lat="45.95028" lon="4.90037">
        <ele>284</ele>
        <time>2018-06-01T10:13:31Z</time>
      </trkpt>
      <trkpt lat="45.95024" lon="4.9003">
        <ele>284</ele>
        <time>2018-06-01T10:13:32Z</time>
      </trkpt>
      <trkpt lat="45.9502" lon="4.90023">
        <ele>284</ele>
        <time>2018-06-01T10:13:33Z</time>
      </trkpt>
      <trkpt lat="45.95016" lon="4.90015">
        <ele>284</ele>
        <time>2018-06-01T10:13:34Z</time>
      </trkpt>
      <trkpt lat="45.95013" lon="4.90008">
        <ele>284</ele>
        <time>2018-06-01T10:13:35Z</time>
      </trkpt>
      <trkpt lat="45.95009" lon="4.90001">
        <ele>283</ele>
        <time>2018-06-01T10:13:36Z</time>
      </trkpt>
      <trkpt lat="45.95004" lon="4.89993">
        <ele>283</ele>
        <time>2018-06-01T10:13:37Z</time>
      </trkpt>
      <trkpt lat="45.95" lon="4.89984">
        <ele>283</ele>
        <time>2018-06-01T10:13:38Z</time>
      </trkpt>
      <trkpt lat="45.94997" lon="4.89976">
        <ele>284</ele>
        <time>2018-06-01T10:13:39Z</time>
      </trkpt>
      <trkpt lat="45.94991" lon="4.89971">
        <ele>284</ele>
        <time>2018-06-01T10:13:40Z</time>
      </trkpt>
      <trkpt lat="45.94987" lon="4.89964">
        <ele>284</ele>
        <time>2018-06-01T10:13:41Z</time>
      </trkpt>
      <trkpt lat="45.94982" lon="4.89957">
        <ele>284</ele>
        <time>2018-06-01T10:13:42Z</time>
      </trkpt>
      <trkpt lat="45.94975" lon="4.8995">
        <ele>284</ele>
        <time>2018-06-01T10:13:43Z</time>
      </trkpt>
      <trkpt lat="45.94972" lon="4.89943">
        <ele>284</ele>
        <time>2018-06-01T10:13:44Z</time>
      </trkpt>
      <trkpt lat="45.94967" lon="4.89936">
        <ele>284</ele>
        <time>2018-06-01T10:13:45Z</time>
      </trkpt>
      <trkpt lat="45.94961" lon="4.8993">
        <ele>284</ele>
        <time>2018-06-01T10:13:46Z</time>
      </trkpt>
      <trkpt lat="45.94955" lon="4.89924">
        <ele>284</ele>
        <time>2018-06-01T10:13:47Z</time>
      </trkpt>
      <trkpt lat="45.9495" lon="4.89918">
        <ele>284</ele>
        <time>2018-06-01T10:13:48Z</time>
      </trkpt>
      <trkpt lat="45.94946" lon="4.89912">
        <ele>284</ele>
        <time>2018-06-01T10:13:49Z</time>
      </trkpt>
      <trkpt lat="45.94942" lon="4.89906">
        <ele>284</ele>
        <time>2018-06-01T10:13:50Z</time>
      </trkpt>
      <trkpt lat="45.94938" lon="4.899">
        <ele>284</ele>
        <time>2018-06-01T10:13:51Z</time>
      </trkpt>
      <trkpt lat="45.94934" lon="4.89893">
        <ele>284</ele>
        <time>2018-06-01T10:13:52Z</time>
      </trkpt>
      <trkpt lat="45.9493" lon="4.89886">
        <ele>284</ele>
        <time>2018-06-01T10:13:53Z</time>
      </trkpt>
      <trkpt lat="45.94928" lon="4.89879">
        <ele>284</ele>
        <time>2018-06-01T10:13:54Z</time>
      </trkpt>
      <trkpt lat="45.94924" lon="4.89871">
        <ele>284</ele>
        <time>2018-06-01T10:13:55Z</time>
      </trkpt>
      <trkpt lat="45.94923" lon="4.89862">
        <ele>284</ele>
        <time>2018-06-01T10:13:56Z</time>
      </trkpt>
      <trkpt lat="45.94921" lon="4.89854">
        <ele>284</ele>
        <time>2018-06-01T10:13:57Z</time>
      </trkpt>
      <trkpt lat="45.94921" lon="4.89844">
        <ele>284</ele>
        <time>2018-06-01T10:13:58Z</time>
      </trkpt>
      <trkpt lat="45.94919" lon="4.89834">
        <ele>284</ele>
        <time>2018-06-01T10:13:59Z</time>
      </trkpt>
      <trkpt lat="45.94918" lon="4.89825">
        <ele>284</ele>
        <time>2018-06-01T10:14:00Z</time>
      </trkpt>
      <trkpt lat="45.9492" lon="4.89818">
        <ele>284</ele>
        <time>2018-06-01T10:14:01Z</time>
      </trkpt>
      <trkpt lat="45.94923" lon="4.89808">
        <ele>284</ele>
        <time>2018-06-01T10:14:02Z</time>
      </trkpt>
      <trkpt lat="45.94925" lon="4.89798">
        <ele>284</ele>
        <time>2018-06-01T10:14:03Z</time>
      </trkpt>
      <trkpt lat="45.94924" lon="4.89789">
        <ele>284</ele>
        <time>2018-06-01T10:14:04Z</time>
      </trkpt>
      <trkpt lat="45.94926" lon="4.8978">
        <ele>284</ele>
        <time>2018-06-01T10:14:05Z</time>
      </trkpt>
      <trkpt lat="45.94929" lon="4.89771">
        <ele>284</ele>
        <time>2018-06-01T10:14:06Z</time>
      </trkpt>
      <trkpt lat="45.94931" lon="4.89763">
        <ele>284</ele>
        <time>2018-06-01T10:14:07Z</time>
      </trkpt>
      <trkpt lat="45.94933" lon="4.89755">
        <ele>284</ele>
        <time>2018-06-01T10:14:08Z</time>
      </trkpt>
      <trkpt lat="45.94936" lon="4.89746">
        <ele>285</ele>
        <time>2018-06-01T10:14:09Z</time>
      </trkpt>
      <trkpt lat="45.94938" lon="4.89738">
        <ele>284</ele>
        <time>2018-06-01T10:14:10Z</time>
      </trkpt>
      <trkpt lat="45.94941" lon="4.8973">
        <ele>284</ele>
        <time>2018-06-01T10:14:11Z</time>
      </trkpt>
      <trkpt lat="45.94944" lon="4.89721">
        <ele>284</ele>
        <time>2018-06-01T10:14:12Z</time>
      </trkpt>
      <trkpt lat="45.94947" lon="4.89713">
        <ele>284</ele>
        <time>2018-06-01T10:14:13Z</time>
      </trkpt>
      <trkpt lat="45.94949" lon="4.89703">
        <ele>284</ele>
        <time>2018-06-01T10:14:14Z</time>
      </trkpt>
      <trkpt lat="45.94952" lon="4.89695">
        <ele>284</ele>
        <time>2018-06-01T10:14:15Z</time>
      </trkpt>
      <trkpt lat="45.94954" lon="4.89686">
        <ele>284</ele>
        <time>2018-06-01T10:14:16Z</time>
      </trkpt>
      <trkpt lat="45.94956" lon="4.89676">
        <ele>284</ele>
        <time>2018-06-01T10:14:17Z</time>
      </trkpt>
      <trkpt lat="45.94959" lon="4.89667">
        <ele>284</ele>
        <time>2018-06-01T10:14:18Z</time>
      </trkpt>
      <trkpt lat="45.94962" lon="4.89658">
        <ele>285</ele>
        <time>2018-06-01T10:14:19Z</time>
      </trkpt>
      <trkpt lat="45.94964" lon="4.89649">
        <ele>285</ele>
        <time>2018-06-01T10:14:20Z</time>
      </trkpt>
      <trkpt lat="45.94967" lon="4.8964">
        <ele>285</ele>
        <time>2018-06-01T10:14:21Z</time>
      </trkpt>
      <trkpt lat="45.9497" lon="4.89631">
        <ele>285</ele>
        <time>2018-06-01T10:14:22Z</time>
      </trkpt>
      <trkpt lat="45.94975" lon="4.89621">
        <ele>285</ele>
        <time>2018-06-01T10:14:23Z</time>
      </trkpt>
      <trkpt lat="45.94978" lon="4.89612">
        <ele>285</ele>
        <time>2018-06-01T10:14:24Z</time>
      </trkpt>
      <trkpt lat="45.94981" lon="4.89601">
        <ele>285</ele>
        <time>2018-06-01T10:14:25Z</time>
      </trkpt>
      <trkpt lat="45.94984" lon="4.89591">
        <ele>284</ele>
        <time>2018-06-01T10:14:26Z</time>
      </trkpt>
      <trkpt lat="45.94987" lon="4.89582">
        <ele>284</ele>
        <time>2018-06-01T10:14:27Z</time>
      </trkpt>
      <trkpt lat="45.94989" lon="4.89574">
        <ele>284</ele>
        <time>2018-06-01T10:14:28Z</time>
      </trkpt>
      <trkpt lat="45.9499" lon="4.89565">
        <ele>284</ele>
        <time>2018-06-01T10:14:29Z</time>
      </trkpt>
      <trkpt lat="45.94992" lon="4.89557">
        <ele>285</ele>
        <time>2018-06-01T10:14:30Z</time>
      </trkpt>
      <trkpt lat="45.94994" lon="4.89549">
        <ele>285</ele>
        <time>2018-06-01T10:14:31Z</time>
      </trkpt>
      <trkpt lat="45.94997" lon="4.89541">
        <ele>284</ele>
        <time>2018-06-01T10:14:32Z</time>
      </trkpt>
      <trkpt lat="45.95001" lon="4.89533">
        <ele>283</ele>
        <time>2018-06-01T10:14:33Z</time>
      </trkpt>
      <trkpt lat="45.95006" lon="4.89527">
        <ele>283</ele>
        <time>2018-06-01T10:14:34Z</time>
      </trkpt>
      <trkpt lat="45.95012" lon="4.89522">
        <ele>283</ele>
        <time>2018-06-01T10:14:35Z</time>
      </trkpt>
      <trkpt lat="45.95018" lon="4.89519">
        <ele>283</ele>
        <time>2018-06-01T10:14:36Z</time>
      </trkpt>
      <trkpt lat="45.95024" lon="4.89516">
        <ele>283</ele>
        <time>2018-06-01T10:14:37Z</time>
      </trkpt>
      <trkpt lat="45.9503" lon="4.89514">
        <ele>283</ele>
        <time>2018-06-01T10:14:38Z</time>
      </trkpt>
      <trkpt lat="45.95037" lon="4.89512">
        <ele>283</ele>
        <time>2018-06-01T10:14:39Z</time>
      </trkpt>
      <trkpt lat="45.95044" lon="4.89509">
        <ele>283</ele>
        <time>2018-06-01T10:14:40Z</time>
      </trkpt>
      <trkpt lat="45.95051" lon="4.89507">
        <ele>283</ele>
        <time>2018-06-01T10:14:41Z</time>
      </trkpt>
      <trkpt lat="45.95058" lon="4.89506">
        <ele>282</ele>
        <time>2018-06-01T10:14:42Z</time>
      </trkpt>
      <trkpt lat="45.95064" lon="4.89504">
        <ele>282</ele>
        <time>2018-06-01T10:14:43Z</time>
      </trkpt>
      <trkpt lat="45.9507" lon="4.89501">
        <ele>282</ele>
        <time>2018-06-01T10:14:44Z</time>
      </trkpt>
      <trkpt lat="45.95076" lon="4.89496">
        <ele>282</ele>
        <time>2018-06-01T10:14:45Z</time>
      </trkpt>
      <trkpt lat="45.95081" lon="4.89492">
        <ele>282</ele>
        <time>2018-06-01T10:14:46Z</time>
      </trkpt>
      <trkpt lat="45.95083" lon="4.89486">
        <ele>282</ele>
        <time>2018-06-01T10:14:47Z</time>
      </trkpt>
      <trkpt lat="45.95084" lon="4.89478">
        <ele>282</ele>
        <time>2018-06-01T10:14:48Z</time>
      </trkpt>
      <trkpt lat="45.95083" lon="4.8947">
        <ele>282</ele>
        <time>2018-06-01T10:14:49Z</time>
      </trkpt>
      <trkpt lat="45.95082" lon="4.89461">
        <ele>282</ele>
        <time>2018-06-01T10:14:50Z</time>
      </trkpt>
      <trkpt lat="45.95081" lon="4.89454">
        <ele>282</ele>
        <time>2018-06-01T10:14:51Z</time>
      </trkpt>
      <trkpt lat="45.9508" lon="4.89446">
        <ele>282</ele>
        <time>2018-06-01T10:14:52Z</time>
      </trkpt>
      <trkpt lat="45.95078" lon="4.89438">
        <ele>282</ele>
        <time>2018-06-01T10:14:53Z</time>
      </trkpt>
      <trkpt lat="45.95076" lon="4.8943">
        <ele>282</ele>
        <time>2018-06-01T10:14:54Z</time>
      </trkpt>
      <trkpt lat="45.95075" lon="4.89421">
        <ele>282</ele>
        <time>2018-06-01T10:14:55Z</time>
      </trkpt>
      <trkpt lat="45.95075" lon="4.89412">
        <ele>282</ele>
        <time>2018-06-01T10:14:56Z</time>
      </trkpt>
      <trkpt lat="45.95073" lon="4.89404">
        <ele>283</ele>
        <time>2018-06-01T10:14:57Z</time>
      </trkpt>
      <trkpt lat="45.95072" lon="4.89396">
        <ele>283</ele>
        <time>2018-06-01T10:14:58Z</time>
      </trkpt>
      <trkpt lat="45.95073" lon="4.89387">
        <ele>283</ele>
        <time>2018-06-01T10:14:59Z</time>
      </trkpt>
      <trkpt lat="45.95073" lon="4.89378">
        <ele>283</ele>
        <time>2018-06-01T10:15:00Z</time>
      </trkpt>
      <trkpt lat="45.95073" lon="4.8937">
        <ele>283</ele>
        <time>2018-06-01T10:15:01Z</time>
      </trkpt>
      <trkpt lat="45.95068" lon="4.89361">
        <ele>283</ele>
        <time>2018-06-01T10:15:02Z</time>
      </trkpt>
      <trkpt lat="45.95068" lon="4.89352">
        <ele>283</ele>
        <time>2018-06-01T10:15:03Z</time>
      </trkpt>
      <trkpt lat="45.95069" lon="4.89342">
        <ele>283</ele>
        <time>2018-06-01T10:15:04Z</time>
      </trkpt>
      <trkpt lat="45.9507" lon="4.89331">
        <ele>283</ele>
        <time>2018-06-01T10:15:05Z</time>
      </trkpt>
      <trkpt lat="45.95072" lon="4.89323">
        <ele>283</ele>
        <time>2018-06-01T10:15:06Z</time>
      </trkpt>
      <trkpt lat="45.95073" lon="4.89315">
        <ele>283</ele>
        <time>2018-06-01T10:15:07Z</time>
      </trkpt>
      <trkpt lat="45.9507" lon="4.89305">
        <ele>283</ele>
        <time>2018-06-01T10:15:08Z</time>
      </trkpt>
      <trkpt lat="45.95069" lon="4.89295">
        <ele>283</ele>
        <time>2018-06-01T10:15:09Z</time>
      </trkpt>
      <trkpt lat="45.9507" lon="4.89287">
        <ele>283</ele>
        <time>2018-06-01T10:15:10Z</time>
      </trkpt>
      <trkpt lat="45.95071" lon="4.8928">
        <ele>283</ele>
        <time>2018-06-01T10:15:11Z</time>
      </trkpt>
      <trkpt lat="45.95072" lon="4.8927">
        <ele>283</ele>
        <time>2018-06-01T10:15:12Z</time>
      </trkpt>
      <trkpt lat="45.9507" lon="4.89261">
        <ele>283</ele>
        <time>2018-06-01T10:15:13Z</time>
      </trkpt>
      <trkpt lat="45.95071" lon="4.89251">
        <ele>283</ele>
        <time>2018-06-01T10:15:14Z</time>
      </trkpt>
      <trkpt lat="45.95071" lon="4.89243">
        <ele>284</ele>
        <time>2018-06-01T10:15:15Z</time>
      </trkpt>
      <trkpt lat="45.95072" lon="4.89235">
        <ele>284</ele>
        <time>2018-06-01T10:15:16Z</time>
      </trkpt>
      <trkpt lat="45.95073" lon="4.89227">
        <ele>284</ele>
        <time>2018-06-01T10:15:17Z</time>
      </trkpt>
      <trkpt lat="45.95073" lon="4.89218">
        <ele>284</ele>
        <time>2018-06-01T10:15:18Z</time>
      </trkpt>
      <trkpt lat="45.95073" lon="4.89209">
        <ele>284</ele>
        <time>2018-06-01T10:15:19Z</time>
      </trkpt>
      <trkpt lat="45.95074" lon="4.89201">
        <ele>284</ele>
        <time>2018-06-01T10:15:20Z</time>
      </trkpt>
      <trkpt lat="45.95074" lon="4.89193">
        <ele>284</ele>
        <time>2018-06-01T10:15:21Z</time>
      </trkpt>
      <trkpt lat="45.95075" lon="4.89185">
        <ele>284</ele>
        <time>2018-06-01T10:15:22Z</time>
      </trkpt>
      <trkpt lat="45.95075" lon="4.89176">
        <ele>284</ele>
        <time>2018-06-01T10:15:23Z</time>
      </trkpt>
      <trkpt lat="45.95076" lon="4.89169">
        <ele>284</ele>
        <time>2018-06-01T10:15:24Z</time>
      </trkpt>
      <trkpt lat="45.95076" lon="4.89162">
        <ele>284</ele>
        <time>2018-06-01T10:15:25Z</time>
      </trkpt>
      <trkpt lat="45.95075" lon="4.89153">
        <ele>284</ele>
        <time>2018-06-01T10:15:26Z</time>
      </trkpt>
      <trkpt lat="45.95076" lon="4.89146">
        <ele>285</ele>
        <time>2018-06-01T10:15:27Z</time>
      </trkpt>
      <trkpt lat="45.95077" lon="4.8914">
        <ele>285</ele>
        <time>2018-06-01T10:15:28Z</time>
      </trkpt>
      <trkpt lat="45.95077" lon="4.8913">
        <ele>285</ele>
        <time>2018-06-01T10:15:29Z</time>
      </trkpt>
      <trkpt lat="45.95077" lon="4.89124">
        <ele>285</ele>
        <time>2018-06-01T10:15:30Z</time>
      </trkpt>
      <trkpt lat="45.9508" lon="4.89116">
        <ele>285</ele>
        <time>2018-06-01T10:15:31Z</time>
      </trkpt>
      <trkpt lat="45.9508" lon="4.89109">
        <ele>285</ele>
        <time>2018-06-01T10:15:32Z</time>
      </trkpt>
      <trkpt lat="45.95081" lon="4.89101">
        <ele>284</ele>
        <time>2018-06-01T10:15:33Z</time>
      </trkpt>
      <trkpt lat="45.95082" lon="4.89094">
        <ele>284</ele>
        <time>2018-06-01T10:15:34Z</time>
      </trkpt>
      <trkpt lat="45.95082" lon="4.89086">
        <ele>284</ele>
        <time>2018-06-01T10:15:35Z</time>
      </trkpt>
      <trkpt lat="45.95082" lon="4.89076">
        <ele>284</ele>
        <time>2018-06-01T10:15:36Z</time>
      </trkpt>
      <trkpt lat="45.95083" lon="4.89068">
        <ele>285</ele>
        <time>2018-06-01T10:15:37Z</time>
      </trkpt>
      <trkpt lat="45.95083" lon="4.8906">
        <ele>285</ele>
        <time>2018-06-01T10:15:38Z</time>
      </trkpt>
      <trkpt lat="45.95084" lon="4.89052">
        <ele>284</ele>
        <time>2018-06-01T10:15:39Z</time>
      </trkpt>
      <trkpt lat="45.95084" lon="4.89043">
        <ele>284</ele>
        <time>2018-06-01T10:15:40Z</time>
      </trkpt>
      <trkpt lat="45.95085" lon="4.89037">
        <ele>284</ele>
        <time>2018-06-01T10:15:41Z</time>
      </trkpt>
      <trkpt lat="45.95085" lon="4.89029">
        <ele>284</ele>
        <time>2018-06-01T10:15:42Z</time>
      </trkpt>
      <trkpt lat="45.95087" lon="4.89021">
        <ele>284</ele>
        <time>2018-06-01T10:15:43Z</time>
      </trkpt>
      <trkpt lat="45.95088" lon="4.89013">
        <ele>284</ele>
        <time>2018-06-01T10:15:44Z</time>
      </trkpt>
      <trkpt lat="45.95088" lon="4.89005">
        <ele>285</ele>
        <time>2018-06-01T10:15:45Z</time>
      </trkpt>
      <trkpt lat="45.95089" lon="4.88997">
        <ele>285</ele>
        <time>2018-06-01T10:15:46Z</time>
      </trkpt>
      <trkpt lat="45.9509" lon="4.88989">
        <ele>285</ele>
        <time>2018-06-01T10:15:47Z</time>
      </trkpt>
      <trkpt lat="45.9509" lon="4.88981">
        <ele>285</ele>
        <time>2018-06-01T10:15:48Z</time>
      </trkpt>
      <trkpt lat="45.9509" lon="4.88974">
        <ele>285</ele>
        <time>2018-06-01T10:15:49Z</time>
      </trkpt>
      <trkpt lat="45.95089" lon="4.88966">
        <ele>284</ele>
        <time>2018-06-01T10:15:50Z</time>
      </trkpt>
      <trkpt lat="45.95094" lon="4.88959">
        <ele>284</ele>
        <time>2018-06-01T10:15:51Z</time>
      </trkpt>
      <trkpt lat="45.95094" lon="4.88951">
        <ele>285</ele>
        <time>2018-06-01T10:15:52Z</time>
      </trkpt>
      <trkpt lat="45.95095" lon="4.88943">
        <ele>285</ele>
        <time>2018-06-01T10:15:53Z</time>
      </trkpt>
      <trkpt lat="45.95095" lon="4.88933">
        <ele>285</ele>
        <time>2018-06-01T10:15:54Z</time>
      </trkpt>
      <trkpt lat="45.95094" lon="4.88924">
        <ele>285</ele>
        <time>2018-06-01T10:15:55Z</time>
      </trkpt>
      <trkpt lat="45.95095" lon="4.88916">
        <ele>285</ele>
        <time>2018-06-01T10:15:56Z</time>
      </trkpt>
      <trkpt lat="45.95095" lon="4.88908">
        <ele>285</ele>
        <time>2018-06-01T10:15:57Z</time>
      </trkpt>
      <trkpt lat="45.95096" lon="4.88899">
        <ele>285</ele>
        <time>2018-06-01T10:15:58Z</time>
      </trkpt>
      <trkpt lat="45.95096" lon="4.88892">
        <ele>285</ele>
        <time>2018-06-01T10:15:59Z</time>
      </trkpt>
      <trkpt lat="45.95097" lon="4.88883">
        <ele>285</ele>
        <time>2018-06-01T10:16:00Z</time>
      </trkpt>
      <trkpt lat="45.95099" lon="4.88874">
        <ele>285</ele>
        <time>2018-06-01T10:16:01Z</time>
      </trkpt>
      <trkpt lat="45.95099" lon="4.88865">
        <ele>285</ele>
        <time>2018-06-01T10:16:02Z</time>
      </trkpt>
      <trkpt lat="45.95098" lon="4.88857">
        <ele>285</ele>
        <time>2018-06-01T10:16:03Z</time>
      </trkpt>
      <trkpt lat="45.95098" lon="4.88849">
        <ele>286</ele>
        <time>2018-06-01T10:16:04Z</time>
      </trkpt>
      <trkpt lat="45.95099" lon="4.88841">
        <ele>286</ele>
        <time>2018-06-01T10:16:05Z</time>
      </trkpt>
      <trkpt lat="45.95101" lon="4.88832">
        <ele>286</ele>
        <time>2018-06-01T10:16:06Z</time>
      </trkpt>
      <trkpt lat="45.95102" lon="4.88825">
        <ele>286</ele>
        <time>2018-06-01T10:16:07Z</time>
      </trkpt>
      <trkpt lat="45.95104" lon="4.88816">
        <ele>286</ele>
        <time>2018-06-01T10:16:08Z</time>
      </trkpt>
      <trkpt lat="45.95104" lon="4.88808">
        <ele>286</ele>
        <time>2018-06-01T10:16:09Z</time>
      </trkpt>
      <trkpt lat="45.95105" lon="4.888">
        <ele>286</ele>
        <time>2018-06-01T10:16:10Z</time>
      </trkpt>
      <trkpt lat="45.95106" lon="4.88791">
        <ele>287</ele>
        <time>2018-06-01T10:16:11Z</time>
      </trkpt>
      <trkpt lat="45.95107" lon="4.88783">
        <ele>287</ele>
        <time>2018-06-01T10:16:12Z</time>
      </trkpt>
      <trkpt lat="45.95107" lon="4.88772">
        <ele>287</ele>
        <time>2018-06-01T10:16:14Z</time>
      </trkpt>
      <trkpt lat="45.95108" lon="4.88765">
        <ele>287</ele>
        <time>2018-06-01T10:16:15Z</time>
      </trkpt>
      <trkpt lat="45.95108" lon="4.88757">
        <ele>287</ele>
        <time>2018-06-01T10:16:16Z</time>
      </trkpt>
      <trkpt lat="45.95108" lon="4.8875">
        <ele>288</ele>
        <time>2018-06-01T10:16:17Z</time>
      </trkpt>
      <trkpt lat="45.95109" lon="4.88743">
        <ele>288</ele>
        <time>2018-06-01T10:16:18Z</time>
      </trkpt>
      <trkpt lat="45.95109" lon="4.88736">
        <ele>288</ele>
        <time>2018-06-01T10:16:19Z</time>
      </trkpt>
      <trkpt lat="45.9511" lon="4.88723">
        <ele>289</ele>
        <time>2018-06-01T10:16:21Z</time>
      </trkpt>
      <trkpt lat="45.95111" lon="4.88717">
        <ele>289</ele>
        <time>2018-06-01T10:16:22Z</time>
      </trkpt>
      <trkpt lat="45.95111" lon="4.88711">
        <ele>289</ele>
        <time>2018-06-01T10:16:23Z</time>
      </trkpt>
      <trkpt lat="45.9511" lon="4.88703">
        <ele>289</ele>
        <time>2018-06-01T10:16:24Z</time>
      </trkpt>
      <trkpt lat="45.9511" lon="4.88691">
        <ele>289</ele>
        <time>2018-06-01T10:16:26Z</time>
      </trkpt>
      <trkpt lat="45.95109" lon="4.88684">
        <ele>289</ele>
        <time>2018-06-01T10:16:27Z</time>
      </trkpt>
      <trkpt lat="45.95111" lon="4.88672">
        <ele>289</ele>
        <time>2018-06-01T10:16:29Z</time>
      </trkpt>
      <trkpt lat="45.95112" lon="4.88666">
        <ele>290</ele>
        <time>2018-06-01T10:16:30Z</time>
      </trkpt>
      <trkpt lat="45.95111" lon="4.88659">
        <ele>290</ele>
        <time>2018-06-01T10:16:31Z</time>
      </trkpt>
      <trkpt lat="45.95111" lon="4.88652">
        <ele>290</ele>
        <time>2018-06-01T10:16:32Z</time>
      </trkpt>
      <trkpt lat="45.95112" lon="4.88645">
        <ele>290</ele>
        <time>2018-06-01T10:16:33Z</time>
      </trkpt>
      <trkpt lat="45.95113" lon="4.88638">
        <ele>290</ele>
        <time>2018-06-01T10:16:34Z</time>
      </trkpt>
      <trkpt lat="45.95113" lon="4.88632">
        <ele>290</ele>
        <time>2018-06-01T10:16:35Z</time>
      </trkpt>
      <trkpt lat="45.95112" lon="4.88625">
        <ele>290</ele>
        <time>2018-06-01T10:16:36Z</time>
      </trkpt>
      <trkpt lat="45.95113" lon="4.88617">
        <ele>290</ele>
        <time>2018-06-01T10:16:37Z</time>
      </trkpt>
      <trkpt lat="45.95113" lon="4.8861">
        <ele>290</ele>
        <time>2018-06-01T10:16:38Z</time>
      </trkpt>
      <trkpt lat="45.95115" lon="4.88599">
        <ele>290</ele>
        <time>2018-06-01T10:16:40Z</time>
      </trkpt>
      <trkpt lat="45.95114" lon="4.88594">
        <ele>290</ele>
        <time>2018-06-01T10:16:41Z</time>
      </trkpt>
      <trkpt lat="45.95116" lon="4.88582">
        <ele>291</ele>
        <time>2018-06-01T10:16:43Z</time>
      </trkpt>
      <trkpt lat="45.95113" lon="4.88573">
        <ele>291</ele>
        <time>2018-06-01T10:16:44Z</time>
      </trkpt>
      <trkpt lat="45.95112" lon="4.88566">
        <ele>291</ele>
        <time>2018-06-01T10:16:45Z</time>
      </trkpt>
      <trkpt lat="45.95111" lon="4.88559">
        <ele>291</ele>
        <time>2018-06-01T10:16:46Z</time>
      </trkpt>
      <trkpt lat="45.95111" lon="4.88554">
        <ele>291</ele>
        <time>2018-06-01T10:16:47Z</time>
      </trkpt>
      <trkpt lat="45.9511" lon="4.88546">
        <ele>291</ele>
        <time>2018-06-01T10:16:48Z</time>
      </trkpt>
      <trkpt lat="45.95108" lon="4.88539">
        <ele>291</ele>
        <time>2018-06-01T10:16:49Z</time>
      </trkpt>
      <trkpt lat="45.95107" lon="4.88531">
        <ele>291</ele>
        <time>2018-06-01T10:16:50Z</time>
      </trkpt>
      <trkpt lat="45.95106" lon="4.88524">
        <ele>291</ele>
        <time>2018-06-01T10:16:51Z</time>
      </trkpt>
      <trkpt lat="45.95105" lon="4.88517">
        <ele>291</ele>
        <time>2018-06-01T10:16:52Z</time>
      </trkpt>
      <trkpt lat="45.95103" lon="4.88507">
        <ele>290</ele>
        <time>2018-06-01T10:16:53Z</time>
      </trkpt>
      <trkpt lat="45.95101" lon="4.88498">
        <ele>291</ele>
        <time>2018-06-01T10:16:54Z</time>
      </trkpt>
      <trkpt lat="45.95099" lon="4.88491">
        <ele>291</ele>
        <time>2018-06-01T10:16:55Z</time>
      </trkpt>
      <trkpt lat="45.95097" lon="4.88483">
        <ele>291</ele>
        <time>2018-06-01T10:16:56Z</time>
      </trkpt>
      <trkpt lat="45.95096" lon="4.88475">
        <ele>291</ele>
        <time>2018-06-01T10:16:57Z</time>
      </trkpt>
      <trkpt lat="45.95095" lon="4.88467">
        <ele>291</ele>
        <time>2018-06-01T10:16:58Z</time>
      </trkpt>
      <trkpt lat="45.95095" lon="4.88458">
        <ele>291</ele>
        <time>2018-06-01T10:16:59Z</time>
      </trkpt>
      <trkpt lat="45.95094" lon="4.88448">
        <ele>291</ele>
        <time>2018-06-01T10:17:00Z</time>
      </trkpt>
      <trkpt lat="45.95095" lon="4.88438">
        <ele>291</ele>
        <time>2018-06-01T10:17:01Z</time>
      </trkpt>
      <trkpt lat="45.95096" lon="4.8843">
        <ele>291</ele>
        <time>2018-06-01T10:17:02Z</time>
      </trkpt>
      <trkpt lat="45.95098" lon="4.88421">
        <ele>291</ele>
        <time>2018-06-01T10:17:03Z</time>
      </trkpt>
      <trkpt lat="45.951" lon="4.88412">
        <ele>290</ele>
        <time>2018-06-01T10:17:04Z</time>
      </trkpt>
      <trkpt lat="45.95101" lon="4.88404">
        <ele>290</ele>
        <time>2018-06-01T10:17:05Z</time>
      </trkpt>
      <trkpt lat="45.95104" lon="4.88396">
        <ele>290</ele>
        <time>2018-06-01T10:17:06Z</time>
      </trkpt>
      <trkpt lat="45.95106" lon="4.8839">
        <ele>290</ele>
        <time>2018-06-01T10:17:07Z</time>
      </trkpt>
      <trkpt lat="45.95107" lon="4.88382">
        <ele>290</ele>
        <time>2018-06-01T10:17:08Z</time>
      </trkpt>
      <trkpt lat="45.95108" lon="4.88375">
        <ele>290</ele>
        <time>2018-06-01T10:17:09Z</time>
      </trkpt>
      <trkpt lat="45.9511" lon="4.88367">
        <ele>290</ele>
        <time>2018-06-01T10:17:10Z</time>
      </trkpt>
      <trkpt lat="45.95111" lon="4.88358">
        <ele>290</ele>
        <time>2018-06-01T10:17:11Z</time>
      </trkpt>
      <trkpt lat="45.95112" lon="4.8835">
        <ele>290</ele>
        <time>2018-06-01T10:17:12Z</time>
      </trkpt>
      <trkpt lat="45.95114" lon="4.88341">
        <ele>290</ele>
        <time>2018-06-01T10:17:13Z</time>
      </trkpt>
      <trkpt lat="45.95115" lon="4.88333">
        <ele>289</ele>
        <time>2018-06-01T10:17:14Z</time>
      </trkpt>
      <trkpt lat="45.95116" lon="4.88325">
        <ele>289</ele>
        <time>2018-06-01T10:17:15Z</time>
      </trkpt>
      <trkpt lat="45.95118" lon="4.88317">
        <ele>289</ele>
        <time>2018-06-01T10:17:16Z</time>
      </trkpt>
      <trkpt lat="45.95119" lon="4.88308">
        <ele>289</ele>
        <time>2018-06-01T10:17:17Z</time>
      </trkpt>
      <trkpt lat="45.95121" lon="4.88299">
        <ele>289</ele>
        <time>2018-06-01T10:17:18Z</time>
      </trkpt>
      <trkpt lat="45.95123" lon="4.88291">
        <ele>289</ele>
        <time>2018-06-01T10:17:19Z</time>
      </trkpt>
      <trkpt lat="45.95124" lon="4.88283">
        <ele>289</ele>
        <time>2018-06-01T10:17:20Z</time>
      </trkpt>
      <trkpt lat="45.95126" lon="4.88274">
        <ele>289</ele>
        <time>2018-06-01T10:17:21Z</time>
      </trkpt>
      <trkpt lat="45.95126" lon="4.88266">
        <ele>289</ele>
        <time>2018-06-01T10:17:22Z</time>
      </trkpt>
      <trkpt lat="45.95128" lon="4.88259">
        <ele>289</ele>
        <time>2018-06-01T10:17:23Z</time>
      </trkpt>
      <trkpt lat="45.95129" lon="4.8825">
        <ele>289</ele>
        <time>2018-06-01T10:17:24Z</time>
      </trkpt>
      <trkpt lat="45.95128" lon="4.88243">
        <ele>287</ele>
        <time>2018-06-01T10:17:25Z</time>
      </trkpt>
      <trkpt lat="45.95127" lon="4.88235">
        <ele>287</ele>
        <time>2018-06-01T10:17:26Z</time>
      </trkpt>
      <trkpt lat="45.95127" lon="4.88228">
        <ele>287</ele>
        <time>2018-06-01T10:17:27Z</time>
      </trkpt>
      <trkpt lat="45.95127" lon="4.8822">
        <ele>287</ele>
        <time>2018-06-01T10:17:28Z</time>
      </trkpt>
      <trkpt lat="45.95127" lon="4.88212">
        <ele>287</ele>
        <time>2018-06-01T10:17:29Z</time>
      </trkpt>
      <trkpt lat="45.95131" lon="4.88204">
        <ele>287</ele>
        <time>2018-06-01T10:17:30Z</time>
      </trkpt>
      <trkpt lat="45.95135" lon="4.88198">
        <ele>287</ele>
        <time>2018-06-01T10:17:31Z</time>
      </trkpt>
      <trkpt lat="45.95138" lon="4.88192">
        <ele>286</ele>
        <time>2018-06-01T10:17:32Z</time>
      </trkpt>
      <trkpt lat="45.95141" lon="4.88186">
        <ele>286</ele>
        <time>2018-06-01T10:17:33Z</time>
      </trkpt>
      <trkpt lat="45.95144" lon="4.88181">
        <ele>286</ele>
        <time>2018-06-01T10:17:34Z</time>
      </trkpt>
      <trkpt lat="45.95151" lon="4.8818">
        <ele>286</ele>
        <time>2018-06-01T10:17:35Z</time>
      </trkpt>
      <trkpt lat="45.95155" lon="4.88179">
        <ele>286</ele>
        <time>2018-06-01T10:17:36Z</time>
      </trkpt>
      <trkpt lat="45.9516" lon="4.88178">
        <ele>286</ele>
        <time>2018-06-01T10:17:37Z</time>
      </trkpt>
      <trkpt lat="45.95165" lon="4.88174">
        <ele>285</ele>
        <time>2018-06-01T10:17:38Z</time>
      </trkpt>
      <trkpt lat="45.9517" lon="4.88164">
        <ele>284</ele>
        <time>2018-06-01T10:17:40Z</time>
      </trkpt>
      <trkpt lat="45.95171" lon="4.88155">
        <ele>284</ele>
        <time>2018-06-01T10:17:41Z</time>
      </trkpt>
      <trkpt lat="45.95177" lon="4.88144">
        <ele>283</ele>
        <time>2018-06-01T10:17:42Z</time>
      </trkpt>
      <trkpt lat="45.9518" lon="4.88135">
        <ele>283</ele>
        <time>2018-06-01T10:17:43Z</time>
      </trkpt>
      <trkpt lat="45.95181" lon="4.88125">
        <ele>282</ele>
        <time>2018-06-01T10:17:44Z</time>
      </trkpt>
      <trkpt lat="45.95183" lon="4.88115">
        <ele>282</ele>
        <time>2018-06-01T10:17:45Z</time>
      </trkpt>
      <trkpt lat="45.95183" lon="4.88106">
        <ele>282</ele>
        <time>2018-06-01T10:17:46Z</time>
      </trkpt>
      <trkpt lat="45.95184" lon="4.88097">
        <ele>282</ele>
        <time>2018-06-01T10:17:47Z</time>
      </trkpt>
      <trkpt lat="45.95186" lon="4.88089">
        <ele>282</ele>
        <time>2018-06-01T10:17:48Z</time>
      </trkpt>
      <trkpt lat="45.95188" lon="4.88081">
        <ele>281</ele>
        <time>2018-06-01T10:17:49Z</time>
      </trkpt>
      <trkpt lat="45.95191" lon="4.88075">
        <ele>281</ele>
        <time>2018-06-01T10:17:50Z</time>
      </trkpt>
      <trkpt lat="45.95193" lon="4.88067">
        <ele>281</ele>
        <time>2018-06-01T10:17:51Z</time>
      </trkpt>
      <trkpt lat="45.95195" lon="4.88059">
        <ele>281</ele>
        <time>2018-06-01T10:17:52Z</time>
      </trkpt>
      <trkpt lat="45.95198" lon="4.88051">
        <ele>281</ele>
        <time>2018-06-01T10:17:53Z</time>
      </trkpt>
      <trkpt lat="45.95203" lon="4.88045">
        <ele>281</ele>
        <time>2018-06-01T10:17:54Z</time>
      </trkpt>
      <trkpt lat="45.95206" lon="4.88039">
        <ele>281</ele>
        <time>2018-06-01T10:17:55Z</time>
      </trkpt>
      <trkpt lat="45.9521" lon="4.88033">
        <ele>281</ele>
        <time>2018-06-01T10:17:56Z</time>
      </trkpt>
      <trkpt lat="45.95214" lon="4.88027">
        <ele>281</ele>
        <time>2018-06-01T10:17:57Z</time>
      </trkpt>
      <trkpt lat="45.95219" lon="4.88021">
        <ele>281</ele>
        <time>2018-06-01T10:17:58Z</time>
      </trkpt>
      <trkpt lat="45.95223" lon="4.88014">
        <ele>281</ele>
        <time>2018-06-01T10:17:59Z</time>
      </trkpt>
      <trkpt lat="45.95228" lon="4.88008">
        <ele>280</ele>
        <time>2018-06-01T10:18:00Z</time>
      </trkpt>
      <trkpt lat="45.95233" lon="4.87998">
        <ele>281</ele>
        <time>2018-06-01T10:18:01Z</time>
      </trkpt>
      <trkpt lat="45.95237" lon="4.87992">
        <ele>281</ele>
        <time>2018-06-01T10:18:02Z</time>
      </trkpt>
      <trkpt lat="45.95242" lon="4.87987">
        <ele>281</ele>
        <time>2018-06-01T10:18:03Z</time>
      </trkpt>
      <trkpt lat="45.95245" lon="4.87982">
        <ele>281</ele>
        <time>2018-06-01T10:18:04Z</time>
      </trkpt>
      <trkpt lat="45.95248" lon="4.87977">
        <ele>281</ele>
        <time>2018-06-01T10:18:05Z</time>
      </trkpt>
      <trkpt lat="45.95254" lon="4.8797">
        <ele>280</ele>
        <time>2018-06-01T10:18:06Z</time>
      </trkpt>
      <trkpt lat="45.95255" lon="4.87964">
        <ele>280</ele>
        <time>2018-06-01T10:18:07Z</time>
      </trkpt>
      <trkpt lat="45.95258" lon="4.87958">
        <ele>280</ele>
        <time>2018-06-01T10:18:08Z</time>
      </trkpt>
      <trkpt lat="45.95261" lon="4.87951">
        <ele>280</ele>
        <time>2018-06-01T10:18:09Z</time>
      </trkpt>
      <trkpt lat="45.95262" lon="4.87943">
        <ele>280</ele>
        <time>2018-06-01T10:18:10Z</time>
      </trkpt>
      <trkpt lat="45.95264" lon="4.87934">
        <ele>280</ele>
        <time>2018-06-01T10:18:11Z</time>
      </trkpt>
      <trkpt lat="45.95265" lon="4.87926">
        <ele>281</ele>
        <time>2018-06-01T10:18:12Z</time>
      </trkpt>
      <trkpt lat="45.95266" lon="4.87919">
        <ele>281</ele>
        <time>2018-06-01T10:18:13Z</time>
      </trkpt>
      <trkpt lat="45.95265" lon="4.87911">
        <ele>281</ele>
        <time>2018-06-01T10:18:14Z</time>
      </trkpt>
      <trkpt lat="45.95263" lon="4.87902">
        <ele>281</ele>
        <time>2018-06-01T10:18:15Z</time>
      </trkpt>
      <trkpt lat="45.95263" lon="4.87894">
        <ele>281</ele>
        <time>2018-06-01T10:18:16Z</time>
      </trkpt>
      <trkpt lat="45.95262" lon="4.87886">
        <ele>281</ele>
        <time>2018-06-01T10:18:17Z</time>
      </trkpt>
      <trkpt lat="45.95258" lon="4.87877">
        <ele>281</ele>
        <time>2018-06-01T10:18:18Z</time>
      </trkpt>
      <trkpt lat="45.95255" lon="4.87869">
        <ele>281</ele>
        <time>2018-06-01T10:18:19Z</time>
      </trkpt>
      <trkpt lat="45.95255" lon="4.87862">
        <ele>281</ele>
        <time>2018-06-01T10:18:20Z</time>
      </trkpt>
      <trkpt lat="45.95253" lon="4.87853">
        <ele>281</ele>
        <time>2018-06-01T10:18:21Z</time>
      </trkpt>
      <trkpt lat="45.95251" lon="4.87845">
        <ele>281</ele>
        <time>2018-06-01T10:18:22Z</time>
      </trkpt>
      <trkpt lat="45.9525" lon="4.87838">
        <ele>282</ele>
        <time>2018-06-01T10:18:23Z</time>
      </trkpt>
      <trkpt lat="45.95248" lon="4.87829">
        <ele>282</ele>
        <time>2018-06-01T10:18:24Z</time>
      </trkpt>
      <trkpt lat="45.95247" lon="4.87821">
        <ele>282</ele>
        <time>2018-06-01T10:18:25Z</time>
      </trkpt>
      <trkpt lat="45.95247" lon="4.87813">
        <ele>282</ele>
        <time>2018-06-01T10:18:26Z</time>
      </trkpt>
      <trkpt lat="45.95246" lon="4.87803">
        <ele>282</ele>
        <time>2018-06-01T10:18:27Z</time>
      </trkpt>
      <trkpt lat="45.95245" lon="4.87795">
        <ele>282</ele>
        <time>2018-06-01T10:18:28Z</time>
      </trkpt>
      <trkpt lat="45.95243" lon="4.87786">
        <ele>282</ele>
        <time>2018-06-01T10:18:29Z</time>
      </trkpt>
      <trkpt lat="45.95242" lon="4.87777">
        <ele>282</ele>
        <time>2018-06-01T10:18:30Z</time>
      </trkpt>
      <trkpt lat="45.9524" lon="4.87768">
        <ele>281</ele>
        <time>2018-06-01T10:18:31Z</time>
      </trkpt>
      <trkpt lat="45.95236" lon="4.8776">
        <ele>281</ele>
        <time>2018-06-01T10:18:32Z</time>
      </trkpt>
      <trkpt lat="45.95235" lon="4.87751">
        <ele>281</ele>
        <time>2018-06-01T10:18:33Z</time>
      </trkpt>
      <trkpt lat="45.95233" lon="4.87742">
        <ele>280</ele>
        <time>2018-06-01T10:18:34Z</time>
      </trkpt>
      <trkpt lat="45.95231" lon="4.87733">
        <ele>280</ele>
        <time>2018-06-01T10:18:35Z</time>
      </trkpt>
      <trkpt lat="45.95229" lon="4.87724">
        <ele>280</ele>
        <time>2018-06-01T10:18:36Z</time>
      </trkpt>
      <trkpt lat="45.95228" lon="4.87717">
        <ele>279</ele>
        <time>2018-06-01T10:18:37Z</time>
      </trkpt>
      <trkpt lat="45.95226" lon="4.87709">
        <ele>279</ele>
        <time>2018-06-01T10:18:38Z</time>
      </trkpt>
      <trkpt lat="45.95226" lon="4.877">
        <ele>279</ele>
        <time>2018-06-01T10:18:39Z</time>
      </trkpt>
      <trkpt lat="45.95225" lon="4.87691">
        <ele>279</ele>
        <time>2018-06-01T10:18:40Z</time>
      </trkpt>
      <trkpt lat="45.95223" lon="4.8768">
        <ele>278</ele>
        <time>2018-06-01T10:18:41Z</time>
      </trkpt>
      <trkpt lat="45.95221" lon="4.87669">
        <ele>278</ele>
        <time>2018-06-01T10:18:42Z</time>
      </trkpt>
      <trkpt lat="45.95218" lon="4.87659">
        <ele>276</ele>
        <time>2018-06-01T10:18:43Z</time>
      </trkpt>
      <trkpt lat="45.95217" lon="4.87648">
        <ele>276</ele>
        <time>2018-06-01T10:18:44Z</time>
      </trkpt>
      <trkpt lat="45.95216" lon="4.87637">
        <ele>276</ele>
        <time>2018-06-01T10:18:45Z</time>
      </trkpt>
      <trkpt lat="45.95214" lon="4.87625">
        <ele>276</ele>
        <time>2018-06-01T10:18:46Z</time>
      </trkpt>
      <trkpt lat="45.95213" lon="4.87614">
        <ele>276</ele>
        <time>2018-06-01T10:18:47Z</time>
      </trkpt>
      <trkpt lat="45.95213" lon="4.87603">
        <ele>276</ele>
        <time>2018-06-01T10:18:48Z</time>
      </trkpt>
      <trkpt lat="45.95212" lon="4.8759">
        <ele>276</ele>
        <time>2018-06-01T10:18:49Z</time>
      </trkpt>
      <trkpt lat="45.95211" lon="4.87577">
        <ele>274</ele>
        <time>2018-06-01T10:18:50Z</time>
      </trkpt>
      <trkpt lat="45.95208" lon="4.87563">
        <ele>274</ele>
        <time>2018-06-01T10:18:51Z</time>
      </trkpt>
      <trkpt lat="45.95208" lon="4.8755">
        <ele>274</ele>
        <time>2018-06-01T10:18:52Z</time>
      </trkpt>
      <trkpt lat="45.95206" lon="4.87538">
        <ele>274</ele>
        <time>2018-06-01T10:18:53Z</time>
      </trkpt>
      <trkpt lat="45.95204" lon="4.8753">
        <ele>274</ele>
        <time>2018-06-01T10:18:54Z</time>
      </trkpt>
      <trkpt lat="45.95202" lon="4.87517">
        <ele>273</ele>
        <time>2018-06-01T10:18:55Z</time>
      </trkpt>
      <trkpt lat="45.95198" lon="4.87504">
        <ele>273</ele>
        <time>2018-06-01T10:18:56Z</time>
      </trkpt>
      <trkpt lat="45.95196" lon="4.87494">
        <ele>272</ele>
        <time>2018-06-01T10:18:57Z</time>
      </trkpt>
      <trkpt lat="45.95193" lon="4.87483">
        <ele>272</ele>
        <time>2018-06-01T10:18:58Z</time>
      </trkpt>
      <trkpt lat="45.95191" lon="4.87472">
        <ele>272</ele>
        <time>2018-06-01T10:18:59Z</time>
      </trkpt>
      <trkpt lat="45.95188" lon="4.87458">
        <ele>272</ele>
        <time>2018-06-01T10:19:00Z</time>
      </trkpt>
      <trkpt lat="45.95185" lon="4.87448">
        <ele>272</ele>
        <time>2018-06-01T10:19:01Z</time>
      </trkpt>
      <trkpt lat="45.95185" lon="4.87435">
        <ele>272</ele>
        <time>2018-06-01T10:19:02Z</time>
      </trkpt>
      <trkpt lat="45.95182" lon="4.87425">
        <ele>271</ele>
        <time>2018-06-01T10:19:03Z</time>
      </trkpt>
      <trkpt lat="45.95179" lon="4.87414">
        <ele>271</ele>
        <time>2018-06-01T10:19:04Z</time>
      </trkpt>
      <trkpt lat="45.95177" lon="4.87405">
        <ele>271</ele>
        <time>2018-06-01T10:19:05Z</time>
      </trkpt>
      <trkpt lat="45.95174" lon="4.87395">
        <ele>271</ele>
        <time>2018-06-01T10:19:06Z</time>
      </trkpt>
      <trkpt lat="45.9517" lon="4.87385">
        <ele>271</ele>
        <time>2018-06-01T10:19:07Z</time>
      </trkpt>
      <trkpt lat="45.95168" lon="4.87376">
        <ele>271</ele>
        <time>2018-06-01T10:19:08Z</time>
      </trkpt>
      <trkpt lat="45.95167" lon="4.87366">
        <ele>271</ele>
        <time>2018-06-01T10:19:09Z</time>
      </trkpt>
      <trkpt lat="45.95165" lon="4.87355">
        <ele>272</ele>
        <time>2018-06-01T10:19:10Z</time>
      </trkpt>
      <trkpt lat="45.95163" lon="4.87345">
        <ele>272</ele>
        <time>2018-06-01T10:19:11Z</time>
      </trkpt>
      <trkpt lat="45.9516" lon="4.87336">
        <ele>272</ele>
        <time>2018-06-01T10:19:12Z</time>
      </trkpt>
      <trkpt lat="45.95158" lon="4.87327">
        <ele>272</ele>
        <time>2018-06-01T10:19:13Z</time>
      </trkpt>
      <trkpt lat="45.95154" lon="4.87319">
        <ele>273</ele>
        <time>2018-06-01T10:19:14Z</time>
      </trkpt>
      <trkpt lat="45.95153" lon="4.8731">
        <ele>273</ele>
        <time>2018-06-01T10:19:15Z</time>
      </trkpt>
      <trkpt lat="45.95152" lon="4.87299">
        <ele>274</ele>
        <time>2018-06-01T10:19:16Z</time>
      </trkpt>
      <trkpt lat="45.9515" lon="4.8729">
        <ele>274</ele>
        <time>2018-06-01T10:19:17Z</time>
      </trkpt>
      <trkpt lat="45.95148" lon="4.87282">
        <ele>274</ele>
        <time>2018-06-01T10:19:18Z</time>
      </trkpt>
      <trkpt lat="45.95147" lon="4.87274">
        <ele>274</ele>
        <time>2018-06-01T10:19:19Z</time>
      </trkpt>
      <trkpt lat="45.95145" lon="4.87265">
        <ele>274</ele>
        <time>2018-06-01T10:19:20Z</time>
      </trkpt>
      <trkpt lat="45.95144" lon="4.87259">
        <ele>274</ele>
        <time>2018-06-01T10:19:21Z</time>
      </trkpt>
      <trkpt lat="45.95143" lon="4.87251">
        <ele>274</ele>
        <time>2018-06-01T10:19:22Z</time>
      </trkpt>
      <trkpt lat="45.95141" lon="4.87244">
        <ele>275</ele>
        <time>2018-06-01T10:19:23Z</time>
      </trkpt>
      <trkpt lat="45.95139" lon="4.87235">
        <ele>276</ele>
        <time>2018-06-01T10:19:24Z</time>
      </trkpt>
      <trkpt lat="45.95137" lon="4.87226">
        <ele>276</ele>
        <time>2018-06-01T10:19:25Z</time>
      </trkpt>
      <trkpt lat="45.95136" lon="4.87221">
        <ele>276</ele>
        <time>2018-06-01T10:19:26Z</time>
      </trkpt>
      <trkpt lat="45.95134" lon="4.87215">
        <ele>276</ele>
        <time>2018-06-01T10:19:27Z</time>
      </trkpt>
      <trkpt lat="45.95132" lon="4.87208">
        <ele>276</ele>
        <time>2018-06-01T10:19:28Z</time>
      </trkpt>
      <trkpt lat="45.9513" lon="4.87199">
        <ele>276</ele>
        <time>2018-06-01T10:19:29Z</time>
      </trkpt>
      <trkpt lat="45.95131" lon="4.87193">
        <ele>276</ele>
        <time>2018-06-01T10:19:30Z</time>
      </trkpt>
      <trkpt lat="45.95129" lon="4.87187">
        <ele>276</ele>
        <time>2018-06-01T10:19:31Z</time>
      </trkpt>
      <trkpt lat="45.95128" lon="4.8718">
        <ele>276</ele>
        <time>2018-06-01T10:19:32Z</time>
      </trkpt>
      <trkpt lat="45.95126" lon="4.87168">
        <ele>276</ele>
        <time>2018-06-01T10:19:34Z</time>
      </trkpt>
      <trkpt lat="45.95125" lon="4.87161">
        <ele>276</ele>
        <time>2018-06-01T10:19:35Z</time>
      </trkpt>
      <trkpt lat="45.95122" lon="4.87156">
        <ele>276</ele>
        <time>2018-06-01T10:19:36Z</time>
      </trkpt>
      <trkpt lat="45.95121" lon="4.87148">
        <ele>276</ele>
        <time>2018-06-01T10:19:37Z</time>
      </trkpt>
      <trkpt lat="45.95119" lon="4.87141">
        <ele>276</ele>
        <time>2018-06-01T10:19:38Z</time>
      </trkpt>
      <trkpt lat="45.95119" lon="4.87134">
        <ele>276</ele>
        <time>2018-06-01T10:19:39Z</time>
      </trkpt>
      <trkpt lat="45.95117" lon="4.87122">
        <ele>276</ele>
        <time>2018-06-01T10:19:41Z</time>
      </trkpt>
      <trkpt lat="45.95116" lon="4.87116">
        <ele>276</ele>
        <time>2018-06-01T10:19:42Z</time>
      </trkpt>
      <trkpt lat="45.95114" lon="4.87108">
        <ele>277</ele>
        <time>2018-06-01T10:19:43Z</time>
      </trkpt>
      <trkpt lat="45.9511" lon="4.87099">
        <ele>277</ele>
        <time>2018-06-01T10:19:44Z</time>
      </trkpt>
      <trkpt lat="45.95106" lon="4.87094">
        <ele>277</ele>
        <time>2018-06-01T10:19:45Z</time>
      </trkpt>
      <trkpt lat="45.95106" lon="4.87087">
        <ele>277</ele>
        <time>2018-06-01T10:19:46Z</time>
      </trkpt>
      <trkpt lat="45.95104" lon="4.8708">
        <ele>277</ele>
        <time>2018-06-01T10:19:47Z</time>
      </trkpt>
      <trkpt lat="45.95102" lon="4.87075">
        <ele>277</ele>
        <time>2018-06-01T10:19:48Z</time>
      </trkpt>
      <trkpt lat="45.95097" lon="4.87069">
        <ele>277</ele>
        <time>2018-06-01T10:19:49Z</time>
      </trkpt>
      <trkpt lat="45.95094" lon="4.87064">
        <ele>277</ele>
        <time>2018-06-01T10:19:50Z</time>
      </trkpt>
      <trkpt lat="45.95091" lon="4.87058">
        <ele>277</ele>
        <time>2018-06-01T10:19:51Z</time>
      </trkpt>
      <trkpt lat="45.95089" lon="4.87052">
        <ele>277</ele>
        <time>2018-06-01T10:19:52Z</time>
      </trkpt>
      <trkpt lat="45.95086" lon="4.87045">
        <ele>277</ele>
        <time>2018-06-01T10:19:53Z</time>
      </trkpt>
      <trkpt lat="45.95083" lon="4.87039">
        <ele>277</ele>
        <time>2018-06-01T10:19:54Z</time>
      </trkpt>
      <trkpt lat="45.9508" lon="4.87032">
        <ele>277</ele>
        <time>2018-06-01T10:19:55Z</time>
      </trkpt>
      <trkpt lat="45.95076" lon="4.87025">
        <ele>277</ele>
        <time>2018-06-01T10:19:56Z</time>
      </trkpt>
      <trkpt lat="45.95073" lon="4.87018">
        <ele>277</ele>
        <time>2018-06-01T10:19:57Z</time>
      </trkpt>
      <trkpt lat="45.9507" lon="4.87011">
        <ele>277</ele>
        <time>2018-06-01T10:19:58Z</time>
      </trkpt>
      <trkpt lat="45.95067" lon="4.87004">
        <ele>277</ele>
        <time>2018-06-01T10:19:59Z</time>
      </trkpt>
      <trkpt lat="45.95064" lon="4.86997">
        <ele>277</ele>
        <time>2018-06-01T10:20:00Z</time>
      </trkpt>
      <trkpt lat="45.95061" lon="4.86986">
        <ele>276</ele>
        <time>2018-06-01T10:20:02Z</time>
      </trkpt>
      <trkpt lat="45.95059" lon="4.8698">
        <ele>276</ele>
        <time>2018-06-01T10:20:03Z</time>
      </trkpt>
      <trkpt lat="45.95057" lon="4.86968">
        <ele>276</ele>
        <time>2018-06-01T10:20:04Z</time>
      </trkpt>
      <trkpt lat="45.95055" lon="4.86958">
        <ele>276</ele>
        <time>2018-06-01T10:20:05Z</time>
      </trkpt>
      <trkpt lat="45.95053" lon="4.86952">
        <ele>276</ele>
        <time>2018-06-01T10:20:06Z</time>
      </trkpt>
      <trkpt lat="45.95052" lon="4.86943">
        <ele>276</ele>
        <time>2018-06-01T10:20:07Z</time>
      </trkpt>
      <trkpt lat="45.9505" lon="4.86936">
        <ele>276</ele>
        <time>2018-06-01T10:20:08Z</time>
      </trkpt>
      <trkpt lat="45.95047" lon="4.86927">
        <ele>276</ele>
        <time>2018-06-01T10:20:09Z</time>
      </trkpt>
      <trkpt lat="45.95042" lon="4.86919">
        <ele>276</ele>
        <time>2018-06-01T10:20:10Z</time>
      </trkpt>
      <trkpt lat="45.95042" lon="4.86913">
        <ele>275</ele>
        <time>2018-06-01T10:20:11Z</time>
      </trkpt>
      <trkpt lat="45.95035" lon="4.86909">
        <ele>275</ele>
        <time>2018-06-01T10:20:12Z</time>
      </trkpt>
      <trkpt lat="45.95031" lon="4.86902">
        <ele>275</ele>
        <time>2018-06-01T10:20:13Z</time>
      </trkpt>
      <trkpt lat="45.95029" lon="4.86894">
        <ele>275</ele>
        <time>2018-06-01T10:20:14Z</time>
      </trkpt>
      <trkpt lat="45.95025" lon="4.86887">
        <ele>275</ele>
        <time>2018-06-01T10:20:15Z</time>
      </trkpt>
      <trkpt lat="45.95024" lon="4.86879">
        <ele>275</ele>
        <time>2018-06-01T10:20:16Z</time>
      </trkpt>
      <trkpt lat="45.95023" lon="4.8687">
        <ele>275</ele>
        <time>2018-06-01T10:20:17Z</time>
      </trkpt>
      <trkpt lat="45.95017" lon="4.86862">
        <ele>275</ele>
        <time>2018-06-01T10:20:18Z</time>
      </trkpt>
      <trkpt lat="45.95015" lon="4.86854">
        <ele>275</ele>
        <time>2018-06-01T10:20:19Z</time>
      </trkpt>
      <trkpt lat="45.95012" lon="4.86847">
        <ele>275</ele>
        <time>2018-06-01T10:20:20Z</time>
      </trkpt>
      <trkpt lat="45.95008" lon="4.86841">
        <ele>276</ele>
        <time>2018-06-01T10:20:21Z</time>
      </trkpt>
      <trkpt lat="45.95006" lon="4.86834">
        <ele>276</ele>
        <time>2018-06-01T10:20:22Z</time>
      </trkpt>
      <trkpt lat="45.95003" lon="4.86828">
        <ele>276</ele>
        <time>2018-06-01T10:20:23Z</time>
      </trkpt>
      <trkpt lat="45.95001" lon="4.8682">
        <ele>275</ele>
        <time>2018-06-01T10:20:24Z</time>
      </trkpt>
      <trkpt lat="45.94999" lon="4.86813">
        <ele>276</ele>
        <time>2018-06-01T10:20:25Z</time>
      </trkpt>
      <trkpt lat="45.94993" lon="4.86807">
        <ele>276</ele>
        <time>2018-06-01T10:20:26Z</time>
      </trkpt>
      <trkpt lat="45.9499" lon="4.868">
        <ele>276</ele>
        <time>2018-06-01T10:20:27Z</time>
      </trkpt>
      <trkpt lat="45.94986" lon="4.86794">
        <ele>276</ele>
        <time>2018-06-01T10:20:28Z</time>
      </trkpt>
      <trkpt lat="45.94982" lon="4.86787">
        <ele>275</ele>
        <time>2018-06-01T10:20:29Z</time>
      </trkpt>
      <trkpt lat="45.94976" lon="4.86781">
        <ele>275</ele>
        <time>2018-06-01T10:20:30Z</time>
      </trkpt>
      <trkpt lat="45.94973" lon="4.86775">
        <ele>275</ele>
        <time>2018-06-01T10:20:31Z</time>
      </trkpt>
      <trkpt lat="45.94969" lon="4.86768">
        <ele>275</ele>
        <time>2018-06-01T10:20:32Z</time>
      </trkpt>
      <trkpt lat="45.94967" lon="4.86762">
        <ele>275</ele>
        <time>2018-06-01T10:20:33Z</time>
      </trkpt>
      <trkpt lat="45.94963" lon="4.86755">
        <ele>275</ele>
        <time>2018-06-01T10:20:34Z</time>
      </trkpt>
      <trkpt lat="45.94961" lon="4.86748">
        <ele>275</ele>
        <time>2018-06-01T10:20:35Z</time>
      </trkpt>
      <trkpt lat="45.94958" lon="4.86741">
        <ele>275</ele>
        <time>2018-06-01T10:20:36Z</time>
      </trkpt>
      <trkpt lat="45.94955" lon="4.86733">
        <ele>275</ele>
        <time>2018-06-01T10:20:37Z</time>
      </trkpt>
      <trkpt lat="45.94953" lon="4.86725">
        <ele>275</ele>
        <time>2018-06-01T10:20:38Z</time>
      </trkpt>
      <trkpt lat="45.94947" lon="4.86719">
        <ele>275</ele>
        <time>2018-06-01T10:20:39Z</time>
      </trkpt>
      <trkpt lat="45.94945" lon="4.86711">
        <ele>275</ele>
        <time>2018-06-01T10:20:40Z</time>
      </trkpt>
      <trkpt lat="45.94944" lon="4.86701">
        <ele>276</ele>
        <time>2018-06-01T10:20:41Z</time>
      </trkpt>
      <trkpt lat="45.94942" lon="4.86694">
        <ele>276</ele>
        <time>2018-06-01T10:20:42Z</time>
      </trkpt>
      <trkpt lat="45.94942" lon="4.86686">
        <ele>276</ele>
        <time>2018-06-01T10:20:43Z</time>
      </trkpt>
      <trkpt lat="45.94942" lon="4.86677">
        <ele>276</ele>
        <time>2018-06-01T10:20:44Z</time>
      </trkpt>
      <trkpt lat="45.94942" lon="4.86669">
        <ele>276</ele>
        <time>2018-06-01T10:20:45Z</time>
      </trkpt>
      <trkpt lat="45.94942" lon="4.86661">
        <ele>276</ele>
        <time>2018-06-01T10:20:46Z</time>
      </trkpt>
      <trkpt lat="45.94945" lon="4.86652">
        <ele>276</ele>
        <time>2018-06-01T10:20:47Z</time>
      </trkpt>
      <trkpt lat="45.94948" lon="4.86645">
        <ele>276</ele>
        <time>2018-06-01T10:20:48Z</time>
      </trkpt>
      <trkpt lat="45.94953" lon="4.8664">
        <ele>276</ele>
        <time>2018-06-01T10:20:49Z</time>
      </trkpt>
      <trkpt lat="45.94957" lon="4.86634">
        <ele>276</ele>
        <time>2018-06-01T10:20:50Z</time>
      </trkpt>
      <trkpt lat="45.94962" lon="4.86629">
        <ele>275</ele>
        <time>2018-06-01T10:20:51Z</time>
      </trkpt>
      <trkpt lat="45.94966" lon="4.86624">
        <ele>275</ele>
        <time>2018-06-01T10:20:52Z</time>
      </trkpt>
      <trkpt lat="45.94973" lon="4.86621">
        <ele>275</ele>
        <time>2018-06-01T10:20:53Z</time>
      </trkpt>
      <trkpt lat="45.94977" lon="4.86617">
        <ele>275</ele>
        <time>2018-06-01T10:20:54Z</time>
      </trkpt>
      <trkpt lat="45.94983" lon="4.86615">
        <ele>275</ele>
        <time>2018-06-01T10:20:55Z</time>
      </trkpt>
      <trkpt lat="45.94991" lon="4.86614">
        <ele>275</ele>
        <time>2018-06-01T10:20:56Z</time>
      </trkpt>
      <trkpt lat="45.94998" lon="4.86613">
        <ele>275</ele>
        <time>2018-06-01T10:20:57Z</time>
      </trkpt>
      <trkpt lat="45.95003" lon="4.86613">
        <ele>273</ele>
        <time>2018-06-01T10:20:58Z</time>
      </trkpt>
      <trkpt lat="45.95009" lon="4.86612">
        <ele>273</ele>
        <time>2018-06-01T10:20:59Z</time>
      </trkpt>
      <trkpt lat="45.95015" lon="4.86612">
        <ele>273</ele>
        <time>2018-06-01T10:21:00Z</time>
      </trkpt>
      <trkpt lat="45.95021" lon="4.86611">
        <ele>273</ele>
        <time>2018-06-01T10:21:01Z</time>
      </trkpt>
      <trkpt lat="45.95027" lon="4.86609">
        <ele>273</ele>
        <time>2018-06-01T10:21:02Z</time>
      </trkpt>
      <trkpt lat="45.95035" lon="4.86605">
        <ele>273</ele>
        <time>2018-06-01T10:21:03Z</time>
      </trkpt>
      <trkpt lat="45.95041" lon="4.86603">
        <ele>273</ele>
        <time>2018-06-01T10:21:04Z</time>
      </trkpt>
      <trkpt lat="45.95046" lon="4.86601">
        <ele>272</ele>
        <time>2018-06-01T10:21:05Z</time>
      </trkpt>
      <trkpt lat="45.95053" lon="4.86598">
        <ele>272</ele>
        <time>2018-06-01T10:21:06Z</time>
      </trkpt>
      <trkpt lat="45.95059" lon="4.86596">
        <ele>272</ele>
        <time>2018-06-01T10:21:07Z</time>
      </trkpt>
      <trkpt lat="45.95065" lon="4.86594">
        <ele>272</ele>
        <time>2018-06-01T10:21:08Z</time>
      </trkpt>
      <trkpt lat="45.95073" lon="4.8659">
        <ele>272</ele>
        <time>2018-06-01T10:21:09Z</time>
      </trkpt>
      <trkpt lat="45.95079" lon="4.8659">
        <ele>271</ele>
        <time>2018-06-01T10:21:10Z</time>
      </trkpt>
      <trkpt lat="45.95085" lon="4.86588">
        <ele>271</ele>
        <time>2018-06-01T10:21:11Z</time>
      </trkpt>
      <trkpt lat="45.95092" lon="4.86587">
        <ele>271</ele>
        <time>2018-06-01T10:21:12Z</time>
      </trkpt>
      <trkpt lat="45.95099" lon="4.86586">
        <ele>271</ele>
        <time>2018-06-01T10:21:13Z</time>
      </trkpt>
      <trkpt lat="45.95106" lon="4.86586">
        <ele>271</ele>
        <time>2018-06-01T10:21:14Z</time>
      </trkpt>
      <trkpt lat="45.95112" lon="4.86582">
        <ele>270</ele>
        <time>2018-06-01T10:21:15Z</time>
      </trkpt>
      <trkpt lat="45.95119" lon="4.86582">
        <ele>270</ele>
        <time>2018-06-01T10:21:16Z</time>
      </trkpt>
      <trkpt lat="45.95126" lon="4.86581">
        <ele>270</ele>
        <time>2018-06-01T10:21:17Z</time>
      </trkpt>
      <trkpt lat="45.95133" lon="4.8658">
        <ele>270</ele>
        <time>2018-06-01T10:21:18Z</time>
      </trkpt>
      <trkpt lat="45.95138" lon="4.8658">
        <ele>270</ele>
        <time>2018-06-01T10:21:19Z</time>
      </trkpt>
      <trkpt lat="45.95144" lon="4.8658">
        <ele>270</ele>
        <time>2018-06-01T10:21:20Z</time>
      </trkpt>
      <trkpt lat="45.95151" lon="4.86579">
        <ele>270</ele>
        <time>2018-06-01T10:21:21Z</time>
      </trkpt>
      <trkpt lat="45.95157" lon="4.86579">
        <ele>269</ele>
        <time>2018-06-01T10:21:22Z</time>
      </trkpt>
      <trkpt lat="45.95163" lon="4.86578">
        <ele>269</ele>
        <time>2018-06-01T10:21:23Z</time>
      </trkpt>
      <trkpt lat="45.9517" lon="4.86577">
        <ele>269</ele>
        <time>2018-06-01T10:21:24Z</time>
      </trkpt>
      <trkpt lat="45.95177" lon="4.86576">
        <ele>269</ele>
        <time>2018-06-01T10:21:25Z</time>
      </trkpt>
      <trkpt lat="45.95183" lon="4.86577">
        <ele>269</ele>
        <time>2018-06-01T10:21:26Z</time>
      </trkpt>
      <trkpt lat="45.95189" lon="4.86577">
        <ele>269</ele>
        <time>2018-06-01T10:21:27Z</time>
      </trkpt>
      <trkpt lat="45.95196" lon="4.86578">
        <ele>268</ele>
        <time>2018-06-01T10:21:28Z</time>
      </trkpt>
      <trkpt lat="45.95202" lon="4.86577">
        <ele>268</ele>
        <time>2018-06-01T10:21:29Z</time>
      </trkpt>
      <trkpt lat="45.95209" lon="4.86578">
        <ele>268</ele>
        <time>2018-06-01T10:21:30Z</time>
      </trkpt>
      <trkpt lat="45.95215" lon="4.8658">
        <ele>268</ele>
        <time>2018-06-01T10:21:31Z</time>
      </trkpt>
      <trkpt lat="45.95221" lon="4.8658">
        <ele>268</ele>
        <time>2018-06-01T10:21:32Z</time>
      </trkpt>
      <trkpt lat="45.95228" lon="4.8658">
        <ele>268</ele>
        <time>2018-06-01T10:21:33Z</time>
      </trkpt>
      <trkpt lat="45.95234" lon="4.86581">
        <ele>268</ele>
        <time>2018-06-01T10:21:34Z</time>
      </trkpt>
      <trkpt lat="45.95239" lon="4.8658">
        <ele>268</ele>
        <time>2018-06-01T10:21:35Z</time>
      </trkpt>
      <trkpt lat="45.95244" lon="4.8658">
        <ele>268</ele>
        <time>2018-06-01T10:21:36Z</time>
      </trkpt>
      <trkpt lat="45.95249" lon="4.8658">
        <ele>268</ele>
        <time>2018-06-01T10:21:37Z</time>
      </trkpt>
      <trkpt lat="45.95254" lon="4.86579">
        <ele>268</ele>
        <time>2018-06-01T10:21:38Z</time>
      </trkpt>
      <trkpt lat="45.9526" lon="4.8657">
        <ele>267</ele>
        <time>2018-06-01T10:21:42Z</time>
      </trkpt>
      <trkpt lat="45.95261" lon="4.86559">
        <ele>267</ele>
        <time>2018-06-01T10:21:43Z</time>
      </trkpt>
      <trkpt lat="45.95259" lon="4.86554">
        <ele>267</ele>
        <time>2018-06-01T10:21:44Z</time>
      </trkpt>
      <trkpt lat="45.95255" lon="4.86549">
        <ele>267</ele>
        <time>2018-06-01T10:21:45Z</time>
      </trkpt>
      <trkpt lat="45.9525" lon="4.86546">
        <ele>267</ele>
        <time>2018-06-01T10:21:46Z</time>
      </trkpt>
      <trkpt lat="45.95237" lon="4.86534">
        <ele>268</ele>
        <time>2018-06-01T10:21:49Z</time>
      </trkpt>
      <trkpt lat="45.95232" lon="4.86527">
        <ele>268</ele>
        <time>2018-06-01T10:21:50Z</time>
      </trkpt>
      <trkpt lat="45.95228" lon="4.86522">
        <ele>268</ele>
        <time>2018-06-01T10:21:51Z</time>
      </trkpt>
      <trkpt lat="45.95224" lon="4.86518">
        <ele>268</ele>
        <time>2018-06-01T10:21:52Z</time>
      </trkpt>
      <trkpt lat="45.95221" lon="4.8651">
        <ele>268</ele>
        <time>2018-06-01T10:21:53Z</time>
      </trkpt>
      <trkpt lat="45.95217" lon="4.86507">
        <ele>268</ele>
        <time>2018-06-01T10:21:54Z</time>
      </trkpt>
      <trkpt lat="45.95212" lon="4.86501">
        <ele>268</ele>
        <time>2018-06-01T10:21:55Z</time>
      </trkpt>
      <trkpt lat="45.95208" lon="4.86495">
        <ele>268</ele>
        <time>2018-06-01T10:21:56Z</time>
      </trkpt>
      <trkpt lat="45.95204" lon="4.86488">
        <ele>268</ele>
        <time>2018-06-01T10:21:57Z</time>
      </trkpt>
      <trkpt lat="45.95201" lon="4.86484">
        <ele>268</ele>
        <time>2018-06-01T10:21:58Z</time>
      </trkpt>
      <trkpt lat="45.95196" lon="4.86479">
        <ele>268</ele>
        <time>2018-06-01T10:21:59Z</time>
      </trkpt>
      <trkpt lat="45.95192" lon="4.86475">
        <ele>268</ele>
        <time>2018-06-01T10:22:00Z</time>
      </trkpt>
      <trkpt lat="45.95188" lon="4.8647">
        <ele>268</ele>
        <time>2018-06-01T10:22:01Z</time>
      </trkpt>
      <trkpt lat="45.95182" lon="4.86462">
        <ele>268</ele>
        <time>2018-06-01T10:22:03Z</time>
      </trkpt>
      <trkpt lat="45.95179" lon="4.86458">
        <ele>268</ele>
        <time>2018-06-01T10:22:04Z</time>
      </trkpt>
      <trkpt lat="45.95176" lon="4.86453">
        <ele>268</ele>
        <time>2018-06-01T10:22:05Z</time>
      </trkpt>
      <trkpt lat="45.95172" lon="4.86449">
        <ele>268</ele>
        <time>2018-06-01T10:22:06Z</time>
      </trkpt>
      <trkpt lat="45.95165" lon="4.86444">
        <ele>268</ele>
        <time>2018-06-01T10:22:08Z</time>
      </trkpt>
      <trkpt lat="45.95162" lon="4.86439">
        <ele>268</ele>
        <time>2018-06-01T10:22:09Z</time>
      </trkpt>
      <trkpt lat="45.95156" lon="4.86436">
        <ele>268</ele>
        <time>2018-06-01T10:22:10Z</time>
      </trkpt>
      <trkpt lat="45.95153" lon="4.86432">
        <ele>268</ele>
        <time>2018-06-01T10:22:11Z</time>
      </trkpt>
      <trkpt lat="45.95149" lon="4.86429">
        <ele>268</ele>
        <time>2018-06-01T10:22:12Z</time>
      </trkpt>
      <trkpt lat="45.95144" lon="4.86424">
        <ele>268</ele>
        <time>2018-06-01T10:22:13Z</time>
      </trkpt>
      <trkpt lat="45.95138" lon="4.86417">
        <ele>269</ele>
        <time>2018-06-01T10:22:15Z</time>
      </trkpt>
      <trkpt lat="45.95134" lon="4.86412">
        <ele>268</ele>
        <time>2018-06-01T10:22:16Z</time>
      </trkpt>
      <trkpt lat="45.9513" lon="4.86407">
        <ele>268</ele>
        <time>2018-06-01T10:22:17Z</time>
      </trkpt>
      <trkpt lat="45.95127" lon="4.86401">
        <ele>268</ele>
        <time>2018-06-01T10:22:18Z</time>
      </trkpt>
      <trkpt lat="45.95122" lon="4.86395">
        <ele>269</ele>
        <time>2018-06-01T10:22:19Z</time>
      </trkpt>
      <trkpt lat="45.95119" lon="4.86389">
        <ele>269</ele>
        <time>2018-06-01T10:22:20Z</time>
      </trkpt>
      <trkpt lat="45.95115" lon="4.86384">
        <ele>269</ele>
        <time>2018-06-01T10:22:21Z</time>
      </trkpt>
      <trkpt lat="45.95112" lon="4.86379">
        <ele>269</ele>
        <time>2018-06-01T10:22:22Z</time>
      </trkpt>
      <trkpt lat="45.9511" lon="4.86372">
        <ele>269</ele>
        <time>2018-06-01T10:22:23Z</time>
      </trkpt>
      <trkpt lat="45.95106" lon="4.86367">
        <ele>269</ele>
        <time>2018-06-01T10:22:24Z</time>
      </trkpt>
      <trkpt lat="45.95102" lon="4.86362">
        <ele>269</ele>
        <time>2018-06-01T10:22:25Z</time>
      </trkpt>
      <trkpt lat="45.95099" lon="4.86357">
        <ele>269</ele>
        <time>2018-06-01T10:22:26Z</time>
      </trkpt>
      <trkpt lat="45.95095" lon="4.86351">
        <ele>269</ele>
        <time>2018-06-01T10:22:27Z</time>
      </trkpt>
      <trkpt lat="45.95091" lon="4.86347">
        <ele>269</ele>
        <time>2018-06-01T10:22:28Z</time>
      </trkpt>
      <trkpt lat="45.95087" lon="4.86342">
        <ele>269</ele>
        <time>2018-06-01T10:22:29Z</time>
      </trkpt>
      <trkpt lat="45.95083" lon="4.86338">
        <ele>269</ele>
        <time>2018-06-01T10:22:30Z</time>
      </trkpt>
      <trkpt lat="45.9508" lon="4.86333">
        <ele>269</ele>
        <time>2018-06-01T10:22:31Z</time>
      </trkpt>
      <trkpt lat="45.95076" lon="4.8633">
        <ele>270</ele>
        <time>2018-06-01T10:22:32Z</time>
      </trkpt>
      <trkpt lat="45.95072" lon="4.86325">
        <ele>270</ele>
        <time>2018-06-01T10:22:33Z</time>
      </trkpt>
      <trkpt lat="45.95068" lon="4.8632">
        <ele>270</ele>
        <time>2018-06-01T10:22:34Z</time>
      </trkpt>
      <trkpt lat="45.9506" lon="4.8632">
        <ele>270</ele>
        <time>2018-06-01T10:22:35Z</time>
      </trkpt>
      <trkpt lat="45.95055" lon="4.86315">
        <ele>271</ele>
        <time>2018-06-01T10:22:36Z</time>
      </trkpt>
      <trkpt lat="45.9505" lon="4.86305">
        <ele>271</ele>
        <time>2018-06-01T10:22:38Z</time>
      </trkpt>
      <trkpt lat="45.95045" lon="4.863">
        <ele>271</ele>
        <time>2018-06-01T10:22:39Z</time>
      </trkpt>
      <trkpt lat="45.95042" lon="4.86295">
        <ele>271</ele>
        <time>2018-06-01T10:22:40Z</time>
      </trkpt>
      <trkpt lat="45.95038" lon="4.8629">
        <ele>271</ele>
        <time>2018-06-01T10:22:41Z</time>
      </trkpt>
      <trkpt lat="45.95035" lon="4.86285">
        <ele>271</ele>
        <time>2018-06-01T10:22:42Z</time>
      </trkpt>
      <trkpt lat="45.9503" lon="4.86279">
        <ele>271</ele>
        <time>2018-06-01T10:22:43Z</time>
      </trkpt>
      <trkpt lat="45.95027" lon="4.86273">
        <ele>271</ele>
        <time>2018-06-01T10:22:44Z</time>
      </trkpt>
      <trkpt lat="45.95023" lon="4.86269">
        <ele>271</ele>
        <time>2018-06-01T10:22:45Z</time>
      </trkpt>
      <trkpt lat="45.95019" lon="4.86264">
        <ele>271</ele>
        <time>2018-06-01T10:22:46Z</time>
      </trkpt>
      <trkpt lat="45.95013" lon="4.86259">
        <ele>272</ele>
        <time>2018-06-01T10:22:47Z</time>
      </trkpt>
      <trkpt lat="45.9501" lon="4.86255">
        <ele>272</ele>
        <time>2018-06-01T10:22:48Z</time>
      </trkpt>
      <trkpt lat="45.95006" lon="4.8625">
        <ele>272</ele>
        <time>2018-06-01T10:22:49Z</time>
      </trkpt>
      <trkpt lat="45.95001" lon="4.8624">
        <ele>272</ele>
        <time>2018-06-01T10:22:51Z</time>
      </trkpt>
      <trkpt lat="45.94996" lon="4.86236">
        <ele>272</ele>
        <time>2018-06-01T10:22:52Z</time>
      </trkpt>
      <trkpt lat="45.9499" lon="4.86229">
        <ele>272</ele>
        <time>2018-06-01T10:22:54Z</time>
      </trkpt>
      <trkpt lat="45.94987" lon="4.86224">
        <ele>272</ele>
        <time>2018-06-01T10:22:55Z</time>
      </trkpt>
      <trkpt lat="45.94981" lon="4.86214">
        <ele>272</ele>
        <time>2018-06-01T10:22:57Z</time>
      </trkpt>
      <trkpt lat="45.94979" lon="4.8621">
        <ele>272</ele>
        <time>2018-06-01T10:22:58Z</time>
      </trkpt>
      <trkpt lat="45.94975" lon="4.86205">
        <ele>272</ele>
        <time>2018-06-01T10:22:59Z</time>
      </trkpt>
      <trkpt lat="45.94967" lon="4.86203">
        <ele>272</ele>
        <time>2018-06-01T10:23:00Z</time>
      </trkpt>
      <trkpt lat="45.94963" lon="4.86198">
        <ele>272</ele>
        <time>2018-06-01T10:23:01Z</time>
      </trkpt>
      <trkpt lat="45.94959" lon="4.86194">
        <ele>272</ele>
        <time>2018-06-01T10:23:02Z</time>
      </trkpt>
      <trkpt lat="45.94956" lon="4.86189">
        <ele>273</ele>
        <time>2018-06-01T10:23:03Z</time>
      </trkpt>
      <trkpt lat="45.94952" lon="4.86184">
        <ele>273</ele>
        <time>2018-06-01T10:23:04Z</time>
      </trkpt>
      <trkpt lat="45.94947" lon="4.8618">
        <ele>273</ele>
        <time>2018-06-01T10:23:05Z</time>
      </trkpt>
      <trkpt lat="45.94945" lon="4.86175">
        <ele>273</ele>
        <time>2018-06-01T10:23:06Z</time>
      </trkpt>
      <trkpt lat="45.94941" lon="4.8617">
        <ele>273</ele>
        <time>2018-06-01T10:23:07Z</time>
      </trkpt>
      <trkpt lat="45.94938" lon="4.86166">
        <ele>273</ele>
        <time>2018-06-01T10:23:08Z</time>
      </trkpt>
      <trkpt lat="45.94934" lon="4.86161">
        <ele>273</ele>
        <time>2018-06-01T10:23:09Z</time>
      </trkpt>
      <trkpt lat="45.94931" lon="4.86156">
        <ele>273</ele>
        <time>2018-06-01T10:23:10Z</time>
      </trkpt>
      <trkpt lat="45.94928" lon="4.8615">
        <ele>273</ele>
        <time>2018-06-01T10:23:11Z</time>
      </trkpt>
      <trkpt lat="45.94924" lon="4.86145">
        <ele>273</ele>
        <time>2018-06-01T10:23:12Z</time>
      </trkpt>
      <trkpt lat="45.9492" lon="4.86141">
        <ele>273</ele>
        <time>2018-06-01T10:23:13Z</time>
      </trkpt>
      <trkpt lat="45.94918" lon="4.86136">
        <ele>273</ele>
        <time>2018-06-01T10:23:14Z</time>
      </trkpt>
      <trkpt lat="45.94915" lon="4.8613">
        <ele>274</ele>
        <time>2018-06-01T10:23:15Z</time>
      </trkpt>
      <trkpt lat="45.94911" lon="4.86124">
        <ele>274</ele>
        <time>2018-06-01T10:23:16Z</time>
      </trkpt>
      <trkpt lat="45.94906" lon="4.86117">
        <ele>274</ele>
        <time>2018-06-01T10:23:17Z</time>
      </trkpt>
      <trkpt lat="45.94904" lon="4.86111">
        <ele>274</ele>
        <time>2018-06-01T10:23:18Z</time>
      </trkpt>
      <trkpt lat="45.94901" lon="4.86105">
        <ele>274</ele>
        <time>2018-06-01T10:23:19Z</time>
      </trkpt>
      <trkpt lat="45.94899" lon="4.86099">
        <ele>274</ele>
        <time>2018-06-01T10:23:20Z</time>
      </trkpt>
      <trkpt lat="45.94897" lon="4.86093">
        <ele>274</ele>
        <time>2018-06-01T10:23:21Z</time>
      </trkpt>
      <trkpt lat="45.94895" lon="4.86087">
        <ele>274</ele>
        <time>2018-06-01T10:23:22Z</time>
      </trkpt>
      <trkpt lat="45.94892" lon="4.86081">
        <ele>274</ele>
        <time>2018-06-01T10:23:23Z</time>
      </trkpt>
      <trkpt lat="45.9489" lon="4.86074">
        <ele>274</ele>
        <time>2018-06-01T10:23:24Z</time>
      </trkpt>
      <trkpt lat="45.94889" lon="4.86067">
        <ele>274</ele>
        <time>2018-06-01T10:23:25Z</time>
      </trkpt>
      <trkpt lat="45.94886" lon="4.8606">
        <ele>274</ele>
        <time>2018-06-01T10:23:26Z</time>
      </trkpt>
      <trkpt lat="45.94884" lon="4.86054">
        <ele>274</ele>
        <time>2018-06-01T10:23:27Z</time>
      </trkpt>
      <trkpt lat="45.94882" lon="4.86048">
        <ele>274</ele>
        <time>2018-06-01T10:23:28Z</time>
      </trkpt>
      <trkpt lat="45.9488" lon="4.86041">
        <ele>274</ele>
        <time>2018-06-01T10:23:29Z</time>
      </trkpt>
      <trkpt lat="45.94879" lon="4.86034">
        <ele>274</ele>
        <time>2018-06-01T10:23:30Z</time>
      </trkpt>
      <trkpt lat="45.94878" lon="4.86027">
        <ele>274</ele>
        <time>2018-06-01T10:23:31Z</time>
      </trkpt>
      <trkpt lat="45.94874" lon="4.86019">
        <ele>274</ele>
        <time>2018-06-01T10:23:32Z</time>
      </trkpt>
      <trkpt lat="45.94872" lon="4.86012">
        <ele>274</ele>
        <time>2018-06-01T10:23:33Z</time>
      </trkpt>
      <trkpt lat="45.94869" lon="4.86005">
        <ele>275</ele>
        <time>2018-06-01T10:23:34Z</time>
      </trkpt>
      <trkpt lat="45.94866" lon="4.85998">
        <ele>275</ele>
        <time>2018-06-01T10:23:35Z</time>
      </trkpt>
      <trkpt lat="45.94864" lon="4.85991">
        <ele>275</ele>
        <time>2018-06-01T10:23:36Z</time>
      </trkpt>
      <trkpt lat="45.9486" lon="4.85986">
        <ele>275</ele>
        <time>2018-06-01T10:23:37Z</time>
      </trkpt>
      <trkpt lat="45.94859" lon="4.85977">
        <ele>275</ele>
        <time>2018-06-01T10:23:38Z</time>
      </trkpt>
      <trkpt lat="45.94857" lon="4.8597">
        <ele>275</ele>
        <time>2018-06-01T10:23:39Z</time>
      </trkpt>
      <trkpt lat="45.94857" lon="4.85964">
        <ele>275</ele>
        <time>2018-06-01T10:23:40Z</time>
      </trkpt>
      <trkpt lat="45.94855" lon="4.85957">
        <ele>275</ele>
        <time>2018-06-01T10:23:41Z</time>
      </trkpt>
      <trkpt lat="45.94854" lon="4.8595">
        <ele>275</ele>
        <time>2018-06-01T10:23:42Z</time>
      </trkpt>
      <trkpt lat="45.94852" lon="4.85943">
        <ele>275</ele>
        <time>2018-06-01T10:23:43Z</time>
      </trkpt>
      <trkpt lat="45.94851" lon="4.85937">
        <ele>275</ele>
        <time>2018-06-01T10:23:44Z</time>
      </trkpt>
      <trkpt lat="45.9485" lon="4.85924">
        <ele>275</ele>
        <time>2018-06-01T10:23:46Z</time>
      </trkpt>
      <trkpt lat="45.94848" lon="4.85916">
        <ele>275</ele>
        <time>2018-06-01T10:23:47Z</time>
      </trkpt>
      <trkpt lat="45.94846" lon="4.85909">
        <ele>275</ele>
        <time>2018-06-01T10:23:48Z</time>
      </trkpt>
      <trkpt lat="45.94844" lon="4.85903">
        <ele>275</ele>
        <time>2018-06-01T10:23:49Z</time>
      </trkpt>
      <trkpt lat="45.94843" lon="4.85897">
        <ele>276</ele>
        <time>2018-06-01T10:23:50Z</time>
      </trkpt>
      <trkpt lat="45.94841" lon="4.8589">
        <ele>276</ele>
        <time>2018-06-01T10:23:51Z</time>
      </trkpt>
      <trkpt lat="45.94842" lon="4.85885">
        <ele>276</ele>
        <time>2018-06-01T10:23:52Z</time>
      </trkpt>
      <trkpt lat="45.94844" lon="4.85878">
        <ele>276</ele>
        <time>2018-06-01T10:23:53Z</time>
      </trkpt>
      <trkpt lat="45.94843" lon="4.8587">
        <ele>276</ele>
        <time>2018-06-01T10:23:54Z</time>
      </trkpt>
      <trkpt lat="45.94839" lon="4.85862">
        <ele>276</ele>
        <time>2018-06-01T10:23:55Z</time>
      </trkpt>
      <trkpt lat="45.94838" lon="4.85856">
        <ele>276</ele>
        <time>2018-06-01T10:23:56Z</time>
      </trkpt>
      <trkpt lat="45.94835" lon="4.8585">
        <ele>276</ele>
        <time>2018-06-01T10:23:57Z</time>
      </trkpt>
      <trkpt lat="45.94833" lon="4.85844">
        <ele>277</ele>
        <time>2018-06-01T10:23:58Z</time>
      </trkpt>
      <trkpt lat="45.94832" lon="4.85837">
        <ele>277</ele>
        <time>2018-06-01T10:23:59Z</time>
      </trkpt>
      <trkpt lat="45.94831" lon="4.8583">
        <ele>277</ele>
        <time>2018-06-01T10:24:00Z</time>
      </trkpt>
      <trkpt lat="45.9483" lon="4.85822">
        <ele>277</ele>
        <time>2018-06-01T10:24:01Z</time>
      </trkpt>
      <trkpt lat="45.94828" lon="4.85815">
        <ele>278</ele>
        <time>2018-06-01T10:24:02Z</time>
      </trkpt>
      <trkpt lat="45.94826" lon="4.85808">
        <ele>278</ele>
        <time>2018-06-01T10:24:03Z</time>
      </trkpt>
      <trkpt lat="45.94825" lon="4.85802">
        <ele>278</ele>
        <time>2018-06-01T10:24:04Z</time>
      </trkpt>
      <trkpt lat="45.94823" lon="4.85796">
        <ele>278</ele>
        <time>2018-06-01T10:24:05Z</time>
      </trkpt>
      <trkpt lat="45.94821" lon="4.85788">
        <ele>278</ele>
        <time>2018-06-01T10:24:06Z</time>
      </trkpt>
      <trkpt lat="45.94818" lon="4.85781">
        <ele>278</ele>
        <time>2018-06-01T10:24:07Z</time>
      </trkpt>
      <trkpt lat="45.94814" lon="4.85769">
        <ele>278</ele>
        <time>2018-06-01T10:24:09Z</time>
      </trkpt>
      <trkpt lat="45.94813" lon="4.85763">
        <ele>278</ele>
        <time>2018-06-01T10:24:10Z</time>
      </trkpt>
      <trkpt lat="45.94811" lon="4.85756">
        <ele>278</ele>
        <time>2018-06-01T10:24:11Z</time>
      </trkpt>
      <trkpt lat="45.94809" lon="4.8575">
        <ele>279</ele>
        <time>2018-06-01T10:24:12Z</time>
      </trkpt>
      <trkpt lat="45.94808" lon="4.85743">
        <ele>279</ele>
        <time>2018-06-01T10:24:13Z</time>
      </trkpt>
      <trkpt lat="45.94804" lon="4.85738">
        <ele>279</ele>
        <time>2018-06-01T10:24:14Z</time>
      </trkpt>
      <trkpt lat="45.94801" lon="4.85726">
        <ele>280</ele>
        <time>2018-06-01T10:24:16Z</time>
      </trkpt>
      <trkpt lat="45.94799" lon="4.85719">
        <ele>280</ele>
        <time>2018-06-01T10:24:17Z</time>
      </trkpt>
      <trkpt lat="45.94799" lon="4.85708">
        <ele>280</ele>
        <time>2018-06-01T10:24:19Z</time>
      </trkpt>
      <trkpt lat="45.94797" lon="4.85701">
        <ele>280</ele>
        <time>2018-06-01T10:24:20Z</time>
      </trkpt>
      <trkpt lat="45.94794" lon="4.85689">
        <ele>280</ele>
        <time>2018-06-01T10:24:22Z</time>
      </trkpt>
      <trkpt lat="45.94793" lon="4.85682">
        <ele>280</ele>
        <time>2018-06-01T10:24:23Z</time>
      </trkpt>
      <trkpt lat="45.94791" lon="4.85675">
        <ele>280</ele>
        <time>2018-06-01T10:24:24Z</time>
      </trkpt>
      <trkpt lat="45.94789" lon="4.85669">
        <ele>280</ele>
        <time>2018-06-01T10:24:25Z</time>
      </trkpt>
      <trkpt lat="45.94787" lon="4.85663">
        <ele>281</ele>
        <time>2018-06-01T10:24:26Z</time>
      </trkpt>
      <trkpt lat="45.94785" lon="4.85655">
        <ele>281</ele>
        <time>2018-06-01T10:24:27Z</time>
      </trkpt>
      <trkpt lat="45.94782" lon="4.85648">
        <ele>281</ele>
        <time>2018-06-01T10:24:28Z</time>
      </trkpt>
      <trkpt lat="45.94779" lon="4.85641">
        <ele>281</ele>
        <time>2018-06-01T10:24:29Z</time>
      </trkpt>
      <trkpt lat="45.94778" lon="4.85633">
        <ele>280</ele>
        <time>2018-06-01T10:24:30Z</time>
      </trkpt>
      <trkpt lat="45.94775" lon="4.85625">
        <ele>280</ele>
        <time>2018-06-01T10:24:31Z</time>
      </trkpt>
      <trkpt lat="45.94773" lon="4.85617">
        <ele>280</ele>
        <time>2018-06-01T10:24:32Z</time>
      </trkpt>
      <trkpt lat="45.94771" lon="4.85608">
        <ele>280</ele>
        <time>2018-06-01T10:24:33Z</time>
      </trkpt>
      <trkpt lat="45.9477" lon="4.856">
        <ele>280</ele>
        <time>2018-06-01T10:24:34Z</time>
      </trkpt>
      <trkpt lat="45.94768" lon="4.85592">
        <ele>280</ele>
        <time>2018-06-01T10:24:35Z</time>
      </trkpt>
      <trkpt lat="45.94767" lon="4.85582">
        <ele>279</ele>
        <time>2018-06-01T10:24:36Z</time>
      </trkpt>
      <trkpt lat="45.94765" lon="4.85573">
        <ele>279</ele>
        <time>2018-06-01T10:24:37Z</time>
      </trkpt>
      <trkpt lat="45.94764" lon="4.85563">
        <ele>278</ele>
        <time>2018-06-01T10:24:38Z</time>
      </trkpt>
      <trkpt lat="45.94763" lon="4.85553">
        <ele>278</ele>
        <time>2018-06-01T10:24:39Z</time>
      </trkpt>
      <trkpt lat="45.94762" lon="4.85543">
        <ele>278</ele>
        <time>2018-06-01T10:24:40Z</time>
      </trkpt>
      <trkpt lat="45.94757" lon="4.85532">
        <ele>278</ele>
        <time>2018-06-01T10:24:41Z</time>
      </trkpt>
      <trkpt lat="45.94756" lon="4.85522">
        <ele>277</ele>
        <time>2018-06-01T10:24:42Z</time>
      </trkpt>
      <trkpt lat="45.94752" lon="4.8551">
        <ele>277</ele>
        <time>2018-06-01T10:24:43Z</time>
      </trkpt>
      <trkpt lat="45.94751" lon="4.855">
        <ele>276</ele>
        <time>2018-06-01T10:24:44Z</time>
      </trkpt>
      <trkpt lat="45.94747" lon="4.85488">
        <ele>275</ele>
        <time>2018-06-01T10:24:45Z</time>
      </trkpt>
      <trkpt lat="45.94746" lon="4.85476">
        <ele>275</ele>
        <time>2018-06-01T10:24:46Z</time>
      </trkpt>
      <trkpt lat="45.94745" lon="4.85466">
        <ele>274</ele>
        <time>2018-06-01T10:24:47Z</time>
      </trkpt>
      <trkpt lat="45.94744" lon="4.85454">
        <ele>274</ele>
        <time>2018-06-01T10:24:48Z</time>
      </trkpt>
      <trkpt lat="45.94743" lon="4.85442">
        <ele>274</ele>
        <time>2018-06-01T10:24:49Z</time>
      </trkpt>
      <trkpt lat="45.94739" lon="4.85432">
        <ele>273</ele>
        <time>2018-06-01T10:24:50Z</time>
      </trkpt>
      <trkpt lat="45.94737" lon="4.85419">
        <ele>273</ele>
        <time>2018-06-01T10:24:51Z</time>
      </trkpt>
      <trkpt lat="45.94739" lon="4.85409">
        <ele>272</ele>
        <time>2018-06-01T10:24:52Z</time>
      </trkpt>
      <trkpt lat="45.94738" lon="4.85398">
        <ele>272</ele>
        <time>2018-06-01T10:24:53Z</time>
      </trkpt>
      <trkpt lat="45.94736" lon="4.85387">
        <ele>272</ele>
        <time>2018-06-01T10:24:54Z</time>
      </trkpt>
      <trkpt lat="45.94735" lon="4.85376">
        <ele>271</ele>
        <time>2018-06-01T10:24:55Z</time>
      </trkpt>
      <trkpt lat="45.94734" lon="4.85362">
        <ele>271</ele>
        <time>2018-06-01T10:24:56Z</time>
      </trkpt>
      <trkpt lat="45.94735" lon="4.85349">
        <ele>271</ele>
        <time>2018-06-01T10:24:57Z</time>
      </trkpt>
      <trkpt lat="45.94735" lon="4.85339">
        <ele>271</ele>
        <time>2018-06-01T10:24:58Z</time>
      </trkpt>
      <trkpt lat="45.94735" lon="4.85328">
        <ele>270</ele>
        <time>2018-06-01T10:24:59Z</time>
      </trkpt>
      <trkpt lat="45.94734" lon="4.85319">
        <ele>270</ele>
        <time>2018-06-01T10:25:00Z</time>
      </trkpt>
      <trkpt lat="45.94733" lon="4.85308">
        <ele>270</ele>
        <time>2018-06-01T10:25:01Z</time>
      </trkpt>
      <trkpt lat="45.94731" lon="4.85299">
        <ele>270</ele>
        <time>2018-06-01T10:25:02Z</time>
      </trkpt>
      <trkpt lat="45.9473" lon="4.85288">
        <ele>269</ele>
        <time>2018-06-01T10:25:03Z</time>
      </trkpt>
      <trkpt lat="45.94726" lon="4.85276">
        <ele>269</ele>
        <time>2018-06-01T10:25:04Z</time>
      </trkpt>
      <trkpt lat="45.94725" lon="4.85266">
        <ele>269</ele>
        <time>2018-06-01T10:25:05Z</time>
      </trkpt>
      <trkpt lat="45.94725" lon="4.85256">
        <ele>269</ele>
        <time>2018-06-01T10:25:06Z</time>
      </trkpt>
      <trkpt lat="45.94724" lon="4.85246">
        <ele>269</ele>
        <time>2018-06-01T10:25:07Z</time>
      </trkpt>
      <trkpt lat="45.94723" lon="4.85235">
        <ele>269</ele>
        <time>2018-06-01T10:25:08Z</time>
      </trkpt>
      <trkpt lat="45.94722" lon="4.85225">
        <ele>269</ele>
        <time>2018-06-01T10:25:09Z</time>
      </trkpt>
      <trkpt lat="45.94722" lon="4.85215">
        <ele>269</ele>
        <time>2018-06-01T10:25:10Z</time>
      </trkpt>
      <trkpt lat="45.94721" lon="4.85205">
        <ele>269</ele>
        <time>2018-06-01T10:25:11Z</time>
      </trkpt>
      <trkpt lat="45.94721" lon="4.85197">
        <ele>269</ele>
        <time>2018-06-01T10:25:12Z</time>
      </trkpt>
      <trkpt lat="45.94719" lon="4.85187">
        <ele>269</ele>
        <time>2018-06-01T10:25:13Z</time>
      </trkpt>
      <trkpt lat="45.94719" lon="4.85181">
        <ele>269</ele>
        <time>2018-06-01T10:25:14Z</time>
      </trkpt>
      <trkpt lat="45.94717" lon="4.85173">
        <ele>269</ele>
        <time>2018-06-01T10:25:15Z</time>
      </trkpt>
      <trkpt lat="45.94717" lon="4.85163">
        <ele>269</ele>
        <time>2018-06-01T10:25:16Z</time>
      </trkpt>
      <trkpt lat="45.94716" lon="4.85153">
        <ele>269</ele>
        <time>2018-06-01T10:25:17Z</time>
      </trkpt>
      <trkpt lat="45.94715" lon="4.85143">
        <ele>269</ele>
        <time>2018-06-01T10:25:18Z</time>
      </trkpt>
      <trkpt lat="45.94714" lon="4.85132">
        <ele>269</ele>
        <time>2018-06-01T10:25:19Z</time>
      </trkpt>
      <trkpt lat="45.94713" lon="4.85122">
        <ele>269</ele>
        <time>2018-06-01T10:25:20Z</time>
      </trkpt>
      <trkpt lat="45.94712" lon="4.85112">
        <ele>269</ele>
        <time>2018-06-01T10:25:21Z</time>
      </trkpt>
      <trkpt lat="45.9471" lon="4.85101">
        <ele>269</ele>
        <time>2018-06-01T10:25:22Z</time>
      </trkpt>
      <trkpt lat="45.94709" lon="4.85092">
        <ele>269</ele>
        <time>2018-06-01T10:25:23Z</time>
      </trkpt>
      <trkpt lat="45.94707" lon="4.8508">
        <ele>269</ele>
        <time>2018-06-01T10:25:24Z</time>
      </trkpt>
      <trkpt lat="45.94707" lon="4.85071">
        <ele>269</ele>
        <time>2018-06-01T10:25:25Z</time>
      </trkpt>
      <trkpt lat="45.94706" lon="4.85061">
        <ele>269</ele>
        <time>2018-06-01T10:25:26Z</time>
      </trkpt>
      <trkpt lat="45.94706" lon="4.85053">
        <ele>269</ele>
        <time>2018-06-01T10:25:27Z</time>
      </trkpt>
      <trkpt lat="45.94705" lon="4.85046">
        <ele>269</ele>
        <time>2018-06-01T10:25:28Z</time>
      </trkpt>
      <trkpt lat="45.94704" lon="4.85035">
        <ele>269</ele>
        <time>2018-06-01T10:25:29Z</time>
      </trkpt>
      <trkpt lat="45.94703" lon="4.85026">
        <ele>269</ele>
        <time>2018-06-01T10:25:30Z</time>
      </trkpt>
      <trkpt lat="45.94702" lon="4.85016">
        <ele>269</ele>
        <time>2018-06-01T10:25:31Z</time>
      </trkpt>
      <trkpt lat="45.94701" lon="4.85006">
        <ele>269</ele>
        <time>2018-06-01T10:25:32Z</time>
      </trkpt>
      <trkpt lat="45.94701" lon="4.84998">
        <ele>269</ele>
        <time>2018-06-01T10:25:33Z</time>
      </trkpt>
      <trkpt lat="45.947" lon="4.84988">
        <ele>269</ele>
        <time>2018-06-01T10:25:34Z</time>
      </trkpt>
      <trkpt lat="45.94699" lon="4.84978">
        <ele>269</ele>
        <time>2018-06-01T10:25:35Z</time>
      </trkpt>
      <trkpt lat="45.94698" lon="4.84968">
        <ele>269</ele>
        <time>2018-06-01T10:25:36Z</time>
      </trkpt>
      <trkpt lat="45.94697" lon="4.84959">
        <ele>269</ele>
        <time>2018-06-01T10:25:37Z</time>
      </trkpt>
      <trkpt lat="45.94696" lon="4.84948">
        <ele>269</ele>
        <time>2018-06-01T10:25:38Z</time>
      </trkpt>
      <trkpt lat="45.94694" lon="4.84941">
        <ele>269</ele>
        <time>2018-06-01T10:25:39Z</time>
      </trkpt>
      <trkpt lat="45.94692" lon="4.84931">
        <ele>269</ele>
        <time>2018-06-01T10:25:40Z</time>
      </trkpt>
      <trkpt lat="45.94689" lon="4.8492">
        <ele>269</ele>
        <time>2018-06-01T10:25:41Z</time>
      </trkpt>
      <trkpt lat="45.94689" lon="4.8491">
        <ele>269</ele>
        <time>2018-06-01T10:25:42Z</time>
      </trkpt>
      <trkpt lat="45.94689" lon="4.849">
        <ele>268</ele>
        <time>2018-06-01T10:25:43Z</time>
      </trkpt>
      <trkpt lat="45.94687" lon="4.8489">
        <ele>268</ele>
        <time>2018-06-01T10:25:44Z</time>
      </trkpt>
      <trkpt lat="45.94686" lon="4.84882">
        <ele>268</ele>
        <time>2018-06-01T10:25:45Z</time>
      </trkpt>
      <trkpt lat="45.94684" lon="4.84873">
        <ele>268</ele>
        <time>2018-06-01T10:25:46Z</time>
      </trkpt>
      <trkpt lat="45.94684" lon="4.84864">
        <ele>268</ele>
        <time>2018-06-01T10:25:47Z</time>
      </trkpt>
      <trkpt lat="45.94683" lon="4.84855">
        <ele>268</ele>
        <time>2018-06-01T10:25:48Z</time>
      </trkpt>
      <trkpt lat="45.94682" lon="4.84845">
        <ele>268</ele>
        <time>2018-06-01T10:25:49Z</time>
      </trkpt>
      <trkpt lat="45.94681" lon="4.84836">
        <ele>268</ele>
        <time>2018-06-01T10:25:50Z</time>
      </trkpt>
      <trkpt lat="45.9468" lon="4.84827">
        <ele>268</ele>
        <time>2018-06-01T10:25:51Z</time>
      </trkpt>
      <trkpt lat="45.94679" lon="4.84817">
        <ele>268</ele>
        <time>2018-06-01T10:25:52Z</time>
      </trkpt>
      <trkpt lat="45.94678" lon="4.84807">
        <ele>268</ele>
        <time>2018-06-01T10:25:53Z</time>
      </trkpt>
      <trkpt lat="45.94677" lon="4.84798">
        <ele>268</ele>
        <time>2018-06-01T10:25:54Z</time>
      </trkpt>
      <trkpt lat="45.94676" lon="4.8479">
        <ele>269</ele>
        <time>2018-06-01T10:25:55Z</time>
      </trkpt>
      <trkpt lat="45.94676" lon="4.84783">
        <ele>269</ele>
        <time>2018-06-01T10:25:56Z</time>
      </trkpt>
      <trkpt lat="45.94675" lon="4.84773">
        <ele>269</ele>
        <time>2018-06-01T10:25:57Z</time>
      </trkpt>
      <trkpt lat="45.94674" lon="4.84765">
        <ele>269</ele>
        <time>2018-06-01T10:25:58Z</time>
      </trkpt>
      <trkpt lat="45.94673" lon="4.84756">
        <ele>269</ele>
        <time>2018-06-01T10:25:59Z</time>
      </trkpt>
      <trkpt lat="45.94672" lon="4.84747">
        <ele>269</ele>
        <time>2018-06-01T10:26:00Z</time>
      </trkpt>
      <trkpt lat="45.94672" lon="4.84737">
        <ele>269</ele>
        <time>2018-06-01T10:26:01Z</time>
      </trkpt>
      <trkpt lat="45.94668" lon="4.84728">
        <ele>269</ele>
        <time>2018-06-01T10:26:02Z</time>
      </trkpt>
      <trkpt lat="45.9467" lon="4.84718">
        <ele>269</ele>
        <time>2018-06-01T10:26:03Z</time>
      </trkpt>
      <trkpt lat="45.94672" lon="4.84707">
        <ele>269</ele>
        <time>2018-06-01T10:26:04Z</time>
      </trkpt>
      <trkpt lat="45.9467" lon="4.84697">
        <ele>269</ele>
        <time>2018-06-01T10:26:05Z</time>
      </trkpt>
      <trkpt lat="45.94671" lon="4.84688">
        <ele>269</ele>
        <time>2018-06-01T10:26:06Z</time>
      </trkpt>
      <trkpt lat="45.94671" lon="4.8468">
        <ele>269</ele>
        <time>2018-06-01T10:26:07Z</time>
      </trkpt>
      <trkpt lat="45.94669" lon="4.8467">
        <ele>269</ele>
        <time>2018-06-01T10:26:08Z</time>
      </trkpt>
      <trkpt lat="45.94669" lon="4.84661">
        <ele>269</ele>
        <time>2018-06-01T10:26:09Z</time>
      </trkpt>
      <trkpt lat="45.94668" lon="4.84652">
        <ele>268</ele>
        <time>2018-06-01T10:26:10Z</time>
      </trkpt>
      <trkpt lat="45.94667" lon="4.84643">
        <ele>268</ele>
        <time>2018-06-01T10:26:11Z</time>
      </trkpt>
      <trkpt lat="45.94668" lon="4.84633">
        <ele>268</ele>
        <time>2018-06-01T10:26:12Z</time>
      </trkpt>
      <trkpt lat="45.94668" lon="4.84625">
        <ele>268</ele>
        <time>2018-06-01T10:26:13Z</time>
      </trkpt>
      <trkpt lat="45.94667" lon="4.84616">
        <ele>268</ele>
        <time>2018-06-01T10:26:14Z</time>
      </trkpt>
      <trkpt lat="45.94666" lon="4.84607">
        <ele>268</ele>
        <time>2018-06-01T10:26:15Z</time>
      </trkpt>
      <trkpt lat="45.94666" lon="4.84598">
        <ele>268</ele>
        <time>2018-06-01T10:26:16Z</time>
      </trkpt>
      <trkpt lat="45.94665" lon="4.8459">
        <ele>268</ele>
        <time>2018-06-01T10:26:17Z</time>
      </trkpt>
      <trkpt lat="45.94668" lon="4.84582">
        <ele>268</ele>
        <time>2018-06-01T10:26:18Z</time>
      </trkpt>
      <trkpt lat="45.94668" lon="4.84573">
        <ele>268</ele>
        <time>2018-06-01T10:26:19Z</time>
      </trkpt>
      <trkpt lat="45.94669" lon="4.84564">
        <ele>268</ele>
        <time>2018-06-01T10:26:20Z</time>
      </trkpt>
      <trkpt lat="45.94668" lon="4.84555">
        <ele>268</ele>
        <time>2018-06-01T10:26:21Z</time>
      </trkpt>
      <trkpt lat="45.94667" lon="4.84546">
        <ele>268</ele>
        <time>2018-06-01T10:26:22Z</time>
      </trkpt>
      <trkpt lat="45.94665" lon="4.84538">
        <ele>268</ele>
        <time>2018-06-01T10:26:23Z</time>
      </trkpt>
      <trkpt lat="45.94663" lon="4.84528">
        <ele>268</ele>
        <time>2018-06-01T10:26:24Z</time>
      </trkpt>
      <trkpt lat="45.94663" lon="4.84519">
        <ele>268</ele>
        <time>2018-06-01T10:26:25Z</time>
      </trkpt>
      <trkpt lat="45.94663" lon="4.8451">
        <ele>268</ele>
        <time>2018-06-01T10:26:26Z</time>
      </trkpt>
      <trkpt lat="45.94664" lon="4.84502">
        <ele>268</ele>
        <time>2018-06-01T10:26:27Z</time>
      </trkpt>
      <trkpt lat="45.94664" lon="4.84494">
        <ele>268</ele>
        <time>2018-06-01T10:26:28Z</time>
      </trkpt>
      <trkpt lat="45.94663" lon="4.84486">
        <ele>268</ele>
        <time>2018-06-01T10:26:29Z</time>
      </trkpt>
      <trkpt lat="45.94663" lon="4.84479">
        <ele>268</ele>
        <time>2018-06-01T10:26:30Z</time>
      </trkpt>
      <trkpt lat="45.94659" lon="4.8447">
        <ele>268</ele>
        <time>2018-06-01T10:26:31Z</time>
      </trkpt>
      <trkpt lat="45.94658" lon="4.84461">
        <ele>268</ele>
        <time>2018-06-01T10:26:32Z</time>
      </trkpt>
      <trkpt lat="45.94657" lon="4.84452">
        <ele>268</ele>
        <time>2018-06-01T10:26:33Z</time>
      </trkpt>
      <trkpt lat="45.94656" lon="4.84443">
        <ele>268</ele>
        <time>2018-06-01T10:26:34Z</time>
      </trkpt>
      <trkpt lat="45.94655" lon="4.84433">
        <ele>268</ele>
        <time>2018-06-01T10:26:35Z</time>
      </trkpt>
      <trkpt lat="45.94654" lon="4.84424">
        <ele>268</ele>
        <time>2018-06-01T10:26:36Z</time>
      </trkpt>
      <trkpt lat="45.94653" lon="4.84414">
        <ele>268</ele>
        <time>2018-06-01T10:26:37Z</time>
      </trkpt>
      <trkpt lat="45.94652" lon="4.84405">
        <ele>268</ele>
        <time>2018-06-01T10:26:38Z</time>
      </trkpt>
      <trkpt lat="45.94652" lon="4.84399">
        <ele>268</ele>
        <time>2018-06-01T10:26:39Z</time>
      </trkpt>
      <trkpt lat="45.94651" lon="4.8439">
        <ele>268</ele>
        <time>2018-06-01T10:26:40Z</time>
      </trkpt>
      <trkpt lat="45.94651" lon="4.84381">
        <ele>268</ele>
        <time>2018-06-01T10:26:41Z</time>
      </trkpt>
      <trkpt lat="45.9465" lon="4.84372">
        <ele>268</ele>
        <time>2018-06-01T10:26:42Z</time>
      </trkpt>
      <trkpt lat="45.9465" lon="4.84362">
        <ele>268</ele>
        <time>2018-06-01T10:26:43Z</time>
      </trkpt>
      <trkpt lat="45.94649" lon="4.84353">
        <ele>268</ele>
        <time>2018-06-01T10:26:44Z</time>
      </trkpt>
      <trkpt lat="45.94647" lon="4.84343">
        <ele>268</ele>
        <time>2018-06-01T10:26:45Z</time>
      </trkpt>
      <trkpt lat="45.94647" lon="4.84336">
        <ele>268</ele>
        <time>2018-06-01T10:26:46Z</time>
      </trkpt>
      <trkpt lat="45.94643" lon="4.84329">
        <ele>268</ele>
        <time>2018-06-01T10:26:47Z</time>
      </trkpt>
      <trkpt lat="45.94643" lon="4.84321">
        <ele>268</ele>
        <time>2018-06-01T10:26:48Z</time>
      </trkpt>
      <trkpt lat="45.94641" lon="4.84314">
        <ele>269</ele>
        <time>2018-06-01T10:26:49Z</time>
      </trkpt>
      <trkpt lat="45.94639" lon="4.84305">
        <ele>269</ele>
        <time>2018-06-01T10:26:50Z</time>
      </trkpt>
      <trkpt lat="45.94639" lon="4.84296">
        <ele>269</ele>
        <time>2018-06-01T10:26:51Z</time>
      </trkpt>
      <trkpt lat="45.94637" lon="4.84285">
        <ele>269</ele>
        <time>2018-06-01T10:26:52Z</time>
      </trkpt>
      <trkpt lat="45.94636" lon="4.84275">
        <ele>269</ele>
        <time>2018-06-01T10:26:53Z</time>
      </trkpt>
      <trkpt lat="45.94635" lon="4.84266">
        <ele>269</ele>
        <time>2018-06-01T10:26:54Z</time>
      </trkpt>
      <trkpt lat="45.94633" lon="4.84259">
        <ele>269</ele>
        <time>2018-06-01T10:26:55Z</time>
      </trkpt>
      <trkpt lat="45.94631" lon="4.8425">
        <ele>269</ele>
        <time>2018-06-01T10:26:56Z</time>
      </trkpt>
      <trkpt lat="45.94629" lon="4.84241">
        <ele>269</ele>
        <time>2018-06-01T10:26:57Z</time>
      </trkpt>
      <trkpt lat="45.94627" lon="4.84232">
        <ele>269</ele>
        <time>2018-06-01T10:26:58Z</time>
      </trkpt>
      <trkpt lat="45.94626" lon="4.84222">
        <ele>269</ele>
        <time>2018-06-01T10:26:59Z</time>
      </trkpt>
      <trkpt lat="45.94625" lon="4.84213">
        <ele>269</ele>
        <time>2018-06-01T10:27:00Z</time>
      </trkpt>
      <trkpt lat="45.94624" lon="4.84203">
        <ele>269</ele>
        <time>2018-06-01T10:27:01Z</time>
      </trkpt>
      <trkpt lat="45.94623" lon="4.84193">
        <ele>269</ele>
        <time>2018-06-01T10:27:02Z</time>
      </trkpt>
      <trkpt lat="45.9462" lon="4.84183">
        <ele>269</ele>
        <time>2018-06-01T10:27:03Z</time>
      </trkpt>
      <trkpt lat="45.94618" lon="4.84174">
        <ele>269</ele>
        <time>2018-06-01T10:27:04Z</time>
      </trkpt>
      <trkpt lat="45.94616" lon="4.84164">
        <ele>269</ele>
        <time>2018-06-01T10:27:05Z</time>
      </trkpt>
      <trkpt lat="45.94614" lon="4.84154">
        <ele>269</ele>
        <time>2018-06-01T10:27:06Z</time>
      </trkpt>
      <trkpt lat="45.94614" lon="4.84145">
        <ele>269</ele>
        <time>2018-06-01T10:27:07Z</time>
      </trkpt>
      <trkpt lat="45.94613" lon="4.84136">
        <ele>269</ele>
        <time>2018-06-01T10:27:08Z</time>
      </trkpt>
      <trkpt lat="45.94611" lon="4.84127">
        <ele>269</ele>
        <time>2018-06-01T10:27:09Z</time>
      </trkpt>
      <trkpt lat="45.9461" lon="4.84118">
        <ele>269</ele>
        <time>2018-06-01T10:27:10Z</time>
      </trkpt>
      <trkpt lat="45.94608" lon="4.84107">
        <ele>269</ele>
        <time>2018-06-01T10:27:11Z</time>
      </trkpt>
      <trkpt lat="45.94609" lon="4.84097">
        <ele>269</ele>
        <time>2018-06-01T10:27:12Z</time>
      </trkpt>
      <trkpt lat="45.94608" lon="4.84088">
        <ele>269</ele>
        <time>2018-06-01T10:27:13Z</time>
      </trkpt>
      <trkpt lat="45.94604" lon="4.84081">
        <ele>269</ele>
        <time>2018-06-01T10:27:14Z</time>
      </trkpt>
      <trkpt lat="45.94606" lon="4.84073">
        <ele>269</ele>
        <time>2018-06-01T10:27:15Z</time>
      </trkpt>
      <trkpt lat="45.94603" lon="4.84066">
        <ele>269</ele>
        <time>2018-06-01T10:27:16Z</time>
      </trkpt>
      <trkpt lat="45.94603" lon="4.84058">
        <ele>269</ele>
        <time>2018-06-01T10:27:17Z</time>
      </trkpt>
      <trkpt lat="45.94601" lon="4.84049">
        <ele>269</ele>
        <time>2018-06-01T10:27:18Z</time>
      </trkpt>
      <trkpt lat="45.946" lon="4.8404">
        <ele>269</ele>
        <time>2018-06-01T10:27:19Z</time>
      </trkpt>
      <trkpt lat="45.94599" lon="4.84031">
        <ele>269</ele>
        <time>2018-06-01T10:27:20Z</time>
      </trkpt>
      <trkpt lat="45.94598" lon="4.84021">
        <ele>269</ele>
        <time>2018-06-01T10:27:21Z</time>
      </trkpt>
      <trkpt lat="45.94595" lon="4.84011">
        <ele>269</ele>
        <time>2018-06-01T10:27:22Z</time>
      </trkpt>
      <trkpt lat="45.94593" lon="4.84002">
        <ele>269</ele>
        <time>2018-06-01T10:27:23Z</time>
      </trkpt>
      <trkpt lat="45.94592" lon="4.83994">
        <ele>269</ele>
        <time>2018-06-01T10:27:24Z</time>
      </trkpt>
      <trkpt lat="45.9459" lon="4.83984">
        <ele>269</ele>
        <time>2018-06-01T10:27:25Z</time>
      </trkpt>
      <trkpt lat="45.94588" lon="4.83975">
        <ele>268</ele>
        <time>2018-06-01T10:27:26Z</time>
      </trkpt>
      <trkpt lat="45.94586" lon="4.83966">
        <ele>268</ele>
        <time>2018-06-01T10:27:27Z</time>
      </trkpt>
      <trkpt lat="45.94585" lon="4.83956">
        <ele>268</ele>
        <time>2018-06-01T10:27:28Z</time>
      </trkpt>
      <trkpt lat="45.94584" lon="4.83946">
        <ele>268</ele>
        <time>2018-06-01T10:27:29Z</time>
      </trkpt>
      <trkpt lat="45.94582" lon="4.83936">
        <ele>269</ele>
        <time>2018-06-01T10:27:30Z</time>
      </trkpt>
      <trkpt lat="45.9458" lon="4.83927">
        <ele>268</ele>
        <time>2018-06-01T10:27:31Z</time>
      </trkpt>
      <trkpt lat="45.94579" lon="4.83915">
        <ele>268</ele>
        <time>2018-06-01T10:27:32Z</time>
      </trkpt>
      <trkpt lat="45.94577" lon="4.83905">
        <ele>268</ele>
        <time>2018-06-01T10:27:33Z</time>
      </trkpt>
      <trkpt lat="45.94576" lon="4.83894">
        <ele>267</ele>
        <time>2018-06-01T10:27:34Z</time>
      </trkpt>
      <trkpt lat="45.94575" lon="4.83883">
        <ele>267</ele>
        <time>2018-06-01T10:27:35Z</time>
      </trkpt>
      <trkpt lat="45.94573" lon="4.83871">
        <ele>267</ele>
        <time>2018-06-01T10:27:36Z</time>
      </trkpt>
      <trkpt lat="45.94572" lon="4.8386">
        <ele>267</ele>
        <time>2018-06-01T10:27:37Z</time>
      </trkpt>
      <trkpt lat="45.94571" lon="4.83849">
        <ele>266</ele>
        <time>2018-06-01T10:27:38Z</time>
      </trkpt>
      <trkpt lat="45.94569" lon="4.83839">
        <ele>266</ele>
        <time>2018-06-01T10:27:39Z</time>
      </trkpt>
      <trkpt lat="45.94567" lon="4.83827">
        <ele>265</ele>
        <time>2018-06-01T10:27:40Z</time>
      </trkpt>
      <trkpt lat="45.94567" lon="4.83816">
        <ele>264</ele>
        <time>2018-06-01T10:27:41Z</time>
      </trkpt>
      <trkpt lat="45.94565" lon="4.83805">
        <ele>264</ele>
        <time>2018-06-01T10:27:42Z</time>
      </trkpt>
      <trkpt lat="45.94562" lon="4.83795">
        <ele>264</ele>
        <time>2018-06-01T10:27:43Z</time>
      </trkpt>
      <trkpt lat="45.94558" lon="4.83781">
        <ele>264</ele>
        <time>2018-06-01T10:27:44Z</time>
      </trkpt>
      <trkpt lat="45.94556" lon="4.83769">
        <ele>263</ele>
        <time>2018-06-01T10:27:45Z</time>
      </trkpt>
      <trkpt lat="45.94553" lon="4.83759">
        <ele>263</ele>
        <time>2018-06-01T10:27:46Z</time>
      </trkpt>
      <trkpt lat="45.94552" lon="4.83748">
        <ele>262</ele>
        <time>2018-06-01T10:27:47Z</time>
      </trkpt>
      <trkpt lat="45.9455" lon="4.83737">
        <ele>262</ele>
        <time>2018-06-01T10:27:48Z</time>
      </trkpt>
      <trkpt lat="45.94549" lon="4.83726">
        <ele>262</ele>
        <time>2018-06-01T10:27:49Z</time>
      </trkpt>
      <trkpt lat="45.94548" lon="4.83716">
        <ele>262</ele>
        <time>2018-06-01T10:27:50Z</time>
      </trkpt>
      <trkpt lat="45.94546" lon="4.83707">
        <ele>262</ele>
        <time>2018-06-01T10:27:51Z</time>
      </trkpt>
      <trkpt lat="45.94545" lon="4.83696">
        <ele>262</ele>
        <time>2018-06-01T10:27:52Z</time>
      </trkpt>
      <trkpt lat="45.94544" lon="4.83685">
        <ele>262</ele>
        <time>2018-06-01T10:27:53Z</time>
      </trkpt>
      <trkpt lat="45.94542" lon="4.83675">
        <ele>262</ele>
        <time>2018-06-01T10:27:54Z</time>
      </trkpt>
      <trkpt lat="45.9454" lon="4.83664">
        <ele>261</ele>
        <time>2018-06-01T10:27:55Z</time>
      </trkpt>
      <trkpt lat="45.94539" lon="4.83654">
        <ele>261</ele>
        <time>2018-06-01T10:27:56Z</time>
      </trkpt>
      <trkpt lat="45.94537" lon="4.83643">
        <ele>261</ele>
        <time>2018-06-01T10:27:57Z</time>
      </trkpt>
      <trkpt lat="45.94536" lon="4.83634">
        <ele>261</ele>
        <time>2018-06-01T10:27:58Z</time>
      </trkpt>
      <trkpt lat="45.94534" lon="4.83625">
        <ele>261</ele>
        <time>2018-06-01T10:27:59Z</time>
      </trkpt>
      <trkpt lat="45.94532" lon="4.83615">
        <ele>261</ele>
        <time>2018-06-01T10:28:00Z</time>
      </trkpt>
      <trkpt lat="45.94531" lon="4.83607">
        <ele>261</ele>
        <time>2018-06-01T10:28:01Z</time>
      </trkpt>
      <trkpt lat="45.94529" lon="4.83599">
        <ele>261</ele>
        <time>2018-06-01T10:28:02Z</time>
      </trkpt>
      <trkpt lat="45.94527" lon="4.83591">
        <ele>261</ele>
        <time>2018-06-01T10:28:03Z</time>
      </trkpt>
      <trkpt lat="45.94524" lon="4.83583">
        <ele>261</ele>
        <time>2018-06-01T10:28:04Z</time>
      </trkpt>
      <trkpt lat="45.94522" lon="4.83574">
        <ele>261</ele>
        <time>2018-06-01T10:28:05Z</time>
      </trkpt>
      <trkpt lat="45.9452" lon="4.83566">
        <ele>261</ele>
        <time>2018-06-01T10:28:06Z</time>
      </trkpt>
      <trkpt lat="45.94518" lon="4.83558">
        <ele>261</ele>
        <time>2018-06-01T10:28:07Z</time>
      </trkpt>
      <trkpt lat="45.94515" lon="4.8355">
        <ele>261</ele>
        <time>2018-06-01T10:28:08Z</time>
      </trkpt>
      <trkpt lat="45.94511" lon="4.83544">
        <ele>261</ele>
        <time>2018-06-01T10:28:09Z</time>
      </trkpt>
      <trkpt lat="45.94507" lon="4.83537">
        <ele>262</ele>
        <time>2018-06-01T10:28:10Z</time>
      </trkpt>
      <trkpt lat="45.94504" lon="4.83534">
        <ele>262</ele>
        <time>2018-06-01T10:28:11Z</time>
      </trkpt>
      <trkpt lat="45.945" lon="4.83527">
        <ele>262</ele>
        <time>2018-06-01T10:28:12Z</time>
      </trkpt>
      <trkpt lat="45.94496" lon="4.8352">
        <ele>262</ele>
        <time>2018-06-01T10:28:13Z</time>
      </trkpt>
      <trkpt lat="45.9449" lon="4.83513">
        <ele>262</ele>
        <time>2018-06-01T10:28:14Z</time>
      </trkpt>
      <trkpt lat="45.94485" lon="4.83506">
        <ele>262</ele>
        <time>2018-06-01T10:28:15Z</time>
      </trkpt>
      <trkpt lat="45.94481" lon="4.83499">
        <ele>263</ele>
        <time>2018-06-01T10:28:16Z</time>
      </trkpt>
      <trkpt lat="45.94476" lon="4.83491">
        <ele>263</ele>
        <time>2018-06-01T10:28:17Z</time>
      </trkpt>
      <trkpt lat="45.94473" lon="4.83481">
        <ele>263</ele>
        <time>2018-06-01T10:28:18Z</time>
      </trkpt>
      <trkpt lat="45.94469" lon="4.83473">
        <ele>263</ele>
        <time>2018-06-01T10:28:19Z</time>
      </trkpt>
      <trkpt lat="45.94465" lon="4.83467">
        <ele>263</ele>
        <time>2018-06-01T10:28:20Z</time>
      </trkpt>
      <trkpt lat="45.94461" lon="4.8346">
        <ele>263</ele>
        <time>2018-06-01T10:28:21Z</time>
      </trkpt>
      <trkpt lat="45.94457" lon="4.83453">
        <ele>263</ele>
        <time>2018-06-01T10:28:22Z</time>
      </trkpt>
      <trkpt lat="45.94453" lon="4.83445">
        <ele>263</ele>
        <time>2018-06-01T10:28:23Z</time>
      </trkpt>
      <trkpt lat="45.9445" lon="4.83439">
        <ele>263</ele>
        <time>2018-06-01T10:28:24Z</time>
      </trkpt>
      <trkpt lat="45.94447" lon="4.83431">
        <ele>263</ele>
        <time>2018-06-01T10:28:25Z</time>
      </trkpt>
      <trkpt lat="45.94443" lon="4.83425">
        <ele>264</ele>
        <time>2018-06-01T10:28:26Z</time>
      </trkpt>
      <trkpt lat="45.9444" lon="4.83419">
        <ele>264</ele>
        <time>2018-06-01T10:28:27Z</time>
      </trkpt>
      <trkpt lat="45.94437" lon="4.83411">
        <ele>264</ele>
        <time>2018-06-01T10:28:28Z</time>
      </trkpt>
      <trkpt lat="45.94432" lon="4.83405">
        <ele>264</ele>
        <time>2018-06-01T10:28:29Z</time>
      </trkpt>
      <trkpt lat="45.94428" lon="4.83397">
        <ele>264</ele>
        <time>2018-06-01T10:28:30Z</time>
      </trkpt>
      <trkpt lat="45.94424" lon="4.8339">
        <ele>264</ele>
        <time>2018-06-01T10:28:31Z</time>
      </trkpt>
      <trkpt lat="45.9442" lon="4.83383">
        <ele>264</ele>
        <time>2018-06-01T10:28:32Z</time>
      </trkpt>
      <trkpt lat="45.94417" lon="4.83376">
        <ele>264</ele>
        <time>2018-06-01T10:28:33Z</time>
      </trkpt>
      <trkpt lat="45.94413" lon="4.83368">
        <ele>264</ele>
        <time>2018-06-01T10:28:34Z</time>
      </trkpt>
      <trkpt lat="45.9441" lon="4.8336">
        <ele>264</ele>
        <time>2018-06-01T10:28:35Z</time>
      </trkpt>
      <trkpt lat="45.94407" lon="4.83351">
        <ele>263</ele>
        <time>2018-06-01T10:28:36Z</time>
      </trkpt>
      <trkpt lat="45.94405" lon="4.83345">
        <ele>263</ele>
        <time>2018-06-01T10:28:37Z</time>
      </trkpt>
      <trkpt lat="45.94401" lon="4.83337">
        <ele>263</ele>
        <time>2018-06-01T10:28:38Z</time>
      </trkpt>
      <trkpt lat="45.94398" lon="4.83329">
        <ele>264</ele>
        <time>2018-06-01T10:28:39Z</time>
      </trkpt>
      <trkpt lat="45.94396" lon="4.83321">
        <ele>264</ele>
        <time>2018-06-01T10:28:40Z</time>
      </trkpt>
      <trkpt lat="45.94393" lon="4.83313">
        <ele>264</ele>
        <time>2018-06-01T10:28:41Z</time>
      </trkpt>
      <trkpt lat="45.9439" lon="4.83304">
        <ele>264</ele>
        <time>2018-06-01T10:28:42Z</time>
      </trkpt>
      <trkpt lat="45.94387" lon="4.83296">
        <ele>264</ele>
        <time>2018-06-01T10:28:43Z</time>
      </trkpt>
      <trkpt lat="45.94384" lon="4.83288">
        <ele>264</ele>
        <time>2018-06-01T10:28:44Z</time>
      </trkpt>
      <trkpt lat="45.94382" lon="4.83281">
        <ele>264</ele>
        <time>2018-06-01T10:28:45Z</time>
      </trkpt>
      <trkpt lat="45.94379" lon="4.83274">
        <ele>264</ele>
        <time>2018-06-01T10:28:46Z</time>
      </trkpt>
      <trkpt lat="45.94377" lon="4.83267">
        <ele>264</ele>
        <time>2018-06-01T10:28:47Z</time>
      </trkpt>
      <trkpt lat="45.94374" lon="4.83261">
        <ele>264</ele>
        <time>2018-06-01T10:28:48Z</time>
      </trkpt>
      <trkpt lat="45.94372" lon="4.83252">
        <ele>265</ele>
        <time>2018-06-01T10:28:49Z</time>
      </trkpt>
      <trkpt lat="45.94369" lon="4.83244">
        <ele>265</ele>
        <time>2018-06-01T10:28:50Z</time>
      </trkpt>
      <trkpt lat="45.94366" lon="4.83237">
        <ele>265</ele>
        <time>2018-06-01T10:28:51Z</time>
      </trkpt>
      <trkpt lat="45.94365" lon="4.83229">
        <ele>266</ele>
        <time>2018-06-01T10:28:52Z</time>
      </trkpt>
      <trkpt lat="45.94362" lon="4.83222">
        <ele>266</ele>
        <time>2018-06-01T10:28:53Z</time>
      </trkpt>
      <trkpt lat="45.94359" lon="4.83215">
        <ele>266</ele>
        <time>2018-06-01T10:28:54Z</time>
      </trkpt>
      <trkpt lat="45.94356" lon="4.83208">
        <ele>266</ele>
        <time>2018-06-01T10:28:55Z</time>
      </trkpt>
      <trkpt lat="45.94351" lon="4.83199">
        <ele>266</ele>
        <time>2018-06-01T10:28:56Z</time>
      </trkpt>
      <trkpt lat="45.94348" lon="4.83191">
        <ele>266</ele>
        <time>2018-06-01T10:28:57Z</time>
      </trkpt>
      <trkpt lat="45.94346" lon="4.83184">
        <ele>266</ele>
        <time>2018-06-01T10:28:58Z</time>
      </trkpt>
      <trkpt lat="45.94343" lon="4.83178">
        <ele>266</ele>
        <time>2018-06-01T10:28:59Z</time>
      </trkpt>
      <trkpt lat="45.94339" lon="4.8317">
        <ele>266</ele>
        <time>2018-06-01T10:29:00Z</time>
      </trkpt>
      <trkpt lat="45.94337" lon="4.83163">
        <ele>266</ele>
        <time>2018-06-01T10:29:01Z</time>
      </trkpt>
      <trkpt lat="45.94334" lon="4.83154">
        <ele>266</ele>
        <time>2018-06-01T10:29:02Z</time>
      </trkpt>
      <trkpt lat="45.94332" lon="4.83146">
        <ele>266</ele>
        <time>2018-06-01T10:29:03Z</time>
      </trkpt>
      <trkpt lat="45.9433" lon="4.83138">
        <ele>266</ele>
        <time>2018-06-01T10:29:04Z</time>
      </trkpt>
      <trkpt lat="45.94327" lon="4.83131">
        <ele>266</ele>
        <time>2018-06-01T10:29:05Z</time>
      </trkpt>
      <trkpt lat="45.94326" lon="4.83122">
        <ele>266</ele>
        <time>2018-06-01T10:29:06Z</time>
      </trkpt>
      <trkpt lat="45.94322" lon="4.83114">
        <ele>266</ele>
        <time>2018-06-01T10:29:07Z</time>
      </trkpt>
      <trkpt lat="45.94319" lon="4.83106">
        <ele>266</ele>
        <time>2018-06-01T10:29:08Z</time>
      </trkpt>
      <trkpt lat="45.94316" lon="4.83095">
        <ele>266</ele>
        <time>2018-06-01T10:29:10Z</time>
      </trkpt>
      <trkpt lat="45.94315" lon="4.83087">
        <ele>266</ele>
        <time>2018-06-01T10:29:11Z</time>
      </trkpt>
      <trkpt lat="45.94313" lon="4.83081">
        <ele>266</ele>
        <time>2018-06-01T10:29:12Z</time>
      </trkpt>
      <trkpt lat="45.9431" lon="4.83073">
        <ele>266</ele>
        <time>2018-06-01T10:29:13Z</time>
      </trkpt>
      <trkpt lat="45.94309" lon="4.83067">
        <ele>266</ele>
        <time>2018-06-01T10:29:14Z</time>
      </trkpt>
      <trkpt lat="45.94309" lon="4.8306">
        <ele>266</ele>
        <time>2018-06-01T10:29:15Z</time>
      </trkpt>
      <trkpt lat="45.94308" lon="4.83053">
        <ele>266</ele>
        <time>2018-06-01T10:29:16Z</time>
      </trkpt>
      <trkpt lat="45.94305" lon="4.83044">
        <ele>266</ele>
        <time>2018-06-01T10:29:17Z</time>
      </trkpt>
      <trkpt lat="45.94304" lon="4.83036">
        <ele>266</ele>
        <time>2018-06-01T10:29:18Z</time>
      </trkpt>
      <trkpt lat="45.94302" lon="4.83027">
        <ele>266</ele>
        <time>2018-06-01T10:29:19Z</time>
      </trkpt>
      <trkpt lat="45.94301" lon="4.8302">
        <ele>266</ele>
        <time>2018-06-01T10:29:20Z</time>
      </trkpt>
      <trkpt lat="45.943" lon="4.83012">
        <ele>266</ele>
        <time>2018-06-01T10:29:21Z</time>
      </trkpt>
      <trkpt lat="45.94297" lon="4.83005">
        <ele>266</ele>
        <time>2018-06-01T10:29:22Z</time>
      </trkpt>
      <trkpt lat="45.94296" lon="4.82998">
        <ele>265</ele>
        <time>2018-06-01T10:29:23Z</time>
      </trkpt>
      <trkpt lat="45.94295" lon="4.82991">
        <ele>265</ele>
        <time>2018-06-01T10:29:24Z</time>
      </trkpt>
      <trkpt lat="45.94294" lon="4.82984">
        <ele>265</ele>
        <time>2018-06-01T10:29:25Z</time>
      </trkpt>
      <trkpt lat="45.94292" lon="4.82978">
        <ele>265</ele>
        <time>2018-06-01T10:29:26Z</time>
      </trkpt>
      <trkpt lat="45.94289" lon="4.82972">
        <ele>265</ele>
        <time>2018-06-01T10:29:27Z</time>
      </trkpt>
      <trkpt lat="45.94286" lon="4.82961">
        <ele>265</ele>
        <time>2018-06-01T10:29:29Z</time>
      </trkpt>
      <trkpt lat="45.94284" lon="4.82953">
        <ele>265</ele>
        <time>2018-06-01T10:29:30Z</time>
      </trkpt>
      <trkpt lat="45.94283" lon="4.82946">
        <ele>265</ele>
        <time>2018-06-01T10:29:31Z</time>
      </trkpt>
      <trkpt lat="45.94283" lon="4.82936">
        <ele>265</ele>
        <time>2018-06-01T10:29:32Z</time>
      </trkpt>
      <trkpt lat="45.94286" lon="4.82929">
        <ele>265</ele>
        <time>2018-06-01T10:29:33Z</time>
      </trkpt>
      <trkpt lat="45.94288" lon="4.82922">
        <ele>265</ele>
        <time>2018-06-01T10:29:34Z</time>
      </trkpt>
      <trkpt lat="45.94288" lon="4.82915">
        <ele>265</ele>
        <time>2018-06-01T10:29:35Z</time>
      </trkpt>
      <trkpt lat="45.9429" lon="4.82907">
        <ele>265</ele>
        <time>2018-06-01T10:29:36Z</time>
      </trkpt>
      <trkpt lat="45.9429" lon="4.82899">
        <ele>265</ele>
        <time>2018-06-01T10:29:37Z</time>
      </trkpt>
      <trkpt lat="45.94291" lon="4.82891">
        <ele>265</ele>
        <time>2018-06-01T10:29:38Z</time>
      </trkpt>
      <trkpt lat="45.94292" lon="4.82883">
        <ele>265</ele>
        <time>2018-06-01T10:29:39Z</time>
      </trkpt>
      <trkpt lat="45.94292" lon="4.82874">
        <ele>265</ele>
        <time>2018-06-01T10:29:40Z</time>
      </trkpt>
      <trkpt lat="45.94289" lon="4.82865">
        <ele>265</ele>
        <time>2018-06-01T10:29:41Z</time>
      </trkpt>
      <trkpt lat="45.9429" lon="4.82856">
        <ele>265</ele>
        <time>2018-06-01T10:29:42Z</time>
      </trkpt>
      <trkpt lat="45.94291" lon="4.82847">
        <ele>265</ele>
        <time>2018-06-01T10:29:43Z</time>
      </trkpt>
      <trkpt lat="45.94292" lon="4.82838">
        <ele>265</ele>
        <time>2018-06-01T10:29:44Z</time>
      </trkpt>
      <trkpt lat="45.94292" lon="4.8283">
        <ele>265</ele>
        <time>2018-06-01T10:29:45Z</time>
      </trkpt>
      <trkpt lat="45.94292" lon="4.82821">
        <ele>265</ele>
        <time>2018-06-01T10:29:46Z</time>
      </trkpt>
      <trkpt lat="45.94292" lon="4.82812">
        <ele>265</ele>
        <time>2018-06-01T10:29:47Z</time>
      </trkpt>
      <trkpt lat="45.94291" lon="4.82804">
        <ele>265</ele>
        <time>2018-06-01T10:29:48Z</time>
      </trkpt>
      <trkpt lat="45.94291" lon="4.82794">
        <ele>265</ele>
        <time>2018-06-01T10:29:49Z</time>
      </trkpt>
      <trkpt lat="45.9429" lon="4.82785">
        <ele>265</ele>
        <time>2018-06-01T10:29:50Z</time>
      </trkpt>
      <trkpt lat="45.9429" lon="4.82777">
        <ele>265</ele>
        <time>2018-06-01T10:29:51Z</time>
      </trkpt>
      <trkpt lat="45.94287" lon="4.82769">
        <ele>265</ele>
        <time>2018-06-01T10:29:52Z</time>
      </trkpt>
      <trkpt lat="45.94285" lon="4.82761">
        <ele>265</ele>
        <time>2018-06-01T10:29:53Z</time>
      </trkpt>
      <trkpt lat="45.94286" lon="4.82753">
        <ele>265</ele>
        <time>2018-06-01T10:29:54Z</time>
      </trkpt>
      <trkpt lat="45.94286" lon="4.82744">
        <ele>265</ele>
        <time>2018-06-01T10:29:55Z</time>
      </trkpt>
      <trkpt lat="45.94285" lon="4.82736">
        <ele>265</ele>
        <time>2018-06-01T10:29:56Z</time>
      </trkpt>
      <trkpt lat="45.94285" lon="4.82726">
        <ele>265</ele>
        <time>2018-06-01T10:29:57Z</time>
      </trkpt>
      <trkpt lat="45.94286" lon="4.82716">
        <ele>265</ele>
        <time>2018-06-01T10:29:58Z</time>
      </trkpt>
      <trkpt lat="45.94285" lon="4.82706">
        <ele>265</ele>
        <time>2018-06-01T10:29:59Z</time>
      </trkpt>
      <trkpt lat="45.94286" lon="4.82696">
        <ele>265</ele>
        <time>2018-06-01T10:30:00Z</time>
      </trkpt>
      <trkpt lat="45.94287" lon="4.82686">
        <ele>265</ele>
        <time>2018-06-01T10:30:01Z</time>
      </trkpt>
      <trkpt lat="45.94288" lon="4.82677">
        <ele>265</ele>
        <time>2018-06-01T10:30:02Z</time>
      </trkpt>
      <trkpt lat="45.94288" lon="4.82668">
        <ele>265</ele>
        <time>2018-06-01T10:30:03Z</time>
      </trkpt>
      <trkpt lat="45.94289" lon="4.82658">
        <ele>265</ele>
        <time>2018-06-01T10:30:04Z</time>
      </trkpt>
      <trkpt lat="45.94288" lon="4.82649">
        <ele>265</ele>
        <time>2018-06-01T10:30:05Z</time>
      </trkpt>
      <trkpt lat="45.94289" lon="4.8264">
        <ele>265</ele>
        <time>2018-06-01T10:30:06Z</time>
      </trkpt>
      <trkpt lat="45.94287" lon="4.82631">
        <ele>265</ele>
        <time>2018-06-01T10:30:07Z</time>
      </trkpt>
      <trkpt lat="45.94288" lon="4.82621">
        <ele>265</ele>
        <time>2018-06-01T10:30:08Z</time>
      </trkpt>
      <trkpt lat="45.94286" lon="4.8261">
        <ele>265</ele>
        <time>2018-06-01T10:30:09Z</time>
      </trkpt>
      <trkpt lat="45.94287" lon="4.82602">
        <ele>265</ele>
        <time>2018-06-01T10:30:10Z</time>
      </trkpt>
      <trkpt lat="45.94287" lon="4.8259">
        <ele>265</ele>
        <time>2018-06-01T10:30:11Z</time>
      </trkpt>
      <trkpt lat="45.94287" lon="4.82582">
        <ele>265</ele>
        <time>2018-06-01T10:30:12Z</time>
      </trkpt>
      <trkpt lat="45.94288" lon="4.82573">
        <ele>265</ele>
        <time>2018-06-01T10:30:13Z</time>
      </trkpt>
      <trkpt lat="45.9429" lon="4.82563">
        <ele>264</ele>
        <time>2018-06-01T10:30:14Z</time>
      </trkpt>
      <trkpt lat="45.9429" lon="4.82554">
        <ele>264</ele>
        <time>2018-06-01T10:30:15Z</time>
      </trkpt>
      <trkpt lat="45.9429" lon="4.82544">
        <ele>264</ele>
        <time>2018-06-01T10:30:16Z</time>
      </trkpt>
      <trkpt lat="45.9429" lon="4.82535">
        <ele>264</ele>
        <time>2018-06-01T10:30:17Z</time>
      </trkpt>
      <trkpt lat="45.9429" lon="4.82526">
        <ele>264</ele>
        <time>2018-06-01T10:30:18Z</time>
      </trkpt>
      <trkpt lat="45.94291" lon="4.82516">
        <ele>264</ele>
        <time>2018-06-01T10:30:19Z</time>
      </trkpt>
      <trkpt lat="45.94291" lon="4.82507">
        <ele>264</ele>
        <time>2018-06-01T10:30:20Z</time>
      </trkpt>
      <trkpt lat="45.9429" lon="4.82498">
        <ele>264</ele>
        <time>2018-06-01T10:30:21Z</time>
      </trkpt>
      <trkpt lat="45.9429" lon="4.82489">
        <ele>264</ele>
        <time>2018-06-01T10:30:22Z</time>
      </trkpt>
      <trkpt lat="45.94291" lon="4.82481">
        <ele>264</ele>
        <time>2018-06-01T10:30:23Z</time>
      </trkpt>
      <trkpt lat="45.94292" lon="4.82472">
        <ele>264</ele>
        <time>2018-06-01T10:30:24Z</time>
      </trkpt>
      <trkpt lat="45.94291" lon="4.82462">
        <ele>264</ele>
        <time>2018-06-01T10:30:25Z</time>
      </trkpt>
      <trkpt lat="45.94292" lon="4.82454">
        <ele>264</ele>
        <time>2018-06-01T10:30:26Z</time>
      </trkpt>
      <trkpt lat="45.94291" lon="4.82443">
        <ele>264</ele>
        <time>2018-06-01T10:30:27Z</time>
      </trkpt>
      <trkpt lat="45.94291" lon="4.82433">
        <ele>264</ele>
        <time>2018-06-01T10:30:28Z</time>
      </trkpt>
      <trkpt lat="45.94292" lon="4.82423">
        <ele>264</ele>
        <time>2018-06-01T10:30:29Z</time>
      </trkpt>
      <trkpt lat="45.9429" lon="4.82415">
        <ele>264</ele>
        <time>2018-06-01T10:30:30Z</time>
      </trkpt>
      <trkpt lat="45.94291" lon="4.82407">
        <ele>264</ele>
        <time>2018-06-01T10:30:31Z</time>
      </trkpt>
      <trkpt lat="45.94289" lon="4.824">
        <ele>264</ele>
        <time>2018-06-01T10:30:32Z</time>
      </trkpt>
      <trkpt lat="45.94289" lon="4.8239">
        <ele>264</ele>
        <time>2018-06-01T10:30:33Z</time>
      </trkpt>
      <trkpt lat="45.94287" lon="4.8238">
        <ele>264</ele>
        <time>2018-06-01T10:30:34Z</time>
      </trkpt>
      <trkpt lat="45.94288" lon="4.8237">
        <ele>264</ele>
        <time>2018-06-01T10:30:35Z</time>
      </trkpt>
      <trkpt lat="45.94289" lon="4.82361">
        <ele>264</ele>
        <time>2018-06-01T10:30:36Z</time>
      </trkpt>
      <trkpt lat="45.94289" lon="4.82351">
        <ele>264</ele>
        <time>2018-06-01T10:30:37Z</time>
      </trkpt>
      <trkpt lat="45.94289" lon="4.82341">
        <ele>264</ele>
        <time>2018-06-01T10:30:38Z</time>
      </trkpt>
      <trkpt lat="45.94288" lon="4.82328">
        <ele>265</ele>
        <time>2018-06-01T10:30:39Z</time>
      </trkpt>
      <trkpt lat="45.94288" lon="4.82316">
        <ele>265</ele>
        <time>2018-06-01T10:30:40Z</time>
      </trkpt>
      <trkpt lat="45.94288" lon="4.82306">
        <ele>265</ele>
        <time>2018-06-01T10:30:41Z</time>
      </trkpt>
      <trkpt lat="45.94288" lon="4.82296">
        <ele>265</ele>
        <time>2018-06-01T10:30:42Z</time>
      </trkpt>
      <trkpt lat="45.94288" lon="4.82285">
        <ele>265</ele>
        <time>2018-06-01T10:30:43Z</time>
      </trkpt>
      <trkpt lat="45.94287" lon="4.82274">
        <ele>265</ele>
        <time>2018-06-01T10:30:44Z</time>
      </trkpt>
      <trkpt lat="45.94285" lon="4.82266">
        <ele>265</ele>
        <time>2018-06-01T10:30:45Z</time>
      </trkpt>
      <trkpt lat="45.94285" lon="4.82256">
        <ele>265</ele>
        <time>2018-06-01T10:30:46Z</time>
      </trkpt>
      <trkpt lat="45.94282" lon="4.82245">
        <ele>264</ele>
        <time>2018-06-01T10:30:47Z</time>
      </trkpt>
      <trkpt lat="45.94282" lon="4.82234">
        <ele>264</ele>
        <time>2018-06-01T10:30:48Z</time>
      </trkpt>
      <trkpt lat="45.94281" lon="4.82224">
        <ele>264</ele>
        <time>2018-06-01T10:30:49Z</time>
      </trkpt>
      <trkpt lat="45.94281" lon="4.82215">
        <ele>264</ele>
        <time>2018-06-01T10:30:50Z</time>
      </trkpt>
      <trkpt lat="45.9428" lon="4.82204">
        <ele>264</ele>
        <time>2018-06-01T10:30:51Z</time>
      </trkpt>
      <trkpt lat="45.94283" lon="4.82198">
        <ele>264</ele>
        <time>2018-06-01T10:30:52Z</time>
      </trkpt>
      <trkpt lat="45.94281" lon="4.82188">
        <ele>264</ele>
        <time>2018-06-01T10:30:53Z</time>
      </trkpt>
      <trkpt lat="45.94278" lon="4.82179">
        <ele>264</ele>
        <time>2018-06-01T10:30:54Z</time>
      </trkpt>
      <trkpt lat="45.94279" lon="4.82167">
        <ele>264</ele>
        <time>2018-06-01T10:30:55Z</time>
      </trkpt>
      <trkpt lat="45.94279" lon="4.82158">
        <ele>263</ele>
        <time>2018-06-01T10:30:56Z</time>
      </trkpt>
      <trkpt lat="45.94278" lon="4.82148">
        <ele>263</ele>
        <time>2018-06-01T10:30:57Z</time>
      </trkpt>
      <trkpt lat="45.94275" lon="4.8214">
        <ele>263</ele>
        <time>2018-06-01T10:30:58Z</time>
      </trkpt>
      <trkpt lat="45.94272" lon="4.8213">
        <ele>263</ele>
        <time>2018-06-01T10:30:59Z</time>
      </trkpt>
      <trkpt lat="45.9427" lon="4.8212">
        <ele>263</ele>
        <time>2018-06-01T10:31:00Z</time>
      </trkpt>
      <trkpt lat="45.94268" lon="4.8211">
        <ele>263</ele>
        <time>2018-06-01T10:31:01Z</time>
      </trkpt>
      <trkpt lat="45.94266" lon="4.821">
        <ele>262</ele>
        <time>2018-06-01T10:31:02Z</time>
      </trkpt>
      <trkpt lat="45.94264" lon="4.8209">
        <ele>262</ele>
        <time>2018-06-01T10:31:03Z</time>
      </trkpt>
      <trkpt lat="45.94261" lon="4.82079">
        <ele>262</ele>
        <time>2018-06-01T10:31:04Z</time>
      </trkpt>
      <trkpt lat="45.94259" lon="4.82071">
        <ele>262</ele>
        <time>2018-06-01T10:31:05Z</time>
      </trkpt>
      <trkpt lat="45.94256" lon="4.82061">
        <ele>262</ele>
        <time>2018-06-01T10:31:06Z</time>
      </trkpt>
      <trkpt lat="45.94256" lon="4.82052">
        <ele>262</ele>
        <time>2018-06-01T10:31:07Z</time>
      </trkpt>
      <trkpt lat="45.94256" lon="4.82043">
        <ele>262</ele>
        <time>2018-06-01T10:31:08Z</time>
      </trkpt>
      <trkpt lat="45.94255" lon="4.82033">
        <ele>262</ele>
        <time>2018-06-01T10:31:09Z</time>
      </trkpt>
      <trkpt lat="45.94251" lon="4.82022">
        <ele>262</ele>
        <time>2018-06-01T10:31:10Z</time>
      </trkpt>
      <trkpt lat="45.94247" lon="4.82012">
        <ele>263</ele>
        <time>2018-06-01T10:31:11Z</time>
      </trkpt>
      <trkpt lat="45.94245" lon="4.82003">
        <ele>262</ele>
        <time>2018-06-01T10:31:12Z</time>
      </trkpt>
      <trkpt lat="45.94243" lon="4.81994">
        <ele>263</ele>
        <time>2018-06-01T10:31:13Z</time>
      </trkpt>
      <trkpt lat="45.94244" lon="4.81985">
        <ele>263</ele>
        <time>2018-06-01T10:31:14Z</time>
      </trkpt>
      <trkpt lat="45.94243" lon="4.81976">
        <ele>263</ele>
        <time>2018-06-01T10:31:15Z</time>
      </trkpt>
      <trkpt lat="45.94241" lon="4.81966">
        <ele>263</ele>
        <time>2018-06-01T10:31:16Z</time>
      </trkpt>
      <trkpt lat="45.9424" lon="4.81957">
        <ele>264</ele>
        <time>2018-06-01T10:31:17Z</time>
      </trkpt>
      <trkpt lat="45.94238" lon="4.81948">
        <ele>264</ele>
        <time>2018-06-01T10:31:18Z</time>
      </trkpt>
      <trkpt lat="45.94237" lon="4.8194">
        <ele>263</ele>
        <time>2018-06-01T10:31:19Z</time>
      </trkpt>
      <trkpt lat="45.94235" lon="4.81933">
        <ele>263</ele>
        <time>2018-06-01T10:31:20Z</time>
      </trkpt>
      <trkpt lat="45.94235" lon="4.81925">
        <ele>263</ele>
        <time>2018-06-01T10:31:21Z</time>
      </trkpt>
      <trkpt lat="45.94233" lon="4.81917">
        <ele>263</ele>
        <time>2018-06-01T10:31:22Z</time>
      </trkpt>
      <trkpt lat="45.94232" lon="4.81909">
        <ele>264</ele>
        <time>2018-06-01T10:31:23Z</time>
      </trkpt>
      <trkpt lat="45.94228" lon="4.819">
        <ele>264</ele>
        <time>2018-06-01T10:31:24Z</time>
      </trkpt>
      <trkpt lat="45.94227" lon="4.81892">
        <ele>264</ele>
        <time>2018-06-01T10:31:25Z</time>
      </trkpt>
      <trkpt lat="45.94225" lon="4.81884">
        <ele>265</ele>
        <time>2018-06-01T10:31:26Z</time>
      </trkpt>
      <trkpt lat="45.94223" lon="4.81876">
        <ele>265</ele>
        <time>2018-06-01T10:31:27Z</time>
      </trkpt>
      <trkpt lat="45.94221" lon="4.81869">
        <ele>265</ele>
        <time>2018-06-01T10:31:28Z</time>
      </trkpt>
      <trkpt lat="45.94219" lon="4.81862">
        <ele>265</ele>
        <time>2018-06-01T10:31:29Z</time>
      </trkpt>
      <trkpt lat="45.94218" lon="4.81854">
        <ele>265</ele>
        <time>2018-06-01T10:31:30Z</time>
      </trkpt>
      <trkpt lat="45.94217" lon="4.81846">
        <ele>265</ele>
        <time>2018-06-01T10:31:31Z</time>
      </trkpt>
      <trkpt lat="45.94216" lon="4.81839">
        <ele>265</ele>
        <time>2018-06-01T10:31:32Z</time>
      </trkpt>
      <trkpt lat="45.94213" lon="4.8183">
        <ele>265</ele>
        <time>2018-06-01T10:31:33Z</time>
      </trkpt>
      <trkpt lat="45.94212" lon="4.81822">
        <ele>265</ele>
        <time>2018-06-01T10:31:34Z</time>
      </trkpt>
      <trkpt lat="45.94211" lon="4.81815">
        <ele>266</ele>
        <time>2018-06-01T10:31:35Z</time>
      </trkpt>
      <trkpt lat="45.94208" lon="4.81807">
        <ele>266</ele>
        <time>2018-06-01T10:31:36Z</time>
      </trkpt>
      <trkpt lat="45.94208" lon="4.81799">
        <ele>266</ele>
        <time>2018-06-01T10:31:37Z</time>
      </trkpt>
      <trkpt lat="45.94207" lon="4.81791">
        <ele>266</ele>
        <time>2018-06-01T10:31:38Z</time>
      </trkpt>
      <trkpt lat="45.94207" lon="4.81781">
        <ele>265</ele>
        <time>2018-06-01T10:31:39Z</time>
      </trkpt>
      <trkpt lat="45.94209" lon="4.81772">
        <ele>265</ele>
        <time>2018-06-01T10:31:40Z</time>
      </trkpt>
      <trkpt lat="45.94211" lon="4.81764">
        <ele>265</ele>
        <time>2018-06-01T10:31:41Z</time>
      </trkpt>
      <trkpt lat="45.94215" lon="4.81755">
        <ele>265</ele>
        <time>2018-06-01T10:31:42Z</time>
      </trkpt>
      <trkpt lat="45.94221" lon="4.81749">
        <ele>265</ele>
        <time>2018-06-01T10:31:43Z</time>
      </trkpt>
      <trkpt lat="45.94224" lon="4.81742">
        <ele>265</ele>
        <time>2018-06-01T10:31:44Z</time>
      </trkpt>
      <trkpt lat="45.94226" lon="4.81734">
        <ele>265</ele>
        <time>2018-06-01T10:31:45Z</time>
      </trkpt>
      <trkpt lat="45.94227" lon="4.81727">
        <ele>265</ele>
        <time>2018-06-01T10:31:46Z</time>
      </trkpt>
      <trkpt lat="45.94225" lon="4.81719">
        <ele>266</ele>
        <time>2018-06-01T10:31:47Z</time>
      </trkpt>
      <trkpt lat="45.94224" lon="4.81713">
        <ele>266</ele>
        <time>2018-06-01T10:31:48Z</time>
      </trkpt>
      <trkpt lat="45.94219" lon="4.81708">
        <ele>266</ele>
        <time>2018-06-01T10:31:49Z</time>
      </trkpt>
      <trkpt lat="45.94211" lon="4.81705">
        <ele>266</ele>
        <time>2018-06-01T10:31:50Z</time>
      </trkpt>
      <trkpt lat="45.94205" lon="4.81701">
        <ele>266</ele>
        <time>2018-06-01T10:31:51Z</time>
      </trkpt>
      <trkpt lat="45.94199" lon="4.81697">
        <ele>267</ele>
        <time>2018-06-01T10:31:52Z</time>
      </trkpt>
      <trkpt lat="45.94193" lon="4.81691">
        <ele>267</ele>
        <time>2018-06-01T10:31:53Z</time>
      </trkpt>
      <trkpt lat="45.94189" lon="4.81681">
        <ele>267</ele>
        <time>2018-06-01T10:31:54Z</time>
      </trkpt>
      <trkpt lat="45.94184" lon="4.81671">
        <ele>268</ele>
        <time>2018-06-01T10:31:55Z</time>
      </trkpt>
      <trkpt lat="45.94181" lon="4.8166">
        <ele>268</ele>
        <time>2018-06-01T10:31:56Z</time>
      </trkpt>
      <trkpt lat="45.94177" lon="4.81648">
        <ele>268</ele>
        <time>2018-06-01T10:31:57Z</time>
      </trkpt>
      <trkpt lat="45.94174" lon="4.81636">
        <ele>268</ele>
        <time>2018-06-01T10:31:58Z</time>
      </trkpt>
      <trkpt lat="45.94171" lon="4.81622">
        <ele>267</ele>
        <time>2018-06-01T10:31:59Z</time>
      </trkpt>
      <trkpt lat="45.9417" lon="4.81608">
        <ele>267</ele>
        <time>2018-06-01T10:32:00Z</time>
      </trkpt>
      <trkpt lat="45.94168" lon="4.81595">
        <ele>267</ele>
        <time>2018-06-01T10:32:01Z</time>
      </trkpt>
      <trkpt lat="45.94168" lon="4.81581">
        <ele>267</ele>
        <time>2018-06-01T10:32:02Z</time>
      </trkpt>
      <trkpt lat="45.94166" lon="4.81567">
        <ele>265</ele>
        <time>2018-06-01T10:32:03Z</time>
      </trkpt>
      <trkpt lat="45.94166" lon="4.81553">
        <ele>265</ele>
        <time>2018-06-01T10:32:04Z</time>
      </trkpt>
      <trkpt lat="45.94166" lon="4.81539">
        <ele>264</ele>
        <time>2018-06-01T10:32:05Z</time>
      </trkpt>
      <trkpt lat="45.94163" lon="4.81524">
        <ele>263</ele>
        <time>2018-06-01T10:32:06Z</time>
      </trkpt>
      <trkpt lat="45.94165" lon="4.81508">
        <ele>263</ele>
        <time>2018-06-01T10:32:07Z</time>
      </trkpt>
      <trkpt lat="45.94162" lon="4.81492">
        <ele>261</ele>
        <time>2018-06-01T10:32:08Z</time>
      </trkpt>
      <trkpt lat="45.94166" lon="4.81473">
        <ele>259</ele>
        <time>2018-06-01T10:32:09Z</time>
      </trkpt>
      <trkpt lat="45.94165" lon="4.8146">
        <ele>257</ele>
        <time>2018-06-01T10:32:10Z</time>
      </trkpt>
      <trkpt lat="45.94169" lon="4.81445">
        <ele>261</ele>
        <time>2018-06-01T10:32:11Z</time>
      </trkpt>
      <trkpt lat="45.94171" lon="4.81432">
        <ele>259</ele>
        <time>2018-06-01T10:32:12Z</time>
      </trkpt>
      <trkpt lat="45.94174" lon="4.81419">
        <ele>258</ele>
        <time>2018-06-01T10:32:13Z</time>
      </trkpt>
      <trkpt lat="45.94174" lon="4.81402">
        <ele>258</ele>
        <time>2018-06-01T10:32:14Z</time>
      </trkpt>
      <trkpt lat="45.94173" lon="4.81385">
        <ele>258</ele>
        <time>2018-06-01T10:32:15Z</time>
      </trkpt>
      <trkpt lat="45.94175" lon="4.8137">
        <ele>258</ele>
        <time>2018-06-01T10:32:16Z</time>
      </trkpt>
      <trkpt lat="45.94175" lon="4.81353">
        <ele>256</ele>
        <time>2018-06-01T10:32:17Z</time>
      </trkpt>
      <trkpt lat="45.94175" lon="4.81337">
        <ele>255</ele>
        <time>2018-06-01T10:32:18Z</time>
      </trkpt>
      <trkpt lat="45.94177" lon="4.81322">
        <ele>255</ele>
        <time>2018-06-01T10:32:19Z</time>
      </trkpt>
      <trkpt lat="45.94177" lon="4.81305">
        <ele>256</ele>
        <time>2018-06-01T10:32:20Z</time>
      </trkpt>
      <trkpt lat="45.94176" lon="4.81288">
        <ele>256</ele>
        <time>2018-06-01T10:32:21Z</time>
      </trkpt>
      <trkpt lat="45.94172" lon="4.81275">
        <ele>255</ele>
        <time>2018-06-01T10:32:22Z</time>
      </trkpt>
      <trkpt lat="45.9417" lon="4.8126">
        <ele>253</ele>
        <time>2018-06-01T10:32:23Z</time>
      </trkpt>
      <trkpt lat="45.94168" lon="4.81244">
        <ele>251</ele>
        <time>2018-06-01T10:32:24Z</time>
      </trkpt>
      <trkpt lat="45.94164" lon="4.81229">
        <ele>246</ele>
        <time>2018-06-01T10:32:25Z</time>
      </trkpt>
      <trkpt lat="45.9416" lon="4.81212">
        <ele>245</ele>
        <time>2018-06-01T10:32:26Z</time>
      </trkpt>
      <trkpt lat="45.94157" lon="4.81198">
        <ele>245</ele>
        <time>2018-06-01T10:32:27Z</time>
      </trkpt>
      <trkpt lat="45.94152" lon="4.81183">
        <ele>245</ele>
        <time>2018-06-01T10:32:28Z</time>
      </trkpt>
      <trkpt lat="45.94151" lon="4.81167">
        <ele>245</ele>
        <time>2018-06-01T10:32:29Z</time>
      </trkpt>
      <trkpt lat="45.94145" lon="4.81154">
        <ele>245</ele>
        <time>2018-06-01T10:32:30Z</time>
      </trkpt>
      <trkpt lat="45.94138" lon="4.81138">
        <ele>244</ele>
        <time>2018-06-01T10:32:31Z</time>
      </trkpt>
      <trkpt lat="45.9413" lon="4.81125">
        <ele>244</ele>
        <time>2018-06-01T10:32:32Z</time>
      </trkpt>
      <trkpt lat="45.94122" lon="4.81112">
        <ele>243</ele>
        <time>2018-06-01T10:32:33Z</time>
      </trkpt>
      <trkpt lat="45.94116" lon="4.811">
        <ele>243</ele>
        <time>2018-06-01T10:32:34Z</time>
      </trkpt>
      <trkpt lat="45.9411" lon="4.81086">
        <ele>242</ele>
        <time>2018-06-01T10:32:35Z</time>
      </trkpt>
      <trkpt lat="45.94103" lon="4.81073">
        <ele>243</ele>
        <time>2018-06-01T10:32:36Z</time>
      </trkpt>
      <trkpt lat="45.94096" lon="4.81059">
        <ele>243</ele>
        <time>2018-06-01T10:32:37Z</time>
      </trkpt>
      <trkpt lat="45.9409" lon="4.81048">
        <ele>243</ele>
        <time>2018-06-01T10:32:38Z</time>
      </trkpt>
      <trkpt lat="45.94086" lon="4.81036">
        <ele>244</ele>
        <time>2018-06-01T10:32:39Z</time>
      </trkpt>
      <trkpt lat="45.94078" lon="4.8102">
        <ele>235</ele>
        <time>2018-06-01T10:32:40Z</time>
      </trkpt>
      <trkpt lat="45.9408" lon="4.81004">
        <ele>238</ele>
        <time>2018-06-01T10:32:41Z</time>
      </trkpt>
      <trkpt lat="45.94073" lon="4.80986">
        <ele>235</ele>
        <time>2018-06-01T10:32:42Z</time>
      </trkpt>
      <trkpt lat="45.94073" lon="4.80972">
        <ele>233</ele>
        <time>2018-06-01T10:32:43Z</time>
      </trkpt>
      <trkpt lat="45.9407" lon="4.80956">
        <ele>233</ele>
        <time>2018-06-01T10:32:44Z</time>
      </trkpt>
      <trkpt lat="45.94069" lon="4.80941">
        <ele>233</ele>
        <time>2018-06-01T10:32:45Z</time>
      </trkpt>
      <trkpt lat="45.94068" lon="4.80925">
        <ele>234</ele>
        <time>2018-06-01T10:32:46Z</time>
      </trkpt>
      <trkpt lat="45.94066" lon="4.8091">
        <ele>233</ele>
        <time>2018-06-01T10:32:47Z</time>
      </trkpt>
      <trkpt lat="45.94062" lon="4.80894">
        <ele>232</ele>
        <time>2018-06-01T10:32:48Z</time>
      </trkpt>
      <trkpt lat="45.9406" lon="4.80879">
        <ele>231</ele>
        <time>2018-06-01T10:32:49Z</time>
      </trkpt>
      <trkpt lat="45.94059" lon="4.80864">
        <ele>231</ele>
        <time>2018-06-01T10:32:50Z</time>
      </trkpt>
      <trkpt lat="45.94055" lon="4.80849">
        <ele>231</ele>
        <time>2018-06-01T10:32:51Z</time>
      </trkpt>
      <trkpt lat="45.94053" lon="4.80833">
        <ele>231</ele>
        <time>2018-06-01T10:32:52Z</time>
      </trkpt>
      <trkpt lat="45.9405" lon="4.8082">
        <ele>230</ele>
        <time>2018-06-01T10:32:53Z</time>
      </trkpt>
      <trkpt lat="45.94048" lon="4.80805">
        <ele>229</ele>
        <time>2018-06-01T10:32:54Z</time>
      </trkpt>
      <trkpt lat="45.94046" lon="4.80787">
        <ele>229</ele>
        <time>2018-06-01T10:32:55Z</time>
      </trkpt>
      <trkpt lat="45.94045" lon="4.8077">
        <ele>228</ele>
        <time>2018-06-01T10:32:56Z</time>
      </trkpt>
      <trkpt lat="45.94043" lon="4.80756">
        <ele>228</ele>
        <time>2018-06-01T10:32:57Z</time>
      </trkpt>
      <trkpt lat="45.9404" lon="4.80739">
        <ele>227</ele>
        <time>2018-06-01T10:32:58Z</time>
      </trkpt>
      <trkpt lat="45.94038" lon="4.80723">
        <ele>226</ele>
        <time>2018-06-01T10:32:59Z</time>
      </trkpt>
      <trkpt lat="45.94039" lon="4.80708">
        <ele>226</ele>
        <time>2018-06-01T10:33:00Z</time>
      </trkpt>
      <trkpt lat="45.94038" lon="4.80692">
        <ele>226</ele>
        <time>2018-06-01T10:33:01Z</time>
      </trkpt>
      <trkpt lat="45.94036" lon="4.80677">
        <ele>225</ele>
        <time>2018-06-01T10:33:02Z</time>
      </trkpt>
      <trkpt lat="45.94036" lon="4.8066">
        <ele>225</ele>
        <time>2018-06-01T10:33:03Z</time>
      </trkpt>
      <trkpt lat="45.94033" lon="4.80643">
        <ele>225</ele>
        <time>2018-06-01T10:33:04Z</time>
      </trkpt>
      <trkpt lat="45.94031" lon="4.80628">
        <ele>225</ele>
        <time>2018-06-01T10:33:05Z</time>
      </trkpt>
      <trkpt lat="45.94028" lon="4.8061">
        <ele>225</ele>
        <time>2018-06-01T10:33:06Z</time>
      </trkpt>
      <trkpt lat="45.94026" lon="4.80594">
        <ele>224</ele>
        <time>2018-06-01T10:33:07Z</time>
      </trkpt>
      <trkpt lat="45.94024" lon="4.80578">
        <ele>224</ele>
        <time>2018-06-01T10:33:08Z</time>
      </trkpt>
      <trkpt lat="45.94022" lon="4.80562">
        <ele>224</ele>
        <time>2018-06-01T10:33:09Z</time>
      </trkpt>
      <trkpt lat="45.94022" lon="4.80546">
        <ele>225</ele>
        <time>2018-06-01T10:33:10Z</time>
      </trkpt>
      <trkpt lat="45.94024" lon="4.80531">
        <ele>225</ele>
        <time>2018-06-01T10:33:11Z</time>
      </trkpt>
      <trkpt lat="45.94024" lon="4.80515">
        <ele>224</ele>
        <time>2018-06-01T10:33:12Z</time>
      </trkpt>
      <trkpt lat="45.94024" lon="4.805">
        <ele>224</ele>
        <time>2018-06-01T10:33:13Z</time>
      </trkpt>
      <trkpt lat="45.94023" lon="4.80483">
        <ele>223</ele>
        <time>2018-06-01T10:33:14Z</time>
      </trkpt>
      <trkpt lat="45.94022" lon="4.80466">
        <ele>223</ele>
        <time>2018-06-01T10:33:15Z</time>
      </trkpt>
      <trkpt lat="45.94022" lon="4.8045">
        <ele>223</ele>
        <time>2018-06-01T10:33:16Z</time>
      </trkpt>
      <trkpt lat="45.94018" lon="4.80433">
        <ele>222</ele>
        <time>2018-06-01T10:33:17Z</time>
      </trkpt>
      <trkpt lat="45.94016" lon="4.80418">
        <ele>220</ele>
        <time>2018-06-01T10:33:18Z</time>
      </trkpt>
      <trkpt lat="45.9401" lon="4.80402">
        <ele>217</ele>
        <time>2018-06-01T10:33:19Z</time>
      </trkpt>
      <trkpt lat="45.94006" lon="4.80384">
        <ele>217</ele>
        <time>2018-06-01T10:33:20Z</time>
      </trkpt>
      <trkpt lat="45.94001" lon="4.80366">
        <ele>215</ele>
        <time>2018-06-01T10:33:21Z</time>
      </trkpt>
      <trkpt lat="45.93998" lon="4.80349">
        <ele>206</ele>
        <time>2018-06-01T10:33:22Z</time>
      </trkpt>
      <trkpt lat="45.93994" lon="4.80332">
        <ele>205</ele>
        <time>2018-06-01T10:33:23Z</time>
      </trkpt>
      <trkpt lat="45.93989" lon="4.80316">
        <ele>204</ele>
        <time>2018-06-01T10:33:24Z</time>
      </trkpt>
      <trkpt lat="45.93983" lon="4.80301">
        <ele>203</ele>
        <time>2018-06-01T10:33:25Z</time>
      </trkpt>
      <trkpt lat="45.93978" lon="4.80285">
        <ele>203</ele>
        <time>2018-06-01T10:33:26Z</time>
      </trkpt>
      <trkpt lat="45.93973" lon="4.80269">
        <ele>202</ele>
        <time>2018-06-01T10:33:27Z</time>
      </trkpt>
      <trkpt lat="45.93968" lon="4.80253">
        <ele>202</ele>
        <time>2018-06-01T10:33:28Z</time>
      </trkpt>
      <trkpt lat="45.93965" lon="4.80238">
        <ele>204</ele>
        <time>2018-06-01T10:33:29Z</time>
      </trkpt>
      <trkpt lat="45.93962" lon="4.80223">
        <ele>205</ele>
        <time>2018-06-01T10:33:30Z</time>
      </trkpt>
      <trkpt lat="45.93958" lon="4.80208">
        <ele>205</ele>
        <time>2018-06-01T10:33:31Z</time>
      </trkpt>
      <trkpt lat="45.93956" lon="4.80192">
        <ele>206</ele>
        <time>2018-06-01T10:33:32Z</time>
      </trkpt>
      <trkpt lat="45.93953" lon="4.80178">
        <ele>206</ele>
        <time>2018-06-01T10:33:33Z</time>
      </trkpt>
      <trkpt lat="45.9395" lon="4.80162">
        <ele>208</ele>
        <time>2018-06-01T10:33:34Z</time>
      </trkpt>
      <trkpt lat="45.93946" lon="4.80147">
        <ele>208</ele>
        <time>2018-06-01T10:33:35Z</time>
      </trkpt>
      <trkpt lat="45.93943" lon="4.80133">
        <ele>208</ele>
        <time>2018-06-01T10:33:36Z</time>
      </trkpt>
      <trkpt lat="45.93941" lon="4.80118">
        <ele>209</ele>
        <time>2018-06-01T10:33:37Z</time>
      </trkpt>
      <trkpt lat="45.93942" lon="4.80104">
        <ele>209</ele>
        <time>2018-06-01T10:33:38Z</time>
      </trkpt>
      <trkpt lat="45.9394" lon="4.80091">
        <ele>208</ele>
        <time>2018-06-01T10:33:39Z</time>
      </trkpt>
      <trkpt lat="45.93939" lon="4.80077">
        <ele>207</ele>
        <time>2018-06-01T10:33:40Z</time>
      </trkpt>
      <trkpt lat="45.93938" lon="4.80064">
        <ele>207</ele>
        <time>2018-06-01T10:33:41Z</time>
      </trkpt>
      <trkpt lat="45.93938" lon="4.80051">
        <ele>207</ele>
        <time>2018-06-01T10:33:42Z</time>
      </trkpt>
      <trkpt lat="45.93937" lon="4.80038">
        <ele>207</ele>
        <time>2018-06-01T10:33:43Z</time>
      </trkpt>
      <trkpt lat="45.93939" lon="4.80025">
        <ele>206</ele>
        <time>2018-06-01T10:33:44Z</time>
      </trkpt>
      <trkpt lat="45.93942" lon="4.80014">
        <ele>206</ele>
        <time>2018-06-01T10:33:45Z</time>
      </trkpt>
      <trkpt lat="45.93945" lon="4.80002">
        <ele>206</ele>
        <time>2018-06-01T10:33:46Z</time>
      </trkpt>
      <trkpt lat="45.93946" lon="4.7999">
        <ele>205</ele>
        <time>2018-06-01T10:33:47Z</time>
      </trkpt>
      <trkpt lat="45.93949" lon="4.79977">
        <ele>205</ele>
        <time>2018-06-01T10:33:48Z</time>
      </trkpt>
      <trkpt lat="45.9395" lon="4.79963">
        <ele>205</ele>
        <time>2018-06-01T10:33:49Z</time>
      </trkpt>
      <trkpt lat="45.93951" lon="4.79951">
        <ele>205</ele>
        <time>2018-06-01T10:33:50Z</time>
      </trkpt>
      <trkpt lat="45.93954" lon="4.7994">
        <ele>205</ele>
        <time>2018-06-01T10:33:51Z</time>
      </trkpt>
      <trkpt lat="45.93956" lon="4.79928">
        <ele>205</ele>
        <time>2018-06-01T10:33:52Z</time>
      </trkpt>
      <trkpt lat="45.93957" lon="4.79916">
        <ele>205</ele>
        <time>2018-06-01T10:33:53Z</time>
      </trkpt>
      <trkpt lat="45.93959" lon="4.79902">
        <ele>206</ele>
        <time>2018-06-01T10:33:54Z</time>
      </trkpt>
      <trkpt lat="45.93961" lon="4.7989">
        <ele>206</ele>
        <time>2018-06-01T10:33:55Z</time>
      </trkpt>
      <trkpt lat="45.93964" lon="4.7988">
        <ele>206</ele>
        <time>2018-06-01T10:33:56Z</time>
      </trkpt>
      <trkpt lat="45.93967" lon="4.7987">
        <ele>206</ele>
        <time>2018-06-01T10:33:57Z</time>
      </trkpt>
      <trkpt lat="45.93968" lon="4.79858">
        <ele>206</ele>
        <time>2018-06-01T10:33:58Z</time>
      </trkpt>
      <trkpt lat="45.93969" lon="4.79847">
        <ele>206</ele>
        <time>2018-06-01T10:33:59Z</time>
      </trkpt>
      <trkpt lat="45.93972" lon="4.79836">
        <ele>207</ele>
        <time>2018-06-01T10:34:00Z</time>
      </trkpt>
      <trkpt lat="45.9397" lon="4.79827">
        <ele>207</ele>
        <time>2018-06-01T10:34:01Z</time>
      </trkpt>
      <trkpt lat="45.93972" lon="4.79818">
        <ele>207</ele>
        <time>2018-06-01T10:34:02Z</time>
      </trkpt>
      <trkpt lat="45.93974" lon="4.79807">
        <ele>207</ele>
        <time>2018-06-01T10:34:03Z</time>
      </trkpt>
      <trkpt lat="45.93974" lon="4.79797">
        <ele>206</ele>
        <time>2018-06-01T10:34:04Z</time>
      </trkpt>
      <trkpt lat="45.93975" lon="4.79788">
        <ele>206</ele>
        <time>2018-06-01T10:34:05Z</time>
      </trkpt>
      <trkpt lat="45.93977" lon="4.79778">
        <ele>206</ele>
        <time>2018-06-01T10:34:06Z</time>
      </trkpt>
      <trkpt lat="45.93976" lon="4.79768">
        <ele>207</ele>
        <time>2018-06-01T10:34:07Z</time>
      </trkpt>
      <trkpt lat="45.93976" lon="4.79757">
        <ele>207</ele>
        <time>2018-06-01T10:34:08Z</time>
      </trkpt>
      <trkpt lat="45.93976" lon="4.79748">
        <ele>207</ele>
        <time>2018-06-01T10:34:09Z</time>
      </trkpt>
      <trkpt lat="45.93975" lon="4.79738">
        <ele>207</ele>
        <time>2018-06-01T10:34:10Z</time>
      </trkpt>
      <trkpt lat="45.93972" lon="4.79726">
        <ele>207</ele>
        <time>2018-06-01T10:34:11Z</time>
      </trkpt>
      <trkpt lat="45.93971" lon="4.79715">
        <ele>207</ele>
        <time>2018-06-01T10:34:12Z</time>
      </trkpt>
      <trkpt lat="45.93971" lon="4.79705">
        <ele>207</ele>
        <time>2018-06-01T10:34:13Z</time>
      </trkpt>
      <trkpt lat="45.9397" lon="4.79695">
        <ele>207</ele>
        <time>2018-06-01T10:34:14Z</time>
      </trkpt>
      <trkpt lat="45.93971" lon="4.79684">
        <ele>207</ele>
        <time>2018-06-01T10:34:15Z</time>
      </trkpt>
      <trkpt lat="45.93968" lon="4.79673">
        <ele>207</ele>
        <time>2018-06-01T10:34:16Z</time>
      </trkpt>
      <trkpt lat="45.93967" lon="4.79663">
        <ele>208</ele>
        <time>2018-06-01T10:34:17Z</time>
      </trkpt>
      <trkpt lat="45.93967" lon="4.79653">
        <ele>208</ele>
        <time>2018-06-01T10:34:18Z</time>
      </trkpt>
      <trkpt lat="45.93968" lon="4.79642">
        <ele>207</ele>
        <time>2018-06-01T10:34:19Z</time>
      </trkpt>
      <trkpt lat="45.93967" lon="4.79631">
        <ele>207</ele>
        <time>2018-06-01T10:34:20Z</time>
      </trkpt>
      <trkpt lat="45.93966" lon="4.7962">
        <ele>207</ele>
        <time>2018-06-01T10:34:21Z</time>
      </trkpt>
      <trkpt lat="45.93965" lon="4.7961">
        <ele>207</ele>
        <time>2018-06-01T10:34:22Z</time>
      </trkpt>
      <trkpt lat="45.93963" lon="4.79599">
        <ele>207</ele>
        <time>2018-06-01T10:34:23Z</time>
      </trkpt>
      <trkpt lat="45.93963" lon="4.79589">
        <ele>207</ele>
        <time>2018-06-01T10:34:24Z</time>
      </trkpt>
      <trkpt lat="45.93963" lon="4.79578">
        <ele>206</ele>
        <time>2018-06-01T10:34:25Z</time>
      </trkpt>
      <trkpt lat="45.93964" lon="4.79566">
        <ele>206</ele>
        <time>2018-06-01T10:34:26Z</time>
      </trkpt>
      <trkpt lat="45.93962" lon="4.79555">
        <ele>205</ele>
        <time>2018-06-01T10:34:27Z</time>
      </trkpt>
      <trkpt lat="45.93961" lon="4.79544">
        <ele>205</ele>
        <time>2018-06-01T10:34:28Z</time>
      </trkpt>
      <trkpt lat="45.9396" lon="4.79532">
        <ele>205</ele>
        <time>2018-06-01T10:34:29Z</time>
      </trkpt>
      <trkpt lat="45.93961" lon="4.79521">
        <ele>205</ele>
        <time>2018-06-01T10:34:30Z</time>
      </trkpt>
      <trkpt lat="45.93959" lon="4.7951">
        <ele>205</ele>
        <time>2018-06-01T10:34:31Z</time>
      </trkpt>
      <trkpt lat="45.9396" lon="4.79499">
        <ele>203</ele>
        <time>2018-06-01T10:34:32Z</time>
      </trkpt>
      <trkpt lat="45.93959" lon="4.79488">
        <ele>203</ele>
        <time>2018-06-01T10:34:33Z</time>
      </trkpt>
      <trkpt lat="45.93958" lon="4.79476">
        <ele>203</ele>
        <time>2018-06-01T10:34:34Z</time>
      </trkpt>
      <trkpt lat="45.93959" lon="4.79466">
        <ele>203</ele>
        <time>2018-06-01T10:34:35Z</time>
      </trkpt>
      <trkpt lat="45.9396" lon="4.79455">
        <ele>203</ele>
        <time>2018-06-01T10:34:36Z</time>
      </trkpt>
      <trkpt lat="45.93959" lon="4.79443">
        <ele>203</ele>
        <time>2018-06-01T10:34:37Z</time>
      </trkpt>
      <trkpt lat="45.93959" lon="4.79431">
        <ele>203</ele>
        <time>2018-06-01T10:34:38Z</time>
      </trkpt>
      <trkpt lat="45.93958" lon="4.79419">
        <ele>203</ele>
        <time>2018-06-01T10:34:39Z</time>
      </trkpt>
      <trkpt lat="45.9396" lon="4.79408">
        <ele>202</ele>
        <time>2018-06-01T10:34:40Z</time>
      </trkpt>
      <trkpt lat="45.9396" lon="4.79396">
        <ele>202</ele>
        <time>2018-06-01T10:34:41Z</time>
      </trkpt>
      <trkpt lat="45.9396" lon="4.79386">
        <ele>202</ele>
        <time>2018-06-01T10:34:42Z</time>
      </trkpt>
      <trkpt lat="45.93962" lon="4.79373">
        <ele>202</ele>
        <time>2018-06-01T10:34:43Z</time>
      </trkpt>
      <trkpt lat="45.93962" lon="4.79362">
        <ele>201</ele>
        <time>2018-06-01T10:34:44Z</time>
      </trkpt>
      <trkpt lat="45.93961" lon="4.79349">
        <ele>201</ele>
        <time>2018-06-01T10:34:45Z</time>
      </trkpt>
      <trkpt lat="45.9396" lon="4.79338">
        <ele>201</ele>
        <time>2018-06-01T10:34:46Z</time>
      </trkpt>
      <trkpt lat="45.9396" lon="4.79326">
        <ele>199</ele>
        <time>2018-06-01T10:34:47Z</time>
      </trkpt>
      <trkpt lat="45.9396" lon="4.79315">
        <ele>199</ele>
        <time>2018-06-01T10:34:48Z</time>
      </trkpt>
      <trkpt lat="45.9396" lon="4.79304">
        <ele>199</ele>
        <time>2018-06-01T10:34:49Z</time>
      </trkpt>
      <trkpt lat="45.93958" lon="4.79292">
        <ele>199</ele>
        <time>2018-06-01T10:34:50Z</time>
      </trkpt>
      <trkpt lat="45.93959" lon="4.79281">
        <ele>199</ele>
        <time>2018-06-01T10:34:51Z</time>
      </trkpt>
      <trkpt lat="45.93959" lon="4.7927">
        <ele>198</ele>
        <time>2018-06-01T10:34:52Z</time>
      </trkpt>
      <trkpt lat="45.93956" lon="4.7926">
        <ele>198</ele>
        <time>2018-06-01T10:34:53Z</time>
      </trkpt>
      <trkpt lat="45.93956" lon="4.79249">
        <ele>197</ele>
        <time>2018-06-01T10:34:54Z</time>
      </trkpt>
      <trkpt lat="45.93956" lon="4.79236">
        <ele>197</ele>
        <time>2018-06-01T10:34:55Z</time>
      </trkpt>
      <trkpt lat="45.93955" lon="4.79223">
        <ele>197</ele>
        <time>2018-06-01T10:34:56Z</time>
      </trkpt>
      <trkpt lat="45.93954" lon="4.79211">
        <ele>197</ele>
        <time>2018-06-01T10:34:57Z</time>
      </trkpt>
      <trkpt lat="45.93954" lon="4.792">
        <ele>197</ele>
        <time>2018-06-01T10:34:58Z</time>
      </trkpt>
      <trkpt lat="45.93953" lon="4.79188">
        <ele>197</ele>
        <time>2018-06-01T10:34:59Z</time>
      </trkpt>
      <trkpt lat="45.93952" lon="4.79175">
        <ele>197</ele>
        <time>2018-06-01T10:35:00Z</time>
      </trkpt>
      <trkpt lat="45.93953" lon="4.79163">
        <ele>197</ele>
        <time>2018-06-01T10:35:01Z</time>
      </trkpt>
      <trkpt lat="45.93952" lon="4.79151">
        <ele>197</ele>
        <time>2018-06-01T10:35:02Z</time>
      </trkpt>
      <trkpt lat="45.93949" lon="4.79139">
        <ele>197</ele>
        <time>2018-06-01T10:35:03Z</time>
      </trkpt>
      <trkpt lat="45.93949" lon="4.79127">
        <ele>197</ele>
        <time>2018-06-01T10:35:04Z</time>
      </trkpt>
      <trkpt lat="45.93949" lon="4.79114">
        <ele>197</ele>
        <time>2018-06-01T10:35:05Z</time>
      </trkpt>
      <trkpt lat="45.93948" lon="4.79101">
        <ele>196</ele>
        <time>2018-06-01T10:35:06Z</time>
      </trkpt>
      <trkpt lat="45.93948" lon="4.79089">
        <ele>196</ele>
        <time>2018-06-01T10:35:07Z</time>
      </trkpt>
      <trkpt lat="45.93948" lon="4.79078">
        <ele>196</ele>
        <time>2018-06-01T10:35:08Z</time>
      </trkpt>
      <trkpt lat="45.93948" lon="4.79066">
        <ele>196</ele>
        <time>2018-06-01T10:35:09Z</time>
      </trkpt>
      <trkpt lat="45.93948" lon="4.79054">
        <ele>196</ele>
        <time>2018-06-01T10:35:10Z</time>
      </trkpt>
      <trkpt lat="45.93948" lon="4.79043">
        <ele>196</ele>
        <time>2018-06-01T10:35:11Z</time>
      </trkpt>
      <trkpt lat="45.93948" lon="4.79032">
        <ele>195</ele>
        <time>2018-06-01T10:35:12Z</time>
      </trkpt>
      <trkpt lat="45.93947" lon="4.7902">
        <ele>195</ele>
        <time>2018-06-01T10:35:13Z</time>
      </trkpt>
      <trkpt lat="45.93947" lon="4.79011">
        <ele>195</ele>
        <time>2018-06-01T10:35:14Z</time>
      </trkpt>
      <trkpt lat="45.93947" lon="4.78999">
        <ele>194</ele>
        <time>2018-06-01T10:35:15Z</time>
      </trkpt>
      <trkpt lat="45.93944" lon="4.78988">
        <ele>194</ele>
        <time>2018-06-01T10:35:16Z</time>
      </trkpt>
      <trkpt lat="45.93944" lon="4.78978">
        <ele>194</ele>
        <time>2018-06-01T10:35:17Z</time>
      </trkpt>
      <trkpt lat="45.93946" lon="4.78968">
        <ele>194</ele>
        <time>2018-06-01T10:35:18Z</time>
      </trkpt>
      <trkpt lat="45.93945" lon="4.78956">
        <ele>194</ele>
        <time>2018-06-01T10:35:19Z</time>
      </trkpt>
      <trkpt lat="45.93947" lon="4.78946">
        <ele>194</ele>
        <time>2018-06-01T10:35:20Z</time>
      </trkpt>
      <trkpt lat="45.93946" lon="4.78936">
        <ele>194</ele>
        <time>2018-06-01T10:35:21Z</time>
      </trkpt>
      <trkpt lat="45.93945" lon="4.78924">
        <ele>194</ele>
        <time>2018-06-01T10:35:22Z</time>
      </trkpt>
      <trkpt lat="45.93946" lon="4.78914">
        <ele>193</ele>
        <time>2018-06-01T10:35:23Z</time>
      </trkpt>
      <trkpt lat="45.93946" lon="4.78904">
        <ele>193</ele>
        <time>2018-06-01T10:35:24Z</time>
      </trkpt>
      <trkpt lat="45.93946" lon="4.78894">
        <ele>194</ele>
        <time>2018-06-01T10:35:25Z</time>
      </trkpt>
      <trkpt lat="45.93945" lon="4.78884">
        <ele>194</ele>
        <time>2018-06-01T10:35:26Z</time>
      </trkpt>
      <trkpt lat="45.93945" lon="4.78873">
        <ele>194</ele>
        <time>2018-06-01T10:35:27Z</time>
      </trkpt>
      <trkpt lat="45.93944" lon="4.78862">
        <ele>194</ele>
        <time>2018-06-01T10:35:28Z</time>
      </trkpt>
      <trkpt lat="45.93943" lon="4.78853">
        <ele>194</ele>
        <time>2018-06-01T10:35:29Z</time>
      </trkpt>
      <trkpt lat="45.93944" lon="4.78842">
        <ele>194</ele>
        <time>2018-06-01T10:35:30Z</time>
      </trkpt>
      <trkpt lat="45.93943" lon="4.78831">
        <ele>194</ele>
        <time>2018-06-01T10:35:31Z</time>
      </trkpt>
      <trkpt lat="45.93943" lon="4.78821">
        <ele>194</ele>
        <time>2018-06-01T10:35:32Z</time>
      </trkpt>
      <trkpt lat="45.93942" lon="4.78809">
        <ele>194</ele>
        <time>2018-06-01T10:35:33Z</time>
      </trkpt>
      <trkpt lat="45.93943" lon="4.78798">
        <ele>194</ele>
        <time>2018-06-01T10:35:34Z</time>
      </trkpt>
      <trkpt lat="45.93941" lon="4.78788">
        <ele>194</ele>
        <time>2018-06-01T10:35:35Z</time>
      </trkpt>
      <trkpt lat="45.93942" lon="4.78779">
        <ele>194</ele>
        <time>2018-06-01T10:35:36Z</time>
      </trkpt>
      <trkpt lat="45.93941" lon="4.78769">
        <ele>194</ele>
        <time>2018-06-01T10:35:37Z</time>
      </trkpt>
      <trkpt lat="45.9394" lon="4.78759">
        <ele>193</ele>
        <time>2018-06-01T10:35:38Z</time>
      </trkpt>
      <trkpt lat="45.9394" lon="4.7875">
        <ele>193</ele>
        <time>2018-06-01T10:35:39Z</time>
      </trkpt>
      <trkpt lat="45.93941" lon="4.7874">
        <ele>194</ele>
        <time>2018-06-01T10:35:40Z</time>
      </trkpt>
      <trkpt lat="45.93941" lon="4.78731">
        <ele>194</ele>
        <time>2018-06-01T10:35:41Z</time>
      </trkpt>
      <trkpt lat="45.93939" lon="4.78719">
        <ele>194</ele>
        <time>2018-06-01T10:35:42Z</time>
      </trkpt>
      <trkpt lat="45.9394" lon="4.7871">
        <ele>194</ele>
        <time>2018-06-01T10:35:43Z</time>
      </trkpt>
      <trkpt lat="45.93937" lon="4.78701">
        <ele>194</ele>
        <time>2018-06-01T10:35:44Z</time>
      </trkpt>
      <trkpt lat="45.93937" lon="4.78692">
        <ele>194</ele>
        <time>2018-06-01T10:35:45Z</time>
      </trkpt>
      <trkpt lat="45.93938" lon="4.78683">
        <ele>194</ele>
        <time>2018-06-01T10:35:46Z</time>
      </trkpt>
      <trkpt lat="45.93941" lon="4.78674">
        <ele>194</ele>
        <time>2018-06-01T10:35:47Z</time>
      </trkpt>
      <trkpt lat="45.93942" lon="4.78665">
        <ele>195</ele>
        <time>2018-06-01T10:35:48Z</time>
      </trkpt>
      <trkpt lat="45.93939" lon="4.78655">
        <ele>194</ele>
        <time>2018-06-01T10:35:49Z</time>
      </trkpt>
      <trkpt lat="45.93942" lon="4.78645">
        <ele>195</ele>
        <time>2018-06-01T10:35:50Z</time>
      </trkpt>
      <trkpt lat="45.93942" lon="4.78635">
        <ele>196</ele>
        <time>2018-06-01T10:35:51Z</time>
      </trkpt>
      <trkpt lat="45.93941" lon="4.78624">
        <ele>196</ele>
        <time>2018-06-01T10:35:52Z</time>
      </trkpt>
      <trkpt lat="45.93943" lon="4.78614">
        <ele>196</ele>
        <time>2018-06-01T10:35:53Z</time>
      </trkpt>
      <trkpt lat="45.93943" lon="4.78605">
        <ele>196</ele>
        <time>2018-06-01T10:35:54Z</time>
      </trkpt>
      <trkpt lat="45.93944" lon="4.78596">
        <ele>196</ele>
        <time>2018-06-01T10:35:55Z</time>
      </trkpt>
      <trkpt lat="45.93941" lon="4.7859">
        <ele>196</ele>
        <time>2018-06-01T10:35:56Z</time>
      </trkpt>
      <trkpt lat="45.93941" lon="4.7858">
        <ele>197</ele>
        <time>2018-06-01T10:35:58Z</time>
      </trkpt>
      <trkpt lat="45.93941" lon="4.78573">
        <ele>197</ele>
        <time>2018-06-01T10:35:59Z</time>
      </trkpt>
      <trkpt lat="45.93939" lon="4.78562">
        <ele>197</ele>
        <time>2018-06-01T10:36:02Z</time>
      </trkpt>
      <trkpt lat="45.93939" lon="4.7856">
        <ele>197</ele>
        <time>2018-06-01T10:36:03Z</time>
      </trkpt>
      <trkpt lat="45.93938" lon="4.78548">
        <ele>197</ele>
        <time>2018-06-01T10:36:08Z</time>
      </trkpt>
      <trkpt lat="45.93938" lon="4.78544">
        <ele>197</ele>
        <time>2018-06-01T10:36:09Z</time>
      </trkpt>
      <trkpt lat="45.93938" lon="4.78536">
        <ele>197</ele>
        <time>2018-06-01T10:36:11Z</time>
      </trkpt>
      <trkpt lat="45.93938" lon="4.78522">
        <ele>197</ele>
        <time>2018-06-01T10:36:12Z</time>
      </trkpt>
      <trkpt lat="45.93938" lon="4.78511">
        <ele>197</ele>
        <time>2018-06-01T10:36:14Z</time>
      </trkpt>
      <trkpt lat="45.93939" lon="4.78508">
        <ele>197</ele>
        <time>2018-06-01T10:36:15Z</time>
      </trkpt>
      <trkpt lat="45.9394" lon="4.78501">
        <ele>197</ele>
        <time>2018-06-01T10:36:16Z</time>
      </trkpt>
      <trkpt lat="45.93941" lon="4.78495">
        <ele>197</ele>
        <time>2018-06-01T10:36:17Z</time>
      </trkpt>
      <trkpt lat="45.93943" lon="4.78482">
        <ele>197</ele>
        <time>2018-06-01T10:36:19Z</time>
      </trkpt>
      <trkpt lat="45.93944" lon="4.78476">
        <ele>197</ele>
        <time>2018-06-01T10:36:20Z</time>
      </trkpt>
      <trkpt lat="45.93947" lon="4.78464">
        <ele>197</ele>
        <time>2018-06-01T10:36:22Z</time>
      </trkpt>
      <trkpt lat="45.93947" lon="4.78456">
        <ele>197</ele>
        <time>2018-06-01T10:36:23Z</time>
      </trkpt>
      <trkpt lat="45.93948" lon="4.7845">
        <ele>197</ele>
        <time>2018-06-01T10:36:24Z</time>
      </trkpt>
      <trkpt lat="45.93948" lon="4.78443">
        <ele>197</ele>
        <time>2018-06-01T10:36:25Z</time>
      </trkpt>
      <trkpt lat="45.9395" lon="4.78436">
        <ele>197</ele>
        <time>2018-06-01T10:36:26Z</time>
      </trkpt>
      <trkpt lat="45.93951" lon="4.78427">
        <ele>197</ele>
        <time>2018-06-01T10:36:27Z</time>
      </trkpt>
      <trkpt lat="45.93952" lon="4.78419">
        <ele>197</ele>
        <time>2018-06-01T10:36:28Z</time>
      </trkpt>
      <trkpt lat="45.93954" lon="4.78412">
        <ele>196</ele>
        <time>2018-06-01T10:36:29Z</time>
      </trkpt>
      <trkpt lat="45.93954" lon="4.78406">
        <ele>196</ele>
        <time>2018-06-01T10:36:30Z</time>
      </trkpt>
      <trkpt lat="45.93956" lon="4.78396">
        <ele>197</ele>
        <time>2018-06-01T10:36:31Z</time>
      </trkpt>
      <trkpt lat="45.93956" lon="4.7839">
        <ele>197</ele>
        <time>2018-06-01T10:36:32Z</time>
      </trkpt>
      <trkpt lat="45.93958" lon="4.78383">
        <ele>197</ele>
        <time>2018-06-01T10:36:33Z</time>
      </trkpt>
      <trkpt lat="45.93958" lon="4.78373">
        <ele>196</ele>
        <time>2018-06-01T10:36:34Z</time>
      </trkpt>
      <trkpt lat="45.93958" lon="4.78363">
        <ele>196</ele>
        <time>2018-06-01T10:36:35Z</time>
      </trkpt>
      <trkpt lat="45.9396" lon="4.78355">
        <ele>196</ele>
        <time>2018-06-01T10:36:36Z</time>
      </trkpt>
      <trkpt lat="45.9396" lon="4.78346">
        <ele>196</ele>
        <time>2018-06-01T10:36:37Z</time>
      </trkpt>
      <trkpt lat="45.93961" lon="4.78338">
        <ele>196</ele>
        <time>2018-06-01T10:36:38Z</time>
      </trkpt>
      <trkpt lat="45.93961" lon="4.78331">
        <ele>195</ele>
        <time>2018-06-01T10:36:39Z</time>
      </trkpt>
      <trkpt lat="45.93963" lon="4.78319">
        <ele>196</ele>
        <time>2018-06-01T10:36:41Z</time>
      </trkpt>
      <trkpt lat="45.93962" lon="4.7831">
        <ele>195</ele>
        <time>2018-06-01T10:36:42Z</time>
      </trkpt>
      <trkpt lat="45.93964" lon="4.78304">
        <ele>195</ele>
        <time>2018-06-01T10:36:43Z</time>
      </trkpt>
      <trkpt lat="45.93965" lon="4.78297">
        <ele>195</ele>
        <time>2018-06-01T10:36:44Z</time>
      </trkpt>
      <trkpt lat="45.93967" lon="4.78289">
        <ele>196</ele>
        <time>2018-06-01T10:36:45Z</time>
      </trkpt>
      <trkpt lat="45.93969" lon="4.78283">
        <ele>196</ele>
        <time>2018-06-01T10:36:46Z</time>
      </trkpt>
      <trkpt lat="45.93971" lon="4.78276">
        <ele>196</ele>
        <time>2018-06-01T10:36:47Z</time>
      </trkpt>
      <trkpt lat="45.93972" lon="4.78269">
        <ele>196</ele>
        <time>2018-06-01T10:36:48Z</time>
      </trkpt>
      <trkpt lat="45.93973" lon="4.78263">
        <ele>196</ele>
        <time>2018-06-01T10:36:49Z</time>
      </trkpt>
      <trkpt lat="45.93974" lon="4.78256">
        <ele>196</ele>
        <time>2018-06-01T10:36:50Z</time>
      </trkpt>
      <trkpt lat="45.93973" lon="4.78245">
        <ele>196</ele>
        <time>2018-06-01T10:36:51Z</time>
      </trkpt>
      <trkpt lat="45.93975" lon="4.78238">
        <ele>197</ele>
        <time>2018-06-01T10:36:52Z</time>
      </trkpt>
      <trkpt lat="45.93976" lon="4.78231">
        <ele>197</ele>
        <time>2018-06-01T10:36:53Z</time>
      </trkpt>
      <trkpt lat="45.93979" lon="4.78223">
        <ele>197</ele>
        <time>2018-06-01T10:36:54Z</time>
      </trkpt>
      <trkpt lat="45.93979" lon="4.78217">
        <ele>197</ele>
        <time>2018-06-01T10:36:55Z</time>
      </trkpt>
      <trkpt lat="45.93981" lon="4.7821">
        <ele>197</ele>
        <time>2018-06-01T10:36:56Z</time>
      </trkpt>
      <trkpt lat="45.93983" lon="4.78205">
        <ele>197</ele>
        <time>2018-06-01T10:36:57Z</time>
      </trkpt>
      <trkpt lat="45.93983" lon="4.78197">
        <ele>197</ele>
        <time>2018-06-01T10:36:58Z</time>
      </trkpt>
      <trkpt lat="45.93988" lon="4.78187">
        <ele>198</ele>
        <time>2018-06-01T10:37:01Z</time>
      </trkpt>
      <trkpt lat="45.93989" lon="4.78184">
        <ele>198</ele>
        <time>2018-06-01T10:37:02Z</time>
      </trkpt>
      <trkpt lat="45.93993" lon="4.78176">
        <ele>199</ele>
        <time>2018-06-01T10:37:03Z</time>
      </trkpt>
      <trkpt lat="45.93995" lon="4.78172">
        <ele>200</ele>
        <time>2018-06-01T10:37:04Z</time>
      </trkpt>
      <trkpt lat="45.93996" lon="4.78165">
        <ele>200</ele>
        <time>2018-06-01T10:37:06Z</time>
      </trkpt>
      <trkpt lat="45.93997" lon="4.78155">
        <ele>199</ele>
        <time>2018-06-01T10:37:07Z</time>
      </trkpt>
      <trkpt lat="45.93996" lon="4.78144">
        <ele>198</ele>
        <time>2018-06-01T10:37:09Z</time>
      </trkpt>
      <trkpt lat="45.93996" lon="4.78138">
        <ele>198</ele>
        <time>2018-06-01T10:37:10Z</time>
      </trkpt>
      <trkpt lat="45.93998" lon="4.78131">
        <ele>197</ele>
        <time>2018-06-01T10:37:11Z</time>
      </trkpt>
      <trkpt lat="45.94" lon="4.78124">
        <ele>203</ele>
        <time>2018-06-01T10:37:12Z</time>
      </trkpt>
      <trkpt lat="45.94" lon="4.78118">
        <ele>197</ele>
        <time>2018-06-01T10:37:13Z</time>
      </trkpt>
      <trkpt lat="45.94" lon="4.7811">
        <ele>197</ele>
        <time>2018-06-01T10:37:14Z</time>
      </trkpt>
      <trkpt lat="45.94" lon="4.78102">
        <ele>198</ele>
        <time>2018-06-01T10:37:15Z</time>
      </trkpt>
      <trkpt lat="45.94" lon="4.78093">
        <ele>201</ele>
        <time>2018-06-01T10:37:16Z</time>
      </trkpt>
      <trkpt lat="45.94002" lon="4.78085">
        <ele>200</ele>
        <time>2018-06-01T10:37:17Z</time>
      </trkpt>
      <trkpt lat="45.94004" lon="4.78078">
        <ele>200</ele>
        <time>2018-06-01T10:37:18Z</time>
      </trkpt>
      <trkpt lat="45.94005" lon="4.7807">
        <ele>201</ele>
        <time>2018-06-01T10:37:19Z</time>
      </trkpt>
      <trkpt lat="45.94007" lon="4.78064">
        <ele>201</ele>
        <time>2018-06-01T10:37:20Z</time>
      </trkpt>
      <trkpt lat="45.94008" lon="4.78055">
        <ele>201</ele>
        <time>2018-06-01T10:37:21Z</time>
      </trkpt>
      <trkpt lat="45.94009" lon="4.78046">
        <ele>201</ele>
        <time>2018-06-01T10:37:22Z</time>
      </trkpt>
      <trkpt lat="45.94015" lon="4.78036">
        <ele>201</ele>
        <time>2018-06-01T10:37:25Z</time>
      </trkpt>
      <trkpt lat="45.94015" lon="4.78034">
        <ele>201</ele>
        <time>2018-06-01T10:37:26Z</time>
      </trkpt>
      <trkpt lat="45.94016" lon="4.78024">
        <ele>201</ele>
        <time>2018-06-01T10:37:31Z</time>
      </trkpt>
      <trkpt lat="45.94017" lon="4.78015">
        <ele>200</ele>
        <time>2018-06-01T10:37:32Z</time>
      </trkpt>
      <trkpt lat="45.94019" lon="4.78003">
        <ele>200</ele>
        <time>2018-06-01T10:37:35Z</time>
      </trkpt>
      <trkpt lat="45.94021" lon="4.77998">
        <ele>199</ele>
        <time>2018-06-01T10:37:36Z</time>
      </trkpt>
      <trkpt lat="45.94022" lon="4.77992">
        <ele>200</ele>
        <time>2018-06-01T10:37:37Z</time>
      </trkpt>
      <trkpt lat="45.94022" lon="4.77985">
        <ele>200</ele>
        <time>2018-06-01T10:37:38Z</time>
      </trkpt>
      <trkpt lat="45.94022" lon="4.77978">
        <ele>200</ele>
        <time>2018-06-01T10:37:39Z</time>
      </trkpt>
      <trkpt lat="45.94023" lon="4.7797">
        <ele>200</ele>
        <time>2018-06-01T10:37:40Z</time>
      </trkpt>
      <trkpt lat="45.94024" lon="4.77963">
        <ele>200</ele>
        <time>2018-06-01T10:37:41Z</time>
      </trkpt>
      <trkpt lat="45.94027" lon="4.77957">
        <ele>200</ele>
        <time>2018-06-01T10:37:42Z</time>
      </trkpt>
      <trkpt lat="45.94029" lon="4.77951">
        <ele>200</ele>
        <time>2018-06-01T10:37:43Z</time>
      </trkpt>
      <trkpt lat="45.94033" lon="4.77945">
        <ele>201</ele>
        <time>2018-06-01T10:37:44Z</time>
      </trkpt>
      <trkpt lat="45.94032" lon="4.77936">
        <ele>200</ele>
        <time>2018-06-01T10:37:45Z</time>
      </trkpt>
      <trkpt lat="45.9403" lon="4.77928">
        <ele>200</ele>
        <time>2018-06-01T10:37:46Z</time>
      </trkpt>
      <trkpt lat="45.94025" lon="4.77923">
        <ele>199</ele>
        <time>2018-06-01T10:37:47Z</time>
      </trkpt>
      <trkpt lat="45.94018" lon="4.77921">
        <ele>198</ele>
        <time>2018-06-01T10:37:48Z</time>
      </trkpt>
      <trkpt lat="45.94013" lon="4.77921">
        <ele>197</ele>
        <time>2018-06-01T10:37:49Z</time>
      </trkpt>
      <trkpt lat="45.94008" lon="4.7792">
        <ele>196</ele>
        <time>2018-06-01T10:37:50Z</time>
      </trkpt>
      <trkpt lat="45.94001" lon="4.77923">
        <ele>196</ele>
        <time>2018-06-01T10:37:51Z</time>
      </trkpt>
      <trkpt lat="45.93993" lon="4.77927">
        <ele>192</ele>
        <time>2018-06-01T10:37:52Z</time>
      </trkpt>
      <trkpt lat="45.93984" lon="4.7793">
        <ele>192</ele>
        <time>2018-06-01T10:37:53Z</time>
      </trkpt>
      <trkpt lat="45.93976" lon="4.77936">
        <ele>191</ele>
        <time>2018-06-01T10:37:54Z</time>
      </trkpt>
      <trkpt lat="45.93968" lon="4.77942">
        <ele>190</ele>
        <time>2018-06-01T10:37:55Z</time>
      </trkpt>
      <trkpt lat="45.9396" lon="4.77948">
        <ele>190</ele>
        <time>2018-06-01T10:37:56Z</time>
      </trkpt>
      <trkpt lat="45.93951" lon="4.77955">
        <ele>190</ele>
        <time>2018-06-01T10:37:57Z</time>
      </trkpt>
      <trkpt lat="45.93944" lon="4.7796">
        <ele>189</ele>
        <time>2018-06-01T10:37:58Z</time>
      </trkpt>
      <trkpt lat="45.93935" lon="4.77964">
        <ele>189</ele>
        <time>2018-06-01T10:37:59Z</time>
      </trkpt>
      <trkpt lat="45.93927" lon="4.77969">
        <ele>188</ele>
        <time>2018-06-01T10:38:00Z</time>
      </trkpt>
      <trkpt lat="45.93919" lon="4.77976">
        <ele>188</ele>
        <time>2018-06-01T10:38:01Z</time>
      </trkpt>
      <trkpt lat="45.9391" lon="4.7798">
        <ele>182</ele>
        <time>2018-06-01T10:38:02Z</time>
      </trkpt>
      <trkpt lat="45.93903" lon="4.77987">
        <ele>182</ele>
        <time>2018-06-01T10:38:03Z</time>
      </trkpt>
      <trkpt lat="45.939" lon="4.77995">
        <ele>183</ele>
        <time>2018-06-01T10:38:04Z</time>
      </trkpt>
      <trkpt lat="45.93895" lon="4.78003">
        <ele>185</ele>
        <time>2018-06-01T10:38:05Z</time>
      </trkpt>
      <trkpt lat="45.93891" lon="4.78008">
        <ele>184</ele>
        <time>2018-06-01T10:38:06Z</time>
      </trkpt>
      <trkpt lat="45.93886" lon="4.78013">
        <ele>184</ele>
        <time>2018-06-01T10:38:07Z</time>
      </trkpt>
      <trkpt lat="45.9388" lon="4.78014">
        <ele>184</ele>
        <time>2018-06-01T10:38:08Z</time>
      </trkpt>
      <trkpt lat="45.93873" lon="4.78012">
        <ele>183</ele>
        <time>2018-06-01T10:38:09Z</time>
      </trkpt>
      <trkpt lat="45.93868" lon="4.78005">
        <ele>183</ele>
        <time>2018-06-01T10:38:10Z</time>
      </trkpt>
      <trkpt lat="45.93863" lon="4.78">
        <ele>179</ele>
        <time>2018-06-01T10:38:11Z</time>
      </trkpt>
      <trkpt lat="45.93856" lon="4.77995">
        <ele>179</ele>
        <time>2018-06-01T10:38:12Z</time>
      </trkpt>
      <trkpt lat="45.93851" lon="4.7799">
        <ele>179</ele>
        <time>2018-06-01T10:38:13Z</time>
      </trkpt>
      <trkpt lat="45.93846" lon="4.77986">
        <ele>179</ele>
        <time>2018-06-01T10:38:14Z</time>
      </trkpt>
      <trkpt lat="45.93842" lon="4.77981">
        <ele>178</ele>
        <time>2018-06-01T10:38:15Z</time>
      </trkpt>
      <trkpt lat="45.93837" lon="4.77975">
        <ele>178</ele>
        <time>2018-06-01T10:38:16Z</time>
      </trkpt>
      <trkpt lat="45.93833" lon="4.77969">
        <ele>172</ele>
        <time>2018-06-01T10:38:17Z</time>
      </trkpt>
      <trkpt lat="45.93829" lon="4.77963">
        <ele>171</ele>
        <time>2018-06-01T10:38:18Z</time>
      </trkpt>
      <trkpt lat="45.93824" lon="4.77958">
        <ele>170</ele>
        <time>2018-06-01T10:38:19Z</time>
      </trkpt>
      <trkpt lat="45.93819" lon="4.77954">
        <ele>170</ele>
        <time>2018-06-01T10:38:20Z</time>
      </trkpt>
      <trkpt lat="45.93814" lon="4.77948">
        <ele>169</ele>
        <time>2018-06-01T10:38:21Z</time>
      </trkpt>
      <trkpt lat="45.93809" lon="4.77942">
        <ele>169</ele>
        <time>2018-06-01T10:38:22Z</time>
      </trkpt>
      <trkpt lat="45.93804" lon="4.77938">
        <ele>169</ele>
        <time>2018-06-01T10:38:23Z</time>
      </trkpt>
      <trkpt lat="45.938" lon="4.77933">
        <ele>168</ele>
        <time>2018-06-01T10:38:24Z</time>
      </trkpt>
      <trkpt lat="45.93796" lon="4.77927">
        <ele>168</ele>
        <time>2018-06-01T10:38:25Z</time>
      </trkpt>
      <trkpt lat="45.93792" lon="4.77921">
        <ele>168</ele>
        <time>2018-06-01T10:38:26Z</time>
      </trkpt>
      <trkpt lat="45.93787" lon="4.77916">
        <ele>166</ele>
        <time>2018-06-01T10:38:27Z</time>
      </trkpt>
      <trkpt lat="45.93783" lon="4.77911">
        <ele>166</ele>
        <time>2018-06-01T10:38:28Z</time>
      </trkpt>
      <trkpt lat="45.93778" lon="4.77906">
        <ele>166</ele>
        <time>2018-06-01T10:38:29Z</time>
      </trkpt>
      <trkpt lat="45.93774" lon="4.77901">
        <ele>166</ele>
        <time>2018-06-01T10:38:30Z</time>
      </trkpt>
      <trkpt lat="45.9377" lon="4.77894">
        <ele>166</ele>
        <time>2018-06-01T10:38:31Z</time>
      </trkpt>
      <trkpt lat="45.93766" lon="4.77888">
        <ele>166</ele>
        <time>2018-06-01T10:38:32Z</time>
      </trkpt>
      <trkpt lat="45.93762" lon="4.77882">
        <ele>166</ele>
        <time>2018-06-01T10:38:33Z</time>
      </trkpt>
      <trkpt lat="45.93756" lon="4.77876">
        <ele>166</ele>
        <time>2018-06-01T10:38:34Z</time>
      </trkpt>
      <trkpt lat="45.93752" lon="4.77869">
        <ele>166</ele>
        <time>2018-06-01T10:38:35Z</time>
      </trkpt>
      <trkpt lat="45.93748" lon="4.77863">
        <ele>167</ele>
        <time>2018-06-01T10:38:36Z</time>
      </trkpt>
      <trkpt lat="45.93743" lon="4.77856">
        <ele>167</ele>
        <time>2018-06-01T10:38:37Z</time>
      </trkpt>
      <trkpt lat="45.93739" lon="4.77849">
        <ele>167</ele>
        <time>2018-06-01T10:38:38Z</time>
      </trkpt>
      <trkpt lat="45.93734" lon="4.77842">
        <ele>167</ele>
        <time>2018-06-01T10:38:39Z</time>
      </trkpt>
      <trkpt lat="45.9373" lon="4.77836">
        <ele>167</ele>
        <time>2018-06-01T10:38:40Z</time>
      </trkpt>
      <trkpt lat="45.93726" lon="4.77829">
        <ele>168</ele>
        <time>2018-06-01T10:38:41Z</time>
      </trkpt>
      <trkpt lat="45.93721" lon="4.77823">
        <ele>168</ele>
        <time>2018-06-01T10:38:42Z</time>
      </trkpt>
      <trkpt lat="45.93716" lon="4.77816">
        <ele>169</ele>
        <time>2018-06-01T10:38:43Z</time>
      </trkpt>
      <trkpt lat="45.93712" lon="4.7781">
        <ele>169</ele>
        <time>2018-06-01T10:38:44Z</time>
      </trkpt>
      <trkpt lat="45.93707" lon="4.77802">
        <ele>169</ele>
        <time>2018-06-01T10:38:45Z</time>
      </trkpt>
      <trkpt lat="45.93701" lon="4.77796">
        <ele>169</ele>
        <time>2018-06-01T10:38:46Z</time>
      </trkpt>
      <trkpt lat="45.93696" lon="4.77789">
        <ele>169</ele>
        <time>2018-06-01T10:38:47Z</time>
      </trkpt>
      <trkpt lat="45.9369" lon="4.77782">
        <ele>170</ele>
        <time>2018-06-01T10:38:48Z</time>
      </trkpt>
      <trkpt lat="45.93685" lon="4.77775">
        <ele>170</ele>
        <time>2018-06-01T10:38:49Z</time>
      </trkpt>
      <trkpt lat="45.93679" lon="4.77768">
        <ele>170</ele>
        <time>2018-06-01T10:38:50Z</time>
      </trkpt>
      <trkpt lat="45.93674" lon="4.77761">
        <ele>170</ele>
        <time>2018-06-01T10:38:51Z</time>
      </trkpt>
      <trkpt lat="45.93668" lon="4.77754">
        <ele>171</ele>
        <time>2018-06-01T10:38:52Z</time>
      </trkpt>
      <trkpt lat="45.93663" lon="4.77746">
        <ele>171</ele>
        <time>2018-06-01T10:38:53Z</time>
      </trkpt>
      <trkpt lat="45.93658" lon="4.77737">
        <ele>170</ele>
        <time>2018-06-01T10:38:54Z</time>
      </trkpt>
      <trkpt lat="45.93654" lon="4.77728">
        <ele>170</ele>
        <time>2018-06-01T10:38:55Z</time>
      </trkpt>
      <trkpt lat="45.93649" lon="4.77719">
        <ele>170</ele>
        <time>2018-06-01T10:38:56Z</time>
      </trkpt>
      <trkpt lat="45.93644" lon="4.7771">
        <ele>170</ele>
        <time>2018-06-01T10:38:57Z</time>
      </trkpt>
      <trkpt lat="45.93639" lon="4.777">
        <ele>170</ele>
        <time>2018-06-01T10:38:58Z</time>
      </trkpt>
      <trkpt lat="45.93633" lon="4.7769">
        <ele>169</ele>
        <time>2018-06-01T10:38:59Z</time>
      </trkpt>
      <trkpt lat="45.93629" lon="4.77681">
        <ele>169</ele>
        <time>2018-06-01T10:39:00Z</time>
      </trkpt>
      <trkpt lat="45.93624" lon="4.77672">
        <ele>169</ele>
        <time>2018-06-01T10:39:01Z</time>
      </trkpt>
      <trkpt lat="45.9362" lon="4.77662">
        <ele>169</ele>
        <time>2018-06-01T10:39:02Z</time>
      </trkpt>
      <trkpt lat="45.93615" lon="4.77652">
        <ele>169</ele>
        <time>2018-06-01T10:39:03Z</time>
      </trkpt>
      <trkpt lat="45.93611" lon="4.77643">
        <ele>169</ele>
        <time>2018-06-01T10:39:04Z</time>
      </trkpt>
      <trkpt lat="45.93607" lon="4.77633">
        <ele>169</ele>
        <time>2018-06-01T10:39:05Z</time>
      </trkpt>
      <trkpt lat="45.93604" lon="4.77625">
        <ele>170</ele>
        <time>2018-06-01T10:39:06Z</time>
      </trkpt>
      <trkpt lat="45.936" lon="4.77616">
        <ele>170</ele>
        <time>2018-06-01T10:39:07Z</time>
      </trkpt>
      <trkpt lat="45.93598" lon="4.77605">
        <ele>170</ele>
        <time>2018-06-01T10:39:08Z</time>
      </trkpt>
      <trkpt lat="45.93595" lon="4.77596">
        <ele>170</ele>
        <time>2018-06-01T10:39:09Z</time>
      </trkpt>
      <trkpt lat="45.93591" lon="4.77586">
        <ele>170</ele>
        <time>2018-06-01T10:39:10Z</time>
      </trkpt>
      <trkpt lat="45.93588" lon="4.77576">
        <ele>170</ele>
        <time>2018-06-01T10:39:11Z</time>
      </trkpt>
      <trkpt lat="45.93585" lon="4.77566">
        <ele>170</ele>
        <time>2018-06-01T10:39:12Z</time>
      </trkpt>
      <trkpt lat="45.93582" lon="4.77557">
        <ele>169</ele>
        <time>2018-06-01T10:39:13Z</time>
      </trkpt>
      <trkpt lat="45.9358" lon="4.77546">
        <ele>169</ele>
        <time>2018-06-01T10:39:14Z</time>
      </trkpt>
      <trkpt lat="45.93577" lon="4.77536">
        <ele>169</ele>
        <time>2018-06-01T10:39:15Z</time>
      </trkpt>
      <trkpt lat="45.93575" lon="4.77526">
        <ele>169</ele>
        <time>2018-06-01T10:39:16Z</time>
      </trkpt>
      <trkpt lat="45.93572" lon="4.77517">
        <ele>169</ele>
        <time>2018-06-01T10:39:17Z</time>
      </trkpt>
      <trkpt lat="45.9357" lon="4.77507">
        <ele>169</ele>
        <time>2018-06-01T10:39:18Z</time>
      </trkpt>
      <trkpt lat="45.93568" lon="4.77497">
        <ele>169</ele>
        <time>2018-06-01T10:39:19Z</time>
      </trkpt>
      <trkpt lat="45.93566" lon="4.77488">
        <ele>169</ele>
        <time>2018-06-01T10:39:20Z</time>
      </trkpt>
      <trkpt lat="45.93564" lon="4.77478">
        <ele>169</ele>
        <time>2018-06-01T10:39:21Z</time>
      </trkpt>
      <trkpt lat="45.93561" lon="4.77468">
        <ele>169</ele>
        <time>2018-06-01T10:39:22Z</time>
      </trkpt>
      <trkpt lat="45.93559" lon="4.77458">
        <ele>169</ele>
        <time>2018-06-01T10:39:23Z</time>
      </trkpt>
      <trkpt lat="45.93556" lon="4.77449">
        <ele>169</ele>
        <time>2018-06-01T10:39:24Z</time>
      </trkpt>
      <trkpt lat="45.93555" lon="4.77441">
        <ele>169</ele>
        <time>2018-06-01T10:39:25Z</time>
      </trkpt>
      <trkpt lat="45.93553" lon="4.77432">
        <ele>169</ele>
        <time>2018-06-01T10:39:26Z</time>
      </trkpt>
      <trkpt lat="45.9355" lon="4.77421">
        <ele>170</ele>
        <time>2018-06-01T10:39:27Z</time>
      </trkpt>
      <trkpt lat="45.93548" lon="4.77413">
        <ele>170</ele>
        <time>2018-06-01T10:39:28Z</time>
      </trkpt>
      <trkpt lat="45.93545" lon="4.77404">
        <ele>170</ele>
        <time>2018-06-01T10:39:29Z</time>
      </trkpt>
      <trkpt lat="45.93544" lon="4.77395">
        <ele>170</ele>
        <time>2018-06-01T10:39:30Z</time>
      </trkpt>
      <trkpt lat="45.93543" lon="4.77388">
        <ele>170</ele>
        <time>2018-06-01T10:39:31Z</time>
      </trkpt>
      <trkpt lat="45.93543" lon="4.7738">
        <ele>170</ele>
        <time>2018-06-01T10:39:32Z</time>
      </trkpt>
      <trkpt lat="45.93541" lon="4.77372">
        <ele>170</ele>
        <time>2018-06-01T10:39:33Z</time>
      </trkpt>
      <trkpt lat="45.93541" lon="4.77364">
        <ele>170</ele>
        <time>2018-06-01T10:39:34Z</time>
      </trkpt>
      <trkpt lat="45.93541" lon="4.77356">
        <ele>170</ele>
        <time>2018-06-01T10:39:35Z</time>
      </trkpt>
      <trkpt lat="45.93538" lon="4.77348">
        <ele>170</ele>
        <time>2018-06-01T10:39:36Z</time>
      </trkpt>
      <trkpt lat="45.93537" lon="4.77339">
        <ele>170</ele>
        <time>2018-06-01T10:39:37Z</time>
      </trkpt>
      <trkpt lat="45.93535" lon="4.77331">
        <ele>170</ele>
        <time>2018-06-01T10:39:38Z</time>
      </trkpt>
      <trkpt lat="45.93532" lon="4.77323">
        <ele>170</ele>
        <time>2018-06-01T10:39:39Z</time>
      </trkpt>
      <trkpt lat="45.93531" lon="4.77314">
        <ele>170</ele>
        <time>2018-06-01T10:39:40Z</time>
      </trkpt>
      <trkpt lat="45.93529" lon="4.77306">
        <ele>170</ele>
        <time>2018-06-01T10:39:41Z</time>
      </trkpt>
      <trkpt lat="45.93527" lon="4.77297">
        <ele>170</ele>
        <time>2018-06-01T10:39:42Z</time>
      </trkpt>
      <trkpt lat="45.93525" lon="4.77289">
        <ele>170</ele>
        <time>2018-06-01T10:39:43Z</time>
      </trkpt>
      <trkpt lat="45.93521" lon="4.77281">
        <ele>170</ele>
        <time>2018-06-01T10:39:44Z</time>
      </trkpt>
      <trkpt lat="45.9352" lon="4.77274">
        <ele>170</ele>
        <time>2018-06-01T10:39:45Z</time>
      </trkpt>
      <trkpt lat="45.93518" lon="4.77266">
        <ele>170</ele>
        <time>2018-06-01T10:39:46Z</time>
      </trkpt>
      <trkpt lat="45.93516" lon="4.77259">
        <ele>170</ele>
        <time>2018-06-01T10:39:47Z</time>
      </trkpt>
      <trkpt lat="45.93516" lon="4.77251">
        <ele>170</ele>
        <time>2018-06-01T10:39:48Z</time>
      </trkpt>
      <trkpt lat="45.93516" lon="4.77243">
        <ele>169</ele>
        <time>2018-06-01T10:39:49Z</time>
      </trkpt>
      <trkpt lat="45.93514" lon="4.77236">
        <ele>169</ele>
        <time>2018-06-01T10:39:50Z</time>
      </trkpt>
      <trkpt lat="45.93513" lon="4.77228">
        <ele>169</ele>
        <time>2018-06-01T10:39:51Z</time>
      </trkpt>
      <trkpt lat="45.93511" lon="4.77218">
        <ele>169</ele>
        <time>2018-06-01T10:39:52Z</time>
      </trkpt>
      <trkpt lat="45.93509" lon="4.77211">
        <ele>169</ele>
        <time>2018-06-01T10:39:53Z</time>
      </trkpt>
      <trkpt lat="45.93507" lon="4.77204">
        <ele>169</ele>
        <time>2018-06-01T10:39:54Z</time>
      </trkpt>
      <trkpt lat="45.93505" lon="4.77195">
        <ele>169</ele>
        <time>2018-06-01T10:39:55Z</time>
      </trkpt>
      <trkpt lat="45.93504" lon="4.77187">
        <ele>169</ele>
        <time>2018-06-01T10:39:56Z</time>
      </trkpt>
      <trkpt lat="45.93502" lon="4.7718">
        <ele>169</ele>
        <time>2018-06-01T10:39:57Z</time>
      </trkpt>
      <trkpt lat="45.93501" lon="4.77173">
        <ele>169</ele>
        <time>2018-06-01T10:39:58Z</time>
      </trkpt>
      <trkpt lat="45.93501" lon="4.77168">
        <ele>169</ele>
        <time>2018-06-01T10:39:59Z</time>
      </trkpt>
      <trkpt lat="45.93498" lon="4.7716">
        <ele>169</ele>
        <time>2018-06-01T10:40:00Z</time>
      </trkpt>
      <trkpt lat="45.93497" lon="4.77154">
        <ele>169</ele>
        <time>2018-06-01T10:40:01Z</time>
      </trkpt>
      <trkpt lat="45.93495" lon="4.77146">
        <ele>169</ele>
        <time>2018-06-01T10:40:02Z</time>
      </trkpt>
      <trkpt lat="45.93494" lon="4.77139">
        <ele>169</ele>
        <time>2018-06-01T10:40:03Z</time>
      </trkpt>
      <trkpt lat="45.93493" lon="4.77132">
        <ele>169</ele>
        <time>2018-06-01T10:40:04Z</time>
      </trkpt>
      <trkpt lat="45.93493" lon="4.77124">
        <ele>169</ele>
        <time>2018-06-01T10:40:05Z</time>
      </trkpt>
      <trkpt lat="45.9349" lon="4.77118">
        <ele>169</ele>
        <time>2018-06-01T10:40:06Z</time>
      </trkpt>
      <trkpt lat="45.93489" lon="4.7711">
        <ele>169</ele>
        <time>2018-06-01T10:40:07Z</time>
      </trkpt>
      <trkpt lat="45.93487" lon="4.771">
        <ele>169</ele>
        <time>2018-06-01T10:40:08Z</time>
      </trkpt>
      <trkpt lat="45.93484" lon="4.77093">
        <ele>169</ele>
        <time>2018-06-01T10:40:09Z</time>
      </trkpt>
      <trkpt lat="45.93484" lon="4.77085">
        <ele>169</ele>
        <time>2018-06-01T10:40:10Z</time>
      </trkpt>
      <trkpt lat="45.93482" lon="4.77077">
        <ele>170</ele>
        <time>2018-06-01T10:40:11Z</time>
      </trkpt>
      <trkpt lat="45.93482" lon="4.77069">
        <ele>170</ele>
        <time>2018-06-01T10:40:12Z</time>
      </trkpt>
      <trkpt lat="45.9348" lon="4.77061">
        <ele>170</ele>
        <time>2018-06-01T10:40:13Z</time>
      </trkpt>
      <trkpt lat="45.93478" lon="4.77051">
        <ele>170</ele>
        <time>2018-06-01T10:40:14Z</time>
      </trkpt>
      <trkpt lat="45.93477" lon="4.77043">
        <ele>170</ele>
        <time>2018-06-01T10:40:15Z</time>
      </trkpt>
      <trkpt lat="45.93475" lon="4.77035">
        <ele>170</ele>
        <time>2018-06-01T10:40:16Z</time>
      </trkpt>
      <trkpt lat="45.93474" lon="4.77027">
        <ele>170</ele>
        <time>2018-06-01T10:40:17Z</time>
      </trkpt>
      <trkpt lat="45.93473" lon="4.77019">
        <ele>170</ele>
        <time>2018-06-01T10:40:18Z</time>
      </trkpt>
      <trkpt lat="45.93471" lon="4.7701">
        <ele>170</ele>
        <time>2018-06-01T10:40:19Z</time>
      </trkpt>
      <trkpt lat="45.93471" lon="4.77004">
        <ele>170</ele>
        <time>2018-06-01T10:40:20Z</time>
      </trkpt>
      <trkpt lat="45.93471" lon="4.76997">
        <ele>170</ele>
        <time>2018-06-01T10:40:21Z</time>
      </trkpt>
      <trkpt lat="45.9347" lon="4.76989">
        <ele>170</ele>
        <time>2018-06-01T10:40:22Z</time>
      </trkpt>
      <trkpt lat="45.93468" lon="4.76982">
        <ele>170</ele>
        <time>2018-06-01T10:40:23Z</time>
      </trkpt>
      <trkpt lat="45.93464" lon="4.76973">
        <ele>170</ele>
        <time>2018-06-01T10:40:24Z</time>
      </trkpt>
      <trkpt lat="45.93462" lon="4.76965">
        <ele>170</ele>
        <time>2018-06-01T10:40:25Z</time>
      </trkpt>
      <trkpt lat="45.93462" lon="4.76958">
        <ele>170</ele>
        <time>2018-06-01T10:40:26Z</time>
      </trkpt>
      <trkpt lat="45.9346" lon="4.7695">
        <ele>170</ele>
        <time>2018-06-01T10:40:27Z</time>
      </trkpt>
      <trkpt lat="45.93458" lon="4.76943">
        <ele>170</ele>
        <time>2018-06-01T10:40:28Z</time>
      </trkpt>
      <trkpt lat="45.93456" lon="4.76935">
        <ele>170</ele>
        <time>2018-06-01T10:40:29Z</time>
      </trkpt>
      <trkpt lat="45.93455" lon="4.76927">
        <ele>170</ele>
        <time>2018-06-01T10:40:30Z</time>
      </trkpt>
      <trkpt lat="45.93453" lon="4.76918">
        <ele>170</ele>
        <time>2018-06-01T10:40:31Z</time>
      </trkpt>
      <trkpt lat="45.93451" lon="4.76912">
        <ele>170</ele>
        <time>2018-06-01T10:40:32Z</time>
      </trkpt>
      <trkpt lat="45.9345" lon="4.76904">
        <ele>170</ele>
        <time>2018-06-01T10:40:33Z</time>
      </trkpt>
      <trkpt lat="45.93447" lon="4.76896">
        <ele>170</ele>
        <time>2018-06-01T10:40:34Z</time>
      </trkpt>
      <trkpt lat="45.93446" lon="4.76888">
        <ele>170</ele>
        <time>2018-06-01T10:40:35Z</time>
      </trkpt>
      <trkpt lat="45.93444" lon="4.76881">
        <ele>170</ele>
        <time>2018-06-01T10:40:36Z</time>
      </trkpt>
      <trkpt lat="45.9344" lon="4.76875">
        <ele>171</ele>
        <time>2018-06-01T10:40:37Z</time>
      </trkpt>
      <trkpt lat="45.93438" lon="4.76867">
        <ele>171</ele>
        <time>2018-06-01T10:40:38Z</time>
      </trkpt>
      <trkpt lat="45.93435" lon="4.7686">
        <ele>171</ele>
        <time>2018-06-01T10:40:39Z</time>
      </trkpt>
      <trkpt lat="45.93432" lon="4.76854">
        <ele>171</ele>
        <time>2018-06-01T10:40:40Z</time>
      </trkpt>
      <trkpt lat="45.93429" lon="4.76849">
        <ele>171</ele>
        <time>2018-06-01T10:40:41Z</time>
      </trkpt>
      <trkpt lat="45.93426" lon="4.76842">
        <ele>171</ele>
        <time>2018-06-01T10:40:42Z</time>
      </trkpt>
      <trkpt lat="45.93422" lon="4.76835">
        <ele>172</ele>
        <time>2018-06-01T10:40:43Z</time>
      </trkpt>
      <trkpt lat="45.93418" lon="4.76828">
        <ele>172</ele>
        <time>2018-06-01T10:40:44Z</time>
      </trkpt>
      <trkpt lat="45.93415" lon="4.76822">
        <ele>172</ele>
        <time>2018-06-01T10:40:45Z</time>
      </trkpt>
      <trkpt lat="45.93412" lon="4.76815">
        <ele>172</ele>
        <time>2018-06-01T10:40:46Z</time>
      </trkpt>
      <trkpt lat="45.93407" lon="4.76809">
        <ele>172</ele>
        <time>2018-06-01T10:40:47Z</time>
      </trkpt>
      <trkpt lat="45.93403" lon="4.76803">
        <ele>172</ele>
        <time>2018-06-01T10:40:48Z</time>
      </trkpt>
      <trkpt lat="45.93399" lon="4.76799">
        <ele>172</ele>
        <time>2018-06-01T10:40:49Z</time>
      </trkpt>
      <trkpt lat="45.93395" lon="4.76792">
        <ele>172</ele>
        <time>2018-06-01T10:40:50Z</time>
      </trkpt>
      <trkpt lat="45.9339" lon="4.76787">
        <ele>172</ele>
        <time>2018-06-01T10:40:51Z</time>
      </trkpt>
      <trkpt lat="45.93386" lon="4.76781">
        <ele>172</ele>
        <time>2018-06-01T10:40:52Z</time>
      </trkpt>
      <trkpt lat="45.93381" lon="4.76776">
        <ele>172</ele>
        <time>2018-06-01T10:40:53Z</time>
      </trkpt>
      <trkpt lat="45.93377" lon="4.76771">
        <ele>172</ele>
        <time>2018-06-01T10:40:54Z</time>
      </trkpt>
      <trkpt lat="45.93373" lon="4.76767">
        <ele>172</ele>
        <time>2018-06-01T10:40:55Z</time>
      </trkpt>
      <trkpt lat="45.93367" lon="4.76763">
        <ele>172</ele>
        <time>2018-06-01T10:40:56Z</time>
      </trkpt>
      <trkpt lat="45.93363" lon="4.76758">
        <ele>172</ele>
        <time>2018-06-01T10:40:57Z</time>
      </trkpt>
      <trkpt lat="45.93357" lon="4.76753">
        <ele>172</ele>
        <time>2018-06-01T10:40:58Z</time>
      </trkpt>
      <trkpt lat="45.93353" lon="4.76748">
        <ele>172</ele>
        <time>2018-06-01T10:40:59Z</time>
      </trkpt>
      <trkpt lat="45.93348" lon="4.76743">
        <ele>172</ele>
        <time>2018-06-01T10:41:00Z</time>
      </trkpt>
      <trkpt lat="45.93343" lon="4.76737">
        <ele>172</ele>
        <time>2018-06-01T10:41:01Z</time>
      </trkpt>
      <trkpt lat="45.9334" lon="4.76732">
        <ele>172</ele>
        <time>2018-06-01T10:41:02Z</time>
      </trkpt>
      <trkpt lat="45.93335" lon="4.76727">
        <ele>172</ele>
        <time>2018-06-01T10:41:03Z</time>
      </trkpt>
      <trkpt lat="45.93329" lon="4.76722">
        <ele>172</ele>
        <time>2018-06-01T10:41:04Z</time>
      </trkpt>
      <trkpt lat="45.93323" lon="4.76717">
        <ele>172</ele>
        <time>2018-06-01T10:41:05Z</time>
      </trkpt>
      <trkpt lat="45.93318" lon="4.76712">
        <ele>172</ele>
        <time>2018-06-01T10:41:06Z</time>
      </trkpt>
      <trkpt lat="45.93313" lon="4.76708">
        <ele>172</ele>
        <time>2018-06-01T10:41:07Z</time>
      </trkpt>
      <trkpt lat="45.93308" lon="4.76705">
        <ele>172</ele>
        <time>2018-06-01T10:41:08Z</time>
      </trkpt>
      <trkpt lat="45.93303" lon="4.76699">
        <ele>172</ele>
        <time>2018-06-01T10:41:09Z</time>
      </trkpt>
      <trkpt lat="45.93299" lon="4.76693">
        <ele>172</ele>
        <time>2018-06-01T10:41:10Z</time>
      </trkpt>
      <trkpt lat="45.93293" lon="4.76689">
        <ele>172</ele>
        <time>2018-06-01T10:41:11Z</time>
      </trkpt>
      <trkpt lat="45.93288" lon="4.76684">
        <ele>172</ele>
        <time>2018-06-01T10:41:12Z</time>
      </trkpt>
      <trkpt lat="45.93283" lon="4.76678">
        <ele>172</ele>
        <time>2018-06-01T10:41:13Z</time>
      </trkpt>
      <trkpt lat="45.93278" lon="4.76673">
        <ele>172</ele>
        <time>2018-06-01T10:41:14Z</time>
      </trkpt>
      <trkpt lat="45.93274" lon="4.76668">
        <ele>172</ele>
        <time>2018-06-01T10:41:15Z</time>
      </trkpt>
      <trkpt lat="45.93269" lon="4.76663">
        <ele>171</ele>
        <time>2018-06-01T10:41:16Z</time>
      </trkpt>
      <trkpt lat="45.93263" lon="4.76658">
        <ele>171</ele>
        <time>2018-06-01T10:41:17Z</time>
      </trkpt>
      <trkpt lat="45.93258" lon="4.76654">
        <ele>171</ele>
        <time>2018-06-01T10:41:18Z</time>
      </trkpt>
      <trkpt lat="45.93253" lon="4.76648">
        <ele>171</ele>
        <time>2018-06-01T10:41:19Z</time>
      </trkpt>
      <trkpt lat="45.93249" lon="4.76644">
        <ele>171</ele>
        <time>2018-06-01T10:41:20Z</time>
      </trkpt>
      <trkpt lat="45.93244" lon="4.76638">
        <ele>171</ele>
        <time>2018-06-01T10:41:21Z</time>
      </trkpt>
      <trkpt lat="45.93239" lon="4.76636">
        <ele>171</ele>
        <time>2018-06-01T10:41:22Z</time>
      </trkpt>
      <trkpt lat="45.93234" lon="4.76631">
        <ele>170</ele>
        <time>2018-06-01T10:41:23Z</time>
      </trkpt>
      <trkpt lat="45.93228" lon="4.76626">
        <ele>170</ele>
        <time>2018-06-01T10:41:24Z</time>
      </trkpt>
      <trkpt lat="45.93225" lon="4.76619">
        <ele>170</ele>
        <time>2018-06-01T10:41:25Z</time>
      </trkpt>
      <trkpt lat="45.9322" lon="4.76615">
        <ele>170</ele>
        <time>2018-06-01T10:41:26Z</time>
      </trkpt>
      <trkpt lat="45.93215" lon="4.7661">
        <ele>170</ele>
        <time>2018-06-01T10:41:27Z</time>
      </trkpt>
      <trkpt lat="45.93211" lon="4.76607">
        <ele>170</ele>
        <time>2018-06-01T10:41:28Z</time>
      </trkpt>
      <trkpt lat="45.93205" lon="4.76603">
        <ele>170</ele>
        <time>2018-06-01T10:41:29Z</time>
      </trkpt>
      <trkpt lat="45.932" lon="4.76598">
        <ele>170</ele>
        <time>2018-06-01T10:41:30Z</time>
      </trkpt>
      <trkpt lat="45.93193" lon="4.76596">
        <ele>170</ele>
        <time>2018-06-01T10:41:31Z</time>
      </trkpt>
      <trkpt lat="45.93188" lon="4.7659">
        <ele>170</ele>
        <time>2018-06-01T10:41:32Z</time>
      </trkpt>
      <trkpt lat="45.93183" lon="4.76584">
        <ele>171</ele>
        <time>2018-06-01T10:41:33Z</time>
      </trkpt>
      <trkpt lat="45.93178" lon="4.76578">
        <ele>170</ele>
        <time>2018-06-01T10:41:34Z</time>
      </trkpt>
      <trkpt lat="45.93171" lon="4.76578">
        <ele>170</ele>
        <time>2018-06-01T10:41:35Z</time>
      </trkpt>
      <trkpt lat="45.93166" lon="4.76574">
        <ele>171</ele>
        <time>2018-06-01T10:41:36Z</time>
      </trkpt>
      <trkpt lat="45.93161" lon="4.76567">
        <ele>170</ele>
        <time>2018-06-01T10:41:37Z</time>
      </trkpt>
      <trkpt lat="45.93156" lon="4.76563">
        <ele>170</ele>
        <time>2018-06-01T10:41:38Z</time>
      </trkpt>
      <trkpt lat="45.93151" lon="4.76557">
        <ele>170</ele>
        <time>2018-06-01T10:41:39Z</time>
      </trkpt>
      <trkpt lat="45.93146" lon="4.76551">
        <ele>170</ele>
        <time>2018-06-01T10:41:40Z</time>
      </trkpt>
      <trkpt lat="45.93141" lon="4.76546">
        <ele>170</ele>
        <time>2018-06-01T10:41:41Z</time>
      </trkpt>
      <trkpt lat="45.93136" lon="4.76541">
        <ele>170</ele>
        <time>2018-06-01T10:41:42Z</time>
      </trkpt>
      <trkpt lat="45.93132" lon="4.76538">
        <ele>170</ele>
        <time>2018-06-01T10:41:43Z</time>
      </trkpt>
      <trkpt lat="45.93127" lon="4.76532">
        <ele>170</ele>
        <time>2018-06-01T10:41:44Z</time>
      </trkpt>
      <trkpt lat="45.93122" lon="4.76527">
        <ele>170</ele>
        <time>2018-06-01T10:41:45Z</time>
      </trkpt>
      <trkpt lat="45.93118" lon="4.76522">
        <ele>170</ele>
        <time>2018-06-01T10:41:46Z</time>
      </trkpt>
      <trkpt lat="45.93113" lon="4.76517">
        <ele>170</ele>
        <time>2018-06-01T10:41:47Z</time>
      </trkpt>
      <trkpt lat="45.93108" lon="4.76511">
        <ele>170</ele>
        <time>2018-06-01T10:41:48Z</time>
      </trkpt>
      <trkpt lat="45.93102" lon="4.76507">
        <ele>170</ele>
        <time>2018-06-01T10:41:49Z</time>
      </trkpt>
      <trkpt lat="45.93098" lon="4.76502">
        <ele>170</ele>
        <time>2018-06-01T10:41:50Z</time>
      </trkpt>
      <trkpt lat="45.93094" lon="4.76497">
        <ele>170</ele>
        <time>2018-06-01T10:41:51Z</time>
      </trkpt>
      <trkpt lat="45.93088" lon="4.76491">
        <ele>170</ele>
        <time>2018-06-01T10:41:52Z</time>
      </trkpt>
      <trkpt lat="45.93085" lon="4.76485">
        <ele>170</ele>
        <time>2018-06-01T10:41:53Z</time>
      </trkpt>
      <trkpt lat="45.93078" lon="4.76479">
        <ele>169</ele>
        <time>2018-06-01T10:41:54Z</time>
      </trkpt>
      <trkpt lat="45.93073" lon="4.76473">
        <ele>169</ele>
        <time>2018-06-01T10:41:55Z</time>
      </trkpt>
      <trkpt lat="45.93069" lon="4.76467">
        <ele>169</ele>
        <time>2018-06-01T10:41:56Z</time>
      </trkpt>
      <trkpt lat="45.93065" lon="4.76462">
        <ele>169</ele>
        <time>2018-06-01T10:41:57Z</time>
      </trkpt>
      <trkpt lat="45.93059" lon="4.76459">
        <ele>169</ele>
        <time>2018-06-01T10:41:58Z</time>
      </trkpt>
      <trkpt lat="45.93054" lon="4.76454">
        <ele>169</ele>
        <time>2018-06-01T10:41:59Z</time>
      </trkpt>
      <trkpt lat="45.93049" lon="4.76447">
        <ele>169</ele>
        <time>2018-06-01T10:42:00Z</time>
      </trkpt>
      <trkpt lat="45.93043" lon="4.76441">
        <ele>169</ele>
        <time>2018-06-01T10:42:01Z</time>
      </trkpt>
      <trkpt lat="45.93039" lon="4.76434">
        <ele>169</ele>
        <time>2018-06-01T10:42:02Z</time>
      </trkpt>
      <trkpt lat="45.93033" lon="4.76431">
        <ele>169</ele>
        <time>2018-06-01T10:42:03Z</time>
      </trkpt>
      <trkpt lat="45.93028" lon="4.76427">
        <ele>169</ele>
        <time>2018-06-01T10:42:04Z</time>
      </trkpt>
      <trkpt lat="45.93023" lon="4.76422">
        <ele>169</ele>
        <time>2018-06-01T10:42:05Z</time>
      </trkpt>
      <trkpt lat="45.93018" lon="4.76415">
        <ele>169</ele>
        <time>2018-06-01T10:42:06Z</time>
      </trkpt>
      <trkpt lat="45.93013" lon="4.76411">
        <ele>169</ele>
        <time>2018-06-01T10:42:07Z</time>
      </trkpt>
      <trkpt lat="45.93006" lon="4.76404">
        <ele>169</ele>
        <time>2018-06-01T10:42:08Z</time>
      </trkpt>
      <trkpt lat="45.93002" lon="4.76399">
        <ele>169</ele>
        <time>2018-06-01T10:42:09Z</time>
      </trkpt>
      <trkpt lat="45.92995" lon="4.76393">
        <ele>169</ele>
        <time>2018-06-01T10:42:10Z</time>
      </trkpt>
      <trkpt lat="45.92989" lon="4.76389">
        <ele>169</ele>
        <time>2018-06-01T10:42:11Z</time>
      </trkpt>
      <trkpt lat="45.92986" lon="4.76384">
        <ele>169</ele>
        <time>2018-06-01T10:42:12Z</time>
      </trkpt>
      <trkpt lat="45.92981" lon="4.76379">
        <ele>169</ele>
        <time>2018-06-01T10:42:13Z</time>
      </trkpt>
      <trkpt lat="45.92977" lon="4.76372">
        <ele>169</ele>
        <time>2018-06-01T10:42:14Z</time>
      </trkpt>
      <trkpt lat="45.92972" lon="4.76368">
        <ele>169</ele>
        <time>2018-06-01T10:42:15Z</time>
      </trkpt>
      <trkpt lat="45.92966" lon="4.76363">
        <ele>169</ele>
        <time>2018-06-01T10:42:16Z</time>
      </trkpt>
      <trkpt lat="45.92961" lon="4.76358">
        <ele>169</ele>
        <time>2018-06-01T10:42:17Z</time>
      </trkpt>
      <trkpt lat="45.92955" lon="4.76352">
        <ele>169</ele>
        <time>2018-06-01T10:42:18Z</time>
      </trkpt>
      <trkpt lat="45.92949" lon="4.76348">
        <ele>169</ele>
        <time>2018-06-01T10:42:19Z</time>
      </trkpt>
      <trkpt lat="45.92943" lon="4.76342">
        <ele>169</ele>
        <time>2018-06-01T10:42:20Z</time>
      </trkpt>
      <trkpt lat="45.92938" lon="4.76337">
        <ele>169</ele>
        <time>2018-06-01T10:42:21Z</time>
      </trkpt>
      <trkpt lat="45.92933" lon="4.76332">
        <ele>169</ele>
        <time>2018-06-01T10:42:22Z</time>
      </trkpt>
      <trkpt lat="45.92928" lon="4.76327">
        <ele>169</ele>
        <time>2018-06-01T10:42:23Z</time>
      </trkpt>
      <trkpt lat="45.92923" lon="4.76321">
        <ele>169</ele>
        <time>2018-06-01T10:42:24Z</time>
      </trkpt>
      <trkpt lat="45.92918" lon="4.76317">
        <ele>169</ele>
        <time>2018-06-01T10:42:25Z</time>
      </trkpt>
      <trkpt lat="45.92915" lon="4.76311">
        <ele>169</ele>
        <time>2018-06-01T10:42:26Z</time>
      </trkpt>
      <trkpt lat="45.9291" lon="4.76307">
        <ele>169</ele>
        <time>2018-06-01T10:42:27Z</time>
      </trkpt>
      <trkpt lat="45.92905" lon="4.76305">
        <ele>169</ele>
        <time>2018-06-01T10:42:28Z</time>
      </trkpt>
      <trkpt lat="45.92899" lon="4.76299">
        <ele>169</ele>
        <time>2018-06-01T10:42:29Z</time>
      </trkpt>
      <trkpt lat="45.92893" lon="4.76294">
        <ele>169</ele>
        <time>2018-06-01T10:42:30Z</time>
      </trkpt>
      <trkpt lat="45.92888" lon="4.76288">
        <ele>169</ele>
        <time>2018-06-01T10:42:31Z</time>
      </trkpt>
      <trkpt lat="45.92885" lon="4.76283">
        <ele>169</ele>
        <time>2018-06-01T10:42:32Z</time>
      </trkpt>
      <trkpt lat="45.92879" lon="4.76279">
        <ele>169</ele>
        <time>2018-06-01T10:42:33Z</time>
      </trkpt>
      <trkpt lat="45.92874" lon="4.76273">
        <ele>169</ele>
        <time>2018-06-01T10:42:34Z</time>
      </trkpt>
      <trkpt lat="45.9287" lon="4.76268">
        <ele>169</ele>
        <time>2018-06-01T10:42:35Z</time>
      </trkpt>
      <trkpt lat="45.92865" lon="4.76263">
        <ele>169</ele>
        <time>2018-06-01T10:42:36Z</time>
      </trkpt>
      <trkpt lat="45.92859" lon="4.76259">
        <ele>169</ele>
        <time>2018-06-01T10:42:37Z</time>
      </trkpt>
      <trkpt lat="45.92854" lon="4.76254">
        <ele>169</ele>
        <time>2018-06-01T10:42:38Z</time>
      </trkpt>
      <trkpt lat="45.9285" lon="4.76249">
        <ele>169</ele>
        <time>2018-06-01T10:42:39Z</time>
      </trkpt>
      <trkpt lat="45.92845" lon="4.76244">
        <ele>169</ele>
        <time>2018-06-01T10:42:40Z</time>
      </trkpt>
      <trkpt lat="45.92841" lon="4.76239">
        <ele>169</ele>
        <time>2018-06-01T10:42:41Z</time>
      </trkpt>
      <trkpt lat="45.92836" lon="4.76236">
        <ele>169</ele>
        <time>2018-06-01T10:42:42Z</time>
      </trkpt>
      <trkpt lat="45.92831" lon="4.76232">
        <ele>168</ele>
        <time>2018-06-01T10:42:43Z</time>
      </trkpt>
      <trkpt lat="45.92826" lon="4.76227">
        <ele>168</ele>
        <time>2018-06-01T10:42:44Z</time>
      </trkpt>
      <trkpt lat="45.92821" lon="4.76224">
        <ele>168</ele>
        <time>2018-06-01T10:42:45Z</time>
      </trkpt>
      <trkpt lat="45.92817" lon="4.7622">
        <ele>168</ele>
        <time>2018-06-01T10:42:46Z</time>
      </trkpt>
      <trkpt lat="45.92812" lon="4.76215">
        <ele>168</ele>
        <time>2018-06-01T10:42:47Z</time>
      </trkpt>
      <trkpt lat="45.92807" lon="4.76209">
        <ele>168</ele>
        <time>2018-06-01T10:42:48Z</time>
      </trkpt>
      <trkpt lat="45.92801" lon="4.76205">
        <ele>168</ele>
        <time>2018-06-01T10:42:49Z</time>
      </trkpt>
      <trkpt lat="45.92795" lon="4.76203">
        <ele>168</ele>
        <time>2018-06-01T10:42:50Z</time>
      </trkpt>
      <trkpt lat="45.92789" lon="4.762">
        <ele>168</ele>
        <time>2018-06-01T10:42:51Z</time>
      </trkpt>
      <trkpt lat="45.92786" lon="4.76196">
        <ele>168</ele>
        <time>2018-06-01T10:42:52Z</time>
      </trkpt>
      <trkpt lat="45.92781" lon="4.76191">
        <ele>168</ele>
        <time>2018-06-01T10:42:53Z</time>
      </trkpt>
      <trkpt lat="45.92777" lon="4.76185">
        <ele>168</ele>
        <time>2018-06-01T10:42:54Z</time>
      </trkpt>
      <trkpt lat="45.92772" lon="4.76179">
        <ele>167</ele>
        <time>2018-06-01T10:42:55Z</time>
      </trkpt>
      <trkpt lat="45.92766" lon="4.76175">
        <ele>167</ele>
        <time>2018-06-01T10:42:56Z</time>
      </trkpt>
      <trkpt lat="45.9276" lon="4.7617">
        <ele>167</ele>
        <time>2018-06-01T10:42:57Z</time>
      </trkpt>
      <trkpt lat="45.92754" lon="4.76165">
        <ele>167</ele>
        <time>2018-06-01T10:42:58Z</time>
      </trkpt>
      <trkpt lat="45.92749" lon="4.76161">
        <ele>167</ele>
        <time>2018-06-01T10:42:59Z</time>
      </trkpt>
      <trkpt lat="45.92744" lon="4.76156">
        <ele>168</ele>
        <time>2018-06-01T10:43:00Z</time>
      </trkpt>
      <trkpt lat="45.92738" lon="4.76154">
        <ele>168</ele>
        <time>2018-06-01T10:43:01Z</time>
      </trkpt>
      <trkpt lat="45.92733" lon="4.7615">
        <ele>168</ele>
        <time>2018-06-01T10:43:02Z</time>
      </trkpt>
      <trkpt lat="45.92728" lon="4.76144">
        <ele>168</ele>
        <time>2018-06-01T10:43:03Z</time>
      </trkpt>
      <trkpt lat="45.92721" lon="4.7614">
        <ele>168</ele>
        <time>2018-06-01T10:43:04Z</time>
      </trkpt>
      <trkpt lat="45.92716" lon="4.76137">
        <ele>168</ele>
        <time>2018-06-01T10:43:05Z</time>
      </trkpt>
      <trkpt lat="45.92711" lon="4.76132">
        <ele>168</ele>
        <time>2018-06-01T10:43:06Z</time>
      </trkpt>
      <trkpt lat="45.92706" lon="4.76129">
        <ele>169</ele>
        <time>2018-06-01T10:43:07Z</time>
      </trkpt>
      <trkpt lat="45.927" lon="4.76125">
        <ele>169</ele>
        <time>2018-06-01T10:43:08Z</time>
      </trkpt>
      <trkpt lat="45.92696" lon="4.76121">
        <ele>169</ele>
        <time>2018-06-01T10:43:09Z</time>
      </trkpt>
      <trkpt lat="45.92691" lon="4.76117">
        <ele>169</ele>
        <time>2018-06-01T10:43:10Z</time>
      </trkpt>
      <trkpt lat="45.92687" lon="4.76112">
        <ele>169</ele>
        <time>2018-06-01T10:43:11Z</time>
      </trkpt>
      <trkpt lat="45.92683" lon="4.76109">
        <ele>169</ele>
        <time>2018-06-01T10:43:12Z</time>
      </trkpt>
      <trkpt lat="45.92675" lon="4.76103">
        <ele>169</ele>
        <time>2018-06-01T10:43:14Z</time>
      </trkpt>
      <trkpt lat="45.92671" lon="4.76101">
        <ele>169</ele>
        <time>2018-06-01T10:43:15Z</time>
      </trkpt>
      <trkpt lat="45.92667" lon="4.76098">
        <ele>169</ele>
        <time>2018-06-01T10:43:16Z</time>
      </trkpt>
      <trkpt lat="45.92663" lon="4.76094">
        <ele>170</ele>
        <time>2018-06-01T10:43:17Z</time>
      </trkpt>
      <trkpt lat="45.92658" lon="4.7609">
        <ele>170</ele>
        <time>2018-06-01T10:43:18Z</time>
      </trkpt>
      <trkpt lat="45.92654" lon="4.76087">
        <ele>170</ele>
        <time>2018-06-01T10:43:19Z</time>
      </trkpt>
      <trkpt lat="45.92649" lon="4.76083">
        <ele>170</ele>
        <time>2018-06-01T10:43:20Z</time>
      </trkpt>
      <trkpt lat="45.92646" lon="4.76082">
        <ele>170</ele>
        <time>2018-06-01T10:43:21Z</time>
      </trkpt>
      <trkpt lat="45.92641" lon="4.76079">
        <ele>170</ele>
        <time>2018-06-01T10:43:22Z</time>
      </trkpt>
      <trkpt lat="45.92637" lon="4.76076">
        <ele>170</ele>
        <time>2018-06-01T10:43:23Z</time>
      </trkpt>
      <trkpt lat="45.9263" lon="4.76069">
        <ele>170</ele>
        <time>2018-06-01T10:43:25Z</time>
      </trkpt>
      <trkpt lat="45.92627" lon="4.76065">
        <ele>170</ele>
        <time>2018-06-01T10:43:26Z</time>
      </trkpt>
      <trkpt lat="45.9262" lon="4.76059">
        <ele>171</ele>
        <time>2018-06-01T10:43:28Z</time>
      </trkpt>
      <trkpt lat="45.92617" lon="4.76057">
        <ele>171</ele>
        <time>2018-06-01T10:43:29Z</time>
      </trkpt>
      <trkpt lat="45.92608" lon="4.76052">
        <ele>171</ele>
        <time>2018-06-01T10:43:31Z</time>
      </trkpt>
      <trkpt lat="45.92604" lon="4.7605">
        <ele>171</ele>
        <time>2018-06-01T10:43:32Z</time>
      </trkpt>
      <trkpt lat="45.92597" lon="4.76044">
        <ele>171</ele>
        <time>2018-06-01T10:43:34Z</time>
      </trkpt>
      <trkpt lat="45.92593" lon="4.76041">
        <ele>171</ele>
        <time>2018-06-01T10:43:35Z</time>
      </trkpt>
      <trkpt lat="45.92585" lon="4.76036">
        <ele>171</ele>
        <time>2018-06-01T10:43:37Z</time>
      </trkpt>
      <trkpt lat="45.92581" lon="4.76033">
        <ele>172</ele>
        <time>2018-06-01T10:43:38Z</time>
      </trkpt>
      <trkpt lat="45.92574" lon="4.76028">
        <ele>172</ele>
        <time>2018-06-01T10:43:40Z</time>
      </trkpt>
      <trkpt lat="45.9257" lon="4.76025">
        <ele>172</ele>
        <time>2018-06-01T10:43:41Z</time>
      </trkpt>
      <trkpt lat="45.92566" lon="4.76021">
        <ele>172</ele>
        <time>2018-06-01T10:43:42Z</time>
      </trkpt>
      <trkpt lat="45.9256" lon="4.76019">
        <ele>172</ele>
        <time>2018-06-01T10:43:43Z</time>
      </trkpt>
      <trkpt lat="45.92557" lon="4.76013">
        <ele>172</ele>
        <time>2018-06-01T10:43:44Z</time>
      </trkpt>
      <trkpt lat="45.92553" lon="4.7601">
        <ele>172</ele>
        <time>2018-06-01T10:43:45Z</time>
      </trkpt>
      <trkpt lat="45.92549" lon="4.76006">
        <ele>172</ele>
        <time>2018-06-01T10:43:46Z</time>
      </trkpt>
      <trkpt lat="45.92545" lon="4.76004">
        <ele>172</ele>
        <time>2018-06-01T10:43:47Z</time>
      </trkpt>
      <trkpt lat="45.9254" lon="4.76001">
        <ele>172</ele>
        <time>2018-06-01T10:43:48Z</time>
      </trkpt>
      <trkpt lat="45.92536" lon="4.75998">
        <ele>172</ele>
        <time>2018-06-01T10:43:49Z</time>
      </trkpt>
      <trkpt lat="45.92531" lon="4.75995">
        <ele>172</ele>
        <time>2018-06-01T10:43:50Z</time>
      </trkpt>
      <trkpt lat="45.92527" lon="4.75992">
        <ele>172</ele>
        <time>2018-06-01T10:43:51Z</time>
      </trkpt>
      <trkpt lat="45.92522" lon="4.75989">
        <ele>172</ele>
        <time>2018-06-01T10:43:52Z</time>
      </trkpt>
      <trkpt lat="45.92517" lon="4.75985">
        <ele>172</ele>
        <time>2018-06-01T10:43:53Z</time>
      </trkpt>
      <trkpt lat="45.92512" lon="4.75981">
        <ele>172</ele>
        <time>2018-06-01T10:43:54Z</time>
      </trkpt>
      <trkpt lat="45.92507" lon="4.75977">
        <ele>172</ele>
        <time>2018-06-01T10:43:55Z</time>
      </trkpt>
      <trkpt lat="45.92503" lon="4.75972">
        <ele>172</ele>
        <time>2018-06-01T10:43:56Z</time>
      </trkpt>
      <trkpt lat="45.92499" lon="4.75968">
        <ele>172</ele>
        <time>2018-06-01T10:43:57Z</time>
      </trkpt>
      <trkpt lat="45.92495" lon="4.75964">
        <ele>172</ele>
        <time>2018-06-01T10:43:58Z</time>
      </trkpt>
      <trkpt lat="45.9249" lon="4.75961">
        <ele>172</ele>
        <time>2018-06-01T10:43:59Z</time>
      </trkpt>
      <trkpt lat="45.92485" lon="4.75958">
        <ele>172</ele>
        <time>2018-06-01T10:44:00Z</time>
      </trkpt>
      <trkpt lat="45.9248" lon="4.75955">
        <ele>172</ele>
        <time>2018-06-01T10:44:01Z</time>
      </trkpt>
      <trkpt lat="45.92475" lon="4.75952">
        <ele>172</ele>
        <time>2018-06-01T10:44:02Z</time>
      </trkpt>
      <trkpt lat="45.9247" lon="4.75949">
        <ele>172</ele>
        <time>2018-06-01T10:44:03Z</time>
      </trkpt>
      <trkpt lat="45.92464" lon="4.75945">
        <ele>172</ele>
        <time>2018-06-01T10:44:04Z</time>
      </trkpt>
      <trkpt lat="45.92458" lon="4.75942">
        <ele>172</ele>
        <time>2018-06-01T10:44:05Z</time>
      </trkpt>
      <trkpt lat="45.92453" lon="4.75938">
        <ele>172</ele>
        <time>2018-06-01T10:44:06Z</time>
      </trkpt>
      <trkpt lat="45.92448" lon="4.75935">
        <ele>172</ele>
        <time>2018-06-01T10:44:07Z</time>
      </trkpt>
      <trkpt lat="45.92443" lon="4.75932">
        <ele>172</ele>
        <time>2018-06-01T10:44:08Z</time>
      </trkpt>
      <trkpt lat="45.92437" lon="4.75928">
        <ele>172</ele>
        <time>2018-06-01T10:44:09Z</time>
      </trkpt>
      <trkpt lat="45.92431" lon="4.75924">
        <ele>172</ele>
        <time>2018-06-01T10:44:10Z</time>
      </trkpt>
      <trkpt lat="45.92426" lon="4.75919">
        <ele>172</ele>
        <time>2018-06-01T10:44:11Z</time>
      </trkpt>
      <trkpt lat="45.9242" lon="4.75916">
        <ele>172</ele>
        <time>2018-06-01T10:44:12Z</time>
      </trkpt>
      <trkpt lat="45.92414" lon="4.75911">
        <ele>172</ele>
        <time>2018-06-01T10:44:13Z</time>
      </trkpt>
      <trkpt lat="45.92407" lon="4.75908">
        <ele>172</ele>
        <time>2018-06-01T10:44:14Z</time>
      </trkpt>
      <trkpt lat="45.92402" lon="4.75905">
        <ele>173</ele>
        <time>2018-06-01T10:44:15Z</time>
      </trkpt>
      <trkpt lat="45.92395" lon="4.75901">
        <ele>173</ele>
        <time>2018-06-01T10:44:16Z</time>
      </trkpt>
      <trkpt lat="45.92389" lon="4.75896">
        <ele>173</ele>
        <time>2018-06-01T10:44:17Z</time>
      </trkpt>
      <trkpt lat="45.92384" lon="4.75892">
        <ele>173</ele>
        <time>2018-06-01T10:44:18Z</time>
      </trkpt>
      <trkpt lat="45.92378" lon="4.75888">
        <ele>173</ele>
        <time>2018-06-01T10:44:19Z</time>
      </trkpt>
      <trkpt lat="45.92373" lon="4.75885">
        <ele>173</ele>
        <time>2018-06-01T10:44:20Z</time>
      </trkpt>
      <trkpt lat="45.92367" lon="4.75881">
        <ele>173</ele>
        <time>2018-06-01T10:44:21Z</time>
      </trkpt>
      <trkpt lat="45.92362" lon="4.75878">
        <ele>173</ele>
        <time>2018-06-01T10:44:22Z</time>
      </trkpt>
      <trkpt lat="45.92357" lon="4.75875">
        <ele>173</ele>
        <time>2018-06-01T10:44:23Z</time>
      </trkpt>
      <trkpt lat="45.92351" lon="4.75872">
        <ele>173</ele>
        <time>2018-06-01T10:44:24Z</time>
      </trkpt>
      <trkpt lat="45.92346" lon="4.75869">
        <ele>173</ele>
        <time>2018-06-01T10:44:25Z</time>
      </trkpt>
      <trkpt lat="45.92341" lon="4.75865">
        <ele>173</ele>
        <time>2018-06-01T10:44:26Z</time>
      </trkpt>
      <trkpt lat="45.92336" lon="4.75862">
        <ele>173</ele>
        <time>2018-06-01T10:44:27Z</time>
      </trkpt>
      <trkpt lat="45.92331" lon="4.75859">
        <ele>174</ele>
        <time>2018-06-01T10:44:28Z</time>
      </trkpt>
      <trkpt lat="45.92326" lon="4.75855">
        <ele>174</ele>
        <time>2018-06-01T10:44:29Z</time>
      </trkpt>
      <trkpt lat="45.9232" lon="4.75852">
        <ele>174</ele>
        <time>2018-06-01T10:44:30Z</time>
      </trkpt>
      <trkpt lat="45.92315" lon="4.75848">
        <ele>174</ele>
        <time>2018-06-01T10:44:31Z</time>
      </trkpt>
      <trkpt lat="45.9231" lon="4.75844">
        <ele>173</ele>
        <time>2018-06-01T10:44:32Z</time>
      </trkpt>
      <trkpt lat="45.92305" lon="4.75841">
        <ele>173</ele>
        <time>2018-06-01T10:44:33Z</time>
      </trkpt>
      <trkpt lat="45.92301" lon="4.75839">
        <ele>173</ele>
        <time>2018-06-01T10:44:34Z</time>
      </trkpt>
      <trkpt lat="45.92296" lon="4.75836">
        <ele>173</ele>
        <time>2018-06-01T10:44:35Z</time>
      </trkpt>
      <trkpt lat="45.92292" lon="4.75833">
        <ele>174</ele>
        <time>2018-06-01T10:44:36Z</time>
      </trkpt>
      <trkpt lat="45.92287" lon="4.7583">
        <ele>174</ele>
        <time>2018-06-01T10:44:37Z</time>
      </trkpt>
      <trkpt lat="45.92282" lon="4.75826">
        <ele>174</ele>
        <time>2018-06-01T10:44:38Z</time>
      </trkpt>
      <trkpt lat="45.92277" lon="4.75821">
        <ele>174</ele>
        <time>2018-06-01T10:44:39Z</time>
      </trkpt>
      <trkpt lat="45.92273" lon="4.75817">
        <ele>174</ele>
        <time>2018-06-01T10:44:40Z</time>
      </trkpt>
      <trkpt lat="45.9227" lon="4.75811">
        <ele>174</ele>
        <time>2018-06-01T10:44:41Z</time>
      </trkpt>
      <trkpt lat="45.92265" lon="4.75806">
        <ele>174</ele>
        <time>2018-06-01T10:44:42Z</time>
      </trkpt>
      <trkpt lat="45.92263" lon="4.758">
        <ele>174</ele>
        <time>2018-06-01T10:44:43Z</time>
      </trkpt>
      <trkpt lat="45.9226" lon="4.75792">
        <ele>174</ele>
        <time>2018-06-01T10:44:44Z</time>
      </trkpt>
      <trkpt lat="45.92258" lon="4.75785">
        <ele>174</ele>
        <time>2018-06-01T10:44:45Z</time>
      </trkpt>
      <trkpt lat="45.92256" lon="4.75779">
        <ele>174</ele>
        <time>2018-06-01T10:44:46Z</time>
      </trkpt>
      <trkpt lat="45.92256" lon="4.75771">
        <ele>174</ele>
        <time>2018-06-01T10:44:47Z</time>
      </trkpt>
      <trkpt lat="45.92254" lon="4.75765">
        <ele>174</ele>
        <time>2018-06-01T10:44:48Z</time>
      </trkpt>
      <trkpt lat="45.92254" lon="4.75758">
        <ele>174</ele>
        <time>2018-06-01T10:44:49Z</time>
      </trkpt>
      <trkpt lat="45.92253" lon="4.7575">
        <ele>174</ele>
        <time>2018-06-01T10:44:50Z</time>
      </trkpt>
      <trkpt lat="45.92251" lon="4.7574">
        <ele>174</ele>
        <time>2018-06-01T10:44:51Z</time>
      </trkpt>
      <trkpt lat="45.92249" lon="4.75732">
        <ele>174</ele>
        <time>2018-06-01T10:44:52Z</time>
      </trkpt>
      <trkpt lat="45.92246" lon="4.75723">
        <ele>174</ele>
        <time>2018-06-01T10:44:53Z</time>
      </trkpt>
      <trkpt lat="45.92244" lon="4.75715">
        <ele>174</ele>
        <time>2018-06-01T10:44:54Z</time>
      </trkpt>
      <trkpt lat="45.92241" lon="4.75707">
        <ele>174</ele>
        <time>2018-06-01T10:44:55Z</time>
      </trkpt>
      <trkpt lat="45.92237" lon="4.757">
        <ele>174</ele>
        <time>2018-06-01T10:44:56Z</time>
      </trkpt>
      <trkpt lat="45.92232" lon="4.75694">
        <ele>174</ele>
        <time>2018-06-01T10:44:57Z</time>
      </trkpt>
      <trkpt lat="45.92228" lon="4.75688">
        <ele>174</ele>
        <time>2018-06-01T10:44:58Z</time>
      </trkpt>
      <trkpt lat="45.92223" lon="4.75684">
        <ele>174</ele>
        <time>2018-06-01T10:44:59Z</time>
      </trkpt>
      <trkpt lat="45.92218" lon="4.75681">
        <ele>174</ele>
        <time>2018-06-01T10:45:00Z</time>
      </trkpt>
      <trkpt lat="45.92213" lon="4.75677">
        <ele>174</ele>
        <time>2018-06-01T10:45:01Z</time>
      </trkpt>
      <trkpt lat="45.92208" lon="4.75673">
        <ele>174</ele>
        <time>2018-06-01T10:45:02Z</time>
      </trkpt>
      <trkpt lat="45.92204" lon="4.75668">
        <ele>174</ele>
        <time>2018-06-01T10:45:03Z</time>
      </trkpt>
      <trkpt lat="45.92199" lon="4.75664">
        <ele>174</ele>
        <time>2018-06-01T10:45:04Z</time>
      </trkpt>
      <trkpt lat="45.92194" lon="4.7566">
        <ele>174</ele>
        <time>2018-06-01T10:45:05Z</time>
      </trkpt>
      <trkpt lat="45.9219" lon="4.75654">
        <ele>174</ele>
        <time>2018-06-01T10:45:06Z</time>
      </trkpt>
      <trkpt lat="45.92185" lon="4.75649">
        <ele>174</ele>
        <time>2018-06-01T10:45:07Z</time>
      </trkpt>
      <trkpt lat="45.9218" lon="4.75644">
        <ele>174</ele>
        <time>2018-06-01T10:45:08Z</time>
      </trkpt>
      <trkpt lat="45.92174" lon="4.75639">
        <ele>174</ele>
        <time>2018-06-01T10:45:09Z</time>
      </trkpt>
      <trkpt lat="45.92169" lon="4.75634">
        <ele>174</ele>
        <time>2018-06-01T10:45:10Z</time>
      </trkpt>
      <trkpt lat="45.92164" lon="4.75628">
        <ele>174</ele>
        <time>2018-06-01T10:45:11Z</time>
      </trkpt>
      <trkpt lat="45.92159" lon="4.75623">
        <ele>174</ele>
        <time>2018-06-01T10:45:12Z</time>
      </trkpt>
      <trkpt lat="45.92154" lon="4.75618">
        <ele>174</ele>
        <time>2018-06-01T10:45:13Z</time>
      </trkpt>
      <trkpt lat="45.92149" lon="4.75613">
        <ele>174</ele>
        <time>2018-06-01T10:45:14Z</time>
      </trkpt>
      <trkpt lat="45.92144" lon="4.75609">
        <ele>174</ele>
        <time>2018-06-01T10:45:15Z</time>
      </trkpt>
      <trkpt lat="45.9214" lon="4.75605">
        <ele>174</ele>
        <time>2018-06-01T10:45:16Z</time>
      </trkpt>
      <trkpt lat="45.92136" lon="4.756">
        <ele>174</ele>
        <time>2018-06-01T10:45:17Z</time>
      </trkpt>
      <trkpt lat="45.92131" lon="4.75596">
        <ele>174</ele>
        <time>2018-06-01T10:45:18Z</time>
      </trkpt>
      <trkpt lat="45.92127" lon="4.75591">
        <ele>174</ele>
        <time>2018-06-01T10:45:19Z</time>
      </trkpt>
      <trkpt lat="45.92123" lon="4.75587">
        <ele>174</ele>
        <time>2018-06-01T10:45:20Z</time>
      </trkpt>
      <trkpt lat="45.9212" lon="4.75583">
        <ele>174</ele>
        <time>2018-06-01T10:45:21Z</time>
      </trkpt>
      <trkpt lat="45.92117" lon="4.75572">
        <ele>174</ele>
        <time>2018-06-01T10:45:26Z</time>
      </trkpt>
      <trkpt lat="45.92118" lon="4.75569">
        <ele>174</ele>
        <time>2018-06-01T10:45:27Z</time>
      </trkpt>
      <trkpt lat="45.92121" lon="4.75558">
        <ele>174</ele>
        <time>2018-06-01T10:45:28Z</time>
      </trkpt>
      <trkpt lat="45.92122" lon="4.75556">
        <ele>174</ele>
        <time>2018-06-01T10:45:29Z</time>
      </trkpt>
      <trkpt lat="45.92125" lon="4.75549">
        <ele>174</ele>
        <time>2018-06-01T10:45:30Z</time>
      </trkpt>
      <trkpt lat="45.92128" lon="4.75545">
        <ele>174</ele>
        <time>2018-06-01T10:45:31Z</time>
      </trkpt>
      <trkpt lat="45.92133" lon="4.75535">
        <ele>174</ele>
        <time>2018-06-01T10:45:33Z</time>
      </trkpt>
      <trkpt lat="45.92136" lon="4.7553">
        <ele>174</ele>
        <time>2018-06-01T10:45:34Z</time>
      </trkpt>
      <trkpt lat="45.92142" lon="4.75521">
        <ele>174</ele>
        <time>2018-06-01T10:45:36Z</time>
      </trkpt>
      <trkpt lat="45.92145" lon="4.75513">
        <ele>174</ele>
        <time>2018-06-01T10:45:37Z</time>
      </trkpt>
      <trkpt lat="45.92148" lon="4.75507">
        <ele>175</ele>
        <time>2018-06-01T10:45:38Z</time>
      </trkpt>
      <trkpt lat="45.92149" lon="4.75502">
        <ele>175</ele>
        <time>2018-06-01T10:45:39Z</time>
      </trkpt>
      <trkpt lat="45.92152" lon="4.75494">
        <ele>175</ele>
        <time>2018-06-01T10:45:40Z</time>
      </trkpt>
      <trkpt lat="45.92154" lon="4.75487">
        <ele>176</ele>
        <time>2018-06-01T10:45:41Z</time>
      </trkpt>
      <trkpt lat="45.92157" lon="4.75481">
        <ele>176</ele>
        <time>2018-06-01T10:45:42Z</time>
      </trkpt>
      <trkpt lat="45.92159" lon="4.75473">
        <ele>176</ele>
        <time>2018-06-01T10:45:43Z</time>
      </trkpt>
      <trkpt lat="45.92162" lon="4.75465">
        <ele>176</ele>
        <time>2018-06-01T10:45:44Z</time>
      </trkpt>
      <trkpt lat="45.92165" lon="4.75458">
        <ele>176</ele>
        <time>2018-06-01T10:45:45Z</time>
      </trkpt>
      <trkpt lat="45.92168" lon="4.75452">
        <ele>176</ele>
        <time>2018-06-01T10:45:46Z</time>
      </trkpt>
      <trkpt lat="45.92171" lon="4.75445">
        <ele>176</ele>
        <time>2018-06-01T10:45:47Z</time>
      </trkpt>
      <trkpt lat="45.92173" lon="4.75439">
        <ele>177</ele>
        <time>2018-06-01T10:45:48Z</time>
      </trkpt>
      <trkpt lat="45.92176" lon="4.75431">
        <ele>177</ele>
        <time>2018-06-01T10:45:49Z</time>
      </trkpt>
      <trkpt lat="45.9218" lon="4.75425">
        <ele>177</ele>
        <time>2018-06-01T10:45:50Z</time>
      </trkpt>
      <trkpt lat="45.92183" lon="4.75418">
        <ele>177</ele>
        <time>2018-06-01T10:45:51Z</time>
      </trkpt>
      <trkpt lat="45.92186" lon="4.75412">
        <ele>177</ele>
        <time>2018-06-01T10:45:52Z</time>
      </trkpt>
      <trkpt lat="45.92188" lon="4.75405">
        <ele>177</ele>
        <time>2018-06-01T10:45:53Z</time>
      </trkpt>
      <trkpt lat="45.9219" lon="4.75392">
        <ele>177</ele>
        <time>2018-06-01T10:45:55Z</time>
      </trkpt>
      <trkpt lat="45.92193" lon="4.75386">
        <ele>177</ele>
        <time>2018-06-01T10:45:56Z</time>
      </trkpt>
      <trkpt lat="45.92194" lon="4.7538">
        <ele>177</ele>
        <time>2018-06-01T10:45:57Z</time>
      </trkpt>
      <trkpt lat="45.92198" lon="4.75374">
        <ele>177</ele>
        <time>2018-06-01T10:45:58Z</time>
      </trkpt>
      <trkpt lat="45.92201" lon="4.75368">
        <ele>177</ele>
        <time>2018-06-01T10:45:59Z</time>
      </trkpt>
      <trkpt lat="45.92205" lon="4.75363">
        <ele>177</ele>
        <time>2018-06-01T10:46:00Z</time>
      </trkpt>
      <trkpt lat="45.92207" lon="4.75355">
        <ele>177</ele>
        <time>2018-06-01T10:46:01Z</time>
      </trkpt>
      <trkpt lat="45.92209" lon="4.75348">
        <ele>177</ele>
        <time>2018-06-01T10:46:02Z</time>
      </trkpt>
      <trkpt lat="45.92211" lon="4.75341">
        <ele>177</ele>
        <time>2018-06-01T10:46:03Z</time>
      </trkpt>
      <trkpt lat="45.92212" lon="4.75333">
        <ele>176</ele>
        <time>2018-06-01T10:46:04Z</time>
      </trkpt>
      <trkpt lat="45.92213" lon="4.75324">
        <ele>176</ele>
        <time>2018-06-01T10:46:05Z</time>
      </trkpt>
      <trkpt lat="45.92215" lon="4.75316">
        <ele>176</ele>
        <time>2018-06-01T10:46:06Z</time>
      </trkpt>
      <trkpt lat="45.92215" lon="4.75306">
        <ele>176</ele>
        <time>2018-06-01T10:46:07Z</time>
      </trkpt>
      <trkpt lat="45.92216" lon="4.75297">
        <ele>176</ele>
        <time>2018-06-01T10:46:08Z</time>
      </trkpt>
      <trkpt lat="45.92215" lon="4.75287">
        <ele>176</ele>
        <time>2018-06-01T10:46:09Z</time>
      </trkpt>
      <trkpt lat="45.92215" lon="4.75278">
        <ele>176</ele>
        <time>2018-06-01T10:46:10Z</time>
      </trkpt>
      <trkpt lat="45.92216" lon="4.75268">
        <ele>176</ele>
        <time>2018-06-01T10:46:11Z</time>
      </trkpt>
      <trkpt lat="45.92216" lon="4.75258">
        <ele>175</ele>
        <time>2018-06-01T10:46:12Z</time>
      </trkpt>
      <trkpt lat="45.92217" lon="4.7525">
        <ele>175</ele>
        <time>2018-06-01T10:46:13Z</time>
      </trkpt>
      <trkpt lat="45.92218" lon="4.75239">
        <ele>175</ele>
        <time>2018-06-01T10:46:14Z</time>
      </trkpt>
      <trkpt lat="45.92219" lon="4.75231">
        <ele>175</ele>
        <time>2018-06-01T10:46:15Z</time>
      </trkpt>
      <trkpt lat="45.92219" lon="4.75221">
        <ele>175</ele>
        <time>2018-06-01T10:46:16Z</time>
      </trkpt>
      <trkpt lat="45.92218" lon="4.75211">
        <ele>175</ele>
        <time>2018-06-01T10:46:17Z</time>
      </trkpt>
      <trkpt lat="45.9222" lon="4.752">
        <ele>175</ele>
        <time>2018-06-01T10:46:18Z</time>
      </trkpt>
      <trkpt lat="45.92221" lon="4.75191">
        <ele>175</ele>
        <time>2018-06-01T10:46:19Z</time>
      </trkpt>
      <trkpt lat="45.92224" lon="4.75181">
        <ele>175</ele>
        <time>2018-06-01T10:46:20Z</time>
      </trkpt>
      <trkpt lat="45.92228" lon="4.75171">
        <ele>175</ele>
        <time>2018-06-01T10:46:21Z</time>
      </trkpt>
      <trkpt lat="45.92232" lon="4.75163">
        <ele>174</ele>
        <time>2018-06-01T10:46:22Z</time>
      </trkpt>
      <trkpt lat="45.92236" lon="4.75155">
        <ele>174</ele>
        <time>2018-06-01T10:46:23Z</time>
      </trkpt>
      <trkpt lat="45.9224" lon="4.75147">
        <ele>174</ele>
        <time>2018-06-01T10:46:24Z</time>
      </trkpt>
      <trkpt lat="45.92243" lon="4.75139">
        <ele>174</ele>
        <time>2018-06-01T10:46:25Z</time>
      </trkpt>
      <trkpt lat="45.92248" lon="4.75132">
        <ele>174</ele>
        <time>2018-06-01T10:46:26Z</time>
      </trkpt>
      <trkpt lat="45.92253" lon="4.75126">
        <ele>174</ele>
        <time>2018-06-01T10:46:27Z</time>
      </trkpt>
      <trkpt lat="45.92258" lon="4.7512">
        <ele>174</ele>
        <time>2018-06-01T10:46:28Z</time>
      </trkpt>
      <trkpt lat="45.92264" lon="4.75114">
        <ele>174</ele>
        <time>2018-06-01T10:46:29Z</time>
      </trkpt>
      <trkpt lat="45.9227" lon="4.75109">
        <ele>174</ele>
        <time>2018-06-01T10:46:30Z</time>
      </trkpt>
      <trkpt lat="45.92275" lon="4.75104">
        <ele>173</ele>
        <time>2018-06-01T10:46:31Z</time>
      </trkpt>
      <trkpt lat="45.9228" lon="4.75098">
        <ele>173</ele>
        <time>2018-06-01T10:46:32Z</time>
      </trkpt>
      <trkpt lat="45.92285" lon="4.75092">
        <ele>173</ele>
        <time>2018-06-01T10:46:33Z</time>
      </trkpt>
      <trkpt lat="45.92288" lon="4.75084">
        <ele>173</ele>
        <time>2018-06-01T10:46:34Z</time>
      </trkpt>
      <trkpt lat="45.92294" lon="4.75079">
        <ele>172</ele>
        <time>2018-06-01T10:46:35Z</time>
      </trkpt>
      <trkpt lat="45.92299" lon="4.75073">
        <ele>172</ele>
        <time>2018-06-01T10:46:36Z</time>
      </trkpt>
      <trkpt lat="45.92305" lon="4.75065">
        <ele>172</ele>
        <time>2018-06-01T10:46:37Z</time>
      </trkpt>
      <trkpt lat="45.9231" lon="4.75057">
        <ele>172</ele>
        <time>2018-06-01T10:46:38Z</time>
      </trkpt>
      <trkpt lat="45.92316" lon="4.75053">
        <ele>172</ele>
        <time>2018-06-01T10:46:39Z</time>
      </trkpt>
      <trkpt lat="45.92322" lon="4.75045">
        <ele>172</ele>
        <time>2018-06-01T10:46:40Z</time>
      </trkpt>
      <trkpt lat="45.92327" lon="4.75039">
        <ele>171</ele>
        <time>2018-06-01T10:46:41Z</time>
      </trkpt>
      <trkpt lat="45.92332" lon="4.7503">
        <ele>171</ele>
        <time>2018-06-01T10:46:42Z</time>
      </trkpt>
      <trkpt lat="45.92337" lon="4.75021">
        <ele>170</ele>
        <time>2018-06-01T10:46:43Z</time>
      </trkpt>
      <trkpt lat="45.92341" lon="4.75011">
        <ele>170</ele>
        <time>2018-06-01T10:46:44Z</time>
      </trkpt>
      <trkpt lat="45.92345" lon="4.75002">
        <ele>170</ele>
        <time>2018-06-01T10:46:45Z</time>
      </trkpt>
      <trkpt lat="45.92348" lon="4.74993">
        <ele>170</ele>
        <time>2018-06-01T10:46:46Z</time>
      </trkpt>
      <trkpt lat="45.92352" lon="4.74984">
        <ele>170</ele>
        <time>2018-06-01T10:46:47Z</time>
      </trkpt>
      <trkpt lat="45.92355" lon="4.74977">
        <ele>170</ele>
        <time>2018-06-01T10:46:48Z</time>
      </trkpt>
      <trkpt lat="45.92358" lon="4.74969">
        <ele>170</ele>
        <time>2018-06-01T10:46:49Z</time>
      </trkpt>
      <trkpt lat="45.92361" lon="4.74961">
        <ele>170</ele>
        <time>2018-06-01T10:46:50Z</time>
      </trkpt>
      <trkpt lat="45.92363" lon="4.74952">
        <ele>170</ele>
        <time>2018-06-01T10:46:51Z</time>
      </trkpt>
      <trkpt lat="45.92366" lon="4.74944">
        <ele>170</ele>
        <time>2018-06-01T10:46:52Z</time>
      </trkpt>
      <trkpt lat="45.9237" lon="4.74937">
        <ele>170</ele>
        <time>2018-06-01T10:46:53Z</time>
      </trkpt>
      <trkpt lat="45.92372" lon="4.7493">
        <ele>170</ele>
        <time>2018-06-01T10:46:54Z</time>
      </trkpt>
      <trkpt lat="45.92376" lon="4.74921">
        <ele>170</ele>
        <time>2018-06-01T10:46:55Z</time>
      </trkpt>
      <trkpt lat="45.92378" lon="4.74913">
        <ele>171</ele>
        <time>2018-06-01T10:46:56Z</time>
      </trkpt>
      <trkpt lat="45.92382" lon="4.74902">
        <ele>171</ele>
        <time>2018-06-01T10:46:57Z</time>
      </trkpt>
      <trkpt lat="45.92385" lon="4.74894">
        <ele>171</ele>
        <time>2018-06-01T10:46:58Z</time>
      </trkpt>
      <trkpt lat="45.9239" lon="4.74887">
        <ele>171</ele>
        <time>2018-06-01T10:46:59Z</time>
      </trkpt>
      <trkpt lat="45.92394" lon="4.74878">
        <ele>171</ele>
        <time>2018-06-01T10:47:00Z</time>
      </trkpt>
      <trkpt lat="45.92397" lon="4.74869">
        <ele>171</ele>
        <time>2018-06-01T10:47:01Z</time>
      </trkpt>
      <trkpt lat="45.924" lon="4.74861">
        <ele>171</ele>
        <time>2018-06-01T10:47:02Z</time>
      </trkpt>
      <trkpt lat="45.924" lon="4.74851">
        <ele>171</ele>
        <time>2018-06-01T10:47:03Z</time>
      </trkpt>
      <trkpt lat="45.92403" lon="4.74842">
        <ele>171</ele>
        <time>2018-06-01T10:47:04Z</time>
      </trkpt>
      <trkpt lat="45.92406" lon="4.74834">
        <ele>171</ele>
        <time>2018-06-01T10:47:05Z</time>
      </trkpt>
      <trkpt lat="45.92408" lon="4.74826">
        <ele>171</ele>
        <time>2018-06-01T10:47:06Z</time>
      </trkpt>
      <trkpt lat="45.9241" lon="4.74818">
        <ele>171</ele>
        <time>2018-06-01T10:47:07Z</time>
      </trkpt>
      <trkpt lat="45.92413" lon="4.74808">
        <ele>171</ele>
        <time>2018-06-01T10:47:08Z</time>
      </trkpt>
      <trkpt lat="45.92414" lon="4.74799">
        <ele>171</ele>
        <time>2018-06-01T10:47:09Z</time>
      </trkpt>
      <trkpt lat="45.92416" lon="4.7479">
        <ele>171</ele>
        <time>2018-06-01T10:47:10Z</time>
      </trkpt>
      <trkpt lat="45.92417" lon="4.74781">
        <ele>171</ele>
        <time>2018-06-01T10:47:11Z</time>
      </trkpt>
      <trkpt lat="45.92419" lon="4.74772">
        <ele>171</ele>
        <time>2018-06-01T10:47:12Z</time>
      </trkpt>
      <trkpt lat="45.92421" lon="4.74763">
        <ele>171</ele>
        <time>2018-06-01T10:47:13Z</time>
      </trkpt>
      <trkpt lat="45.92423" lon="4.74754">
        <ele>172</ele>
        <time>2018-06-01T10:47:14Z</time>
      </trkpt>
      <trkpt lat="45.92426" lon="4.74748">
        <ele>172</ele>
        <time>2018-06-01T10:47:15Z</time>
      </trkpt>
      <trkpt lat="45.92429" lon="4.7474">
        <ele>171</ele>
        <time>2018-06-01T10:47:16Z</time>
      </trkpt>
      <trkpt lat="45.92432" lon="4.74732">
        <ele>171</ele>
        <time>2018-06-01T10:47:17Z</time>
      </trkpt>
      <trkpt lat="45.92434" lon="4.74725">
        <ele>171</ele>
        <time>2018-06-01T10:47:18Z</time>
      </trkpt>
      <trkpt lat="45.92435" lon="4.74712">
        <ele>171</ele>
        <time>2018-06-01T10:47:20Z</time>
      </trkpt>
      <trkpt lat="45.92436" lon="4.74704">
        <ele>171</ele>
        <time>2018-06-01T10:47:21Z</time>
      </trkpt>
      <trkpt lat="45.9244" lon="4.74698">
        <ele>171</ele>
        <time>2018-06-01T10:47:22Z</time>
      </trkpt>
      <trkpt lat="45.92443" lon="4.74691">
        <ele>171</ele>
        <time>2018-06-01T10:47:23Z</time>
      </trkpt>
      <trkpt lat="45.92446" lon="4.74685">
        <ele>171</ele>
        <time>2018-06-01T10:47:24Z</time>
      </trkpt>
      <trkpt lat="45.9245" lon="4.74679">
        <ele>171</ele>
        <time>2018-06-01T10:47:25Z</time>
      </trkpt>
      <trkpt lat="45.92456" lon="4.74672">
        <ele>171</ele>
        <time>2018-06-01T10:47:26Z</time>
      </trkpt>
      <trkpt lat="45.9246" lon="4.74667">
        <ele>171</ele>
        <time>2018-06-01T10:47:27Z</time>
      </trkpt>
      <trkpt lat="45.92464" lon="4.7466">
        <ele>171</ele>
        <time>2018-06-01T10:47:28Z</time>
      </trkpt>
      <trkpt lat="45.92468" lon="4.74654">
        <ele>171</ele>
        <time>2018-06-01T10:47:29Z</time>
      </trkpt>
      <trkpt lat="45.92473" lon="4.74648">
        <ele>171</ele>
        <time>2018-06-01T10:47:30Z</time>
      </trkpt>
      <trkpt lat="45.92474" lon="4.7464">
        <ele>171</ele>
        <time>2018-06-01T10:47:31Z</time>
      </trkpt>
      <trkpt lat="45.92478" lon="4.74631">
        <ele>171</ele>
        <time>2018-06-01T10:47:32Z</time>
      </trkpt>
      <trkpt lat="45.92483" lon="4.74625">
        <ele>171</ele>
        <time>2018-06-01T10:47:33Z</time>
      </trkpt>
      <trkpt lat="45.92491" lon="4.74622">
        <ele>171</ele>
        <time>2018-06-01T10:47:34Z</time>
      </trkpt>
      <trkpt lat="45.92495" lon="4.74615">
        <ele>171</ele>
        <time>2018-06-01T10:47:35Z</time>
      </trkpt>
      <trkpt lat="45.92498" lon="4.74609">
        <ele>171</ele>
        <time>2018-06-01T10:47:36Z</time>
      </trkpt>
      <trkpt lat="45.92503" lon="4.74602">
        <ele>171</ele>
        <time>2018-06-01T10:47:37Z</time>
      </trkpt>
      <trkpt lat="45.92507" lon="4.74597">
        <ele>171</ele>
        <time>2018-06-01T10:47:38Z</time>
      </trkpt>
      <trkpt lat="45.92512" lon="4.74591">
        <ele>171</ele>
        <time>2018-06-01T10:47:39Z</time>
      </trkpt>
      <trkpt lat="45.92517" lon="4.74586">
        <ele>171</ele>
        <time>2018-06-01T10:47:40Z</time>
      </trkpt>
      <trkpt lat="45.92522" lon="4.7458">
        <ele>171</ele>
        <time>2018-06-01T10:47:41Z</time>
      </trkpt>
      <trkpt lat="45.92527" lon="4.74575">
        <ele>171</ele>
        <time>2018-06-01T10:47:42Z</time>
      </trkpt>
      <trkpt lat="45.92532" lon="4.74566">
        <ele>171</ele>
        <time>2018-06-01T10:47:43Z</time>
      </trkpt>
      <trkpt lat="45.92537" lon="4.74559">
        <ele>171</ele>
        <time>2018-06-01T10:47:44Z</time>
      </trkpt>
      <trkpt lat="45.92542" lon="4.74552">
        <ele>171</ele>
        <time>2018-06-01T10:47:45Z</time>
      </trkpt>
      <trkpt lat="45.92546" lon="4.74546">
        <ele>170</ele>
        <time>2018-06-01T10:47:46Z</time>
      </trkpt>
      <trkpt lat="45.92551" lon="4.7454">
        <ele>170</ele>
        <time>2018-06-01T10:47:47Z</time>
      </trkpt>
      <trkpt lat="45.92555" lon="4.74534">
        <ele>170</ele>
        <time>2018-06-01T10:47:48Z</time>
      </trkpt>
      <trkpt lat="45.92558" lon="4.74526">
        <ele>170</ele>
        <time>2018-06-01T10:47:49Z</time>
      </trkpt>
      <trkpt lat="45.92563" lon="4.7452">
        <ele>170</ele>
        <time>2018-06-01T10:47:50Z</time>
      </trkpt>
      <trkpt lat="45.92566" lon="4.74513">
        <ele>170</ele>
        <time>2018-06-01T10:47:51Z</time>
      </trkpt>
      <trkpt lat="45.9257" lon="4.74504">
        <ele>170</ele>
        <time>2018-06-01T10:47:52Z</time>
      </trkpt>
      <trkpt lat="45.92575" lon="4.74497">
        <ele>170</ele>
        <time>2018-06-01T10:47:53Z</time>
      </trkpt>
      <trkpt lat="45.92579" lon="4.74489">
        <ele>170</ele>
        <time>2018-06-01T10:47:54Z</time>
      </trkpt>
      <trkpt lat="45.92583" lon="4.74481">
        <ele>170</ele>
        <time>2018-06-01T10:47:55Z</time>
      </trkpt>
      <trkpt lat="45.92585" lon="4.74474">
        <ele>170</ele>
        <time>2018-06-01T10:47:56Z</time>
      </trkpt>
      <trkpt lat="45.92589" lon="4.74466">
        <ele>170</ele>
        <time>2018-06-01T10:47:57Z</time>
      </trkpt>
      <trkpt lat="45.9259" lon="4.74458">
        <ele>170</ele>
        <time>2018-06-01T10:47:58Z</time>
      </trkpt>
      <trkpt lat="45.92594" lon="4.74452">
        <ele>170</ele>
        <time>2018-06-01T10:47:59Z</time>
      </trkpt>
      <trkpt lat="45.92598" lon="4.74444">
        <ele>170</ele>
        <time>2018-06-01T10:48:00Z</time>
      </trkpt>
      <trkpt lat="45.92602" lon="4.74436">
        <ele>170</ele>
        <time>2018-06-01T10:48:01Z</time>
      </trkpt>
      <trkpt lat="45.92606" lon="4.7443">
        <ele>170</ele>
        <time>2018-06-01T10:48:02Z</time>
      </trkpt>
      <trkpt lat="45.9261" lon="4.74423">
        <ele>170</ele>
        <time>2018-06-01T10:48:03Z</time>
      </trkpt>
      <trkpt lat="45.92614" lon="4.74416">
        <ele>170</ele>
        <time>2018-06-01T10:48:04Z</time>
      </trkpt>
      <trkpt lat="45.92618" lon="4.74407">
        <ele>170</ele>
        <time>2018-06-01T10:48:05Z</time>
      </trkpt>
      <trkpt lat="45.92622" lon="4.744">
        <ele>170</ele>
        <time>2018-06-01T10:48:06Z</time>
      </trkpt>
      <trkpt lat="45.92626" lon="4.74392">
        <ele>170</ele>
        <time>2018-06-01T10:48:07Z</time>
      </trkpt>
      <trkpt lat="45.92628" lon="4.74386">
        <ele>170</ele>
        <time>2018-06-01T10:48:08Z</time>
      </trkpt>
      <trkpt lat="45.92632" lon="4.74378">
        <ele>170</ele>
        <time>2018-06-01T10:48:09Z</time>
      </trkpt>
      <trkpt lat="45.92635" lon="4.74373">
        <ele>171</ele>
        <time>2018-06-01T10:48:10Z</time>
      </trkpt>
      <trkpt lat="45.92639" lon="4.74365">
        <ele>171</ele>
        <time>2018-06-01T10:48:11Z</time>
      </trkpt>
      <trkpt lat="45.92643" lon="4.74357">
        <ele>171</ele>
        <time>2018-06-01T10:48:12Z</time>
      </trkpt>
      <trkpt lat="45.92646" lon="4.74352">
        <ele>171</ele>
        <time>2018-06-01T10:48:13Z</time>
      </trkpt>
      <trkpt lat="45.92649" lon="4.74345">
        <ele>171</ele>
        <time>2018-06-01T10:48:14Z</time>
      </trkpt>
      <trkpt lat="45.92652" lon="4.74337">
        <ele>171</ele>
        <time>2018-06-01T10:48:15Z</time>
      </trkpt>
      <trkpt lat="45.92656" lon="4.74331">
        <ele>171</ele>
        <time>2018-06-01T10:48:16Z</time>
      </trkpt>
      <trkpt lat="45.92659" lon="4.74325">
        <ele>171</ele>
        <time>2018-06-01T10:48:17Z</time>
      </trkpt>
      <trkpt lat="45.92664" lon="4.74319">
        <ele>171</ele>
        <time>2018-06-01T10:48:18Z</time>
      </trkpt>
      <trkpt lat="45.92668" lon="4.74312">
        <ele>171</ele>
        <time>2018-06-01T10:48:19Z</time>
      </trkpt>
      <trkpt lat="45.92672" lon="4.74304">
        <ele>171</ele>
        <time>2018-06-01T10:48:20Z</time>
      </trkpt>
      <trkpt lat="45.92676" lon="4.74299">
        <ele>171</ele>
        <time>2018-06-01T10:48:21Z</time>
      </trkpt>
      <trkpt lat="45.9268" lon="4.74292">
        <ele>171</ele>
        <time>2018-06-01T10:48:22Z</time>
      </trkpt>
      <trkpt lat="45.92682" lon="4.74285">
        <ele>171</ele>
        <time>2018-06-01T10:48:23Z</time>
      </trkpt>
      <trkpt lat="45.92685" lon="4.74278">
        <ele>171</ele>
        <time>2018-06-01T10:48:24Z</time>
      </trkpt>
      <trkpt lat="45.92689" lon="4.74271">
        <ele>171</ele>
        <time>2018-06-01T10:48:25Z</time>
      </trkpt>
      <trkpt lat="45.92693" lon="4.74265">
        <ele>171</ele>
        <time>2018-06-01T10:48:26Z</time>
      </trkpt>
      <trkpt lat="45.92696" lon="4.7426">
        <ele>171</ele>
        <time>2018-06-01T10:48:27Z</time>
      </trkpt>
      <trkpt lat="45.92701" lon="4.74254">
        <ele>171</ele>
        <time>2018-06-01T10:48:28Z</time>
      </trkpt>
      <trkpt lat="45.92705" lon="4.74248">
        <ele>171</ele>
        <time>2018-06-01T10:48:29Z</time>
      </trkpt>
      <trkpt lat="45.92709" lon="4.74242">
        <ele>171</ele>
        <time>2018-06-01T10:48:30Z</time>
      </trkpt>
      <trkpt lat="45.92715" lon="4.74233">
        <ele>171</ele>
        <time>2018-06-01T10:48:31Z</time>
      </trkpt>
      <trkpt lat="45.92719" lon="4.74227">
        <ele>171</ele>
        <time>2018-06-01T10:48:32Z</time>
      </trkpt>
      <trkpt lat="45.92724" lon="4.74221">
        <ele>171</ele>
        <time>2018-06-01T10:48:33Z</time>
      </trkpt>
      <trkpt lat="45.92728" lon="4.74215">
        <ele>171</ele>
        <time>2018-06-01T10:48:34Z</time>
      </trkpt>
      <trkpt lat="45.92732" lon="4.74207">
        <ele>171</ele>
        <time>2018-06-01T10:48:35Z</time>
      </trkpt>
      <trkpt lat="45.92736" lon="4.74202">
        <ele>171</ele>
        <time>2018-06-01T10:48:36Z</time>
      </trkpt>
      <trkpt lat="45.9274" lon="4.74196">
        <ele>171</ele>
        <time>2018-06-01T10:48:37Z</time>
      </trkpt>
      <trkpt lat="45.92745" lon="4.7419">
        <ele>172</ele>
        <time>2018-06-01T10:48:38Z</time>
      </trkpt>
      <trkpt lat="45.92751" lon="4.74184">
        <ele>172</ele>
        <time>2018-06-01T10:48:39Z</time>
      </trkpt>
      <trkpt lat="45.92756" lon="4.74178">
        <ele>172</ele>
        <time>2018-06-01T10:48:40Z</time>
      </trkpt>
      <trkpt lat="45.92761" lon="4.74172">
        <ele>172</ele>
        <time>2018-06-01T10:48:41Z</time>
      </trkpt>
      <trkpt lat="45.92766" lon="4.74167">
        <ele>172</ele>
        <time>2018-06-01T10:48:42Z</time>
      </trkpt>
      <trkpt lat="45.92772" lon="4.74161">
        <ele>172</ele>
        <time>2018-06-01T10:48:43Z</time>
      </trkpt>
      <trkpt lat="45.92777" lon="4.74156">
        <ele>172</ele>
        <time>2018-06-01T10:48:44Z</time>
      </trkpt>
      <trkpt lat="45.92782" lon="4.74151">
        <ele>172</ele>
        <time>2018-06-01T10:48:45Z</time>
      </trkpt>
      <trkpt lat="45.92788" lon="4.74146">
        <ele>172</ele>
        <time>2018-06-01T10:48:46Z</time>
      </trkpt>
      <trkpt lat="45.92794" lon="4.74141">
        <ele>172</ele>
        <time>2018-06-01T10:48:47Z</time>
      </trkpt>
      <trkpt lat="45.92799" lon="4.74137">
        <ele>172</ele>
        <time>2018-06-01T10:48:48Z</time>
      </trkpt>
      <trkpt lat="45.92804" lon="4.74132">
        <ele>172</ele>
        <time>2018-06-01T10:48:49Z</time>
      </trkpt>
      <trkpt lat="45.92808" lon="4.74126">
        <ele>172</ele>
        <time>2018-06-01T10:48:50Z</time>
      </trkpt>
      <trkpt lat="45.92814" lon="4.74121">
        <ele>172</ele>
        <time>2018-06-01T10:48:51Z</time>
      </trkpt>
      <trkpt lat="45.92819" lon="4.74114">
        <ele>172</ele>
        <time>2018-06-01T10:48:52Z</time>
      </trkpt>
      <trkpt lat="45.92824" lon="4.74109">
        <ele>171</ele>
        <time>2018-06-01T10:48:53Z</time>
      </trkpt>
      <trkpt lat="45.9283" lon="4.74104">
        <ele>171</ele>
        <time>2018-06-01T10:48:54Z</time>
      </trkpt>
      <trkpt lat="45.92836" lon="4.74096">
        <ele>171</ele>
        <time>2018-06-01T10:48:55Z</time>
      </trkpt>
      <trkpt lat="45.92841" lon="4.7409">
        <ele>171</ele>
        <time>2018-06-01T10:48:56Z</time>
      </trkpt>
      <trkpt lat="45.92847" lon="4.74083">
        <ele>171</ele>
        <time>2018-06-01T10:48:57Z</time>
      </trkpt>
      <trkpt lat="45.92852" lon="4.74078">
        <ele>172</ele>
        <time>2018-06-01T10:48:58Z</time>
      </trkpt>
      <trkpt lat="45.92858" lon="4.74071">
        <ele>172</ele>
        <time>2018-06-01T10:48:59Z</time>
      </trkpt>
      <trkpt lat="45.92865" lon="4.74063">
        <ele>172</ele>
        <time>2018-06-01T10:49:00Z</time>
      </trkpt>
      <trkpt lat="45.92869" lon="4.74058">
        <ele>172</ele>
        <time>2018-06-01T10:49:01Z</time>
      </trkpt>
      <trkpt lat="45.92875" lon="4.74052">
        <ele>172</ele>
        <time>2018-06-01T10:49:02Z</time>
      </trkpt>
      <trkpt lat="45.92881" lon="4.74049">
        <ele>172</ele>
        <time>2018-06-01T10:49:03Z</time>
      </trkpt>
      <trkpt lat="45.92887" lon="4.74046">
        <ele>172</ele>
        <time>2018-06-01T10:49:04Z</time>
      </trkpt>
      <trkpt lat="45.92893" lon="4.74045">
        <ele>172</ele>
        <time>2018-06-01T10:49:05Z</time>
      </trkpt>
      <trkpt lat="45.92899" lon="4.74047">
        <ele>172</ele>
        <time>2018-06-01T10:49:06Z</time>
      </trkpt>
      <trkpt lat="45.92905" lon="4.74047">
        <ele>172</ele>
        <time>2018-06-01T10:49:07Z</time>
      </trkpt>
      <trkpt lat="45.9291" lon="4.74047">
        <ele>172</ele>
        <time>2018-06-01T10:49:08Z</time>
      </trkpt>
      <trkpt lat="45.92917" lon="4.74042">
        <ele>172</ele>
        <time>2018-06-01T10:49:09Z</time>
      </trkpt>
      <trkpt lat="45.92922" lon="4.74034">
        <ele>172</ele>
        <time>2018-06-01T10:49:10Z</time>
      </trkpt>
      <trkpt lat="45.92924" lon="4.74026">
        <ele>172</ele>
        <time>2018-06-01T10:49:11Z</time>
      </trkpt>
      <trkpt lat="45.92925" lon="4.74019">
        <ele>172</ele>
        <time>2018-06-01T10:49:12Z</time>
      </trkpt>
      <trkpt lat="45.92926" lon="4.74012">
        <ele>172</ele>
        <time>2018-06-01T10:49:13Z</time>
      </trkpt>
      <trkpt lat="45.92924" lon="4.74004">
        <ele>172</ele>
        <time>2018-06-01T10:49:14Z</time>
      </trkpt>
      <trkpt lat="45.9292" lon="4.73997">
        <ele>172</ele>
        <time>2018-06-01T10:49:15Z</time>
      </trkpt>
      <trkpt lat="45.92915" lon="4.7399">
        <ele>172</ele>
        <time>2018-06-01T10:49:16Z</time>
      </trkpt>
      <trkpt lat="45.9291" lon="4.73985">
        <ele>172</ele>
        <time>2018-06-01T10:49:17Z</time>
      </trkpt>
      <trkpt lat="45.92904" lon="4.73981">
        <ele>172</ele>
        <time>2018-06-01T10:49:18Z</time>
      </trkpt>
      <trkpt lat="45.92899" lon="4.73976">
        <ele>172</ele>
        <time>2018-06-01T10:49:19Z</time>
      </trkpt>
      <trkpt lat="45.92894" lon="4.7397">
        <ele>172</ele>
        <time>2018-06-01T10:49:20Z</time>
      </trkpt>
      <trkpt lat="45.92891" lon="4.73963">
        <ele>172</ele>
        <time>2018-06-01T10:49:21Z</time>
      </trkpt>
      <trkpt lat="45.92889" lon="4.73953">
        <ele>172</ele>
        <time>2018-06-01T10:49:22Z</time>
      </trkpt>
      <trkpt lat="45.92888" lon="4.73943">
        <ele>172</ele>
        <time>2018-06-01T10:49:23Z</time>
      </trkpt>
      <trkpt lat="45.92888" lon="4.73934">
        <ele>172</ele>
        <time>2018-06-01T10:49:24Z</time>
      </trkpt>
      <trkpt lat="45.92888" lon="4.73923">
        <ele>172</ele>
        <time>2018-06-01T10:49:25Z</time>
      </trkpt>
      <trkpt lat="45.92886" lon="4.73913">
        <ele>173</ele>
        <time>2018-06-01T10:49:26Z</time>
      </trkpt>
      <trkpt lat="45.92884" lon="4.73903">
        <ele>173</ele>
        <time>2018-06-01T10:49:27Z</time>
      </trkpt>
      <trkpt lat="45.92882" lon="4.73892">
        <ele>173</ele>
        <time>2018-06-01T10:49:28Z</time>
      </trkpt>
      <trkpt lat="45.92881" lon="4.73882">
        <ele>173</ele>
        <time>2018-06-01T10:49:29Z</time>
      </trkpt>
      <trkpt lat="45.92878" lon="4.73872">
        <ele>173</ele>
        <time>2018-06-01T10:49:30Z</time>
      </trkpt>
      <trkpt lat="45.92877" lon="4.73861">
        <ele>173</ele>
        <time>2018-06-01T10:49:31Z</time>
      </trkpt>
      <trkpt lat="45.92875" lon="4.7385">
        <ele>173</ele>
        <time>2018-06-01T10:49:32Z</time>
      </trkpt>
      <trkpt lat="45.92872" lon="4.7384">
        <ele>173</ele>
        <time>2018-06-01T10:49:33Z</time>
      </trkpt>
      <trkpt lat="45.92869" lon="4.7383">
        <ele>173</ele>
        <time>2018-06-01T10:49:34Z</time>
      </trkpt>
      <trkpt lat="45.92866" lon="4.73822">
        <ele>173</ele>
        <time>2018-06-01T10:49:35Z</time>
      </trkpt>
      <trkpt lat="45.92862" lon="4.73813">
        <ele>173</ele>
        <time>2018-06-01T10:49:36Z</time>
      </trkpt>
      <trkpt lat="45.92858" lon="4.73804">
        <ele>173</ele>
        <time>2018-06-01T10:49:37Z</time>
      </trkpt>
      <trkpt lat="45.92854" lon="4.73796">
        <ele>173</ele>
        <time>2018-06-01T10:49:38Z</time>
      </trkpt>
      <trkpt lat="45.92848" lon="4.73789">
        <ele>173</ele>
        <time>2018-06-01T10:49:39Z</time>
      </trkpt>
      <trkpt lat="45.92843" lon="4.73785">
        <ele>173</ele>
        <time>2018-06-01T10:49:40Z</time>
      </trkpt>
      <trkpt lat="45.92837" lon="4.73781">
        <ele>173</ele>
        <time>2018-06-01T10:49:41Z</time>
      </trkpt>
      <trkpt lat="45.92832" lon="4.73777">
        <ele>173</ele>
        <time>2018-06-01T10:49:42Z</time>
      </trkpt>
      <trkpt lat="45.92827" lon="4.73773">
        <ele>173</ele>
        <time>2018-06-01T10:49:43Z</time>
      </trkpt>
      <trkpt lat="45.92822" lon="4.73769">
        <ele>173</ele>
        <time>2018-06-01T10:49:44Z</time>
      </trkpt>
      <trkpt lat="45.92817" lon="4.73765">
        <ele>173</ele>
        <time>2018-06-01T10:49:45Z</time>
      </trkpt>
      <trkpt lat="45.92812" lon="4.73762">
        <ele>173</ele>
        <time>2018-06-01T10:49:46Z</time>
      </trkpt>
      <trkpt lat="45.92807" lon="4.7376">
        <ele>173</ele>
        <time>2018-06-01T10:49:47Z</time>
      </trkpt>
      <trkpt lat="45.92801" lon="4.73758">
        <ele>173</ele>
        <time>2018-06-01T10:49:48Z</time>
      </trkpt>
      <trkpt lat="45.92796" lon="4.73755">
        <ele>173</ele>
        <time>2018-06-01T10:49:49Z</time>
      </trkpt>
      <trkpt lat="45.92791" lon="4.73752">
        <ele>173</ele>
        <time>2018-06-01T10:49:50Z</time>
      </trkpt>
      <trkpt lat="45.92785" lon="4.73744">
        <ele>172</ele>
        <time>2018-06-01T10:49:52Z</time>
      </trkpt>
      <trkpt lat="45.92782" lon="4.73738">
        <ele>172</ele>
        <time>2018-06-01T10:49:53Z</time>
      </trkpt>
      <trkpt lat="45.92778" lon="4.73735">
        <ele>172</ele>
        <time>2018-06-01T10:49:54Z</time>
      </trkpt>
      <trkpt lat="45.92774" lon="4.7373">
        <ele>172</ele>
        <time>2018-06-01T10:49:55Z</time>
      </trkpt>
      <trkpt lat="45.9277" lon="4.73727">
        <ele>172</ele>
        <time>2018-06-01T10:49:56Z</time>
      </trkpt>
      <trkpt lat="45.92765" lon="4.73725">
        <ele>172</ele>
        <time>2018-06-01T10:49:57Z</time>
      </trkpt>
      <trkpt lat="45.92757" lon="4.73721">
        <ele>172</ele>
        <time>2018-06-01T10:49:59Z</time>
      </trkpt>
      <trkpt lat="45.92753" lon="4.73721">
        <ele>172</ele>
        <time>2018-06-01T10:50:00Z</time>
      </trkpt>
      <trkpt lat="45.92748" lon="4.73719">
        <ele>173</ele>
        <time>2018-06-01T10:50:01Z</time>
      </trkpt>
      <trkpt lat="45.92743" lon="4.73719">
        <ele>173</ele>
        <time>2018-06-01T10:50:02Z</time>
      </trkpt>
      <trkpt lat="45.92735" lon="4.73717">
        <ele>173</ele>
        <time>2018-06-01T10:50:04Z</time>
      </trkpt>
      <trkpt lat="45.9273" lon="4.73718">
        <ele>173</ele>
        <time>2018-06-01T10:50:05Z</time>
      </trkpt>
      <trkpt lat="45.92726" lon="4.73717">
        <ele>173</ele>
        <time>2018-06-01T10:50:06Z</time>
      </trkpt>
      <trkpt lat="45.92721" lon="4.73715">
        <ele>173</ele>
        <time>2018-06-01T10:50:07Z</time>
      </trkpt>
      <trkpt lat="45.92717" lon="4.73713">
        <ele>173</ele>
        <time>2018-06-01T10:50:08Z</time>
      </trkpt>
      <trkpt lat="45.92712" lon="4.73715">
        <ele>173</ele>
        <time>2018-06-01T10:50:09Z</time>
      </trkpt>
      <trkpt lat="45.92706" lon="4.73717">
        <ele>173</ele>
        <time>2018-06-01T10:50:10Z</time>
      </trkpt>
      <trkpt lat="45.92701" lon="4.73716">
        <ele>173</ele>
        <time>2018-06-01T10:50:11Z</time>
      </trkpt>
      <trkpt lat="45.92696" lon="4.73714">
        <ele>173</ele>
        <time>2018-06-01T10:50:12Z</time>
      </trkpt>
      <trkpt lat="45.92691" lon="4.73713">
        <ele>173</ele>
        <time>2018-06-01T10:50:13Z</time>
      </trkpt>
      <trkpt lat="45.92686" lon="4.73712">
        <ele>173</ele>
        <time>2018-06-01T10:50:14Z</time>
      </trkpt>
      <trkpt lat="45.92682" lon="4.73709">
        <ele>173</ele>
        <time>2018-06-01T10:50:15Z</time>
      </trkpt>
      <trkpt lat="45.92677" lon="4.73707">
        <ele>173</ele>
        <time>2018-06-01T10:50:16Z</time>
      </trkpt>
      <trkpt lat="45.92672" lon="4.73707">
        <ele>174</ele>
        <time>2018-06-01T10:50:17Z</time>
      </trkpt>
      <trkpt lat="45.92668" lon="4.73706">
        <ele>174</ele>
        <time>2018-06-01T10:50:18Z</time>
      </trkpt>
      <trkpt lat="45.92664" lon="4.73703">
        <ele>173</ele>
        <time>2018-06-01T10:50:19Z</time>
      </trkpt>
      <trkpt lat="45.9266" lon="4.737">
        <ele>173</ele>
        <time>2018-06-01T10:50:20Z</time>
      </trkpt>
      <trkpt lat="45.92655" lon="4.73697">
        <ele>173</ele>
        <time>2018-06-01T10:50:21Z</time>
      </trkpt>
      <trkpt lat="45.9265" lon="4.73686">
        <ele>173</ele>
        <time>2018-06-01T10:50:23Z</time>
      </trkpt>
      <trkpt lat="45.92646" lon="4.73682">
        <ele>173</ele>
        <time>2018-06-01T10:50:24Z</time>
      </trkpt>
      <trkpt lat="45.92642" lon="4.73678">
        <ele>173</ele>
        <time>2018-06-01T10:50:25Z</time>
      </trkpt>
      <trkpt lat="45.92639" lon="4.73671">
        <ele>173</ele>
        <time>2018-06-01T10:50:26Z</time>
      </trkpt>
      <trkpt lat="45.92636" lon="4.73666">
        <ele>173</ele>
        <time>2018-06-01T10:50:27Z</time>
      </trkpt>
      <trkpt lat="45.92634" lon="4.7366">
        <ele>173</ele>
        <time>2018-06-01T10:50:28Z</time>
      </trkpt>
      <trkpt lat="45.92631" lon="4.73653">
        <ele>173</ele>
        <time>2018-06-01T10:50:29Z</time>
      </trkpt>
      <trkpt lat="45.92628" lon="4.73648">
        <ele>173</ele>
        <time>2018-06-01T10:50:30Z</time>
      </trkpt>
      <trkpt lat="45.92624" lon="4.73637">
        <ele>173</ele>
        <time>2018-06-01T10:50:32Z</time>
      </trkpt>
      <trkpt lat="45.92622" lon="4.73632">
        <ele>173</ele>
        <time>2018-06-01T10:50:33Z</time>
      </trkpt>
      <trkpt lat="45.92617" lon="4.73629">
        <ele>173</ele>
        <time>2018-06-01T10:50:34Z</time>
      </trkpt>
      <trkpt lat="45.92612" lon="4.73625">
        <ele>173</ele>
        <time>2018-06-01T10:50:35Z</time>
      </trkpt>
      <trkpt lat="45.92607" lon="4.73624">
        <ele>173</ele>
        <time>2018-06-01T10:50:36Z</time>
      </trkpt>
      <trkpt lat="45.92603" lon="4.73623">
        <ele>173</ele>
        <time>2018-06-01T10:50:37Z</time>
      </trkpt>
      <trkpt lat="45.92595" lon="4.73624">
        <ele>173</ele>
        <time>2018-06-01T10:50:39Z</time>
      </trkpt>
      <trkpt lat="45.92592" lon="4.73624">
        <ele>173</ele>
        <time>2018-06-01T10:50:40Z</time>
      </trkpt>
      <trkpt lat="45.92583" lon="4.73626">
        <ele>173</ele>
        <time>2018-06-01T10:50:42Z</time>
      </trkpt>
      <trkpt lat="45.92579" lon="4.73627">
        <ele>173</ele>
        <time>2018-06-01T10:50:43Z</time>
      </trkpt>
      <trkpt lat="45.9257" lon="4.73628">
        <ele>173</ele>
        <time>2018-06-01T10:50:45Z</time>
      </trkpt>
      <trkpt lat="45.92566" lon="4.73627">
        <ele>173</ele>
        <time>2018-06-01T10:50:46Z</time>
      </trkpt>
      <trkpt lat="45.92562" lon="4.73629">
        <ele>173</ele>
        <time>2018-06-01T10:50:47Z</time>
      </trkpt>
      <trkpt lat="45.92557" lon="4.73629">
        <ele>173</ele>
        <time>2018-06-01T10:50:48Z</time>
      </trkpt>
      <trkpt lat="45.92552" lon="4.73631">
        <ele>173</ele>
        <time>2018-06-01T10:50:49Z</time>
      </trkpt>
      <trkpt lat="45.92548" lon="4.73633">
        <ele>173</ele>
        <time>2018-06-01T10:50:50Z</time>
      </trkpt>
      <trkpt lat="45.92543" lon="4.73634">
        <ele>173</ele>
        <time>2018-06-01T10:50:51Z</time>
      </trkpt>
      <trkpt lat="45.92538" lon="4.73634">
        <ele>173</ele>
        <time>2018-06-01T10:50:52Z</time>
      </trkpt>
      <trkpt lat="45.92532" lon="4.73635">
        <ele>173</ele>
        <time>2018-06-01T10:50:53Z</time>
      </trkpt>
      <trkpt lat="45.92527" lon="4.73636">
        <ele>173</ele>
        <time>2018-06-01T10:50:54Z</time>
      </trkpt>
      <trkpt lat="45.92522" lon="4.73636">
        <ele>173</ele>
        <time>2018-06-01T10:50:55Z</time>
      </trkpt>
      <trkpt lat="45.92517" lon="4.73635">
        <ele>173</ele>
        <time>2018-06-01T10:50:56Z</time>
      </trkpt>
      <trkpt lat="45.92508" lon="4.73634">
        <ele>173</ele>
        <time>2018-06-01T10:50:58Z</time>
      </trkpt>
      <trkpt lat="45.92504" lon="4.73634">
        <ele>174</ele>
        <time>2018-06-01T10:50:59Z</time>
      </trkpt>
      <trkpt lat="45.92496" lon="4.73633">
        <ele>174</ele>
        <time>2018-06-01T10:51:01Z</time>
      </trkpt>
      <trkpt lat="45.92491" lon="4.73633">
        <ele>174</ele>
        <time>2018-06-01T10:51:02Z</time>
      </trkpt>
      <trkpt lat="45.92483" lon="4.73631">
        <ele>174</ele>
        <time>2018-06-01T10:51:04Z</time>
      </trkpt>
      <trkpt lat="45.92478" lon="4.73631">
        <ele>174</ele>
        <time>2018-06-01T10:51:05Z</time>
      </trkpt>
      <trkpt lat="45.92472" lon="4.73639">
        <ele>174</ele>
        <time>2018-06-01T10:51:07Z</time>
      </trkpt>
      <trkpt lat="45.9247" lon="4.73647">
        <ele>174</ele>
        <time>2018-06-01T10:51:08Z</time>
      </trkpt>
      <trkpt lat="45.92469" lon="4.73654">
        <ele>174</ele>
        <time>2018-06-01T10:51:09Z</time>
      </trkpt>
      <trkpt lat="45.92469" lon="4.7366">
        <ele>174</ele>
        <time>2018-06-01T10:51:10Z</time>
      </trkpt>
      <trkpt lat="45.92468" lon="4.73667">
        <ele>174</ele>
        <time>2018-06-01T10:51:11Z</time>
      </trkpt>
      <trkpt lat="45.92467" lon="4.73675">
        <ele>174</ele>
        <time>2018-06-01T10:51:12Z</time>
      </trkpt>
      <trkpt lat="45.92466" lon="4.73682">
        <ele>174</ele>
        <time>2018-06-01T10:51:13Z</time>
      </trkpt>
      <trkpt lat="45.92465" lon="4.73689">
        <ele>174</ele>
        <time>2018-06-01T10:51:14Z</time>
      </trkpt>
      <trkpt lat="45.92465" lon="4.73701">
        <ele>174</ele>
        <time>2018-06-01T10:51:17Z</time>
      </trkpt>
      <trkpt lat="45.92464" lon="4.73703">
        <ele>174</ele>
        <time>2018-06-01T10:51:18Z</time>
      </trkpt>
      <trkpt lat="45.92457" lon="4.73708">
        <ele>174</ele>
        <time>2018-06-01T10:51:53.413Z</time>
      </trkpt>
    </trkseg>
  </trk>
</gpx>